<?xml version="1.0" encoding="UTF-8"?>
<gpx version="1.1" creator="https://www.youtrack.es" xsi:schemaLocation="http://www.topografix.com/GPX/1/1 http://www.topografix.com/GPX/1/1/gpx.xsd http://www.garmin.com/xmlschemas/GpxExtensions/v3 http://www.garmin.com/xmlschemas/GpxExtensionsv3.xsd http://www.garmin.com/xmlschemas/TrackPointExtension/v1 http://www.garmin.com/xmlschemas/TrackPointExtensionv1.xsd" xmlns:gpxtpx="http://www.garmin.com/xmlschemas/TrackPointExtension/v1" xmlns:gpxx="http://www.garmin.com/xmlschemas/GpxExtensions/v3" xmlns:xsi="http://www.w3.org/2001/XMLSchema-instance">
  <metadata>
    <link href="https://www.youtrack.es">
      <text>YouTrack.es</text>
    </link>
    <time>2026-05-08T00:52:58Z</time>
  </metadata>
  <trk>
    <src>https://www.youtrack.es</src>
    <link href="https://www.youtrack.es/ruta/24637-anillo-vindio">
      <text>YouTrack.es</text>
    </link>
    <trkseg>
      <trkpt lat="43.263454" lon="-4.983148">
        <ele>1154.089</ele>
        <time>2021-08-01T08:13:59Z</time>
      </trkpt>
      <trkpt lat="43.263418" lon="-4.983197">
        <ele>1151.906</ele>
        <time>2021-08-01T08:14:20Z</time>
      </trkpt>
      <trkpt lat="43.263384" lon="-4.983242">
        <ele>1150.726</ele>
        <time>2021-08-01T08:14:23Z</time>
      </trkpt>
      <trkpt lat="43.263377" lon="-4.983307">
        <ele>1150.408</ele>
        <time>2021-08-01T08:14:27Z</time>
      </trkpt>
      <trkpt lat="43.263383" lon="-4.983376">
        <ele>1150.395</ele>
        <time>2021-08-01T08:14:35Z</time>
      </trkpt>
      <trkpt lat="43.263373" lon="-4.983436">
        <ele>1149.637</ele>
        <time>2021-08-01T08:14:42Z</time>
      </trkpt>
      <trkpt lat="43.263388" lon="-4.983497">
        <ele>1150.566</ele>
        <time>2021-08-01T08:14:55Z</time>
      </trkpt>
      <trkpt lat="43.263379" lon="-4.98356">
        <ele>1150.938</ele>
        <time>2021-08-01T08:15:02Z</time>
      </trkpt>
      <trkpt lat="43.263364" lon="-4.983623">
        <ele>1150.492</ele>
        <time>2021-08-01T08:16:01Z</time>
      </trkpt>
      <trkpt lat="43.26337" lon="-4.983694">
        <ele>1150.169</ele>
        <time>2021-08-01T08:16:05Z</time>
      </trkpt>
      <trkpt lat="43.263373" lon="-4.983757">
        <ele>1150.474</ele>
        <time>2021-08-01T08:16:08Z</time>
      </trkpt>
      <trkpt lat="43.263367" lon="-4.983833">
        <ele>1150.814</ele>
        <time>2021-08-01T08:16:13Z</time>
      </trkpt>
      <trkpt lat="43.263391" lon="-4.983886">
        <ele>1151.259</ele>
        <time>2021-08-01T08:16:35Z</time>
      </trkpt>
      <trkpt lat="43.263416" lon="-4.983941">
        <ele>1152.803</ele>
        <time>2021-08-01T08:16:40Z</time>
      </trkpt>
      <trkpt lat="43.263431" lon="-4.984001">
        <ele>1152.823</ele>
        <time>2021-08-01T08:16:44Z</time>
      </trkpt>
      <trkpt lat="43.263455" lon="-4.984058">
        <ele>1153.108</ele>
        <time>2021-08-01T08:16:47Z</time>
      </trkpt>
      <trkpt lat="43.263466" lon="-4.984119">
        <ele>1153.792</ele>
        <time>2021-08-01T08:16:52Z</time>
      </trkpt>
      <trkpt lat="43.263494" lon="-4.984168">
        <ele>1154.044</ele>
        <time>2021-08-01T08:16:57Z</time>
      </trkpt>
      <trkpt lat="43.263527" lon="-4.98422">
        <ele>1154.633</ele>
        <time>2021-08-01T08:17:02Z</time>
      </trkpt>
      <trkpt lat="43.263528" lon="-4.98429">
        <ele>1155.835</ele>
        <time>2021-08-01T08:17:09Z</time>
      </trkpt>
      <trkpt lat="43.263503" lon="-4.984348">
        <ele>1156.459</ele>
        <time>2021-08-01T08:17:17Z</time>
      </trkpt>
      <trkpt lat="43.26346" lon="-4.984367">
        <ele>1155.316</ele>
        <time>2021-08-01T08:17:32Z</time>
      </trkpt>
      <trkpt lat="43.263449" lon="-4.984433">
        <ele>1154.231</ele>
        <time>2021-08-01T08:17:40Z</time>
      </trkpt>
      <trkpt lat="43.263452" lon="-4.9845">
        <ele>1153.171</ele>
        <time>2021-08-01T08:17:46Z</time>
      </trkpt>
      <trkpt lat="43.263436" lon="-4.984563">
        <ele>1151.576</ele>
        <time>2021-08-01T08:17:51Z</time>
      </trkpt>
      <trkpt lat="43.26342" lon="-4.984625">
        <ele>1150.890</ele>
        <time>2021-08-01T08:17:56Z</time>
      </trkpt>
      <trkpt lat="43.263442" lon="-4.98468">
        <ele>1149.219</ele>
        <time>2021-08-01T08:18:02Z</time>
      </trkpt>
      <trkpt lat="43.263446" lon="-4.984742">
        <ele>1149.008</ele>
        <time>2021-08-01T08:18:10Z</time>
      </trkpt>
      <trkpt lat="43.26345" lon="-4.984805">
        <ele>1148.034</ele>
        <time>2021-08-01T08:18:24Z</time>
      </trkpt>
      <trkpt lat="43.263471" lon="-4.984863">
        <ele>1148.756</ele>
        <time>2021-08-01T08:18:28Z</time>
      </trkpt>
      <trkpt lat="43.263498" lon="-4.98492">
        <ele>1147.925</ele>
        <time>2021-08-01T08:18:33Z</time>
      </trkpt>
      <trkpt lat="43.263522" lon="-4.984978">
        <ele>1148.767</ele>
        <time>2021-08-01T08:18:38Z</time>
      </trkpt>
      <trkpt lat="43.263477" lon="-4.984997">
        <ele>1149.531</ele>
        <time>2021-08-01T08:18:47Z</time>
      </trkpt>
      <trkpt lat="43.263473" lon="-4.985059">
        <ele>1150.238</ele>
        <time>2021-08-01T08:18:50Z</time>
      </trkpt>
      <trkpt lat="43.263461" lon="-4.985119">
        <ele>1149.973</ele>
        <time>2021-08-01T08:19:01Z</time>
      </trkpt>
      <trkpt lat="43.263469" lon="-4.98518">
        <ele>1151.733</ele>
        <time>2021-08-01T08:19:07Z</time>
      </trkpt>
      <trkpt lat="43.263503" lon="-4.985228">
        <ele>1151.963</ele>
        <time>2021-08-01T08:19:08Z</time>
      </trkpt>
      <trkpt lat="43.263497" lon="-4.985296">
        <ele>1151.744</ele>
        <time>2021-08-01T08:19:12Z</time>
      </trkpt>
      <trkpt lat="43.263474" lon="-4.985353">
        <ele>1152.318</ele>
        <time>2021-08-01T08:19:16Z</time>
      </trkpt>
      <trkpt lat="43.263442" lon="-4.985402">
        <ele>1151.608</ele>
        <time>2021-08-01T08:19:19Z</time>
      </trkpt>
      <trkpt lat="43.263428" lon="-4.985464">
        <ele>1151.193</ele>
        <time>2021-08-01T08:19:23Z</time>
      </trkpt>
      <trkpt lat="43.263394" lon="-4.985507">
        <ele>1149.945</ele>
        <time>2021-08-01T08:19:26Z</time>
      </trkpt>
      <trkpt lat="43.263375" lon="-4.985566">
        <ele>1149.744</ele>
        <time>2021-08-01T08:19:29Z</time>
      </trkpt>
      <trkpt lat="43.263351" lon="-4.985623">
        <ele>1149.826</ele>
        <time>2021-08-01T08:19:33Z</time>
      </trkpt>
      <trkpt lat="43.263341" lon="-4.985689">
        <ele>1150.250</ele>
        <time>2021-08-01T08:19:42Z</time>
      </trkpt>
      <trkpt lat="43.26338" lon="-4.985722">
        <ele>1148.247</ele>
        <time>2021-08-01T08:20:02Z</time>
      </trkpt>
      <trkpt lat="43.263421" lon="-4.985753">
        <ele>1146.882</ele>
        <time>2021-08-01T08:20:09Z</time>
      </trkpt>
      <trkpt lat="43.263465" lon="-4.98577">
        <ele>1144.972</ele>
        <time>2021-08-01T08:20:12Z</time>
      </trkpt>
      <trkpt lat="43.263502" lon="-4.985808">
        <ele>1143.939</ele>
        <time>2021-08-01T08:20:16Z</time>
      </trkpt>
      <trkpt lat="43.263549" lon="-4.985835">
        <ele>1143.501</ele>
        <time>2021-08-01T08:20:20Z</time>
      </trkpt>
      <trkpt lat="43.263589" lon="-4.985865">
        <ele>1144.421</ele>
        <time>2021-08-01T08:20:42Z</time>
      </trkpt>
      <trkpt lat="43.263603" lon="-4.985924">
        <ele>1143.308</ele>
        <time>2021-08-01T08:20:50Z</time>
      </trkpt>
      <trkpt lat="43.263582" lon="-4.98598">
        <ele>1141.420</ele>
        <time>2021-08-01T08:20:55Z</time>
      </trkpt>
      <trkpt lat="43.263554" lon="-4.986033">
        <ele>1139.142</ele>
        <time>2021-08-01T08:21:11Z</time>
      </trkpt>
      <trkpt lat="43.263554" lon="-4.986099">
        <ele>1137.441</ele>
        <time>2021-08-01T08:21:18Z</time>
      </trkpt>
      <trkpt lat="43.263591" lon="-4.986138">
        <ele>1137.623</ele>
        <time>2021-08-01T08:21:24Z</time>
      </trkpt>
      <trkpt lat="43.263635" lon="-4.986164">
        <ele>1137.517</ele>
        <time>2021-08-01T08:21:34Z</time>
      </trkpt>
      <trkpt lat="43.263681" lon="-4.986188">
        <ele>1136.744</ele>
        <time>2021-08-01T08:21:43Z</time>
      </trkpt>
      <trkpt lat="43.263696" lon="-4.986247">
        <ele>1137.429</ele>
        <time>2021-08-01T08:21:47Z</time>
      </trkpt>
      <trkpt lat="43.263678" lon="-4.986311">
        <ele>1135.969</ele>
        <time>2021-08-01T08:21:52Z</time>
      </trkpt>
      <trkpt lat="43.263698" lon="-4.986377">
        <ele>1134.388</ele>
        <time>2021-08-01T08:21:58Z</time>
      </trkpt>
      <trkpt lat="43.263666" lon="-4.986429">
        <ele>1132.224</ele>
        <time>2021-08-01T08:22:23Z</time>
      </trkpt>
      <trkpt lat="43.263664" lon="-4.986498">
        <ele>1131.526</ele>
        <time>2021-08-01T08:22:27Z</time>
      </trkpt>
      <trkpt lat="43.263697" lon="-4.98655">
        <ele>1129.008</ele>
        <time>2021-08-01T08:22:30Z</time>
      </trkpt>
      <trkpt lat="43.263743" lon="-4.986558">
        <ele>1127.715</ele>
        <time>2021-08-01T08:22:33Z</time>
      </trkpt>
      <trkpt lat="43.263794" lon="-4.986557">
        <ele>1127.937</ele>
        <time>2021-08-01T08:22:35Z</time>
      </trkpt>
      <trkpt lat="43.263841" lon="-4.986544">
        <ele>1126.656</ele>
        <time>2021-08-01T08:22:39Z</time>
      </trkpt>
      <trkpt lat="43.263889" lon="-4.986548">
        <ele>1125.168</ele>
        <time>2021-08-01T08:22:44Z</time>
      </trkpt>
      <trkpt lat="43.263935" lon="-4.986566">
        <ele>1125.072</ele>
        <time>2021-08-01T08:22:49Z</time>
      </trkpt>
      <trkpt lat="43.263933" lon="-4.986636">
        <ele>1125.949</ele>
        <time>2021-08-01T08:22:58Z</time>
      </trkpt>
      <trkpt lat="43.263961" lon="-4.986688">
        <ele>1124.064</ele>
        <time>2021-08-01T08:23:02Z</time>
      </trkpt>
      <trkpt lat="43.263915" lon="-4.986716">
        <ele>1123.474</ele>
        <time>2021-08-01T08:23:09Z</time>
      </trkpt>
      <trkpt lat="43.263889" lon="-4.98677">
        <ele>1125.412</ele>
        <time>2021-08-01T08:23:16Z</time>
      </trkpt>
      <trkpt lat="43.263899" lon="-4.986843">
        <ele>1126.732</ele>
        <time>2021-08-01T08:23:21Z</time>
      </trkpt>
      <trkpt lat="43.263933" lon="-4.986886">
        <ele>1126.505</ele>
        <time>2021-08-01T08:23:24Z</time>
      </trkpt>
      <trkpt lat="43.263953" lon="-4.986949">
        <ele>1125.708</ele>
        <time>2021-08-01T08:23:50Z</time>
      </trkpt>
      <trkpt lat="43.263971" lon="-4.987008">
        <ele>1124.768</ele>
        <time>2021-08-01T08:23:54Z</time>
      </trkpt>
      <trkpt lat="43.263994" lon="-4.987071">
        <ele>1124.380</ele>
        <time>2021-08-01T08:23:57Z</time>
      </trkpt>
      <trkpt lat="43.264023" lon="-4.987123">
        <ele>1123.739</ele>
        <time>2021-08-01T08:24:00Z</time>
      </trkpt>
      <trkpt lat="43.264058" lon="-4.987169">
        <ele>1123.081</ele>
        <time>2021-08-01T08:24:03Z</time>
      </trkpt>
      <trkpt lat="43.264102" lon="-4.987159">
        <ele>1122.485</ele>
        <time>2021-08-01T08:24:13Z</time>
      </trkpt>
      <trkpt lat="43.264125" lon="-4.987099">
        <ele>1121.712</ele>
        <time>2021-08-01T08:24:23Z</time>
      </trkpt>
      <trkpt lat="43.26417" lon="-4.987098">
        <ele>1122.567</ele>
        <time>2021-08-01T08:24:28Z</time>
      </trkpt>
      <trkpt lat="43.264205" lon="-4.98714">
        <ele>1124.157</ele>
        <time>2021-08-01T08:24:37Z</time>
      </trkpt>
      <trkpt lat="43.264196" lon="-4.987206">
        <ele>1124.722</ele>
        <time>2021-08-01T08:24:42Z</time>
      </trkpt>
      <trkpt lat="43.26418" lon="-4.987273">
        <ele>1122.762</ele>
        <time>2021-08-01T08:24:46Z</time>
      </trkpt>
      <trkpt lat="43.264135" lon="-4.987315">
        <ele>1122.008</ele>
        <time>2021-08-01T08:24:48Z</time>
      </trkpt>
      <trkpt lat="43.26409" lon="-4.987357">
        <ele>1120.708</ele>
        <time>2021-08-01T08:24:50Z</time>
      </trkpt>
      <trkpt lat="43.264052" lon="-4.987404">
        <ele>1120.169</ele>
        <time>2021-08-01T08:24:52Z</time>
      </trkpt>
      <trkpt lat="43.264011" lon="-4.987446">
        <ele>1120.391</ele>
        <time>2021-08-01T08:24:55Z</time>
      </trkpt>
      <trkpt lat="43.26396" lon="-4.987463">
        <ele>1118.510</ele>
        <time>2021-08-01T08:24:58Z</time>
      </trkpt>
      <trkpt lat="43.263919" lon="-4.987499">
        <ele>1117.282</ele>
        <time>2021-08-01T08:25:02Z</time>
      </trkpt>
      <trkpt lat="43.263877" lon="-4.987534">
        <ele>1114.496</ele>
        <time>2021-08-01T08:25:08Z</time>
      </trkpt>
      <trkpt lat="43.263832" lon="-4.987562">
        <ele>1112.163</ele>
        <time>2021-08-01T08:25:18Z</time>
      </trkpt>
      <trkpt lat="43.263792" lon="-4.987602">
        <ele>1109.768</ele>
        <time>2021-08-01T08:25:22Z</time>
      </trkpt>
      <trkpt lat="43.263761" lon="-4.987656">
        <ele>1107.148</ele>
        <time>2021-08-01T08:25:26Z</time>
      </trkpt>
      <trkpt lat="43.26373" lon="-4.987711">
        <ele>1106.094</ele>
        <time>2021-08-01T08:25:29Z</time>
      </trkpt>
      <trkpt lat="43.263701" lon="-4.987765">
        <ele>1105.157</ele>
        <time>2021-08-01T08:25:34Z</time>
      </trkpt>
      <trkpt lat="43.263679" lon="-4.987821">
        <ele>1103.922</ele>
        <time>2021-08-01T08:25:46Z</time>
      </trkpt>
      <trkpt lat="43.263637" lon="-4.987846">
        <ele>1102.608</ele>
        <time>2021-08-01T08:25:51Z</time>
      </trkpt>
      <trkpt lat="43.26359" lon="-4.987852">
        <ele>1101.846</ele>
        <time>2021-08-01T08:25:55Z</time>
      </trkpt>
      <trkpt lat="43.263629" lon="-4.987889">
        <ele>1101.788</ele>
        <time>2021-08-01T08:26:07Z</time>
      </trkpt>
      <trkpt lat="43.263675" lon="-4.987879">
        <ele>1102.447</ele>
        <time>2021-08-01T08:26:11Z</time>
      </trkpt>
      <trkpt lat="43.263723" lon="-4.987887">
        <ele>1102.929</ele>
        <time>2021-08-01T08:26:14Z</time>
      </trkpt>
      <trkpt lat="43.263768" lon="-4.987892">
        <ele>1104.313</ele>
        <time>2021-08-01T08:26:19Z</time>
      </trkpt>
      <trkpt lat="43.263813" lon="-4.987879">
        <ele>1105.620</ele>
        <time>2021-08-01T08:26:24Z</time>
      </trkpt>
      <trkpt lat="43.263797" lon="-4.987937">
        <ele>1106.165</ele>
        <time>2021-08-01T08:26:35Z</time>
      </trkpt>
      <trkpt lat="43.26377" lon="-4.987991">
        <ele>1107.745</ele>
        <time>2021-08-01T08:26:41Z</time>
      </trkpt>
      <trkpt lat="43.263759" lon="-4.988056">
        <ele>1108.963</ele>
        <time>2021-08-01T08:26:49Z</time>
      </trkpt>
      <trkpt lat="43.263725" lon="-4.988105">
        <ele>1109.844</ele>
        <time>2021-08-01T08:26:56Z</time>
      </trkpt>
      <trkpt lat="43.263682" lon="-4.988134">
        <ele>1111.518</ele>
        <time>2021-08-01T08:26:59Z</time>
      </trkpt>
      <trkpt lat="43.263646" lon="-4.988195">
        <ele>1111.408</ele>
        <time>2021-08-01T08:27:03Z</time>
      </trkpt>
      <trkpt lat="43.263618" lon="-4.988253">
        <ele>1111.823</ele>
        <time>2021-08-01T08:27:06Z</time>
      </trkpt>
      <trkpt lat="43.263594" lon="-4.988307">
        <ele>1113.215</ele>
        <time>2021-08-01T08:27:09Z</time>
      </trkpt>
      <trkpt lat="43.263605" lon="-4.988376">
        <ele>1113.714</ele>
        <time>2021-08-01T08:27:14Z</time>
      </trkpt>
      <trkpt lat="43.263651" lon="-4.988398">
        <ele>1112.626</ele>
        <time>2021-08-01T08:27:51Z</time>
      </trkpt>
      <trkpt lat="43.263697" lon="-4.988372">
        <ele>1112.560</ele>
        <time>2021-08-01T08:27:55Z</time>
      </trkpt>
      <trkpt lat="43.263743" lon="-4.988384">
        <ele>1113.317</ele>
        <time>2021-08-01T08:28:00Z</time>
      </trkpt>
      <trkpt lat="43.263786" lon="-4.988356">
        <ele>1113.012</ele>
        <time>2021-08-01T08:28:07Z</time>
      </trkpt>
      <trkpt lat="43.263819" lon="-4.988311">
        <ele>1114.722</ele>
        <time>2021-08-01T08:28:12Z</time>
      </trkpt>
      <trkpt lat="43.26386" lon="-4.988357">
        <ele>1115.723</ele>
        <time>2021-08-01T08:28:18Z</time>
      </trkpt>
      <trkpt lat="43.263872" lon="-4.988421">
        <ele>1116.483</ele>
        <time>2021-08-01T08:28:26Z</time>
      </trkpt>
      <trkpt lat="43.26391" lon="-4.988457">
        <ele>1117.211</ele>
        <time>2021-08-01T08:28:36Z</time>
      </trkpt>
      <trkpt lat="43.263959" lon="-4.98847">
        <ele>1118.508</ele>
        <time>2021-08-01T08:28:48Z</time>
      </trkpt>
      <trkpt lat="43.26399" lon="-4.988516">
        <ele>1118.629</ele>
        <time>2021-08-01T08:28:55Z</time>
      </trkpt>
      <trkpt lat="43.264027" lon="-4.988563">
        <ele>1117.891</ele>
        <time>2021-08-01T08:28:59Z</time>
      </trkpt>
      <trkpt lat="43.264062" lon="-4.98862">
        <ele>1119.020</ele>
        <time>2021-08-01T08:29:03Z</time>
      </trkpt>
      <trkpt lat="43.264074" lon="-4.988684">
        <ele>1118.822</ele>
        <time>2021-08-01T08:29:06Z</time>
      </trkpt>
      <trkpt lat="43.26408" lon="-4.988762">
        <ele>1118.966</ele>
        <time>2021-08-01T08:29:10Z</time>
      </trkpt>
      <trkpt lat="43.264098" lon="-4.988822">
        <ele>1118.053</ele>
        <time>2021-08-01T08:29:16Z</time>
      </trkpt>
      <trkpt lat="43.264115" lon="-4.988884">
        <ele>1118.218</ele>
        <time>2021-08-01T08:29:21Z</time>
      </trkpt>
      <trkpt lat="43.264137" lon="-4.98894">
        <ele>1118.798</ele>
        <time>2021-08-01T08:29:24Z</time>
      </trkpt>
      <trkpt lat="43.264162" lon="-4.988994">
        <ele>1117.754</ele>
        <time>2021-08-01T08:29:28Z</time>
      </trkpt>
      <trkpt lat="43.264206" lon="-4.989025">
        <ele>1117.556</ele>
        <time>2021-08-01T08:29:33Z</time>
      </trkpt>
      <trkpt lat="43.264251" lon="-4.989043">
        <ele>1117.511</ele>
        <time>2021-08-01T08:29:38Z</time>
      </trkpt>
      <trkpt lat="43.264294" lon="-4.98907">
        <ele>1117.408</ele>
        <time>2021-08-01T08:29:44Z</time>
      </trkpt>
      <trkpt lat="43.264325" lon="-4.989126">
        <ele>1118.142</ele>
        <time>2021-08-01T08:29:49Z</time>
      </trkpt>
      <trkpt lat="43.264364" lon="-4.989169">
        <ele>1118.164</ele>
        <time>2021-08-01T08:29:53Z</time>
      </trkpt>
      <trkpt lat="43.264398" lon="-4.98922">
        <ele>1118.113</ele>
        <time>2021-08-01T08:29:58Z</time>
      </trkpt>
      <trkpt lat="43.264427" lon="-4.989269">
        <ele>1117.035</ele>
        <time>2021-08-01T08:30:02Z</time>
      </trkpt>
      <trkpt lat="43.264445" lon="-4.989335">
        <ele>1117.819</ele>
        <time>2021-08-01T08:30:07Z</time>
      </trkpt>
      <trkpt lat="43.264462" lon="-4.989403">
        <ele>1117.276</ele>
        <time>2021-08-01T08:30:10Z</time>
      </trkpt>
      <trkpt lat="43.264459" lon="-4.989466">
        <ele>1117.981</ele>
        <time>2021-08-01T08:30:12Z</time>
      </trkpt>
      <trkpt lat="43.264479" lon="-4.989529">
        <ele>1117.721</ele>
        <time>2021-08-01T08:30:15Z</time>
      </trkpt>
      <trkpt lat="43.264463" lon="-4.98959">
        <ele>1117.851</ele>
        <time>2021-08-01T08:30:29Z</time>
      </trkpt>
      <trkpt lat="43.264456" lon="-4.989659">
        <ele>1117.701</ele>
        <time>2021-08-01T08:30:36Z</time>
      </trkpt>
      <trkpt lat="43.264402" lon="-4.989681">
        <ele>1117.911</ele>
        <time>2021-08-01T08:30:39Z</time>
      </trkpt>
      <trkpt lat="43.264391" lon="-4.989744">
        <ele>1117.908</ele>
        <time>2021-08-01T08:30:45Z</time>
      </trkpt>
      <trkpt lat="43.264438" lon="-4.989767">
        <ele>1117.022</ele>
        <time>2021-08-01T08:30:49Z</time>
      </trkpt>
      <trkpt lat="43.264486" lon="-4.989773">
        <ele>1117.974</ele>
        <time>2021-08-01T08:31:16Z</time>
      </trkpt>
      <trkpt lat="43.264455" lon="-4.989827">
        <ele>1118.593</ele>
        <time>2021-08-01T08:34:25Z</time>
      </trkpt>
      <trkpt lat="43.264443" lon="-4.989888">
        <ele>1122.285</ele>
        <time>2021-08-01T08:35:44Z</time>
      </trkpt>
      <trkpt lat="43.264491" lon="-4.989905">
        <ele>1123.359</ele>
        <time>2021-08-01T08:35:48Z</time>
      </trkpt>
      <trkpt lat="43.264542" lon="-4.989909">
        <ele>1123.696</ele>
        <time>2021-08-01T08:35:52Z</time>
      </trkpt>
      <trkpt lat="43.264586" lon="-4.989923">
        <ele>1124.021</ele>
        <time>2021-08-01T08:35:56Z</time>
      </trkpt>
      <trkpt lat="43.264611" lon="-4.989975">
        <ele>1123.651</ele>
        <time>2021-08-01T08:36:00Z</time>
      </trkpt>
      <trkpt lat="43.264661" lon="-4.989992">
        <ele>1123.614</ele>
        <time>2021-08-01T08:36:05Z</time>
      </trkpt>
      <trkpt lat="43.2647" lon="-4.990032">
        <ele>1122.954</ele>
        <time>2021-08-01T08:36:09Z</time>
      </trkpt>
      <trkpt lat="43.264729" lon="-4.990089">
        <ele>1122.109</ele>
        <time>2021-08-01T08:36:13Z</time>
      </trkpt>
      <trkpt lat="43.264771" lon="-4.990116">
        <ele>1121.608</ele>
        <time>2021-08-01T08:36:20Z</time>
      </trkpt>
      <trkpt lat="43.264813" lon="-4.990142">
        <ele>1120.178</ele>
        <time>2021-08-01T08:37:15Z</time>
      </trkpt>
      <trkpt lat="43.264851" lon="-4.990182">
        <ele>1120.050</ele>
        <time>2021-08-01T08:37:18Z</time>
      </trkpt>
      <trkpt lat="43.264886" lon="-4.990224">
        <ele>1119.189</ele>
        <time>2021-08-01T08:37:21Z</time>
      </trkpt>
      <trkpt lat="43.26492" lon="-4.990281">
        <ele>1118.571</ele>
        <time>2021-08-01T08:37:24Z</time>
      </trkpt>
      <trkpt lat="43.26496" lon="-4.990323">
        <ele>1118.115</ele>
        <time>2021-08-01T08:37:28Z</time>
      </trkpt>
      <trkpt lat="43.264999" lon="-4.99036">
        <ele>1117.892</ele>
        <time>2021-08-01T08:37:31Z</time>
      </trkpt>
      <trkpt lat="43.26504" lon="-4.990393">
        <ele>1117.077</ele>
        <time>2021-08-01T08:37:35Z</time>
      </trkpt>
      <trkpt lat="43.265024" lon="-4.990451">
        <ele>1116.627</ele>
        <time>2021-08-01T08:37:39Z</time>
      </trkpt>
      <trkpt lat="43.265052" lon="-4.990509">
        <ele>1117.058</ele>
        <time>2021-08-01T08:37:48Z</time>
      </trkpt>
      <trkpt lat="43.265057" lon="-4.990578">
        <ele>1116.852</ele>
        <time>2021-08-01T08:37:54Z</time>
      </trkpt>
      <trkpt lat="43.265048" lon="-4.99064">
        <ele>1117.417</ele>
        <time>2021-08-01T08:37:58Z</time>
      </trkpt>
      <trkpt lat="43.265098" lon="-4.990648">
        <ele>1116.608</ele>
        <time>2021-08-01T08:38:15Z</time>
      </trkpt>
      <trkpt lat="43.265059" lon="-4.990606">
        <ele>1116.852</ele>
        <time>2021-08-01T08:38:36Z</time>
      </trkpt>
      <trkpt lat="43.265019" lon="-4.990638">
        <ele>1115.174</ele>
        <time>2021-08-01T08:38:48Z</time>
      </trkpt>
      <trkpt lat="43.264989" lon="-4.990694">
        <ele>1112.793</ele>
        <time>2021-08-01T08:38:55Z</time>
      </trkpt>
      <trkpt lat="43.265039" lon="-4.990707">
        <ele>1110.475</ele>
        <time>2021-08-01T08:39:03Z</time>
      </trkpt>
      <trkpt lat="43.265084" lon="-4.990693">
        <ele>1109.459</ele>
        <time>2021-08-01T08:39:13Z</time>
      </trkpt>
      <trkpt lat="43.265131" lon="-4.99071">
        <ele>1108.646</ele>
        <time>2021-08-01T08:39:17Z</time>
      </trkpt>
      <trkpt lat="43.265179" lon="-4.990706">
        <ele>1108.281</ele>
        <time>2021-08-01T08:39:25Z</time>
      </trkpt>
      <trkpt lat="43.265192" lon="-4.990769">
        <ele>1108.071</ele>
        <time>2021-08-01T08:39:31Z</time>
      </trkpt>
      <trkpt lat="43.265227" lon="-4.990811">
        <ele>1108.022</ele>
        <time>2021-08-01T08:39:35Z</time>
      </trkpt>
      <trkpt lat="43.265271" lon="-4.990793">
        <ele>1108.562</ele>
        <time>2021-08-01T08:39:49Z</time>
      </trkpt>
      <trkpt lat="43.265313" lon="-4.990831">
        <ele>1109.208</ele>
        <time>2021-08-01T08:39:55Z</time>
      </trkpt>
      <trkpt lat="43.265359" lon="-4.990859">
        <ele>1109.708</ele>
        <time>2021-08-01T08:39:58Z</time>
      </trkpt>
      <trkpt lat="43.265404" lon="-4.990869">
        <ele>1110.089</ele>
        <time>2021-08-01T08:40:01Z</time>
      </trkpt>
      <trkpt lat="43.265426" lon="-4.990929">
        <ele>1110.461</ele>
        <time>2021-08-01T08:40:06Z</time>
      </trkpt>
      <trkpt lat="43.265389" lon="-4.990971">
        <ele>1110.950</ele>
        <time>2021-08-01T08:40:13Z</time>
      </trkpt>
      <trkpt lat="43.265374" lon="-4.991034">
        <ele>1111.712</ele>
        <time>2021-08-01T08:40:19Z</time>
      </trkpt>
      <trkpt lat="43.265413" lon="-4.991082">
        <ele>1112.156</ele>
        <time>2021-08-01T08:40:25Z</time>
      </trkpt>
      <trkpt lat="43.26545" lon="-4.991036">
        <ele>1113.263</ele>
        <time>2021-08-01T08:40:45Z</time>
      </trkpt>
      <trkpt lat="43.265498" lon="-4.99102">
        <ele>1113.758</ele>
        <time>2021-08-01T08:40:50Z</time>
      </trkpt>
      <trkpt lat="43.26552" lon="-4.991075">
        <ele>1113.418</ele>
        <time>2021-08-01T08:41:04Z</time>
      </trkpt>
      <trkpt lat="43.265559" lon="-4.991034">
        <ele>1113.343</ele>
        <time>2021-08-01T08:41:10Z</time>
      </trkpt>
      <trkpt lat="43.265581" lon="-4.991095">
        <ele>1112.864</ele>
        <time>2021-08-01T08:41:20Z</time>
      </trkpt>
      <trkpt lat="43.265566" lon="-4.991154">
        <ele>1112.910</ele>
        <time>2021-08-01T08:41:31Z</time>
      </trkpt>
      <trkpt lat="43.265591" lon="-4.991208">
        <ele>1112.908</ele>
        <time>2021-08-01T08:41:40Z</time>
      </trkpt>
      <trkpt lat="43.265615" lon="-4.991263">
        <ele>1112.811</ele>
        <time>2021-08-01T08:41:44Z</time>
      </trkpt>
      <trkpt lat="43.265624" lon="-4.991328">
        <ele>1113.023</ele>
        <time>2021-08-01T08:42:00Z</time>
      </trkpt>
      <trkpt lat="43.265671" lon="-4.991339">
        <ele>1113.392</ele>
        <time>2021-08-01T08:42:06Z</time>
      </trkpt>
      <trkpt lat="43.265702" lon="-4.991394">
        <ele>1112.714</ele>
        <time>2021-08-01T08:42:21Z</time>
      </trkpt>
      <trkpt lat="43.265705" lon="-4.991465">
        <ele>1112.218</ele>
        <time>2021-08-01T08:42:25Z</time>
      </trkpt>
      <trkpt lat="43.265695" lon="-4.991539">
        <ele>1112.165</ele>
        <time>2021-08-01T08:42:28Z</time>
      </trkpt>
      <trkpt lat="43.265665" lon="-4.991589">
        <ele>1111.490</ele>
        <time>2021-08-01T08:42:30Z</time>
      </trkpt>
      <trkpt lat="43.265657" lon="-4.991653">
        <ele>1111.590</ele>
        <time>2021-08-01T08:42:33Z</time>
      </trkpt>
      <trkpt lat="43.265657" lon="-4.991726">
        <ele>1111.632</ele>
        <time>2021-08-01T08:42:37Z</time>
      </trkpt>
      <trkpt lat="43.265673" lon="-4.99179">
        <ele>1111.492</ele>
        <time>2021-08-01T08:42:40Z</time>
      </trkpt>
      <trkpt lat="43.265695" lon="-4.991853">
        <ele>1111.311</ele>
        <time>2021-08-01T08:42:44Z</time>
      </trkpt>
      <trkpt lat="43.265711" lon="-4.991918">
        <ele>1111.108</ele>
        <time>2021-08-01T08:42:47Z</time>
      </trkpt>
      <trkpt lat="43.265727" lon="-4.991979">
        <ele>1111.550</ele>
        <time>2021-08-01T08:42:50Z</time>
      </trkpt>
      <trkpt lat="43.265744" lon="-4.992038">
        <ele>1111.172</ele>
        <time>2021-08-01T08:42:54Z</time>
      </trkpt>
      <trkpt lat="43.265752" lon="-4.9921">
        <ele>1110.881</ele>
        <time>2021-08-01T08:42:57Z</time>
      </trkpt>
      <trkpt lat="43.265782" lon="-4.992151">
        <ele>1110.513</ele>
        <time>2021-08-01T08:43:01Z</time>
      </trkpt>
      <trkpt lat="43.265817" lon="-4.992197">
        <ele>1110.477</ele>
        <time>2021-08-01T08:43:09Z</time>
      </trkpt>
      <trkpt lat="43.265841" lon="-4.992254">
        <ele>1110.244</ele>
        <time>2021-08-01T08:43:13Z</time>
      </trkpt>
      <trkpt lat="43.265855" lon="-4.992316">
        <ele>1110.359</ele>
        <time>2021-08-01T08:43:18Z</time>
      </trkpt>
      <trkpt lat="43.265879" lon="-4.992377">
        <ele>1110.189</ele>
        <time>2021-08-01T08:43:21Z</time>
      </trkpt>
      <trkpt lat="43.265909" lon="-4.992431">
        <ele>1109.798</ele>
        <time>2021-08-01T08:43:24Z</time>
      </trkpt>
      <trkpt lat="43.265944" lon="-4.99248">
        <ele>1109.615</ele>
        <time>2021-08-01T08:43:27Z</time>
      </trkpt>
      <trkpt lat="43.265954" lon="-4.992541">
        <ele>1109.726</ele>
        <time>2021-08-01T08:43:31Z</time>
      </trkpt>
      <trkpt lat="43.265962" lon="-4.992609">
        <ele>1109.408</ele>
        <time>2021-08-01T08:43:34Z</time>
      </trkpt>
      <trkpt lat="43.265968" lon="-4.992679">
        <ele>1109.326</ele>
        <time>2021-08-01T08:43:38Z</time>
      </trkpt>
      <trkpt lat="43.265974" lon="-4.992742">
        <ele>1109.718</ele>
        <time>2021-08-01T08:43:47Z</time>
      </trkpt>
      <trkpt lat="43.266016" lon="-4.992766">
        <ele>1109.527</ele>
        <time>2021-08-01T08:43:51Z</time>
      </trkpt>
      <trkpt lat="43.266061" lon="-4.992769">
        <ele>1109.269</ele>
        <time>2021-08-01T08:43:56Z</time>
      </trkpt>
      <trkpt lat="43.266101" lon="-4.992809">
        <ele>1108.673</ele>
        <time>2021-08-01T08:44:03Z</time>
      </trkpt>
      <trkpt lat="43.266091" lon="-4.99287">
        <ele>1108.480</ele>
        <time>2021-08-01T08:44:09Z</time>
      </trkpt>
      <trkpt lat="43.266068" lon="-4.99293">
        <ele>1107.285</ele>
        <time>2021-08-01T08:44:14Z</time>
      </trkpt>
      <trkpt lat="43.266054" lon="-4.992991">
        <ele>1107.175</ele>
        <time>2021-08-01T08:44:18Z</time>
      </trkpt>
      <trkpt lat="43.266051" lon="-4.993055">
        <ele>1107.243</ele>
        <time>2021-08-01T08:44:22Z</time>
      </trkpt>
      <trkpt lat="43.26607" lon="-4.993126">
        <ele>1107.464</ele>
        <time>2021-08-01T08:44:26Z</time>
      </trkpt>
      <trkpt lat="43.266089" lon="-4.993184">
        <ele>1107.610</ele>
        <time>2021-08-01T08:44:30Z</time>
      </trkpt>
      <trkpt lat="43.2661" lon="-4.993244">
        <ele>1107.008</ele>
        <time>2021-08-01T08:44:35Z</time>
      </trkpt>
      <trkpt lat="43.26611" lon="-4.993307">
        <ele>1106.851</ele>
        <time>2021-08-01T08:44:39Z</time>
      </trkpt>
      <trkpt lat="43.266128" lon="-4.993372">
        <ele>1106.923</ele>
        <time>2021-08-01T08:44:43Z</time>
      </trkpt>
      <trkpt lat="43.266147" lon="-4.993435">
        <ele>1106.532</ele>
        <time>2021-08-01T08:44:46Z</time>
      </trkpt>
      <trkpt lat="43.266157" lon="-4.993505">
        <ele>1106.814</ele>
        <time>2021-08-01T08:44:58Z</time>
      </trkpt>
      <trkpt lat="43.266171" lon="-4.993567">
        <ele>1106.368</ele>
        <time>2021-08-01T08:45:01Z</time>
      </trkpt>
      <trkpt lat="43.266184" lon="-4.99364">
        <ele>1106.665</ele>
        <time>2021-08-01T08:45:05Z</time>
      </trkpt>
      <trkpt lat="43.266212" lon="-4.993688">
        <ele>1105.980</ele>
        <time>2021-08-01T08:45:08Z</time>
      </trkpt>
      <trkpt lat="43.26623" lon="-4.993755">
        <ele>1105.940</ele>
        <time>2021-08-01T08:45:12Z</time>
      </trkpt>
      <trkpt lat="43.266228" lon="-4.99382">
        <ele>1106.089</ele>
        <time>2021-08-01T08:45:16Z</time>
      </trkpt>
      <trkpt lat="43.266217" lon="-4.993889">
        <ele>1106.606</ele>
        <time>2021-08-01T08:45:20Z</time>
      </trkpt>
      <trkpt lat="43.266189" lon="-4.993943">
        <ele>1106.326</ele>
        <time>2021-08-01T08:45:24Z</time>
      </trkpt>
      <trkpt lat="43.266155" lon="-4.993985">
        <ele>1106.908</ele>
        <time>2021-08-01T08:45:28Z</time>
      </trkpt>
      <trkpt lat="43.266124" lon="-4.99405">
        <ele>1106.665</ele>
        <time>2021-08-01T08:45:32Z</time>
      </trkpt>
      <trkpt lat="43.2661" lon="-4.994115">
        <ele>1106.727</ele>
        <time>2021-08-01T08:45:36Z</time>
      </trkpt>
      <trkpt lat="43.266088" lon="-4.994183">
        <ele>1107.186</ele>
        <time>2021-08-01T08:45:42Z</time>
      </trkpt>
      <trkpt lat="43.266077" lon="-4.994246">
        <ele>1107.358</ele>
        <time>2021-08-01T08:45:45Z</time>
      </trkpt>
      <trkpt lat="43.266067" lon="-4.99432">
        <ele>1106.822</ele>
        <time>2021-08-01T08:45:49Z</time>
      </trkpt>
      <trkpt lat="43.266067" lon="-4.994384">
        <ele>1107.219</ele>
        <time>2021-08-01T08:45:53Z</time>
      </trkpt>
      <trkpt lat="43.266051" lon="-4.994458">
        <ele>1107.174</ele>
        <time>2021-08-01T08:45:57Z</time>
      </trkpt>
      <trkpt lat="43.266034" lon="-4.99452">
        <ele>1106.664</ele>
        <time>2021-08-01T08:46:00Z</time>
      </trkpt>
      <trkpt lat="43.266029" lon="-4.994585">
        <ele>1106.696</ele>
        <time>2021-08-01T08:46:05Z</time>
      </trkpt>
      <trkpt lat="43.26603" lon="-4.994647">
        <ele>1106.431</ele>
        <time>2021-08-01T08:46:08Z</time>
      </trkpt>
      <trkpt lat="43.266049" lon="-4.994706">
        <ele>1106.824</ele>
        <time>2021-08-01T08:46:12Z</time>
      </trkpt>
      <trkpt lat="43.266081" lon="-4.994763">
        <ele>1107.208</ele>
        <time>2021-08-01T08:46:16Z</time>
      </trkpt>
      <trkpt lat="43.266126" lon="-4.994781">
        <ele>1107.476</ele>
        <time>2021-08-01T08:46:20Z</time>
      </trkpt>
      <trkpt lat="43.266167" lon="-4.994825">
        <ele>1107.278</ele>
        <time>2021-08-01T08:46:27Z</time>
      </trkpt>
      <trkpt lat="43.26617" lon="-4.99489">
        <ele>1107.057</ele>
        <time>2021-08-01T08:46:32Z</time>
      </trkpt>
      <trkpt lat="43.26618" lon="-4.994953">
        <ele>1106.869</ele>
        <time>2021-08-01T08:46:37Z</time>
      </trkpt>
      <trkpt lat="43.266213" lon="-4.995008">
        <ele>1107.143</ele>
        <time>2021-08-01T08:46:42Z</time>
      </trkpt>
      <trkpt lat="43.266235" lon="-4.995067">
        <ele>1107.260</ele>
        <time>2021-08-01T08:46:48Z</time>
      </trkpt>
      <trkpt lat="43.266232" lon="-4.995133">
        <ele>1107.475</ele>
        <time>2021-08-01T08:46:53Z</time>
      </trkpt>
      <trkpt lat="43.26623" lon="-4.995202">
        <ele>1107.385</ele>
        <time>2021-08-01T08:47:02Z</time>
      </trkpt>
      <trkpt lat="43.2662" lon="-4.99525">
        <ele>1107.121</ele>
        <time>2021-08-01T08:47:15Z</time>
      </trkpt>
      <trkpt lat="43.266208" lon="-4.995313">
        <ele>1107.341</ele>
        <time>2021-08-01T08:47:20Z</time>
      </trkpt>
      <trkpt lat="43.266215" lon="-4.995381">
        <ele>1107.005</ele>
        <time>2021-08-01T08:47:24Z</time>
      </trkpt>
      <trkpt lat="43.26626" lon="-4.995421">
        <ele>1107.308</ele>
        <time>2021-08-01T08:47:30Z</time>
      </trkpt>
      <trkpt lat="43.266284" lon="-4.995478">
        <ele>1106.949</ele>
        <time>2021-08-01T08:47:53Z</time>
      </trkpt>
      <trkpt lat="43.266291" lon="-4.995544">
        <ele>1107.011</ele>
        <time>2021-08-01T08:47:58Z</time>
      </trkpt>
      <trkpt lat="43.266288" lon="-4.99562">
        <ele>1106.880</ele>
        <time>2021-08-01T08:48:02Z</time>
      </trkpt>
      <trkpt lat="43.266294" lon="-4.995689">
        <ele>1105.992</ele>
        <time>2021-08-01T08:48:21Z</time>
      </trkpt>
      <trkpt lat="43.266317" lon="-4.995752">
        <ele>1105.736</ele>
        <time>2021-08-01T08:48:27Z</time>
      </trkpt>
      <trkpt lat="43.266351" lon="-4.995793">
        <ele>1105.883</ele>
        <time>2021-08-01T08:48:32Z</time>
      </trkpt>
      <trkpt lat="43.266393" lon="-4.995822">
        <ele>1105.668</ele>
        <time>2021-08-01T08:49:03Z</time>
      </trkpt>
      <trkpt lat="43.266392" lon="-4.995885">
        <ele>1105.338</ele>
        <time>2021-08-01T08:49:08Z</time>
      </trkpt>
      <trkpt lat="43.266341" lon="-4.995905">
        <ele>1104.617</ele>
        <time>2021-08-01T08:49:12Z</time>
      </trkpt>
      <trkpt lat="43.266298" lon="-4.99588">
        <ele>1104.487</ele>
        <time>2021-08-01T08:49:18Z</time>
      </trkpt>
      <trkpt lat="43.266341" lon="-4.995903">
        <ele>1104.515</ele>
        <time>2021-08-01T08:49:23Z</time>
      </trkpt>
      <trkpt lat="43.266379" lon="-4.995949">
        <ele>1104.108</ele>
        <time>2021-08-01T08:49:29Z</time>
      </trkpt>
      <trkpt lat="43.266421" lon="-4.995976">
        <ele>1103.788</ele>
        <time>2021-08-01T08:49:35Z</time>
      </trkpt>
      <trkpt lat="43.26642" lon="-4.996043">
        <ele>1103.120</ele>
        <time>2021-08-01T08:49:41Z</time>
      </trkpt>
      <trkpt lat="43.266459" lon="-4.996079">
        <ele>1103.059</ele>
        <time>2021-08-01T08:49:51Z</time>
      </trkpt>
      <trkpt lat="43.266435" lon="-4.996137">
        <ele>1102.591</ele>
        <time>2021-08-01T08:49:57Z</time>
      </trkpt>
      <trkpt lat="43.26645" lon="-4.996197">
        <ele>1102.555</ele>
        <time>2021-08-01T08:50:04Z</time>
      </trkpt>
      <trkpt lat="43.266467" lon="-4.996262">
        <ele>1102.372</ele>
        <time>2021-08-01T08:50:07Z</time>
      </trkpt>
      <trkpt lat="43.266458" lon="-4.996328">
        <ele>1102.137</ele>
        <time>2021-08-01T08:50:13Z</time>
      </trkpt>
      <trkpt lat="43.266432" lon="-4.996382">
        <ele>1102.357</ele>
        <time>2021-08-01T08:50:19Z</time>
      </trkpt>
      <trkpt lat="43.2664" lon="-4.996432">
        <ele>1101.996</ele>
        <time>2021-08-01T08:50:23Z</time>
      </trkpt>
      <trkpt lat="43.266374" lon="-4.996504">
        <ele>1102.031</ele>
        <time>2021-08-01T08:50:26Z</time>
      </trkpt>
      <trkpt lat="43.266352" lon="-4.996567">
        <ele>1101.624</ele>
        <time>2021-08-01T08:50:29Z</time>
      </trkpt>
      <trkpt lat="43.266334" lon="-4.996625">
        <ele>1102.108</ele>
        <time>2021-08-01T08:50:33Z</time>
      </trkpt>
      <trkpt lat="43.266306" lon="-4.996678">
        <ele>1102.126</ele>
        <time>2021-08-01T08:50:40Z</time>
      </trkpt>
      <trkpt lat="43.266274" lon="-4.996734">
        <ele>1101.758</ele>
        <time>2021-08-01T08:50:46Z</time>
      </trkpt>
      <trkpt lat="43.266232" lon="-4.996779">
        <ele>1101.797</ele>
        <time>2021-08-01T08:50:51Z</time>
      </trkpt>
      <trkpt lat="43.266209" lon="-4.996832">
        <ele>1101.879</ele>
        <time>2021-08-01T08:50:55Z</time>
      </trkpt>
      <trkpt lat="43.266179" lon="-4.996886">
        <ele>1102.053</ele>
        <time>2021-08-01T08:50:59Z</time>
      </trkpt>
      <trkpt lat="43.266154" lon="-4.996951">
        <ele>1102.230</ele>
        <time>2021-08-01T08:51:03Z</time>
      </trkpt>
      <trkpt lat="43.266139" lon="-4.997016">
        <ele>1102.555</ele>
        <time>2021-08-01T08:51:06Z</time>
      </trkpt>
      <trkpt lat="43.266102" lon="-4.997059">
        <ele>1102.065</ele>
        <time>2021-08-01T08:51:15Z</time>
      </trkpt>
      <trkpt lat="43.266058" lon="-4.997083">
        <ele>1101.663</ele>
        <time>2021-08-01T08:51:18Z</time>
      </trkpt>
      <trkpt lat="43.266009" lon="-4.99708">
        <ele>1101.144</ele>
        <time>2021-08-01T08:51:21Z</time>
      </trkpt>
      <trkpt lat="43.265966" lon="-4.997099">
        <ele>1101.518</ele>
        <time>2021-08-01T08:51:25Z</time>
      </trkpt>
      <trkpt lat="43.265919" lon="-4.997107">
        <ele>1101.208</ele>
        <time>2021-08-01T08:51:34Z</time>
      </trkpt>
      <trkpt lat="43.265876" lon="-4.997145">
        <ele>1100.213</ele>
        <time>2021-08-01T08:51:40Z</time>
      </trkpt>
      <trkpt lat="43.265834" lon="-4.997171">
        <ele>1099.465</ele>
        <time>2021-08-01T08:51:44Z</time>
      </trkpt>
      <trkpt lat="43.265793" lon="-4.997211">
        <ele>1098.754</ele>
        <time>2021-08-01T08:51:49Z</time>
      </trkpt>
      <trkpt lat="43.265742" lon="-4.997232">
        <ele>1097.736</ele>
        <time>2021-08-01T08:51:55Z</time>
      </trkpt>
      <trkpt lat="43.265704" lon="-4.997198">
        <ele>1097.490</ele>
        <time>2021-08-01T08:52:02Z</time>
      </trkpt>
      <trkpt lat="43.265658" lon="-4.9972">
        <ele>1097.437</ele>
        <time>2021-08-01T08:52:05Z</time>
      </trkpt>
      <trkpt lat="43.265616" lon="-4.997169">
        <ele>1096.472</ele>
        <time>2021-08-01T08:52:10Z</time>
      </trkpt>
      <trkpt lat="43.265562" lon="-4.997139">
        <ele>1095.992</ele>
        <time>2021-08-01T08:52:15Z</time>
      </trkpt>
      <trkpt lat="43.26551" lon="-4.997146">
        <ele>1094.821</ele>
        <time>2021-08-01T08:52:19Z</time>
      </trkpt>
      <trkpt lat="43.265467" lon="-4.997167">
        <ele>1094.441</ele>
        <time>2021-08-01T08:52:23Z</time>
      </trkpt>
      <trkpt lat="43.265476" lon="-4.997237">
        <ele>1094.605</ele>
        <time>2021-08-01T08:52:27Z</time>
      </trkpt>
      <trkpt lat="43.265492" lon="-4.997296">
        <ele>1093.408</ele>
        <time>2021-08-01T08:52:31Z</time>
      </trkpt>
      <trkpt lat="43.265501" lon="-4.997361">
        <ele>1092.779</ele>
        <time>2021-08-01T08:52:34Z</time>
      </trkpt>
      <trkpt lat="43.265504" lon="-4.997429">
        <ele>1092.421</ele>
        <time>2021-08-01T08:52:38Z</time>
      </trkpt>
      <trkpt lat="43.265496" lon="-4.997492">
        <ele>1092.370</ele>
        <time>2021-08-01T08:52:45Z</time>
      </trkpt>
      <trkpt lat="43.265461" lon="-4.997537">
        <ele>1091.622</ele>
        <time>2021-08-01T08:52:59Z</time>
      </trkpt>
      <trkpt lat="43.265426" lon="-4.997583">
        <ele>1091.046</ele>
        <time>2021-08-01T08:53:02Z</time>
      </trkpt>
      <trkpt lat="43.265384" lon="-4.997632">
        <ele>1090.533</ele>
        <time>2021-08-01T08:53:05Z</time>
      </trkpt>
      <trkpt lat="43.265358" lon="-4.997682">
        <ele>1090.358</ele>
        <time>2021-08-01T08:53:08Z</time>
      </trkpt>
      <trkpt lat="43.265328" lon="-4.997746">
        <ele>1089.728</ele>
        <time>2021-08-01T08:53:11Z</time>
      </trkpt>
      <trkpt lat="43.265279" lon="-4.997762">
        <ele>1088.986</ele>
        <time>2021-08-01T08:53:14Z</time>
      </trkpt>
      <trkpt lat="43.265233" lon="-4.997787">
        <ele>1089.060</ele>
        <time>2021-08-01T08:53:18Z</time>
      </trkpt>
      <trkpt lat="43.265189" lon="-4.99783">
        <ele>1088.626</ele>
        <time>2021-08-01T08:53:22Z</time>
      </trkpt>
      <trkpt lat="43.265142" lon="-4.99786">
        <ele>1087.708</ele>
        <time>2021-08-01T08:53:25Z</time>
      </trkpt>
      <trkpt lat="43.265093" lon="-4.99788">
        <ele>1087.785</ele>
        <time>2021-08-01T08:53:30Z</time>
      </trkpt>
      <trkpt lat="43.265048" lon="-4.997902">
        <ele>1087.377</ele>
        <time>2021-08-01T08:53:34Z</time>
      </trkpt>
      <trkpt lat="43.264995" lon="-4.997935">
        <ele>1087.166</ele>
        <time>2021-08-01T08:53:39Z</time>
      </trkpt>
      <trkpt lat="43.264954" lon="-4.997962">
        <ele>1086.758</ele>
        <time>2021-08-01T08:53:43Z</time>
      </trkpt>
      <trkpt lat="43.264905" lon="-4.99799">
        <ele>1086.222</ele>
        <time>2021-08-01T08:53:47Z</time>
      </trkpt>
      <trkpt lat="43.264862" lon="-4.998015">
        <ele>1085.379</ele>
        <time>2021-08-01T08:53:50Z</time>
      </trkpt>
      <trkpt lat="43.264809" lon="-4.998031">
        <ele>1085.684</ele>
        <time>2021-08-01T08:53:55Z</time>
      </trkpt>
      <trkpt lat="43.264761" lon="-4.998029">
        <ele>1084.964</ele>
        <time>2021-08-01T08:53:58Z</time>
      </trkpt>
      <trkpt lat="43.26471" lon="-4.998009">
        <ele>1084.245</ele>
        <time>2021-08-01T08:54:01Z</time>
      </trkpt>
      <trkpt lat="43.264659" lon="-4.997984">
        <ele>1084.147</ele>
        <time>2021-08-01T08:54:04Z</time>
      </trkpt>
      <trkpt lat="43.264609" lon="-4.997983">
        <ele>1083.511</ele>
        <time>2021-08-01T08:54:08Z</time>
      </trkpt>
      <trkpt lat="43.264555" lon="-4.997985">
        <ele>1083.108</ele>
        <time>2021-08-01T08:54:12Z</time>
      </trkpt>
      <trkpt lat="43.26451" lon="-4.997976">
        <ele>1082.961</ele>
        <time>2021-08-01T08:54:17Z</time>
      </trkpt>
      <trkpt lat="43.26446" lon="-4.997971">
        <ele>1083.013</ele>
        <time>2021-08-01T08:54:21Z</time>
      </trkpt>
      <trkpt lat="43.264408" lon="-4.99796">
        <ele>1082.542</ele>
        <time>2021-08-01T08:54:26Z</time>
      </trkpt>
      <trkpt lat="43.26436" lon="-4.99798">
        <ele>1082.514</ele>
        <time>2021-08-01T08:54:30Z</time>
      </trkpt>
      <trkpt lat="43.264307" lon="-4.997995">
        <ele>1082.348</ele>
        <time>2021-08-01T08:54:38Z</time>
      </trkpt>
      <trkpt lat="43.264264" lon="-4.998041">
        <ele>1083.225</ele>
        <time>2021-08-01T08:54:45Z</time>
      </trkpt>
      <trkpt lat="43.264229" lon="-4.998092">
        <ele>1084.440</ele>
        <time>2021-08-01T08:54:49Z</time>
      </trkpt>
      <trkpt lat="43.264192" lon="-4.998131">
        <ele>1084.750</ele>
        <time>2021-08-01T08:54:55Z</time>
      </trkpt>
      <trkpt lat="43.264141" lon="-4.998158">
        <ele>1083.718</ele>
        <time>2021-08-01T08:55:00Z</time>
      </trkpt>
      <trkpt lat="43.264095" lon="-4.998172">
        <ele>1083.898</ele>
        <time>2021-08-01T08:55:03Z</time>
      </trkpt>
      <trkpt lat="43.264046" lon="-4.998179">
        <ele>1084.017</ele>
        <time>2021-08-01T08:55:07Z</time>
      </trkpt>
      <trkpt lat="43.263998" lon="-4.998197">
        <ele>1084.108</ele>
        <time>2021-08-01T08:55:12Z</time>
      </trkpt>
      <trkpt lat="43.263954" lon="-4.998219">
        <ele>1084.878</ele>
        <time>2021-08-01T08:55:15Z</time>
      </trkpt>
      <trkpt lat="43.263914" lon="-4.99825">
        <ele>1085.190</ele>
        <time>2021-08-01T08:55:19Z</time>
      </trkpt>
      <trkpt lat="43.263875" lon="-4.9983">
        <ele>1085.189</ele>
        <time>2021-08-01T08:55:24Z</time>
      </trkpt>
      <trkpt lat="43.263854" lon="-4.998361">
        <ele>1085.061</ele>
        <time>2021-08-01T08:55:28Z</time>
      </trkpt>
      <trkpt lat="43.263835" lon="-4.998436">
        <ele>1085.695</ele>
        <time>2021-08-01T08:55:32Z</time>
      </trkpt>
      <trkpt lat="43.263837" lon="-4.998515">
        <ele>1086.322</ele>
        <time>2021-08-01T08:55:37Z</time>
      </trkpt>
      <trkpt lat="43.26384" lon="-4.998582">
        <ele>1086.837</ele>
        <time>2021-08-01T08:55:42Z</time>
      </trkpt>
      <trkpt lat="43.263835" lon="-4.998645">
        <ele>1086.827</ele>
        <time>2021-08-01T08:55:45Z</time>
      </trkpt>
      <trkpt lat="43.263828" lon="-4.998707">
        <ele>1086.995</ele>
        <time>2021-08-01T08:55:49Z</time>
      </trkpt>
      <trkpt lat="43.263832" lon="-4.998782">
        <ele>1087.049</ele>
        <time>2021-08-01T08:55:53Z</time>
      </trkpt>
      <trkpt lat="43.263832" lon="-4.998848">
        <ele>1087.323</ele>
        <time>2021-08-01T08:55:57Z</time>
      </trkpt>
      <trkpt lat="43.26382" lon="-4.998908">
        <ele>1087.608</ele>
        <time>2021-08-01T08:56:02Z</time>
      </trkpt>
      <trkpt lat="43.263818" lon="-4.998975">
        <ele>1087.916</ele>
        <time>2021-08-01T08:56:06Z</time>
      </trkpt>
      <trkpt lat="43.263819" lon="-4.999041">
        <ele>1088.438</ele>
        <time>2021-08-01T08:56:09Z</time>
      </trkpt>
      <trkpt lat="43.263826" lon="-4.999111">
        <ele>1088.257</ele>
        <time>2021-08-01T08:56:14Z</time>
      </trkpt>
      <trkpt lat="43.263829" lon="-4.99918">
        <ele>1088.439</ele>
        <time>2021-08-01T08:56:18Z</time>
      </trkpt>
      <trkpt lat="43.263829" lon="-4.999246">
        <ele>1088.013</ele>
        <time>2021-08-01T08:56:22Z</time>
      </trkpt>
      <trkpt lat="43.263828" lon="-4.999312">
        <ele>1088.390</ele>
        <time>2021-08-01T08:56:27Z</time>
      </trkpt>
      <trkpt lat="43.263828" lon="-4.999378">
        <ele>1089.355</ele>
        <time>2021-08-01T08:56:30Z</time>
      </trkpt>
      <trkpt lat="43.263827" lon="-4.999445">
        <ele>1089.545</ele>
        <time>2021-08-01T08:56:33Z</time>
      </trkpt>
      <trkpt lat="43.263837" lon="-4.99951">
        <ele>1090.194</ele>
        <time>2021-08-01T08:56:37Z</time>
      </trkpt>
      <trkpt lat="43.263824" lon="-4.999574">
        <ele>1089.157</ele>
        <time>2021-08-01T08:56:41Z</time>
      </trkpt>
      <trkpt lat="43.263823" lon="-4.999638">
        <ele>1089.422</ele>
        <time>2021-08-01T08:56:44Z</time>
      </trkpt>
      <trkpt lat="43.263814" lon="-4.999701">
        <ele>1089.708</ele>
        <time>2021-08-01T08:56:47Z</time>
      </trkpt>
      <trkpt lat="43.263805" lon="-4.999774">
        <ele>1089.836</ele>
        <time>2021-08-01T08:56:51Z</time>
      </trkpt>
      <trkpt lat="43.263771" lon="-4.999824">
        <ele>1089.878</ele>
        <time>2021-08-01T08:56:55Z</time>
      </trkpt>
      <trkpt lat="43.263746" lon="-4.99988">
        <ele>1089.627</ele>
        <time>2021-08-01T08:56:59Z</time>
      </trkpt>
      <trkpt lat="43.263746" lon="-4.999944">
        <ele>1089.449</ele>
        <time>2021-08-01T08:57:03Z</time>
      </trkpt>
      <trkpt lat="43.263764" lon="-5.000011">
        <ele>1089.783</ele>
        <time>2021-08-01T08:57:07Z</time>
      </trkpt>
      <trkpt lat="43.263758" lon="-5.000074">
        <ele>1089.250</ele>
        <time>2021-08-01T08:57:10Z</time>
      </trkpt>
      <trkpt lat="43.263751" lon="-5.000145">
        <ele>1089.195</ele>
        <time>2021-08-01T08:57:14Z</time>
      </trkpt>
      <trkpt lat="43.263751" lon="-5.000219">
        <ele>1088.765</ele>
        <time>2021-08-01T08:57:17Z</time>
      </trkpt>
      <trkpt lat="43.263755" lon="-5.000281">
        <ele>1088.874</ele>
        <time>2021-08-01T08:57:20Z</time>
      </trkpt>
      <trkpt lat="43.263758" lon="-5.00035">
        <ele>1088.956</ele>
        <time>2021-08-01T08:57:23Z</time>
      </trkpt>
      <trkpt lat="43.263762" lon="-5.000425">
        <ele>1089.421</ele>
        <time>2021-08-01T08:57:25Z</time>
      </trkpt>
      <trkpt lat="43.263765" lon="-5.000504">
        <ele>1088.808</ele>
        <time>2021-08-01T08:57:28Z</time>
      </trkpt>
      <trkpt lat="43.263757" lon="-5.000571">
        <ele>1089.644</ele>
        <time>2021-08-01T08:57:31Z</time>
      </trkpt>
      <trkpt lat="43.263746" lon="-5.000633">
        <ele>1089.326</ele>
        <time>2021-08-01T08:57:34Z</time>
      </trkpt>
      <trkpt lat="43.263735" lon="-5.000699">
        <ele>1089.135</ele>
        <time>2021-08-01T08:57:38Z</time>
      </trkpt>
      <trkpt lat="43.263723" lon="-5.000762">
        <ele>1089.557</ele>
        <time>2021-08-01T08:57:41Z</time>
      </trkpt>
      <trkpt lat="43.263707" lon="-5.000824">
        <ele>1089.341</ele>
        <time>2021-08-01T08:57:45Z</time>
      </trkpt>
      <trkpt lat="43.263688" lon="-5.00089">
        <ele>1089.148</ele>
        <time>2021-08-01T08:57:49Z</time>
      </trkpt>
      <trkpt lat="43.263665" lon="-5.00095">
        <ele>1088.413</ele>
        <time>2021-08-01T08:57:53Z</time>
      </trkpt>
      <trkpt lat="43.263635" lon="-5.001007">
        <ele>1088.223</ele>
        <time>2021-08-01T08:57:58Z</time>
      </trkpt>
      <trkpt lat="43.263606" lon="-5.00106">
        <ele>1088.377</ele>
        <time>2021-08-01T08:58:02Z</time>
      </trkpt>
      <trkpt lat="43.263574" lon="-5.001115">
        <ele>1088.461</ele>
        <time>2021-08-01T08:58:06Z</time>
      </trkpt>
      <trkpt lat="43.263528" lon="-5.00115">
        <ele>1088.227</ele>
        <time>2021-08-01T08:58:11Z</time>
      </trkpt>
      <trkpt lat="43.263486" lon="-5.001187">
        <ele>1088.308</ele>
        <time>2021-08-01T08:58:16Z</time>
      </trkpt>
      <trkpt lat="43.263446" lon="-5.001223">
        <ele>1088.774</ele>
        <time>2021-08-01T08:58:21Z</time>
      </trkpt>
      <trkpt lat="43.263396" lon="-5.001244">
        <ele>1089.126</ele>
        <time>2021-08-01T08:58:25Z</time>
      </trkpt>
      <trkpt lat="43.263347" lon="-5.001241">
        <ele>1088.545</ele>
        <time>2021-08-01T08:58:29Z</time>
      </trkpt>
      <trkpt lat="43.263298" lon="-5.001214">
        <ele>1088.967</ele>
        <time>2021-08-01T08:58:32Z</time>
      </trkpt>
      <trkpt lat="43.263249" lon="-5.001192">
        <ele>1088.451</ele>
        <time>2021-08-01T08:58:36Z</time>
      </trkpt>
      <trkpt lat="43.263211" lon="-5.001159">
        <ele>1088.958</ele>
        <time>2021-08-01T08:58:40Z</time>
      </trkpt>
      <trkpt lat="43.263167" lon="-5.001129">
        <ele>1088.623</ele>
        <time>2021-08-01T08:58:44Z</time>
      </trkpt>
      <trkpt lat="43.263118" lon="-5.001105">
        <ele>1088.963</ele>
        <time>2021-08-01T08:58:49Z</time>
      </trkpt>
      <trkpt lat="43.26307" lon="-5.001083">
        <ele>1088.478</ele>
        <time>2021-08-01T08:58:52Z</time>
      </trkpt>
      <trkpt lat="43.263031" lon="-5.001038">
        <ele>1088.633</ele>
        <time>2021-08-01T08:58:55Z</time>
      </trkpt>
      <trkpt lat="43.262989" lon="-5.001015">
        <ele>1088.026</ele>
        <time>2021-08-01T08:59:00Z</time>
      </trkpt>
      <trkpt lat="43.262934" lon="-5.001025">
        <ele>1087.508</ele>
        <time>2021-08-01T08:59:04Z</time>
      </trkpt>
      <trkpt lat="43.26288" lon="-5.001025">
        <ele>1087.364</ele>
        <time>2021-08-01T08:59:08Z</time>
      </trkpt>
      <trkpt lat="43.262835" lon="-5.001016">
        <ele>1087.496</ele>
        <time>2021-08-01T08:59:13Z</time>
      </trkpt>
      <trkpt lat="43.262791" lon="-5.000988">
        <ele>1086.935</ele>
        <time>2021-08-01T08:59:18Z</time>
      </trkpt>
      <trkpt lat="43.262748" lon="-5.000965">
        <ele>1086.697</ele>
        <time>2021-08-01T08:59:21Z</time>
      </trkpt>
      <trkpt lat="43.262705" lon="-5.00094">
        <ele>1086.591</ele>
        <time>2021-08-01T08:59:24Z</time>
      </trkpt>
      <trkpt lat="43.262661" lon="-5.000911">
        <ele>1086.238</ele>
        <time>2021-08-01T08:59:28Z</time>
      </trkpt>
      <trkpt lat="43.262622" lon="-5.000879">
        <ele>1085.893</ele>
        <time>2021-08-01T08:59:32Z</time>
      </trkpt>
      <trkpt lat="43.262572" lon="-5.000846">
        <ele>1085.693</ele>
        <time>2021-08-01T08:59:37Z</time>
      </trkpt>
      <trkpt lat="43.262522" lon="-5.000849">
        <ele>1085.451</ele>
        <time>2021-08-01T08:59:41Z</time>
      </trkpt>
      <trkpt lat="43.262471" lon="-5.000872">
        <ele>1085.401</ele>
        <time>2021-08-01T08:59:44Z</time>
      </trkpt>
      <trkpt lat="43.262432" lon="-5.00091">
        <ele>1084.911</ele>
        <time>2021-08-01T08:59:47Z</time>
      </trkpt>
      <trkpt lat="43.262407" lon="-5.000966">
        <ele>1084.808</ele>
        <time>2021-08-01T08:59:50Z</time>
      </trkpt>
      <trkpt lat="43.262372" lon="-5.001009">
        <ele>1084.432</ele>
        <time>2021-08-01T08:59:53Z</time>
      </trkpt>
      <trkpt lat="43.262344" lon="-5.001058">
        <ele>1084.564</ele>
        <time>2021-08-01T08:59:56Z</time>
      </trkpt>
      <trkpt lat="43.262303" lon="-5.001104">
        <ele>1083.993</ele>
        <time>2021-08-01T09:00:00Z</time>
      </trkpt>
      <trkpt lat="43.262273" lon="-5.001158">
        <ele>1083.625</ele>
        <time>2021-08-01T09:00:05Z</time>
      </trkpt>
      <trkpt lat="43.262242" lon="-5.001228">
        <ele>1083.639</ele>
        <time>2021-08-01T09:00:09Z</time>
      </trkpt>
      <trkpt lat="43.262213" lon="-5.001293">
        <ele>1082.456</ele>
        <time>2021-08-01T09:00:13Z</time>
      </trkpt>
      <trkpt lat="43.262195" lon="-5.001353">
        <ele>1082.871</ele>
        <time>2021-08-01T09:00:17Z</time>
      </trkpt>
      <trkpt lat="43.26218" lon="-5.001413">
        <ele>1083.181</ele>
        <time>2021-08-01T09:00:20Z</time>
      </trkpt>
      <trkpt lat="43.262169" lon="-5.001477">
        <ele>1082.823</ele>
        <time>2021-08-01T09:00:23Z</time>
      </trkpt>
      <trkpt lat="43.262156" lon="-5.001553">
        <ele>1082.983</ele>
        <time>2021-08-01T09:00:27Z</time>
      </trkpt>
      <trkpt lat="43.262145" lon="-5.001626">
        <ele>1082.611</ele>
        <time>2021-08-01T09:00:31Z</time>
      </trkpt>
      <trkpt lat="43.262129" lon="-5.001695">
        <ele>1082.008</ele>
        <time>2021-08-01T09:00:35Z</time>
      </trkpt>
      <trkpt lat="43.262113" lon="-5.001755">
        <ele>1082.379</ele>
        <time>2021-08-01T09:00:39Z</time>
      </trkpt>
      <trkpt lat="43.262102" lon="-5.001819">
        <ele>1082.721</ele>
        <time>2021-08-01T09:00:43Z</time>
      </trkpt>
      <trkpt lat="43.262092" lon="-5.001886">
        <ele>1082.910</ele>
        <time>2021-08-01T09:00:48Z</time>
      </trkpt>
      <trkpt lat="43.262082" lon="-5.001952">
        <ele>1083.312</ele>
        <time>2021-08-01T09:00:52Z</time>
      </trkpt>
      <trkpt lat="43.262071" lon="-5.002015">
        <ele>1083.156</ele>
        <time>2021-08-01T09:00:55Z</time>
      </trkpt>
      <trkpt lat="43.262063" lon="-5.002081">
        <ele>1083.253</ele>
        <time>2021-08-01T09:00:58Z</time>
      </trkpt>
      <trkpt lat="43.262054" lon="-5.002151">
        <ele>1083.178</ele>
        <time>2021-08-01T09:01:02Z</time>
      </trkpt>
      <trkpt lat="43.262044" lon="-5.002215">
        <ele>1082.778</ele>
        <time>2021-08-01T09:01:05Z</time>
      </trkpt>
      <trkpt lat="43.262031" lon="-5.002282">
        <ele>1083.715</ele>
        <time>2021-08-01T09:01:08Z</time>
      </trkpt>
      <trkpt lat="43.262016" lon="-5.002356">
        <ele>1083.965</ele>
        <time>2021-08-01T09:01:12Z</time>
      </trkpt>
      <trkpt lat="43.262004" lon="-5.002425">
        <ele>1083.811</ele>
        <time>2021-08-01T09:01:15Z</time>
      </trkpt>
      <trkpt lat="43.261997" lon="-5.002497">
        <ele>1084.008</ele>
        <time>2021-08-01T09:01:18Z</time>
      </trkpt>
      <trkpt lat="43.261997" lon="-5.002561">
        <ele>1083.988</ele>
        <time>2021-08-01T09:01:21Z</time>
      </trkpt>
      <trkpt lat="43.261994" lon="-5.002629">
        <ele>1083.960</ele>
        <time>2021-08-01T09:01:24Z</time>
      </trkpt>
      <trkpt lat="43.26199" lon="-5.002691">
        <ele>1084.229</ele>
        <time>2021-08-01T09:01:27Z</time>
      </trkpt>
      <trkpt lat="43.261949" lon="-5.002727">
        <ele>1084.561</ele>
        <time>2021-08-01T09:01:30Z</time>
      </trkpt>
      <trkpt lat="43.261939" lon="-5.002799">
        <ele>1084.235</ele>
        <time>2021-08-01T09:01:36Z</time>
      </trkpt>
      <trkpt lat="43.261928" lon="-5.002871">
        <ele>1085.342</ele>
        <time>2021-08-01T09:01:40Z</time>
      </trkpt>
      <trkpt lat="43.261923" lon="-5.002941">
        <ele>1084.987</ele>
        <time>2021-08-01T09:01:43Z</time>
      </trkpt>
      <trkpt lat="43.261919" lon="-5.003022">
        <ele>1084.767</ele>
        <time>2021-08-01T09:01:47Z</time>
      </trkpt>
      <trkpt lat="43.26191" lon="-5.003096">
        <ele>1085.325</ele>
        <time>2021-08-01T09:01:51Z</time>
      </trkpt>
      <trkpt lat="43.261899" lon="-5.003176">
        <ele>1085.426</ele>
        <time>2021-08-01T09:01:55Z</time>
      </trkpt>
      <trkpt lat="43.261894" lon="-5.00324">
        <ele>1086.008</ele>
        <time>2021-08-01T09:01:58Z</time>
      </trkpt>
      <trkpt lat="43.261899" lon="-5.003305">
        <ele>1086.808</ele>
        <time>2021-08-01T09:02:02Z</time>
      </trkpt>
      <trkpt lat="43.261906" lon="-5.00337">
        <ele>1086.969</ele>
        <time>2021-08-01T09:02:06Z</time>
      </trkpt>
      <trkpt lat="43.261914" lon="-5.003441">
        <ele>1086.951</ele>
        <time>2021-08-01T09:02:10Z</time>
      </trkpt>
      <trkpt lat="43.261919" lon="-5.003513">
        <ele>1087.360</ele>
        <time>2021-08-01T09:02:14Z</time>
      </trkpt>
      <trkpt lat="43.261918" lon="-5.003584">
        <ele>1087.512</ele>
        <time>2021-08-01T09:02:19Z</time>
      </trkpt>
      <trkpt lat="43.261912" lon="-5.003654">
        <ele>1087.516</ele>
        <time>2021-08-01T09:02:23Z</time>
      </trkpt>
      <trkpt lat="43.261897" lon="-5.003726">
        <ele>1087.553</ele>
        <time>2021-08-01T09:02:26Z</time>
      </trkpt>
      <trkpt lat="43.261887" lon="-5.003796">
        <ele>1087.698</ele>
        <time>2021-08-01T09:02:29Z</time>
      </trkpt>
      <trkpt lat="43.261876" lon="-5.003869">
        <ele>1086.648</ele>
        <time>2021-08-01T09:02:32Z</time>
      </trkpt>
      <trkpt lat="43.261862" lon="-5.003944">
        <ele>1087.451</ele>
        <time>2021-08-01T09:02:36Z</time>
      </trkpt>
      <trkpt lat="43.261849" lon="-5.004011">
        <ele>1087.901</ele>
        <time>2021-08-01T09:02:41Z</time>
      </trkpt>
      <trkpt lat="43.261847" lon="-5.004077">
        <ele>1088.311</ele>
        <time>2021-08-01T09:02:44Z</time>
      </trkpt>
      <trkpt lat="43.261847" lon="-5.004145">
        <ele>1088.908</ele>
        <time>2021-08-01T09:02:47Z</time>
      </trkpt>
      <trkpt lat="43.261837" lon="-5.004209">
        <ele>1088.912</ele>
        <time>2021-08-01T09:02:51Z</time>
      </trkpt>
      <trkpt lat="43.261812" lon="-5.004264">
        <ele>1088.914</ele>
        <time>2021-08-01T09:02:56Z</time>
      </trkpt>
      <trkpt lat="43.261798" lon="-5.004327">
        <ele>1089.313</ele>
        <time>2021-08-01T09:03:00Z</time>
      </trkpt>
      <trkpt lat="43.261794" lon="-5.004399">
        <ele>1089.925</ele>
        <time>2021-08-01T09:03:04Z</time>
      </trkpt>
      <trkpt lat="43.26179" lon="-5.004477">
        <ele>1090.029</ele>
        <time>2021-08-01T09:03:07Z</time>
      </trkpt>
      <trkpt lat="43.261777" lon="-5.00455">
        <ele>1090.126</ele>
        <time>2021-08-01T09:03:10Z</time>
      </trkpt>
      <trkpt lat="43.261762" lon="-5.004613">
        <ele>1090.441</ele>
        <time>2021-08-01T09:03:13Z</time>
      </trkpt>
      <trkpt lat="43.261753" lon="-5.004688">
        <ele>1089.981</ele>
        <time>2021-08-01T09:03:16Z</time>
      </trkpt>
      <trkpt lat="43.261743" lon="-5.004759">
        <ele>1089.875</ele>
        <time>2021-08-01T09:03:19Z</time>
      </trkpt>
      <trkpt lat="43.261742" lon="-5.004827">
        <ele>1089.428</ele>
        <time>2021-08-01T09:03:23Z</time>
      </trkpt>
      <trkpt lat="43.261748" lon="-5.004893">
        <ele>1089.520</ele>
        <time>2021-08-01T09:03:27Z</time>
      </trkpt>
      <trkpt lat="43.261755" lon="-5.004956">
        <ele>1089.208</ele>
        <time>2021-08-01T09:03:31Z</time>
      </trkpt>
      <trkpt lat="43.261759" lon="-5.005024">
        <ele>1089.674</ele>
        <time>2021-08-01T09:03:36Z</time>
      </trkpt>
      <trkpt lat="43.261758" lon="-5.005087">
        <ele>1089.926</ele>
        <time>2021-08-01T09:03:39Z</time>
      </trkpt>
      <trkpt lat="43.261765" lon="-5.005156">
        <ele>1089.915</ele>
        <time>2021-08-01T09:03:43Z</time>
      </trkpt>
      <trkpt lat="43.261762" lon="-5.005231">
        <ele>1090.037</ele>
        <time>2021-08-01T09:03:47Z</time>
      </trkpt>
      <trkpt lat="43.261758" lon="-5.0053">
        <ele>1090.661</ele>
        <time>2021-08-01T09:03:52Z</time>
      </trkpt>
      <trkpt lat="43.261755" lon="-5.005365">
        <ele>1090.758</ele>
        <time>2021-08-01T09:03:56Z</time>
      </trkpt>
      <trkpt lat="43.261752" lon="-5.00544">
        <ele>1090.243</ele>
        <time>2021-08-01T09:04:00Z</time>
      </trkpt>
      <trkpt lat="43.261754" lon="-5.005505">
        <ele>1090.533</ele>
        <time>2021-08-01T09:04:03Z</time>
      </trkpt>
      <trkpt lat="43.261752" lon="-5.005571">
        <ele>1090.277</ele>
        <time>2021-08-01T09:04:08Z</time>
      </trkpt>
      <trkpt lat="43.261754" lon="-5.00564">
        <ele>1089.861</ele>
        <time>2021-08-01T09:04:12Z</time>
      </trkpt>
      <trkpt lat="43.261754" lon="-5.005703">
        <ele>1090.027</ele>
        <time>2021-08-01T09:04:15Z</time>
      </trkpt>
      <trkpt lat="43.261749" lon="-5.005772">
        <ele>1090.108</ele>
        <time>2021-08-01T09:04:18Z</time>
      </trkpt>
      <trkpt lat="43.261741" lon="-5.005839">
        <ele>1090.454</ele>
        <time>2021-08-01T09:04:21Z</time>
      </trkpt>
      <trkpt lat="43.26173" lon="-5.005904">
        <ele>1090.276</ele>
        <time>2021-08-01T09:04:24Z</time>
      </trkpt>
      <trkpt lat="43.261719" lon="-5.005969">
        <ele>1090.445</ele>
        <time>2021-08-01T09:04:27Z</time>
      </trkpt>
      <trkpt lat="43.261711" lon="-5.006043">
        <ele>1090.817</ele>
        <time>2021-08-01T09:04:31Z</time>
      </trkpt>
      <trkpt lat="43.261712" lon="-5.006112">
        <ele>1090.971</ele>
        <time>2021-08-01T09:04:35Z</time>
      </trkpt>
      <trkpt lat="43.261718" lon="-5.006178">
        <ele>1091.338</ele>
        <time>2021-08-01T09:04:39Z</time>
      </trkpt>
      <trkpt lat="43.261724" lon="-5.006249">
        <ele>1091.543</ele>
        <time>2021-08-01T09:04:43Z</time>
      </trkpt>
      <trkpt lat="43.261722" lon="-5.006323">
        <ele>1091.633</ele>
        <time>2021-08-01T09:04:47Z</time>
      </trkpt>
      <trkpt lat="43.261719" lon="-5.006386">
        <ele>1091.976</ele>
        <time>2021-08-01T09:04:51Z</time>
      </trkpt>
      <trkpt lat="43.261722" lon="-5.00645">
        <ele>1092.490</ele>
        <time>2021-08-01T09:04:55Z</time>
      </trkpt>
      <trkpt lat="43.261729" lon="-5.006513">
        <ele>1092.219</ele>
        <time>2021-08-01T09:04:58Z</time>
      </trkpt>
      <trkpt lat="43.261741" lon="-5.006573">
        <ele>1091.808</ele>
        <time>2021-08-01T09:05:01Z</time>
      </trkpt>
      <trkpt lat="43.261758" lon="-5.006647">
        <ele>1091.654</ele>
        <time>2021-08-01T09:05:04Z</time>
      </trkpt>
      <trkpt lat="43.261771" lon="-5.006709">
        <ele>1091.986</ele>
        <time>2021-08-01T09:05:08Z</time>
      </trkpt>
      <trkpt lat="43.261785" lon="-5.006771">
        <ele>1092.285</ele>
        <time>2021-08-01T09:05:11Z</time>
      </trkpt>
      <trkpt lat="43.261794" lon="-5.006834">
        <ele>1091.617</ele>
        <time>2021-08-01T09:05:15Z</time>
      </trkpt>
      <trkpt lat="43.26181" lon="-5.006898">
        <ele>1091.661</ele>
        <time>2021-08-01T09:05:19Z</time>
      </trkpt>
      <trkpt lat="43.261843" lon="-5.006965">
        <ele>1091.698</ele>
        <time>2021-08-01T09:05:23Z</time>
      </trkpt>
      <trkpt lat="43.261882" lon="-5.007017">
        <ele>1091.773</ele>
        <time>2021-08-01T09:05:27Z</time>
      </trkpt>
      <trkpt lat="43.261892" lon="-5.007078">
        <ele>1091.273</ele>
        <time>2021-08-01T09:05:37Z</time>
      </trkpt>
      <trkpt lat="43.261913" lon="-5.00714">
        <ele>1091.612</ele>
        <time>2021-08-01T09:05:42Z</time>
      </trkpt>
      <trkpt lat="43.261928" lon="-5.007204">
        <ele>1091.632</ele>
        <time>2021-08-01T09:05:47Z</time>
      </trkpt>
      <trkpt lat="43.26195" lon="-5.007265">
        <ele>1091.805</ele>
        <time>2021-08-01T09:05:51Z</time>
      </trkpt>
      <trkpt lat="43.261976" lon="-5.007326">
        <ele>1091.408</ele>
        <time>2021-08-01T09:05:55Z</time>
      </trkpt>
      <trkpt lat="43.261999" lon="-5.00738">
        <ele>1091.098</ele>
        <time>2021-08-01T09:05:58Z</time>
      </trkpt>
      <trkpt lat="43.262023" lon="-5.007438">
        <ele>1090.730</ele>
        <time>2021-08-01T09:06:01Z</time>
      </trkpt>
      <trkpt lat="43.262044" lon="-5.007504">
        <ele>1090.989</ele>
        <time>2021-08-01T09:06:05Z</time>
      </trkpt>
      <trkpt lat="43.262059" lon="-5.00757">
        <ele>1091.371</ele>
        <time>2021-08-01T09:06:08Z</time>
      </trkpt>
      <trkpt lat="43.262076" lon="-5.00763">
        <ele>1091.555</ele>
        <time>2021-08-01T09:06:12Z</time>
      </trkpt>
      <trkpt lat="43.262088" lon="-5.007699">
        <ele>1091.292</ele>
        <time>2021-08-01T09:06:17Z</time>
      </trkpt>
      <trkpt lat="43.262103" lon="-5.007764">
        <ele>1091.687</ele>
        <time>2021-08-01T09:06:21Z</time>
      </trkpt>
      <trkpt lat="43.262125" lon="-5.007828">
        <ele>1092.287</ele>
        <time>2021-08-01T09:06:25Z</time>
      </trkpt>
      <trkpt lat="43.262149" lon="-5.007883">
        <ele>1092.241</ele>
        <time>2021-08-01T09:06:28Z</time>
      </trkpt>
      <trkpt lat="43.262174" lon="-5.007943">
        <ele>1092.781</ele>
        <time>2021-08-01T09:06:31Z</time>
      </trkpt>
      <trkpt lat="43.262203" lon="-5.008008">
        <ele>1092.609</ele>
        <time>2021-08-01T09:06:35Z</time>
      </trkpt>
      <trkpt lat="43.262231" lon="-5.008075">
        <ele>1093.008</ele>
        <time>2021-08-01T09:06:39Z</time>
      </trkpt>
      <trkpt lat="43.262256" lon="-5.008134">
        <ele>1092.461</ele>
        <time>2021-08-01T09:06:43Z</time>
      </trkpt>
      <trkpt lat="43.26228" lon="-5.008187">
        <ele>1092.533</ele>
        <time>2021-08-01T09:06:46Z</time>
      </trkpt>
      <trkpt lat="43.26231" lon="-5.00824">
        <ele>1092.342</ele>
        <time>2021-08-01T09:06:50Z</time>
      </trkpt>
      <trkpt lat="43.262338" lon="-5.00829">
        <ele>1093.254</ele>
        <time>2021-08-01T09:06:53Z</time>
      </trkpt>
      <trkpt lat="43.262368" lon="-5.008346">
        <ele>1092.858</ele>
        <time>2021-08-01T09:06:57Z</time>
      </trkpt>
      <trkpt lat="43.262397" lon="-5.008408">
        <ele>1093.925</ele>
        <time>2021-08-01T09:07:01Z</time>
      </trkpt>
      <trkpt lat="43.26242" lon="-5.008469">
        <ele>1093.950</ele>
        <time>2021-08-01T09:07:05Z</time>
      </trkpt>
      <trkpt lat="43.262439" lon="-5.008545">
        <ele>1093.660</ele>
        <time>2021-08-01T09:07:09Z</time>
      </trkpt>
      <trkpt lat="43.262455" lon="-5.008609">
        <ele>1093.754</ele>
        <time>2021-08-01T09:07:12Z</time>
      </trkpt>
      <trkpt lat="43.262471" lon="-5.008674">
        <ele>1094.256</ele>
        <time>2021-08-01T09:07:16Z</time>
      </trkpt>
      <trkpt lat="43.262482" lon="-5.00874">
        <ele>1094.011</ele>
        <time>2021-08-01T09:07:19Z</time>
      </trkpt>
      <trkpt lat="43.26249" lon="-5.008815">
        <ele>1093.608</ele>
        <time>2021-08-01T09:07:22Z</time>
      </trkpt>
      <trkpt lat="43.262495" lon="-5.008888">
        <ele>1093.772</ele>
        <time>2021-08-01T09:07:26Z</time>
      </trkpt>
      <trkpt lat="43.262493" lon="-5.00895">
        <ele>1093.914</ele>
        <time>2021-08-01T09:07:29Z</time>
      </trkpt>
      <trkpt lat="43.262494" lon="-5.009013">
        <ele>1094.483</ele>
        <time>2021-08-01T09:07:32Z</time>
      </trkpt>
      <trkpt lat="43.262513" lon="-5.009087">
        <ele>1094.555</ele>
        <time>2021-08-01T09:07:36Z</time>
      </trkpt>
      <trkpt lat="43.262529" lon="-5.009146">
        <ele>1094.239</ele>
        <time>2021-08-01T09:07:40Z</time>
      </trkpt>
      <trkpt lat="43.262542" lon="-5.009208">
        <ele>1094.576</ele>
        <time>2021-08-01T09:07:43Z</time>
      </trkpt>
      <trkpt lat="43.26255" lon="-5.009271">
        <ele>1093.861</ele>
        <time>2021-08-01T09:07:46Z</time>
      </trkpt>
      <trkpt lat="43.262547" lon="-5.009335">
        <ele>1093.981</ele>
        <time>2021-08-01T09:07:52Z</time>
      </trkpt>
      <trkpt lat="43.262561" lon="-5.009395">
        <ele>1093.549</ele>
        <time>2021-08-01T09:07:56Z</time>
      </trkpt>
      <trkpt lat="43.262574" lon="-5.009457">
        <ele>1093.302</ele>
        <time>2021-08-01T09:08:00Z</time>
      </trkpt>
      <trkpt lat="43.262598" lon="-5.009517">
        <ele>1094.122</ele>
        <time>2021-08-01T09:08:04Z</time>
      </trkpt>
      <trkpt lat="43.262622" lon="-5.009579">
        <ele>1093.608</ele>
        <time>2021-08-01T09:08:08Z</time>
      </trkpt>
      <trkpt lat="43.262647" lon="-5.009639">
        <ele>1093.471</ele>
        <time>2021-08-01T09:08:12Z</time>
      </trkpt>
      <trkpt lat="43.262667" lon="-5.009698">
        <ele>1093.113</ele>
        <time>2021-08-01T09:08:16Z</time>
      </trkpt>
      <trkpt lat="43.262667" lon="-5.009766">
        <ele>1092.672</ele>
        <time>2021-08-01T09:08:22Z</time>
      </trkpt>
      <trkpt lat="43.262658" lon="-5.009837">
        <ele>1092.454</ele>
        <time>2021-08-01T09:08:26Z</time>
      </trkpt>
      <trkpt lat="43.262661" lon="-5.009907">
        <ele>1092.468</ele>
        <time>2021-08-01T09:08:32Z</time>
      </trkpt>
      <trkpt lat="43.262666" lon="-5.009979">
        <ele>1092.915</ele>
        <time>2021-08-01T09:08:37Z</time>
      </trkpt>
      <trkpt lat="43.26266" lon="-5.01004">
        <ele>1093.050</ele>
        <time>2021-08-01T09:08:40Z</time>
      </trkpt>
      <trkpt lat="43.262655" lon="-5.010119">
        <ele>1092.480</ele>
        <time>2021-08-01T09:08:44Z</time>
      </trkpt>
      <trkpt lat="43.262648" lon="-5.01019">
        <ele>1092.783</ele>
        <time>2021-08-01T09:08:47Z</time>
      </trkpt>
      <trkpt lat="43.262644" lon="-5.010263">
        <ele>1092.225</ele>
        <time>2021-08-01T09:08:51Z</time>
      </trkpt>
      <trkpt lat="43.26264" lon="-5.010329">
        <ele>1092.017</ele>
        <time>2021-08-01T09:08:55Z</time>
      </trkpt>
      <trkpt lat="43.26262" lon="-5.010392">
        <ele>1091.708</ele>
        <time>2021-08-01T09:09:00Z</time>
      </trkpt>
      <trkpt lat="43.262594" lon="-5.010452">
        <ele>1091.575</ele>
        <time>2021-08-01T09:09:03Z</time>
      </trkpt>
      <trkpt lat="43.262558" lon="-5.010496">
        <ele>1091.757</ele>
        <time>2021-08-01T09:09:06Z</time>
      </trkpt>
      <trkpt lat="43.262521" lon="-5.010545">
        <ele>1091.456</ele>
        <time>2021-08-01T09:09:11Z</time>
      </trkpt>
      <trkpt lat="43.262484" lon="-5.010579">
        <ele>1091.558</ele>
        <time>2021-08-01T09:09:17Z</time>
      </trkpt>
      <trkpt lat="43.262443" lon="-5.010606">
        <ele>1091.992</ele>
        <time>2021-08-01T09:09:20Z</time>
      </trkpt>
      <trkpt lat="43.262396" lon="-5.010604">
        <ele>1091.169</ele>
        <time>2021-08-01T09:09:23Z</time>
      </trkpt>
      <trkpt lat="43.262377" lon="-5.010545">
        <ele>1090.994</ele>
        <time>2021-08-01T09:09:38Z</time>
      </trkpt>
      <trkpt lat="43.262356" lon="-5.010483">
        <ele>1091.674</ele>
        <time>2021-08-01T09:10:06Z</time>
      </trkpt>
      <trkpt lat="43.262354" lon="-5.010414">
        <ele>1091.432</ele>
        <time>2021-08-01T09:10:09Z</time>
      </trkpt>
      <trkpt lat="43.262342" lon="-5.010351">
        <ele>1091.792</ele>
        <time>2021-08-01T09:10:13Z</time>
      </trkpt>
      <trkpt lat="43.262329" lon="-5.010284">
        <ele>1092.111</ele>
        <time>2021-08-01T09:10:19Z</time>
      </trkpt>
      <trkpt lat="43.262316" lon="-5.010223">
        <ele>1092.108</ele>
        <time>2021-08-01T09:10:22Z</time>
      </trkpt>
      <trkpt lat="43.262298" lon="-5.010157">
        <ele>1092.230</ele>
        <time>2021-08-01T09:10:27Z</time>
      </trkpt>
      <trkpt lat="43.262275" lon="-5.010096">
        <ele>1092.512</ele>
        <time>2021-08-01T09:10:32Z</time>
      </trkpt>
      <trkpt lat="43.262254" lon="-5.010031">
        <ele>1092.781</ele>
        <time>2021-08-01T09:10:36Z</time>
      </trkpt>
      <trkpt lat="43.262227" lon="-5.009982">
        <ele>1092.563</ele>
        <time>2021-08-01T09:10:39Z</time>
      </trkpt>
      <trkpt lat="43.262199" lon="-5.009929">
        <ele>1092.457</ele>
        <time>2021-08-01T09:10:43Z</time>
      </trkpt>
      <trkpt lat="43.262168" lon="-5.009877">
        <ele>1092.234</ele>
        <time>2021-08-01T09:10:47Z</time>
      </trkpt>
      <trkpt lat="43.262135" lon="-5.009825">
        <ele>1091.869</ele>
        <time>2021-08-01T09:10:50Z</time>
      </trkpt>
      <trkpt lat="43.262102" lon="-5.00978">
        <ele>1091.669</ele>
        <time>2021-08-01T09:10:53Z</time>
      </trkpt>
      <trkpt lat="43.262062" lon="-5.009742">
        <ele>1091.722</ele>
        <time>2021-08-01T09:10:57Z</time>
      </trkpt>
      <trkpt lat="43.262025" lon="-5.0097">
        <ele>1091.362</ele>
        <time>2021-08-01T09:11:01Z</time>
      </trkpt>
      <trkpt lat="43.261985" lon="-5.009666">
        <ele>1090.608</ele>
        <time>2021-08-01T09:11:05Z</time>
      </trkpt>
      <trkpt lat="43.261942" lon="-5.009635">
        <ele>1089.908</ele>
        <time>2021-08-01T09:11:09Z</time>
      </trkpt>
      <trkpt lat="43.261898" lon="-5.009614">
        <ele>1089.639</ele>
        <time>2021-08-01T09:11:12Z</time>
      </trkpt>
      <trkpt lat="43.261854" lon="-5.009577">
        <ele>1089.991</ele>
        <time>2021-08-01T09:11:17Z</time>
      </trkpt>
      <trkpt lat="43.261813" lon="-5.009538">
        <ele>1089.850</ele>
        <time>2021-08-01T09:11:20Z</time>
      </trkpt>
      <trkpt lat="43.261782" lon="-5.009488">
        <ele>1089.752</ele>
        <time>2021-08-01T09:11:23Z</time>
      </trkpt>
      <trkpt lat="43.261745" lon="-5.009445">
        <ele>1088.966</ele>
        <time>2021-08-01T09:11:27Z</time>
      </trkpt>
      <trkpt lat="43.26171" lon="-5.009402">
        <ele>1088.273</ele>
        <time>2021-08-01T09:11:32Z</time>
      </trkpt>
      <trkpt lat="43.261688" lon="-5.009346">
        <ele>1087.858</ele>
        <time>2021-08-01T09:11:37Z</time>
      </trkpt>
      <trkpt lat="43.261659" lon="-5.009292">
        <ele>1087.258</ele>
        <time>2021-08-01T09:11:42Z</time>
      </trkpt>
      <trkpt lat="43.261622" lon="-5.009255">
        <ele>1086.127</ele>
        <time>2021-08-01T09:11:46Z</time>
      </trkpt>
      <trkpt lat="43.261576" lon="-5.009251">
        <ele>1086.068</ele>
        <time>2021-08-01T09:11:49Z</time>
      </trkpt>
      <trkpt lat="43.261531" lon="-5.009268">
        <ele>1084.014</ele>
        <time>2021-08-01T09:11:55Z</time>
      </trkpt>
      <trkpt lat="43.26148" lon="-5.009268">
        <ele>1082.808</ele>
        <time>2021-08-01T09:11:59Z</time>
      </trkpt>
      <trkpt lat="43.261425" lon="-5.009259">
        <ele>1082.169</ele>
        <time>2021-08-01T09:12:02Z</time>
      </trkpt>
      <trkpt lat="43.26138" lon="-5.009244">
        <ele>1081.311</ele>
        <time>2021-08-01T09:12:05Z</time>
      </trkpt>
      <trkpt lat="43.26133" lon="-5.009236">
        <ele>1081.030</ele>
        <time>2021-08-01T09:12:08Z</time>
      </trkpt>
      <trkpt lat="43.261285" lon="-5.009231">
        <ele>1080.722</ele>
        <time>2021-08-01T09:12:11Z</time>
      </trkpt>
      <trkpt lat="43.261237" lon="-5.009219">
        <ele>1080.956</ele>
        <time>2021-08-01T09:12:14Z</time>
      </trkpt>
      <trkpt lat="43.261192" lon="-5.009218">
        <ele>1080.523</ele>
        <time>2021-08-01T09:12:17Z</time>
      </trkpt>
      <trkpt lat="43.261145" lon="-5.009225">
        <ele>1080.218</ele>
        <time>2021-08-01T09:12:21Z</time>
      </trkpt>
      <trkpt lat="43.261097" lon="-5.009233">
        <ele>1079.828</ele>
        <time>2021-08-01T09:12:25Z</time>
      </trkpt>
      <trkpt lat="43.261047" lon="-5.009244">
        <ele>1079.371</ele>
        <time>2021-08-01T09:12:29Z</time>
      </trkpt>
      <trkpt lat="43.260996" lon="-5.009253">
        <ele>1079.941</ele>
        <time>2021-08-01T09:12:33Z</time>
      </trkpt>
      <trkpt lat="43.260941" lon="-5.009259">
        <ele>1080.015</ele>
        <time>2021-08-01T09:12:36Z</time>
      </trkpt>
      <trkpt lat="43.260895" lon="-5.009278">
        <ele>1079.908</ele>
        <time>2021-08-01T09:12:39Z</time>
      </trkpt>
      <trkpt lat="43.260844" lon="-5.009303">
        <ele>1079.784</ele>
        <time>2021-08-01T09:12:43Z</time>
      </trkpt>
      <trkpt lat="43.260795" lon="-5.009322">
        <ele>1079.976</ele>
        <time>2021-08-01T09:12:46Z</time>
      </trkpt>
      <trkpt lat="43.260743" lon="-5.009341">
        <ele>1079.695</ele>
        <time>2021-08-01T09:12:50Z</time>
      </trkpt>
      <trkpt lat="43.260693" lon="-5.009357">
        <ele>1078.967</ele>
        <time>2021-08-01T09:12:53Z</time>
      </trkpt>
      <trkpt lat="43.260657" lon="-5.009317">
        <ele>1079.241</ele>
        <time>2021-08-01T09:12:59Z</time>
      </trkpt>
      <trkpt lat="43.260636" lon="-5.009378">
        <ele>1079.258</ele>
        <time>2021-08-01T09:13:21Z</time>
      </trkpt>
      <trkpt lat="43.26061" lon="-5.009438">
        <ele>1079.553</ele>
        <time>2021-08-01T09:13:25Z</time>
      </trkpt>
      <trkpt lat="43.26058" lon="-5.009485">
        <ele>1079.233</ele>
        <time>2021-08-01T09:13:29Z</time>
      </trkpt>
      <trkpt lat="43.26055" lon="-5.009538">
        <ele>1079.345</ele>
        <time>2021-08-01T09:13:33Z</time>
      </trkpt>
      <trkpt lat="43.260516" lon="-5.009586">
        <ele>1079.147</ele>
        <time>2021-08-01T09:13:38Z</time>
      </trkpt>
      <trkpt lat="43.260491" lon="-5.009646">
        <ele>1079.411</ele>
        <time>2021-08-01T09:13:42Z</time>
      </trkpt>
      <trkpt lat="43.260462" lon="-5.009699">
        <ele>1078.808</ele>
        <time>2021-08-01T09:13:46Z</time>
      </trkpt>
      <trkpt lat="43.260418" lon="-5.009718">
        <ele>1079.181</ele>
        <time>2021-08-01T09:13:49Z</time>
      </trkpt>
      <trkpt lat="43.260381" lon="-5.009756">
        <ele>1078.443</ele>
        <time>2021-08-01T09:13:55Z</time>
      </trkpt>
      <trkpt lat="43.260345" lon="-5.00981">
        <ele>1078.382</ele>
        <time>2021-08-01T09:13:59Z</time>
      </trkpt>
      <trkpt lat="43.260301" lon="-5.009841">
        <ele>1078.224</ele>
        <time>2021-08-01T09:14:02Z</time>
      </trkpt>
      <trkpt lat="43.26025" lon="-5.009847">
        <ele>1077.768</ele>
        <time>2021-08-01T09:14:05Z</time>
      </trkpt>
      <trkpt lat="43.260196" lon="-5.009856">
        <ele>1077.435</ele>
        <time>2021-08-01T09:14:08Z</time>
      </trkpt>
      <trkpt lat="43.260155" lon="-5.009823">
        <ele>1077.410</ele>
        <time>2021-08-01T09:14:31Z</time>
      </trkpt>
      <trkpt lat="43.260109" lon="-5.009832">
        <ele>1077.180</ele>
        <time>2021-08-01T09:14:35Z</time>
      </trkpt>
      <trkpt lat="43.260059" lon="-5.009832">
        <ele>1076.752</ele>
        <time>2021-08-01T09:14:40Z</time>
      </trkpt>
      <trkpt lat="43.26001" lon="-5.009839">
        <ele>1076.553</ele>
        <time>2021-08-01T09:14:44Z</time>
      </trkpt>
      <trkpt lat="43.259962" lon="-5.009827">
        <ele>1075.908</ele>
        <time>2021-08-01T09:14:49Z</time>
      </trkpt>
      <trkpt lat="43.25992" lon="-5.0098">
        <ele>1075.808</ele>
        <time>2021-08-01T09:14:53Z</time>
      </trkpt>
      <trkpt lat="43.259869" lon="-5.009784">
        <ele>1075.632</ele>
        <time>2021-08-01T09:14:57Z</time>
      </trkpt>
      <trkpt lat="43.259818" lon="-5.009761">
        <ele>1074.824</ele>
        <time>2021-08-01T09:15:01Z</time>
      </trkpt>
      <trkpt lat="43.259775" lon="-5.009722">
        <ele>1073.983</ele>
        <time>2021-08-01T09:15:06Z</time>
      </trkpt>
      <trkpt lat="43.259727" lon="-5.009703">
        <ele>1073.935</ele>
        <time>2021-08-01T09:15:10Z</time>
      </trkpt>
      <trkpt lat="43.25968" lon="-5.009701">
        <ele>1073.629</ele>
        <time>2021-08-01T09:15:14Z</time>
      </trkpt>
      <trkpt lat="43.259632" lon="-5.009693">
        <ele>1073.086</ele>
        <time>2021-08-01T09:15:18Z</time>
      </trkpt>
      <trkpt lat="43.259579" lon="-5.009687">
        <ele>1072.631</ele>
        <time>2021-08-01T09:15:21Z</time>
      </trkpt>
      <trkpt lat="43.259519" lon="-5.009676">
        <ele>1072.091</ele>
        <time>2021-08-01T09:15:25Z</time>
      </trkpt>
      <trkpt lat="43.259471" lon="-5.009654">
        <ele>1071.774</ele>
        <time>2021-08-01T09:15:32Z</time>
      </trkpt>
      <trkpt lat="43.25944" lon="-5.009605">
        <ele>1071.556</ele>
        <time>2021-08-01T09:15:39Z</time>
      </trkpt>
      <trkpt lat="43.259392" lon="-5.009587">
        <ele>1071.621</ele>
        <time>2021-08-01T09:15:44Z</time>
      </trkpt>
      <trkpt lat="43.259347" lon="-5.009593">
        <ele>1071.208</ele>
        <time>2021-08-01T09:15:49Z</time>
      </trkpt>
      <trkpt lat="43.259299" lon="-5.009596">
        <ele>1071.354</ele>
        <time>2021-08-01T09:15:54Z</time>
      </trkpt>
      <trkpt lat="43.259266" lon="-5.00964">
        <ele>1071.026</ele>
        <time>2021-08-01T09:16:02Z</time>
      </trkpt>
      <trkpt lat="43.259224" lon="-5.009667">
        <ele>1070.485</ele>
        <time>2021-08-01T09:16:07Z</time>
      </trkpt>
      <trkpt lat="43.259189" lon="-5.009714">
        <ele>1070.667</ele>
        <time>2021-08-01T09:16:11Z</time>
      </trkpt>
      <trkpt lat="43.259143" lon="-5.009722">
        <ele>1070.161</ele>
        <time>2021-08-01T09:16:16Z</time>
      </trkpt>
      <trkpt lat="43.259098" lon="-5.009729">
        <ele>1070.158</ele>
        <time>2021-08-01T09:16:20Z</time>
      </trkpt>
      <trkpt lat="43.259047" lon="-5.009744">
        <ele>1070.973</ele>
        <time>2021-08-01T09:16:24Z</time>
      </trkpt>
      <trkpt lat="43.258991" lon="-5.00974">
        <ele>1071.853</ele>
        <time>2021-08-01T09:16:27Z</time>
      </trkpt>
      <trkpt lat="43.258944" lon="-5.00972">
        <ele>1072.252</ele>
        <time>2021-08-01T09:16:30Z</time>
      </trkpt>
      <trkpt lat="43.258901" lon="-5.009697">
        <ele>1072.653</ele>
        <time>2021-08-01T09:16:34Z</time>
      </trkpt>
      <trkpt lat="43.258857" lon="-5.009666">
        <ele>1073.108</ele>
        <time>2021-08-01T09:16:38Z</time>
      </trkpt>
      <trkpt lat="43.258813" lon="-5.009636">
        <ele>1073.208</ele>
        <time>2021-08-01T09:16:42Z</time>
      </trkpt>
      <trkpt lat="43.258764" lon="-5.009629">
        <ele>1073.282</ele>
        <time>2021-08-01T09:16:46Z</time>
      </trkpt>
      <trkpt lat="43.258711" lon="-5.009612">
        <ele>1072.854</ele>
        <time>2021-08-01T09:16:51Z</time>
      </trkpt>
      <trkpt lat="43.258674" lon="-5.009648">
        <ele>1072.813</ele>
        <time>2021-08-01T09:16:56Z</time>
      </trkpt>
      <trkpt lat="43.25873" lon="-5.009591">
        <ele>1073.245</ele>
        <time>2021-08-01T09:17:12Z</time>
      </trkpt>
      <trkpt lat="43.258775" lon="-5.009587">
        <ele>1073.619</ele>
        <time>2021-08-01T09:17:15Z</time>
      </trkpt>
      <trkpt lat="43.258751" lon="-5.009526">
        <ele>1073.226</ele>
        <time>2021-08-01T09:17:31Z</time>
      </trkpt>
      <trkpt lat="43.258737" lon="-5.009466">
        <ele>1072.521</ele>
        <time>2021-08-01T09:17:34Z</time>
      </trkpt>
      <trkpt lat="43.258683" lon="-5.00947">
        <ele>1072.711</ele>
        <time>2021-08-01T09:17:36Z</time>
      </trkpt>
      <trkpt lat="43.258628" lon="-5.009481">
        <ele>1072.868</ele>
        <time>2021-08-01T09:17:38Z</time>
      </trkpt>
      <trkpt lat="43.258576" lon="-5.009484">
        <ele>1073.042</ele>
        <time>2021-08-01T09:17:40Z</time>
      </trkpt>
      <trkpt lat="43.258525" lon="-5.009475">
        <ele>1073.526</ele>
        <time>2021-08-01T09:17:43Z</time>
      </trkpt>
      <trkpt lat="43.258496" lon="-5.009423">
        <ele>1074.208</ele>
        <time>2021-08-01T09:17:48Z</time>
      </trkpt>
      <trkpt lat="43.258474" lon="-5.009366">
        <ele>1073.863</ele>
        <time>2021-08-01T09:17:52Z</time>
      </trkpt>
      <trkpt lat="43.258442" lon="-5.00931">
        <ele>1073.765</ele>
        <time>2021-08-01T09:17:57Z</time>
      </trkpt>
      <trkpt lat="43.258399" lon="-5.009263">
        <ele>1073.524</ele>
        <time>2021-08-01T09:18:01Z</time>
      </trkpt>
      <trkpt lat="43.258355" lon="-5.009232">
        <ele>1073.956</ele>
        <time>2021-08-01T09:18:04Z</time>
      </trkpt>
      <trkpt lat="43.258306" lon="-5.0092">
        <ele>1073.870</ele>
        <time>2021-08-01T09:18:08Z</time>
      </trkpt>
      <trkpt lat="43.25826" lon="-5.009169">
        <ele>1074.087</ele>
        <time>2021-08-01T09:18:12Z</time>
      </trkpt>
      <trkpt lat="43.258212" lon="-5.009149">
        <ele>1073.922</ele>
        <time>2021-08-01T09:18:15Z</time>
      </trkpt>
      <trkpt lat="43.258166" lon="-5.009119">
        <ele>1073.632</ele>
        <time>2021-08-01T09:18:20Z</time>
      </trkpt>
      <trkpt lat="43.258127" lon="-5.009087">
        <ele>1073.711</ele>
        <time>2021-08-01T09:18:24Z</time>
      </trkpt>
      <trkpt lat="43.258089" lon="-5.009053">
        <ele>1073.321</ele>
        <time>2021-08-01T09:18:27Z</time>
      </trkpt>
      <trkpt lat="43.258049" lon="-5.009007">
        <ele>1074.103</ele>
        <time>2021-08-01T09:18:31Z</time>
      </trkpt>
      <trkpt lat="43.258009" lon="-5.008959">
        <ele>1074.408</ele>
        <time>2021-08-01T09:18:35Z</time>
      </trkpt>
      <trkpt lat="43.257969" lon="-5.008913">
        <ele>1074.288</ele>
        <time>2021-08-01T09:18:38Z</time>
      </trkpt>
      <trkpt lat="43.257932" lon="-5.008872">
        <ele>1074.160</ele>
        <time>2021-08-01T09:18:42Z</time>
      </trkpt>
      <trkpt lat="43.257892" lon="-5.008827">
        <ele>1074.189</ele>
        <time>2021-08-01T09:18:46Z</time>
      </trkpt>
      <trkpt lat="43.257856" lon="-5.008784">
        <ele>1073.781</ele>
        <time>2021-08-01T09:18:50Z</time>
      </trkpt>
      <trkpt lat="43.257819" lon="-5.008739">
        <ele>1073.655</ele>
        <time>2021-08-01T09:18:53Z</time>
      </trkpt>
      <trkpt lat="43.257779" lon="-5.008696">
        <ele>1074.172</ele>
        <time>2021-08-01T09:18:57Z</time>
      </trkpt>
      <trkpt lat="43.257736" lon="-5.008675">
        <ele>1074.187</ele>
        <time>2021-08-01T09:19:00Z</time>
      </trkpt>
      <trkpt lat="43.25769" lon="-5.008668">
        <ele>1074.827</ele>
        <time>2021-08-01T09:19:05Z</time>
      </trkpt>
      <trkpt lat="43.257637" lon="-5.008659">
        <ele>1074.461</ele>
        <time>2021-08-01T09:19:10Z</time>
      </trkpt>
      <trkpt lat="43.257584" lon="-5.008658">
        <ele>1074.321</ele>
        <time>2021-08-01T09:19:14Z</time>
      </trkpt>
      <trkpt lat="43.257531" lon="-5.008661">
        <ele>1074.913</ele>
        <time>2021-08-01T09:19:18Z</time>
      </trkpt>
      <trkpt lat="43.257483" lon="-5.008656">
        <ele>1074.608</ele>
        <time>2021-08-01T09:19:22Z</time>
      </trkpt>
      <trkpt lat="43.257439" lon="-5.008638">
        <ele>1075.423</ele>
        <time>2021-08-01T09:19:25Z</time>
      </trkpt>
      <trkpt lat="43.257392" lon="-5.008613">
        <ele>1075.545</ele>
        <time>2021-08-01T09:19:29Z</time>
      </trkpt>
      <trkpt lat="43.257352" lon="-5.008579">
        <ele>1076.164</ele>
        <time>2021-08-01T09:19:33Z</time>
      </trkpt>
      <trkpt lat="43.25731" lon="-5.008551">
        <ele>1076.456</ele>
        <time>2021-08-01T09:19:36Z</time>
      </trkpt>
      <trkpt lat="43.257262" lon="-5.008511">
        <ele>1076.820</ele>
        <time>2021-08-01T09:19:41Z</time>
      </trkpt>
      <trkpt lat="43.257216" lon="-5.008489">
        <ele>1077.377</ele>
        <time>2021-08-01T09:19:45Z</time>
      </trkpt>
      <trkpt lat="43.257171" lon="-5.008456">
        <ele>1077.262</ele>
        <time>2021-08-01T09:20:05Z</time>
      </trkpt>
      <trkpt lat="43.257137" lon="-5.008413">
        <ele>1077.852</ele>
        <time>2021-08-01T09:20:08Z</time>
      </trkpt>
      <trkpt lat="43.257096" lon="-5.008372">
        <ele>1078.684</ele>
        <time>2021-08-01T09:20:11Z</time>
      </trkpt>
      <trkpt lat="43.257067" lon="-5.00832">
        <ele>1078.407</ele>
        <time>2021-08-01T09:20:15Z</time>
      </trkpt>
      <trkpt lat="43.257042" lon="-5.008268">
        <ele>1078.317</ele>
        <time>2021-08-01T09:20:18Z</time>
      </trkpt>
      <trkpt lat="43.257023" lon="-5.008212">
        <ele>1078.008</ele>
        <time>2021-08-01T09:20:22Z</time>
      </trkpt>
      <trkpt lat="43.257023" lon="-5.008149">
        <ele>1077.645</ele>
        <time>2021-08-01T09:20:25Z</time>
      </trkpt>
      <trkpt lat="43.257005" lon="-5.00809">
        <ele>1078.097</ele>
        <time>2021-08-01T09:20:29Z</time>
      </trkpt>
      <trkpt lat="43.256983" lon="-5.008031">
        <ele>1078.326</ele>
        <time>2021-08-01T09:20:35Z</time>
      </trkpt>
      <trkpt lat="43.256965" lon="-5.007964">
        <ele>1078.968</ele>
        <time>2021-08-01T09:20:40Z</time>
      </trkpt>
      <trkpt lat="43.256938" lon="-5.007912">
        <ele>1078.582</ele>
        <time>2021-08-01T09:20:46Z</time>
      </trkpt>
      <trkpt lat="43.256893" lon="-5.00788">
        <ele>1078.959</ele>
        <time>2021-08-01T09:20:50Z</time>
      </trkpt>
      <trkpt lat="43.256853" lon="-5.00785">
        <ele>1078.684</ele>
        <time>2021-08-01T09:20:53Z</time>
      </trkpt>
      <trkpt lat="43.256808" lon="-5.00782">
        <ele>1078.944</ele>
        <time>2021-08-01T09:20:57Z</time>
      </trkpt>
      <trkpt lat="43.25676" lon="-5.007797">
        <ele>1079.118</ele>
        <time>2021-08-01T09:21:01Z</time>
      </trkpt>
      <trkpt lat="43.256711" lon="-5.007791">
        <ele>1078.798</ele>
        <time>2021-08-01T09:21:04Z</time>
      </trkpt>
      <trkpt lat="43.256666" lon="-5.00778">
        <ele>1078.517</ele>
        <time>2021-08-01T09:21:07Z</time>
      </trkpt>
      <trkpt lat="43.256621" lon="-5.007766">
        <ele>1078.308</ele>
        <time>2021-08-01T09:21:11Z</time>
      </trkpt>
      <trkpt lat="43.256573" lon="-5.007734">
        <ele>1078.118</ele>
        <time>2021-08-01T09:21:17Z</time>
      </trkpt>
      <trkpt lat="43.256535" lon="-5.007698">
        <ele>1077.530</ele>
        <time>2021-08-01T09:21:22Z</time>
      </trkpt>
      <trkpt lat="43.256486" lon="-5.007682">
        <ele>1077.719</ele>
        <time>2021-08-01T09:21:26Z</time>
      </trkpt>
      <trkpt lat="43.256437" lon="-5.007681">
        <ele>1077.421</ele>
        <time>2021-08-01T09:21:30Z</time>
      </trkpt>
      <trkpt lat="43.25639" lon="-5.00766">
        <ele>1076.685</ele>
        <time>2021-08-01T09:21:35Z</time>
      </trkpt>
      <trkpt lat="43.256345" lon="-5.007629">
        <ele>1076.422</ele>
        <time>2021-08-01T09:21:38Z</time>
      </trkpt>
      <trkpt lat="43.256303" lon="-5.007604">
        <ele>1075.787</ele>
        <time>2021-08-01T09:21:41Z</time>
      </trkpt>
      <trkpt lat="43.256257" lon="-5.007575">
        <ele>1075.427</ele>
        <time>2021-08-01T09:21:45Z</time>
      </trkpt>
      <trkpt lat="43.256216" lon="-5.007548">
        <ele>1075.281</ele>
        <time>2021-08-01T09:21:48Z</time>
      </trkpt>
      <trkpt lat="43.256175" lon="-5.007506">
        <ele>1074.761</ele>
        <time>2021-08-01T09:21:51Z</time>
      </trkpt>
      <trkpt lat="43.256135" lon="-5.007474">
        <ele>1074.417</ele>
        <time>2021-08-01T09:21:54Z</time>
      </trkpt>
      <trkpt lat="43.256095" lon="-5.00744">
        <ele>1074.108</ele>
        <time>2021-08-01T09:21:57Z</time>
      </trkpt>
      <trkpt lat="43.256061" lon="-5.007395">
        <ele>1073.745</ele>
        <time>2021-08-01T09:22:00Z</time>
      </trkpt>
      <trkpt lat="43.256021" lon="-5.007343">
        <ele>1074.027</ele>
        <time>2021-08-01T09:22:04Z</time>
      </trkpt>
      <trkpt lat="43.255987" lon="-5.007301">
        <ele>1074.176</ele>
        <time>2021-08-01T09:22:10Z</time>
      </trkpt>
      <trkpt lat="43.255963" lon="-5.007241">
        <ele>1073.118</ele>
        <time>2021-08-01T09:22:14Z</time>
      </trkpt>
      <trkpt lat="43.255938" lon="-5.007176">
        <ele>1073.042</ele>
        <time>2021-08-01T09:22:18Z</time>
      </trkpt>
      <trkpt lat="43.255923" lon="-5.007113">
        <ele>1073.469</ele>
        <time>2021-08-01T09:22:23Z</time>
      </trkpt>
      <trkpt lat="43.2559" lon="-5.007058">
        <ele>1072.564</ele>
        <time>2021-08-01T09:22:29Z</time>
      </trkpt>
      <trkpt lat="43.255873" lon="-5.006998">
        <ele>1072.884</ele>
        <time>2021-08-01T09:22:33Z</time>
      </trkpt>
      <trkpt lat="43.255828" lon="-5.006968">
        <ele>1072.697</ele>
        <time>2021-08-01T09:22:37Z</time>
      </trkpt>
      <trkpt lat="43.255777" lon="-5.00698">
        <ele>1072.123</ele>
        <time>2021-08-01T09:22:41Z</time>
      </trkpt>
      <trkpt lat="43.255732" lon="-5.007002">
        <ele>1072.525</ele>
        <time>2021-08-01T09:22:46Z</time>
      </trkpt>
      <trkpt lat="43.255687" lon="-5.006998">
        <ele>1071.608</ele>
        <time>2021-08-01T09:22:49Z</time>
      </trkpt>
      <trkpt lat="43.255647" lon="-5.006967">
        <ele>1071.596</ele>
        <time>2021-08-01T09:22:53Z</time>
      </trkpt>
      <trkpt lat="43.255611" lon="-5.006922">
        <ele>1071.638</ele>
        <time>2021-08-01T09:22:57Z</time>
      </trkpt>
      <trkpt lat="43.255587" lon="-5.006854">
        <ele>1071.737</ele>
        <time>2021-08-01T09:23:01Z</time>
      </trkpt>
      <trkpt lat="43.255556" lon="-5.006797">
        <ele>1071.859</ele>
        <time>2021-08-01T09:23:05Z</time>
      </trkpt>
      <trkpt lat="43.255525" lon="-5.006748">
        <ele>1072.323</ele>
        <time>2021-08-01T09:23:09Z</time>
      </trkpt>
      <trkpt lat="43.255485" lon="-5.006703">
        <ele>1071.890</ele>
        <time>2021-08-01T09:23:15Z</time>
      </trkpt>
      <trkpt lat="43.255451" lon="-5.00666">
        <ele>1072.315</ele>
        <time>2021-08-01T09:23:20Z</time>
      </trkpt>
      <trkpt lat="43.255413" lon="-5.006625">
        <ele>1072.455</ele>
        <time>2021-08-01T09:23:24Z</time>
      </trkpt>
      <trkpt lat="43.255364" lon="-5.006589">
        <ele>1072.261</ele>
        <time>2021-08-01T09:23:29Z</time>
      </trkpt>
      <trkpt lat="43.255327" lon="-5.006544">
        <ele>1072.721</ele>
        <time>2021-08-01T09:23:54Z</time>
      </trkpt>
      <trkpt lat="43.255294" lon="-5.006502">
        <ele>1073.313</ele>
        <time>2021-08-01T09:23:57Z</time>
      </trkpt>
      <trkpt lat="43.255256" lon="-5.006466">
        <ele>1073.508</ele>
        <time>2021-08-01T09:24:00Z</time>
      </trkpt>
      <trkpt lat="43.255206" lon="-5.006441">
        <ele>1074.243</ele>
        <time>2021-08-01T09:24:04Z</time>
      </trkpt>
      <trkpt lat="43.255169" lon="-5.006403">
        <ele>1075.155</ele>
        <time>2021-08-01T09:24:09Z</time>
      </trkpt>
      <trkpt lat="43.255139" lon="-5.006351">
        <ele>1075.374</ele>
        <time>2021-08-01T09:24:13Z</time>
      </trkpt>
      <trkpt lat="43.255123" lon="-5.006292">
        <ele>1075.726</ele>
        <time>2021-08-01T09:24:18Z</time>
      </trkpt>
      <trkpt lat="43.255096" lon="-5.006231">
        <ele>1076.050</ele>
        <time>2021-08-01T09:24:22Z</time>
      </trkpt>
      <trkpt lat="43.255061" lon="-5.006189">
        <ele>1077.077</ele>
        <time>2021-08-01T09:24:26Z</time>
      </trkpt>
      <trkpt lat="43.255012" lon="-5.006171">
        <ele>1077.872</ele>
        <time>2021-08-01T09:24:30Z</time>
      </trkpt>
      <trkpt lat="43.254969" lon="-5.006129">
        <ele>1078.722</ele>
        <time>2021-08-01T09:24:35Z</time>
      </trkpt>
      <trkpt lat="43.255014" lon="-5.006128">
        <ele>1079.491</ele>
        <time>2021-08-01T09:24:48Z</time>
      </trkpt>
      <trkpt lat="43.255058" lon="-5.006168">
        <ele>1080.581</ele>
        <time>2021-08-01T09:24:51Z</time>
      </trkpt>
      <trkpt lat="43.255101" lon="-5.006203">
        <ele>1079.919</ele>
        <time>2021-08-01T09:24:55Z</time>
      </trkpt>
      <trkpt lat="43.255151" lon="-5.006236">
        <ele>1079.508</ele>
        <time>2021-08-01T09:24:59Z</time>
      </trkpt>
      <trkpt lat="43.2552" lon="-5.006238">
        <ele>1079.856</ele>
        <time>2021-08-01T09:25:05Z</time>
      </trkpt>
      <trkpt lat="43.255237" lon="-5.006274">
        <ele>1079.538</ele>
        <time>2021-08-01T09:25:09Z</time>
      </trkpt>
      <trkpt lat="43.255217" lon="-5.006337">
        <ele>1081.077</ele>
        <time>2021-08-01T09:25:13Z</time>
      </trkpt>
      <trkpt lat="43.255186" lon="-5.006387">
        <ele>1080.429</ele>
        <time>2021-08-01T09:25:16Z</time>
      </trkpt>
      <trkpt lat="43.255174" lon="-5.006451">
        <ele>1080.873</ele>
        <time>2021-08-01T09:25:21Z</time>
      </trkpt>
      <trkpt lat="43.255189" lon="-5.006511">
        <ele>1080.980</ele>
        <time>2021-08-01T09:25:26Z</time>
      </trkpt>
      <trkpt lat="43.255209" lon="-5.00657">
        <ele>1081.585</ele>
        <time>2021-08-01T09:25:30Z</time>
      </trkpt>
      <trkpt lat="43.255196" lon="-5.006637">
        <ele>1082.585</ele>
        <time>2021-08-01T09:25:33Z</time>
      </trkpt>
      <trkpt lat="43.25518" lon="-5.006702">
        <ele>1082.425</ele>
        <time>2021-08-01T09:25:36Z</time>
      </trkpt>
      <trkpt lat="43.25519" lon="-5.006769">
        <ele>1082.726</ele>
        <time>2021-08-01T09:25:39Z</time>
      </trkpt>
      <trkpt lat="43.255213" lon="-5.006828">
        <ele>1083.308</ele>
        <time>2021-08-01T09:25:43Z</time>
      </trkpt>
      <trkpt lat="43.255216" lon="-5.006896">
        <ele>1083.808</ele>
        <time>2021-08-01T09:25:47Z</time>
      </trkpt>
      <trkpt lat="43.255216" lon="-5.006967">
        <ele>1084.519</ele>
        <time>2021-08-01T09:25:51Z</time>
      </trkpt>
      <trkpt lat="43.255232" lon="-5.007034">
        <ele>1084.271</ele>
        <time>2021-08-01T09:25:55Z</time>
      </trkpt>
      <trkpt lat="43.255232" lon="-5.0071">
        <ele>1084.440</ele>
        <time>2021-08-01T09:26:00Z</time>
      </trkpt>
      <trkpt lat="43.25524" lon="-5.007165">
        <ele>1085.122</ele>
        <time>2021-08-01T09:26:04Z</time>
      </trkpt>
      <trkpt lat="43.255221" lon="-5.007228">
        <ele>1087.316</ele>
        <time>2021-08-01T09:26:24Z</time>
      </trkpt>
      <trkpt lat="43.255236" lon="-5.007294">
        <ele>1089.243</ele>
        <time>2021-08-01T09:26:29Z</time>
      </trkpt>
      <trkpt lat="43.25523" lon="-5.007358">
        <ele>1091.738</ele>
        <time>2021-08-01T09:26:32Z</time>
      </trkpt>
      <trkpt lat="43.255249" lon="-5.007421">
        <ele>1093.248</ele>
        <time>2021-08-01T09:26:36Z</time>
      </trkpt>
      <trkpt lat="43.255254" lon="-5.007487">
        <ele>1093.664</ele>
        <time>2021-08-01T09:26:40Z</time>
      </trkpt>
      <trkpt lat="43.25525" lon="-5.007557">
        <ele>1094.906</ele>
        <time>2021-08-01T09:26:44Z</time>
      </trkpt>
      <trkpt lat="43.255243" lon="-5.007625">
        <ele>1096.416</ele>
        <time>2021-08-01T09:26:49Z</time>
      </trkpt>
      <trkpt lat="43.25525" lon="-5.007708">
        <ele>1096.808</ele>
        <time>2021-08-01T09:26:54Z</time>
      </trkpt>
      <trkpt lat="43.255247" lon="-5.007774">
        <ele>1097.143</ele>
        <time>2021-08-01T09:26:59Z</time>
      </trkpt>
      <trkpt lat="43.255254" lon="-5.007839">
        <ele>1097.455</ele>
        <time>2021-08-01T09:27:03Z</time>
      </trkpt>
      <trkpt lat="43.255274" lon="-5.007897">
        <ele>1098.084</ele>
        <time>2021-08-01T09:27:07Z</time>
      </trkpt>
      <trkpt lat="43.2553" lon="-5.007954">
        <ele>1098.226</ele>
        <time>2021-08-01T09:27:13Z</time>
      </trkpt>
      <trkpt lat="43.255317" lon="-5.008026">
        <ele>1099.410</ele>
        <time>2021-08-01T09:27:18Z</time>
      </trkpt>
      <trkpt lat="43.25533" lon="-5.008086">
        <ele>1099.527</ele>
        <time>2021-08-01T09:27:22Z</time>
      </trkpt>
      <trkpt lat="43.255316" lon="-5.008147">
        <ele>1100.382</ele>
        <time>2021-08-01T09:27:26Z</time>
      </trkpt>
      <trkpt lat="43.255291" lon="-5.0082">
        <ele>1100.782</ele>
        <time>2021-08-01T09:27:29Z</time>
      </trkpt>
      <trkpt lat="43.255283" lon="-5.008274">
        <ele>1101.575</ele>
        <time>2021-08-01T09:27:34Z</time>
      </trkpt>
      <trkpt lat="43.255274" lon="-5.008335">
        <ele>1101.728</ele>
        <time>2021-08-01T09:27:41Z</time>
      </trkpt>
      <trkpt lat="43.255253" lon="-5.00839">
        <ele>1103.220</ele>
        <time>2021-08-01T09:27:45Z</time>
      </trkpt>
      <trkpt lat="43.255225" lon="-5.008461">
        <ele>1103.308</ele>
        <time>2021-08-01T09:27:49Z</time>
      </trkpt>
      <trkpt lat="43.255213" lon="-5.008521">
        <ele>1103.994</ele>
        <time>2021-08-01T09:27:53Z</time>
      </trkpt>
      <trkpt lat="43.255187" lon="-5.008591">
        <ele>1103.666</ele>
        <time>2021-08-01T09:27:58Z</time>
      </trkpt>
      <trkpt lat="43.255147" lon="-5.008627">
        <ele>1104.115</ele>
        <time>2021-08-01T09:28:02Z</time>
      </trkpt>
      <trkpt lat="43.255125" lon="-5.008694">
        <ele>1104.937</ele>
        <time>2021-08-01T09:28:07Z</time>
      </trkpt>
      <trkpt lat="43.255153" lon="-5.008768">
        <ele>1105.421</ele>
        <time>2021-08-01T09:28:13Z</time>
      </trkpt>
      <trkpt lat="43.255191" lon="-5.008804">
        <ele>1105.668</ele>
        <time>2021-08-01T09:28:16Z</time>
      </trkpt>
      <trkpt lat="43.255222" lon="-5.008859">
        <ele>1105.793</ele>
        <time>2021-08-01T09:28:20Z</time>
      </trkpt>
      <trkpt lat="43.255246" lon="-5.008929">
        <ele>1105.873</ele>
        <time>2021-08-01T09:28:24Z</time>
      </trkpt>
      <trkpt lat="43.25528" lon="-5.008989">
        <ele>1105.819</ele>
        <time>2021-08-01T09:28:29Z</time>
      </trkpt>
      <trkpt lat="43.255307" lon="-5.009058">
        <ele>1106.609</ele>
        <time>2021-08-01T09:28:33Z</time>
      </trkpt>
      <trkpt lat="43.2553" lon="-5.009122">
        <ele>1107.419</ele>
        <time>2021-08-01T09:28:37Z</time>
      </trkpt>
      <trkpt lat="43.255347" lon="-5.0091">
        <ele>1108.408</ele>
        <time>2021-08-01T09:28:55Z</time>
      </trkpt>
      <trkpt lat="43.255391" lon="-5.00914">
        <ele>1109.388</ele>
        <time>2021-08-01T09:29:00Z</time>
      </trkpt>
      <trkpt lat="43.255399" lon="-5.009202">
        <ele>1110.220</ele>
        <time>2021-08-01T09:29:03Z</time>
      </trkpt>
      <trkpt lat="43.255373" lon="-5.009283">
        <ele>1110.659</ele>
        <time>2021-08-01T09:29:07Z</time>
      </trkpt>
      <trkpt lat="43.25537" lon="-5.009346">
        <ele>1111.431</ele>
        <time>2021-08-01T09:29:18Z</time>
      </trkpt>
      <trkpt lat="43.255421" lon="-5.00937">
        <ele>1112.545</ele>
        <time>2021-08-01T09:29:23Z</time>
      </trkpt>
      <trkpt lat="43.255465" lon="-5.00935">
        <ele>1112.692</ele>
        <time>2021-08-01T09:29:29Z</time>
      </trkpt>
      <trkpt lat="43.255509" lon="-5.009327">
        <ele>1113.737</ele>
        <time>2021-08-01T09:29:37Z</time>
      </trkpt>
      <trkpt lat="43.255559" lon="-5.009337">
        <ele>1113.877</ele>
        <time>2021-08-01T09:29:42Z</time>
      </trkpt>
      <trkpt lat="43.255573" lon="-5.009397">
        <ele>1114.296</ele>
        <time>2021-08-01T09:29:46Z</time>
      </trkpt>
      <trkpt lat="43.255586" lon="-5.009461">
        <ele>1114.531</ele>
        <time>2021-08-01T09:29:50Z</time>
      </trkpt>
      <trkpt lat="43.255578" lon="-5.009522">
        <ele>1114.824</ele>
        <time>2021-08-01T09:29:53Z</time>
      </trkpt>
      <trkpt lat="43.25557" lon="-5.009592">
        <ele>1115.208</ele>
        <time>2021-08-01T09:29:58Z</time>
      </trkpt>
      <trkpt lat="43.255565" lon="-5.009663">
        <ele>1115.416</ele>
        <time>2021-08-01T09:30:02Z</time>
      </trkpt>
      <trkpt lat="43.255587" lon="-5.009726">
        <ele>1115.488</ele>
        <time>2021-08-01T09:30:07Z</time>
      </trkpt>
      <trkpt lat="43.255539" lon="-5.009708">
        <ele>1116.367</ele>
        <time>2021-08-01T09:30:22Z</time>
      </trkpt>
      <trkpt lat="43.25549" lon="-5.009706">
        <ele>1117.799</ele>
        <time>2021-08-01T09:30:26Z</time>
      </trkpt>
      <trkpt lat="43.255473" lon="-5.009764">
        <ele>1117.723</ele>
        <time>2021-08-01T09:30:30Z</time>
      </trkpt>
      <trkpt lat="43.255434" lon="-5.009795">
        <ele>1118.720</ele>
        <time>2021-08-01T09:30:33Z</time>
      </trkpt>
      <trkpt lat="43.25538" lon="-5.009816">
        <ele>1119.765</ele>
        <time>2021-08-01T09:30:37Z</time>
      </trkpt>
      <trkpt lat="43.255327" lon="-5.009828">
        <ele>1119.655</ele>
        <time>2021-08-01T09:30:41Z</time>
      </trkpt>
      <trkpt lat="43.25528" lon="-5.009845">
        <ele>1119.641</ele>
        <time>2021-08-01T09:30:46Z</time>
      </trkpt>
      <trkpt lat="43.255244" lon="-5.009805">
        <ele>1120.281</ele>
        <time>2021-08-01T09:30:54Z</time>
      </trkpt>
      <trkpt lat="43.255198" lon="-5.009829">
        <ele>1120.909</ele>
        <time>2021-08-01T09:31:03Z</time>
      </trkpt>
      <trkpt lat="43.255153" lon="-5.009865">
        <ele>1121.408</ele>
        <time>2021-08-01T09:31:08Z</time>
      </trkpt>
      <trkpt lat="43.255103" lon="-5.009847">
        <ele>1122.751</ele>
        <time>2021-08-01T09:31:13Z</time>
      </trkpt>
      <trkpt lat="43.255074" lon="-5.009905">
        <ele>1123.833</ele>
        <time>2021-08-01T09:31:21Z</time>
      </trkpt>
      <trkpt lat="43.25508" lon="-5.009839">
        <ele>1125.382</ele>
        <time>2021-08-01T09:31:32Z</time>
      </trkpt>
      <trkpt lat="43.255123" lon="-5.009875">
        <ele>1126.654</ele>
        <time>2021-08-01T09:31:45Z</time>
      </trkpt>
      <trkpt lat="43.255159" lon="-5.009911">
        <ele>1128.668</ele>
        <time>2021-08-01T09:31:51Z</time>
      </trkpt>
      <trkpt lat="43.255163" lon="-5.009976">
        <ele>1130.195</ele>
        <time>2021-08-01T09:31:58Z</time>
      </trkpt>
      <trkpt lat="43.255163" lon="-5.010044">
        <ele>1131.060</ele>
        <time>2021-08-01T09:32:03Z</time>
      </trkpt>
      <trkpt lat="43.255166" lon="-5.01011">
        <ele>1131.990</ele>
        <time>2021-08-01T09:32:08Z</time>
      </trkpt>
      <trkpt lat="43.255165" lon="-5.010183">
        <ele>1133.393</ele>
        <time>2021-08-01T09:32:13Z</time>
      </trkpt>
      <trkpt lat="43.255178" lon="-5.010248">
        <ele>1133.865</ele>
        <time>2021-08-01T09:32:18Z</time>
      </trkpt>
      <trkpt lat="43.255185" lon="-5.010326">
        <ele>1134.121</ele>
        <time>2021-08-01T09:32:22Z</time>
      </trkpt>
      <trkpt lat="43.255207" lon="-5.010392">
        <ele>1135.108</ele>
        <time>2021-08-01T09:32:26Z</time>
      </trkpt>
      <trkpt lat="43.255193" lon="-5.01047">
        <ele>1135.356</ele>
        <time>2021-08-01T09:32:34Z</time>
      </trkpt>
      <trkpt lat="43.255148" lon="-5.010485">
        <ele>1136.368</ele>
        <time>2021-08-01T09:32:39Z</time>
      </trkpt>
      <trkpt lat="43.255168" lon="-5.010543">
        <ele>1136.597</ele>
        <time>2021-08-01T09:32:46Z</time>
      </trkpt>
      <trkpt lat="43.255169" lon="-5.01061">
        <ele>1136.679</ele>
        <time>2021-08-01T09:32:50Z</time>
      </trkpt>
      <trkpt lat="43.255168" lon="-5.010681">
        <ele>1137.943</ele>
        <time>2021-08-01T09:32:57Z</time>
      </trkpt>
      <trkpt lat="43.255129" lon="-5.010727">
        <ele>1138.060</ele>
        <time>2021-08-01T09:33:03Z</time>
      </trkpt>
      <trkpt lat="43.255085" lon="-5.010752">
        <ele>1138.645</ele>
        <time>2021-08-01T09:33:08Z</time>
      </trkpt>
      <trkpt lat="43.255037" lon="-5.010767">
        <ele>1139.045</ele>
        <time>2021-08-01T09:33:14Z</time>
      </trkpt>
      <trkpt lat="43.254993" lon="-5.010786">
        <ele>1139.221</ele>
        <time>2021-08-01T09:33:17Z</time>
      </trkpt>
      <trkpt lat="43.254944" lon="-5.010781">
        <ele>1139.541</ele>
        <time>2021-08-01T09:33:20Z</time>
      </trkpt>
      <trkpt lat="43.254899" lon="-5.010746">
        <ele>1139.205</ele>
        <time>2021-08-01T09:33:24Z</time>
      </trkpt>
      <trkpt lat="43.25489" lon="-5.010679">
        <ele>1140.508</ele>
        <time>2021-08-01T09:33:29Z</time>
      </trkpt>
      <trkpt lat="43.254836" lon="-5.01066">
        <ele>1140.949</ele>
        <time>2021-08-01T09:33:38Z</time>
      </trkpt>
      <trkpt lat="43.254791" lon="-5.010642">
        <ele>1141.581</ele>
        <time>2021-08-01T09:33:42Z</time>
      </trkpt>
      <trkpt lat="43.254745" lon="-5.010619">
        <ele>1142.150</ele>
        <time>2021-08-01T09:33:46Z</time>
      </trkpt>
      <trkpt lat="43.254702" lon="-5.010582">
        <ele>1142.222</ele>
        <time>2021-08-01T09:33:50Z</time>
      </trkpt>
      <trkpt lat="43.254659" lon="-5.010538">
        <ele>1142.036</ele>
        <time>2021-08-01T09:33:55Z</time>
      </trkpt>
      <trkpt lat="43.254613" lon="-5.010527">
        <ele>1142.413</ele>
        <time>2021-08-01T09:34:00Z</time>
      </trkpt>
      <trkpt lat="43.254579" lon="-5.01048">
        <ele>1143.668</ele>
        <time>2021-08-01T09:34:05Z</time>
      </trkpt>
      <trkpt lat="43.254545" lon="-5.010429">
        <ele>1144.248</ele>
        <time>2021-08-01T09:34:10Z</time>
      </trkpt>
      <trkpt lat="43.254499" lon="-5.010403">
        <ele>1144.857</ele>
        <time>2021-08-01T09:34:14Z</time>
      </trkpt>
      <trkpt lat="43.254459" lon="-5.010368">
        <ele>1145.400</ele>
        <time>2021-08-01T09:34:19Z</time>
      </trkpt>
      <trkpt lat="43.254426" lon="-5.010316">
        <ele>1146.420</ele>
        <time>2021-08-01T09:34:24Z</time>
      </trkpt>
      <trkpt lat="43.254402" lon="-5.010252">
        <ele>1147.608</ele>
        <time>2021-08-01T09:34:31Z</time>
      </trkpt>
      <trkpt lat="43.254379" lon="-5.010175">
        <ele>1148.922</ele>
        <time>2021-08-01T09:34:35Z</time>
      </trkpt>
      <trkpt lat="43.254341" lon="-5.010137">
        <ele>1149.734</ele>
        <time>2021-08-01T09:34:40Z</time>
      </trkpt>
      <trkpt lat="43.254309" lon="-5.010092">
        <ele>1150.623</ele>
        <time>2021-08-01T09:34:44Z</time>
      </trkpt>
      <trkpt lat="43.254272" lon="-5.010053">
        <ele>1151.455</ele>
        <time>2021-08-01T09:34:48Z</time>
      </trkpt>
      <trkpt lat="43.254224" lon="-5.010034">
        <ele>1152.749</ele>
        <time>2021-08-01T09:34:52Z</time>
      </trkpt>
      <trkpt lat="43.254173" lon="-5.010013">
        <ele>1153.926</ele>
        <time>2021-08-01T09:34:57Z</time>
      </trkpt>
      <trkpt lat="43.254141" lon="-5.009969">
        <ele>1154.381</ele>
        <time>2021-08-01T09:35:01Z</time>
      </trkpt>
      <trkpt lat="43.254113" lon="-5.010023">
        <ele>1154.311</ele>
        <time>2021-08-01T09:35:06Z</time>
      </trkpt>
      <trkpt lat="43.254074" lon="-5.00998">
        <ele>1155.634</ele>
        <time>2021-08-01T09:35:24Z</time>
      </trkpt>
      <trkpt lat="43.254049" lon="-5.009921">
        <ele>1156.655</ele>
        <time>2021-08-01T09:35:27Z</time>
      </trkpt>
      <trkpt lat="43.254026" lon="-5.009864">
        <ele>1157.410</ele>
        <time>2021-08-01T09:35:31Z</time>
      </trkpt>
      <trkpt lat="43.253991" lon="-5.009824">
        <ele>1157.508</ele>
        <time>2021-08-01T09:35:36Z</time>
      </trkpt>
      <trkpt lat="43.253963" lon="-5.009765">
        <ele>1159.040</ele>
        <time>2021-08-01T09:35:42Z</time>
      </trkpt>
      <trkpt lat="43.253945" lon="-5.009707">
        <ele>1159.152</ele>
        <time>2021-08-01T09:35:47Z</time>
      </trkpt>
      <trkpt lat="43.253932" lon="-5.00964">
        <ele>1158.841</ele>
        <time>2021-08-01T09:35:51Z</time>
      </trkpt>
      <trkpt lat="43.253935" lon="-5.009574">
        <ele>1159.573</ele>
        <time>2021-08-01T09:35:55Z</time>
      </trkpt>
      <trkpt lat="43.253922" lon="-5.009512">
        <ele>1159.397</ele>
        <time>2021-08-01T09:35:59Z</time>
      </trkpt>
      <trkpt lat="43.253911" lon="-5.009451">
        <ele>1159.784</ele>
        <time>2021-08-01T09:36:03Z</time>
      </trkpt>
      <trkpt lat="43.253907" lon="-5.009378">
        <ele>1160.469</ele>
        <time>2021-08-01T09:36:07Z</time>
      </trkpt>
      <trkpt lat="43.253897" lon="-5.00931">
        <ele>1161.549</ele>
        <time>2021-08-01T09:36:11Z</time>
      </trkpt>
      <trkpt lat="43.253883" lon="-5.009244">
        <ele>1161.681</ele>
        <time>2021-08-01T09:36:15Z</time>
      </trkpt>
      <trkpt lat="43.253923" lon="-5.009207">
        <ele>1162.361</ele>
        <time>2021-08-01T09:36:20Z</time>
      </trkpt>
      <trkpt lat="43.253965" lon="-5.009183">
        <ele>1162.817</ele>
        <time>2021-08-01T09:36:26Z</time>
      </trkpt>
      <trkpt lat="43.253938" lon="-5.009128">
        <ele>1163.608</ele>
        <time>2021-08-01T09:36:31Z</time>
      </trkpt>
      <trkpt lat="43.253914" lon="-5.009075">
        <ele>1163.925</ele>
        <time>2021-08-01T09:36:36Z</time>
      </trkpt>
      <trkpt lat="43.253896" lon="-5.009018">
        <ele>1164.897</ele>
        <time>2021-08-01T09:36:41Z</time>
      </trkpt>
      <trkpt lat="43.253865" lon="-5.008966">
        <ele>1165.266</ele>
        <time>2021-08-01T09:36:44Z</time>
      </trkpt>
      <trkpt lat="43.253852" lon="-5.008896">
        <ele>1165.478</ele>
        <time>2021-08-01T09:36:47Z</time>
      </trkpt>
      <trkpt lat="43.253839" lon="-5.008834">
        <ele>1165.292</ele>
        <time>2021-08-01T09:36:51Z</time>
      </trkpt>
      <trkpt lat="43.253791" lon="-5.008819">
        <ele>1165.949</ele>
        <time>2021-08-01T09:36:58Z</time>
      </trkpt>
      <trkpt lat="43.253775" lon="-5.008883">
        <ele>1165.954</ele>
        <time>2021-08-01T09:37:05Z</time>
      </trkpt>
      <trkpt lat="43.253744" lon="-5.008937">
        <ele>1167.454</ele>
        <time>2021-08-01T09:37:09Z</time>
      </trkpt>
      <trkpt lat="43.253714" lon="-5.008987">
        <ele>1168.895</ele>
        <time>2021-08-01T09:37:11Z</time>
      </trkpt>
      <trkpt lat="43.253684" lon="-5.009046">
        <ele>1168.949</ele>
        <time>2021-08-01T09:37:16Z</time>
      </trkpt>
      <trkpt lat="43.253682" lon="-5.009111">
        <ele>1170.023</ele>
        <time>2021-08-01T09:37:24Z</time>
      </trkpt>
      <trkpt lat="43.25364" lon="-5.009138">
        <ele>1170.808</ele>
        <time>2021-08-01T09:37:37Z</time>
      </trkpt>
      <trkpt lat="43.253594" lon="-5.009111">
        <ele>1171.826</ele>
        <time>2021-08-01T09:37:41Z</time>
      </trkpt>
      <trkpt lat="43.253549" lon="-5.009087">
        <ele>1172.128</ele>
        <time>2021-08-01T09:37:46Z</time>
      </trkpt>
      <trkpt lat="43.253509" lon="-5.009046">
        <ele>1173.187</ele>
        <time>2021-08-01T09:37:51Z</time>
      </trkpt>
      <trkpt lat="43.253457" lon="-5.00903">
        <ele>1173.949</ele>
        <time>2021-08-01T09:37:58Z</time>
      </trkpt>
      <trkpt lat="43.253415" lon="-5.009001">
        <ele>1173.963</ele>
        <time>2021-08-01T09:38:02Z</time>
      </trkpt>
      <trkpt lat="43.253379" lon="-5.008945">
        <ele>1175.060</ele>
        <time>2021-08-01T09:38:06Z</time>
      </trkpt>
      <trkpt lat="43.253338" lon="-5.008903">
        <ele>1175.365</ele>
        <time>2021-08-01T09:38:11Z</time>
      </trkpt>
      <trkpt lat="43.253294" lon="-5.008883">
        <ele>1176.185</ele>
        <time>2021-08-01T09:38:15Z</time>
      </trkpt>
      <trkpt lat="43.253245" lon="-5.008847">
        <ele>1176.767</ele>
        <time>2021-08-01T09:38:19Z</time>
      </trkpt>
      <trkpt lat="43.253208" lon="-5.008804">
        <ele>1177.681</ele>
        <time>2021-08-01T09:38:37Z</time>
      </trkpt>
      <trkpt lat="43.253162" lon="-5.008795">
        <ele>1179.019</ele>
        <time>2021-08-01T09:38:44Z</time>
      </trkpt>
      <trkpt lat="43.253117" lon="-5.008797">
        <ele>1180.508</ele>
        <time>2021-08-01T09:38:49Z</time>
      </trkpt>
      <trkpt lat="43.253089" lon="-5.008746">
        <ele>1183.063</ele>
        <time>2021-08-01T09:39:11Z</time>
      </trkpt>
      <trkpt lat="43.253061" lon="-5.008691">
        <ele>1184.625</ele>
        <time>2021-08-01T09:39:15Z</time>
      </trkpt>
      <trkpt lat="43.253032" lon="-5.008641">
        <ele>1185.814</ele>
        <time>2021-08-01T09:39:19Z</time>
      </trkpt>
      <trkpt lat="43.253001" lon="-5.008592">
        <ele>1187.076</ele>
        <time>2021-08-01T09:39:24Z</time>
      </trkpt>
      <trkpt lat="43.252954" lon="-5.008582">
        <ele>1187.910</ele>
        <time>2021-08-01T09:39:28Z</time>
      </trkpt>
      <trkpt lat="43.252907" lon="-5.008561">
        <ele>1189.387</ele>
        <time>2021-08-01T09:39:34Z</time>
      </trkpt>
      <trkpt lat="43.252867" lon="-5.008521">
        <ele>1189.772</ele>
        <time>2021-08-01T09:39:39Z</time>
      </trkpt>
      <trkpt lat="43.252851" lon="-5.008461">
        <ele>1189.972</ele>
        <time>2021-08-01T09:39:42Z</time>
      </trkpt>
      <trkpt lat="43.25282" lon="-5.008413">
        <ele>1190.618</ele>
        <time>2021-08-01T09:39:47Z</time>
      </trkpt>
      <trkpt lat="43.252789" lon="-5.008364">
        <ele>1191.498</ele>
        <time>2021-08-01T09:39:51Z</time>
      </trkpt>
      <trkpt lat="43.252758" lon="-5.008318">
        <ele>1191.717</ele>
        <time>2021-08-01T09:39:55Z</time>
      </trkpt>
      <trkpt lat="43.252742" lon="-5.008253">
        <ele>1192.208</ele>
        <time>2021-08-01T09:40:02Z</time>
      </trkpt>
      <trkpt lat="43.252711" lon="-5.008207">
        <ele>1192.898</ele>
        <time>2021-08-01T09:40:08Z</time>
      </trkpt>
      <trkpt lat="43.252666" lon="-5.008187">
        <ele>1193.250</ele>
        <time>2021-08-01T09:40:13Z</time>
      </trkpt>
      <trkpt lat="43.252621" lon="-5.008195">
        <ele>1193.849</ele>
        <time>2021-08-01T09:40:17Z</time>
      </trkpt>
      <trkpt lat="43.252575" lon="-5.008215">
        <ele>1194.681</ele>
        <time>2021-08-01T09:40:22Z</time>
      </trkpt>
      <trkpt lat="43.252531" lon="-5.008229">
        <ele>1194.975</ele>
        <time>2021-08-01T09:40:28Z</time>
      </trkpt>
      <trkpt lat="43.252486" lon="-5.008216">
        <ele>1195.912</ele>
        <time>2021-08-01T09:40:35Z</time>
      </trkpt>
      <trkpt lat="43.25244" lon="-5.008202">
        <ele>1196.367</ele>
        <time>2021-08-01T09:40:40Z</time>
      </trkpt>
      <trkpt lat="43.252391" lon="-5.008208">
        <ele>1196.957</ele>
        <time>2021-08-01T09:40:44Z</time>
      </trkpt>
      <trkpt lat="43.252344" lon="-5.008222">
        <ele>1197.621</ele>
        <time>2021-08-01T09:40:48Z</time>
      </trkpt>
      <trkpt lat="43.252299" lon="-5.008221">
        <ele>1198.741</ele>
        <time>2021-08-01T09:40:55Z</time>
      </trkpt>
      <trkpt lat="43.252267" lon="-5.008272">
        <ele>1199.005</ele>
        <time>2021-08-01T09:41:06Z</time>
      </trkpt>
      <trkpt lat="43.252256" lon="-5.008332">
        <ele>1199.708</ele>
        <time>2021-08-01T09:41:11Z</time>
      </trkpt>
      <trkpt lat="43.252226" lon="-5.008396">
        <ele>1200.869</ele>
        <time>2021-08-01T09:41:17Z</time>
      </trkpt>
      <trkpt lat="43.252173" lon="-5.008434">
        <ele>1201.471</ele>
        <time>2021-08-01T09:41:21Z</time>
      </trkpt>
      <trkpt lat="43.252127" lon="-5.008432">
        <ele>1201.760</ele>
        <time>2021-08-01T09:41:25Z</time>
      </trkpt>
      <trkpt lat="43.252096" lon="-5.008484">
        <ele>1202.392</ele>
        <time>2021-08-01T09:41:31Z</time>
      </trkpt>
      <trkpt lat="43.252043" lon="-5.008508">
        <ele>1202.426</ele>
        <time>2021-08-01T09:41:36Z</time>
      </trkpt>
      <trkpt lat="43.252" lon="-5.008529">
        <ele>1203.563</ele>
        <time>2021-08-01T09:41:46Z</time>
      </trkpt>
      <trkpt lat="43.25202" lon="-5.00845">
        <ele>1203.868</ele>
        <time>2021-08-01T09:42:09Z</time>
      </trkpt>
      <trkpt lat="43.251972" lon="-5.008467">
        <ele>1204.418</ele>
        <time>2021-08-01T09:42:16Z</time>
      </trkpt>
      <trkpt lat="43.251929" lon="-5.008508">
        <ele>1204.516</ele>
        <time>2021-08-01T09:42:21Z</time>
      </trkpt>
      <trkpt lat="43.251884" lon="-5.008521">
        <ele>1205.376</ele>
        <time>2021-08-01T09:42:24Z</time>
      </trkpt>
      <trkpt lat="43.251837" lon="-5.008531">
        <ele>1205.813</ele>
        <time>2021-08-01T09:42:28Z</time>
      </trkpt>
      <trkpt lat="43.251793" lon="-5.008516">
        <ele>1206.208</ele>
        <time>2021-08-01T09:42:32Z</time>
      </trkpt>
      <trkpt lat="43.251745" lon="-5.008504">
        <ele>1206.528</ele>
        <time>2021-08-01T09:42:36Z</time>
      </trkpt>
      <trkpt lat="43.251694" lon="-5.008478">
        <ele>1207.550</ele>
        <time>2021-08-01T09:42:39Z</time>
      </trkpt>
      <trkpt lat="43.251642" lon="-5.008456">
        <ele>1208.049</ele>
        <time>2021-08-01T09:42:43Z</time>
      </trkpt>
      <trkpt lat="43.251608" lon="-5.008414">
        <ele>1208.751</ele>
        <time>2021-08-01T09:42:47Z</time>
      </trkpt>
      <trkpt lat="43.251582" lon="-5.008351">
        <ele>1208.525</ele>
        <time>2021-08-01T09:42:50Z</time>
      </trkpt>
      <trkpt lat="43.251561" lon="-5.008283">
        <ele>1208.922</ele>
        <time>2021-08-01T09:42:54Z</time>
      </trkpt>
      <trkpt lat="43.251558" lon="-5.008211">
        <ele>1209.327</ele>
        <time>2021-08-01T09:42:58Z</time>
      </trkpt>
      <trkpt lat="43.251539" lon="-5.008155">
        <ele>1209.717</ele>
        <time>2021-08-01T09:43:01Z</time>
      </trkpt>
      <trkpt lat="43.251509" lon="-5.008094">
        <ele>1210.096</ele>
        <time>2021-08-01T09:43:05Z</time>
      </trkpt>
      <trkpt lat="43.251479" lon="-5.008035">
        <ele>1210.631</ele>
        <time>2021-08-01T09:43:09Z</time>
      </trkpt>
      <trkpt lat="43.251448" lon="-5.007972">
        <ele>1210.324</ele>
        <time>2021-08-01T09:43:14Z</time>
      </trkpt>
      <trkpt lat="43.251434" lon="-5.007904">
        <ele>1210.208</ele>
        <time>2021-08-01T09:43:21Z</time>
      </trkpt>
      <trkpt lat="43.25141" lon="-5.007842">
        <ele>1210.766</ele>
        <time>2021-08-01T09:43:27Z</time>
      </trkpt>
      <trkpt lat="43.251402" lon="-5.007776">
        <ele>1210.888</ele>
        <time>2021-08-01T09:43:32Z</time>
      </trkpt>
      <trkpt lat="43.251412" lon="-5.007713">
        <ele>1211.097</ele>
        <time>2021-08-01T09:43:36Z</time>
      </trkpt>
      <trkpt lat="43.251412" lon="-5.007641">
        <ele>1211.279</ele>
        <time>2021-08-01T09:43:41Z</time>
      </trkpt>
      <trkpt lat="43.251425" lon="-5.007579">
        <ele>1211.033</ele>
        <time>2021-08-01T09:43:47Z</time>
      </trkpt>
      <trkpt lat="43.251422" lon="-5.007512">
        <ele>1212.170</ele>
        <time>2021-08-01T09:43:53Z</time>
      </trkpt>
      <trkpt lat="43.251428" lon="-5.007449">
        <ele>1213.165</ele>
        <time>2021-08-01T09:43:58Z</time>
      </trkpt>
      <trkpt lat="43.251452" lon="-5.007397">
        <ele>1213.545</ele>
        <time>2021-08-01T09:44:02Z</time>
      </trkpt>
      <trkpt lat="43.251475" lon="-5.00734">
        <ele>1214.213</ele>
        <time>2021-08-01T09:44:07Z</time>
      </trkpt>
      <trkpt lat="43.2515" lon="-5.007289">
        <ele>1214.943</ele>
        <time>2021-08-01T09:44:11Z</time>
      </trkpt>
      <trkpt lat="43.251517" lon="-5.007221">
        <ele>1215.807</ele>
        <time>2021-08-01T09:44:16Z</time>
      </trkpt>
      <trkpt lat="43.25152" lon="-5.007149">
        <ele>1216.808</ele>
        <time>2021-08-01T09:44:21Z</time>
      </trkpt>
      <trkpt lat="43.251499" lon="-5.007093">
        <ele>1217.998</ele>
        <time>2021-08-01T09:44:27Z</time>
      </trkpt>
      <trkpt lat="43.251473" lon="-5.007029">
        <ele>1218.930</ele>
        <time>2021-08-01T09:44:36Z</time>
      </trkpt>
      <trkpt lat="43.251454" lon="-5.006961">
        <ele>1219.539</ele>
        <time>2021-08-01T09:44:42Z</time>
      </trkpt>
      <trkpt lat="43.251462" lon="-5.006892">
        <ele>1220.161</ele>
        <time>2021-08-01T09:44:46Z</time>
      </trkpt>
      <trkpt lat="43.251425" lon="-5.006853">
        <ele>1221.325</ele>
        <time>2021-08-01T09:44:51Z</time>
      </trkpt>
      <trkpt lat="43.25139" lon="-5.006807">
        <ele>1222.292</ele>
        <time>2021-08-01T09:44:58Z</time>
      </trkpt>
      <trkpt lat="43.251365" lon="-5.006745">
        <ele>1223.067</ele>
        <time>2021-08-01T09:45:03Z</time>
      </trkpt>
      <trkpt lat="43.251346" lon="-5.00668">
        <ele>1223.877</ele>
        <time>2021-08-01T09:45:07Z</time>
      </trkpt>
      <trkpt lat="43.251307" lon="-5.006649">
        <ele>1224.825</ele>
        <time>2021-08-01T09:45:13Z</time>
      </trkpt>
      <trkpt lat="43.251277" lon="-5.006598">
        <ele>1226.026</ele>
        <time>2021-08-01T09:45:20Z</time>
      </trkpt>
      <trkpt lat="43.251238" lon="-5.006562">
        <ele>1226.208</ele>
        <time>2021-08-01T09:45:25Z</time>
      </trkpt>
      <trkpt lat="43.251214" lon="-5.006506">
        <ele>1226.908</ele>
        <time>2021-08-01T09:45:31Z</time>
      </trkpt>
      <trkpt lat="43.251226" lon="-5.006443">
        <ele>1227.119</ele>
        <time>2021-08-01T09:45:37Z</time>
      </trkpt>
      <trkpt lat="43.251264" lon="-5.006482">
        <ele>1227.661</ele>
        <time>2021-08-01T09:45:41Z</time>
      </trkpt>
      <trkpt lat="43.251242" lon="-5.006427">
        <ele>1228.040</ele>
        <time>2021-08-01T09:45:47Z</time>
      </trkpt>
      <trkpt lat="43.251195" lon="-5.006432">
        <ele>1228.972</ele>
        <time>2021-08-01T09:45:50Z</time>
      </trkpt>
      <trkpt lat="43.251139" lon="-5.006435">
        <ele>1229.656</ele>
        <time>2021-08-01T09:45:55Z</time>
      </trkpt>
      <trkpt lat="43.251096" lon="-5.006405">
        <ele>1230.013</ele>
        <time>2021-08-01T09:45:58Z</time>
      </trkpt>
      <trkpt lat="43.251053" lon="-5.006384">
        <ele>1230.178</ele>
        <time>2021-08-01T09:46:01Z</time>
      </trkpt>
      <trkpt lat="43.251005" lon="-5.006373">
        <ele>1230.528</ele>
        <time>2021-08-01T09:46:04Z</time>
      </trkpt>
      <trkpt lat="43.250961" lon="-5.006348">
        <ele>1230.837</ele>
        <time>2021-08-01T09:46:08Z</time>
      </trkpt>
      <trkpt lat="43.250918" lon="-5.006318">
        <ele>1231.249</ele>
        <time>2021-08-01T09:46:13Z</time>
      </trkpt>
      <trkpt lat="43.250877" lon="-5.00627">
        <ele>1231.413</ele>
        <time>2021-08-01T09:46:17Z</time>
      </trkpt>
      <trkpt lat="43.250838" lon="-5.00623">
        <ele>1231.208</ele>
        <time>2021-08-01T09:46:22Z</time>
      </trkpt>
      <trkpt lat="43.250792" lon="-5.006219">
        <ele>1231.090</ele>
        <time>2021-08-01T09:46:28Z</time>
      </trkpt>
      <trkpt lat="43.25077" lon="-5.006154">
        <ele>1230.962</ele>
        <time>2021-08-01T09:46:33Z</time>
      </trkpt>
      <trkpt lat="43.250757" lon="-5.00622">
        <ele>1231.471</ele>
        <time>2021-08-01T09:46:38Z</time>
      </trkpt>
      <trkpt lat="43.250714" lon="-5.006238">
        <ele>1231.323</ele>
        <time>2021-08-01T09:46:43Z</time>
      </trkpt>
      <trkpt lat="43.25067" lon="-5.006217">
        <ele>1232.027</ele>
        <time>2021-08-01T09:46:46Z</time>
      </trkpt>
      <trkpt lat="43.250639" lon="-5.006161">
        <ele>1232.434</ele>
        <time>2021-08-01T09:46:51Z</time>
      </trkpt>
      <trkpt lat="43.250597" lon="-5.006129">
        <ele>1232.539</ele>
        <time>2021-08-01T09:46:55Z</time>
      </trkpt>
      <trkpt lat="43.250556" lon="-5.006086">
        <ele>1233.269</ele>
        <time>2021-08-01T09:46:58Z</time>
      </trkpt>
      <trkpt lat="43.250521" lon="-5.006016">
        <ele>1233.377</ele>
        <time>2021-08-01T09:47:02Z</time>
      </trkpt>
      <trkpt lat="43.250499" lon="-5.005958">
        <ele>1234.161</ele>
        <time>2021-08-01T09:47:11Z</time>
      </trkpt>
      <trkpt lat="43.250454" lon="-5.005944">
        <ele>1233.827</ele>
        <time>2021-08-01T09:47:15Z</time>
      </trkpt>
      <trkpt lat="43.250432" lon="-5.005887">
        <ele>1233.208</ele>
        <time>2021-08-01T09:47:25Z</time>
      </trkpt>
      <trkpt lat="43.250402" lon="-5.005836">
        <ele>1233.114</ele>
        <time>2021-08-01T09:47:30Z</time>
      </trkpt>
      <trkpt lat="43.250399" lon="-5.005773">
        <ele>1233.516</ele>
        <time>2021-08-01T09:47:35Z</time>
      </trkpt>
      <trkpt lat="43.250443" lon="-5.005748">
        <ele>1233.665</ele>
        <time>2021-08-01T09:47:37Z</time>
      </trkpt>
      <trkpt lat="43.250485" lon="-5.005723">
        <ele>1233.467</ele>
        <time>2021-08-01T09:47:40Z</time>
      </trkpt>
      <trkpt lat="43.25052" lon="-5.005681">
        <ele>1233.821</ele>
        <time>2021-08-01T09:47:43Z</time>
      </trkpt>
      <trkpt lat="43.250504" lon="-5.005623">
        <ele>1233.958</ele>
        <time>2021-08-01T09:47:46Z</time>
      </trkpt>
      <trkpt lat="43.250473" lon="-5.005578">
        <ele>1233.743</ele>
        <time>2021-08-01T09:47:51Z</time>
      </trkpt>
      <trkpt lat="43.250438" lon="-5.005537">
        <ele>1233.723</ele>
        <time>2021-08-01T09:48:06Z</time>
      </trkpt>
      <trkpt lat="43.250419" lon="-5.005471">
        <ele>1234.441</ele>
        <time>2021-08-01T09:48:13Z</time>
      </trkpt>
      <trkpt lat="43.250388" lon="-5.005423">
        <ele>1235.181</ele>
        <time>2021-08-01T09:48:16Z</time>
      </trkpt>
      <trkpt lat="43.250358" lon="-5.005357">
        <ele>1234.909</ele>
        <time>2021-08-01T09:48:20Z</time>
      </trkpt>
      <trkpt lat="43.250327" lon="-5.005304">
        <ele>1234.708</ele>
        <time>2021-08-01T09:48:24Z</time>
      </trkpt>
      <trkpt lat="43.250304" lon="-5.005244">
        <ele>1233.611</ele>
        <time>2021-08-01T09:48:30Z</time>
      </trkpt>
      <trkpt lat="43.250264" lon="-5.005203">
        <ele>1233.763</ele>
        <time>2021-08-01T09:48:35Z</time>
      </trkpt>
      <trkpt lat="43.250228" lon="-5.005156">
        <ele>1233.572</ele>
        <time>2021-08-01T09:48:40Z</time>
      </trkpt>
      <trkpt lat="43.250202" lon="-5.005095">
        <ele>1232.914</ele>
        <time>2021-08-01T09:48:43Z</time>
      </trkpt>
      <trkpt lat="43.250174" lon="-5.005028">
        <ele>1232.868</ele>
        <time>2021-08-01T09:48:46Z</time>
      </trkpt>
      <trkpt lat="43.250163" lon="-5.004954">
        <ele>1233.045</ele>
        <time>2021-08-01T09:49:08Z</time>
      </trkpt>
      <trkpt lat="43.250146" lon="-5.004883">
        <ele>1232.280</ele>
        <time>2021-08-01T09:49:12Z</time>
      </trkpt>
      <trkpt lat="43.250107" lon="-5.004821">
        <ele>1231.860</ele>
        <time>2021-08-01T09:49:16Z</time>
      </trkpt>
      <trkpt lat="43.250087" lon="-5.004762">
        <ele>1231.434</ele>
        <time>2021-08-01T09:49:20Z</time>
      </trkpt>
      <trkpt lat="43.250061" lon="-5.004708">
        <ele>1231.155</ele>
        <time>2021-08-01T09:49:24Z</time>
      </trkpt>
      <trkpt lat="43.250032" lon="-5.004654">
        <ele>1231.510</ele>
        <time>2021-08-01T09:49:29Z</time>
      </trkpt>
      <trkpt lat="43.250001" lon="-5.004609">
        <ele>1231.108</ele>
        <time>2021-08-01T09:49:34Z</time>
      </trkpt>
      <trkpt lat="43.249985" lon="-5.00455">
        <ele>1230.620</ele>
        <time>2021-08-01T09:49:40Z</time>
      </trkpt>
      <trkpt lat="43.249946" lon="-5.004501">
        <ele>1230.122</ele>
        <time>2021-08-01T09:49:47Z</time>
      </trkpt>
      <trkpt lat="43.249904" lon="-5.004464">
        <ele>1229.611</ele>
        <time>2021-08-01T09:49:52Z</time>
      </trkpt>
      <trkpt lat="43.249875" lon="-5.004403">
        <ele>1230.333</ele>
        <time>2021-08-01T09:49:58Z</time>
      </trkpt>
      <trkpt lat="43.249848" lon="-5.00433">
        <ele>1230.137</ele>
        <time>2021-08-01T09:50:03Z</time>
      </trkpt>
      <trkpt lat="43.249846" lon="-5.004263">
        <ele>1229.924</ele>
        <time>2021-08-01T09:50:09Z</time>
      </trkpt>
      <trkpt lat="43.249852" lon="-5.004194">
        <ele>1229.999</ele>
        <time>2021-08-01T09:50:16Z</time>
      </trkpt>
      <trkpt lat="43.249836" lon="-5.00413">
        <ele>1229.429</ele>
        <time>2021-08-01T09:50:21Z</time>
      </trkpt>
      <trkpt lat="43.249834" lon="-5.004067">
        <ele>1230.141</ele>
        <time>2021-08-01T09:50:54Z</time>
      </trkpt>
      <trkpt lat="43.249827" lon="-5.004">
        <ele>1230.581</ele>
        <time>2021-08-01T09:51:09Z</time>
      </trkpt>
      <trkpt lat="43.249845" lon="-5.003939">
        <ele>1230.909</ele>
        <time>2021-08-01T09:51:13Z</time>
      </trkpt>
      <trkpt lat="43.249837" lon="-5.00387">
        <ele>1231.708</ele>
        <time>2021-08-01T09:51:16Z</time>
      </trkpt>
      <trkpt lat="43.249793" lon="-5.003842">
        <ele>1232.461</ele>
        <time>2021-08-01T09:51:20Z</time>
      </trkpt>
      <trkpt lat="43.249822" lon="-5.003789">
        <ele>1232.833</ele>
        <time>2021-08-01T09:51:27Z</time>
      </trkpt>
      <trkpt lat="43.249812" lon="-5.003715">
        <ele>1232.942</ele>
        <time>2021-08-01T09:51:30Z</time>
      </trkpt>
      <trkpt lat="43.2498" lon="-5.003648">
        <ele>1232.634</ele>
        <time>2021-08-01T09:51:34Z</time>
      </trkpt>
      <trkpt lat="43.249807" lon="-5.003583">
        <ele>1231.488</ele>
        <time>2021-08-01T09:52:00Z</time>
      </trkpt>
      <trkpt lat="43.249827" lon="-5.003527">
        <ele>1230.095</ele>
        <time>2021-08-01T09:52:04Z</time>
      </trkpt>
      <trkpt lat="43.249829" lon="-5.003459">
        <ele>1229.240</ele>
        <time>2021-08-01T09:52:08Z</time>
      </trkpt>
      <trkpt lat="43.24981" lon="-5.003394">
        <ele>1228.590</ele>
        <time>2021-08-01T09:52:12Z</time>
      </trkpt>
      <trkpt lat="43.249777" lon="-5.003343">
        <ele>1227.546</ele>
        <time>2021-08-01T09:52:16Z</time>
      </trkpt>
      <trkpt lat="43.249742" lon="-5.003294">
        <ele>1226.888</ele>
        <time>2021-08-01T09:52:20Z</time>
      </trkpt>
      <trkpt lat="43.249706" lon="-5.003249">
        <ele>1225.816</ele>
        <time>2021-08-01T09:52:24Z</time>
      </trkpt>
      <trkpt lat="43.249677" lon="-5.003201">
        <ele>1225.108</ele>
        <time>2021-08-01T09:52:28Z</time>
      </trkpt>
      <trkpt lat="43.249634" lon="-5.003158">
        <ele>1224.061</ele>
        <time>2021-08-01T09:52:34Z</time>
      </trkpt>
      <trkpt lat="43.249604" lon="-5.003105">
        <ele>1222.833</ele>
        <time>2021-08-01T09:52:39Z</time>
      </trkpt>
      <trkpt lat="43.249572" lon="-5.003054">
        <ele>1223.372</ele>
        <time>2021-08-01T09:52:43Z</time>
      </trkpt>
      <trkpt lat="43.249543" lon="-5.002996">
        <ele>1222.734</ele>
        <time>2021-08-01T09:52:48Z</time>
      </trkpt>
      <trkpt lat="43.249518" lon="-5.002943">
        <ele>1222.498</ele>
        <time>2021-08-01T09:52:52Z</time>
      </trkpt>
      <trkpt lat="43.249485" lon="-5.002881">
        <ele>1222.055</ele>
        <time>2021-08-01T09:52:57Z</time>
      </trkpt>
      <trkpt lat="43.249445" lon="-5.002848">
        <ele>1222.360</ele>
        <time>2021-08-01T09:53:01Z</time>
      </trkpt>
      <trkpt lat="43.249399" lon="-5.002828">
        <ele>1222.480</ele>
        <time>2021-08-01T09:53:04Z</time>
      </trkpt>
      <trkpt lat="43.249348" lon="-5.002817">
        <ele>1223.085</ele>
        <time>2021-08-01T09:53:08Z</time>
      </trkpt>
      <trkpt lat="43.249301" lon="-5.00279">
        <ele>1223.889</ele>
        <time>2021-08-01T09:53:14Z</time>
      </trkpt>
      <trkpt lat="43.249266" lon="-5.002743">
        <ele>1224.117</ele>
        <time>2021-08-01T09:53:18Z</time>
      </trkpt>
      <trkpt lat="43.249233" lon="-5.002699">
        <ele>1224.508</ele>
        <time>2021-08-01T09:53:23Z</time>
      </trkpt>
      <trkpt lat="43.249197" lon="-5.002651">
        <ele>1225.365</ele>
        <time>2021-08-01T09:53:29Z</time>
      </trkpt>
      <trkpt lat="43.249167" lon="-5.002604">
        <ele>1225.947</ele>
        <time>2021-08-01T09:53:33Z</time>
      </trkpt>
      <trkpt lat="43.249149" lon="-5.002542">
        <ele>1225.896</ele>
        <time>2021-08-01T09:53:40Z</time>
      </trkpt>
      <trkpt lat="43.249104" lon="-5.002527">
        <ele>1226.198</ele>
        <time>2021-08-01T09:53:44Z</time>
      </trkpt>
      <trkpt lat="43.249057" lon="-5.002524">
        <ele>1226.482</ele>
        <time>2021-08-01T09:53:50Z</time>
      </trkpt>
      <trkpt lat="43.249021" lon="-5.002482">
        <ele>1227.139</ele>
        <time>2021-08-01T09:53:57Z</time>
      </trkpt>
      <trkpt lat="43.248977" lon="-5.00251">
        <ele>1227.494</ele>
        <time>2021-08-01T09:54:04Z</time>
      </trkpt>
      <trkpt lat="43.248933" lon="-5.002479">
        <ele>1228.374</ele>
        <time>2021-08-01T09:54:10Z</time>
      </trkpt>
      <trkpt lat="43.248895" lon="-5.002446">
        <ele>1229.637</ele>
        <time>2021-08-01T09:54:15Z</time>
      </trkpt>
      <trkpt lat="43.24886" lon="-5.002395">
        <ele>1230.249</ele>
        <time>2021-08-01T09:54:19Z</time>
      </trkpt>
      <trkpt lat="43.248826" lon="-5.002349">
        <ele>1230.913</ele>
        <time>2021-08-01T09:54:26Z</time>
      </trkpt>
      <trkpt lat="43.248785" lon="-5.002321">
        <ele>1231.908</ele>
        <time>2021-08-01T09:54:30Z</time>
      </trkpt>
      <trkpt lat="43.248762" lon="-5.002246">
        <ele>1232.950</ele>
        <time>2021-08-01T09:54:35Z</time>
      </trkpt>
      <trkpt lat="43.248714" lon="-5.002215">
        <ele>1234.562</ele>
        <time>2021-08-01T09:54:55Z</time>
      </trkpt>
      <trkpt lat="43.248677" lon="-5.002179">
        <ele>1235.391</ele>
        <time>2021-08-01T09:54:58Z</time>
      </trkpt>
      <trkpt lat="43.248644" lon="-5.002136">
        <ele>1236.513</ele>
        <time>2021-08-01T09:55:02Z</time>
      </trkpt>
      <trkpt lat="43.24861" lon="-5.002076">
        <ele>1236.997</ele>
        <time>2021-08-01T09:55:06Z</time>
      </trkpt>
      <trkpt lat="43.248587" lon="-5.002016">
        <ele>1237.464</ele>
        <time>2021-08-01T09:55:11Z</time>
      </trkpt>
      <trkpt lat="43.248559" lon="-5.001967">
        <ele>1237.319</ele>
        <time>2021-08-01T09:55:15Z</time>
      </trkpt>
      <trkpt lat="43.248507" lon="-5.001954">
        <ele>1238.119</ele>
        <time>2021-08-01T09:55:22Z</time>
      </trkpt>
      <trkpt lat="43.248469" lon="-5.001921">
        <ele>1238.839</ele>
        <time>2021-08-01T09:55:25Z</time>
      </trkpt>
      <trkpt lat="43.248428" lon="-5.001879">
        <ele>1239.001</ele>
        <time>2021-08-01T09:55:30Z</time>
      </trkpt>
      <trkpt lat="43.248416" lon="-5.001816">
        <ele>1238.921</ele>
        <time>2021-08-01T09:55:45Z</time>
      </trkpt>
      <trkpt lat="43.248408" lon="-5.001751">
        <ele>1238.708</ele>
        <time>2021-08-01T09:55:51Z</time>
      </trkpt>
      <trkpt lat="43.248363" lon="-5.001749">
        <ele>1238.450</ele>
        <time>2021-08-01T09:55:56Z</time>
      </trkpt>
      <trkpt lat="43.248319" lon="-5.001717">
        <ele>1238.412</ele>
        <time>2021-08-01T09:56:02Z</time>
      </trkpt>
      <trkpt lat="43.248272" lon="-5.001701">
        <ele>1239.471</ele>
        <time>2021-08-01T09:56:06Z</time>
      </trkpt>
      <trkpt lat="43.248225" lon="-5.001674">
        <ele>1239.933</ele>
        <time>2021-08-01T09:56:10Z</time>
      </trkpt>
      <trkpt lat="43.248178" lon="-5.001654">
        <ele>1240.967</ele>
        <time>2021-08-01T09:56:13Z</time>
      </trkpt>
      <trkpt lat="43.248139" lon="-5.001603">
        <ele>1241.594</ele>
        <time>2021-08-01T09:56:17Z</time>
      </trkpt>
      <trkpt lat="43.248104" lon="-5.001559">
        <ele>1242.719</ele>
        <time>2021-08-01T09:56:22Z</time>
      </trkpt>
      <trkpt lat="43.248071" lon="-5.001503">
        <ele>1243.749</ele>
        <time>2021-08-01T09:56:28Z</time>
      </trkpt>
      <trkpt lat="43.248027" lon="-5.001477">
        <ele>1245.094</ele>
        <time>2021-08-01T09:56:33Z</time>
      </trkpt>
      <trkpt lat="43.247978" lon="-5.001463">
        <ele>1246.357</ele>
        <time>2021-08-01T09:56:38Z</time>
      </trkpt>
      <trkpt lat="43.247931" lon="-5.00144">
        <ele>1247.022</ele>
        <time>2021-08-01T09:56:41Z</time>
      </trkpt>
      <trkpt lat="43.247896" lon="-5.001392">
        <ele>1248.008</ele>
        <time>2021-08-01T09:56:45Z</time>
      </trkpt>
      <trkpt lat="43.247867" lon="-5.001336">
        <ele>1249.486</ele>
        <time>2021-08-01T09:56:49Z</time>
      </trkpt>
      <trkpt lat="43.247829" lon="-5.00129">
        <ele>1249.898</ele>
        <time>2021-08-01T09:56:52Z</time>
      </trkpt>
      <trkpt lat="43.247785" lon="-5.001251">
        <ele>1250.817</ele>
        <time>2021-08-01T09:56:55Z</time>
      </trkpt>
      <trkpt lat="43.247764" lon="-5.001191">
        <ele>1253.649</ele>
        <time>2021-08-01T09:57:20Z</time>
      </trkpt>
      <trkpt lat="43.247728" lon="-5.001138">
        <ele>1254.753</ele>
        <time>2021-08-01T09:57:24Z</time>
      </trkpt>
      <trkpt lat="43.247695" lon="-5.001096">
        <ele>1255.560</ele>
        <time>2021-08-01T09:57:28Z</time>
      </trkpt>
      <trkpt lat="43.247657" lon="-5.001055">
        <ele>1257.155</ele>
        <time>2021-08-01T09:57:31Z</time>
      </trkpt>
      <trkpt lat="43.247606" lon="-5.001046">
        <ele>1257.335</ele>
        <time>2021-08-01T09:57:34Z</time>
      </trkpt>
      <trkpt lat="43.247553" lon="-5.001029">
        <ele>1258.484</ele>
        <time>2021-08-01T09:57:39Z</time>
      </trkpt>
      <trkpt lat="43.247518" lon="-5.000989">
        <ele>1259.407</ele>
        <time>2021-08-01T09:57:48Z</time>
      </trkpt>
      <trkpt lat="43.247493" lon="-5.000933">
        <ele>1259.717</ele>
        <time>2021-08-01T09:57:53Z</time>
      </trkpt>
      <trkpt lat="43.24749" lon="-5.00087">
        <ele>1259.708</ele>
        <time>2021-08-01T09:57:58Z</time>
      </trkpt>
      <trkpt lat="43.247486" lon="-5.000801">
        <ele>1260.365</ele>
        <time>2021-08-01T09:58:03Z</time>
      </trkpt>
      <trkpt lat="43.247447" lon="-5.000764">
        <ele>1260.627</ele>
        <time>2021-08-01T09:58:08Z</time>
      </trkpt>
      <trkpt lat="43.247399" lon="-5.000765">
        <ele>1260.636</ele>
        <time>2021-08-01T09:58:12Z</time>
      </trkpt>
      <trkpt lat="43.24736" lon="-5.000727">
        <ele>1261.188</ele>
        <time>2021-08-01T09:58:16Z</time>
      </trkpt>
      <trkpt lat="43.247312" lon="-5.000683">
        <ele>1262.262</ele>
        <time>2021-08-01T09:58:21Z</time>
      </trkpt>
      <trkpt lat="43.247265" lon="-5.000677">
        <ele>1262.739</ele>
        <time>2021-08-01T09:58:26Z</time>
      </trkpt>
      <trkpt lat="43.247206" lon="-5.000651">
        <ele>1263.994</ele>
        <time>2021-08-01T09:58:31Z</time>
      </trkpt>
      <trkpt lat="43.247198" lon="-5.000583">
        <ele>1264.794</ele>
        <time>2021-08-01T09:58:36Z</time>
      </trkpt>
      <trkpt lat="43.247231" lon="-5.000542">
        <ele>1265.369</ele>
        <time>2021-08-01T09:58:40Z</time>
      </trkpt>
      <trkpt lat="43.247274" lon="-5.000516">
        <ele>1266.004</ele>
        <time>2021-08-01T09:58:44Z</time>
      </trkpt>
      <trkpt lat="43.247323" lon="-5.000504">
        <ele>1267.124</ele>
        <time>2021-08-01T09:58:47Z</time>
      </trkpt>
      <trkpt lat="43.247368" lon="-5.000494">
        <ele>1268.208</ele>
        <time>2021-08-01T09:58:50Z</time>
      </trkpt>
      <trkpt lat="43.247414" lon="-5.000468">
        <ele>1268.553</ele>
        <time>2021-08-01T09:58:53Z</time>
      </trkpt>
      <trkpt lat="43.247451" lon="-5.000424">
        <ele>1269.515</ele>
        <time>2021-08-01T09:58:56Z</time>
      </trkpt>
      <trkpt lat="43.247409" lon="-5.000391">
        <ele>1271.084</ele>
        <time>2021-08-01T09:59:01Z</time>
      </trkpt>
      <trkpt lat="43.247353" lon="-5.000389">
        <ele>1271.696</ele>
        <time>2021-08-01T09:59:05Z</time>
      </trkpt>
      <trkpt lat="43.247301" lon="-5.000395">
        <ele>1272.450</ele>
        <time>2021-08-01T09:59:08Z</time>
      </trkpt>
      <trkpt lat="43.247254" lon="-5.000402">
        <ele>1273.447</ele>
        <time>2021-08-01T09:59:14Z</time>
      </trkpt>
      <trkpt lat="43.247255" lon="-5.000328">
        <ele>1275.742</ele>
        <time>2021-08-01T10:00:47Z</time>
      </trkpt>
      <trkpt lat="43.247205" lon="-5.000357">
        <ele>1277.742</ele>
        <time>2021-08-01T10:00:55Z</time>
      </trkpt>
      <trkpt lat="43.247158" lon="-5.000403">
        <ele>1278.839</ele>
        <time>2021-08-01T10:00:58Z</time>
      </trkpt>
      <trkpt lat="43.247121" lon="-5.000452">
        <ele>1280.201</ele>
        <time>2021-08-01T10:01:01Z</time>
      </trkpt>
      <trkpt lat="43.247107" lon="-5.000388">
        <ele>1281.521</ele>
        <time>2021-08-01T10:01:12Z</time>
      </trkpt>
      <trkpt lat="43.247056" lon="-5.000362">
        <ele>1281.908</ele>
        <time>2021-08-01T10:01:21Z</time>
      </trkpt>
      <trkpt lat="43.247019" lon="-5.000323">
        <ele>1283.390</ele>
        <time>2021-08-01T10:01:28Z</time>
      </trkpt>
      <trkpt lat="43.246978" lon="-5.000281">
        <ele>1284.112</ele>
        <time>2021-08-01T10:01:35Z</time>
      </trkpt>
      <trkpt lat="43.246955" lon="-5.000225">
        <ele>1284.451</ele>
        <time>2021-08-01T10:01:40Z</time>
      </trkpt>
      <trkpt lat="43.246926" lon="-5.000157">
        <ele>1285.133</ele>
        <time>2021-08-01T10:01:45Z</time>
      </trkpt>
      <trkpt lat="43.246886" lon="-5.000116">
        <ele>1285.157</ele>
        <time>2021-08-01T10:01:53Z</time>
      </trkpt>
      <trkpt lat="43.246871" lon="-5.000048">
        <ele>1284.914</ele>
        <time>2021-08-01T10:01:59Z</time>
      </trkpt>
      <trkpt lat="43.246827" lon="-5.000012">
        <ele>1284.899</ele>
        <time>2021-08-01T10:02:03Z</time>
      </trkpt>
      <trkpt lat="43.246796" lon="-4.999954">
        <ele>1285.349</ele>
        <time>2021-08-01T10:02:07Z</time>
      </trkpt>
      <trkpt lat="43.24675" lon="-4.99992">
        <ele>1285.662</ele>
        <time>2021-08-01T10:02:12Z</time>
      </trkpt>
      <trkpt lat="43.246703" lon="-4.999897">
        <ele>1286.483</ele>
        <time>2021-08-01T10:02:18Z</time>
      </trkpt>
      <trkpt lat="43.246657" lon="-4.999893">
        <ele>1286.711</ele>
        <time>2021-08-01T10:02:23Z</time>
      </trkpt>
      <trkpt lat="43.246611" lon="-4.999889">
        <ele>1287.008</ele>
        <time>2021-08-01T10:02:27Z</time>
      </trkpt>
      <trkpt lat="43.246568" lon="-4.999861">
        <ele>1287.223</ele>
        <time>2021-08-01T10:02:31Z</time>
      </trkpt>
      <trkpt lat="43.246521" lon="-4.999829">
        <ele>1287.935</ele>
        <time>2021-08-01T10:02:36Z</time>
      </trkpt>
      <trkpt lat="43.246482" lon="-4.999771">
        <ele>1288.454</ele>
        <time>2021-08-01T10:02:40Z</time>
      </trkpt>
      <trkpt lat="43.246448" lon="-4.999722">
        <ele>1289.066</ele>
        <time>2021-08-01T10:02:44Z</time>
      </trkpt>
      <trkpt lat="43.246396" lon="-4.999735">
        <ele>1289.440</ele>
        <time>2021-08-01T10:02:50Z</time>
      </trkpt>
      <trkpt lat="43.246362" lon="-4.999684">
        <ele>1289.957</ele>
        <time>2021-08-01T10:02:55Z</time>
      </trkpt>
      <trkpt lat="43.246308" lon="-4.999664">
        <ele>1290.692</ele>
        <time>2021-08-01T10:02:59Z</time>
      </trkpt>
      <trkpt lat="43.24626" lon="-4.999661">
        <ele>1290.342</ele>
        <time>2021-08-01T10:03:03Z</time>
      </trkpt>
      <trkpt lat="43.246219" lon="-4.999619">
        <ele>1290.489</ele>
        <time>2021-08-01T10:03:07Z</time>
      </trkpt>
      <trkpt lat="43.246182" lon="-4.999578">
        <ele>1291.106</ele>
        <time>2021-08-01T10:03:11Z</time>
      </trkpt>
      <trkpt lat="43.246145" lon="-4.99954">
        <ele>1290.526</ele>
        <time>2021-08-01T10:03:16Z</time>
      </trkpt>
      <trkpt lat="43.246103" lon="-4.999504">
        <ele>1291.308</ele>
        <time>2021-08-01T10:03:21Z</time>
      </trkpt>
      <trkpt lat="43.246058" lon="-4.999469">
        <ele>1291.915</ele>
        <time>2021-08-01T10:03:26Z</time>
      </trkpt>
      <trkpt lat="43.246014" lon="-4.99941">
        <ele>1292.147</ele>
        <time>2021-08-01T10:03:31Z</time>
      </trkpt>
      <trkpt lat="43.245969" lon="-4.999387">
        <ele>1292.576</ele>
        <time>2021-08-01T10:03:35Z</time>
      </trkpt>
      <trkpt lat="43.245925" lon="-4.999401">
        <ele>1292.658</ele>
        <time>2021-08-01T10:03:43Z</time>
      </trkpt>
      <trkpt lat="43.245886" lon="-4.999435">
        <ele>1292.642</ele>
        <time>2021-08-01T10:03:48Z</time>
      </trkpt>
      <trkpt lat="43.245838" lon="-4.999432">
        <ele>1292.779</ele>
        <time>2021-08-01T10:03:54Z</time>
      </trkpt>
      <trkpt lat="43.245806" lon="-4.999387">
        <ele>1293.124</ele>
        <time>2021-08-01T10:03:57Z</time>
      </trkpt>
      <trkpt lat="43.245763" lon="-4.999337">
        <ele>1293.744</ele>
        <time>2021-08-01T10:04:01Z</time>
      </trkpt>
      <trkpt lat="43.245722" lon="-4.999309">
        <ele>1293.845</ele>
        <time>2021-08-01T10:04:04Z</time>
      </trkpt>
      <trkpt lat="43.245692" lon="-4.99926">
        <ele>1293.347</ele>
        <time>2021-08-01T10:04:09Z</time>
      </trkpt>
      <trkpt lat="43.245649" lon="-4.99922">
        <ele>1293.911</ele>
        <time>2021-08-01T10:04:14Z</time>
      </trkpt>
      <trkpt lat="43.245601" lon="-4.9992">
        <ele>1293.808</ele>
        <time>2021-08-01T10:04:19Z</time>
      </trkpt>
      <trkpt lat="43.245562" lon="-4.999167">
        <ele>1293.921</ele>
        <time>2021-08-01T10:04:24Z</time>
      </trkpt>
      <trkpt lat="43.245516" lon="-4.999177">
        <ele>1293.963</ele>
        <time>2021-08-01T10:04:30Z</time>
      </trkpt>
      <trkpt lat="43.245475" lon="-4.999151">
        <ele>1294.192</ele>
        <time>2021-08-01T10:04:35Z</time>
      </trkpt>
      <trkpt lat="43.245433" lon="-4.999122">
        <ele>1294.794</ele>
        <time>2021-08-01T10:04:41Z</time>
      </trkpt>
      <trkpt lat="43.24538" lon="-4.999148">
        <ele>1294.558</ele>
        <time>2021-08-01T10:04:46Z</time>
      </trkpt>
      <trkpt lat="43.245331" lon="-4.999162">
        <ele>1294.655</ele>
        <time>2021-08-01T10:04:52Z</time>
      </trkpt>
      <trkpt lat="43.245319" lon="-4.999223">
        <ele>1295.130</ele>
        <time>2021-08-01T10:05:02Z</time>
      </trkpt>
      <trkpt lat="43.245361" lon="-4.999262">
        <ele>1294.950</ele>
        <time>2021-08-01T10:05:08Z</time>
      </trkpt>
      <trkpt lat="43.245392" lon="-4.999308">
        <ele>1295.868</ele>
        <time>2021-08-01T10:05:13Z</time>
      </trkpt>
      <trkpt lat="43.245378" lon="-4.999372">
        <ele>1297.042</ele>
        <time>2021-08-01T10:05:25Z</time>
      </trkpt>
      <trkpt lat="43.245332" lon="-4.999371">
        <ele>1298.326</ele>
        <time>2021-08-01T10:05:52Z</time>
      </trkpt>
      <trkpt lat="43.245275" lon="-4.99935">
        <ele>1299.408</ele>
        <time>2021-08-01T10:05:58Z</time>
      </trkpt>
      <trkpt lat="43.245244" lon="-4.999303">
        <ele>1299.863</ele>
        <time>2021-08-01T10:06:01Z</time>
      </trkpt>
      <trkpt lat="43.245209" lon="-4.99925">
        <ele>1300.295</ele>
        <time>2021-08-01T10:06:06Z</time>
      </trkpt>
      <trkpt lat="43.245168" lon="-4.999213">
        <ele>1300.984</ele>
        <time>2021-08-01T10:06:13Z</time>
      </trkpt>
      <trkpt lat="43.245129" lon="-4.999167">
        <ele>1301.026</ele>
        <time>2021-08-01T10:06:17Z</time>
      </trkpt>
      <trkpt lat="43.245091" lon="-4.999125">
        <ele>1301.290</ele>
        <time>2021-08-01T10:06:21Z</time>
      </trkpt>
      <trkpt lat="43.245045" lon="-4.999101">
        <ele>1301.737</ele>
        <time>2021-08-01T10:06:26Z</time>
      </trkpt>
      <trkpt lat="43.244998" lon="-4.99906">
        <ele>1302.352</ele>
        <time>2021-08-01T10:06:31Z</time>
      </trkpt>
      <trkpt lat="43.24496" lon="-4.999007">
        <ele>1302.312</ele>
        <time>2021-08-01T10:06:35Z</time>
      </trkpt>
      <trkpt lat="43.24492" lon="-4.998959">
        <ele>1302.439</ele>
        <time>2021-08-01T10:06:38Z</time>
      </trkpt>
      <trkpt lat="43.244884" lon="-4.998919">
        <ele>1302.801</ele>
        <time>2021-08-01T10:06:42Z</time>
      </trkpt>
      <trkpt lat="43.24484" lon="-4.998869">
        <ele>1303.221</ele>
        <time>2021-08-01T10:06:51Z</time>
      </trkpt>
      <trkpt lat="43.244797" lon="-4.998837">
        <ele>1304.408</ele>
        <time>2021-08-01T10:06:55Z</time>
      </trkpt>
      <trkpt lat="43.244778" lon="-4.998769">
        <ele>1304.970</ele>
        <time>2021-08-01T10:07:01Z</time>
      </trkpt>
      <trkpt lat="43.244746" lon="-4.998723">
        <ele>1306.622</ele>
        <time>2021-08-01T10:07:05Z</time>
      </trkpt>
      <trkpt lat="43.244791" lon="-4.998689">
        <ele>1308.111</ele>
        <time>2021-08-01T10:07:10Z</time>
      </trkpt>
      <trkpt lat="43.244761" lon="-4.998638">
        <ele>1308.973</ele>
        <time>2021-08-01T10:07:20Z</time>
      </trkpt>
      <trkpt lat="43.244726" lon="-4.998596">
        <ele>1308.617</ele>
        <time>2021-08-01T10:07:25Z</time>
      </trkpt>
      <trkpt lat="43.244712" lon="-4.998534">
        <ele>1309.374</ele>
        <time>2021-08-01T10:07:42Z</time>
      </trkpt>
      <trkpt lat="43.244691" lon="-4.998467">
        <ele>1309.999</ele>
        <time>2021-08-01T10:07:48Z</time>
      </trkpt>
      <trkpt lat="43.244698" lon="-4.998403">
        <ele>1310.129</ele>
        <time>2021-08-01T10:07:55Z</time>
      </trkpt>
      <trkpt lat="43.244711" lon="-4.99834">
        <ele>1311.355</ele>
        <time>2021-08-01T10:08:03Z</time>
      </trkpt>
      <trkpt lat="43.244694" lon="-4.998278">
        <ele>1312.007</ele>
        <time>2021-08-01T10:08:08Z</time>
      </trkpt>
      <trkpt lat="43.244675" lon="-4.998219">
        <ele>1311.917</ele>
        <time>2021-08-01T10:08:13Z</time>
      </trkpt>
      <trkpt lat="43.244681" lon="-4.998154">
        <ele>1311.808</ele>
        <time>2021-08-01T10:08:22Z</time>
      </trkpt>
      <trkpt lat="43.244681" lon="-4.998092">
        <ele>1312.992</ele>
        <time>2021-08-01T10:08:29Z</time>
      </trkpt>
      <trkpt lat="43.244731" lon="-4.998062">
        <ele>1313.634</ele>
        <time>2021-08-01T10:09:02Z</time>
      </trkpt>
      <trkpt lat="43.244759" lon="-4.998">
        <ele>1314.783</ele>
        <time>2021-08-01T10:09:08Z</time>
      </trkpt>
      <trkpt lat="43.244765" lon="-4.997938">
        <ele>1315.375</ele>
        <time>2021-08-01T10:09:11Z</time>
      </trkpt>
      <trkpt lat="43.244776" lon="-4.997871">
        <ele>1315.869</ele>
        <time>2021-08-01T10:09:15Z</time>
      </trkpt>
      <trkpt lat="43.244771" lon="-4.997807">
        <ele>1316.826</ele>
        <time>2021-08-01T10:09:20Z</time>
      </trkpt>
      <trkpt lat="43.244806" lon="-4.997763">
        <ele>1317.541</ele>
        <time>2021-08-01T10:09:30Z</time>
      </trkpt>
      <trkpt lat="43.244821" lon="-4.997699">
        <ele>1318.221</ele>
        <time>2021-08-01T10:09:35Z</time>
      </trkpt>
      <trkpt lat="43.244799" lon="-4.997764">
        <ele>1319.839</ele>
        <time>2021-08-01T10:09:51Z</time>
      </trkpt>
      <trkpt lat="43.244773" lon="-4.997817">
        <ele>1322.201</ele>
        <time>2021-08-01T10:10:12Z</time>
      </trkpt>
      <trkpt lat="43.244727" lon="-4.997819">
        <ele>1323.621</ele>
        <time>2021-08-01T10:10:18Z</time>
      </trkpt>
      <trkpt lat="43.244679" lon="-4.997818">
        <ele>1325.308</ele>
        <time>2021-08-01T10:10:23Z</time>
      </trkpt>
      <trkpt lat="43.244635" lon="-4.997786">
        <ele>1326.940</ele>
        <time>2021-08-01T10:10:29Z</time>
      </trkpt>
      <trkpt lat="43.244585" lon="-4.997765">
        <ele>1327.152</ele>
        <time>2021-08-01T10:10:33Z</time>
      </trkpt>
      <trkpt lat="43.244527" lon="-4.997738">
        <ele>1328.111</ele>
        <time>2021-08-01T10:10:37Z</time>
      </trkpt>
      <trkpt lat="43.244509" lon="-4.997679">
        <ele>1328.483</ele>
        <time>2021-08-01T10:10:41Z</time>
      </trkpt>
      <trkpt lat="43.244548" lon="-4.997642">
        <ele>1330.037</ele>
        <time>2021-08-01T10:11:05Z</time>
      </trkpt>
      <trkpt lat="43.244529" lon="-4.997569">
        <ele>1331.834</ele>
        <time>2021-08-01T10:11:10Z</time>
      </trkpt>
      <trkpt lat="43.244474" lon="-4.997593">
        <ele>1333.249</ele>
        <time>2021-08-01T10:11:13Z</time>
      </trkpt>
      <trkpt lat="43.244426" lon="-4.997563">
        <ele>1334.359</ele>
        <time>2021-08-01T10:11:16Z</time>
      </trkpt>
      <trkpt lat="43.244396" lon="-4.997516">
        <ele>1334.652</ele>
        <time>2021-08-01T10:11:23Z</time>
      </trkpt>
      <trkpt lat="43.244431" lon="-4.997473">
        <ele>1335.153</ele>
        <time>2021-08-01T10:11:37Z</time>
      </trkpt>
      <trkpt lat="43.244441" lon="-4.997411">
        <ele>1334.908</ele>
        <time>2021-08-01T10:11:42Z</time>
      </trkpt>
      <trkpt lat="43.244455" lon="-4.997349">
        <ele>1335.708</ele>
        <time>2021-08-01T10:11:48Z</time>
      </trkpt>
      <trkpt lat="43.244449" lon="-4.997282">
        <ele>1337.392</ele>
        <time>2021-08-01T10:12:18Z</time>
      </trkpt>
      <trkpt lat="43.244421" lon="-4.997231">
        <ele>1339.134</ele>
        <time>2021-08-01T10:12:23Z</time>
      </trkpt>
      <trkpt lat="43.244404" lon="-4.997173">
        <ele>1340.133</ele>
        <time>2021-08-01T10:12:28Z</time>
      </trkpt>
      <trkpt lat="43.244369" lon="-4.99713">
        <ele>1341.045</ele>
        <time>2021-08-01T10:12:32Z</time>
      </trkpt>
      <trkpt lat="43.244353" lon="-4.99707">
        <ele>1341.799</ele>
        <time>2021-08-01T10:12:37Z</time>
      </trkpt>
      <trkpt lat="43.244306" lon="-4.997056">
        <ele>1343.016</ele>
        <time>2021-08-01T10:12:47Z</time>
      </trkpt>
      <trkpt lat="43.244311" lon="-4.996979">
        <ele>1343.531</ele>
        <time>2021-08-01T10:12:51Z</time>
      </trkpt>
      <trkpt lat="43.244305" lon="-4.99691">
        <ele>1343.921</ele>
        <time>2021-08-01T10:12:54Z</time>
      </trkpt>
      <trkpt lat="43.244267" lon="-4.996869">
        <ele>1344.395</ele>
        <time>2021-08-01T10:12:59Z</time>
      </trkpt>
      <trkpt lat="43.24423" lon="-4.996829">
        <ele>1344.449</ele>
        <time>2021-08-01T10:13:05Z</time>
      </trkpt>
      <trkpt lat="43.244184" lon="-4.996797">
        <ele>1344.923</ele>
        <time>2021-08-01T10:13:10Z</time>
      </trkpt>
      <trkpt lat="43.244137" lon="-4.996782">
        <ele>1345.608</ele>
        <time>2021-08-01T10:13:15Z</time>
      </trkpt>
      <trkpt lat="43.244087" lon="-4.996756">
        <ele>1346.186</ele>
        <time>2021-08-01T10:13:19Z</time>
      </trkpt>
      <trkpt lat="43.244043" lon="-4.996781">
        <ele>1347.118</ele>
        <time>2021-08-01T10:13:23Z</time>
      </trkpt>
      <trkpt lat="43.244087" lon="-4.996764">
        <ele>1347.667</ele>
        <time>2021-08-01T10:13:27Z</time>
      </trkpt>
      <trkpt lat="43.244136" lon="-4.996785">
        <ele>1348.439</ele>
        <time>2021-08-01T10:13:31Z</time>
      </trkpt>
      <trkpt lat="43.244092" lon="-4.996751">
        <ele>1350.143</ele>
        <time>2021-08-01T10:13:59Z</time>
      </trkpt>
      <trkpt lat="43.244041" lon="-4.99673">
        <ele>1351.370</ele>
        <time>2021-08-01T10:14:20Z</time>
      </trkpt>
      <trkpt lat="43.244092" lon="-4.99671">
        <ele>1353.755</ele>
        <time>2021-08-01T10:15:01Z</time>
      </trkpt>
      <trkpt lat="43.244092" lon="-4.996643">
        <ele>1355.165</ele>
        <time>2021-08-01T10:15:06Z</time>
      </trkpt>
      <trkpt lat="43.244044" lon="-4.99663">
        <ele>1356.654</ele>
        <time>2021-08-01T10:15:11Z</time>
      </trkpt>
      <trkpt lat="43.244079" lon="-4.996687">
        <ele>1357.656</ele>
        <time>2021-08-01T10:15:59Z</time>
      </trkpt>
      <trkpt lat="43.244044" lon="-4.996639">
        <ele>1357.311</ele>
        <time>2021-08-01T10:16:06Z</time>
      </trkpt>
      <trkpt lat="43.244057" lon="-4.996575">
        <ele>1356.208</ele>
        <time>2021-08-01T10:16:39Z</time>
      </trkpt>
      <trkpt lat="43.244035" lon="-4.99652">
        <ele>1355.542</ele>
        <time>2021-08-01T10:16:43Z</time>
      </trkpt>
      <trkpt lat="43.24399" lon="-4.996507">
        <ele>1354.374</ele>
        <time>2021-08-01T10:16:47Z</time>
      </trkpt>
      <trkpt lat="43.243948" lon="-4.996467">
        <ele>1354.023</ele>
        <time>2021-08-01T10:16:53Z</time>
      </trkpt>
      <trkpt lat="43.243976" lon="-4.996417">
        <ele>1353.125</ele>
        <time>2021-08-01T10:16:59Z</time>
      </trkpt>
      <trkpt lat="43.243989" lon="-4.996357">
        <ele>1352.559</ele>
        <time>2021-08-01T10:17:04Z</time>
      </trkpt>
      <trkpt lat="43.243959" lon="-4.996307">
        <ele>1352.486</ele>
        <time>2021-08-01T10:17:13Z</time>
      </trkpt>
      <trkpt lat="43.243912" lon="-4.99627">
        <ele>1352.761</ele>
        <time>2021-08-01T10:17:17Z</time>
      </trkpt>
      <trkpt lat="43.243869" lon="-4.99625">
        <ele>1352.041</ele>
        <time>2021-08-01T10:17:21Z</time>
      </trkpt>
      <trkpt lat="43.24382" lon="-4.996222">
        <ele>1351.962</ele>
        <time>2021-08-01T10:17:24Z</time>
      </trkpt>
      <trkpt lat="43.243776" lon="-4.996205">
        <ele>1352.383</ele>
        <time>2021-08-01T10:17:27Z</time>
      </trkpt>
      <trkpt lat="43.243734" lon="-4.996164">
        <ele>1352.611</ele>
        <time>2021-08-01T10:17:34Z</time>
      </trkpt>
      <trkpt lat="43.243694" lon="-4.996135">
        <ele>1352.308</ele>
        <time>2021-08-01T10:17:38Z</time>
      </trkpt>
      <trkpt lat="43.243649" lon="-4.99614">
        <ele>1352.263</ele>
        <time>2021-08-01T10:17:44Z</time>
      </trkpt>
      <trkpt lat="43.243602" lon="-4.99615">
        <ele>1351.915</ele>
        <time>2021-08-01T10:17:49Z</time>
      </trkpt>
      <trkpt lat="43.243561" lon="-4.996183">
        <ele>1352.274</ele>
        <time>2021-08-01T10:17:55Z</time>
      </trkpt>
      <trkpt lat="43.243515" lon="-4.996201">
        <ele>1352.196</ele>
        <time>2021-08-01T10:17:59Z</time>
      </trkpt>
      <trkpt lat="43.24347" lon="-4.996215">
        <ele>1352.250</ele>
        <time>2021-08-01T10:18:06Z</time>
      </trkpt>
      <trkpt lat="43.243422" lon="-4.996208">
        <ele>1351.967</ele>
        <time>2021-08-01T10:18:11Z</time>
      </trkpt>
      <trkpt lat="43.243405" lon="-4.996143">
        <ele>1352.942</ele>
        <time>2021-08-01T10:18:15Z</time>
      </trkpt>
      <trkpt lat="43.243393" lon="-4.996079">
        <ele>1352.912</ele>
        <time>2021-08-01T10:18:19Z</time>
      </trkpt>
      <trkpt lat="43.243369" lon="-4.996018">
        <ele>1353.765</ele>
        <time>2021-08-01T10:18:24Z</time>
      </trkpt>
      <trkpt lat="43.243351" lon="-4.995955">
        <ele>1354.068</ele>
        <time>2021-08-01T10:18:30Z</time>
      </trkpt>
      <trkpt lat="43.243316" lon="-4.995896">
        <ele>1354.614</ele>
        <time>2021-08-01T10:18:36Z</time>
      </trkpt>
      <trkpt lat="43.243269" lon="-4.995888">
        <ele>1355.608</ele>
        <time>2021-08-01T10:18:41Z</time>
      </trkpt>
      <trkpt lat="43.243235" lon="-4.995845">
        <ele>1356.783</ele>
        <time>2021-08-01T10:18:47Z</time>
      </trkpt>
      <trkpt lat="43.243194" lon="-4.995816">
        <ele>1357.165</ele>
        <time>2021-08-01T10:18:50Z</time>
      </trkpt>
      <trkpt lat="43.243148" lon="-4.995798">
        <ele>1357.984</ele>
        <time>2021-08-01T10:18:54Z</time>
      </trkpt>
      <trkpt lat="43.243099" lon="-4.995784">
        <ele>1359.186</ele>
        <time>2021-08-01T10:18:59Z</time>
      </trkpt>
      <trkpt lat="43.243052" lon="-4.995782">
        <ele>1359.490</ele>
        <time>2021-08-01T10:19:03Z</time>
      </trkpt>
      <trkpt lat="43.243001" lon="-4.995776">
        <ele>1360.277</ele>
        <time>2021-08-01T10:19:07Z</time>
      </trkpt>
      <trkpt lat="43.242954" lon="-4.99577">
        <ele>1360.772</ele>
        <time>2021-08-01T10:19:11Z</time>
      </trkpt>
      <trkpt lat="43.242912" lon="-4.995745">
        <ele>1361.132</ele>
        <time>2021-08-01T10:19:15Z</time>
      </trkpt>
      <trkpt lat="43.242872" lon="-4.995705">
        <ele>1361.927</ele>
        <time>2021-08-01T10:19:20Z</time>
      </trkpt>
      <trkpt lat="43.242828" lon="-4.995681">
        <ele>1362.568</ele>
        <time>2021-08-01T10:19:24Z</time>
      </trkpt>
      <trkpt lat="43.24279" lon="-4.995647">
        <ele>1362.614</ele>
        <time>2021-08-01T10:19:27Z</time>
      </trkpt>
      <trkpt lat="43.242756" lon="-4.995605">
        <ele>1362.908</ele>
        <time>2021-08-01T10:19:31Z</time>
      </trkpt>
      <trkpt lat="43.242722" lon="-4.995557">
        <ele>1363.549</ele>
        <time>2021-08-01T10:19:35Z</time>
      </trkpt>
      <trkpt lat="43.24268" lon="-4.995519">
        <ele>1363.971</ele>
        <time>2021-08-01T10:19:38Z</time>
      </trkpt>
      <trkpt lat="43.242642" lon="-4.995481">
        <ele>1363.930</ele>
        <time>2021-08-01T10:19:41Z</time>
      </trkpt>
      <trkpt lat="43.242603" lon="-4.995443">
        <ele>1364.572</ele>
        <time>2021-08-01T10:19:44Z</time>
      </trkpt>
      <trkpt lat="43.242559" lon="-4.995425">
        <ele>1364.996</ele>
        <time>2021-08-01T10:19:48Z</time>
      </trkpt>
      <trkpt lat="43.242511" lon="-4.995429">
        <ele>1365.473</ele>
        <time>2021-08-01T10:19:52Z</time>
      </trkpt>
      <trkpt lat="43.242463" lon="-4.995426">
        <ele>1366.068</ele>
        <time>2021-08-01T10:19:56Z</time>
      </trkpt>
      <trkpt lat="43.242423" lon="-4.995392">
        <ele>1366.338</ele>
        <time>2021-08-01T10:20:00Z</time>
      </trkpt>
      <trkpt lat="43.242386" lon="-4.99534">
        <ele>1367.456</ele>
        <time>2021-08-01T10:20:04Z</time>
      </trkpt>
      <trkpt lat="43.242352" lon="-4.995297">
        <ele>1367.559</ele>
        <time>2021-08-01T10:20:08Z</time>
      </trkpt>
      <trkpt lat="43.242307" lon="-4.995302">
        <ele>1367.514</ele>
        <time>2021-08-01T10:20:12Z</time>
      </trkpt>
      <trkpt lat="43.242265" lon="-4.995263">
        <ele>1367.908</ele>
        <time>2021-08-01T10:20:18Z</time>
      </trkpt>
      <trkpt lat="43.242243" lon="-4.995208">
        <ele>1368.092</ele>
        <time>2021-08-01T10:20:21Z</time>
      </trkpt>
      <trkpt lat="43.242217" lon="-4.995152">
        <ele>1367.884</ele>
        <time>2021-08-01T10:20:25Z</time>
      </trkpt>
      <trkpt lat="43.242176" lon="-4.995109">
        <ele>1368.453</ele>
        <time>2021-08-01T10:20:29Z</time>
      </trkpt>
      <trkpt lat="43.242133" lon="-4.995087">
        <ele>1368.865</ele>
        <time>2021-08-01T10:20:34Z</time>
      </trkpt>
      <trkpt lat="43.242088" lon="-4.995054">
        <ele>1368.739</ele>
        <time>2021-08-01T10:20:39Z</time>
      </trkpt>
      <trkpt lat="43.242039" lon="-4.99501">
        <ele>1369.026</ele>
        <time>2021-08-01T10:20:44Z</time>
      </trkpt>
      <trkpt lat="43.241987" lon="-4.994969">
        <ele>1369.871</ele>
        <time>2021-08-01T10:20:49Z</time>
      </trkpt>
      <trkpt lat="43.241948" lon="-4.994936">
        <ele>1369.941</ele>
        <time>2021-08-01T10:20:53Z</time>
      </trkpt>
      <trkpt lat="43.241908" lon="-4.994892">
        <ele>1370.941</ele>
        <time>2021-08-01T10:20:58Z</time>
      </trkpt>
      <trkpt lat="43.241867" lon="-4.994854">
        <ele>1371.681</ele>
        <time>2021-08-01T10:21:02Z</time>
      </trkpt>
      <trkpt lat="43.241819" lon="-4.994833">
        <ele>1372.509</ele>
        <time>2021-08-01T10:21:06Z</time>
      </trkpt>
      <trkpt lat="43.241779" lon="-4.994798">
        <ele>1372.608</ele>
        <time>2021-08-01T10:21:11Z</time>
      </trkpt>
      <trkpt lat="43.241739" lon="-4.994758">
        <ele>1373.431</ele>
        <time>2021-08-01T10:21:16Z</time>
      </trkpt>
      <trkpt lat="43.241711" lon="-4.99471">
        <ele>1373.833</ele>
        <time>2021-08-01T10:21:20Z</time>
      </trkpt>
      <trkpt lat="43.241667" lon="-4.994698">
        <ele>1374.272</ele>
        <time>2021-08-01T10:21:25Z</time>
      </trkpt>
      <trkpt lat="43.241626" lon="-4.994668">
        <ele>1374.334</ele>
        <time>2021-08-01T10:21:30Z</time>
      </trkpt>
      <trkpt lat="43.241585" lon="-4.994638">
        <ele>1375.528</ele>
        <time>2021-08-01T10:21:34Z</time>
      </trkpt>
      <trkpt lat="43.241554" lon="-4.99459">
        <ele>1375.445</ele>
        <time>2021-08-01T10:21:39Z</time>
      </trkpt>
      <trkpt lat="43.241519" lon="-4.994546">
        <ele>1375.730</ele>
        <time>2021-08-01T10:21:44Z</time>
      </trkpt>
      <trkpt lat="43.241474" lon="-4.994509">
        <ele>1376.230</ele>
        <time>2021-08-01T10:21:48Z</time>
      </trkpt>
      <trkpt lat="43.241433" lon="-4.994535">
        <ele>1377.366</ele>
        <time>2021-08-01T10:22:22Z</time>
      </trkpt>
      <trkpt lat="43.241382" lon="-4.99456">
        <ele>1378.429</ele>
        <time>2021-08-01T10:22:26Z</time>
      </trkpt>
      <trkpt lat="43.241363" lon="-4.9945">
        <ele>1379.421</ele>
        <time>2021-08-01T10:22:31Z</time>
      </trkpt>
      <trkpt lat="43.241414" lon="-4.994461">
        <ele>1380.308</ele>
        <time>2021-08-01T10:22:34Z</time>
      </trkpt>
      <trkpt lat="43.241465" lon="-4.994467">
        <ele>1380.733</ele>
        <time>2021-08-01T10:22:37Z</time>
      </trkpt>
      <trkpt lat="43.241457" lon="-4.994404">
        <ele>1381.075</ele>
        <time>2021-08-01T10:23:40Z</time>
      </trkpt>
      <trkpt lat="43.241484" lon="-4.99446">
        <ele>1385.064</ele>
        <time>2021-08-01T10:23:45Z</time>
      </trkpt>
      <trkpt lat="43.241502" lon="-4.994525">
        <ele>1388.316</ele>
        <time>2021-08-01T10:23:49Z</time>
      </trkpt>
      <trkpt lat="43.241495" lon="-4.99459">
        <ele>1389.580</ele>
        <time>2021-08-01T10:23:53Z</time>
      </trkpt>
      <trkpt lat="43.24146" lon="-4.994547">
        <ele>1391.467</ele>
        <time>2021-08-01T10:23:57Z</time>
      </trkpt>
      <trkpt lat="43.241424" lon="-4.994497">
        <ele>1392.442</ele>
        <time>2021-08-01T10:24:01Z</time>
      </trkpt>
      <trkpt lat="43.241396" lon="-4.994447">
        <ele>1393.312</ele>
        <time>2021-08-01T10:24:04Z</time>
      </trkpt>
      <trkpt lat="43.241358" lon="-4.994403">
        <ele>1394.657</ele>
        <time>2021-08-01T10:24:09Z</time>
      </trkpt>
      <trkpt lat="43.241317" lon="-4.994358">
        <ele>1395.300</ele>
        <time>2021-08-01T10:24:13Z</time>
      </trkpt>
      <trkpt lat="43.241277" lon="-4.994324">
        <ele>1395.920</ele>
        <time>2021-08-01T10:24:16Z</time>
      </trkpt>
      <trkpt lat="43.241235" lon="-4.994282">
        <ele>1396.408</ele>
        <time>2021-08-01T10:24:19Z</time>
      </trkpt>
      <trkpt lat="43.241188" lon="-4.994253">
        <ele>1397.812</ele>
        <time>2021-08-01T10:24:23Z</time>
      </trkpt>
      <trkpt lat="43.241155" lon="-4.994205">
        <ele>1398.714</ele>
        <time>2021-08-01T10:24:28Z</time>
      </trkpt>
      <trkpt lat="43.241124" lon="-4.994154">
        <ele>1399.563</ele>
        <time>2021-08-01T10:24:36Z</time>
      </trkpt>
      <trkpt lat="43.241081" lon="-4.99412">
        <ele>1400.535</ele>
        <time>2021-08-01T10:24:40Z</time>
      </trkpt>
      <trkpt lat="43.241036" lon="-4.994082">
        <ele>1400.919</ele>
        <time>2021-08-01T10:24:44Z</time>
      </trkpt>
      <trkpt lat="43.241035" lon="-4.994015">
        <ele>1401.736</ele>
        <time>2021-08-01T10:24:56Z</time>
      </trkpt>
      <trkpt lat="43.241012" lon="-4.993958">
        <ele>1403.471</ele>
        <time>2021-08-01T10:25:03Z</time>
      </trkpt>
      <trkpt lat="43.240969" lon="-4.99393">
        <ele>1405.371</ele>
        <time>2021-08-01T10:25:08Z</time>
      </trkpt>
      <trkpt lat="43.240927" lon="-4.993964">
        <ele>1406.221</ele>
        <time>2021-08-01T10:25:13Z</time>
      </trkpt>
      <trkpt lat="43.240881" lon="-4.993974">
        <ele>1407.341</ele>
        <time>2021-08-01T10:25:16Z</time>
      </trkpt>
      <trkpt lat="43.240845" lon="-4.993928">
        <ele>1408.105</ele>
        <time>2021-08-01T10:25:20Z</time>
      </trkpt>
      <trkpt lat="43.240823" lon="-4.993867">
        <ele>1408.608</ele>
        <time>2021-08-01T10:25:26Z</time>
      </trkpt>
      <trkpt lat="43.240781" lon="-4.993892">
        <ele>1409.769</ele>
        <time>2021-08-01T10:25:33Z</time>
      </trkpt>
      <trkpt lat="43.240736" lon="-4.993902">
        <ele>1410.161</ele>
        <time>2021-08-01T10:25:47Z</time>
      </trkpt>
      <trkpt lat="43.240706" lon="-4.993954">
        <ele>1411.250</ele>
        <time>2021-08-01T10:25:56Z</time>
      </trkpt>
      <trkpt lat="43.240659" lon="-4.993966">
        <ele>1412.632</ele>
        <time>2021-08-01T10:26:02Z</time>
      </trkpt>
      <trkpt lat="43.240609" lon="-4.993957">
        <ele>1413.616</ele>
        <time>2021-08-01T10:26:06Z</time>
      </trkpt>
      <trkpt lat="43.240563" lon="-4.993936">
        <ele>1414.273</ele>
        <time>2021-08-01T10:26:12Z</time>
      </trkpt>
      <trkpt lat="43.240516" lon="-4.993928">
        <ele>1415.328</ele>
        <time>2021-08-01T10:26:16Z</time>
      </trkpt>
      <trkpt lat="43.240471" lon="-4.993945">
        <ele>1416.098</ele>
        <time>2021-08-01T10:26:22Z</time>
      </trkpt>
      <trkpt lat="43.240432" lon="-4.993979">
        <ele>1416.848</ele>
        <time>2021-08-01T10:26:28Z</time>
      </trkpt>
      <trkpt lat="43.240388" lon="-4.993957">
        <ele>1417.261</ele>
        <time>2021-08-01T10:26:33Z</time>
      </trkpt>
      <trkpt lat="43.240338" lon="-4.993945">
        <ele>1418.017</ele>
        <time>2021-08-01T10:26:37Z</time>
      </trkpt>
      <trkpt lat="43.240291" lon="-4.993941">
        <ele>1418.908</ele>
        <time>2021-08-01T10:26:40Z</time>
      </trkpt>
      <trkpt lat="43.240247" lon="-4.993958">
        <ele>1419.591</ele>
        <time>2021-08-01T10:26:44Z</time>
      </trkpt>
      <trkpt lat="43.240227" lon="-4.994019">
        <ele>1419.843</ele>
        <time>2021-08-01T10:26:49Z</time>
      </trkpt>
      <trkpt lat="43.240174" lon="-4.994028">
        <ele>1421.192</ele>
        <time>2021-08-01T10:26:54Z</time>
      </trkpt>
      <trkpt lat="43.240134" lon="-4.993981">
        <ele>1421.314</ele>
        <time>2021-08-01T10:26:59Z</time>
      </trkpt>
      <trkpt lat="43.240112" lon="-4.99392">
        <ele>1422.088</ele>
        <time>2021-08-01T10:27:03Z</time>
      </trkpt>
      <trkpt lat="43.240066" lon="-4.993899">
        <ele>1422.155</ele>
        <time>2021-08-01T10:27:08Z</time>
      </trkpt>
      <trkpt lat="43.240023" lon="-4.993922">
        <ele>1423.040</ele>
        <time>2021-08-01T10:27:13Z</time>
      </trkpt>
      <trkpt lat="43.239981" lon="-4.993954">
        <ele>1423.190</ele>
        <time>2021-08-01T10:27:21Z</time>
      </trkpt>
      <trkpt lat="43.23994" lon="-4.993924">
        <ele>1423.568</ele>
        <time>2021-08-01T10:27:32Z</time>
      </trkpt>
      <trkpt lat="43.239888" lon="-4.99393">
        <ele>1423.842</ele>
        <time>2021-08-01T10:27:37Z</time>
      </trkpt>
      <trkpt lat="43.239844" lon="-4.993945">
        <ele>1423.926</ele>
        <time>2021-08-01T10:27:43Z</time>
      </trkpt>
      <trkpt lat="43.239802" lon="-4.99399">
        <ele>1424.808</ele>
        <time>2021-08-01T10:27:48Z</time>
      </trkpt>
      <trkpt lat="43.239759" lon="-4.993956">
        <ele>1425.323</ele>
        <time>2021-08-01T10:27:53Z</time>
      </trkpt>
      <trkpt lat="43.23972" lon="-4.99392">
        <ele>1425.425</ele>
        <time>2021-08-01T10:27:57Z</time>
      </trkpt>
      <trkpt lat="43.239677" lon="-4.993895">
        <ele>1426.654</ele>
        <time>2021-08-01T10:28:02Z</time>
      </trkpt>
      <trkpt lat="43.23963" lon="-4.993907">
        <ele>1426.876</ele>
        <time>2021-08-01T10:28:07Z</time>
      </trkpt>
      <trkpt lat="43.239586" lon="-4.993919">
        <ele>1427.950</ele>
        <time>2021-08-01T10:28:15Z</time>
      </trkpt>
      <trkpt lat="43.239552" lon="-4.993965">
        <ele>1428.697</ele>
        <time>2021-08-01T10:28:22Z</time>
      </trkpt>
      <trkpt lat="43.239527" lon="-4.994017">
        <ele>1429.012</ele>
        <time>2021-08-01T10:28:26Z</time>
      </trkpt>
      <trkpt lat="43.23948" lon="-4.994047">
        <ele>1430.162</ele>
        <time>2021-08-01T10:28:34Z</time>
      </trkpt>
      <trkpt lat="43.239439" lon="-4.994092">
        <ele>1431.318</ele>
        <time>2021-08-01T10:28:40Z</time>
      </trkpt>
      <trkpt lat="43.239449" lon="-4.99403">
        <ele>1432.098</ele>
        <time>2021-08-01T10:28:55Z</time>
      </trkpt>
      <trkpt lat="43.2394" lon="-4.994022">
        <ele>1433.117</ele>
        <time>2021-08-01T10:29:04Z</time>
      </trkpt>
      <trkpt lat="43.239384" lon="-4.994088">
        <ele>1434.008</ele>
        <time>2021-08-01T10:29:08Z</time>
      </trkpt>
      <trkpt lat="43.23935" lon="-4.994134">
        <ele>1434.848</ele>
        <time>2021-08-01T10:29:13Z</time>
      </trkpt>
      <trkpt lat="43.239305" lon="-4.994127">
        <ele>1435.970</ele>
        <time>2021-08-01T10:29:26Z</time>
      </trkpt>
      <trkpt lat="43.239258" lon="-4.994153">
        <ele>1437.149</ele>
        <time>2021-08-01T10:29:31Z</time>
      </trkpt>
      <trkpt lat="43.239206" lon="-4.994156">
        <ele>1437.791</ele>
        <time>2021-08-01T10:29:35Z</time>
      </trkpt>
      <trkpt lat="43.239162" lon="-4.994135">
        <ele>1438.895</ele>
        <time>2021-08-01T10:29:41Z</time>
      </trkpt>
      <trkpt lat="43.239122" lon="-4.994105">
        <ele>1439.522</ele>
        <time>2021-08-01T10:29:56Z</time>
      </trkpt>
      <trkpt lat="43.239146" lon="-4.994051">
        <ele>1440.577</ele>
        <time>2021-08-01T10:30:13Z</time>
      </trkpt>
      <trkpt lat="43.239099" lon="-4.994016">
        <ele>1440.367</ele>
        <time>2021-08-01T10:30:20Z</time>
      </trkpt>
      <trkpt lat="43.239046" lon="-4.994022">
        <ele>1440.429</ele>
        <time>2021-08-01T10:30:24Z</time>
      </trkpt>
      <trkpt lat="43.238996" lon="-4.994031">
        <ele>1440.400</ele>
        <time>2021-08-01T10:30:28Z</time>
      </trkpt>
      <trkpt lat="43.238949" lon="-4.994067">
        <ele>1440.820</ele>
        <time>2021-08-01T10:30:32Z</time>
      </trkpt>
      <trkpt lat="43.238925" lon="-4.994128">
        <ele>1440.608</ele>
        <time>2021-08-01T10:30:38Z</time>
      </trkpt>
      <trkpt lat="43.23893" lon="-4.994065">
        <ele>1441.579</ele>
        <time>2021-08-01T10:30:52Z</time>
      </trkpt>
      <trkpt lat="43.238934" lon="-4.993995">
        <ele>1442.091</ele>
        <time>2021-08-01T10:31:19Z</time>
      </trkpt>
      <trkpt lat="43.238934" lon="-4.993932">
        <ele>1442.020</ele>
        <time>2021-08-01T10:31:27Z</time>
      </trkpt>
      <trkpt lat="43.238906" lon="-4.993883">
        <ele>1443.522</ele>
        <time>2021-08-01T10:31:51Z</time>
      </trkpt>
      <trkpt lat="43.238864" lon="-4.99386">
        <ele>1444.356</ele>
        <time>2021-08-01T10:32:01Z</time>
      </trkpt>
      <trkpt lat="43.238815" lon="-4.993832">
        <ele>1444.843</ele>
        <time>2021-08-01T10:32:05Z</time>
      </trkpt>
      <trkpt lat="43.238773" lon="-4.993797">
        <ele>1445.628</ele>
        <time>2021-08-01T10:32:11Z</time>
      </trkpt>
      <trkpt lat="43.238768" lon="-4.993727">
        <ele>1449.148</ele>
        <time>2021-08-01T10:33:23Z</time>
      </trkpt>
      <trkpt lat="43.238728" lon="-4.993684">
        <ele>1451.964</ele>
        <time>2021-08-01T10:33:27Z</time>
      </trkpt>
      <trkpt lat="43.238679" lon="-4.993682">
        <ele>1453.306</ele>
        <time>2021-08-01T10:33:31Z</time>
      </trkpt>
      <trkpt lat="43.238628" lon="-4.993683">
        <ele>1454.016</ele>
        <time>2021-08-01T10:33:34Z</time>
      </trkpt>
      <trkpt lat="43.238582" lon="-4.993666">
        <ele>1454.608</ele>
        <time>2021-08-01T10:33:39Z</time>
      </trkpt>
      <trkpt lat="43.23854" lon="-4.993629">
        <ele>1455.563</ele>
        <time>2021-08-01T10:33:41Z</time>
      </trkpt>
      <trkpt lat="43.238494" lon="-4.993635">
        <ele>1456.045</ele>
        <time>2021-08-01T10:33:44Z</time>
      </trkpt>
      <trkpt lat="43.238453" lon="-4.993669">
        <ele>1456.254</ele>
        <time>2021-08-01T10:33:48Z</time>
      </trkpt>
      <trkpt lat="43.238412" lon="-4.993633">
        <ele>1456.626</ele>
        <time>2021-08-01T10:33:55Z</time>
      </trkpt>
      <trkpt lat="43.238376" lon="-4.993592">
        <ele>1457.490</ele>
        <time>2021-08-01T10:34:06Z</time>
      </trkpt>
      <trkpt lat="43.238345" lon="-4.99354">
        <ele>1458.237</ele>
        <time>2021-08-01T10:34:12Z</time>
      </trkpt>
      <trkpt lat="43.238296" lon="-4.993519">
        <ele>1458.592</ele>
        <time>2021-08-01T10:34:17Z</time>
      </trkpt>
      <trkpt lat="43.23825" lon="-4.993511">
        <ele>1458.722</ele>
        <time>2021-08-01T10:34:21Z</time>
      </trkpt>
      <trkpt lat="43.238198" lon="-4.9935">
        <ele>1459.149</ele>
        <time>2021-08-01T10:34:25Z</time>
      </trkpt>
      <trkpt lat="43.238153" lon="-4.993514">
        <ele>1459.802</ele>
        <time>2021-08-01T10:34:29Z</time>
      </trkpt>
      <trkpt lat="43.238121" lon="-4.993559">
        <ele>1460.322</ele>
        <time>2021-08-01T10:34:33Z</time>
      </trkpt>
      <trkpt lat="43.238083" lon="-4.993599">
        <ele>1461.508</ele>
        <time>2021-08-01T10:34:50Z</time>
      </trkpt>
      <trkpt lat="43.238056" lon="-4.993532">
        <ele>1462.891</ele>
        <time>2021-08-01T10:35:13Z</time>
      </trkpt>
      <trkpt lat="43.238005" lon="-4.993518">
        <ele>1464.833</ele>
        <time>2021-08-01T10:35:18Z</time>
      </trkpt>
      <trkpt lat="43.237956" lon="-4.993543">
        <ele>1465.582</ele>
        <time>2021-08-01T10:35:23Z</time>
      </trkpt>
      <trkpt lat="43.237905" lon="-4.993556">
        <ele>1466.834</ele>
        <time>2021-08-01T10:35:28Z</time>
      </trkpt>
      <trkpt lat="43.237881" lon="-4.993497">
        <ele>1467.398</ele>
        <time>2021-08-01T10:35:54Z</time>
      </trkpt>
      <trkpt lat="43.237833" lon="-4.993496">
        <ele>1468.745</ele>
        <time>2021-08-01T10:36:07Z</time>
      </trkpt>
      <trkpt lat="43.237783" lon="-4.993503">
        <ele>1469.520</ele>
        <time>2021-08-01T10:36:12Z</time>
      </trkpt>
      <trkpt lat="43.237738" lon="-4.99348">
        <ele>1470.340</ele>
        <time>2021-08-01T10:36:27Z</time>
      </trkpt>
      <trkpt lat="43.237692" lon="-4.993449">
        <ele>1470.535</ele>
        <time>2021-08-01T10:36:31Z</time>
      </trkpt>
      <trkpt lat="43.237639" lon="-4.993427">
        <ele>1470.986</ele>
        <time>2021-08-01T10:36:36Z</time>
      </trkpt>
      <trkpt lat="43.237586" lon="-4.993414">
        <ele>1471.414</ele>
        <time>2021-08-01T10:36:40Z</time>
      </trkpt>
      <trkpt lat="43.237538" lon="-4.993408">
        <ele>1471.808</ele>
        <time>2021-08-01T10:36:45Z</time>
      </trkpt>
      <trkpt lat="43.237496" lon="-4.993386">
        <ele>1472.390</ele>
        <time>2021-08-01T10:36:48Z</time>
      </trkpt>
      <trkpt lat="43.237452" lon="-4.993352">
        <ele>1472.492</ele>
        <time>2021-08-01T10:36:52Z</time>
      </trkpt>
      <trkpt lat="43.237406" lon="-4.993325">
        <ele>1472.931</ele>
        <time>2021-08-01T10:36:56Z</time>
      </trkpt>
      <trkpt lat="43.23737" lon="-4.99326">
        <ele>1472.653</ele>
        <time>2021-08-01T10:37:24Z</time>
      </trkpt>
      <trkpt lat="43.237386" lon="-4.993197">
        <ele>1472.187</ele>
        <time>2021-08-01T10:37:34Z</time>
      </trkpt>
      <trkpt lat="43.237339" lon="-4.993162">
        <ele>1472.374</ele>
        <time>2021-08-01T10:37:39Z</time>
      </trkpt>
      <trkpt lat="43.237293" lon="-4.993155">
        <ele>1472.319</ele>
        <time>2021-08-01T10:37:48Z</time>
      </trkpt>
      <trkpt lat="43.237258" lon="-4.993109">
        <ele>1473.259</ele>
        <time>2021-08-01T10:38:18Z</time>
      </trkpt>
      <trkpt lat="43.237247" lon="-4.993044">
        <ele>1473.313</ele>
        <time>2021-08-01T10:38:23Z</time>
      </trkpt>
      <trkpt lat="43.237214" lon="-4.992993">
        <ele>1472.943</ele>
        <time>2021-08-01T10:38:29Z</time>
      </trkpt>
      <trkpt lat="43.237171" lon="-4.992955">
        <ele>1473.607</ele>
        <time>2021-08-01T10:38:33Z</time>
      </trkpt>
      <trkpt lat="43.237125" lon="-4.992932">
        <ele>1473.408</ele>
        <time>2021-08-01T10:38:37Z</time>
      </trkpt>
      <trkpt lat="43.237072" lon="-4.992906">
        <ele>1473.658</ele>
        <time>2021-08-01T10:38:42Z</time>
      </trkpt>
      <trkpt lat="43.237018" lon="-4.992876">
        <ele>1473.810</ele>
        <time>2021-08-01T10:38:46Z</time>
      </trkpt>
      <trkpt lat="43.236981" lon="-4.992826">
        <ele>1473.889</ele>
        <time>2021-08-01T10:38:49Z</time>
      </trkpt>
      <trkpt lat="43.236935" lon="-4.992803">
        <ele>1474.081</ele>
        <time>2021-08-01T10:38:56Z</time>
      </trkpt>
      <trkpt lat="43.23689" lon="-4.992774">
        <ele>1473.515</ele>
        <time>2021-08-01T10:39:02Z</time>
      </trkpt>
      <trkpt lat="43.236854" lon="-4.992723">
        <ele>1473.492</ele>
        <time>2021-08-01T10:39:10Z</time>
      </trkpt>
      <trkpt lat="43.236821" lon="-4.992677">
        <ele>1473.247</ele>
        <time>2021-08-01T10:39:15Z</time>
      </trkpt>
      <trkpt lat="43.23678" lon="-4.992651">
        <ele>1472.737</ele>
        <time>2021-08-01T10:39:20Z</time>
      </trkpt>
      <trkpt lat="43.236732" lon="-4.992644">
        <ele>1473.442</ele>
        <time>2021-08-01T10:39:28Z</time>
      </trkpt>
      <trkpt lat="43.236685" lon="-4.992683">
        <ele>1474.122</ele>
        <time>2021-08-01T10:40:00Z</time>
      </trkpt>
      <trkpt lat="43.23664" lon="-4.992679">
        <ele>1474.114</ele>
        <time>2021-08-01T10:40:06Z</time>
      </trkpt>
      <trkpt lat="43.236594" lon="-4.992689">
        <ele>1474.408</ele>
        <time>2021-08-01T10:40:13Z</time>
      </trkpt>
      <trkpt lat="43.236551" lon="-4.992713">
        <ele>1473.761</ele>
        <time>2021-08-01T10:40:27Z</time>
      </trkpt>
      <trkpt lat="43.236503" lon="-4.992709">
        <ele>1472.943</ele>
        <time>2021-08-01T10:40:31Z</time>
      </trkpt>
      <trkpt lat="43.236462" lon="-4.992677">
        <ele>1472.682</ele>
        <time>2021-08-01T10:40:38Z</time>
      </trkpt>
      <trkpt lat="43.236417" lon="-4.992685">
        <ele>1472.534</ele>
        <time>2021-08-01T10:40:46Z</time>
      </trkpt>
      <trkpt lat="43.236431" lon="-4.992619">
        <ele>1472.178</ele>
        <time>2021-08-01T10:40:48Z</time>
      </trkpt>
      <trkpt lat="43.236413" lon="-4.992561">
        <ele>1471.795</ele>
        <time>2021-08-01T10:40:54Z</time>
      </trkpt>
      <trkpt lat="43.236366" lon="-4.992544">
        <ele>1471.240</ele>
        <time>2021-08-01T10:41:06Z</time>
      </trkpt>
      <trkpt lat="43.236313" lon="-4.992536">
        <ele>1470.170</ele>
        <time>2021-08-01T10:41:11Z</time>
      </trkpt>
      <trkpt lat="43.236277" lon="-4.992492">
        <ele>1469.352</ele>
        <time>2021-08-01T10:41:15Z</time>
      </trkpt>
      <trkpt lat="43.236223" lon="-4.992472">
        <ele>1469.353</ele>
        <time>2021-08-01T10:41:19Z</time>
      </trkpt>
      <trkpt lat="43.236178" lon="-4.992488">
        <ele>1469.008</ele>
        <time>2021-08-01T10:41:23Z</time>
      </trkpt>
      <trkpt lat="43.236138" lon="-4.992519">
        <ele>1468.808</ele>
        <time>2021-08-01T10:41:27Z</time>
      </trkpt>
      <trkpt lat="43.236098" lon="-4.992487">
        <ele>1467.362</ele>
        <time>2021-08-01T10:41:31Z</time>
      </trkpt>
      <trkpt lat="43.236059" lon="-4.992453">
        <ele>1467.654</ele>
        <time>2021-08-01T10:41:35Z</time>
      </trkpt>
      <trkpt lat="43.236007" lon="-4.99246">
        <ele>1466.913</ele>
        <time>2021-08-01T10:41:40Z</time>
      </trkpt>
      <trkpt lat="43.235958" lon="-4.992443">
        <ele>1466.515</ele>
        <time>2021-08-01T10:41:47Z</time>
      </trkpt>
      <trkpt lat="43.235918" lon="-4.992414">
        <ele>1466.499</ele>
        <time>2021-08-01T10:41:53Z</time>
      </trkpt>
      <trkpt lat="43.235868" lon="-4.992409">
        <ele>1465.326</ele>
        <time>2021-08-01T10:42:00Z</time>
      </trkpt>
      <trkpt lat="43.235826" lon="-4.992437">
        <ele>1464.831</ele>
        <time>2021-08-01T10:42:04Z</time>
      </trkpt>
      <trkpt lat="43.235779" lon="-4.992441">
        <ele>1464.231</ele>
        <time>2021-08-01T10:42:08Z</time>
      </trkpt>
      <trkpt lat="43.235731" lon="-4.992437">
        <ele>1463.589</ele>
        <time>2021-08-01T10:42:16Z</time>
      </trkpt>
      <trkpt lat="43.235769" lon="-4.992382">
        <ele>1462.606</ele>
        <time>2021-08-01T10:42:20Z</time>
      </trkpt>
      <trkpt lat="43.235749" lon="-4.992321">
        <ele>1462.026</ele>
        <time>2021-08-01T10:42:27Z</time>
      </trkpt>
      <trkpt lat="43.235695" lon="-4.992304">
        <ele>1461.708</ele>
        <time>2021-08-01T10:42:37Z</time>
      </trkpt>
      <trkpt lat="43.235653" lon="-4.992278">
        <ele>1460.785</ele>
        <time>2021-08-01T10:42:43Z</time>
      </trkpt>
      <trkpt lat="43.235615" lon="-4.992243">
        <ele>1461.137</ele>
        <time>2021-08-01T10:42:48Z</time>
      </trkpt>
      <trkpt lat="43.235567" lon="-4.99222">
        <ele>1460.986</ele>
        <time>2021-08-01T10:42:51Z</time>
      </trkpt>
      <trkpt lat="43.235513" lon="-4.992215">
        <ele>1461.268</ele>
        <time>2021-08-01T10:42:54Z</time>
      </trkpt>
      <trkpt lat="43.235469" lon="-4.992199">
        <ele>1461.392</ele>
        <time>2021-08-01T10:42:59Z</time>
      </trkpt>
      <trkpt lat="43.235427" lon="-4.992178">
        <ele>1461.429</ele>
        <time>2021-08-01T10:43:04Z</time>
      </trkpt>
      <trkpt lat="43.235381" lon="-4.992171">
        <ele>1461.074</ele>
        <time>2021-08-01T10:43:09Z</time>
      </trkpt>
      <trkpt lat="43.235335" lon="-4.992183">
        <ele>1460.524</ele>
        <time>2021-08-01T10:43:14Z</time>
      </trkpt>
      <trkpt lat="43.23528" lon="-4.992189">
        <ele>1460.598</ele>
        <time>2021-08-01T10:43:18Z</time>
      </trkpt>
      <trkpt lat="43.235261" lon="-4.992246">
        <ele>1461.015</ele>
        <time>2021-08-01T10:43:26Z</time>
      </trkpt>
      <trkpt lat="43.235251" lon="-4.99231">
        <ele>1461.226</ele>
        <time>2021-08-01T10:43:33Z</time>
      </trkpt>
      <trkpt lat="43.235202" lon="-4.992298">
        <ele>1460.708</ele>
        <time>2021-08-01T10:43:44Z</time>
      </trkpt>
      <trkpt lat="43.235157" lon="-4.992298">
        <ele>1460.956</ele>
        <time>2021-08-01T10:43:48Z</time>
      </trkpt>
      <trkpt lat="43.235139" lon="-4.99224">
        <ele>1460.778</ele>
        <time>2021-08-01T10:43:53Z</time>
      </trkpt>
      <trkpt lat="43.235089" lon="-4.992248">
        <ele>1461.177</ele>
        <time>2021-08-01T10:44:03Z</time>
      </trkpt>
      <trkpt lat="43.235038" lon="-4.992258">
        <ele>1460.979</ele>
        <time>2021-08-01T10:44:12Z</time>
      </trkpt>
      <trkpt lat="43.234989" lon="-4.99226">
        <ele>1460.233</ele>
        <time>2021-08-01T10:44:22Z</time>
      </trkpt>
      <trkpt lat="43.234938" lon="-4.992268">
        <ele>1460.380</ele>
        <time>2021-08-01T10:44:27Z</time>
      </trkpt>
      <trkpt lat="43.234891" lon="-4.992251">
        <ele>1460.755</ele>
        <time>2021-08-01T10:44:34Z</time>
      </trkpt>
      <trkpt lat="43.234841" lon="-4.992264">
        <ele>1461.085</ele>
        <time>2021-08-01T10:44:39Z</time>
      </trkpt>
      <trkpt lat="43.234792" lon="-4.992281">
        <ele>1461.563</ele>
        <time>2021-08-01T10:44:43Z</time>
      </trkpt>
      <trkpt lat="43.234742" lon="-4.992275">
        <ele>1461.644</ele>
        <time>2021-08-01T10:44:48Z</time>
      </trkpt>
      <trkpt lat="43.234699" lon="-4.99224">
        <ele>1461.118</ele>
        <time>2021-08-01T10:44:53Z</time>
      </trkpt>
      <trkpt lat="43.234655" lon="-4.992219">
        <ele>1461.608</ele>
        <time>2021-08-01T10:45:00Z</time>
      </trkpt>
      <trkpt lat="43.234607" lon="-4.992225">
        <ele>1461.693</ele>
        <time>2021-08-01T10:45:19Z</time>
      </trkpt>
      <trkpt lat="43.234558" lon="-4.992252">
        <ele>1462.695</ele>
        <time>2021-08-01T10:45:23Z</time>
      </trkpt>
      <trkpt lat="43.234511" lon="-4.992259">
        <ele>1463.134</ele>
        <time>2021-08-01T10:45:35Z</time>
      </trkpt>
      <trkpt lat="43.234466" lon="-4.99226">
        <ele>1463.256</ele>
        <time>2021-08-01T10:45:41Z</time>
      </trkpt>
      <trkpt lat="43.234418" lon="-4.992261">
        <ele>1464.270</ele>
        <time>2021-08-01T10:45:50Z</time>
      </trkpt>
      <trkpt lat="43.234373" lon="-4.99224">
        <ele>1465.087</ele>
        <time>2021-08-01T10:45:55Z</time>
      </trkpt>
      <trkpt lat="43.234386" lon="-4.99218">
        <ele>1465.712</ele>
        <time>2021-08-01T10:46:13Z</time>
      </trkpt>
      <trkpt lat="43.234363" lon="-4.992118">
        <ele>1466.112</ele>
        <time>2021-08-01T10:46:18Z</time>
      </trkpt>
      <trkpt lat="43.234336" lon="-4.992167">
        <ele>1468.568</ele>
        <time>2021-08-01T10:48:58Z</time>
      </trkpt>
      <trkpt lat="43.234382" lon="-4.992166">
        <ele>1469.842</ele>
        <time>2021-08-01T10:49:09Z</time>
      </trkpt>
      <trkpt lat="43.234331" lon="-4.992138">
        <ele>1471.826</ele>
        <time>2021-08-01T10:49:27Z</time>
      </trkpt>
      <trkpt lat="43.234287" lon="-4.992121">
        <ele>1473.108</ele>
        <time>2021-08-01T10:49:31Z</time>
      </trkpt>
      <trkpt lat="43.234246" lon="-4.992162">
        <ele>1473.693</ele>
        <time>2021-08-01T10:49:41Z</time>
      </trkpt>
      <trkpt lat="43.234206" lon="-4.992133">
        <ele>1474.955</ele>
        <time>2021-08-01T10:49:46Z</time>
      </trkpt>
      <trkpt lat="43.234169" lon="-4.992096">
        <ele>1475.364</ele>
        <time>2021-08-01T10:49:52Z</time>
      </trkpt>
      <trkpt lat="43.234125" lon="-4.992126">
        <ele>1475.526</ele>
        <time>2021-08-01T10:49:58Z</time>
      </trkpt>
      <trkpt lat="43.234073" lon="-4.99214">
        <ele>1475.540</ele>
        <time>2021-08-01T10:50:03Z</time>
      </trkpt>
      <trkpt lat="43.234027" lon="-4.992141">
        <ele>1475.837</ele>
        <time>2021-08-01T10:50:07Z</time>
      </trkpt>
      <trkpt lat="43.233977" lon="-4.992132">
        <ele>1476.542</ele>
        <time>2021-08-01T10:50:12Z</time>
      </trkpt>
      <trkpt lat="43.233932" lon="-4.992119">
        <ele>1476.862</ele>
        <time>2021-08-01T10:50:16Z</time>
      </trkpt>
      <trkpt lat="43.233881" lon="-4.992115">
        <ele>1476.762</ele>
        <time>2021-08-01T10:50:20Z</time>
      </trkpt>
      <trkpt lat="43.23384" lon="-4.992148">
        <ele>1476.383</ele>
        <time>2021-08-01T10:50:25Z</time>
      </trkpt>
      <trkpt lat="43.233807" lon="-4.992204">
        <ele>1476.711</ele>
        <time>2021-08-01T10:50:29Z</time>
      </trkpt>
      <trkpt lat="43.233775" lon="-4.992256">
        <ele>1476.608</ele>
        <time>2021-08-01T10:50:33Z</time>
      </trkpt>
      <trkpt lat="43.233761" lon="-4.992327">
        <ele>1476.913</ele>
        <time>2021-08-01T10:50:38Z</time>
      </trkpt>
      <trkpt lat="43.233752" lon="-4.992398">
        <ele>1477.985</ele>
        <time>2021-08-01T10:50:43Z</time>
      </trkpt>
      <trkpt lat="43.233718" lon="-4.992449">
        <ele>1478.064</ele>
        <time>2021-08-01T10:50:55Z</time>
      </trkpt>
      <trkpt lat="43.233741" lon="-4.992512">
        <ele>1477.876</ele>
        <time>2021-08-01T10:51:11Z</time>
      </trkpt>
      <trkpt lat="43.233789" lon="-4.992544">
        <ele>1477.560</ele>
        <time>2021-08-01T10:51:13Z</time>
      </trkpt>
      <trkpt lat="43.233834" lon="-4.992557">
        <ele>1477.297</ele>
        <time>2021-08-01T10:51:16Z</time>
      </trkpt>
      <trkpt lat="43.233882" lon="-4.992553">
        <ele>1477.262</ele>
        <time>2021-08-01T10:51:28Z</time>
      </trkpt>
      <trkpt lat="43.233928" lon="-4.992558">
        <ele>1476.832</ele>
        <time>2021-08-01T10:51:34Z</time>
      </trkpt>
      <trkpt lat="43.233968" lon="-4.992525">
        <ele>1476.329</ele>
        <time>2021-08-01T10:51:39Z</time>
      </trkpt>
      <trkpt lat="43.234018" lon="-4.992518">
        <ele>1476.600</ele>
        <time>2021-08-01T10:51:44Z</time>
      </trkpt>
      <trkpt lat="43.234069" lon="-4.992506">
        <ele>1476.120</ele>
        <time>2021-08-01T10:51:48Z</time>
      </trkpt>
      <trkpt lat="43.234119" lon="-4.992514">
        <ele>1476.008</ele>
        <time>2021-08-01T10:51:52Z</time>
      </trkpt>
      <trkpt lat="43.234171" lon="-4.992515">
        <ele>1475.269</ele>
        <time>2021-08-01T10:51:55Z</time>
      </trkpt>
      <trkpt lat="43.234218" lon="-4.992516">
        <ele>1475.161</ele>
        <time>2021-08-01T10:52:02Z</time>
      </trkpt>
      <trkpt lat="43.234265" lon="-4.992509">
        <ele>1474.680</ele>
        <time>2021-08-01T10:52:34Z</time>
      </trkpt>
      <trkpt lat="43.234305" lon="-4.992538">
        <ele>1474.012</ele>
        <time>2021-08-01T10:52:49Z</time>
      </trkpt>
      <trkpt lat="43.234349" lon="-4.992522">
        <ele>1473.386</ele>
        <time>2021-08-01T10:52:56Z</time>
      </trkpt>
      <trkpt lat="43.234381" lon="-4.992573">
        <ele>1472.263</ele>
        <time>2021-08-01T10:53:02Z</time>
      </trkpt>
      <trkpt lat="43.234394" lon="-4.992507">
        <ele>1471.828</ele>
        <time>2021-08-01T10:53:08Z</time>
      </trkpt>
      <trkpt lat="43.234412" lon="-4.992565">
        <ele>1471.198</ele>
        <time>2021-08-01T10:53:19Z</time>
      </trkpt>
      <trkpt lat="43.234437" lon="-4.992618">
        <ele>1470.549</ele>
        <time>2021-08-01T10:53:22Z</time>
      </trkpt>
      <trkpt lat="43.234454" lon="-4.992679">
        <ele>1469.702</ele>
        <time>2021-08-01T10:53:25Z</time>
      </trkpt>
      <trkpt lat="43.234496" lon="-4.992707">
        <ele>1469.522</ele>
        <time>2021-08-01T10:53:29Z</time>
      </trkpt>
      <trkpt lat="43.234554" lon="-4.99273">
        <ele>1469.008</ele>
        <time>2021-08-01T10:53:33Z</time>
      </trkpt>
      <trkpt lat="43.234539" lon="-4.992799">
        <ele>1468.421</ele>
        <time>2021-08-01T10:53:37Z</time>
      </trkpt>
      <trkpt lat="43.23457" lon="-4.992851">
        <ele>1467.353</ele>
        <time>2021-08-01T10:53:47Z</time>
      </trkpt>
      <trkpt lat="43.234597" lon="-4.992912">
        <ele>1467.052</ele>
        <time>2021-08-01T10:53:51Z</time>
      </trkpt>
      <trkpt lat="43.2346" lon="-4.992984">
        <ele>1466.644</ele>
        <time>2021-08-01T10:53:55Z</time>
      </trkpt>
      <trkpt lat="43.234655" lon="-4.992952">
        <ele>1466.558</ele>
        <time>2021-08-01T10:54:04Z</time>
      </trkpt>
      <trkpt lat="43.234697" lon="-4.992924">
        <ele>1466.815</ele>
        <time>2021-08-01T10:54:07Z</time>
      </trkpt>
      <trkpt lat="43.234714" lon="-4.992851">
        <ele>1467.320</ele>
        <time>2021-08-01T10:54:10Z</time>
      </trkpt>
      <trkpt lat="43.234727" lon="-4.992771">
        <ele>1466.970</ele>
        <time>2021-08-01T10:54:14Z</time>
      </trkpt>
      <trkpt lat="43.234774" lon="-4.992818">
        <ele>1466.284</ele>
        <time>2021-08-01T10:54:33Z</time>
      </trkpt>
      <trkpt lat="43.234725" lon="-4.992823">
        <ele>1465.307</ele>
        <time>2021-08-01T10:54:40Z</time>
      </trkpt>
      <trkpt lat="43.234699" lon="-4.992874">
        <ele>1465.517</ele>
        <time>2021-08-01T10:54:45Z</time>
      </trkpt>
      <trkpt lat="43.23471" lon="-4.992945">
        <ele>1464.908</ele>
        <time>2021-08-01T10:55:31Z</time>
      </trkpt>
      <trkpt lat="43.234736" lon="-4.992892">
        <ele>1464.765</ele>
        <time>2021-08-01T10:55:43Z</time>
      </trkpt>
      <trkpt lat="43.234728" lon="-4.992957">
        <ele>1464.417</ele>
        <time>2021-08-01T10:56:15Z</time>
      </trkpt>
      <trkpt lat="43.234678" lon="-4.992953">
        <ele>1464.046</ele>
        <time>2021-08-01T10:56:18Z</time>
      </trkpt>
      <trkpt lat="43.234633" lon="-4.992921">
        <ele>1464.068</ele>
        <time>2021-08-01T10:56:22Z</time>
      </trkpt>
      <trkpt lat="43.234584" lon="-4.992907">
        <ele>1464.392</ele>
        <time>2021-08-01T10:56:26Z</time>
      </trkpt>
      <trkpt lat="43.234537" lon="-4.99291">
        <ele>1464.179</ele>
        <time>2021-08-01T10:56:29Z</time>
      </trkpt>
      <trkpt lat="43.234489" lon="-4.992908">
        <ele>1463.734</ele>
        <time>2021-08-01T10:56:33Z</time>
      </trkpt>
      <trkpt lat="43.234444" lon="-4.992905">
        <ele>1464.154</ele>
        <time>2021-08-01T10:56:37Z</time>
      </trkpt>
      <trkpt lat="43.234418" lon="-4.992849">
        <ele>1463.877</ele>
        <time>2021-08-01T10:57:43Z</time>
      </trkpt>
      <trkpt lat="43.2345" lon="-4.992867">
        <ele>1464.861</ele>
        <time>2021-08-01T10:58:46Z</time>
      </trkpt>
      <trkpt lat="43.234562" lon="-4.992873">
        <ele>1465.427</ele>
        <time>2021-08-01T10:58:47Z</time>
      </trkpt>
      <trkpt lat="43.234619" lon="-4.99286">
        <ele>1465.008</ele>
        <time>2021-08-01T10:59:03Z</time>
      </trkpt>
      <trkpt lat="43.234656" lon="-4.99282">
        <ele>1465.924</ele>
        <time>2021-08-01T10:59:05Z</time>
      </trkpt>
      <trkpt lat="43.234714" lon="-4.992816">
        <ele>1466.226</ele>
        <time>2021-08-01T10:59:08Z</time>
      </trkpt>
      <trkpt lat="43.234689" lon="-4.992872">
        <ele>1468.975</ele>
        <time>2021-08-01T10:59:25Z</time>
      </trkpt>
      <trkpt lat="43.234643" lon="-4.992871">
        <ele>1469.757</ele>
        <time>2021-08-01T10:59:28Z</time>
      </trkpt>
      <trkpt lat="43.234575" lon="-4.992874">
        <ele>1470.821</ele>
        <time>2021-08-01T10:59:30Z</time>
      </trkpt>
      <trkpt lat="43.23452" lon="-4.992861">
        <ele>1471.568</ele>
        <time>2021-08-01T10:59:57Z</time>
      </trkpt>
      <trkpt lat="43.234471" lon="-4.992857">
        <ele>1472.263</ele>
        <time>2021-08-01T11:00:06Z</time>
      </trkpt>
      <trkpt lat="43.234411" lon="-4.992887">
        <ele>1472.683</ele>
        <time>2021-08-01T11:05:03Z</time>
      </trkpt>
      <trkpt lat="43.234442" lon="-4.992839">
        <ele>1472.884</ele>
        <time>2021-08-01T11:07:19Z</time>
      </trkpt>
      <trkpt lat="43.234485" lon="-4.992859">
        <ele>1472.907</ele>
        <time>2021-08-01T11:07:39Z</time>
      </trkpt>
      <trkpt lat="43.234539" lon="-4.992865">
        <ele>1473.017</ele>
        <time>2021-08-01T11:07:41Z</time>
      </trkpt>
      <trkpt lat="43.234587" lon="-4.992868">
        <ele>1473.108</ele>
        <time>2021-08-01T11:07:43Z</time>
      </trkpt>
      <trkpt lat="43.234545" lon="-4.992905">
        <ele>1473.115</ele>
        <time>2021-08-01T11:08:15Z</time>
      </trkpt>
      <trkpt lat="43.234502" lon="-4.992876">
        <ele>1469.117</ele>
        <time>2021-08-01T11:08:30Z</time>
      </trkpt>
      <trkpt lat="43.23445" lon="-4.992877">
        <ele>1465.166</ele>
        <time>2021-08-01T11:08:43Z</time>
      </trkpt>
      <trkpt lat="43.234406" lon="-4.992858">
        <ele>1461.178</ele>
        <time>2021-08-01T11:08:50Z</time>
      </trkpt>
      <trkpt lat="43.234412" lon="-4.992922">
        <ele>1458.142</ele>
        <time>2021-08-01T11:10:00Z</time>
      </trkpt>
      <trkpt lat="43.234452" lon="-4.992892">
        <ele>1456.289</ele>
        <time>2021-08-01T11:11:27Z</time>
      </trkpt>
      <trkpt lat="43.234496" lon="-4.992882">
        <ele>1455.044</ele>
        <time>2021-08-01T11:11:34Z</time>
      </trkpt>
      <trkpt lat="43.234472" lon="-4.992827">
        <ele>1454.324</ele>
        <time>2021-08-01T11:12:25Z</time>
      </trkpt>
      <trkpt lat="43.234411" lon="-4.992843">
        <ele>1453.875</ele>
        <time>2021-08-01T11:13:14Z</time>
      </trkpt>
      <trkpt lat="43.234382" lon="-4.992897">
        <ele>1453.528</ele>
        <time>2021-08-01T11:13:17Z</time>
      </trkpt>
      <trkpt lat="43.234447" lon="-4.992862">
        <ele>1456.520</ele>
        <time>2021-08-01T11:15:34Z</time>
      </trkpt>
      <trkpt lat="43.234494" lon="-4.992854">
        <ele>1458.308</ele>
        <time>2021-08-01T11:15:36Z</time>
      </trkpt>
      <trkpt lat="43.234439" lon="-4.992874">
        <ele>1459.524</ele>
        <time>2021-08-01T11:16:04Z</time>
      </trkpt>
      <trkpt lat="43.23438" lon="-4.992881">
        <ele>1460.256</ele>
        <time>2021-08-01T11:16:07Z</time>
      </trkpt>
      <trkpt lat="43.234439" lon="-4.992862">
        <ele>1460.535</ele>
        <time>2021-08-01T11:17:31Z</time>
      </trkpt>
      <trkpt lat="43.234394" lon="-4.99285">
        <ele>1460.617</ele>
        <time>2021-08-01T11:20:48Z</time>
      </trkpt>
      <trkpt lat="43.234386" lon="-4.992912">
        <ele>1460.761</ele>
        <time>2021-08-01T11:21:40Z</time>
      </trkpt>
      <trkpt lat="43.234341" lon="-4.992932">
        <ele>1460.798</ele>
        <time>2021-08-01T11:23:30Z</time>
      </trkpt>
      <trkpt lat="43.234299" lon="-4.992907">
        <ele>1460.733</ele>
        <time>2021-08-01T11:23:39Z</time>
      </trkpt>
      <trkpt lat="43.234334" lon="-4.992864">
        <ele>1460.633</ele>
        <time>2021-08-01T11:26:30Z</time>
      </trkpt>
      <trkpt lat="43.234386" lon="-4.992875">
        <ele>1460.616</ele>
        <time>2021-08-01T11:26:39Z</time>
      </trkpt>
      <trkpt lat="43.2344" lon="-4.992942">
        <ele>1460.676</ele>
        <time>2021-08-01T11:26:44Z</time>
      </trkpt>
      <trkpt lat="43.234383" lon="-4.993001">
        <ele>1460.613</ele>
        <time>2021-08-01T11:26:54Z</time>
      </trkpt>
      <trkpt lat="43.234339" lon="-4.992983">
        <ele>1460.508</ele>
        <time>2021-08-01T11:27:18Z</time>
      </trkpt>
      <trkpt lat="43.234294" lon="-4.99298">
        <ele>1460.528</ele>
        <time>2021-08-01T11:27:27Z</time>
      </trkpt>
      <trkpt lat="43.234253" lon="-4.992941">
        <ele>1460.570</ele>
        <time>2021-08-01T11:27:40Z</time>
      </trkpt>
      <trkpt lat="43.234233" lon="-4.992885">
        <ele>1460.589</ele>
        <time>2021-08-01T11:27:47Z</time>
      </trkpt>
      <trkpt lat="43.2342" lon="-4.992839">
        <ele>1460.511</ele>
        <time>2021-08-01T11:28:00Z</time>
      </trkpt>
      <trkpt lat="43.234182" lon="-4.992782">
        <ele>1460.525</ele>
        <time>2021-08-01T11:28:13Z</time>
      </trkpt>
      <trkpt lat="43.234137" lon="-4.99277">
        <ele>1460.542</ele>
        <time>2021-08-01T11:28:45Z</time>
      </trkpt>
      <trkpt lat="43.234095" lon="-4.992805">
        <ele>1460.597</ele>
        <time>2021-08-01T11:28:52Z</time>
      </trkpt>
      <trkpt lat="43.234046" lon="-4.992807">
        <ele>1460.567</ele>
        <time>2021-08-01T11:29:19Z</time>
      </trkpt>
      <trkpt lat="43.234" lon="-4.992797">
        <ele>1464.558</ele>
        <time>2021-08-01T11:29:43Z</time>
      </trkpt>
      <trkpt lat="43.233955" lon="-4.992767">
        <ele>1468.552</ele>
        <time>2021-08-01T11:29:47Z</time>
      </trkpt>
      <trkpt lat="43.233907" lon="-4.992733">
        <ele>1471.717</ele>
        <time>2021-08-01T11:29:51Z</time>
      </trkpt>
      <trkpt lat="43.233871" lon="-4.992696">
        <ele>1473.908</ele>
        <time>2021-08-01T11:29:54Z</time>
      </trkpt>
      <trkpt lat="43.23383" lon="-4.992664">
        <ele>1474.252</ele>
        <time>2021-08-01T11:29:58Z</time>
      </trkpt>
      <trkpt lat="43.233782" lon="-4.99261">
        <ele>1475.134</ele>
        <time>2021-08-01T11:30:02Z</time>
      </trkpt>
      <trkpt lat="43.233765" lon="-4.992549">
        <ele>1475.663</ele>
        <time>2021-08-01T11:30:07Z</time>
      </trkpt>
      <trkpt lat="43.233762" lon="-4.992484">
        <ele>1475.645</ele>
        <time>2021-08-01T11:30:13Z</time>
      </trkpt>
      <trkpt lat="43.233764" lon="-4.992415">
        <ele>1476.349</ele>
        <time>2021-08-01T11:30:18Z</time>
      </trkpt>
      <trkpt lat="43.233776" lon="-4.992353">
        <ele>1476.926</ele>
        <time>2021-08-01T11:30:22Z</time>
      </trkpt>
      <trkpt lat="43.233784" lon="-4.992287">
        <ele>1477.331</ele>
        <time>2021-08-01T11:30:27Z</time>
      </trkpt>
      <trkpt lat="43.233741" lon="-4.992266">
        <ele>1477.071</ele>
        <time>2021-08-01T11:30:33Z</time>
      </trkpt>
      <trkpt lat="43.233716" lon="-4.992211">
        <ele>1477.432</ele>
        <time>2021-08-01T11:30:52Z</time>
      </trkpt>
      <trkpt lat="43.233726" lon="-4.992149">
        <ele>1478.392</ele>
        <time>2021-08-01T11:30:58Z</time>
      </trkpt>
      <trkpt lat="43.233699" lon="-4.992091">
        <ele>1479.511</ele>
        <time>2021-08-01T11:31:20Z</time>
      </trkpt>
      <trkpt lat="43.233654" lon="-4.992108">
        <ele>1480.608</ele>
        <time>2021-08-01T11:31:35Z</time>
      </trkpt>
      <trkpt lat="43.233618" lon="-4.99207">
        <ele>1480.690</ele>
        <time>2021-08-01T11:31:40Z</time>
      </trkpt>
      <trkpt lat="43.233576" lon="-4.992047">
        <ele>1481.482</ele>
        <time>2021-08-01T11:31:45Z</time>
      </trkpt>
      <trkpt lat="43.233529" lon="-4.992044">
        <ele>1482.611</ele>
        <time>2021-08-01T11:31:53Z</time>
      </trkpt>
      <trkpt lat="43.233483" lon="-4.992021">
        <ele>1483.413</ele>
        <time>2021-08-01T11:31:59Z</time>
      </trkpt>
      <trkpt lat="43.23344" lon="-4.991994">
        <ele>1484.867</ele>
        <time>2021-08-01T11:32:05Z</time>
      </trkpt>
      <trkpt lat="43.233412" lon="-4.991945">
        <ele>1485.974</ele>
        <time>2021-08-01T11:32:13Z</time>
      </trkpt>
      <trkpt lat="43.233378" lon="-4.991894">
        <ele>1487.079</ele>
        <time>2021-08-01T11:32:23Z</time>
      </trkpt>
      <trkpt lat="43.233335" lon="-4.991869">
        <ele>1487.179</ele>
        <time>2021-08-01T11:32:28Z</time>
      </trkpt>
      <trkpt lat="43.233292" lon="-4.991849">
        <ele>1488.423</ele>
        <time>2021-08-01T11:32:44Z</time>
      </trkpt>
      <trkpt lat="43.233246" lon="-4.991837">
        <ele>1491.183</ele>
        <time>2021-08-01T11:33:22Z</time>
      </trkpt>
      <trkpt lat="43.233199" lon="-4.99185">
        <ele>1492.411</ele>
        <time>2021-08-01T11:33:29Z</time>
      </trkpt>
      <trkpt lat="43.233162" lon="-4.99181">
        <ele>1494.408</ele>
        <time>2021-08-01T11:33:39Z</time>
      </trkpt>
      <trkpt lat="43.23312" lon="-4.991786">
        <ele>1495.469</ele>
        <time>2021-08-01T11:33:44Z</time>
      </trkpt>
      <trkpt lat="43.233075" lon="-4.99177">
        <ele>1495.961</ele>
        <time>2021-08-01T11:33:49Z</time>
      </trkpt>
      <trkpt lat="43.233027" lon="-4.991767">
        <ele>1497.210</ele>
        <time>2021-08-01T11:33:56Z</time>
      </trkpt>
      <trkpt lat="43.23298" lon="-4.991762">
        <ele>1498.512</ele>
        <time>2021-08-01T11:34:08Z</time>
      </trkpt>
      <trkpt lat="43.232932" lon="-4.991766">
        <ele>1500.226</ele>
        <time>2021-08-01T11:34:14Z</time>
      </trkpt>
      <trkpt lat="43.232885" lon="-4.991769">
        <ele>1501.233</ele>
        <time>2021-08-01T11:34:22Z</time>
      </trkpt>
      <trkpt lat="43.232847" lon="-4.99173">
        <ele>1502.058</ele>
        <time>2021-08-01T11:34:29Z</time>
      </trkpt>
      <trkpt lat="43.232807" lon="-4.991696">
        <ele>1503.268</ele>
        <time>2021-08-01T11:34:37Z</time>
      </trkpt>
      <trkpt lat="43.232759" lon="-4.991687">
        <ele>1504.174</ele>
        <time>2021-08-01T11:34:42Z</time>
      </trkpt>
      <trkpt lat="43.232714" lon="-4.991679">
        <ele>1504.956</ele>
        <time>2021-08-01T11:34:49Z</time>
      </trkpt>
      <trkpt lat="43.232668" lon="-4.991679">
        <ele>1506.521</ele>
        <time>2021-08-01T11:35:02Z</time>
      </trkpt>
      <trkpt lat="43.232633" lon="-4.99172">
        <ele>1507.508</ele>
        <time>2021-08-01T11:35:09Z</time>
      </trkpt>
      <trkpt lat="43.232586" lon="-4.991716">
        <ele>1508.564</ele>
        <time>2021-08-01T11:35:15Z</time>
      </trkpt>
      <trkpt lat="43.232549" lon="-4.991761">
        <ele>1508.526</ele>
        <time>2021-08-01T11:35:22Z</time>
      </trkpt>
      <trkpt lat="43.232503" lon="-4.991774">
        <ele>1509.595</ele>
        <time>2021-08-01T11:35:28Z</time>
      </trkpt>
      <trkpt lat="43.232457" lon="-4.991767">
        <ele>1510.787</ele>
        <time>2021-08-01T11:35:36Z</time>
      </trkpt>
      <trkpt lat="43.232407" lon="-4.991757">
        <ele>1511.371</ele>
        <time>2021-08-01T11:35:42Z</time>
      </trkpt>
      <trkpt lat="43.232362" lon="-4.991735">
        <ele>1511.888</ele>
        <time>2021-08-01T11:35:48Z</time>
      </trkpt>
      <trkpt lat="43.232321" lon="-4.991705">
        <ele>1513.373</ele>
        <time>2021-08-01T11:36:15Z</time>
      </trkpt>
      <trkpt lat="43.232281" lon="-4.991743">
        <ele>1515.443</ele>
        <time>2021-08-01T11:37:22Z</time>
      </trkpt>
      <trkpt lat="43.232233" lon="-4.991737">
        <ele>1517.537</ele>
        <time>2021-08-01T11:37:43Z</time>
      </trkpt>
      <trkpt lat="43.232186" lon="-4.991758">
        <ele>1519.249</ele>
        <time>2021-08-01T11:37:47Z</time>
      </trkpt>
      <trkpt lat="43.232136" lon="-4.991773">
        <ele>1520.013</ele>
        <time>2021-08-01T11:37:52Z</time>
      </trkpt>
      <trkpt lat="43.232122" lon="-4.991832">
        <ele>1520.508</ele>
        <time>2021-08-01T11:38:07Z</time>
      </trkpt>
      <trkpt lat="43.232079" lon="-4.991814">
        <ele>1520.640</ele>
        <time>2021-08-01T11:38:23Z</time>
      </trkpt>
      <trkpt lat="43.23204" lon="-4.991781">
        <ele>1521.352</ele>
        <time>2021-08-01T11:38:27Z</time>
      </trkpt>
      <trkpt lat="43.231993" lon="-4.991773">
        <ele>1521.531</ele>
        <time>2021-08-01T11:38:41Z</time>
      </trkpt>
      <trkpt lat="43.231951" lon="-4.991743">
        <ele>1522.143</ele>
        <time>2021-08-01T11:38:50Z</time>
      </trkpt>
      <trkpt lat="43.231909" lon="-4.991717">
        <ele>1523.087</ele>
        <time>2021-08-01T11:38:57Z</time>
      </trkpt>
      <trkpt lat="43.23186" lon="-4.991704">
        <ele>1523.914</ele>
        <time>2021-08-01T11:39:03Z</time>
      </trkpt>
      <trkpt lat="43.231814" lon="-4.991708">
        <ele>1524.089</ele>
        <time>2021-08-01T11:39:09Z</time>
      </trkpt>
      <trkpt lat="43.231791" lon="-4.991652">
        <ele>1524.579</ele>
        <time>2021-08-01T11:39:29Z</time>
      </trkpt>
      <trkpt lat="43.231746" lon="-4.991627">
        <ele>1525.651</ele>
        <time>2021-08-01T11:39:34Z</time>
      </trkpt>
      <trkpt lat="43.231705" lon="-4.991599">
        <ele>1526.201</ele>
        <time>2021-08-01T11:39:39Z</time>
      </trkpt>
      <trkpt lat="43.231666" lon="-4.991568">
        <ele>1526.311</ele>
        <time>2021-08-01T11:39:47Z</time>
      </trkpt>
      <trkpt lat="43.231625" lon="-4.99154">
        <ele>1527.908</ele>
        <time>2021-08-01T11:40:09Z</time>
      </trkpt>
      <trkpt lat="43.231577" lon="-4.991522">
        <ele>1528.612</ele>
        <time>2021-08-01T11:40:15Z</time>
      </trkpt>
      <trkpt lat="43.231526" lon="-4.991512">
        <ele>1529.024</ele>
        <time>2021-08-01T11:40:21Z</time>
      </trkpt>
      <trkpt lat="43.231525" lon="-4.991574">
        <ele>1530.133</ele>
        <time>2021-08-01T11:40:46Z</time>
      </trkpt>
      <trkpt lat="43.231502" lon="-4.991632">
        <ele>1529.785</ele>
        <time>2021-08-01T11:40:52Z</time>
      </trkpt>
      <trkpt lat="43.231472" lon="-4.991684">
        <ele>1529.719</ele>
        <time>2021-08-01T11:41:21Z</time>
      </trkpt>
      <trkpt lat="43.231428" lon="-4.991705">
        <ele>1529.686</ele>
        <time>2021-08-01T11:41:26Z</time>
      </trkpt>
      <trkpt lat="43.231376" lon="-4.991679">
        <ele>1530.091</ele>
        <time>2021-08-01T11:41:30Z</time>
      </trkpt>
      <trkpt lat="43.23133" lon="-4.991656">
        <ele>1530.591</ele>
        <time>2021-08-01T11:41:34Z</time>
      </trkpt>
      <trkpt lat="43.231285" lon="-4.991655">
        <ele>1530.467</ele>
        <time>2021-08-01T11:41:38Z</time>
      </trkpt>
      <trkpt lat="43.231235" lon="-4.991641">
        <ele>1530.781</ele>
        <time>2021-08-01T11:41:43Z</time>
      </trkpt>
      <trkpt lat="43.231188" lon="-4.991623">
        <ele>1530.519</ele>
        <time>2021-08-01T11:41:48Z</time>
      </trkpt>
      <trkpt lat="43.231145" lon="-4.991595">
        <ele>1531.008</ele>
        <time>2021-08-01T11:41:54Z</time>
      </trkpt>
      <trkpt lat="43.231146" lon="-4.99153">
        <ele>1532.653</ele>
        <time>2021-08-01T11:42:23Z</time>
      </trkpt>
      <trkpt lat="43.2311" lon="-4.991515">
        <ele>1534.535</ele>
        <time>2021-08-01T11:42:28Z</time>
      </trkpt>
      <trkpt lat="43.23105" lon="-4.991509">
        <ele>1535.554</ele>
        <time>2021-08-01T11:42:33Z</time>
      </trkpt>
      <trkpt lat="43.231008" lon="-4.991485">
        <ele>1536.476</ele>
        <time>2021-08-01T11:42:37Z</time>
      </trkpt>
      <trkpt lat="43.230961" lon="-4.991465">
        <ele>1536.640</ele>
        <time>2021-08-01T11:42:40Z</time>
      </trkpt>
      <trkpt lat="43.230913" lon="-4.991462">
        <ele>1537.177</ele>
        <time>2021-08-01T11:42:44Z</time>
      </trkpt>
      <trkpt lat="43.230869" lon="-4.991442">
        <ele>1538.292</ele>
        <time>2021-08-01T11:42:48Z</time>
      </trkpt>
      <trkpt lat="43.23083" lon="-4.99141">
        <ele>1538.842</ele>
        <time>2021-08-01T11:42:53Z</time>
      </trkpt>
      <trkpt lat="43.23078" lon="-4.991397">
        <ele>1539.944</ele>
        <time>2021-08-01T11:42:58Z</time>
      </trkpt>
      <trkpt lat="43.230731" lon="-4.9914">
        <ele>1540.605</ele>
        <time>2021-08-01T11:43:04Z</time>
      </trkpt>
      <trkpt lat="43.230695" lon="-4.991361">
        <ele>1541.915</ele>
        <time>2021-08-01T11:43:26Z</time>
      </trkpt>
      <trkpt lat="43.230652" lon="-4.99132">
        <ele>1542.608</ele>
        <time>2021-08-01T11:43:32Z</time>
      </trkpt>
      <trkpt lat="43.230691" lon="-4.991351">
        <ele>1544.481</ele>
        <time>2021-08-01T11:45:09Z</time>
      </trkpt>
      <trkpt lat="43.230668" lon="-4.991298">
        <ele>1546.353</ele>
        <time>2021-08-01T11:45:24Z</time>
      </trkpt>
      <trkpt lat="43.230621" lon="-4.991274">
        <ele>1546.892</ele>
        <time>2021-08-01T11:45:27Z</time>
      </trkpt>
      <trkpt lat="43.230584" lon="-4.991239">
        <ele>1547.834</ele>
        <time>2021-08-01T11:45:38Z</time>
      </trkpt>
      <trkpt lat="43.230545" lon="-4.9912">
        <ele>1548.818</ele>
        <time>2021-08-01T11:45:47Z</time>
      </trkpt>
      <trkpt lat="43.230495" lon="-4.991185">
        <ele>1549.035</ele>
        <time>2021-08-01T11:45:51Z</time>
      </trkpt>
      <trkpt lat="43.23045" lon="-4.991179">
        <ele>1549.590</ele>
        <time>2021-08-01T11:45:55Z</time>
      </trkpt>
      <trkpt lat="43.230404" lon="-4.991175">
        <ele>1550.160</ele>
        <time>2021-08-01T11:46:00Z</time>
      </trkpt>
      <trkpt lat="43.23036" lon="-4.991149">
        <ele>1549.922</ele>
        <time>2021-08-01T11:46:06Z</time>
      </trkpt>
      <trkpt lat="43.230316" lon="-4.991127">
        <ele>1550.462</ele>
        <time>2021-08-01T11:46:11Z</time>
      </trkpt>
      <trkpt lat="43.230274" lon="-4.991087">
        <ele>1550.608</ele>
        <time>2021-08-01T11:46:33Z</time>
      </trkpt>
      <trkpt lat="43.230224" lon="-4.991086">
        <ele>1551.408</ele>
        <time>2021-08-01T11:46:39Z</time>
      </trkpt>
      <trkpt lat="43.230179" lon="-4.991066">
        <ele>1551.719</ele>
        <time>2021-08-01T11:46:45Z</time>
      </trkpt>
      <trkpt lat="43.230131" lon="-4.991058">
        <ele>1551.961</ele>
        <time>2021-08-01T11:46:51Z</time>
      </trkpt>
      <trkpt lat="43.230098" lon="-4.99101">
        <ele>1552.980</ele>
        <time>2021-08-01T11:47:00Z</time>
      </trkpt>
      <trkpt lat="43.230056" lon="-4.990982">
        <ele>1553.562</ele>
        <time>2021-08-01T11:47:07Z</time>
      </trkpt>
      <trkpt lat="43.230014" lon="-4.990951">
        <ele>1554.616</ele>
        <time>2021-08-01T11:47:13Z</time>
      </trkpt>
      <trkpt lat="43.22996" lon="-4.990931">
        <ele>1556.073</ele>
        <time>2021-08-01T11:47:20Z</time>
      </trkpt>
      <trkpt lat="43.229914" lon="-4.990929">
        <ele>1556.778</ele>
        <time>2021-08-01T11:47:26Z</time>
      </trkpt>
      <trkpt lat="43.229865" lon="-4.990919">
        <ele>1557.718</ele>
        <time>2021-08-01T11:47:33Z</time>
      </trkpt>
      <trkpt lat="43.229827" lon="-4.990884">
        <ele>1558.636</ele>
        <time>2021-08-01T11:47:47Z</time>
      </trkpt>
      <trkpt lat="43.229787" lon="-4.990849">
        <ele>1559.517</ele>
        <time>2021-08-01T11:47:54Z</time>
      </trkpt>
      <trkpt lat="43.229757" lon="-4.990797">
        <ele>1560.218</ele>
        <time>2021-08-01T11:47:59Z</time>
      </trkpt>
      <trkpt lat="43.229733" lon="-4.990742">
        <ele>1560.708</ele>
        <time>2021-08-01T11:48:05Z</time>
      </trkpt>
      <trkpt lat="43.229705" lon="-4.990692">
        <ele>1560.310</ele>
        <time>2021-08-01T11:48:10Z</time>
      </trkpt>
      <trkpt lat="43.229678" lon="-4.990642">
        <ele>1561.152</ele>
        <time>2021-08-01T11:48:15Z</time>
      </trkpt>
      <trkpt lat="43.229649" lon="-4.990589">
        <ele>1561.271</ele>
        <time>2021-08-01T11:48:20Z</time>
      </trkpt>
      <trkpt lat="43.229625" lon="-4.990532">
        <ele>1561.553</ele>
        <time>2021-08-01T11:48:26Z</time>
      </trkpt>
      <trkpt lat="43.229584" lon="-4.990504">
        <ele>1562.777</ele>
        <time>2021-08-01T11:48:38Z</time>
      </trkpt>
      <trkpt lat="43.229574" lon="-4.990443">
        <ele>1562.874</ele>
        <time>2021-08-01T11:48:45Z</time>
      </trkpt>
      <trkpt lat="43.229538" lon="-4.990402">
        <ele>1562.969</ele>
        <time>2021-08-01T11:48:52Z</time>
      </trkpt>
      <trkpt lat="43.229493" lon="-4.990399">
        <ele>1563.379</ele>
        <time>2021-08-01T11:49:10Z</time>
      </trkpt>
      <trkpt lat="43.229448" lon="-4.990376">
        <ele>1564.247</ele>
        <time>2021-08-01T11:49:44Z</time>
      </trkpt>
      <trkpt lat="43.229431" lon="-4.990318">
        <ele>1565.429</ele>
        <time>2021-08-01T11:49:48Z</time>
      </trkpt>
      <trkpt lat="43.229407" lon="-4.990262">
        <ele>1565.921</ele>
        <time>2021-08-01T11:49:52Z</time>
      </trkpt>
      <trkpt lat="43.229373" lon="-4.990219">
        <ele>1566.708</ele>
        <time>2021-08-01T11:49:56Z</time>
      </trkpt>
      <trkpt lat="43.229362" lon="-4.990154">
        <ele>1567.271</ele>
        <time>2021-08-01T11:50:03Z</time>
      </trkpt>
      <trkpt lat="43.229355" lon="-4.990085">
        <ele>1567.153</ele>
        <time>2021-08-01T11:50:08Z</time>
      </trkpt>
      <trkpt lat="43.229346" lon="-4.990017">
        <ele>1566.552</ele>
        <time>2021-08-01T11:50:13Z</time>
      </trkpt>
      <trkpt lat="43.229338" lon="-4.98995">
        <ele>1566.794</ele>
        <time>2021-08-01T11:50:17Z</time>
      </trkpt>
      <trkpt lat="43.229324" lon="-4.98989">
        <ele>1565.928</ele>
        <time>2021-08-01T11:50:22Z</time>
      </trkpt>
      <trkpt lat="43.229317" lon="-4.989823">
        <ele>1565.785</ele>
        <time>2021-08-01T11:50:28Z</time>
      </trkpt>
      <trkpt lat="43.229311" lon="-4.989758">
        <ele>1565.590</ele>
        <time>2021-08-01T11:50:33Z</time>
      </trkpt>
      <trkpt lat="43.229294" lon="-4.9897">
        <ele>1565.810</ele>
        <time>2021-08-01T11:50:40Z</time>
      </trkpt>
      <trkpt lat="43.229251" lon="-4.989666">
        <ele>1566.157</ele>
        <time>2021-08-01T11:50:47Z</time>
      </trkpt>
      <trkpt lat="43.229217" lon="-4.989621">
        <ele>1567.100</ele>
        <time>2021-08-01T11:50:53Z</time>
      </trkpt>
      <trkpt lat="43.229199" lon="-4.989563">
        <ele>1567.620</ele>
        <time>2021-08-01T11:50:59Z</time>
      </trkpt>
      <trkpt lat="43.229186" lon="-4.989498">
        <ele>1567.808</ele>
        <time>2021-08-01T11:51:05Z</time>
      </trkpt>
      <trkpt lat="43.229176" lon="-4.989438">
        <ele>1568.372</ele>
        <time>2021-08-01T11:51:14Z</time>
      </trkpt>
      <trkpt lat="43.229133" lon="-4.989416">
        <ele>1570.244</ele>
        <time>2021-08-01T11:51:27Z</time>
      </trkpt>
      <trkpt lat="43.229092" lon="-4.989373">
        <ele>1571.673</ele>
        <time>2021-08-01T11:51:33Z</time>
      </trkpt>
      <trkpt lat="43.229043" lon="-4.989356">
        <ele>1572.975</ele>
        <time>2021-08-01T11:51:38Z</time>
      </trkpt>
      <trkpt lat="43.228994" lon="-4.989345">
        <ele>1574.059</ele>
        <time>2021-08-01T11:51:43Z</time>
      </trkpt>
      <trkpt lat="43.229051" lon="-4.989322">
        <ele>1574.636</ele>
        <time>2021-08-01T11:52:45Z</time>
      </trkpt>
      <trkpt lat="43.229107" lon="-4.98928">
        <ele>1578.561</ele>
        <time>2021-08-01T11:52:47Z</time>
      </trkpt>
      <trkpt lat="43.229067" lon="-4.989316">
        <ele>1581.281</ele>
        <time>2021-08-01T11:52:56Z</time>
      </trkpt>
      <trkpt lat="43.229024" lon="-4.989353">
        <ele>1583.752</ele>
        <time>2021-08-01T11:53:01Z</time>
      </trkpt>
      <trkpt lat="43.228979" lon="-4.989335">
        <ele>1586.053</ele>
        <time>2021-08-01T11:53:06Z</time>
      </trkpt>
      <trkpt lat="43.228949" lon="-4.989287">
        <ele>1588.008</ele>
        <time>2021-08-01T11:53:12Z</time>
      </trkpt>
      <trkpt lat="43.228904" lon="-4.989262">
        <ele>1589.808</ele>
        <time>2021-08-01T11:53:20Z</time>
      </trkpt>
      <trkpt lat="43.228858" lon="-4.989269">
        <ele>1591.212</ele>
        <time>2021-08-01T11:53:24Z</time>
      </trkpt>
      <trkpt lat="43.228814" lon="-4.98925">
        <ele>1593.324</ele>
        <time>2021-08-01T11:53:31Z</time>
      </trkpt>
      <trkpt lat="43.228813" lon="-4.989188">
        <ele>1595.663</ele>
        <time>2021-08-01T11:53:46Z</time>
      </trkpt>
      <trkpt lat="43.228748" lon="-4.989186">
        <ele>1598.455</ele>
        <time>2021-08-01T11:54:04Z</time>
      </trkpt>
      <trkpt lat="43.228704" lon="-4.98917">
        <ele>1601.029</ele>
        <time>2021-08-01T11:54:12Z</time>
      </trkpt>
      <trkpt lat="43.228672" lon="-4.989119">
        <ele>1603.226</ele>
        <time>2021-08-01T11:54:19Z</time>
      </trkpt>
      <trkpt lat="43.228628" lon="-4.989134">
        <ele>1604.571</ele>
        <time>2021-08-01T11:54:32Z</time>
      </trkpt>
      <trkpt lat="43.228585" lon="-4.989105">
        <ele>1605.561</ele>
        <time>2021-08-01T11:54:37Z</time>
      </trkpt>
      <trkpt lat="43.228544" lon="-4.989076">
        <ele>1607.446</ele>
        <time>2021-08-01T11:54:42Z</time>
      </trkpt>
      <trkpt lat="43.2285" lon="-4.989055">
        <ele>1608.088</ele>
        <time>2021-08-01T11:54:50Z</time>
      </trkpt>
      <trkpt lat="43.228469" lon="-4.988995">
        <ele>1608.816</ele>
        <time>2021-08-01T11:54:56Z</time>
      </trkpt>
      <trkpt lat="43.228431" lon="-4.988945">
        <ele>1609.408</ele>
        <time>2021-08-01T11:55:02Z</time>
      </trkpt>
      <trkpt lat="43.228402" lon="-4.988889">
        <ele>1610.071</ele>
        <time>2021-08-01T11:55:08Z</time>
      </trkpt>
      <trkpt lat="43.228386" lon="-4.988829">
        <ele>1611.163</ele>
        <time>2021-08-01T11:55:16Z</time>
      </trkpt>
      <trkpt lat="43.228349" lon="-4.988784">
        <ele>1612.222</ele>
        <time>2021-08-01T11:55:23Z</time>
      </trkpt>
      <trkpt lat="43.22834" lon="-4.988721">
        <ele>1613.164</ele>
        <time>2021-08-01T11:55:30Z</time>
      </trkpt>
      <trkpt lat="43.22835" lon="-4.98866">
        <ele>1613.518</ele>
        <time>2021-08-01T11:55:36Z</time>
      </trkpt>
      <trkpt lat="43.228313" lon="-4.988625">
        <ele>1614.135</ele>
        <time>2021-08-01T11:55:48Z</time>
      </trkpt>
      <trkpt lat="43.228268" lon="-4.988626">
        <ele>1614.730</ele>
        <time>2021-08-01T11:55:52Z</time>
      </trkpt>
      <trkpt lat="43.228218" lon="-4.988631">
        <ele>1615.160</ele>
        <time>2021-08-01T11:55:55Z</time>
      </trkpt>
      <trkpt lat="43.22819" lon="-4.988685">
        <ele>1615.151</ele>
        <time>2021-08-01T11:56:07Z</time>
      </trkpt>
      <trkpt lat="43.228138" lon="-4.988747">
        <ele>1615.701</ele>
        <time>2021-08-01T11:56:15Z</time>
      </trkpt>
      <trkpt lat="43.228099" lon="-4.988788">
        <ele>1616.711</ele>
        <time>2021-08-01T11:56:17Z</time>
      </trkpt>
      <trkpt lat="43.228057" lon="-4.98881">
        <ele>1617.308</ele>
        <time>2021-08-01T11:56:22Z</time>
      </trkpt>
      <trkpt lat="43.228055" lon="-4.988746">
        <ele>1619.172</ele>
        <time>2021-08-01T11:56:45Z</time>
      </trkpt>
      <trkpt lat="43.228059" lon="-4.988679">
        <ele>1620.614</ele>
        <time>2021-08-01T11:56:51Z</time>
      </trkpt>
      <trkpt lat="43.228056" lon="-4.988613">
        <ele>1621.713</ele>
        <time>2021-08-01T11:56:57Z</time>
      </trkpt>
      <trkpt lat="43.228015" lon="-4.988577">
        <ele>1622.445</ele>
        <time>2021-08-01T11:57:07Z</time>
      </trkpt>
      <trkpt lat="43.227964" lon="-4.988566">
        <ele>1623.769</ele>
        <time>2021-08-01T11:57:15Z</time>
      </trkpt>
      <trkpt lat="43.227922" lon="-4.988591">
        <ele>1624.286</ele>
        <time>2021-08-01T11:57:27Z</time>
      </trkpt>
      <trkpt lat="43.227884" lon="-4.98855">
        <ele>1624.741</ele>
        <time>2021-08-01T11:57:34Z</time>
      </trkpt>
      <trkpt lat="43.227856" lon="-4.988498">
        <ele>1626.141</ele>
        <time>2021-08-01T11:57:43Z</time>
      </trkpt>
      <trkpt lat="43.227855" lon="-4.988434">
        <ele>1627.165</ele>
        <time>2021-08-01T11:57:49Z</time>
      </trkpt>
      <trkpt lat="43.227809" lon="-4.988392">
        <ele>1628.468</ele>
        <time>2021-08-01T11:57:56Z</time>
      </trkpt>
      <trkpt lat="43.227763" lon="-4.988384">
        <ele>1629.714</ele>
        <time>2021-08-01T11:58:01Z</time>
      </trkpt>
      <trkpt lat="43.227716" lon="-4.988362">
        <ele>1629.408</ele>
        <time>2021-08-01T11:58:08Z</time>
      </trkpt>
      <trkpt lat="43.227712" lon="-4.9883">
        <ele>1629.653</ele>
        <time>2021-08-01T11:58:15Z</time>
      </trkpt>
      <trkpt lat="43.227683" lon="-4.988249">
        <ele>1629.895</ele>
        <time>2021-08-01T11:58:21Z</time>
      </trkpt>
      <trkpt lat="43.227654" lon="-4.988196">
        <ele>1630.134</ele>
        <time>2021-08-01T11:58:27Z</time>
      </trkpt>
      <trkpt lat="43.227607" lon="-4.988189">
        <ele>1630.856</ele>
        <time>2021-08-01T11:58:37Z</time>
      </trkpt>
      <trkpt lat="43.227567" lon="-4.988156">
        <ele>1632.390</ele>
        <time>2021-08-01T11:58:48Z</time>
      </trkpt>
      <trkpt lat="43.227514" lon="-4.988151">
        <ele>1632.757</ele>
        <time>2021-08-01T11:58:57Z</time>
      </trkpt>
      <trkpt lat="43.227477" lon="-4.988188">
        <ele>1632.922</ele>
        <time>2021-08-01T11:59:08Z</time>
      </trkpt>
      <trkpt lat="43.227505" lon="-4.988136">
        <ele>1634.252</ele>
        <time>2021-08-01T11:59:17Z</time>
      </trkpt>
      <trkpt lat="43.22748" lon="-4.988079">
        <ele>1637.478</ele>
        <time>2021-08-01T11:59:59Z</time>
      </trkpt>
      <trkpt lat="43.227434" lon="-4.988065">
        <ele>1640.133</ele>
        <time>2021-08-01T12:00:19Z</time>
      </trkpt>
      <trkpt lat="43.227393" lon="-4.98801">
        <ele>1642.126</ele>
        <time>2021-08-01T12:00:42Z</time>
      </trkpt>
      <trkpt lat="43.227353" lon="-4.987971">
        <ele>1643.408</ele>
        <time>2021-08-01T12:00:49Z</time>
      </trkpt>
      <trkpt lat="43.227327" lon="-4.987917">
        <ele>1643.344</ele>
        <time>2021-08-01T12:00:57Z</time>
      </trkpt>
      <trkpt lat="43.227282" lon="-4.98789">
        <ele>1643.526</ele>
        <time>2021-08-01T12:01:05Z</time>
      </trkpt>
      <trkpt lat="43.227235" lon="-4.987876">
        <ele>1642.955</ele>
        <time>2021-08-01T12:01:11Z</time>
      </trkpt>
      <trkpt lat="43.227186" lon="-4.987862">
        <ele>1642.527</ele>
        <time>2021-08-01T12:01:18Z</time>
      </trkpt>
      <trkpt lat="43.227136" lon="-4.987868">
        <ele>1643.061</ele>
        <time>2021-08-01T12:01:28Z</time>
      </trkpt>
      <trkpt lat="43.227086" lon="-4.987852">
        <ele>1643.168</ele>
        <time>2021-08-01T12:01:38Z</time>
      </trkpt>
      <trkpt lat="43.227046" lon="-4.987885">
        <ele>1644.283</ele>
        <time>2021-08-01T12:03:04Z</time>
      </trkpt>
      <trkpt lat="43.227017" lon="-4.987835">
        <ele>1643.573</ele>
        <time>2021-08-01T12:04:01Z</time>
      </trkpt>
      <trkpt lat="43.227058" lon="-4.987862">
        <ele>1643.199</ele>
        <time>2021-08-01T12:04:24Z</time>
      </trkpt>
      <trkpt lat="43.22703" lon="-4.987914">
        <ele>1643.807</ele>
        <time>2021-08-01T12:04:33Z</time>
      </trkpt>
      <trkpt lat="43.227001" lon="-4.987858">
        <ele>1644.427</ele>
        <time>2021-08-01T12:04:49Z</time>
      </trkpt>
      <trkpt lat="43.226955" lon="-4.987842">
        <ele>1645.508</ele>
        <time>2021-08-01T12:05:00Z</time>
      </trkpt>
      <trkpt lat="43.226907" lon="-4.987821">
        <ele>1647.336</ele>
        <time>2021-08-01T12:05:11Z</time>
      </trkpt>
      <trkpt lat="43.226861" lon="-4.987803">
        <ele>1648.158</ele>
        <time>2021-08-01T12:05:21Z</time>
      </trkpt>
      <trkpt lat="43.226813" lon="-4.987831">
        <ele>1648.597</ele>
        <time>2021-08-01T12:05:30Z</time>
      </trkpt>
      <trkpt lat="43.226765" lon="-4.987803">
        <ele>1649.389</ele>
        <time>2021-08-01T12:05:38Z</time>
      </trkpt>
      <trkpt lat="43.22672" lon="-4.987785">
        <ele>1651.313</ele>
        <time>2021-08-01T12:05:52Z</time>
      </trkpt>
      <trkpt lat="43.226674" lon="-4.987781">
        <ele>1652.210</ele>
        <time>2021-08-01T12:06:00Z</time>
      </trkpt>
      <trkpt lat="43.226633" lon="-4.987745">
        <ele>1653.975</ele>
        <time>2021-08-01T12:06:07Z</time>
      </trkpt>
      <trkpt lat="43.226584" lon="-4.987744">
        <ele>1655.095</ele>
        <time>2021-08-01T12:06:15Z</time>
      </trkpt>
      <trkpt lat="43.22654" lon="-4.987721">
        <ele>1656.112</ele>
        <time>2021-08-01T12:06:22Z</time>
      </trkpt>
      <trkpt lat="43.226505" lon="-4.987677">
        <ele>1658.132</ele>
        <time>2021-08-01T12:06:30Z</time>
      </trkpt>
      <trkpt lat="43.226465" lon="-4.987647">
        <ele>1661.005</ele>
        <time>2021-08-01T12:06:56Z</time>
      </trkpt>
      <trkpt lat="43.226459" lon="-4.987578">
        <ele>1662.708</ele>
        <time>2021-08-01T12:07:04Z</time>
      </trkpt>
      <trkpt lat="43.226466" lon="-4.987516">
        <ele>1664.998</ele>
        <time>2021-08-01T12:07:17Z</time>
      </trkpt>
      <trkpt lat="43.226448" lon="-4.987458">
        <ele>1667.060</ele>
        <time>2021-08-01T12:07:45Z</time>
      </trkpt>
      <trkpt lat="43.226394" lon="-4.987434">
        <ele>1668.719</ele>
        <time>2021-08-01T12:07:50Z</time>
      </trkpt>
      <trkpt lat="43.22635" lon="-4.987413">
        <ele>1670.351</ele>
        <time>2021-08-01T12:07:58Z</time>
      </trkpt>
      <trkpt lat="43.226318" lon="-4.987364">
        <ele>1671.795</ele>
        <time>2021-08-01T12:08:10Z</time>
      </trkpt>
      <trkpt lat="43.226269" lon="-4.987371">
        <ele>1673.922</ele>
        <time>2021-08-01T12:08:22Z</time>
      </trkpt>
      <trkpt lat="43.226221" lon="-4.987392">
        <ele>1675.017</ele>
        <time>2021-08-01T12:08:37Z</time>
      </trkpt>
      <trkpt lat="43.226175" lon="-4.987399">
        <ele>1675.937</ele>
        <time>2021-08-01T12:08:49Z</time>
      </trkpt>
      <trkpt lat="43.226148" lon="-4.987451">
        <ele>1678.599</ele>
        <time>2021-08-01T12:09:10Z</time>
      </trkpt>
      <trkpt lat="43.22611" lon="-4.987486">
        <ele>1680.407</ele>
        <time>2021-08-01T12:09:27Z</time>
      </trkpt>
      <trkpt lat="43.226065" lon="-4.987499">
        <ele>1681.427</ele>
        <time>2021-08-01T12:09:52Z</time>
      </trkpt>
      <trkpt lat="43.226013" lon="-4.987511">
        <ele>1682.708</ele>
        <time>2021-08-01T12:09:55Z</time>
      </trkpt>
      <trkpt lat="43.225966" lon="-4.987518">
        <ele>1682.236</ele>
        <time>2021-08-01T12:09:58Z</time>
      </trkpt>
      <trkpt lat="43.225919" lon="-4.987522">
        <ele>1682.898</ele>
        <time>2021-08-01T12:10:01Z</time>
      </trkpt>
      <trkpt lat="43.22587" lon="-4.98754">
        <ele>1682.887</ele>
        <time>2021-08-01T12:10:05Z</time>
      </trkpt>
      <trkpt lat="43.225821" lon="-4.987555">
        <ele>1681.959</ele>
        <time>2021-08-01T12:10:09Z</time>
      </trkpt>
      <trkpt lat="43.225777" lon="-4.987529">
        <ele>1681.113</ele>
        <time>2021-08-01T12:10:14Z</time>
      </trkpt>
      <trkpt lat="43.225805" lon="-4.987469">
        <ele>1683.030</ele>
        <time>2021-08-01T12:10:20Z</time>
      </trkpt>
      <trkpt lat="43.225835" lon="-4.98741">
        <ele>1683.395</ele>
        <time>2021-08-01T12:10:24Z</time>
      </trkpt>
      <trkpt lat="43.225954" lon="-4.987363">
        <ele>1684.645</ele>
        <time>2021-08-01T12:10:25Z</time>
      </trkpt>
      <trkpt lat="43.226009" lon="-4.987331">
        <ele>1684.874</ele>
        <time>2021-08-01T12:10:27Z</time>
      </trkpt>
      <trkpt lat="43.226044" lon="-4.987286">
        <ele>1685.456</ele>
        <time>2021-08-01T12:10:31Z</time>
      </trkpt>
      <trkpt lat="43.226039" lon="-4.987223">
        <ele>1686.521</ele>
        <time>2021-08-01T12:10:37Z</time>
      </trkpt>
      <trkpt lat="43.226062" lon="-4.987162">
        <ele>1687.708</ele>
        <time>2021-08-01T12:10:41Z</time>
      </trkpt>
      <trkpt lat="43.226039" lon="-4.987104">
        <ele>1689.624</ele>
        <time>2021-08-01T12:10:47Z</time>
      </trkpt>
      <trkpt lat="43.225999" lon="-4.987066">
        <ele>1690.646</ele>
        <time>2021-08-01T12:10:50Z</time>
      </trkpt>
      <trkpt lat="43.225964" lon="-4.98702">
        <ele>1691.655</ele>
        <time>2021-08-01T12:10:57Z</time>
      </trkpt>
      <trkpt lat="43.226003" lon="-4.98698">
        <ele>1692.837</ele>
        <time>2021-08-01T12:12:00Z</time>
      </trkpt>
      <trkpt lat="43.226023" lon="-4.986922">
        <ele>1693.321</ele>
        <time>2021-08-01T12:12:04Z</time>
      </trkpt>
      <trkpt lat="43.226022" lon="-4.986858">
        <ele>1693.698</ele>
        <time>2021-08-01T12:12:08Z</time>
      </trkpt>
      <trkpt lat="43.225996" lon="-4.986806">
        <ele>1693.883</ele>
        <time>2021-08-01T12:12:12Z</time>
      </trkpt>
      <trkpt lat="43.22596" lon="-4.986763">
        <ele>1694.223</ele>
        <time>2021-08-01T12:12:18Z</time>
      </trkpt>
      <trkpt lat="43.225952" lon="-4.986702">
        <ele>1695.578</ele>
        <time>2021-08-01T12:12:24Z</time>
      </trkpt>
      <trkpt lat="43.225952" lon="-4.986619">
        <ele>1696.833</ele>
        <time>2021-08-01T12:12:33Z</time>
      </trkpt>
      <trkpt lat="43.225935" lon="-4.986547">
        <ele>1697.426</ele>
        <time>2021-08-01T12:12:38Z</time>
      </trkpt>
      <trkpt lat="43.225912" lon="-4.986487">
        <ele>1698.008</ele>
        <time>2021-08-01T12:12:45Z</time>
      </trkpt>
      <trkpt lat="43.225892" lon="-4.98643">
        <ele>1698.434</ele>
        <time>2021-08-01T12:12:51Z</time>
      </trkpt>
      <trkpt lat="43.225864" lon="-4.986372">
        <ele>1698.726</ele>
        <time>2021-08-01T12:12:58Z</time>
      </trkpt>
      <trkpt lat="43.225841" lon="-4.986314">
        <ele>1698.855</ele>
        <time>2021-08-01T12:13:04Z</time>
      </trkpt>
      <trkpt lat="43.225791" lon="-4.986298">
        <ele>1700.427</ele>
        <time>2021-08-01T12:13:48Z</time>
      </trkpt>
      <trkpt lat="43.225751" lon="-4.986268">
        <ele>1701.951</ele>
        <time>2021-08-01T12:13:55Z</time>
      </trkpt>
      <trkpt lat="43.225714" lon="-4.986229">
        <ele>1702.898</ele>
        <time>2021-08-01T12:14:01Z</time>
      </trkpt>
      <trkpt lat="43.225668" lon="-4.986228">
        <ele>1703.643</ele>
        <time>2021-08-01T12:14:08Z</time>
      </trkpt>
      <trkpt lat="43.225621" lon="-4.986233">
        <ele>1704.723</ele>
        <time>2021-08-01T12:14:14Z</time>
      </trkpt>
      <trkpt lat="43.225574" lon="-4.986222">
        <ele>1705.752</ele>
        <time>2021-08-01T12:14:18Z</time>
      </trkpt>
      <trkpt lat="43.225545" lon="-4.986173">
        <ele>1706.353</ele>
        <time>2021-08-01T12:14:22Z</time>
      </trkpt>
      <trkpt lat="43.225524" lon="-4.986118">
        <ele>1707.008</ele>
        <time>2021-08-01T12:14:27Z</time>
      </trkpt>
      <trkpt lat="43.225486" lon="-4.986082">
        <ele>1706.908</ele>
        <time>2021-08-01T12:14:31Z</time>
      </trkpt>
      <trkpt lat="43.225473" lon="-4.986141">
        <ele>1707.392</ele>
        <time>2021-08-01T12:14:49Z</time>
      </trkpt>
      <trkpt lat="43.225446" lon="-4.986191">
        <ele>1707.664</ele>
        <time>2021-08-01T12:14:59Z</time>
      </trkpt>
      <trkpt lat="43.225398" lon="-4.986179">
        <ele>1709.163</ele>
        <time>2021-08-01T12:15:30Z</time>
      </trkpt>
      <trkpt lat="43.225354" lon="-4.986191">
        <ele>1709.535</ele>
        <time>2021-08-01T12:15:38Z</time>
      </trkpt>
      <trkpt lat="43.225305" lon="-4.986215">
        <ele>1710.899</ele>
        <time>2021-08-01T12:15:48Z</time>
      </trkpt>
      <trkpt lat="43.225273" lon="-4.986168">
        <ele>1711.196</ele>
        <time>2021-08-01T12:16:00Z</time>
      </trkpt>
      <trkpt lat="43.225223" lon="-4.986177">
        <ele>1711.691</ele>
        <time>2021-08-01T12:16:09Z</time>
      </trkpt>
      <trkpt lat="43.225179" lon="-4.98616">
        <ele>1712.121</ele>
        <time>2021-08-01T12:16:16Z</time>
      </trkpt>
      <trkpt lat="43.225122" lon="-4.986159">
        <ele>1712.731</ele>
        <time>2021-08-01T12:16:22Z</time>
      </trkpt>
      <trkpt lat="43.225076" lon="-4.98614">
        <ele>1713.661</ele>
        <time>2021-08-01T12:16:27Z</time>
      </trkpt>
      <trkpt lat="43.225034" lon="-4.986113">
        <ele>1713.807</ele>
        <time>2021-08-01T12:16:33Z</time>
      </trkpt>
      <trkpt lat="43.224985" lon="-4.986065">
        <ele>1715.608</ele>
        <time>2021-08-01T12:17:25Z</time>
      </trkpt>
      <trkpt lat="43.224928" lon="-4.98603">
        <ele>1717.190</ele>
        <time>2021-08-01T12:17:26Z</time>
      </trkpt>
      <trkpt lat="43.224891" lon="-4.986079">
        <ele>1717.632</ele>
        <time>2021-08-01T12:17:35Z</time>
      </trkpt>
      <trkpt lat="43.224868" lon="-4.98614">
        <ele>1719.031</ele>
        <time>2021-08-01T12:17:45Z</time>
      </trkpt>
      <trkpt lat="43.224825" lon="-4.986161">
        <ele>1719.313</ele>
        <time>2021-08-01T12:17:56Z</time>
      </trkpt>
      <trkpt lat="43.224788" lon="-4.986201">
        <ele>1721.027</ele>
        <time>2021-08-01T12:18:22Z</time>
      </trkpt>
      <trkpt lat="43.224745" lon="-4.986181">
        <ele>1722.294</ele>
        <time>2021-08-01T12:18:28Z</time>
      </trkpt>
      <trkpt lat="43.224701" lon="-4.986158">
        <ele>1724.049</ele>
        <time>2021-08-01T12:18:35Z</time>
      </trkpt>
      <trkpt lat="43.22465" lon="-4.986149">
        <ele>1725.829</ele>
        <time>2021-08-01T12:18:47Z</time>
      </trkpt>
      <trkpt lat="43.224604" lon="-4.986157">
        <ele>1728.158</ele>
        <time>2021-08-01T12:18:53Z</time>
      </trkpt>
      <trkpt lat="43.224579" lon="-4.98621">
        <ele>1730.952</ele>
        <time>2021-08-01T12:20:05Z</time>
      </trkpt>
      <trkpt lat="43.22453" lon="-4.986199">
        <ele>1733.417</ele>
        <time>2021-08-01T12:20:40Z</time>
      </trkpt>
      <trkpt lat="43.224527" lon="-4.986132">
        <ele>1734.808</ele>
        <time>2021-08-01T12:20:45Z</time>
      </trkpt>
      <trkpt lat="43.224511" lon="-4.986063">
        <ele>1736.182</ele>
        <time>2021-08-01T12:21:25Z</time>
      </trkpt>
      <trkpt lat="43.224465" lon="-4.986066">
        <ele>1737.494</ele>
        <time>2021-08-01T12:21:56Z</time>
      </trkpt>
      <trkpt lat="43.224418" lon="-4.98606">
        <ele>1739.283</ele>
        <time>2021-08-01T12:22:08Z</time>
      </trkpt>
      <trkpt lat="43.224369" lon="-4.986051">
        <ele>1740.165</ele>
        <time>2021-08-01T12:22:16Z</time>
      </trkpt>
      <trkpt lat="43.224345" lon="-4.985991">
        <ele>1741.529</ele>
        <time>2021-08-01T12:22:37Z</time>
      </trkpt>
      <trkpt lat="43.224298" lon="-4.985971">
        <ele>1741.936</ele>
        <time>2021-08-01T12:22:48Z</time>
      </trkpt>
      <trkpt lat="43.224258" lon="-4.985942">
        <ele>1744.791</ele>
        <time>2021-08-01T12:23:24Z</time>
      </trkpt>
      <trkpt lat="43.224229" lon="-4.985882">
        <ele>1747.491</ele>
        <time>2021-08-01T12:23:50Z</time>
      </trkpt>
      <trkpt lat="43.224195" lon="-4.98583">
        <ele>1749.694</ele>
        <time>2021-08-01T12:23:58Z</time>
      </trkpt>
      <trkpt lat="43.224169" lon="-4.985882">
        <ele>1750.957</ele>
        <time>2021-08-01T12:24:19Z</time>
      </trkpt>
      <trkpt lat="43.224123" lon="-4.985898">
        <ele>1752.622</ele>
        <time>2021-08-01T12:24:29Z</time>
      </trkpt>
      <trkpt lat="43.224078" lon="-4.985911">
        <ele>1753.908</ele>
        <time>2021-08-01T12:24:44Z</time>
      </trkpt>
      <trkpt lat="43.224044" lon="-4.985851">
        <ele>1755.136</ele>
        <time>2021-08-01T12:24:49Z</time>
      </trkpt>
      <trkpt lat="43.224001" lon="-4.985882">
        <ele>1755.718</ele>
        <time>2021-08-01T12:24:56Z</time>
      </trkpt>
      <trkpt lat="43.223952" lon="-4.985878">
        <ele>1756.477</ele>
        <time>2021-08-01T12:25:04Z</time>
      </trkpt>
      <trkpt lat="43.223904" lon="-4.985879">
        <ele>1757.229</ele>
        <time>2021-08-01T12:25:12Z</time>
      </trkpt>
      <trkpt lat="43.22389" lon="-4.985816">
        <ele>1758.683</ele>
        <time>2021-08-01T12:25:21Z</time>
      </trkpt>
      <trkpt lat="43.223827" lon="-4.985835">
        <ele>1760.780</ele>
        <time>2021-08-01T12:26:10Z</time>
      </trkpt>
      <trkpt lat="43.223854" lon="-4.985784">
        <ele>1764.075</ele>
        <time>2021-08-01T12:26:25Z</time>
      </trkpt>
      <trkpt lat="43.223808" lon="-4.985744">
        <ele>1767.475</ele>
        <time>2021-08-01T12:26:39Z</time>
      </trkpt>
      <trkpt lat="43.22376" lon="-4.985732">
        <ele>1769.875</ele>
        <time>2021-08-01T12:26:44Z</time>
      </trkpt>
      <trkpt lat="43.22372" lon="-4.985772">
        <ele>1772.328</ele>
        <time>2021-08-01T12:27:20Z</time>
      </trkpt>
      <trkpt lat="43.223661" lon="-4.98577">
        <ele>1774.420</ele>
        <time>2021-08-01T12:27:25Z</time>
      </trkpt>
      <trkpt lat="43.223615" lon="-4.98576">
        <ele>1776.108</ele>
        <time>2021-08-01T12:27:34Z</time>
      </trkpt>
      <trkpt lat="43.223566" lon="-4.985761">
        <ele>1776.774</ele>
        <time>2021-08-01T12:27:41Z</time>
      </trkpt>
      <trkpt lat="43.223524" lon="-4.985789">
        <ele>1777.816</ele>
        <time>2021-08-01T12:27:45Z</time>
      </trkpt>
      <trkpt lat="43.223485" lon="-4.985828">
        <ele>1778.385</ele>
        <time>2021-08-01T12:27:52Z</time>
      </trkpt>
      <trkpt lat="43.223474" lon="-4.985888">
        <ele>1778.877</ele>
        <time>2021-08-01T12:28:00Z</time>
      </trkpt>
      <trkpt lat="43.223484" lon="-4.985816">
        <ele>1780.481</ele>
        <time>2021-08-01T12:28:35Z</time>
      </trkpt>
      <trkpt lat="43.223523" lon="-4.985781">
        <ele>1781.938</ele>
        <time>2021-08-01T12:28:40Z</time>
      </trkpt>
      <trkpt lat="43.223574" lon="-4.985782">
        <ele>1784.193</ele>
        <time>2021-08-01T12:28:52Z</time>
      </trkpt>
      <trkpt lat="43.223564" lon="-4.985717">
        <ele>1785.733</ele>
        <time>2021-08-01T12:29:04Z</time>
      </trkpt>
      <trkpt lat="43.223592" lon="-4.985667">
        <ele>1786.728</ele>
        <time>2021-08-01T12:29:22Z</time>
      </trkpt>
      <trkpt lat="43.223599" lon="-4.985579">
        <ele>1787.389</ele>
        <time>2021-08-01T12:30:08Z</time>
      </trkpt>
      <trkpt lat="43.223573" lon="-4.985528">
        <ele>1787.717</ele>
        <time>2021-08-01T12:30:16Z</time>
      </trkpt>
      <trkpt lat="43.223564" lon="-4.985603">
        <ele>1787.908</ele>
        <time>2021-08-01T12:30:21Z</time>
      </trkpt>
      <trkpt lat="43.223532" lon="-4.985668">
        <ele>1788.099</ele>
        <time>2021-08-01T12:30:26Z</time>
      </trkpt>
      <trkpt lat="43.223501" lon="-4.985721">
        <ele>1788.171</ele>
        <time>2021-08-01T12:30:34Z</time>
      </trkpt>
      <trkpt lat="43.223434" lon="-4.985752">
        <ele>1788.140</ele>
        <time>2021-08-01T12:30:55Z</time>
      </trkpt>
      <trkpt lat="43.223384" lon="-4.985741">
        <ele>1792.152</ele>
        <time>2021-08-01T12:31:01Z</time>
      </trkpt>
      <trkpt lat="43.223351" lon="-4.985696">
        <ele>1796.126</ele>
        <time>2021-08-01T12:31:06Z</time>
      </trkpt>
      <trkpt lat="43.22337" lon="-4.985637">
        <ele>1800.153</ele>
        <time>2021-08-01T12:31:14Z</time>
      </trkpt>
      <trkpt lat="43.223414" lon="-4.985604">
        <ele>1804.148</ele>
        <time>2021-08-01T12:31:19Z</time>
      </trkpt>
      <trkpt lat="43.223466" lon="-4.98558">
        <ele>1808.078</ele>
        <time>2021-08-01T12:31:27Z</time>
      </trkpt>
      <trkpt lat="43.223507" lon="-4.985479">
        <ele>1809.887</ele>
        <time>2021-08-01T12:33:06Z</time>
      </trkpt>
      <trkpt lat="43.223523" lon="-4.985401">
        <ele>1810.742</ele>
        <time>2021-08-01T12:33:08Z</time>
      </trkpt>
      <trkpt lat="43.223563" lon="-4.985362">
        <ele>1810.426</ele>
        <time>2021-08-01T12:33:30Z</time>
      </trkpt>
      <trkpt lat="43.223552" lon="-4.985301">
        <ele>1810.208</ele>
        <time>2021-08-01T12:33:43Z</time>
      </trkpt>
      <trkpt lat="43.223523" lon="-4.98524">
        <ele>1810.425</ele>
        <time>2021-08-01T12:33:50Z</time>
      </trkpt>
      <trkpt lat="43.223517" lon="-4.985178">
        <ele>1811.327</ele>
        <time>2021-08-01T12:34:00Z</time>
      </trkpt>
      <trkpt lat="43.223548" lon="-4.985133">
        <ele>1811.596</ele>
        <time>2021-08-01T12:34:07Z</time>
      </trkpt>
      <trkpt lat="43.223549" lon="-4.985071">
        <ele>1811.368</ele>
        <time>2021-08-01T12:34:19Z</time>
      </trkpt>
      <trkpt lat="43.223504" lon="-4.985041">
        <ele>1811.512</ele>
        <time>2021-08-01T12:34:33Z</time>
      </trkpt>
      <trkpt lat="43.223467" lon="-4.985078">
        <ele>1811.569</ele>
        <time>2021-08-01T12:34:40Z</time>
      </trkpt>
      <trkpt lat="43.22342" lon="-4.985088">
        <ele>1811.564</ele>
        <time>2021-08-01T12:34:46Z</time>
      </trkpt>
      <trkpt lat="43.223372" lon="-4.985084">
        <ele>1811.644</ele>
        <time>2021-08-01T12:35:06Z</time>
      </trkpt>
      <trkpt lat="43.223331" lon="-4.985114">
        <ele>1811.261</ele>
        <time>2021-08-01T12:35:10Z</time>
      </trkpt>
      <trkpt lat="43.223332" lon="-4.985181">
        <ele>1810.221</ele>
        <time>2021-08-01T12:35:28Z</time>
      </trkpt>
      <trkpt lat="43.223252" lon="-4.985191">
        <ele>1811.613</ele>
        <time>2021-08-01T12:39:11Z</time>
      </trkpt>
      <trkpt lat="43.223208" lon="-4.985204">
        <ele>1812.808</ele>
        <time>2021-08-01T12:39:12Z</time>
      </trkpt>
      <trkpt lat="43.223164" lon="-4.985219">
        <ele>1813.353</ele>
        <time>2021-08-01T12:39:16Z</time>
      </trkpt>
      <trkpt lat="43.223349" lon="-4.985228">
        <ele>1810.165</ele>
        <time>2021-08-01T12:43:03Z</time>
      </trkpt>
      <trkpt lat="43.223349" lon="-4.985228">
        <ele>1810.194</ele>
        <time>2021-08-01T12:43:03Z</time>
      </trkpt>
      <trkpt lat="43.223349" lon="-4.985228">
        <ele>1810.176</ele>
        <time>2021-08-01T12:43:03Z</time>
      </trkpt>
      <trkpt lat="43.223349" lon="-4.985228">
        <ele>1810.190</ele>
        <time>2021-08-01T12:43:03Z</time>
      </trkpt>
      <trkpt lat="43.223349" lon="-4.985228">
        <ele>1810.127</ele>
        <time>2021-08-01T12:43:03Z</time>
      </trkpt>
      <trkpt lat="43.223349" lon="-4.985228">
        <ele>1810.132</ele>
        <time>2021-08-01T12:43:03Z</time>
      </trkpt>
      <trkpt lat="43.223349" lon="-4.985228">
        <ele>1810.152</ele>
        <time>2021-08-01T12:43:03Z</time>
      </trkpt>
      <trkpt lat="43.223349" lon="-4.985228">
        <ele>1810.171</ele>
        <time>2021-08-01T12:43:03Z</time>
      </trkpt>
      <trkpt lat="43.223349" lon="-4.985228">
        <ele>1810.141</ele>
        <time>2021-08-01T12:43:03Z</time>
      </trkpt>
      <trkpt lat="43.223349" lon="-4.985228">
        <ele>1810.115</ele>
        <time>2021-08-01T12:43:03Z</time>
      </trkpt>
      <trkpt lat="43.223349" lon="-4.985228">
        <ele>1810.108</ele>
        <time>2021-08-01T12:43:03Z</time>
      </trkpt>
      <trkpt lat="43.223349" lon="-4.985228">
        <ele>1810.134</ele>
        <time>2021-08-01T12:43:03Z</time>
      </trkpt>
      <trkpt lat="43.223349" lon="-4.985228">
        <ele>1810.156</ele>
        <time>2021-08-01T12:43:03Z</time>
      </trkpt>
      <trkpt lat="43.223349" lon="-4.985228">
        <ele>1810.145</ele>
        <time>2021-08-01T12:43:03Z</time>
      </trkpt>
      <trkpt lat="43.223349" lon="-4.985228">
        <ele>1810.167</ele>
        <time>2021-08-01T12:43:03Z</time>
      </trkpt>
      <trkpt lat="43.223349" lon="-4.985228">
        <ele>1810.191</ele>
        <time>2021-08-01T12:43:03Z</time>
      </trkpt>
      <trkpt lat="43.223349" lon="-4.985228">
        <ele>1810.158</ele>
        <time>2021-08-01T12:43:03Z</time>
      </trkpt>
      <trkpt lat="43.223349" lon="-4.985228">
        <ele>1810.123</ele>
        <time>2021-08-01T12:43:03Z</time>
      </trkpt>
      <trkpt lat="43.223349" lon="-4.985228">
        <ele>1810.163</ele>
        <time>2021-08-01T12:43:03Z</time>
      </trkpt>
      <trkpt lat="43.223349" lon="-4.985228">
        <ele>1810.127</ele>
        <time>2021-08-01T12:43:03Z</time>
      </trkpt>
      <trkpt lat="43.223349" lon="-4.985228">
        <ele>1810.168</ele>
        <time>2021-08-01T12:43:03Z</time>
      </trkpt>
      <trkpt lat="43.223349" lon="-4.985228">
        <ele>1810.114</ele>
        <time>2021-08-01T12:43:03Z</time>
      </trkpt>
      <trkpt lat="43.223349" lon="-4.985228">
        <ele>1810.108</ele>
        <time>2021-08-01T12:43:03Z</time>
      </trkpt>
      <trkpt lat="43.223349" lon="-4.985228">
        <ele>1810.199</ele>
        <time>2021-08-01T12:43:03Z</time>
      </trkpt>
      <trkpt lat="43.223349" lon="-4.985228">
        <ele>1810.141</ele>
        <time>2021-08-01T12:43:03Z</time>
      </trkpt>
      <trkpt lat="43.223349" lon="-4.985228">
        <ele>1810.150</ele>
        <time>2021-08-01T12:43:03Z</time>
      </trkpt>
      <trkpt lat="43.223349" lon="-4.985228">
        <ele>1810.142</ele>
        <time>2021-08-01T12:43:03Z</time>
      </trkpt>
      <trkpt lat="43.223349" lon="-4.985228">
        <ele>1810.126</ele>
        <time>2021-08-01T12:43:03Z</time>
      </trkpt>
      <trkpt lat="43.223349" lon="-4.985228">
        <ele>1810.183</ele>
        <time>2021-08-01T12:43:03Z</time>
      </trkpt>
      <trkpt lat="43.223349" lon="-4.985228">
        <ele>1810.198</ele>
        <time>2021-08-01T12:43:03Z</time>
      </trkpt>
      <trkpt lat="43.223349" lon="-4.985228">
        <ele>1810.168</ele>
        <time>2021-08-01T12:43:03Z</time>
      </trkpt>
      <trkpt lat="43.223349" lon="-4.985228">
        <ele>1810.191</ele>
        <time>2021-08-01T12:43:03Z</time>
      </trkpt>
      <trkpt lat="43.223349" lon="-4.985228">
        <ele>1810.181</ele>
        <time>2021-08-01T12:43:03Z</time>
      </trkpt>
      <trkpt lat="43.223349" lon="-4.985228">
        <ele>1810.119</ele>
        <time>2021-08-01T12:43:03Z</time>
      </trkpt>
      <trkpt lat="43.223349" lon="-4.985228">
        <ele>1810.108</ele>
        <time>2021-08-01T12:43:03Z</time>
      </trkpt>
      <trkpt lat="43.223349" lon="-4.985228">
        <ele>1810.166</ele>
        <time>2021-08-01T12:43:03Z</time>
      </trkpt>
      <trkpt lat="43.223349" lon="-4.985228">
        <ele>1810.198</ele>
        <time>2021-08-01T12:43:03Z</time>
      </trkpt>
      <trkpt lat="43.223349" lon="-4.985228">
        <ele>1810.187</ele>
        <time>2021-08-01T12:43:03Z</time>
      </trkpt>
      <trkpt lat="43.223349" lon="-4.985228">
        <ele>1810.129</ele>
        <time>2021-08-01T12:43:03Z</time>
      </trkpt>
      <trkpt lat="43.223349" lon="-4.985228">
        <ele>1810.133</ele>
        <time>2021-08-01T12:43:03Z</time>
      </trkpt>
      <trkpt lat="43.223349" lon="-4.985228">
        <ele>1810.150</ele>
        <time>2021-08-01T12:43:03Z</time>
      </trkpt>
      <trkpt lat="43.223349" lon="-4.985228">
        <ele>1810.175</ele>
        <time>2021-08-01T12:43:03Z</time>
      </trkpt>
      <trkpt lat="43.223349" lon="-4.985228">
        <ele>1810.175</ele>
        <time>2021-08-01T12:43:03Z</time>
      </trkpt>
      <trkpt lat="43.223349" lon="-4.985228">
        <ele>1810.135</ele>
        <time>2021-08-01T12:43:03Z</time>
      </trkpt>
      <trkpt lat="43.223349" lon="-4.985228">
        <ele>1810.186</ele>
        <time>2021-08-01T12:43:03Z</time>
      </trkpt>
      <trkpt lat="43.223349" lon="-4.985228">
        <ele>1810.114</ele>
        <time>2021-08-01T12:43:03Z</time>
      </trkpt>
      <trkpt lat="43.223349" lon="-4.985228">
        <ele>1810.108</ele>
        <time>2021-08-01T12:43:03Z</time>
      </trkpt>
      <trkpt lat="43.223349" lon="-4.985228">
        <ele>1810.150</ele>
        <time>2021-08-01T12:43:03Z</time>
      </trkpt>
      <trkpt lat="43.223349" lon="-4.985228">
        <ele>1810.132</ele>
        <time>2021-08-01T12:43:03Z</time>
      </trkpt>
      <trkpt lat="43.223349" lon="-4.985228">
        <ele>1810.191</ele>
        <time>2021-08-01T12:43:03Z</time>
      </trkpt>
      <trkpt lat="43.223349" lon="-4.985228">
        <ele>1810.113</ele>
        <time>2021-08-01T12:43:03Z</time>
      </trkpt>
      <trkpt lat="43.223349" lon="-4.985228">
        <ele>1810.147</ele>
        <time>2021-08-01T12:43:03Z</time>
      </trkpt>
      <trkpt lat="43.223349" lon="-4.985228">
        <ele>1810.144</ele>
        <time>2021-08-01T12:43:03Z</time>
      </trkpt>
      <trkpt lat="43.223349" lon="-4.985228">
        <ele>1810.189</ele>
        <time>2021-08-01T12:43:03Z</time>
      </trkpt>
      <trkpt lat="43.223349" lon="-4.985228">
        <ele>1810.139</ele>
        <time>2021-08-01T12:43:03Z</time>
      </trkpt>
      <trkpt lat="43.223349" lon="-4.985228">
        <ele>1810.192</ele>
        <time>2021-08-01T12:43:03Z</time>
      </trkpt>
      <trkpt lat="43.223349" lon="-4.985228">
        <ele>1810.173</ele>
        <time>2021-08-01T12:43:03Z</time>
      </trkpt>
      <trkpt lat="43.223349" lon="-4.985228">
        <ele>1810.120</ele>
        <time>2021-08-01T12:43:03Z</time>
      </trkpt>
      <trkpt lat="43.223349" lon="-4.985228">
        <ele>1810.108</ele>
        <time>2021-08-01T12:43:03Z</time>
      </trkpt>
      <trkpt lat="43.223349" lon="-4.985228">
        <ele>1810.146</ele>
        <time>2021-08-01T12:43:03Z</time>
      </trkpt>
      <trkpt lat="43.223349" lon="-4.985228">
        <ele>1810.118</ele>
        <time>2021-08-01T12:43:03Z</time>
      </trkpt>
      <trkpt lat="43.223349" lon="-4.985228">
        <ele>1810.187</ele>
        <time>2021-08-01T12:43:03Z</time>
      </trkpt>
      <trkpt lat="43.223349" lon="-4.985228">
        <ele>1810.199</ele>
        <time>2021-08-01T12:43:03Z</time>
      </trkpt>
      <trkpt lat="43.223349" lon="-4.985228">
        <ele>1810.153</ele>
        <time>2021-08-01T12:43:03Z</time>
      </trkpt>
      <trkpt lat="43.223349" lon="-4.985228">
        <ele>1810.130</ele>
        <time>2021-08-01T12:43:03Z</time>
      </trkpt>
      <trkpt lat="43.223349" lon="-4.985228">
        <ele>1810.195</ele>
        <time>2021-08-01T12:43:03Z</time>
      </trkpt>
      <trkpt lat="43.223349" lon="-4.985228">
        <ele>1810.125</ele>
        <time>2021-08-01T12:43:03Z</time>
      </trkpt>
      <trkpt lat="43.223349" lon="-4.985228">
        <ele>1810.189</ele>
        <time>2021-08-01T12:43:03Z</time>
      </trkpt>
      <trkpt lat="43.223349" lon="-4.985228">
        <ele>1810.106</ele>
        <time>2021-08-01T12:43:03Z</time>
      </trkpt>
      <trkpt lat="43.223349" lon="-4.985228">
        <ele>1810.126</ele>
        <time>2021-08-01T12:43:03Z</time>
      </trkpt>
      <trkpt lat="43.223349" lon="-4.985228">
        <ele>1810.108</ele>
        <time>2021-08-01T12:43:03Z</time>
      </trkpt>
      <trkpt lat="43.223349" lon="-4.985228">
        <ele>1810.165</ele>
        <time>2021-08-01T12:43:03Z</time>
      </trkpt>
      <trkpt lat="43.223349" lon="-4.985228">
        <ele>1810.187</ele>
        <time>2021-08-01T12:43:03Z</time>
      </trkpt>
      <trkpt lat="43.223349" lon="-4.985228">
        <ele>1810.156</ele>
        <time>2021-08-01T12:43:03Z</time>
      </trkpt>
      <trkpt lat="43.223349" lon="-4.985228">
        <ele>1810.168</ele>
        <time>2021-08-01T12:43:03Z</time>
      </trkpt>
      <trkpt lat="43.223349" lon="-4.985228">
        <ele>1810.182</ele>
        <time>2021-08-01T12:43:03Z</time>
      </trkpt>
      <trkpt lat="43.223349" lon="-4.985228">
        <ele>1810.169</ele>
        <time>2021-08-01T12:43:03Z</time>
      </trkpt>
      <trkpt lat="43.223349" lon="-4.985228">
        <ele>1810.114</ele>
        <time>2021-08-01T12:43:03Z</time>
      </trkpt>
      <trkpt lat="43.223349" lon="-4.985228">
        <ele>1810.164</ele>
        <time>2021-08-01T12:43:03Z</time>
      </trkpt>
      <trkpt lat="43.223349" lon="-4.985228">
        <ele>1810.133</ele>
        <time>2021-08-01T12:43:03Z</time>
      </trkpt>
      <trkpt lat="43.223349" lon="-4.985228">
        <ele>1810.123</ele>
        <time>2021-08-01T12:43:03Z</time>
      </trkpt>
      <trkpt lat="43.223349" lon="-4.985228">
        <ele>1810.115</ele>
        <time>2021-08-01T12:43:03Z</time>
      </trkpt>
      <trkpt lat="43.223349" lon="-4.985228">
        <ele>1810.108</ele>
        <time>2021-08-01T12:43:03Z</time>
      </trkpt>
      <trkpt lat="43.223349" lon="-4.985228">
        <ele>1810.170</ele>
        <time>2021-08-01T12:43:03Z</time>
      </trkpt>
      <trkpt lat="43.223349" lon="-4.985228">
        <ele>1810.162</ele>
        <time>2021-08-01T12:43:03Z</time>
      </trkpt>
      <trkpt lat="43.223349" lon="-4.985228">
        <ele>1810.191</ele>
        <time>2021-08-01T12:43:03Z</time>
      </trkpt>
      <trkpt lat="43.223349" lon="-4.985228">
        <ele>1810.193</ele>
        <time>2021-08-01T12:43:03Z</time>
      </trkpt>
      <trkpt lat="43.223349" lon="-4.985228">
        <ele>1810.177</ele>
        <time>2021-08-01T12:43:03Z</time>
      </trkpt>
      <trkpt lat="43.223349" lon="-4.985228">
        <ele>1810.134</ele>
        <time>2021-08-01T12:43:03Z</time>
      </trkpt>
      <trkpt lat="43.223349" lon="-4.985228">
        <ele>1810.139</ele>
        <time>2021-08-01T12:43:03Z</time>
      </trkpt>
      <trkpt lat="43.223349" lon="-4.985228">
        <ele>1810.119</ele>
        <time>2021-08-01T12:43:03Z</time>
      </trkpt>
      <trkpt lat="43.223349" lon="-4.985228">
        <ele>1810.149</ele>
        <time>2021-08-01T12:43:03Z</time>
      </trkpt>
      <trkpt lat="43.223349" lon="-4.985228">
        <ele>1810.102</ele>
        <time>2021-08-01T12:43:03Z</time>
      </trkpt>
      <trkpt lat="43.223349" lon="-4.985228">
        <ele>1810.122</ele>
        <time>2021-08-01T12:43:03Z</time>
      </trkpt>
      <trkpt lat="43.223349" lon="-4.985228">
        <ele>1810.108</ele>
        <time>2021-08-01T12:43:03Z</time>
      </trkpt>
      <trkpt lat="43.223349" lon="-4.985228">
        <ele>1810.111</ele>
        <time>2021-08-01T12:43:03Z</time>
      </trkpt>
      <trkpt lat="43.223349" lon="-4.985228">
        <ele>1810.113</ele>
        <time>2021-08-01T12:43:03Z</time>
      </trkpt>
      <trkpt lat="43.223349" lon="-4.985228">
        <ele>1810.162</ele>
        <time>2021-08-01T12:43:03Z</time>
      </trkpt>
      <trkpt lat="43.223349" lon="-4.985228">
        <ele>1810.174</ele>
        <time>2021-08-01T12:43:03Z</time>
      </trkpt>
      <trkpt lat="43.223349" lon="-4.985228">
        <ele>1810.178</ele>
        <time>2021-08-01T12:43:03Z</time>
      </trkpt>
      <trkpt lat="43.223349" lon="-4.985228">
        <ele>1810.175</ele>
        <time>2021-08-01T12:43:03Z</time>
      </trkpt>
      <trkpt lat="43.223349" lon="-4.985228">
        <ele>1810.110</ele>
        <time>2021-08-01T12:43:03Z</time>
      </trkpt>
      <trkpt lat="43.223349" lon="-4.985228">
        <ele>1810.110</ele>
        <time>2021-08-01T12:43:03Z</time>
      </trkpt>
      <trkpt lat="43.223349" lon="-4.985228">
        <ele>1810.165</ele>
        <time>2021-08-01T12:43:03Z</time>
      </trkpt>
      <trkpt lat="43.223349" lon="-4.985228">
        <ele>1810.168</ele>
        <time>2021-08-01T12:43:03Z</time>
      </trkpt>
      <trkpt lat="43.223349" lon="-4.985228">
        <ele>1810.114</ele>
        <time>2021-08-01T12:43:03Z</time>
      </trkpt>
      <trkpt lat="43.223349" lon="-4.985228">
        <ele>1810.108</ele>
        <time>2021-08-01T12:43:03Z</time>
      </trkpt>
      <trkpt lat="43.223349" lon="-4.985228">
        <ele>1810.153</ele>
        <time>2021-08-01T12:43:03Z</time>
      </trkpt>
      <trkpt lat="43.223349" lon="-4.985228">
        <ele>1810.185</ele>
        <time>2021-08-01T12:43:03Z</time>
      </trkpt>
      <trkpt lat="43.223349" lon="-4.985228">
        <ele>1810.174</ele>
        <time>2021-08-01T12:43:03Z</time>
      </trkpt>
      <trkpt lat="43.223349" lon="-4.985228">
        <ele>1810.176</ele>
        <time>2021-08-01T12:43:03Z</time>
      </trkpt>
      <trkpt lat="43.223349" lon="-4.985228">
        <ele>1810.190</ele>
        <time>2021-08-01T12:43:03Z</time>
      </trkpt>
      <trkpt lat="43.223349" lon="-4.985228">
        <ele>1810.127</ele>
        <time>2021-08-01T12:43:03Z</time>
      </trkpt>
      <trkpt lat="43.223349" lon="-4.985228">
        <ele>1810.192</ele>
        <time>2021-08-01T12:43:03Z</time>
      </trkpt>
      <trkpt lat="43.223349" lon="-4.985228">
        <ele>1810.132</ele>
        <time>2021-08-01T12:43:03Z</time>
      </trkpt>
      <trkpt lat="43.223349" lon="-4.985228">
        <ele>1810.153</ele>
        <time>2021-08-01T12:43:03Z</time>
      </trkpt>
      <trkpt lat="43.223349" lon="-4.985228">
        <ele>1810.104</ele>
        <time>2021-08-01T12:43:03Z</time>
      </trkpt>
      <trkpt lat="43.223349" lon="-4.985228">
        <ele>1810.114</ele>
        <time>2021-08-01T12:43:03Z</time>
      </trkpt>
      <trkpt lat="43.223349" lon="-4.985228">
        <ele>1810.108</ele>
        <time>2021-08-01T12:43:03Z</time>
      </trkpt>
      <trkpt lat="43.223349" lon="-4.985228">
        <ele>1810.162</ele>
        <time>2021-08-01T12:43:03Z</time>
      </trkpt>
      <trkpt lat="43.223349" lon="-4.985228">
        <ele>1810.154</ele>
        <time>2021-08-01T12:43:03Z</time>
      </trkpt>
      <trkpt lat="43.223349" lon="-4.985228">
        <ele>1810.173</ele>
        <time>2021-08-01T12:43:03Z</time>
      </trkpt>
      <trkpt lat="43.223349" lon="-4.985228">
        <ele>1810.175</ele>
        <time>2021-08-01T12:43:03Z</time>
      </trkpt>
      <trkpt lat="43.223349" lon="-4.985228">
        <ele>1810.149</ele>
        <time>2021-08-01T12:43:03Z</time>
      </trkpt>
      <trkpt lat="43.223349" lon="-4.985228">
        <ele>1810.126</ele>
        <time>2021-08-01T12:43:03Z</time>
      </trkpt>
      <trkpt lat="43.223349" lon="-4.985228">
        <ele>1810.191</ele>
        <time>2021-08-01T12:43:03Z</time>
      </trkpt>
      <trkpt lat="43.223349" lon="-4.985228">
        <ele>1810.111</ele>
        <time>2021-08-01T12:43:03Z</time>
      </trkpt>
      <trkpt lat="43.223349" lon="-4.985228">
        <ele>1810.128</ele>
        <time>2021-08-01T12:43:03Z</time>
      </trkpt>
      <trkpt lat="43.223349" lon="-4.985228">
        <ele>1810.189</ele>
        <time>2021-08-01T12:43:03Z</time>
      </trkpt>
      <trkpt lat="43.223349" lon="-4.985228">
        <ele>1810.117</ele>
        <time>2021-08-01T12:43:03Z</time>
      </trkpt>
      <trkpt lat="43.223349" lon="-4.985228">
        <ele>1810.108</ele>
        <time>2021-08-01T12:43:03Z</time>
      </trkpt>
      <trkpt lat="43.223349" lon="-4.985228">
        <ele>1810.199</ele>
        <time>2021-08-01T12:43:03Z</time>
      </trkpt>
      <trkpt lat="43.223349" lon="-4.985228">
        <ele>1810.181</ele>
        <time>2021-08-01T12:43:03Z</time>
      </trkpt>
      <trkpt lat="43.223349" lon="-4.985228">
        <ele>1810.120</ele>
        <time>2021-08-01T12:43:03Z</time>
      </trkpt>
      <trkpt lat="43.223349" lon="-4.985228">
        <ele>1810.132</ele>
        <time>2021-08-01T12:43:03Z</time>
      </trkpt>
      <trkpt lat="43.223349" lon="-4.985228">
        <ele>1810.126</ele>
        <time>2021-08-01T12:43:03Z</time>
      </trkpt>
      <trkpt lat="43.223349" lon="-4.985228">
        <ele>1810.113</ele>
        <time>2021-08-01T12:43:03Z</time>
      </trkpt>
      <trkpt lat="43.223349" lon="-4.985228">
        <ele>1810.168</ele>
        <time>2021-08-01T12:43:03Z</time>
      </trkpt>
      <trkpt lat="43.223349" lon="-4.985228">
        <ele>1810.188</ele>
        <time>2021-08-01T12:43:03Z</time>
      </trkpt>
      <trkpt lat="43.223349" lon="-4.985228">
        <ele>1810.185</ele>
        <time>2021-08-01T12:43:03Z</time>
      </trkpt>
      <trkpt lat="43.223349" lon="-4.985228">
        <ele>1810.189</ele>
        <time>2021-08-01T12:43:03Z</time>
      </trkpt>
      <trkpt lat="43.223349" lon="-4.985228">
        <ele>1810.117</ele>
        <time>2021-08-01T12:43:03Z</time>
      </trkpt>
      <trkpt lat="43.223349" lon="-4.985228">
        <ele>1810.108</ele>
        <time>2021-08-01T12:43:03Z</time>
      </trkpt>
      <trkpt lat="43.223349" lon="-4.985228">
        <ele>1810.175</ele>
        <time>2021-08-01T12:43:03Z</time>
      </trkpt>
      <trkpt lat="43.223349" lon="-4.985228">
        <ele>1810.117</ele>
        <time>2021-08-01T12:43:03Z</time>
      </trkpt>
      <trkpt lat="43.223349" lon="-4.985228">
        <ele>1810.126</ele>
        <time>2021-08-01T12:43:03Z</time>
      </trkpt>
      <trkpt lat="43.223349" lon="-4.985228">
        <ele>1810.188</ele>
        <time>2021-08-01T12:43:03Z</time>
      </trkpt>
      <trkpt lat="43.223349" lon="-4.985228">
        <ele>1810.122</ele>
        <time>2021-08-01T12:43:03Z</time>
      </trkpt>
      <trkpt lat="43.223349" lon="-4.985228">
        <ele>1810.189</ele>
        <time>2021-08-01T12:43:03Z</time>
      </trkpt>
      <trkpt lat="43.223349" lon="-4.985228">
        <ele>1810.124</ele>
        <time>2021-08-01T12:43:03Z</time>
      </trkpt>
      <trkpt lat="43.223349" lon="-4.985228">
        <ele>1810.124</ele>
        <time>2021-08-01T12:43:03Z</time>
      </trkpt>
      <trkpt lat="43.223349" lon="-4.985228">
        <ele>1810.198</ele>
        <time>2021-08-01T12:43:03Z</time>
      </trkpt>
      <trkpt lat="43.223349" lon="-4.985228">
        <ele>1810.115</ele>
        <time>2021-08-01T12:43:03Z</time>
      </trkpt>
      <trkpt lat="43.223349" lon="-4.985228">
        <ele>1810.126</ele>
        <time>2021-08-01T12:43:03Z</time>
      </trkpt>
      <trkpt lat="43.223349" lon="-4.985228">
        <ele>1810.108</ele>
        <time>2021-08-01T12:43:03Z</time>
      </trkpt>
      <trkpt lat="43.223349" lon="-4.985228">
        <ele>1810.156</ele>
        <time>2021-08-01T12:43:03Z</time>
      </trkpt>
      <trkpt lat="43.223349" lon="-4.985228">
        <ele>1810.168</ele>
        <time>2021-08-01T12:43:03Z</time>
      </trkpt>
      <trkpt lat="43.223349" lon="-4.985228">
        <ele>1810.117</ele>
        <time>2021-08-01T12:43:03Z</time>
      </trkpt>
      <trkpt lat="43.223349" lon="-4.985228">
        <ele>1810.159</ele>
        <time>2021-08-01T12:43:03Z</time>
      </trkpt>
      <trkpt lat="43.223349" lon="-4.985228">
        <ele>1810.173</ele>
        <time>2021-08-01T12:43:03Z</time>
      </trkpt>
      <trkpt lat="43.223349" lon="-4.985228">
        <ele>1810.160</ele>
        <time>2021-08-01T12:43:03Z</time>
      </trkpt>
      <trkpt lat="43.223349" lon="-4.985228">
        <ele>1810.125</ele>
        <time>2021-08-01T12:43:03Z</time>
      </trkpt>
      <trkpt lat="43.223349" lon="-4.985228">
        <ele>1810.135</ele>
        <time>2021-08-01T12:43:03Z</time>
      </trkpt>
      <trkpt lat="43.223349" lon="-4.985228">
        <ele>1810.152</ele>
        <time>2021-08-01T12:43:03Z</time>
      </trkpt>
      <trkpt lat="43.223349" lon="-4.985228">
        <ele>1810.153</ele>
        <time>2021-08-01T12:43:03Z</time>
      </trkpt>
      <trkpt lat="43.223349" lon="-4.985228">
        <ele>1810.108</ele>
        <time>2021-08-01T12:43:03Z</time>
      </trkpt>
      <trkpt lat="43.223349" lon="-4.985228">
        <ele>1810.108</ele>
        <time>2021-08-01T12:43:03Z</time>
      </trkpt>
      <trkpt lat="43.223349" lon="-4.985228">
        <ele>1810.112</ele>
        <time>2021-08-01T12:43:03Z</time>
      </trkpt>
      <trkpt lat="43.223349" lon="-4.985228">
        <ele>1810.144</ele>
        <time>2021-08-01T12:43:03Z</time>
      </trkpt>
      <trkpt lat="43.223349" lon="-4.985228">
        <ele>1810.153</ele>
        <time>2021-08-01T12:43:03Z</time>
      </trkpt>
      <trkpt lat="43.223349" lon="-4.985228">
        <ele>1810.155</ele>
        <time>2021-08-01T12:43:03Z</time>
      </trkpt>
      <trkpt lat="43.223349" lon="-4.985228">
        <ele>1810.149</ele>
        <time>2021-08-01T12:43:03Z</time>
      </trkpt>
      <trkpt lat="43.223349" lon="-4.985228">
        <ele>1810.166</ele>
        <time>2021-08-01T12:43:03Z</time>
      </trkpt>
      <trkpt lat="43.223349" lon="-4.985228">
        <ele>1810.181</ele>
        <time>2021-08-01T12:43:03Z</time>
      </trkpt>
      <trkpt lat="43.223349" lon="-4.985228">
        <ele>1810.171</ele>
        <time>2021-08-01T12:43:03Z</time>
      </trkpt>
      <trkpt lat="43.223349" lon="-4.985228">
        <ele>1810.173</ele>
        <time>2021-08-01T12:43:03Z</time>
      </trkpt>
      <trkpt lat="43.223349" lon="-4.985228">
        <ele>1810.185</ele>
        <time>2021-08-01T12:43:03Z</time>
      </trkpt>
      <trkpt lat="43.223349" lon="-4.985228">
        <ele>1810.113</ele>
        <time>2021-08-01T12:43:03Z</time>
      </trkpt>
      <trkpt lat="43.223349" lon="-4.985228">
        <ele>1810.108</ele>
        <time>2021-08-01T12:43:03Z</time>
      </trkpt>
      <trkpt lat="43.223349" lon="-4.985228">
        <ele>1810.184</ele>
        <time>2021-08-01T12:43:03Z</time>
      </trkpt>
      <trkpt lat="43.223349" lon="-4.985228">
        <ele>1810.136</ele>
        <time>2021-08-01T12:43:03Z</time>
      </trkpt>
      <trkpt lat="43.223349" lon="-4.985228">
        <ele>1810.155</ele>
        <time>2021-08-01T12:43:03Z</time>
      </trkpt>
      <trkpt lat="43.223349" lon="-4.985228">
        <ele>1810.187</ele>
        <time>2021-08-01T12:43:03Z</time>
      </trkpt>
      <trkpt lat="43.223349" lon="-4.985228">
        <ele>1810.151</ele>
        <time>2021-08-01T12:43:03Z</time>
      </trkpt>
      <trkpt lat="43.223349" lon="-4.985228">
        <ele>1810.118</ele>
        <time>2021-08-01T12:43:03Z</time>
      </trkpt>
      <trkpt lat="43.223349" lon="-4.985228">
        <ele>1810.133</ele>
        <time>2021-08-01T12:43:03Z</time>
      </trkpt>
      <trkpt lat="43.223349" lon="-4.985228">
        <ele>1810.163</ele>
        <time>2021-08-01T12:43:03Z</time>
      </trkpt>
      <trkpt lat="43.223349" lon="-4.985228">
        <ele>1810.134</ele>
        <time>2021-08-01T12:43:03Z</time>
      </trkpt>
      <trkpt lat="43.223349" lon="-4.985228">
        <ele>1810.155</ele>
        <time>2021-08-01T12:43:03Z</time>
      </trkpt>
      <trkpt lat="43.223349" lon="-4.985228">
        <ele>1810.110</ele>
        <time>2021-08-01T12:43:03Z</time>
      </trkpt>
      <trkpt lat="43.223349" lon="-4.985228">
        <ele>1810.108</ele>
        <time>2021-08-01T12:43:03Z</time>
      </trkpt>
      <trkpt lat="43.223349" lon="-4.985228">
        <ele>1810.160</ele>
        <time>2021-08-01T12:43:03Z</time>
      </trkpt>
      <trkpt lat="43.223349" lon="-4.985228">
        <ele>1810.182</ele>
        <time>2021-08-01T12:43:03Z</time>
      </trkpt>
      <trkpt lat="43.223349" lon="-4.985228">
        <ele>1810.181</ele>
        <time>2021-08-01T12:43:03Z</time>
      </trkpt>
      <trkpt lat="43.223349" lon="-4.985228">
        <ele>1810.113</ele>
        <time>2021-08-01T12:43:03Z</time>
      </trkpt>
      <trkpt lat="43.223349" lon="-4.985228">
        <ele>1810.197</ele>
        <time>2021-08-01T12:43:03Z</time>
      </trkpt>
      <trkpt lat="43.223349" lon="-4.985228">
        <ele>1810.154</ele>
        <time>2021-08-01T12:43:03Z</time>
      </trkpt>
      <trkpt lat="43.223349" lon="-4.985228">
        <ele>1810.159</ele>
        <time>2021-08-01T12:43:03Z</time>
      </trkpt>
      <trkpt lat="43.223349" lon="-4.985228">
        <ele>1810.189</ele>
        <time>2021-08-01T12:43:03Z</time>
      </trkpt>
      <trkpt lat="43.223349" lon="-4.985228">
        <ele>1810.193</ele>
        <time>2021-08-01T12:43:03Z</time>
      </trkpt>
      <trkpt lat="43.223349" lon="-4.985228">
        <ele>1810.165</ele>
        <time>2021-08-01T12:43:03Z</time>
      </trkpt>
      <trkpt lat="43.223287" lon="-4.985233">
        <ele>1809.321</ele>
        <time>2021-08-01T12:44:18Z</time>
      </trkpt>
      <trkpt lat="43.22333" lon="-4.985256">
        <ele>1809.808</ele>
        <time>2021-08-01T12:45:02Z</time>
      </trkpt>
      <trkpt lat="43.223283" lon="-4.985255">
        <ele>1810.486</ele>
        <time>2021-08-01T12:45:10Z</time>
      </trkpt>
      <trkpt lat="43.223276" lon="-4.985192">
        <ele>1810.938</ele>
        <time>2021-08-01T12:45:17Z</time>
      </trkpt>
      <trkpt lat="43.223247" lon="-4.985137">
        <ele>1812.597</ele>
        <time>2021-08-01T12:45:26Z</time>
      </trkpt>
      <trkpt lat="43.223274" lon="-4.985083">
        <ele>1813.399</ele>
        <time>2021-08-01T12:45:32Z</time>
      </trkpt>
      <trkpt lat="43.223285" lon="-4.985023">
        <ele>1814.493</ele>
        <time>2021-08-01T12:45:49Z</time>
      </trkpt>
      <trkpt lat="43.223263" lon="-4.984968">
        <ele>1815.470</ele>
        <time>2021-08-01T12:45:53Z</time>
      </trkpt>
      <trkpt lat="43.223229" lon="-4.984918">
        <ele>1815.745</ele>
        <time>2021-08-01T12:45:58Z</time>
      </trkpt>
      <trkpt lat="43.223195" lon="-4.98487">
        <ele>1815.945</ele>
        <time>2021-08-01T12:46:02Z</time>
      </trkpt>
      <trkpt lat="43.223154" lon="-4.984842">
        <ele>1817.488</ele>
        <time>2021-08-01T12:46:07Z</time>
      </trkpt>
      <trkpt lat="43.223162" lon="-4.984773">
        <ele>1818.724</ele>
        <time>2021-08-01T12:46:14Z</time>
      </trkpt>
      <trkpt lat="43.223121" lon="-4.984815">
        <ele>1821.026</ele>
        <time>2021-08-01T12:46:45Z</time>
      </trkpt>
      <trkpt lat="43.223079" lon="-4.984843">
        <ele>1822.308</ele>
        <time>2021-08-01T12:46:51Z</time>
      </trkpt>
      <trkpt lat="43.22304" lon="-4.98488">
        <ele>1823.245</ele>
        <time>2021-08-01T12:46:55Z</time>
      </trkpt>
      <trkpt lat="43.223" lon="-4.984917">
        <ele>1823.557</ele>
        <time>2021-08-01T12:47:25Z</time>
      </trkpt>
      <trkpt lat="43.222952" lon="-4.984921">
        <ele>1824.266</ele>
        <time>2021-08-01T12:47:29Z</time>
      </trkpt>
      <trkpt lat="43.22291" lon="-4.984943">
        <ele>1823.798</ele>
        <time>2021-08-01T12:47:32Z</time>
      </trkpt>
      <trkpt lat="43.222865" lon="-4.984963">
        <ele>1823.832</ele>
        <time>2021-08-01T12:47:35Z</time>
      </trkpt>
      <trkpt lat="43.22282" lon="-4.984972">
        <ele>1823.929</ele>
        <time>2021-08-01T12:47:39Z</time>
      </trkpt>
      <trkpt lat="43.222768" lon="-4.984985">
        <ele>1824.064</ele>
        <time>2021-08-01T12:47:43Z</time>
      </trkpt>
      <trkpt lat="43.222722" lon="-4.984971">
        <ele>1823.474</ele>
        <time>2021-08-01T12:47:48Z</time>
      </trkpt>
      <trkpt lat="43.222679" lon="-4.985002">
        <ele>1822.797</ele>
        <time>2021-08-01T12:48:03Z</time>
      </trkpt>
      <trkpt lat="43.22263" lon="-4.985004">
        <ele>1823.723</ele>
        <time>2021-08-01T12:48:20Z</time>
      </trkpt>
      <trkpt lat="43.22258" lon="-4.985006">
        <ele>1824.925</ele>
        <time>2021-08-01T12:48:25Z</time>
      </trkpt>
      <trkpt lat="43.222524" lon="-4.985028">
        <ele>1824.708</ele>
        <time>2021-08-01T12:48:31Z</time>
      </trkpt>
      <trkpt lat="43.222496" lon="-4.985084">
        <ele>1826.656</ele>
        <time>2021-08-01T12:48:41Z</time>
      </trkpt>
      <trkpt lat="43.22249" lon="-4.985146">
        <ele>1827.898</ele>
        <time>2021-08-01T12:48:55Z</time>
      </trkpt>
      <trkpt lat="43.222516" lon="-4.985196">
        <ele>1829.027</ele>
        <time>2021-08-01T12:49:05Z</time>
      </trkpt>
      <trkpt lat="43.222561" lon="-4.98523">
        <ele>1831.679</ele>
        <time>2021-08-01T12:49:11Z</time>
      </trkpt>
      <trkpt lat="43.22261" lon="-4.985239">
        <ele>1834.213</ele>
        <time>2021-08-01T12:49:32Z</time>
      </trkpt>
      <trkpt lat="43.222643" lon="-4.985284">
        <ele>1836.550</ele>
        <time>2021-08-01T12:49:37Z</time>
      </trkpt>
      <trkpt lat="43.22268" lon="-4.985324">
        <ele>1838.325</ele>
        <time>2021-08-01T12:49:41Z</time>
      </trkpt>
      <trkpt lat="43.222691" lon="-4.98539">
        <ele>1840.275</ele>
        <time>2021-08-01T12:49:48Z</time>
      </trkpt>
      <trkpt lat="43.22267" lon="-4.985449">
        <ele>1841.768</ele>
        <time>2021-08-01T12:49:54Z</time>
      </trkpt>
      <trkpt lat="43.22268" lon="-4.985515">
        <ele>1843.142</ele>
        <time>2021-08-01T12:50:00Z</time>
      </trkpt>
      <trkpt lat="43.222698" lon="-4.985576">
        <ele>1843.926</ele>
        <time>2021-08-01T12:50:03Z</time>
      </trkpt>
      <trkpt lat="43.222701" lon="-4.985643">
        <ele>1844.208</ele>
        <time>2021-08-01T12:50:08Z</time>
      </trkpt>
      <trkpt lat="43.222659" lon="-4.985681">
        <ele>1845.153</ele>
        <time>2021-08-01T12:50:16Z</time>
      </trkpt>
      <trkpt lat="43.222617" lon="-4.985712">
        <ele>1845.375</ele>
        <time>2021-08-01T12:50:21Z</time>
      </trkpt>
      <trkpt lat="43.222571" lon="-4.985727">
        <ele>1845.574</ele>
        <time>2021-08-01T12:50:25Z</time>
      </trkpt>
      <trkpt lat="43.222548" lon="-4.985784">
        <ele>1845.256</ele>
        <time>2021-08-01T12:50:32Z</time>
      </trkpt>
      <trkpt lat="43.222554" lon="-4.985855">
        <ele>1845.470</ele>
        <time>2021-08-01T12:50:39Z</time>
      </trkpt>
      <trkpt lat="43.222591" lon="-4.985906">
        <ele>1845.937</ele>
        <time>2021-08-01T12:50:44Z</time>
      </trkpt>
      <trkpt lat="43.222606" lon="-4.985965">
        <ele>1845.352</ele>
        <time>2021-08-01T12:50:50Z</time>
      </trkpt>
      <trkpt lat="43.222576" lon="-4.986015">
        <ele>1845.192</ele>
        <time>2021-08-01T12:50:56Z</time>
      </trkpt>
      <trkpt lat="43.222539" lon="-4.986066">
        <ele>1844.164</ele>
        <time>2021-08-01T12:51:01Z</time>
      </trkpt>
      <trkpt lat="43.222529" lon="-4.98613">
        <ele>1843.406</ele>
        <time>2021-08-01T12:51:06Z</time>
      </trkpt>
      <trkpt lat="43.22251" lon="-4.986193">
        <ele>1842.616</ele>
        <time>2021-08-01T12:51:13Z</time>
      </trkpt>
      <trkpt lat="43.222559" lon="-4.986257">
        <ele>1843.108</ele>
        <time>2021-08-01T12:51:50Z</time>
      </trkpt>
      <trkpt lat="43.222526" lon="-4.986302">
        <ele>1845.063</ele>
        <time>2021-08-01T12:52:12Z</time>
      </trkpt>
      <trkpt lat="43.22251" lon="-4.986363">
        <ele>1846.695</ele>
        <time>2021-08-01T12:52:24Z</time>
      </trkpt>
      <trkpt lat="43.222483" lon="-4.986414">
        <ele>1847.234</ele>
        <time>2021-08-01T12:52:30Z</time>
      </trkpt>
      <trkpt lat="43.222461" lon="-4.986471">
        <ele>1847.286</ele>
        <time>2021-08-01T12:52:36Z</time>
      </trkpt>
      <trkpt lat="43.222433" lon="-4.986535">
        <ele>1848.530</ele>
        <time>2021-08-01T12:52:42Z</time>
      </trkpt>
      <trkpt lat="43.22239" lon="-4.986559">
        <ele>1849.217</ele>
        <time>2021-08-01T12:52:47Z</time>
      </trkpt>
      <trkpt lat="43.222438" lon="-4.98655">
        <ele>1849.662</ele>
        <time>2021-08-01T12:54:20Z</time>
      </trkpt>
      <trkpt lat="43.222389" lon="-4.986561">
        <ele>1849.982</ele>
        <time>2021-08-01T12:56:20Z</time>
      </trkpt>
      <trkpt lat="43.222341" lon="-4.986562">
        <ele>1850.139</ele>
        <time>2021-08-01T12:56:39Z</time>
      </trkpt>
      <trkpt lat="43.222297" lon="-4.986577">
        <ele>1854.101</ele>
        <time>2021-08-01T12:56:43Z</time>
      </trkpt>
      <trkpt lat="43.222258" lon="-4.98662">
        <ele>1857.821</ele>
        <time>2021-08-01T12:56:49Z</time>
      </trkpt>
      <trkpt lat="43.222234" lon="-4.986686">
        <ele>1860.508</ele>
        <time>2021-08-01T12:56:54Z</time>
      </trkpt>
      <trkpt lat="43.222217" lon="-4.986747">
        <ele>1862.330</ele>
        <time>2021-08-01T12:56:58Z</time>
      </trkpt>
      <trkpt lat="43.222205" lon="-4.986812">
        <ele>1863.082</ele>
        <time>2021-08-01T12:57:03Z</time>
      </trkpt>
      <trkpt lat="43.222158" lon="-4.986848">
        <ele>1863.851</ele>
        <time>2021-08-01T12:57:08Z</time>
      </trkpt>
      <trkpt lat="43.222134" lon="-4.986905">
        <ele>1863.823</ele>
        <time>2021-08-01T12:57:26Z</time>
      </trkpt>
      <trkpt lat="43.222127" lon="-4.98698">
        <ele>1863.547</ele>
        <time>2021-08-01T12:57:31Z</time>
      </trkpt>
      <trkpt lat="43.222122" lon="-4.987046">
        <ele>1862.344</ele>
        <time>2021-08-01T12:57:36Z</time>
      </trkpt>
      <trkpt lat="43.222106" lon="-4.987105">
        <ele>1862.369</ele>
        <time>2021-08-01T12:57:40Z</time>
      </trkpt>
      <trkpt lat="43.222116" lon="-4.987171">
        <ele>1862.469</ele>
        <time>2021-08-01T12:57:45Z</time>
      </trkpt>
      <trkpt lat="43.222126" lon="-4.987233">
        <ele>1862.051</ele>
        <time>2021-08-01T12:57:50Z</time>
      </trkpt>
      <trkpt lat="43.222115" lon="-4.987295">
        <ele>1861.601</ele>
        <time>2021-08-01T12:57:58Z</time>
      </trkpt>
      <trkpt lat="43.222079" lon="-4.987337">
        <ele>1861.911</ele>
        <time>2021-08-01T12:58:05Z</time>
      </trkpt>
      <trkpt lat="43.222084" lon="-4.9874">
        <ele>1862.208</ele>
        <time>2021-08-01T12:58:12Z</time>
      </trkpt>
      <trkpt lat="43.222055" lon="-4.987454">
        <ele>1863.612</ele>
        <time>2021-08-01T12:58:19Z</time>
      </trkpt>
      <trkpt lat="43.222052" lon="-4.987516">
        <ele>1864.414</ele>
        <time>2021-08-01T12:58:26Z</time>
      </trkpt>
      <trkpt lat="43.222083" lon="-4.987571">
        <ele>1865.013</ele>
        <time>2021-08-01T12:58:32Z</time>
      </trkpt>
      <trkpt lat="43.222063" lon="-4.987628">
        <ele>1865.115</ele>
        <time>2021-08-01T12:58:47Z</time>
      </trkpt>
      <trkpt lat="43.22206" lon="-4.987691">
        <ele>1865.739</ele>
        <time>2021-08-01T12:59:01Z</time>
      </trkpt>
      <trkpt lat="43.222056" lon="-4.987754">
        <ele>1866.836</ele>
        <time>2021-08-01T12:59:14Z</time>
      </trkpt>
      <trkpt lat="43.222017" lon="-4.98779">
        <ele>1867.981</ele>
        <time>2021-08-01T12:59:20Z</time>
      </trkpt>
      <trkpt lat="43.222001" lon="-4.987852">
        <ele>1869.021</ele>
        <time>2021-08-01T12:59:27Z</time>
      </trkpt>
      <trkpt lat="43.222017" lon="-4.987917">
        <ele>1870.247</ele>
        <time>2021-08-01T12:59:35Z</time>
      </trkpt>
      <trkpt lat="43.222008" lon="-4.987982">
        <ele>1870.129</ele>
        <time>2021-08-01T12:59:42Z</time>
      </trkpt>
      <trkpt lat="43.222015" lon="-4.988048">
        <ele>1870.321</ele>
        <time>2021-08-01T13:00:06Z</time>
      </trkpt>
      <trkpt lat="43.222005" lon="-4.988116">
        <ele>1870.308</ele>
        <time>2021-08-01T13:00:18Z</time>
      </trkpt>
      <trkpt lat="43.221974" lon="-4.988165">
        <ele>1869.781</ele>
        <time>2021-08-01T13:00:23Z</time>
      </trkpt>
      <trkpt lat="43.221943" lon="-4.988212">
        <ele>1868.483</ele>
        <time>2021-08-01T13:00:29Z</time>
      </trkpt>
      <trkpt lat="43.22191" lon="-4.988261">
        <ele>1867.822</ele>
        <time>2021-08-01T13:00:34Z</time>
      </trkpt>
      <trkpt lat="43.221902" lon="-4.988327">
        <ele>1867.114</ele>
        <time>2021-08-01T13:00:47Z</time>
      </trkpt>
      <trkpt lat="43.221912" lon="-4.988388">
        <ele>1866.638</ele>
        <time>2021-08-01T13:00:52Z</time>
      </trkpt>
      <trkpt lat="43.221887" lon="-4.988441">
        <ele>1866.465</ele>
        <time>2021-08-01T13:00:59Z</time>
      </trkpt>
      <trkpt lat="43.22185" lon="-4.988511">
        <ele>1865.920</ele>
        <time>2021-08-01T13:01:07Z</time>
      </trkpt>
      <trkpt lat="43.221805" lon="-4.988542">
        <ele>1865.450</ele>
        <time>2021-08-01T13:01:12Z</time>
      </trkpt>
      <trkpt lat="43.221761" lon="-4.988579">
        <ele>1864.639</ele>
        <time>2021-08-01T13:01:17Z</time>
      </trkpt>
      <trkpt lat="43.221742" lon="-4.988636">
        <ele>1864.001</ele>
        <time>2021-08-01T13:01:24Z</time>
      </trkpt>
      <trkpt lat="43.221781" lon="-4.988669">
        <ele>1863.821</ele>
        <time>2021-08-01T13:01:30Z</time>
      </trkpt>
      <trkpt lat="43.221817" lon="-4.988706">
        <ele>1863.408</ele>
        <time>2021-08-01T13:01:37Z</time>
      </trkpt>
      <trkpt lat="43.221844" lon="-4.988761">
        <ele>1864.260</ele>
        <time>2021-08-01T13:01:42Z</time>
      </trkpt>
      <trkpt lat="43.221803" lon="-4.988735">
        <ele>1864.942</ele>
        <time>2021-08-01T13:01:55Z</time>
      </trkpt>
      <trkpt lat="43.221784" lon="-4.988676">
        <ele>1866.661</ele>
        <time>2021-08-01T13:02:03Z</time>
      </trkpt>
      <trkpt lat="43.221737" lon="-4.988667">
        <ele>1868.413</ele>
        <time>2021-08-01T13:02:20Z</time>
      </trkpt>
      <trkpt lat="43.221687" lon="-4.988676">
        <ele>1870.087</ele>
        <time>2021-08-01T13:02:49Z</time>
      </trkpt>
      <trkpt lat="43.221642" lon="-4.988681">
        <ele>1871.014</ele>
        <time>2021-08-01T13:02:54Z</time>
      </trkpt>
      <trkpt lat="43.221592" lon="-4.988668">
        <ele>1871.869</ele>
        <time>2021-08-01T13:03:01Z</time>
      </trkpt>
      <trkpt lat="43.221575" lon="-4.988732">
        <ele>1873.239</ele>
        <time>2021-08-01T13:03:11Z</time>
      </trkpt>
      <trkpt lat="43.221606" lon="-4.988787">
        <ele>1874.027</ele>
        <time>2021-08-01T13:03:17Z</time>
      </trkpt>
      <trkpt lat="43.221636" lon="-4.988843">
        <ele>1874.368</ele>
        <time>2021-08-01T13:03:25Z</time>
      </trkpt>
      <trkpt lat="43.221664" lon="-4.988901">
        <ele>1875.214</ele>
        <time>2021-08-01T13:03:32Z</time>
      </trkpt>
      <trkpt lat="43.221683" lon="-4.988962">
        <ele>1875.308</ele>
        <time>2021-08-01T13:03:41Z</time>
      </trkpt>
      <trkpt lat="43.221672" lon="-4.989024">
        <ele>1877.699</ele>
        <time>2021-08-01T13:05:40Z</time>
      </trkpt>
      <trkpt lat="43.221625" lon="-4.989017">
        <ele>1879.161</ele>
        <time>2021-08-01T13:05:53Z</time>
      </trkpt>
      <trkpt lat="43.221583" lon="-4.988996">
        <ele>1879.970</ele>
        <time>2021-08-01T13:05:59Z</time>
      </trkpt>
      <trkpt lat="43.221538" lon="-4.989007">
        <ele>1880.132</ele>
        <time>2021-08-01T13:06:04Z</time>
      </trkpt>
      <trkpt lat="43.221534" lon="-4.989071">
        <ele>1880.226</ele>
        <time>2021-08-01T13:06:15Z</time>
      </trkpt>
      <trkpt lat="43.221568" lon="-4.989028">
        <ele>1881.113</ele>
        <time>2021-08-01T13:06:33Z</time>
      </trkpt>
      <trkpt lat="43.221614" lon="-4.989044">
        <ele>1882.688</ele>
        <time>2021-08-01T13:06:42Z</time>
      </trkpt>
      <trkpt lat="43.221596" lon="-4.989115">
        <ele>1882.388</ele>
        <time>2021-08-01T13:07:45Z</time>
      </trkpt>
      <trkpt lat="43.221562" lon="-4.989161">
        <ele>1882.493</ele>
        <time>2021-08-01T13:07:49Z</time>
      </trkpt>
      <trkpt lat="43.221537" lon="-4.989214">
        <ele>1885.065</ele>
        <time>2021-08-01T13:08:33Z</time>
      </trkpt>
      <trkpt lat="43.221523" lon="-4.989154">
        <ele>1888.121</ele>
        <time>2021-08-01T13:08:49Z</time>
      </trkpt>
      <trkpt lat="43.221491" lon="-4.989109">
        <ele>1891.108</ele>
        <time>2021-08-01T13:08:54Z</time>
      </trkpt>
      <trkpt lat="43.221446" lon="-4.989107">
        <ele>1892.936</ele>
        <time>2021-08-01T13:08:59Z</time>
      </trkpt>
      <trkpt lat="43.221414" lon="-4.98906">
        <ele>1894.478</ele>
        <time>2021-08-01T13:09:04Z</time>
      </trkpt>
      <trkpt lat="43.221377" lon="-4.989014">
        <ele>1896.037</ele>
        <time>2021-08-01T13:09:10Z</time>
      </trkpt>
      <trkpt lat="43.221364" lon="-4.988947">
        <ele>1897.569</ele>
        <time>2021-08-01T13:09:27Z</time>
      </trkpt>
      <trkpt lat="43.22132" lon="-4.988924">
        <ele>1898.863</ele>
        <time>2021-08-01T13:09:34Z</time>
      </trkpt>
      <trkpt lat="43.22127" lon="-4.988909">
        <ele>1902.260</ele>
        <time>2021-08-01T13:10:59Z</time>
      </trkpt>
      <trkpt lat="43.221232" lon="-4.988872">
        <ele>1903.745</ele>
        <time>2021-08-01T13:11:07Z</time>
      </trkpt>
      <trkpt lat="43.221185" lon="-4.988849">
        <ele>1905.155</ele>
        <time>2021-08-01T13:11:37Z</time>
      </trkpt>
      <trkpt lat="43.221145" lon="-4.988806">
        <ele>1906.377</ele>
        <time>2021-08-01T13:11:42Z</time>
      </trkpt>
      <trkpt lat="43.2211" lon="-4.988777">
        <ele>1908.261</ele>
        <time>2021-08-01T13:12:04Z</time>
      </trkpt>
      <trkpt lat="43.221077" lon="-4.988722">
        <ele>1909.627</ele>
        <time>2021-08-01T13:12:09Z</time>
      </trkpt>
      <trkpt lat="43.221063" lon="-4.988656">
        <ele>1910.608</ele>
        <time>2021-08-01T13:12:15Z</time>
      </trkpt>
      <trkpt lat="43.22102" lon="-4.988632">
        <ele>1912.054</ele>
        <time>2021-08-01T13:12:49Z</time>
      </trkpt>
      <trkpt lat="43.220974" lon="-4.9886">
        <ele>1912.766</ele>
        <time>2021-08-01T13:12:56Z</time>
      </trkpt>
      <trkpt lat="43.22093" lon="-4.988586">
        <ele>1914.255</ele>
        <time>2021-08-01T13:13:03Z</time>
      </trkpt>
      <trkpt lat="43.220884" lon="-4.988582">
        <ele>1915.117</ele>
        <time>2021-08-01T13:13:19Z</time>
      </trkpt>
      <trkpt lat="43.220837" lon="-4.988586">
        <ele>1916.591</ele>
        <time>2021-08-01T13:13:25Z</time>
      </trkpt>
      <trkpt lat="43.220787" lon="-4.988595">
        <ele>1918.088</ele>
        <time>2021-08-01T13:13:32Z</time>
      </trkpt>
      <trkpt lat="43.220743" lon="-4.988577">
        <ele>1918.573</ele>
        <time>2021-08-01T13:13:41Z</time>
      </trkpt>
      <trkpt lat="43.220768" lon="-4.988524">
        <ele>1919.593</ele>
        <time>2021-08-01T13:14:06Z</time>
      </trkpt>
      <trkpt lat="43.220727" lon="-4.988487">
        <ele>1921.191</ele>
        <time>2021-08-01T13:14:32Z</time>
      </trkpt>
      <trkpt lat="43.220681" lon="-4.988492">
        <ele>1922.481</ele>
        <time>2021-08-01T13:14:35Z</time>
      </trkpt>
      <trkpt lat="43.220633" lon="-4.988495">
        <ele>1923.419</ele>
        <time>2021-08-01T13:14:40Z</time>
      </trkpt>
      <trkpt lat="43.220588" lon="-4.988474">
        <ele>1924.608</ele>
        <time>2021-08-01T13:14:46Z</time>
      </trkpt>
      <trkpt lat="43.220538" lon="-4.98848">
        <ele>1925.236</ele>
        <time>2021-08-01T13:14:52Z</time>
      </trkpt>
      <trkpt lat="43.220508" lon="-4.988527">
        <ele>1925.668</ele>
        <time>2021-08-01T13:16:41Z</time>
      </trkpt>
      <trkpt lat="43.220474" lon="-4.98857">
        <ele>1929.697</ele>
        <time>2021-08-01T13:16:48Z</time>
      </trkpt>
      <trkpt lat="43.220426" lon="-4.988598">
        <ele>1933.379</ele>
        <time>2021-08-01T13:16:51Z</time>
      </trkpt>
      <trkpt lat="43.220381" lon="-4.988613">
        <ele>1936.343</ele>
        <time>2021-08-01T13:16:54Z</time>
      </trkpt>
      <trkpt lat="43.220373" lon="-4.988551">
        <ele>1937.530</ele>
        <time>2021-08-01T13:17:04Z</time>
      </trkpt>
      <trkpt lat="43.220386" lon="-4.988491">
        <ele>1938.245</ele>
        <time>2021-08-01T13:17:12Z</time>
      </trkpt>
      <trkpt lat="43.220416" lon="-4.988441">
        <ele>1938.385</ele>
        <time>2021-08-01T13:17:22Z</time>
      </trkpt>
      <trkpt lat="43.220459" lon="-4.988408">
        <ele>1938.695</ele>
        <time>2021-08-01T13:17:34Z</time>
      </trkpt>
      <trkpt lat="43.220454" lon="-4.988342">
        <ele>1939.149</ele>
        <time>2021-08-01T13:17:47Z</time>
      </trkpt>
      <trkpt lat="43.220483" lon="-4.988287">
        <ele>1939.723</ele>
        <time>2021-08-01T13:17:51Z</time>
      </trkpt>
      <trkpt lat="43.220507" lon="-4.988226">
        <ele>1940.208</ele>
        <time>2021-08-01T13:17:57Z</time>
      </trkpt>
      <trkpt lat="43.220531" lon="-4.988166">
        <ele>1940.716</ele>
        <time>2021-08-01T13:18:02Z</time>
      </trkpt>
      <trkpt lat="43.220497" lon="-4.988125">
        <ele>1941.658</ele>
        <time>2021-08-01T13:18:24Z</time>
      </trkpt>
      <trkpt lat="43.220474" lon="-4.988068">
        <ele>1942.797</ele>
        <time>2021-08-01T13:18:38Z</time>
      </trkpt>
      <trkpt lat="43.220449" lon="-4.98801">
        <ele>1943.429</ele>
        <time>2021-08-01T13:18:44Z</time>
      </trkpt>
      <trkpt lat="43.220439" lon="-4.987939">
        <ele>1944.423</ele>
        <time>2021-08-01T13:18:50Z</time>
      </trkpt>
      <trkpt lat="43.220427" lon="-4.987877">
        <ele>1945.030</ele>
        <time>2021-08-01T13:18:56Z</time>
      </trkpt>
      <trkpt lat="43.220422" lon="-4.98781">
        <ele>1946.125</ele>
        <time>2021-08-01T13:19:02Z</time>
      </trkpt>
      <trkpt lat="43.220391" lon="-4.987755">
        <ele>1947.285</ele>
        <time>2021-08-01T13:19:25Z</time>
      </trkpt>
      <trkpt lat="43.220369" lon="-4.987699">
        <ele>1948.016</ele>
        <time>2021-08-01T13:19:34Z</time>
      </trkpt>
      <trkpt lat="43.220331" lon="-4.987657">
        <ele>1949.476</ele>
        <time>2021-08-01T13:19:41Z</time>
      </trkpt>
      <trkpt lat="43.220288" lon="-4.98763">
        <ele>1950.513</ele>
        <time>2021-08-01T13:19:47Z</time>
      </trkpt>
      <trkpt lat="43.220251" lon="-4.987588">
        <ele>1951.908</ele>
        <time>2021-08-01T13:19:52Z</time>
      </trkpt>
      <trkpt lat="43.220225" lon="-4.987536">
        <ele>1953.388</ele>
        <time>2021-08-01T13:19:59Z</time>
      </trkpt>
      <trkpt lat="43.220183" lon="-4.987508">
        <ele>1956.510</ele>
        <time>2021-08-01T13:20:37Z</time>
      </trkpt>
      <trkpt lat="43.220135" lon="-4.987493">
        <ele>1960.319</ele>
        <time>2021-08-01T13:21:22Z</time>
      </trkpt>
      <trkpt lat="43.220085" lon="-4.987468">
        <ele>1963.331</ele>
        <time>2021-08-01T13:21:50Z</time>
      </trkpt>
      <trkpt lat="43.220053" lon="-4.987424">
        <ele>1966.095</ele>
        <time>2021-08-01T13:21:58Z</time>
      </trkpt>
      <trkpt lat="43.22003" lon="-4.987368">
        <ele>1967.732</ele>
        <time>2021-08-01T13:22:09Z</time>
      </trkpt>
      <trkpt lat="43.219989" lon="-4.987335">
        <ele>1970.557</ele>
        <time>2021-08-01T13:22:26Z</time>
      </trkpt>
      <trkpt lat="43.219945" lon="-4.987319">
        <ele>1971.977</ele>
        <time>2021-08-01T13:22:39Z</time>
      </trkpt>
      <trkpt lat="43.219906" lon="-4.987352">
        <ele>1973.668</ele>
        <time>2021-08-01T13:22:46Z</time>
      </trkpt>
      <trkpt lat="43.219893" lon="-4.987413">
        <ele>1974.842</ele>
        <time>2021-08-01T13:23:04Z</time>
      </trkpt>
      <trkpt lat="43.219846" lon="-4.987412">
        <ele>1975.326</ele>
        <time>2021-08-01T13:23:13Z</time>
      </trkpt>
      <trkpt lat="43.219814" lon="-4.987366">
        <ele>1976.708</ele>
        <time>2021-08-01T13:23:37Z</time>
      </trkpt>
      <trkpt lat="43.219771" lon="-4.987336">
        <ele>1978.063</ele>
        <time>2021-08-01T13:23:54Z</time>
      </trkpt>
      <trkpt lat="43.219721" lon="-4.987407">
        <ele>1980.565</ele>
        <time>2021-08-01T13:30:42Z</time>
      </trkpt>
      <trkpt lat="43.219721" lon="-4.987407">
        <ele>1980.564</ele>
        <time>2021-08-01T13:30:42Z</time>
      </trkpt>
      <trkpt lat="43.219721" lon="-4.987407">
        <ele>1980.546</ele>
        <time>2021-08-01T13:30:42Z</time>
      </trkpt>
      <trkpt lat="43.219721" lon="-4.987407">
        <ele>1980.550</ele>
        <time>2021-08-01T13:30:42Z</time>
      </trkpt>
      <trkpt lat="43.219721" lon="-4.987407">
        <ele>1980.517</ele>
        <time>2021-08-01T13:30:42Z</time>
      </trkpt>
      <trkpt lat="43.219721" lon="-4.987407">
        <ele>1980.552</ele>
        <time>2021-08-01T13:30:42Z</time>
      </trkpt>
      <trkpt lat="43.219721" lon="-4.987407">
        <ele>1980.552</ele>
        <time>2021-08-01T13:30:42Z</time>
      </trkpt>
      <trkpt lat="43.219721" lon="-4.987407">
        <ele>1980.575</ele>
        <time>2021-08-01T13:30:42Z</time>
      </trkpt>
      <trkpt lat="43.219721" lon="-4.987407">
        <ele>1980.528</ele>
        <time>2021-08-01T13:30:42Z</time>
      </trkpt>
      <trkpt lat="43.219721" lon="-4.987407">
        <ele>1980.520</ele>
        <time>2021-08-01T13:30:42Z</time>
      </trkpt>
      <trkpt lat="43.219721" lon="-4.987407">
        <ele>1980.508</ele>
        <time>2021-08-01T13:30:42Z</time>
      </trkpt>
      <trkpt lat="43.219721" lon="-4.987407">
        <ele>1980.564</ele>
        <time>2021-08-01T13:30:42Z</time>
      </trkpt>
      <trkpt lat="43.219721" lon="-4.987407">
        <ele>1980.536</ele>
        <time>2021-08-01T13:30:42Z</time>
      </trkpt>
      <trkpt lat="43.219721" lon="-4.987407">
        <ele>1980.575</ele>
        <time>2021-08-01T13:30:42Z</time>
      </trkpt>
      <trkpt lat="43.219721" lon="-4.987407">
        <ele>1980.527</ele>
        <time>2021-08-01T13:30:42Z</time>
      </trkpt>
      <trkpt lat="43.219721" lon="-4.987407">
        <ele>1980.541</ele>
        <time>2021-08-01T13:30:42Z</time>
      </trkpt>
      <trkpt lat="43.219721" lon="-4.987407">
        <ele>1980.548</ele>
        <time>2021-08-01T13:30:42Z</time>
      </trkpt>
      <trkpt lat="43.219721" lon="-4.987407">
        <ele>1980.583</ele>
        <time>2021-08-01T13:30:42Z</time>
      </trkpt>
      <trkpt lat="43.219721" lon="-4.987407">
        <ele>1980.583</ele>
        <time>2021-08-01T13:30:42Z</time>
      </trkpt>
      <trkpt lat="43.219721" lon="-4.987407">
        <ele>1980.518</ele>
        <time>2021-08-01T13:30:42Z</time>
      </trkpt>
      <trkpt lat="43.219721" lon="-4.987407">
        <ele>1980.598</ele>
        <time>2021-08-01T13:30:42Z</time>
      </trkpt>
      <trkpt lat="43.219721" lon="-4.987407">
        <ele>1980.517</ele>
        <time>2021-08-01T13:30:42Z</time>
      </trkpt>
      <trkpt lat="43.219721" lon="-4.987407">
        <ele>1980.508</ele>
        <time>2021-08-01T13:30:42Z</time>
      </trkpt>
      <trkpt lat="43.219721" lon="-4.987407">
        <ele>1980.538</ele>
        <time>2021-08-01T13:30:42Z</time>
      </trkpt>
      <trkpt lat="43.219721" lon="-4.987407">
        <ele>1980.570</ele>
        <time>2021-08-01T13:30:42Z</time>
      </trkpt>
      <trkpt lat="43.219721" lon="-4.987407">
        <ele>1980.569</ele>
        <time>2021-08-01T13:30:42Z</time>
      </trkpt>
      <trkpt lat="43.219721" lon="-4.987407">
        <ele>1980.551</ele>
        <time>2021-08-01T13:30:42Z</time>
      </trkpt>
      <trkpt lat="43.219721" lon="-4.987407">
        <ele>1980.585</ele>
        <time>2021-08-01T13:30:42Z</time>
      </trkpt>
      <trkpt lat="43.219721" lon="-4.987407">
        <ele>1980.552</ele>
        <time>2021-08-01T13:30:42Z</time>
      </trkpt>
      <trkpt lat="43.219721" lon="-4.987407">
        <ele>1980.597</ele>
        <time>2021-08-01T13:30:42Z</time>
      </trkpt>
      <trkpt lat="43.219721" lon="-4.987407">
        <ele>1980.557</ele>
        <time>2021-08-01T13:30:42Z</time>
      </trkpt>
      <trkpt lat="43.219721" lon="-4.987407">
        <ele>1980.578</ele>
        <time>2021-08-01T13:30:42Z</time>
      </trkpt>
      <trkpt lat="43.219721" lon="-4.987407">
        <ele>1980.533</ele>
        <time>2021-08-01T13:30:42Z</time>
      </trkpt>
      <trkpt lat="43.219721" lon="-4.987407">
        <ele>1980.526</ele>
        <time>2021-08-01T13:30:42Z</time>
      </trkpt>
      <trkpt lat="43.219721" lon="-4.987407">
        <ele>1980.508</ele>
        <time>2021-08-01T13:30:42Z</time>
      </trkpt>
      <trkpt lat="43.219721" lon="-4.987407">
        <ele>1980.584</ele>
        <time>2021-08-01T13:30:42Z</time>
      </trkpt>
      <trkpt lat="43.219721" lon="-4.987407">
        <ele>1980.586</ele>
        <time>2021-08-01T13:30:42Z</time>
      </trkpt>
      <trkpt lat="43.219721" lon="-4.987407">
        <ele>1980.555</ele>
        <time>2021-08-01T13:30:42Z</time>
      </trkpt>
      <trkpt lat="43.219721" lon="-4.987407">
        <ele>1980.597</ele>
        <time>2021-08-01T13:30:42Z</time>
      </trkpt>
      <trkpt lat="43.219721" lon="-4.987407">
        <ele>1980.581</ele>
        <time>2021-08-01T13:30:42Z</time>
      </trkpt>
      <trkpt lat="43.219721" lon="-4.987407">
        <ele>1980.558</ele>
        <time>2021-08-01T13:30:42Z</time>
      </trkpt>
      <trkpt lat="43.219721" lon="-4.987407">
        <ele>1980.543</ele>
        <time>2021-08-01T13:30:42Z</time>
      </trkpt>
      <trkpt lat="43.219721" lon="-4.987407">
        <ele>1980.593</ele>
        <time>2021-08-01T13:30:42Z</time>
      </trkpt>
      <trkpt lat="43.219721" lon="-4.987407">
        <ele>1980.544</ele>
        <time>2021-08-01T13:30:42Z</time>
      </trkpt>
      <trkpt lat="43.219721" lon="-4.987407">
        <ele>1980.505</ele>
        <time>2021-08-01T13:30:42Z</time>
      </trkpt>
      <trkpt lat="43.219721" lon="-4.987407">
        <ele>1980.515</ele>
        <time>2021-08-01T13:30:42Z</time>
      </trkpt>
      <trkpt lat="43.219721" lon="-4.987407">
        <ele>1980.508</ele>
        <time>2021-08-01T13:30:42Z</time>
      </trkpt>
      <trkpt lat="43.219721" lon="-4.987407">
        <ele>1980.581</ele>
        <time>2021-08-01T13:30:42Z</time>
      </trkpt>
      <trkpt lat="43.219721" lon="-4.987407">
        <ele>1980.573</ele>
        <time>2021-08-01T13:30:42Z</time>
      </trkpt>
      <trkpt lat="43.219721" lon="-4.987407">
        <ele>1980.582</ele>
        <time>2021-08-01T13:30:42Z</time>
      </trkpt>
      <trkpt lat="43.219721" lon="-4.987407">
        <ele>1980.534</ele>
        <time>2021-08-01T13:30:42Z</time>
      </trkpt>
      <trkpt lat="43.219721" lon="-4.987407">
        <ele>1980.598</ele>
        <time>2021-08-01T13:30:42Z</time>
      </trkpt>
      <trkpt lat="43.219721" lon="-4.987407">
        <ele>1980.515</ele>
        <time>2021-08-01T13:30:42Z</time>
      </trkpt>
      <trkpt lat="43.219721" lon="-4.987407">
        <ele>1980.510</ele>
        <time>2021-08-01T13:30:42Z</time>
      </trkpt>
      <trkpt lat="43.219721" lon="-4.987407">
        <ele>1980.520</ele>
        <time>2021-08-01T13:30:42Z</time>
      </trkpt>
      <trkpt lat="43.219721" lon="-4.987407">
        <ele>1980.562</ele>
        <time>2021-08-01T13:30:42Z</time>
      </trkpt>
      <trkpt lat="43.219721" lon="-4.987407">
        <ele>1980.583</ele>
        <time>2021-08-01T13:30:42Z</time>
      </trkpt>
      <trkpt lat="43.219721" lon="-4.987407">
        <ele>1980.511</ele>
        <time>2021-08-01T13:30:42Z</time>
      </trkpt>
      <trkpt lat="43.219721" lon="-4.987407">
        <ele>1980.508</ele>
        <time>2021-08-01T13:30:42Z</time>
      </trkpt>
      <trkpt lat="43.219721" lon="-4.987407">
        <ele>1980.533</ele>
        <time>2021-08-01T13:30:42Z</time>
      </trkpt>
      <trkpt lat="43.219721" lon="-4.987407">
        <ele>1980.585</ele>
        <time>2021-08-01T13:30:42Z</time>
      </trkpt>
      <trkpt lat="43.219721" lon="-4.987407">
        <ele>1980.584</ele>
        <time>2021-08-01T13:30:42Z</time>
      </trkpt>
      <trkpt lat="43.219721" lon="-4.987407">
        <ele>1980.536</ele>
        <time>2021-08-01T13:30:42Z</time>
      </trkpt>
      <trkpt lat="43.219721" lon="-4.987407">
        <ele>1980.520</ele>
        <time>2021-08-01T13:30:42Z</time>
      </trkpt>
      <trkpt lat="43.219721" lon="-4.987407">
        <ele>1980.587</ele>
        <time>2021-08-01T13:30:42Z</time>
      </trkpt>
      <trkpt lat="43.219721" lon="-4.987407">
        <ele>1980.592</ele>
        <time>2021-08-01T13:30:42Z</time>
      </trkpt>
      <trkpt lat="43.219721" lon="-4.987407">
        <ele>1980.522</ele>
        <time>2021-08-01T13:30:42Z</time>
      </trkpt>
      <trkpt lat="43.219721" lon="-4.987407">
        <ele>1980.561</ele>
        <time>2021-08-01T13:30:42Z</time>
      </trkpt>
      <trkpt lat="43.219721" lon="-4.987407">
        <ele>1980.521</ele>
        <time>2021-08-01T13:30:42Z</time>
      </trkpt>
      <trkpt lat="43.219721" lon="-4.987407">
        <ele>1980.513</ele>
        <time>2021-08-01T13:30:42Z</time>
      </trkpt>
      <trkpt lat="43.219721" lon="-4.987407">
        <ele>1980.508</ele>
        <time>2021-08-01T13:30:42Z</time>
      </trkpt>
      <trkpt lat="43.219721" lon="-4.987407">
        <ele>1980.523</ele>
        <time>2021-08-01T13:30:42Z</time>
      </trkpt>
      <trkpt lat="43.219721" lon="-4.987407">
        <ele>1980.565</ele>
        <time>2021-08-01T13:30:42Z</time>
      </trkpt>
      <trkpt lat="43.219721" lon="-4.987407">
        <ele>1980.564</ele>
        <time>2021-08-01T13:30:42Z</time>
      </trkpt>
      <trkpt lat="43.219721" lon="-4.987407">
        <ele>1980.576</ele>
        <time>2021-08-01T13:30:42Z</time>
      </trkpt>
      <trkpt lat="43.219678" lon="-4.987387">
        <ele>1982.380</ele>
        <time>2021-08-01T13:31:30Z</time>
      </trkpt>
      <trkpt lat="43.219639" lon="-4.987347">
        <ele>1982.927</ele>
        <time>2021-08-01T13:31:35Z</time>
      </trkpt>
      <trkpt lat="43.219587" lon="-4.987319">
        <ele>1983.142</ele>
        <time>2021-08-01T13:31:39Z</time>
      </trkpt>
      <trkpt lat="43.21955" lon="-4.987284">
        <ele>1983.762</ele>
        <time>2021-08-01T13:31:59Z</time>
      </trkpt>
      <trkpt lat="43.219525" lon="-4.987339">
        <ele>1983.258</ele>
        <time>2021-08-01T13:32:07Z</time>
      </trkpt>
      <trkpt lat="43.219478" lon="-4.987338">
        <ele>1983.352</ele>
        <time>2021-08-01T13:32:14Z</time>
      </trkpt>
      <trkpt lat="43.219433" lon="-4.987323">
        <ele>1984.017</ele>
        <time>2021-08-01T13:32:18Z</time>
      </trkpt>
      <trkpt lat="43.219386" lon="-4.987315">
        <ele>1983.608</ele>
        <time>2021-08-01T13:32:21Z</time>
      </trkpt>
      <trkpt lat="43.21934" lon="-4.987305">
        <ele>1983.992</ele>
        <time>2021-08-01T13:32:24Z</time>
      </trkpt>
      <trkpt lat="43.219295" lon="-4.987291">
        <ele>1984.684</ele>
        <time>2021-08-01T13:32:29Z</time>
      </trkpt>
      <trkpt lat="43.21925" lon="-4.987299">
        <ele>1985.533</ele>
        <time>2021-08-01T13:32:36Z</time>
      </trkpt>
      <trkpt lat="43.219202" lon="-4.987305">
        <ele>1986.675</ele>
        <time>2021-08-01T13:32:51Z</time>
      </trkpt>
      <trkpt lat="43.219164" lon="-4.987339">
        <ele>1988.289</ele>
        <time>2021-08-01T13:32:56Z</time>
      </trkpt>
      <trkpt lat="43.21912" lon="-4.987362">
        <ele>1989.196</ele>
        <time>2021-08-01T13:33:02Z</time>
      </trkpt>
      <trkpt lat="43.219075" lon="-4.987367">
        <ele>1989.751</ele>
        <time>2021-08-01T13:33:06Z</time>
      </trkpt>
      <trkpt lat="43.219032" lon="-4.987388">
        <ele>1990.351</ele>
        <time>2021-08-01T13:33:11Z</time>
      </trkpt>
      <trkpt lat="43.21899" lon="-4.987412">
        <ele>1991.743</ele>
        <time>2021-08-01T13:33:23Z</time>
      </trkpt>
      <trkpt lat="43.218998" lon="-4.987474">
        <ele>1992.664</ele>
        <time>2021-08-01T13:33:30Z</time>
      </trkpt>
      <trkpt lat="43.218995" lon="-4.987541">
        <ele>1993.010</ele>
        <time>2021-08-01T13:33:50Z</time>
      </trkpt>
      <trkpt lat="43.218957" lon="-4.987507">
        <ele>1993.408</ele>
        <time>2021-08-01T13:34:05Z</time>
      </trkpt>
      <trkpt lat="43.218911" lon="-4.98752">
        <ele>1993.961</ele>
        <time>2021-08-01T13:34:09Z</time>
      </trkpt>
      <trkpt lat="43.218859" lon="-4.987502">
        <ele>1993.733</ele>
        <time>2021-08-01T13:34:14Z</time>
      </trkpt>
      <trkpt lat="43.218813" lon="-4.987494">
        <ele>1993.572</ele>
        <time>2021-08-01T13:34:18Z</time>
      </trkpt>
      <trkpt lat="43.218765" lon="-4.987491">
        <ele>1993.654</ele>
        <time>2021-08-01T13:34:23Z</time>
      </trkpt>
      <trkpt lat="43.218719" lon="-4.987483">
        <ele>1994.148</ele>
        <time>2021-08-01T13:34:28Z</time>
      </trkpt>
      <trkpt lat="43.218674" lon="-4.987486">
        <ele>1995.495</ele>
        <time>2021-08-01T13:34:37Z</time>
      </trkpt>
      <trkpt lat="43.218627" lon="-4.987494">
        <ele>1996.740</ele>
        <time>2021-08-01T13:34:45Z</time>
      </trkpt>
      <trkpt lat="43.21863" lon="-4.987431">
        <ele>1997.550</ele>
        <time>2021-08-01T13:35:33Z</time>
      </trkpt>
      <trkpt lat="43.218626" lon="-4.987366">
        <ele>2001.563</ele>
        <time>2021-08-01T13:35:42Z</time>
      </trkpt>
      <trkpt lat="43.218643" lon="-4.987307">
        <ele>2005.544</ele>
        <time>2021-08-01T13:35:47Z</time>
      </trkpt>
      <trkpt lat="43.218663" lon="-4.987251">
        <ele>2008.618</ele>
        <time>2021-08-01T13:35:52Z</time>
      </trkpt>
      <trkpt lat="43.218662" lon="-4.987188">
        <ele>2011.408</ele>
        <time>2021-08-01T13:35:58Z</time>
      </trkpt>
      <trkpt lat="43.21861" lon="-4.9872">
        <ele>2012.753</ele>
        <time>2021-08-01T13:36:03Z</time>
      </trkpt>
      <trkpt lat="43.218565" lon="-4.987217">
        <ele>2014.475</ele>
        <time>2021-08-01T13:36:09Z</time>
      </trkpt>
      <trkpt lat="43.218523" lon="-4.987266">
        <ele>2014.494</ele>
        <time>2021-08-01T13:36:34Z</time>
      </trkpt>
      <trkpt lat="43.218479" lon="-4.987283">
        <ele>2015.136</ele>
        <time>2021-08-01T13:36:41Z</time>
      </trkpt>
      <trkpt lat="43.218432" lon="-4.987289">
        <ele>2015.440</ele>
        <time>2021-08-01T13:36:46Z</time>
      </trkpt>
      <trkpt lat="43.218392" lon="-4.987321">
        <ele>2016.697</ele>
        <time>2021-08-01T13:36:50Z</time>
      </trkpt>
      <trkpt lat="43.21835" lon="-4.98735">
        <ele>2017.342</ele>
        <time>2021-08-01T13:36:55Z</time>
      </trkpt>
      <trkpt lat="43.218307" lon="-4.98738">
        <ele>2017.942</ele>
        <time>2021-08-01T13:37:00Z</time>
      </trkpt>
      <trkpt lat="43.218319" lon="-4.98732">
        <ele>2020.092</ele>
        <time>2021-08-01T13:37:27Z</time>
      </trkpt>
      <trkpt lat="43.218327" lon="-4.987253">
        <ele>2021.373</ele>
        <time>2021-08-01T13:37:34Z</time>
      </trkpt>
      <trkpt lat="43.218338" lon="-4.987189">
        <ele>2023.020</ele>
        <time>2021-08-01T13:37:39Z</time>
      </trkpt>
      <trkpt lat="43.218364" lon="-4.987119">
        <ele>2024.608</ele>
        <time>2021-08-01T13:37:44Z</time>
      </trkpt>
      <trkpt lat="43.218398" lon="-4.987069">
        <ele>2025.716</ele>
        <time>2021-08-01T13:37:49Z</time>
      </trkpt>
      <trkpt lat="43.218389" lon="-4.987007">
        <ele>2027.098</ele>
        <time>2021-08-01T13:37:57Z</time>
      </trkpt>
      <trkpt lat="43.218433" lon="-4.98708">
        <ele>2028.997</ele>
        <time>2021-08-01T13:38:42Z</time>
      </trkpt>
      <trkpt lat="43.218413" lon="-4.987018">
        <ele>2031.029</ele>
        <time>2021-08-01T13:38:54Z</time>
      </trkpt>
      <trkpt lat="43.218379" lon="-4.986975">
        <ele>2032.773</ele>
        <time>2021-08-01T13:39:01Z</time>
      </trkpt>
      <trkpt lat="43.218327" lon="-4.98699">
        <ele>2034.010</ele>
        <time>2021-08-01T13:39:08Z</time>
      </trkpt>
      <trkpt lat="43.218289" lon="-4.98703">
        <ele>2034.365</ele>
        <time>2021-08-01T13:39:13Z</time>
      </trkpt>
      <trkpt lat="43.218241" lon="-4.98702">
        <ele>2035.125</ele>
        <time>2021-08-01T13:39:18Z</time>
      </trkpt>
      <trkpt lat="43.218197" lon="-4.987001">
        <ele>2035.335</ele>
        <time>2021-08-01T13:39:24Z</time>
      </trkpt>
      <trkpt lat="43.218243" lon="-4.987041">
        <ele>2036.086</ele>
        <time>2021-08-01T13:39:39Z</time>
      </trkpt>
      <trkpt lat="43.218264" lon="-4.987105">
        <ele>2034.314</ele>
        <time>2021-08-01T13:40:23Z</time>
      </trkpt>
      <trkpt lat="43.218291" lon="-4.987052">
        <ele>2032.608</ele>
        <time>2021-08-01T13:41:04Z</time>
      </trkpt>
      <trkpt lat="43.218304" lon="-4.986986">
        <ele>2031.780</ele>
        <time>2021-08-01T13:41:09Z</time>
      </trkpt>
      <trkpt lat="43.218306" lon="-4.98692">
        <ele>2031.892</ele>
        <time>2021-08-01T13:41:13Z</time>
      </trkpt>
      <trkpt lat="43.218323" lon="-4.986863">
        <ele>2031.551</ele>
        <time>2021-08-01T13:41:17Z</time>
      </trkpt>
      <trkpt lat="43.218339" lon="-4.986783">
        <ele>2032.753</ele>
        <time>2021-08-01T13:41:22Z</time>
      </trkpt>
      <trkpt lat="43.218349" lon="-4.986713">
        <ele>2034.327</ele>
        <time>2021-08-01T13:41:27Z</time>
      </trkpt>
      <trkpt lat="43.21836" lon="-4.986642">
        <ele>2035.544</ele>
        <time>2021-08-01T13:41:32Z</time>
      </trkpt>
      <trkpt lat="43.218317" lon="-4.98666">
        <ele>2036.729</ele>
        <time>2021-08-01T13:41:37Z</time>
      </trkpt>
      <trkpt lat="43.218272" lon="-4.986682">
        <ele>2038.159</ele>
        <time>2021-08-01T13:41:43Z</time>
      </trkpt>
      <trkpt lat="43.218226" lon="-4.986702">
        <ele>2038.826</ele>
        <time>2021-08-01T13:41:48Z</time>
      </trkpt>
      <trkpt lat="43.218181" lon="-4.986733">
        <ele>2039.947</ele>
        <time>2021-08-01T13:41:53Z</time>
      </trkpt>
      <trkpt lat="43.21814" lon="-4.986764">
        <ele>2041.611</ele>
        <time>2021-08-01T13:41:57Z</time>
      </trkpt>
      <trkpt lat="43.218093" lon="-4.986767">
        <ele>2042.808</ele>
        <time>2021-08-01T13:42:02Z</time>
      </trkpt>
      <trkpt lat="43.218047" lon="-4.986768">
        <ele>2044.259</ele>
        <time>2021-08-01T13:42:08Z</time>
      </trkpt>
      <trkpt lat="43.218" lon="-4.986769">
        <ele>2046.111</ele>
        <time>2021-08-01T13:42:14Z</time>
      </trkpt>
      <trkpt lat="43.217993" lon="-4.986833">
        <ele>2048.980</ele>
        <time>2021-08-01T13:43:03Z</time>
      </trkpt>
      <trkpt lat="43.217944" lon="-4.986846">
        <ele>2050.572</ele>
        <time>2021-08-01T13:43:08Z</time>
      </trkpt>
      <trkpt lat="43.217897" lon="-4.986854">
        <ele>2051.786</ele>
        <time>2021-08-01T13:43:12Z</time>
      </trkpt>
      <trkpt lat="43.217856" lon="-4.986884">
        <ele>2052.633</ele>
        <time>2021-08-01T13:43:17Z</time>
      </trkpt>
      <trkpt lat="43.217832" lon="-4.986948">
        <ele>2053.878</ele>
        <time>2021-08-01T13:43:21Z</time>
      </trkpt>
      <trkpt lat="43.21783" lon="-4.987013">
        <ele>2054.238</ele>
        <time>2021-08-01T13:43:26Z</time>
      </trkpt>
      <trkpt lat="43.217791" lon="-4.986974">
        <ele>2055.517</ele>
        <time>2021-08-01T13:43:41Z</time>
      </trkpt>
      <trkpt lat="43.217793" lon="-4.986906">
        <ele>2056.187</ele>
        <time>2021-08-01T13:43:49Z</time>
      </trkpt>
      <trkpt lat="43.217764" lon="-4.98685">
        <ele>2056.615</ele>
        <time>2021-08-01T13:43:57Z</time>
      </trkpt>
      <trkpt lat="43.217745" lon="-4.986793">
        <ele>2057.208</ele>
        <time>2021-08-01T13:44:03Z</time>
      </trkpt>
      <trkpt lat="43.217742" lon="-4.986722">
        <ele>2058.718</ele>
        <time>2021-08-01T13:44:09Z</time>
      </trkpt>
      <trkpt lat="43.21777" lon="-4.986671">
        <ele>2060.360</ele>
        <time>2021-08-01T13:44:36Z</time>
      </trkpt>
      <trkpt lat="43.217792" lon="-4.986614">
        <ele>2061.939</ele>
        <time>2021-08-01T13:44:43Z</time>
      </trkpt>
      <trkpt lat="43.217811" lon="-4.986557">
        <ele>2063.871</ele>
        <time>2021-08-01T13:44:49Z</time>
      </trkpt>
      <trkpt lat="43.217829" lon="-4.986499">
        <ele>2065.045</ele>
        <time>2021-08-01T13:44:53Z</time>
      </trkpt>
      <trkpt lat="43.217847" lon="-4.986434">
        <ele>2066.452</ele>
        <time>2021-08-01T13:44:58Z</time>
      </trkpt>
      <trkpt lat="43.217872" lon="-4.986374">
        <ele>2066.757</ele>
        <time>2021-08-01T13:45:02Z</time>
      </trkpt>
      <trkpt lat="43.21791" lon="-4.986327">
        <ele>2068.277</ele>
        <time>2021-08-01T13:45:07Z</time>
      </trkpt>
      <trkpt lat="43.217928" lon="-4.98627">
        <ele>2069.149</ele>
        <time>2021-08-01T13:45:12Z</time>
      </trkpt>
      <trkpt lat="43.21794" lon="-4.986202">
        <ele>2070.802</ele>
        <time>2021-08-01T13:45:18Z</time>
      </trkpt>
      <trkpt lat="43.217963" lon="-4.986286">
        <ele>2072.922</ele>
        <time>2021-08-01T13:46:21Z</time>
      </trkpt>
      <trkpt lat="43.217955" lon="-4.986224">
        <ele>2074.608</ele>
        <time>2021-08-01T13:46:38Z</time>
      </trkpt>
      <trkpt lat="43.217941" lon="-4.986161">
        <ele>2076.431</ele>
        <time>2021-08-01T13:46:52Z</time>
      </trkpt>
      <trkpt lat="43.217896" lon="-4.986156">
        <ele>2078.233</ele>
        <time>2021-08-01T13:47:33Z</time>
      </trkpt>
      <trkpt lat="43.217851" lon="-4.986176">
        <ele>2079.382</ele>
        <time>2021-08-01T13:47:38Z</time>
      </trkpt>
      <trkpt lat="43.217805" lon="-4.986188">
        <ele>2080.294</ele>
        <time>2021-08-01T13:47:43Z</time>
      </trkpt>
      <trkpt lat="43.217757" lon="-4.986199">
        <ele>2081.448</ele>
        <time>2021-08-01T13:47:49Z</time>
      </trkpt>
      <trkpt lat="43.2177" lon="-4.986209">
        <ele>2082.535</ele>
        <time>2021-08-01T13:48:11Z</time>
      </trkpt>
      <trkpt lat="43.217652" lon="-4.98622">
        <ele>2083.750</ele>
        <time>2021-08-01T13:48:17Z</time>
      </trkpt>
      <trkpt lat="43.217603" lon="-4.986229">
        <ele>2084.980</ele>
        <time>2021-08-01T13:48:36Z</time>
      </trkpt>
      <trkpt lat="43.217563" lon="-4.986275">
        <ele>2085.992</ele>
        <time>2021-08-01T13:48:42Z</time>
      </trkpt>
      <trkpt lat="43.217529" lon="-4.986318">
        <ele>2087.573</ele>
        <time>2021-08-01T13:48:47Z</time>
      </trkpt>
      <trkpt lat="43.217486" lon="-4.986347">
        <ele>2088.520</ele>
        <time>2021-08-01T13:48:53Z</time>
      </trkpt>
      <trkpt lat="43.217452" lon="-4.986389">
        <ele>2089.808</ele>
        <time>2021-08-01T13:49:00Z</time>
      </trkpt>
      <trkpt lat="43.217408" lon="-4.986417">
        <ele>2090.896</ele>
        <time>2021-08-01T13:49:05Z</time>
      </trkpt>
      <trkpt lat="43.217364" lon="-4.986449">
        <ele>2091.968</ele>
        <time>2021-08-01T13:49:12Z</time>
      </trkpt>
      <trkpt lat="43.21733" lon="-4.98649">
        <ele>2092.097</ele>
        <time>2021-08-01T13:49:19Z</time>
      </trkpt>
      <trkpt lat="43.21729" lon="-4.98653">
        <ele>2092.859</ele>
        <time>2021-08-01T13:49:25Z</time>
      </trkpt>
      <trkpt lat="43.217244" lon="-4.986554">
        <ele>2094.013</ele>
        <time>2021-08-01T13:49:31Z</time>
      </trkpt>
      <trkpt lat="43.217225" lon="-4.986616">
        <ele>2095.740</ele>
        <time>2021-08-01T13:49:51Z</time>
      </trkpt>
      <trkpt lat="43.217198" lon="-4.986667">
        <ele>2096.885</ele>
        <time>2021-08-01T13:49:56Z</time>
      </trkpt>
      <trkpt lat="43.217158" lon="-4.986706">
        <ele>2097.655</ele>
        <time>2021-08-01T13:50:04Z</time>
      </trkpt>
      <trkpt lat="43.217113" lon="-4.986687">
        <ele>2098.348</ele>
        <time>2021-08-01T13:50:15Z</time>
      </trkpt>
      <trkpt lat="43.217071" lon="-4.986712">
        <ele>2099.161</ele>
        <time>2021-08-01T13:50:21Z</time>
      </trkpt>
      <trkpt lat="43.217035" lon="-4.986754">
        <ele>2100.017</ele>
        <time>2021-08-01T13:50:26Z</time>
      </trkpt>
      <trkpt lat="43.216986" lon="-4.986763">
        <ele>2101.208</ele>
        <time>2021-08-01T13:50:30Z</time>
      </trkpt>
      <trkpt lat="43.216936" lon="-4.986745">
        <ele>2101.361</ele>
        <time>2021-08-01T13:50:35Z</time>
      </trkpt>
      <trkpt lat="43.21691" lon="-4.986694">
        <ele>2102.023</ele>
        <time>2021-08-01T13:50:41Z</time>
      </trkpt>
      <trkpt lat="43.216881" lon="-4.986643">
        <ele>2103.312</ele>
        <time>2021-08-01T13:50:49Z</time>
      </trkpt>
      <trkpt lat="43.216836" lon="-4.986633">
        <ele>2103.924</ele>
        <time>2021-08-01T13:50:56Z</time>
      </trkpt>
      <trkpt lat="43.216789" lon="-4.986599">
        <ele>2104.918</ele>
        <time>2021-08-01T13:51:03Z</time>
      </trkpt>
      <trkpt lat="43.216787" lon="-4.986663">
        <ele>2106.945</ele>
        <time>2021-08-01T13:52:05Z</time>
      </trkpt>
      <trkpt lat="43.216759" lon="-4.986609">
        <ele>2108.170</ele>
        <time>2021-08-01T13:52:13Z</time>
      </trkpt>
      <trkpt lat="43.216762" lon="-4.986545">
        <ele>2108.910</ele>
        <time>2021-08-01T13:52:19Z</time>
      </trkpt>
      <trkpt lat="43.216776" lon="-4.986482">
        <ele>2109.552</ele>
        <time>2021-08-01T13:52:26Z</time>
      </trkpt>
      <trkpt lat="43.216749" lon="-4.986429">
        <ele>2109.753</ele>
        <time>2021-08-01T13:52:54Z</time>
      </trkpt>
      <trkpt lat="43.216764" lon="-4.986371">
        <ele>2109.908</ele>
        <time>2021-08-01T13:52:58Z</time>
      </trkpt>
      <trkpt lat="43.216781" lon="-4.986313">
        <ele>2110.708</ele>
        <time>2021-08-01T13:53:03Z</time>
      </trkpt>
      <trkpt lat="43.216754" lon="-4.986263">
        <ele>2111.612</ele>
        <time>2021-08-01T13:53:08Z</time>
      </trkpt>
      <trkpt lat="43.216715" lon="-4.986221">
        <ele>2111.924</ele>
        <time>2021-08-01T13:53:13Z</time>
      </trkpt>
      <trkpt lat="43.21668" lon="-4.986183">
        <ele>2112.083</ele>
        <time>2021-08-01T13:53:37Z</time>
      </trkpt>
      <trkpt lat="43.216698" lon="-4.986127">
        <ele>2112.215</ele>
        <time>2021-08-01T13:53:43Z</time>
      </trkpt>
      <trkpt lat="43.216708" lon="-4.986066">
        <ele>2112.699</ele>
        <time>2021-08-01T13:54:10Z</time>
      </trkpt>
      <trkpt lat="43.216692" lon="-4.986001">
        <ele>2112.716</ele>
        <time>2021-08-01T13:54:17Z</time>
      </trkpt>
      <trkpt lat="43.216646" lon="-4.985976">
        <ele>2113.381</ele>
        <time>2021-08-01T13:54:23Z</time>
      </trkpt>
      <trkpt lat="43.216606" lon="-4.985948">
        <ele>2113.311</ele>
        <time>2021-08-01T13:54:38Z</time>
      </trkpt>
      <trkpt lat="43.216591" lon="-4.985885">
        <ele>2113.769</ele>
        <time>2021-08-01T13:54:43Z</time>
      </trkpt>
      <trkpt lat="43.21658" lon="-4.98582">
        <ele>2113.904</ele>
        <time>2021-08-01T13:54:49Z</time>
      </trkpt>
      <trkpt lat="43.216607" lon="-4.985766">
        <ele>2113.924</ele>
        <time>2021-08-01T13:54:56Z</time>
      </trkpt>
      <trkpt lat="43.216619" lon="-4.985697">
        <ele>2112.308</ele>
        <time>2021-08-01T13:55:03Z</time>
      </trkpt>
      <trkpt lat="43.216594" lon="-4.985645">
        <ele>2111.713</ele>
        <time>2021-08-01T13:55:25Z</time>
      </trkpt>
      <trkpt lat="43.216607" lon="-4.985574">
        <ele>2111.075</ele>
        <time>2021-08-01T13:55:33Z</time>
      </trkpt>
      <trkpt lat="43.216621" lon="-4.98551">
        <ele>2110.414</ele>
        <time>2021-08-01T13:55:40Z</time>
      </trkpt>
      <trkpt lat="43.216631" lon="-4.985445">
        <ele>2110.096</ele>
        <time>2021-08-01T13:55:46Z</time>
      </trkpt>
      <trkpt lat="43.216611" lon="-4.985388">
        <ele>2110.070</ele>
        <time>2021-08-01T13:55:55Z</time>
      </trkpt>
      <trkpt lat="43.216565" lon="-4.985381">
        <ele>2110.497</ele>
        <time>2021-08-01T13:56:11Z</time>
      </trkpt>
      <trkpt lat="43.216522" lon="-4.985359">
        <ele>2110.912</ele>
        <time>2021-08-01T13:56:17Z</time>
      </trkpt>
      <trkpt lat="43.216483" lon="-4.985323">
        <ele>2111.012</ele>
        <time>2021-08-01T13:56:22Z</time>
      </trkpt>
      <trkpt lat="43.216456" lon="-4.985271">
        <ele>2110.756</ele>
        <time>2021-08-01T13:56:33Z</time>
      </trkpt>
      <trkpt lat="43.216414" lon="-4.985249">
        <ele>2111.259</ele>
        <time>2021-08-01T13:56:38Z</time>
      </trkpt>
      <trkpt lat="43.216376" lon="-4.985207">
        <ele>2111.014</ele>
        <time>2021-08-01T13:56:43Z</time>
      </trkpt>
      <trkpt lat="43.216358" lon="-4.985139">
        <ele>2111.108</ele>
        <time>2021-08-01T13:56:48Z</time>
      </trkpt>
      <trkpt lat="43.216352" lon="-4.985071">
        <ele>2111.782</ele>
        <time>2021-08-01T13:57:26Z</time>
      </trkpt>
      <trkpt lat="43.216343" lon="-4.985006">
        <ele>2112.384</ele>
        <time>2021-08-01T13:57:32Z</time>
      </trkpt>
      <trkpt lat="43.216309" lon="-4.984963">
        <ele>2112.613</ele>
        <time>2021-08-01T13:57:46Z</time>
      </trkpt>
      <trkpt lat="43.216268" lon="-4.98499">
        <ele>2112.425</ele>
        <time>2021-08-01T13:57:49Z</time>
      </trkpt>
      <trkpt lat="43.216221" lon="-4.985004">
        <ele>2112.769</ele>
        <time>2021-08-01T13:57:52Z</time>
      </trkpt>
      <trkpt lat="43.216169" lon="-4.985016">
        <ele>2112.456</ele>
        <time>2021-08-01T13:57:56Z</time>
      </trkpt>
      <trkpt lat="43.216124" lon="-4.98501">
        <ele>2112.711</ele>
        <time>2021-08-01T13:58:00Z</time>
      </trkpt>
      <trkpt lat="43.21608" lon="-4.984996">
        <ele>2113.031</ele>
        <time>2021-08-01T13:58:04Z</time>
      </trkpt>
      <trkpt lat="43.216037" lon="-4.984971">
        <ele>2112.927</ele>
        <time>2021-08-01T13:58:09Z</time>
      </trkpt>
      <trkpt lat="43.216005" lon="-4.984923">
        <ele>2113.268</ele>
        <time>2021-08-01T13:58:15Z</time>
      </trkpt>
      <trkpt lat="43.215988" lon="-4.984863">
        <ele>2113.314</ele>
        <time>2021-08-01T13:58:20Z</time>
      </trkpt>
      <trkpt lat="43.215981" lon="-4.984801">
        <ele>2113.508</ele>
        <time>2021-08-01T13:58:25Z</time>
      </trkpt>
      <trkpt lat="43.21596" lon="-4.98474">
        <ele>2113.739</ele>
        <time>2021-08-01T13:58:29Z</time>
      </trkpt>
      <trkpt lat="43.215954" lon="-4.984676">
        <ele>2114.451</ele>
        <time>2021-08-01T13:58:34Z</time>
      </trkpt>
      <trkpt lat="43.215985" lon="-4.984621">
        <ele>2115.420</ele>
        <time>2021-08-01T13:59:12Z</time>
      </trkpt>
      <trkpt lat="43.215998" lon="-4.98456">
        <ele>2115.862</ele>
        <time>2021-08-01T13:59:15Z</time>
      </trkpt>
      <trkpt lat="43.215998" lon="-4.984498">
        <ele>2116.826</ele>
        <time>2021-08-01T13:59:19Z</time>
      </trkpt>
      <trkpt lat="43.215979" lon="-4.984438">
        <ele>2118.063</ele>
        <time>2021-08-01T13:59:24Z</time>
      </trkpt>
      <trkpt lat="43.215952" lon="-4.984381">
        <ele>2118.728</ele>
        <time>2021-08-01T13:59:29Z</time>
      </trkpt>
      <trkpt lat="43.215929" lon="-4.984325">
        <ele>2120.128</ele>
        <time>2021-08-01T13:59:35Z</time>
      </trkpt>
      <trkpt lat="43.215895" lon="-4.984274">
        <ele>2120.642</ele>
        <time>2021-08-01T13:59:42Z</time>
      </trkpt>
      <trkpt lat="43.215859" lon="-4.984236">
        <ele>2121.322</ele>
        <time>2021-08-01T13:59:47Z</time>
      </trkpt>
      <trkpt lat="43.21583" lon="-4.984186">
        <ele>2120.914</ele>
        <time>2021-08-01T13:59:54Z</time>
      </trkpt>
      <trkpt lat="43.215782" lon="-4.984176">
        <ele>2120.208</ele>
        <time>2021-08-01T14:00:05Z</time>
      </trkpt>
      <trkpt lat="43.215744" lon="-4.984141">
        <ele>2120.691</ele>
        <time>2021-08-01T14:00:11Z</time>
      </trkpt>
      <trkpt lat="43.215691" lon="-4.984121">
        <ele>2121.523</ele>
        <time>2021-08-01T14:00:46Z</time>
      </trkpt>
      <trkpt lat="43.215646" lon="-4.984109">
        <ele>2122.282</ele>
        <time>2021-08-01T14:00:53Z</time>
      </trkpt>
      <trkpt lat="43.215605" lon="-4.984083">
        <ele>2123.114</ele>
        <time>2021-08-01T14:01:01Z</time>
      </trkpt>
      <trkpt lat="43.215575" lon="-4.984031">
        <ele>2124.258</ele>
        <time>2021-08-01T14:01:10Z</time>
      </trkpt>
      <trkpt lat="43.215533" lon="-4.984002">
        <ele>2124.455</ele>
        <time>2021-08-01T14:01:16Z</time>
      </trkpt>
      <trkpt lat="43.215491" lon="-4.983978">
        <ele>2124.640</ele>
        <time>2021-08-01T14:01:22Z</time>
      </trkpt>
      <trkpt lat="43.215443" lon="-4.983948">
        <ele>2125.090</ele>
        <time>2021-08-01T14:01:29Z</time>
      </trkpt>
      <trkpt lat="43.215402" lon="-4.983916">
        <ele>2125.295</ele>
        <time>2021-08-01T14:01:35Z</time>
      </trkpt>
      <trkpt lat="43.215354" lon="-4.983926">
        <ele>2125.149</ele>
        <time>2021-08-01T14:01:41Z</time>
      </trkpt>
      <trkpt lat="43.21531" lon="-4.983947">
        <ele>2124.823</ele>
        <time>2021-08-01T14:01:46Z</time>
      </trkpt>
      <trkpt lat="43.215276" lon="-4.983988">
        <ele>2125.208</ele>
        <time>2021-08-01T14:01:50Z</time>
      </trkpt>
      <trkpt lat="43.215239" lon="-4.984035">
        <ele>2125.656</ele>
        <time>2021-08-01T14:01:55Z</time>
      </trkpt>
      <trkpt lat="43.215232" lon="-4.984104">
        <ele>2126.388</ele>
        <time>2021-08-01T14:01:59Z</time>
      </trkpt>
      <trkpt lat="43.215242" lon="-4.984164">
        <ele>2126.177</ele>
        <time>2021-08-01T14:02:03Z</time>
      </trkpt>
      <trkpt lat="43.215243" lon="-4.984226">
        <ele>2127.269</ele>
        <time>2021-08-01T14:02:07Z</time>
      </trkpt>
      <trkpt lat="43.215225" lon="-4.984297">
        <ele>2127.763</ele>
        <time>2021-08-01T14:02:14Z</time>
      </trkpt>
      <trkpt lat="43.215206" lon="-4.98436">
        <ele>2128.350</ele>
        <time>2021-08-01T14:02:18Z</time>
      </trkpt>
      <trkpt lat="43.215183" lon="-4.984416">
        <ele>2129.165</ele>
        <time>2021-08-01T14:02:22Z</time>
      </trkpt>
      <trkpt lat="43.21513" lon="-4.984402">
        <ele>2129.895</ele>
        <time>2021-08-01T14:02:56Z</time>
      </trkpt>
      <trkpt lat="43.215085" lon="-4.984439">
        <ele>2130.755</ele>
        <time>2021-08-01T14:02:58Z</time>
      </trkpt>
      <trkpt lat="43.215043" lon="-4.984477">
        <ele>2131.507</ele>
        <time>2021-08-01T14:03:03Z</time>
      </trkpt>
      <trkpt lat="43.215016" lon="-4.984543">
        <ele>2131.717</ele>
        <time>2021-08-01T14:03:06Z</time>
      </trkpt>
      <trkpt lat="43.215002" lon="-4.984608">
        <ele>2132.208</ele>
        <time>2021-08-01T14:03:09Z</time>
      </trkpt>
      <trkpt lat="43.214954" lon="-4.984624">
        <ele>2133.192</ele>
        <time>2021-08-01T14:03:32Z</time>
      </trkpt>
      <trkpt lat="43.214914" lon="-4.984596">
        <ele>2133.674</ele>
        <time>2021-08-01T14:03:36Z</time>
      </trkpt>
      <trkpt lat="43.214866" lon="-4.984596">
        <ele>2134.073</ele>
        <time>2021-08-01T14:04:41Z</time>
      </trkpt>
      <trkpt lat="43.214817" lon="-4.984589">
        <ele>2134.115</ele>
        <time>2021-08-01T14:04:48Z</time>
      </trkpt>
      <trkpt lat="43.214775" lon="-4.98462">
        <ele>2134.249</ele>
        <time>2021-08-01T14:04:53Z</time>
      </trkpt>
      <trkpt lat="43.214729" lon="-4.984642">
        <ele>2134.396</ele>
        <time>2021-08-01T14:04:57Z</time>
      </trkpt>
      <trkpt lat="43.214679" lon="-4.984648">
        <ele>2133.871</ele>
        <time>2021-08-01T14:05:01Z</time>
      </trkpt>
      <trkpt lat="43.214635" lon="-4.98466">
        <ele>2133.421</ele>
        <time>2021-08-01T14:05:05Z</time>
      </trkpt>
      <trkpt lat="43.214588" lon="-4.98466">
        <ele>2132.752</ele>
        <time>2021-08-01T14:05:11Z</time>
      </trkpt>
      <trkpt lat="43.21455" lon="-4.984694">
        <ele>2133.153</ele>
        <time>2021-08-01T14:07:09Z</time>
      </trkpt>
      <trkpt lat="43.214511" lon="-4.984646">
        <ele>2133.408</ele>
        <time>2021-08-01T14:07:14Z</time>
      </trkpt>
      <trkpt lat="43.214489" lon="-4.98459">
        <ele>2133.208</ele>
        <time>2021-08-01T14:07:17Z</time>
      </trkpt>
      <trkpt lat="43.214477" lon="-4.984522">
        <ele>2133.592</ele>
        <time>2021-08-01T14:07:22Z</time>
      </trkpt>
      <trkpt lat="43.214466" lon="-4.984458">
        <ele>2134.834</ele>
        <time>2021-08-01T14:07:51Z</time>
      </trkpt>
      <trkpt lat="43.21442" lon="-4.984443">
        <ele>2135.643</ele>
        <time>2021-08-01T14:08:15Z</time>
      </trkpt>
      <trkpt lat="43.214388" lon="-4.984398">
        <ele>2136.455</ele>
        <time>2021-08-01T14:08:49Z</time>
      </trkpt>
      <trkpt lat="43.214366" lon="-4.984343">
        <ele>2137.579</ele>
        <time>2021-08-01T14:08:53Z</time>
      </trkpt>
      <trkpt lat="43.214364" lon="-4.984277">
        <ele>2137.936</ele>
        <time>2021-08-01T14:08:59Z</time>
      </trkpt>
      <trkpt lat="43.214367" lon="-4.984212">
        <ele>2138.351</ele>
        <time>2021-08-01T14:09:03Z</time>
      </trkpt>
      <trkpt lat="43.214363" lon="-4.98415">
        <ele>2138.871</ele>
        <time>2021-08-01T14:09:07Z</time>
      </trkpt>
      <trkpt lat="43.214334" lon="-4.984102">
        <ele>2139.612</ele>
        <time>2021-08-01T14:09:13Z</time>
      </trkpt>
      <trkpt lat="43.214282" lon="-4.984107">
        <ele>2140.732</ele>
        <time>2021-08-01T14:09:20Z</time>
      </trkpt>
      <trkpt lat="43.214252" lon="-4.984157">
        <ele>2141.305</ele>
        <time>2021-08-01T14:09:24Z</time>
      </trkpt>
      <trkpt lat="43.214204" lon="-4.984145">
        <ele>2141.008</ele>
        <time>2021-08-01T14:09:31Z</time>
      </trkpt>
      <trkpt lat="43.214184" lon="-4.984202">
        <ele>2140.868</ele>
        <time>2021-08-01T14:09:53Z</time>
      </trkpt>
      <trkpt lat="43.214155" lon="-4.984256">
        <ele>2139.910</ele>
        <time>2021-08-01T14:09:57Z</time>
      </trkpt>
      <trkpt lat="43.214112" lon="-4.984294">
        <ele>2140.029</ele>
        <time>2021-08-01T14:10:02Z</time>
      </trkpt>
      <trkpt lat="43.214141" lon="-4.984228">
        <ele>2139.271</ele>
        <time>2021-08-01T14:11:39Z</time>
      </trkpt>
      <trkpt lat="43.214152" lon="-4.984293">
        <ele>2138.755</ele>
        <time>2021-08-01T14:37:53Z</time>
      </trkpt>
      <trkpt lat="43.214142" lon="-4.984231">
        <ele>2140.392</ele>
        <time>2021-08-01T14:39:13Z</time>
      </trkpt>
      <trkpt lat="43.214181" lon="-4.9842">
        <ele>2141.317</ele>
        <time>2021-08-01T14:40:44Z</time>
      </trkpt>
      <trkpt lat="43.214136" lon="-4.984242">
        <ele>2137.867</ele>
        <time>2021-08-01T14:42:21Z</time>
      </trkpt>
      <trkpt lat="43.214135" lon="-4.984305">
        <ele>2135.595</ele>
        <time>2021-08-01T14:42:30Z</time>
      </trkpt>
      <trkpt lat="43.214194" lon="-4.984275">
        <ele>2134.749</ele>
        <time>2021-08-01T14:42:57Z</time>
      </trkpt>
      <trkpt lat="43.214239" lon="-4.984279">
        <ele>2134.523</ele>
        <time>2021-08-01T14:43:05Z</time>
      </trkpt>
      <trkpt lat="43.214274" lon="-4.984237">
        <ele>2133.908</ele>
        <time>2021-08-01T14:43:11Z</time>
      </trkpt>
      <trkpt lat="43.214295" lon="-4.984175">
        <ele>2133.196</ele>
        <time>2021-08-01T14:43:16Z</time>
      </trkpt>
      <trkpt lat="43.214278" lon="-4.984118">
        <ele>2132.818</ele>
        <time>2021-08-01T14:43:24Z</time>
      </trkpt>
      <trkpt lat="43.214289" lon="-4.984058">
        <ele>2132.357</ele>
        <time>2021-08-01T14:43:36Z</time>
      </trkpt>
      <trkpt lat="43.2143" lon="-4.983998">
        <ele>2132.379</ele>
        <time>2021-08-01T14:44:04Z</time>
      </trkpt>
      <trkpt lat="43.214302" lon="-4.98393">
        <ele>2132.163</ele>
        <time>2021-08-01T14:44:09Z</time>
      </trkpt>
      <trkpt lat="43.214289" lon="-4.983868">
        <ele>2132.050</ele>
        <time>2021-08-01T14:44:15Z</time>
      </trkpt>
      <trkpt lat="43.21429" lon="-4.983805">
        <ele>2132.235</ele>
        <time>2021-08-01T14:44:22Z</time>
      </trkpt>
      <trkpt lat="43.214291" lon="-4.983739">
        <ele>2132.545</ele>
        <time>2021-08-01T14:44:28Z</time>
      </trkpt>
      <trkpt lat="43.214291" lon="-4.983677">
        <ele>2133.212</ele>
        <time>2021-08-01T14:44:34Z</time>
      </trkpt>
      <trkpt lat="43.214298" lon="-4.983603">
        <ele>2134.032</ele>
        <time>2021-08-01T14:44:52Z</time>
      </trkpt>
      <trkpt lat="43.214285" lon="-4.983541">
        <ele>2134.905</ele>
        <time>2021-08-01T14:45:12Z</time>
      </trkpt>
      <trkpt lat="43.214248" lon="-4.983486">
        <ele>2135.808</ele>
        <time>2021-08-01T14:45:17Z</time>
      </trkpt>
      <trkpt lat="43.214256" lon="-4.983424">
        <ele>2136.638</ele>
        <time>2021-08-01T14:45:22Z</time>
      </trkpt>
      <trkpt lat="43.214289" lon="-4.983377">
        <ele>2136.530</ele>
        <time>2021-08-01T14:45:33Z</time>
      </trkpt>
      <trkpt lat="43.214337" lon="-4.983383">
        <ele>2136.899</ele>
        <time>2021-08-01T14:45:38Z</time>
      </trkpt>
      <trkpt lat="43.214366" lon="-4.983333">
        <ele>2136.221</ele>
        <time>2021-08-01T14:45:44Z</time>
      </trkpt>
      <trkpt lat="43.214322" lon="-4.983343">
        <ele>2135.585</ele>
        <time>2021-08-01T14:45:55Z</time>
      </trkpt>
      <trkpt lat="43.2143" lon="-4.983283">
        <ele>2135.512</ele>
        <time>2021-08-01T14:46:13Z</time>
      </trkpt>
      <trkpt lat="43.214268" lon="-4.983231">
        <ele>2136.297</ele>
        <time>2021-08-01T14:46:17Z</time>
      </trkpt>
      <trkpt lat="43.214266" lon="-4.983167">
        <ele>2136.317</ele>
        <time>2021-08-01T14:46:25Z</time>
      </trkpt>
      <trkpt lat="43.214271" lon="-4.9831">
        <ele>2135.498</ele>
        <time>2021-08-01T14:46:30Z</time>
      </trkpt>
      <trkpt lat="43.214266" lon="-4.983038">
        <ele>2134.915</ele>
        <time>2021-08-01T14:46:34Z</time>
      </trkpt>
      <trkpt lat="43.214259" lon="-4.982962">
        <ele>2134.426</ele>
        <time>2021-08-01T14:46:39Z</time>
      </trkpt>
      <trkpt lat="43.214273" lon="-4.982899">
        <ele>2132.608</ele>
        <time>2021-08-01T14:46:59Z</time>
      </trkpt>
      <trkpt lat="43.214243" lon="-4.982848">
        <ele>2131.296</ele>
        <time>2021-08-01T14:47:08Z</time>
      </trkpt>
      <trkpt lat="43.214265" lon="-4.982789">
        <ele>2129.498</ele>
        <time>2021-08-01T14:47:14Z</time>
      </trkpt>
      <trkpt lat="43.214246" lon="-4.982728">
        <ele>2126.967</ele>
        <time>2021-08-01T14:47:36Z</time>
      </trkpt>
      <trkpt lat="43.21419" lon="-4.982732">
        <ele>2124.789</ele>
        <time>2021-08-01T14:47:40Z</time>
      </trkpt>
      <trkpt lat="43.214145" lon="-4.982747">
        <ele>2122.823</ele>
        <time>2021-08-01T14:47:50Z</time>
      </trkpt>
      <trkpt lat="43.214102" lon="-4.98272">
        <ele>2122.150</ele>
        <time>2021-08-01T14:48:04Z</time>
      </trkpt>
      <trkpt lat="43.214055" lon="-4.982677">
        <ele>2120.535</ele>
        <time>2021-08-01T14:48:08Z</time>
      </trkpt>
      <trkpt lat="43.214021" lon="-4.982631">
        <ele>2118.835</ele>
        <time>2021-08-01T14:48:14Z</time>
      </trkpt>
      <trkpt lat="43.214046" lon="-4.982578">
        <ele>2117.569</ele>
        <time>2021-08-01T14:48:19Z</time>
      </trkpt>
      <trkpt lat="43.214032" lon="-4.982518">
        <ele>2116.804</ele>
        <time>2021-08-01T14:48:25Z</time>
      </trkpt>
      <trkpt lat="43.214017" lon="-4.982459">
        <ele>2115.824</ele>
        <time>2021-08-01T14:48:30Z</time>
      </trkpt>
      <trkpt lat="43.213983" lon="-4.982411">
        <ele>2115.008</ele>
        <time>2021-08-01T14:48:35Z</time>
      </trkpt>
      <trkpt lat="43.213955" lon="-4.982358">
        <ele>2113.663</ele>
        <time>2021-08-01T14:49:04Z</time>
      </trkpt>
      <trkpt lat="43.21395" lon="-4.982292">
        <ele>2112.645</ele>
        <time>2021-08-01T14:49:13Z</time>
      </trkpt>
      <trkpt lat="43.213921" lon="-4.982237">
        <ele>2112.194</ele>
        <time>2021-08-01T14:49:20Z</time>
      </trkpt>
      <trkpt lat="43.213916" lon="-4.982173">
        <ele>2111.676</ele>
        <time>2021-08-01T14:49:25Z</time>
      </trkpt>
      <trkpt lat="43.213875" lon="-4.982133">
        <ele>2111.560</ele>
        <time>2021-08-01T14:49:29Z</time>
      </trkpt>
      <trkpt lat="43.213839" lon="-4.982093">
        <ele>2111.057</ele>
        <time>2021-08-01T14:49:36Z</time>
      </trkpt>
      <trkpt lat="43.213793" lon="-4.982082">
        <ele>2110.382</ele>
        <time>2021-08-01T14:49:47Z</time>
      </trkpt>
      <trkpt lat="43.213748" lon="-4.982059">
        <ele>2109.132</ele>
        <time>2021-08-01T14:50:11Z</time>
      </trkpt>
      <trkpt lat="43.213716" lon="-4.982013">
        <ele>2108.634</ele>
        <time>2021-08-01T14:50:17Z</time>
      </trkpt>
      <trkpt lat="43.213679" lon="-4.981961">
        <ele>2108.255</ele>
        <time>2021-08-01T14:50:23Z</time>
      </trkpt>
      <trkpt lat="43.213628" lon="-4.981982">
        <ele>2107.410</ele>
        <time>2021-08-01T14:50:26Z</time>
      </trkpt>
      <trkpt lat="43.213578" lon="-4.981969">
        <ele>2107.308</ele>
        <time>2021-08-01T14:50:32Z</time>
      </trkpt>
      <trkpt lat="43.21354" lon="-4.981933">
        <ele>2106.150</ele>
        <time>2021-08-01T14:50:39Z</time>
      </trkpt>
      <trkpt lat="43.213489" lon="-4.98192">
        <ele>2106.092</ele>
        <time>2021-08-01T14:51:25Z</time>
      </trkpt>
      <trkpt lat="43.213446" lon="-4.981945">
        <ele>2105.851</ele>
        <time>2021-08-01T14:51:40Z</time>
      </trkpt>
      <trkpt lat="43.2134" lon="-4.981923">
        <ele>2105.873</ele>
        <time>2021-08-01T14:51:45Z</time>
      </trkpt>
      <trkpt lat="43.213355" lon="-4.981921">
        <ele>2105.837</ele>
        <time>2021-08-01T14:51:53Z</time>
      </trkpt>
      <trkpt lat="43.213343" lon="-4.981858">
        <ele>2105.534</ele>
        <time>2021-08-01T14:51:58Z</time>
      </trkpt>
      <trkpt lat="43.213294" lon="-4.981876">
        <ele>2105.269</ele>
        <time>2021-08-01T14:52:08Z</time>
      </trkpt>
      <trkpt lat="43.213249" lon="-4.981876">
        <ele>2103.879</ele>
        <time>2021-08-01T14:52:15Z</time>
      </trkpt>
      <trkpt lat="43.213204" lon="-4.981872">
        <ele>2104.275</ele>
        <time>2021-08-01T14:52:21Z</time>
      </trkpt>
      <trkpt lat="43.213161" lon="-4.981897">
        <ele>2103.828</ele>
        <time>2021-08-01T14:52:28Z</time>
      </trkpt>
      <trkpt lat="43.213177" lon="-4.981956">
        <ele>2102.620</ele>
        <time>2021-08-01T14:52:55Z</time>
      </trkpt>
      <trkpt lat="43.213166" lon="-4.982032">
        <ele>2103.008</ele>
        <time>2021-08-01T14:53:27Z</time>
      </trkpt>
      <trkpt lat="43.213159" lon="-4.982095">
        <ele>2102.014</ele>
        <time>2021-08-01T14:53:37Z</time>
      </trkpt>
      <trkpt lat="43.213157" lon="-4.982159">
        <ele>2102.056</ele>
        <time>2021-08-01T14:53:44Z</time>
      </trkpt>
      <trkpt lat="43.213148" lon="-4.982224">
        <ele>2102.125</ele>
        <time>2021-08-01T14:53:54Z</time>
      </trkpt>
      <trkpt lat="43.213114" lon="-4.982275">
        <ele>2101.837</ele>
        <time>2021-08-01T14:54:00Z</time>
      </trkpt>
      <trkpt lat="43.213077" lon="-4.98232">
        <ele>2101.431</ele>
        <time>2021-08-01T14:54:06Z</time>
      </trkpt>
      <trkpt lat="43.213036" lon="-4.982348">
        <ele>2101.518</ele>
        <time>2021-08-01T14:54:10Z</time>
      </trkpt>
      <trkpt lat="43.212984" lon="-4.982352">
        <ele>2101.983</ele>
        <time>2021-08-01T14:54:15Z</time>
      </trkpt>
      <trkpt lat="43.212939" lon="-4.982329">
        <ele>2101.653</ele>
        <time>2021-08-01T14:54:23Z</time>
      </trkpt>
      <trkpt lat="43.212891" lon="-4.982335">
        <ele>2101.871</ele>
        <time>2021-08-01T14:54:32Z</time>
      </trkpt>
      <trkpt lat="43.21288" lon="-4.982272">
        <ele>2103.241</ele>
        <time>2021-08-01T14:55:09Z</time>
      </trkpt>
      <trkpt lat="43.212872" lon="-4.98221">
        <ele>2103.815</ele>
        <time>2021-08-01T14:55:14Z</time>
      </trkpt>
      <trkpt lat="43.212865" lon="-4.982145">
        <ele>2103.908</ele>
        <time>2021-08-01T14:55:20Z</time>
      </trkpt>
      <trkpt lat="43.212865" lon="-4.982081">
        <ele>2104.314</ele>
        <time>2021-08-01T14:55:33Z</time>
      </trkpt>
      <trkpt lat="43.212827" lon="-4.982042">
        <ele>2105.456</ele>
        <time>2021-08-01T14:55:58Z</time>
      </trkpt>
      <trkpt lat="43.212808" lon="-4.982098">
        <ele>2107.435</ele>
        <time>2021-08-01T14:56:20Z</time>
      </trkpt>
      <trkpt lat="43.212821" lon="-4.982163">
        <ele>2106.977</ele>
        <time>2021-08-01T14:56:50Z</time>
      </trkpt>
      <trkpt lat="43.212777" lon="-4.982176">
        <ele>2106.421</ele>
        <time>2021-08-01T14:57:02Z</time>
      </trkpt>
      <trkpt lat="43.212741" lon="-4.982214">
        <ele>2104.648</ele>
        <time>2021-08-01T14:57:16Z</time>
      </trkpt>
      <trkpt lat="43.212703" lon="-4.982171">
        <ele>2103.413</ele>
        <time>2021-08-01T14:57:27Z</time>
      </trkpt>
      <trkpt lat="43.212707" lon="-4.982104">
        <ele>2102.363</ele>
        <time>2021-08-01T14:57:33Z</time>
      </trkpt>
      <trkpt lat="43.212662" lon="-4.982118">
        <ele>2101.739</ele>
        <time>2021-08-01T14:57:45Z</time>
      </trkpt>
      <trkpt lat="43.212613" lon="-4.982118">
        <ele>2101.101</ele>
        <time>2021-08-01T14:57:50Z</time>
      </trkpt>
      <trkpt lat="43.2126" lon="-4.982182">
        <ele>2100.821</ele>
        <time>2021-08-01T14:57:54Z</time>
      </trkpt>
      <trkpt lat="43.212555" lon="-4.982206">
        <ele>2101.108</ele>
        <time>2021-08-01T14:58:01Z</time>
      </trkpt>
      <trkpt lat="43.212514" lon="-4.982175">
        <ele>2099.480</ele>
        <time>2021-08-01T14:58:41Z</time>
      </trkpt>
      <trkpt lat="43.21247" lon="-4.982196">
        <ele>2097.152</ele>
        <time>2021-08-01T14:58:59Z</time>
      </trkpt>
      <trkpt lat="43.212435" lon="-4.982237">
        <ele>2094.671</ele>
        <time>2021-08-01T14:59:25Z</time>
      </trkpt>
      <trkpt lat="43.212412" lon="-4.982181">
        <ele>2092.683</ele>
        <time>2021-08-01T14:59:54Z</time>
      </trkpt>
      <trkpt lat="43.212386" lon="-4.982129">
        <ele>2091.597</ele>
        <time>2021-08-01T14:59:58Z</time>
      </trkpt>
      <trkpt lat="43.212362" lon="-4.982071">
        <ele>2091.074</ele>
        <time>2021-08-01T15:00:05Z</time>
      </trkpt>
      <trkpt lat="43.212317" lon="-4.982065">
        <ele>2089.919</ele>
        <time>2021-08-01T15:00:13Z</time>
      </trkpt>
      <trkpt lat="43.212267" lon="-4.982067">
        <ele>2089.839</ele>
        <time>2021-08-01T15:00:20Z</time>
      </trkpt>
      <trkpt lat="43.212221" lon="-4.982076">
        <ele>2089.859</ele>
        <time>2021-08-01T15:00:25Z</time>
      </trkpt>
      <trkpt lat="43.212237" lon="-4.98201">
        <ele>2089.103</ele>
        <time>2021-08-01T15:01:59Z</time>
      </trkpt>
      <trkpt lat="43.212237" lon="-4.982079">
        <ele>2090.223</ele>
        <time>2021-08-01T15:02:36Z</time>
      </trkpt>
      <trkpt lat="43.212194" lon="-4.982035">
        <ele>2090.908</ele>
        <time>2021-08-01T15:02:54Z</time>
      </trkpt>
      <trkpt lat="43.212152" lon="-4.982065">
        <ele>2091.862</ele>
        <time>2021-08-01T15:03:00Z</time>
      </trkpt>
      <trkpt lat="43.212141" lon="-4.981999">
        <ele>2090.824</ele>
        <time>2021-08-01T15:03:35Z</time>
      </trkpt>
      <trkpt lat="43.21217" lon="-4.982046">
        <ele>2089.883</ele>
        <time>2021-08-01T15:03:52Z</time>
      </trkpt>
      <trkpt lat="43.212134" lon="-4.982006">
        <ele>2088.985</ele>
        <time>2021-08-01T15:03:56Z</time>
      </trkpt>
      <trkpt lat="43.212089" lon="-4.982017">
        <ele>2087.719</ele>
        <time>2021-08-01T15:04:02Z</time>
      </trkpt>
      <trkpt lat="43.212078" lon="-4.982087">
        <ele>2087.126</ele>
        <time>2021-08-01T15:04:06Z</time>
      </trkpt>
      <trkpt lat="43.212058" lon="-4.982144">
        <ele>2085.421</ele>
        <time>2021-08-01T15:04:09Z</time>
      </trkpt>
      <trkpt lat="43.212023" lon="-4.982184">
        <ele>2083.691</ele>
        <time>2021-08-01T15:04:12Z</time>
      </trkpt>
      <trkpt lat="43.211988" lon="-4.982228">
        <ele>2082.987</ele>
        <time>2021-08-01T15:04:16Z</time>
      </trkpt>
      <trkpt lat="43.212014" lon="-4.982176">
        <ele>2081.842</ele>
        <time>2021-08-01T15:04:36Z</time>
      </trkpt>
      <trkpt lat="43.211991" lon="-4.982119">
        <ele>2080.526</ele>
        <time>2021-08-01T15:04:46Z</time>
      </trkpt>
      <trkpt lat="43.211949" lon="-4.982152">
        <ele>2080.108</ele>
        <time>2021-08-01T15:05:26Z</time>
      </trkpt>
      <trkpt lat="43.211925" lon="-4.982205">
        <ele>2079.385</ele>
        <time>2021-08-01T15:05:32Z</time>
      </trkpt>
      <trkpt lat="43.21191" lon="-4.982267">
        <ele>2078.477</ele>
        <time>2021-08-01T15:05:38Z</time>
      </trkpt>
      <trkpt lat="43.211875" lon="-4.982314">
        <ele>2077.546</ele>
        <time>2021-08-01T15:05:44Z</time>
      </trkpt>
      <trkpt lat="43.211835" lon="-4.982342">
        <ele>2075.618</ele>
        <time>2021-08-01T15:05:50Z</time>
      </trkpt>
      <trkpt lat="43.211803" lon="-4.982389">
        <ele>2074.162</ele>
        <time>2021-08-01T15:05:58Z</time>
      </trkpt>
      <trkpt lat="43.211754" lon="-4.982404">
        <ele>2073.399</ele>
        <time>2021-08-01T15:06:03Z</time>
      </trkpt>
      <trkpt lat="43.211729" lon="-4.982461">
        <ele>2072.034</ele>
        <time>2021-08-01T15:06:07Z</time>
      </trkpt>
      <trkpt lat="43.21171" lon="-4.982518">
        <ele>2071.934</ele>
        <time>2021-08-01T15:06:10Z</time>
      </trkpt>
      <trkpt lat="43.211716" lon="-4.982583">
        <ele>2071.187</ele>
        <time>2021-08-01T15:06:16Z</time>
      </trkpt>
      <trkpt lat="43.211681" lon="-4.982633">
        <ele>2070.042</ele>
        <time>2021-08-01T15:06:24Z</time>
      </trkpt>
      <trkpt lat="43.211639" lon="-4.982667">
        <ele>2069.326</ele>
        <time>2021-08-01T15:06:31Z</time>
      </trkpt>
      <trkpt lat="43.211636" lon="-4.982736">
        <ele>2068.708</ele>
        <time>2021-08-01T15:06:36Z</time>
      </trkpt>
      <trkpt lat="43.21159" lon="-4.982735">
        <ele>2068.375</ele>
        <time>2021-08-01T15:06:42Z</time>
      </trkpt>
      <trkpt lat="43.211545" lon="-4.982726">
        <ele>2067.287</ele>
        <time>2021-08-01T15:06:46Z</time>
      </trkpt>
      <trkpt lat="43.211502" lon="-4.982704">
        <ele>2067.496</ele>
        <time>2021-08-01T15:06:50Z</time>
      </trkpt>
      <trkpt lat="43.211456" lon="-4.982682">
        <ele>2068.158</ele>
        <time>2021-08-01T15:06:53Z</time>
      </trkpt>
      <trkpt lat="43.211409" lon="-4.982676">
        <ele>2068.162</ele>
        <time>2021-08-01T15:06:56Z</time>
      </trkpt>
      <trkpt lat="43.211361" lon="-4.982684">
        <ele>2069.219</ele>
        <time>2021-08-01T15:07:00Z</time>
      </trkpt>
      <trkpt lat="43.211322" lon="-4.982718">
        <ele>2070.454</ele>
        <time>2021-08-01T15:07:05Z</time>
      </trkpt>
      <trkpt lat="43.21129" lon="-4.982767">
        <ele>2072.744</ele>
        <time>2021-08-01T15:07:14Z</time>
      </trkpt>
      <trkpt lat="43.21126" lon="-4.982822">
        <ele>2074.525</ele>
        <time>2021-08-01T15:07:19Z</time>
      </trkpt>
      <trkpt lat="43.21125" lon="-4.982887">
        <ele>2075.826</ele>
        <time>2021-08-01T15:07:23Z</time>
      </trkpt>
      <trkpt lat="43.211202" lon="-4.982894">
        <ele>2076.908</ele>
        <time>2021-08-01T15:07:27Z</time>
      </trkpt>
      <trkpt lat="43.21116" lon="-4.982861">
        <ele>2077.908</ele>
        <time>2021-08-01T15:07:31Z</time>
      </trkpt>
      <trkpt lat="43.211135" lon="-4.982808">
        <ele>2079.249</ele>
        <time>2021-08-01T15:07:40Z</time>
      </trkpt>
      <trkpt lat="43.211102" lon="-4.982765">
        <ele>2080.311</ele>
        <time>2021-08-01T15:07:43Z</time>
      </trkpt>
      <trkpt lat="43.211056" lon="-4.982724">
        <ele>2080.930</ele>
        <time>2021-08-01T15:07:47Z</time>
      </trkpt>
      <trkpt lat="43.211006" lon="-4.982706">
        <ele>2082.762</ele>
        <time>2021-08-01T15:08:03Z</time>
      </trkpt>
      <trkpt lat="43.21096" lon="-4.982721">
        <ele>2083.316</ele>
        <time>2021-08-01T15:08:08Z</time>
      </trkpt>
      <trkpt lat="43.210926" lon="-4.982763">
        <ele>2084.243</ele>
        <time>2021-08-01T15:08:11Z</time>
      </trkpt>
      <trkpt lat="43.210882" lon="-4.982786">
        <ele>2085.598</ele>
        <time>2021-08-01T15:08:18Z</time>
      </trkpt>
      <trkpt lat="43.210842" lon="-4.982751">
        <ele>2086.718</ele>
        <time>2021-08-01T15:08:22Z</time>
      </trkpt>
      <trkpt lat="43.210846" lon="-4.982687">
        <ele>2088.225</ele>
        <time>2021-08-01T15:08:44Z</time>
      </trkpt>
      <trkpt lat="43.210801" lon="-4.982672">
        <ele>2088.026</ele>
        <time>2021-08-01T15:08:55Z</time>
      </trkpt>
      <trkpt lat="43.210759" lon="-4.982701">
        <ele>2089.108</ele>
        <time>2021-08-01T15:09:00Z</time>
      </trkpt>
      <trkpt lat="43.210718" lon="-4.98273">
        <ele>2089.608</ele>
        <time>2021-08-01T15:09:05Z</time>
      </trkpt>
      <trkpt lat="43.210683" lon="-4.982773">
        <ele>2090.429</ele>
        <time>2021-08-01T15:09:12Z</time>
      </trkpt>
      <trkpt lat="43.210635" lon="-4.982783">
        <ele>2091.151</ele>
        <time>2021-08-01T15:09:18Z</time>
      </trkpt>
      <trkpt lat="43.2106" lon="-4.982742">
        <ele>2090.360</ele>
        <time>2021-08-01T15:09:23Z</time>
      </trkpt>
      <trkpt lat="43.210551" lon="-4.982732">
        <ele>2090.862</ele>
        <time>2021-08-01T15:09:28Z</time>
      </trkpt>
      <trkpt lat="43.2105" lon="-4.98273">
        <ele>2091.186</ele>
        <time>2021-08-01T15:09:33Z</time>
      </trkpt>
      <trkpt lat="43.210458" lon="-4.982751">
        <ele>2091.473</ele>
        <time>2021-08-01T15:09:37Z</time>
      </trkpt>
      <trkpt lat="43.210424" lon="-4.982793">
        <ele>2091.478</ele>
        <time>2021-08-01T15:09:43Z</time>
      </trkpt>
      <trkpt lat="43.210391" lon="-4.982843">
        <ele>2091.558</ele>
        <time>2021-08-01T15:09:48Z</time>
      </trkpt>
      <trkpt lat="43.210387" lon="-4.982905">
        <ele>2091.163</ele>
        <time>2021-08-01T15:09:53Z</time>
      </trkpt>
      <trkpt lat="43.21036" lon="-4.982855">
        <ele>2091.044</ele>
        <time>2021-08-01T15:10:28Z</time>
      </trkpt>
      <trkpt lat="43.210332" lon="-4.982907">
        <ele>2090.818</ele>
        <time>2021-08-01T15:10:34Z</time>
      </trkpt>
      <trkpt lat="43.210315" lon="-4.982965">
        <ele>2092.008</ele>
        <time>2021-08-01T15:10:57Z</time>
      </trkpt>
      <trkpt lat="43.210281" lon="-4.983016">
        <ele>2093.063</ele>
        <time>2021-08-01T15:11:00Z</time>
      </trkpt>
      <trkpt lat="43.210253" lon="-4.983069">
        <ele>2094.755</ele>
        <time>2021-08-01T15:11:03Z</time>
      </trkpt>
      <trkpt lat="43.210208" lon="-4.98309">
        <ele>2095.924</ele>
        <time>2021-08-01T15:11:08Z</time>
      </trkpt>
      <trkpt lat="43.210178" lon="-4.983138">
        <ele>2096.816</ele>
        <time>2021-08-01T15:11:13Z</time>
      </trkpt>
      <trkpt lat="43.210158" lon="-4.983197">
        <ele>2097.260</ele>
        <time>2021-08-01T15:11:17Z</time>
      </trkpt>
      <trkpt lat="43.210121" lon="-4.983238">
        <ele>2097.857</ele>
        <time>2021-08-01T15:11:22Z</time>
      </trkpt>
      <trkpt lat="43.210081" lon="-4.983199">
        <ele>2098.442</ele>
        <time>2021-08-01T15:11:29Z</time>
      </trkpt>
      <trkpt lat="43.210054" lon="-4.983138">
        <ele>2098.762</ele>
        <time>2021-08-01T15:11:35Z</time>
      </trkpt>
      <trkpt lat="43.210013" lon="-4.983169">
        <ele>2099.371</ele>
        <time>2021-08-01T15:11:42Z</time>
      </trkpt>
      <trkpt lat="43.209972" lon="-4.983205">
        <ele>2099.441</ele>
        <time>2021-08-01T15:11:49Z</time>
      </trkpt>
      <trkpt lat="43.209929" lon="-4.98323">
        <ele>2099.315</ele>
        <time>2021-08-01T15:11:54Z</time>
      </trkpt>
      <trkpt lat="43.20989" lon="-4.983267">
        <ele>2099.208</ele>
        <time>2021-08-01T15:11:59Z</time>
      </trkpt>
      <trkpt lat="43.209858" lon="-4.983317">
        <ele>2098.394</ele>
        <time>2021-08-01T15:12:04Z</time>
      </trkpt>
      <trkpt lat="43.209861" lon="-4.983388">
        <ele>2097.956</ele>
        <time>2021-08-01T15:12:10Z</time>
      </trkpt>
      <trkpt lat="43.209813" lon="-4.983398">
        <ele>2097.485</ele>
        <time>2021-08-01T15:12:17Z</time>
      </trkpt>
      <trkpt lat="43.209848" lon="-4.983437">
        <ele>2096.447</ele>
        <time>2021-08-01T15:12:23Z</time>
      </trkpt>
      <trkpt lat="43.209849" lon="-4.983499">
        <ele>2096.971</ele>
        <time>2021-08-01T15:12:29Z</time>
      </trkpt>
      <trkpt lat="43.20983" lon="-4.98356">
        <ele>2096.258</ele>
        <time>2021-08-01T15:12:50Z</time>
      </trkpt>
      <trkpt lat="43.209801" lon="-4.983612">
        <ele>2095.843</ele>
        <time>2021-08-01T15:12:55Z</time>
      </trkpt>
      <trkpt lat="43.209787" lon="-4.983673">
        <ele>2096.153</ele>
        <time>2021-08-01T15:13:01Z</time>
      </trkpt>
      <trkpt lat="43.209747" lon="-4.983713">
        <ele>2096.337</ele>
        <time>2021-08-01T15:13:08Z</time>
      </trkpt>
      <trkpt lat="43.209716" lon="-4.983665">
        <ele>2096.249</ele>
        <time>2021-08-01T15:13:34Z</time>
      </trkpt>
      <trkpt lat="43.209678" lon="-4.983713">
        <ele>2095.613</ele>
        <time>2021-08-01T15:13:59Z</time>
      </trkpt>
      <trkpt lat="43.209645" lon="-4.983759">
        <ele>2094.908</ele>
        <time>2021-08-01T15:14:04Z</time>
      </trkpt>
      <trkpt lat="43.209599" lon="-4.983785">
        <ele>2095.450</ele>
        <time>2021-08-01T15:14:09Z</time>
      </trkpt>
      <trkpt lat="43.209587" lon="-4.983852">
        <ele>2098.322</ele>
        <time>2021-08-01T15:14:22Z</time>
      </trkpt>
      <trkpt lat="43.209635" lon="-4.983847">
        <ele>2102.371</ele>
        <time>2021-08-01T15:15:00Z</time>
      </trkpt>
      <trkpt lat="43.209607" lon="-4.983896">
        <ele>2105.663</ele>
        <time>2021-08-01T15:15:08Z</time>
      </trkpt>
      <trkpt lat="43.209557" lon="-4.983911">
        <ele>2106.747</ele>
        <time>2021-08-01T15:15:13Z</time>
      </trkpt>
      <trkpt lat="43.209518" lon="-4.983946">
        <ele>2106.294</ele>
        <time>2021-08-01T15:15:40Z</time>
      </trkpt>
      <trkpt lat="43.209476" lon="-4.983972">
        <ele>2106.569</ele>
        <time>2021-08-01T15:15:45Z</time>
      </trkpt>
      <trkpt lat="43.209455" lon="-4.984027">
        <ele>2105.929</ele>
        <time>2021-08-01T15:15:49Z</time>
      </trkpt>
      <trkpt lat="43.209432" lon="-4.984084">
        <ele>2106.421</ele>
        <time>2021-08-01T15:15:53Z</time>
      </trkpt>
      <trkpt lat="43.209411" lon="-4.984145">
        <ele>2106.341</ele>
        <time>2021-08-01T15:15:59Z</time>
      </trkpt>
      <trkpt lat="43.20939" lon="-4.984203">
        <ele>2107.805</ele>
        <time>2021-08-01T15:16:20Z</time>
      </trkpt>
      <trkpt lat="43.209429" lon="-4.984236">
        <ele>2108.108</ele>
        <time>2021-08-01T15:16:29Z</time>
      </trkpt>
      <trkpt lat="43.209383" lon="-4.984239">
        <ele>2108.139</ele>
        <time>2021-08-01T15:17:00Z</time>
      </trkpt>
      <trkpt lat="43.209356" lon="-4.984302">
        <ele>2108.741</ele>
        <time>2021-08-01T15:17:06Z</time>
      </trkpt>
      <trkpt lat="43.209343" lon="-4.984368">
        <ele>2108.730</ele>
        <time>2021-08-01T15:17:10Z</time>
      </trkpt>
      <trkpt lat="43.209327" lon="-4.984433">
        <ele>2109.232</ele>
        <time>2021-08-01T15:17:14Z</time>
      </trkpt>
      <trkpt lat="43.209284" lon="-4.984477">
        <ele>2109.116</ele>
        <time>2021-08-01T15:17:19Z</time>
      </trkpt>
      <trkpt lat="43.209258" lon="-4.984533">
        <ele>2109.293</ele>
        <time>2021-08-01T15:17:30Z</time>
      </trkpt>
      <trkpt lat="43.209206" lon="-4.984536">
        <ele>2109.398</ele>
        <time>2021-08-01T15:17:35Z</time>
      </trkpt>
      <trkpt lat="43.20916" lon="-4.984554">
        <ele>2108.758</ele>
        <time>2021-08-01T15:17:49Z</time>
      </trkpt>
      <trkpt lat="43.209136" lon="-4.984502">
        <ele>2108.898</ele>
        <time>2021-08-01T15:18:13Z</time>
      </trkpt>
      <trkpt lat="43.209154" lon="-4.984563">
        <ele>2108.015</ele>
        <time>2021-08-01T15:18:32Z</time>
      </trkpt>
      <trkpt lat="43.209179" lon="-4.984619">
        <ele>2107.226</ele>
        <time>2021-08-01T15:18:37Z</time>
      </trkpt>
      <trkpt lat="43.209156" lon="-4.984675">
        <ele>2106.508</ele>
        <time>2021-08-01T15:18:45Z</time>
      </trkpt>
      <trkpt lat="43.209108" lon="-4.984706">
        <ele>2105.146</ele>
        <time>2021-08-01T15:18:49Z</time>
      </trkpt>
      <trkpt lat="43.209071" lon="-4.98474">
        <ele>2103.998</ele>
        <time>2021-08-01T15:18:56Z</time>
      </trkpt>
      <trkpt lat="43.209074" lon="-4.984803">
        <ele>2103.787</ele>
        <time>2021-08-01T15:19:02Z</time>
      </trkpt>
      <trkpt lat="43.209033" lon="-4.984839">
        <ele>2102.039</ele>
        <time>2021-08-01T15:19:18Z</time>
      </trkpt>
      <trkpt lat="43.208985" lon="-4.984843">
        <ele>2100.123</ele>
        <time>2021-08-01T15:19:23Z</time>
      </trkpt>
      <trkpt lat="43.208941" lon="-4.984859">
        <ele>2096.950</ele>
        <time>2021-08-01T15:19:47Z</time>
      </trkpt>
      <trkpt lat="43.208977" lon="-4.984915">
        <ele>2094.545</ele>
        <time>2021-08-01T15:19:52Z</time>
      </trkpt>
      <trkpt lat="43.208972" lon="-4.984978">
        <ele>2092.795</ele>
        <time>2021-08-01T15:19:58Z</time>
      </trkpt>
      <trkpt lat="43.20893" lon="-4.985008">
        <ele>2091.444</ele>
        <time>2021-08-01T15:20:01Z</time>
      </trkpt>
      <trkpt lat="43.208891" lon="-4.985052">
        <ele>2088.905</ele>
        <time>2021-08-01T15:20:32Z</time>
      </trkpt>
      <trkpt lat="43.208868" lon="-4.985109">
        <ele>2086.815</ele>
        <time>2021-08-01T15:20:38Z</time>
      </trkpt>
      <trkpt lat="43.208831" lon="-4.98515">
        <ele>2086.108</ele>
        <time>2021-08-01T15:20:41Z</time>
      </trkpt>
      <trkpt lat="43.208799" lon="-4.985194">
        <ele>2085.351</ele>
        <time>2021-08-01T15:20:46Z</time>
      </trkpt>
      <trkpt lat="43.208757" lon="-4.985221">
        <ele>2085.993</ele>
        <time>2021-08-01T15:20:57Z</time>
      </trkpt>
      <trkpt lat="43.208732" lon="-4.985279">
        <ele>2085.842</ele>
        <time>2021-08-01T15:21:06Z</time>
      </trkpt>
      <trkpt lat="43.208697" lon="-4.985328">
        <ele>2084.344</ele>
        <time>2021-08-01T15:21:23Z</time>
      </trkpt>
      <trkpt lat="43.208746" lon="-4.985323">
        <ele>2082.658</ele>
        <time>2021-08-01T15:21:27Z</time>
      </trkpt>
      <trkpt lat="43.208705" lon="-4.985349">
        <ele>2079.585</ele>
        <time>2021-08-01T15:22:03Z</time>
      </trkpt>
      <trkpt lat="43.208726" lon="-4.985406">
        <ele>2076.930</ele>
        <time>2021-08-01T15:22:12Z</time>
      </trkpt>
      <trkpt lat="43.208716" lon="-4.985472">
        <ele>2075.480</ele>
        <time>2021-08-01T15:22:18Z</time>
      </trkpt>
      <trkpt lat="43.20871" lon="-4.985408">
        <ele>2074.093</ele>
        <time>2021-08-01T15:22:26Z</time>
      </trkpt>
      <trkpt lat="43.208687" lon="-4.985464">
        <ele>2072.265</ele>
        <time>2021-08-01T15:22:48Z</time>
      </trkpt>
      <trkpt lat="43.208671" lon="-4.985524">
        <ele>2070.521</ele>
        <time>2021-08-01T15:22:59Z</time>
      </trkpt>
      <trkpt lat="43.208652" lon="-4.985582">
        <ele>2068.708</ele>
        <time>2021-08-01T15:23:03Z</time>
      </trkpt>
      <trkpt lat="43.208611" lon="-4.985613">
        <ele>2067.126</ele>
        <time>2021-08-01T15:23:08Z</time>
      </trkpt>
      <trkpt lat="43.208579" lon="-4.985657">
        <ele>2066.248</ele>
        <time>2021-08-01T15:23:16Z</time>
      </trkpt>
      <trkpt lat="43.208542" lon="-4.985621">
        <ele>2065.567</ele>
        <time>2021-08-01T15:23:36Z</time>
      </trkpt>
      <trkpt lat="43.208506" lon="-4.985572">
        <ele>2064.679</ele>
        <time>2021-08-01T15:23:41Z</time>
      </trkpt>
      <trkpt lat="43.208459" lon="-4.985552">
        <ele>2064.333</ele>
        <time>2021-08-01T15:23:48Z</time>
      </trkpt>
      <trkpt lat="43.208408" lon="-4.985554">
        <ele>2065.010</ele>
        <time>2021-08-01T15:23:55Z</time>
      </trkpt>
      <trkpt lat="43.208364" lon="-4.985568">
        <ele>2065.485</ele>
        <time>2021-08-01T15:24:03Z</time>
      </trkpt>
      <trkpt lat="43.208316" lon="-4.985563">
        <ele>2065.985</ele>
        <time>2021-08-01T15:24:08Z</time>
      </trkpt>
      <trkpt lat="43.208288" lon="-4.985612">
        <ele>2066.838</ele>
        <time>2021-08-01T15:24:29Z</time>
      </trkpt>
      <trkpt lat="43.208238" lon="-4.98561">
        <ele>2067.670</ele>
        <time>2021-08-01T15:24:34Z</time>
      </trkpt>
      <trkpt lat="43.208196" lon="-4.985636">
        <ele>2067.717</ele>
        <time>2021-08-01T15:24:39Z</time>
      </trkpt>
      <trkpt lat="43.208152" lon="-4.985619">
        <ele>2067.708</ele>
        <time>2021-08-01T15:24:44Z</time>
      </trkpt>
      <trkpt lat="43.208107" lon="-4.98561">
        <ele>2067.960</ele>
        <time>2021-08-01T15:24:50Z</time>
      </trkpt>
      <trkpt lat="43.208056" lon="-4.985611">
        <ele>2068.212</ele>
        <time>2021-08-01T15:24:58Z</time>
      </trkpt>
      <trkpt lat="43.208013" lon="-4.985595">
        <ele>2068.281</ele>
        <time>2021-08-01T15:25:05Z</time>
      </trkpt>
      <trkpt lat="43.207969" lon="-4.985613">
        <ele>2067.763</ele>
        <time>2021-08-01T15:25:11Z</time>
      </trkpt>
      <trkpt lat="43.207925" lon="-4.985599">
        <ele>2068.487</ele>
        <time>2021-08-01T15:25:36Z</time>
      </trkpt>
      <trkpt lat="43.207878" lon="-4.985583">
        <ele>2068.224</ele>
        <time>2021-08-01T15:25:45Z</time>
      </trkpt>
      <trkpt lat="43.207833" lon="-4.985562">
        <ele>2068.459</ele>
        <time>2021-08-01T15:25:50Z</time>
      </trkpt>
      <trkpt lat="43.207787" lon="-4.985549">
        <ele>2069.839</ele>
        <time>2021-08-01T15:25:55Z</time>
      </trkpt>
      <trkpt lat="43.207743" lon="-4.985524">
        <ele>2069.682</ele>
        <time>2021-08-01T15:26:02Z</time>
      </trkpt>
      <trkpt lat="43.207701" lon="-4.985545">
        <ele>2069.643</ele>
        <time>2021-08-01T15:26:07Z</time>
      </trkpt>
      <trkpt lat="43.207691" lon="-4.985479">
        <ele>2070.617</ele>
        <time>2021-08-01T15:27:52Z</time>
      </trkpt>
      <trkpt lat="43.207652" lon="-4.985538">
        <ele>2071.208</ele>
        <time>2021-08-01T15:29:53Z</time>
      </trkpt>
      <trkpt lat="43.207613" lon="-4.985507">
        <ele>2075.285</ele>
        <time>2021-08-01T15:42:45Z</time>
      </trkpt>
      <trkpt lat="43.207625" lon="-4.985441">
        <ele>2077.077</ele>
        <time>2021-08-01T15:43:18Z</time>
      </trkpt>
      <trkpt lat="43.207603" lon="-4.985383">
        <ele>2078.496</ele>
        <time>2021-08-01T15:43:27Z</time>
      </trkpt>
      <trkpt lat="43.207557" lon="-4.985396">
        <ele>2079.558</ele>
        <time>2021-08-01T15:43:37Z</time>
      </trkpt>
      <trkpt lat="43.207507" lon="-4.985396">
        <ele>2080.692</ele>
        <time>2021-08-01T15:43:45Z</time>
      </trkpt>
      <trkpt lat="43.20746" lon="-4.985395">
        <ele>2080.989</ele>
        <time>2021-08-01T15:43:49Z</time>
      </trkpt>
      <trkpt lat="43.207415" lon="-4.985393">
        <ele>2081.984</ele>
        <time>2021-08-01T15:43:53Z</time>
      </trkpt>
      <trkpt lat="43.20737" lon="-4.98539">
        <ele>2082.154</ele>
        <time>2021-08-01T15:43:58Z</time>
      </trkpt>
      <trkpt lat="43.207325" lon="-4.985402">
        <ele>2082.895</ele>
        <time>2021-08-01T15:44:07Z</time>
      </trkpt>
      <trkpt lat="43.207286" lon="-4.985367">
        <ele>2083.949</ele>
        <time>2021-08-01T15:44:17Z</time>
      </trkpt>
      <trkpt lat="43.207241" lon="-4.985324">
        <ele>2084.623</ele>
        <time>2021-08-01T15:44:23Z</time>
      </trkpt>
      <trkpt lat="43.207197" lon="-4.985298">
        <ele>2086.008</ele>
        <time>2021-08-01T15:44:27Z</time>
      </trkpt>
      <trkpt lat="43.207148" lon="-4.985308">
        <ele>2086.576</ele>
        <time>2021-08-01T15:44:32Z</time>
      </trkpt>
      <trkpt lat="43.207109" lon="-4.985347">
        <ele>2084.888</ele>
        <time>2021-08-01T15:45:14Z</time>
      </trkpt>
      <trkpt lat="43.207085" lon="-4.9854">
        <ele>2084.387</ele>
        <time>2021-08-01T15:45:24Z</time>
      </trkpt>
      <trkpt lat="43.207045" lon="-4.985348">
        <ele>2085.119</ele>
        <time>2021-08-01T15:45:35Z</time>
      </trkpt>
      <trkpt lat="43.207021" lon="-4.985294">
        <ele>2085.823</ele>
        <time>2021-08-01T15:45:42Z</time>
      </trkpt>
      <trkpt lat="43.207008" lon="-4.985228">
        <ele>2087.390</ele>
        <time>2021-08-01T15:45:48Z</time>
      </trkpt>
      <trkpt lat="43.20697" lon="-4.985195">
        <ele>2088.615</ele>
        <time>2021-08-01T15:46:02Z</time>
      </trkpt>
      <trkpt lat="43.206933" lon="-4.985158">
        <ele>2090.365</ele>
        <time>2021-08-01T15:46:10Z</time>
      </trkpt>
      <trkpt lat="43.206899" lon="-4.985109">
        <ele>2091.524</ele>
        <time>2021-08-01T15:46:16Z</time>
      </trkpt>
      <trkpt lat="43.206858" lon="-4.985079">
        <ele>2091.804</ele>
        <time>2021-08-01T15:46:38Z</time>
      </trkpt>
      <trkpt lat="43.206807" lon="-4.985057">
        <ele>2092.114</ele>
        <time>2021-08-01T15:46:43Z</time>
      </trkpt>
      <trkpt lat="43.206767" lon="-4.985027">
        <ele>2092.208</ele>
        <time>2021-08-01T15:46:52Z</time>
      </trkpt>
      <trkpt lat="43.206754" lon="-4.984964">
        <ele>2092.289</ele>
        <time>2021-08-01T15:46:58Z</time>
      </trkpt>
      <trkpt lat="43.20679" lon="-4.984926">
        <ele>2092.061</ele>
        <time>2021-08-01T15:47:04Z</time>
      </trkpt>
      <trkpt lat="43.206774" lon="-4.984987">
        <ele>2092.750</ele>
        <time>2021-08-01T15:47:23Z</time>
      </trkpt>
      <trkpt lat="43.206734" lon="-4.985017">
        <ele>2092.832</ele>
        <time>2021-08-01T15:47:38Z</time>
      </trkpt>
      <trkpt lat="43.20669" lon="-4.984989">
        <ele>2091.846</ele>
        <time>2021-08-01T15:47:52Z</time>
      </trkpt>
      <trkpt lat="43.206652" lon="-4.984952">
        <ele>2091.383</ele>
        <time>2021-08-01T15:48:04Z</time>
      </trkpt>
      <trkpt lat="43.206621" lon="-4.984901">
        <ele>2090.998</ele>
        <time>2021-08-01T15:48:40Z</time>
      </trkpt>
      <trkpt lat="43.206578" lon="-4.984933">
        <ele>2090.528</ele>
        <time>2021-08-01T15:49:19Z</time>
      </trkpt>
      <trkpt lat="43.206528" lon="-4.98492">
        <ele>2091.537</ele>
        <time>2021-08-01T15:49:39Z</time>
      </trkpt>
      <trkpt lat="43.206478" lon="-4.984916">
        <ele>2091.949</ele>
        <time>2021-08-01T15:49:44Z</time>
      </trkpt>
      <trkpt lat="43.206447" lon="-4.984962">
        <ele>2093.213</ele>
        <time>2021-08-01T15:49:53Z</time>
      </trkpt>
      <trkpt lat="43.206399" lon="-4.984962">
        <ele>2093.908</ele>
        <time>2021-08-01T15:50:11Z</time>
      </trkpt>
      <trkpt lat="43.206363" lon="-4.985006">
        <ele>2094.360</ele>
        <time>2021-08-01T15:50:20Z</time>
      </trkpt>
      <trkpt lat="43.206332" lon="-4.985055">
        <ele>2094.762</ele>
        <time>2021-08-01T15:50:25Z</time>
      </trkpt>
      <trkpt lat="43.206319" lon="-4.985114">
        <ele>2094.691</ele>
        <time>2021-08-01T15:50:28Z</time>
      </trkpt>
      <trkpt lat="43.206288" lon="-4.98516">
        <ele>2094.393</ele>
        <time>2021-08-01T15:50:35Z</time>
      </trkpt>
      <trkpt lat="43.206257" lon="-4.98521">
        <ele>2093.387</ele>
        <time>2021-08-01T15:50:54Z</time>
      </trkpt>
      <trkpt lat="43.206239" lon="-4.985272">
        <ele>2093.214</ele>
        <time>2021-08-01T15:50:59Z</time>
      </trkpt>
      <trkpt lat="43.206202" lon="-4.985309">
        <ele>2093.889</ele>
        <time>2021-08-01T15:51:06Z</time>
      </trkpt>
      <trkpt lat="43.206177" lon="-4.985365">
        <ele>2093.449</ele>
        <time>2021-08-01T15:51:15Z</time>
      </trkpt>
      <trkpt lat="43.206133" lon="-4.985344">
        <ele>2093.455</ele>
        <time>2021-08-01T15:51:22Z</time>
      </trkpt>
      <trkpt lat="43.206118" lon="-4.985284">
        <ele>2093.307</ele>
        <time>2021-08-01T15:51:27Z</time>
      </trkpt>
      <trkpt lat="43.206108" lon="-4.985221">
        <ele>2092.617</ele>
        <time>2021-08-01T15:51:32Z</time>
      </trkpt>
      <trkpt lat="43.206061" lon="-4.985198">
        <ele>2092.108</ele>
        <time>2021-08-01T15:51:38Z</time>
      </trkpt>
      <trkpt lat="43.206011" lon="-4.985195">
        <ele>2092.572</ele>
        <time>2021-08-01T15:51:45Z</time>
      </trkpt>
      <trkpt lat="43.205975" lon="-4.985157">
        <ele>2092.324</ele>
        <time>2021-08-01T15:51:59Z</time>
      </trkpt>
      <trkpt lat="43.205938" lon="-4.98511">
        <ele>2092.043</ele>
        <time>2021-08-01T15:52:10Z</time>
      </trkpt>
      <trkpt lat="43.205909" lon="-4.985056">
        <ele>2093.245</ele>
        <time>2021-08-01T15:52:19Z</time>
      </trkpt>
      <trkpt lat="43.205861" lon="-4.985036">
        <ele>2093.789</ele>
        <time>2021-08-01T15:52:25Z</time>
      </trkpt>
      <trkpt lat="43.205818" lon="-4.985004">
        <ele>2094.266</ele>
        <time>2021-08-01T15:52:31Z</time>
      </trkpt>
      <trkpt lat="43.205767" lon="-4.984988">
        <ele>2095.351</ele>
        <time>2021-08-01T15:52:36Z</time>
      </trkpt>
      <trkpt lat="43.205737" lon="-4.984941">
        <ele>2096.851</ele>
        <time>2021-08-01T15:53:00Z</time>
      </trkpt>
      <trkpt lat="43.205723" lon="-4.984878">
        <ele>2097.979</ele>
        <time>2021-08-01T15:53:06Z</time>
      </trkpt>
      <trkpt lat="43.205681" lon="-4.984909">
        <ele>2099.005</ele>
        <time>2021-08-01T15:54:01Z</time>
      </trkpt>
      <trkpt lat="43.205646" lon="-4.984952">
        <ele>2099.425</ele>
        <time>2021-08-01T15:54:11Z</time>
      </trkpt>
      <trkpt lat="43.20563" lon="-4.984889">
        <ele>2100.408</ele>
        <time>2021-08-01T15:54:26Z</time>
      </trkpt>
      <trkpt lat="43.205597" lon="-4.984941">
        <ele>2101.424</ele>
        <time>2021-08-01T15:55:01Z</time>
      </trkpt>
      <trkpt lat="43.205552" lon="-4.984951">
        <ele>2102.626</ele>
        <time>2021-08-01T15:55:08Z</time>
      </trkpt>
      <trkpt lat="43.205508" lon="-4.984933">
        <ele>2105.085</ele>
        <time>2021-08-01T15:55:25Z</time>
      </trkpt>
      <trkpt lat="43.205468" lon="-4.984895">
        <ele>2105.477</ele>
        <time>2021-08-01T15:55:31Z</time>
      </trkpt>
      <trkpt lat="43.205471" lon="-4.98483">
        <ele>2105.871</ele>
        <time>2021-08-01T15:55:37Z</time>
      </trkpt>
      <trkpt lat="43.205517" lon="-4.984802">
        <ele>2106.088</ele>
        <time>2021-08-01T15:55:40Z</time>
      </trkpt>
      <trkpt lat="43.205522" lon="-4.98474">
        <ele>2105.633</ele>
        <time>2021-08-01T15:55:49Z</time>
      </trkpt>
      <trkpt lat="43.205475" lon="-4.984708">
        <ele>2105.573</ele>
        <time>2021-08-01T15:55:53Z</time>
      </trkpt>
      <trkpt lat="43.205426" lon="-4.984688">
        <ele>2104.315</ele>
        <time>2021-08-01T15:55:59Z</time>
      </trkpt>
      <trkpt lat="43.205392" lon="-4.984642">
        <ele>2104.565</ele>
        <time>2021-08-01T15:56:25Z</time>
      </trkpt>
      <trkpt lat="43.205381" lon="-4.984573">
        <ele>2104.711</ele>
        <time>2021-08-01T15:56:32Z</time>
      </trkpt>
      <trkpt lat="43.205362" lon="-4.984514">
        <ele>2104.608</ele>
        <time>2021-08-01T15:56:37Z</time>
      </trkpt>
      <trkpt lat="43.205342" lon="-4.984451">
        <ele>2104.638</ele>
        <time>2021-08-01T15:56:43Z</time>
      </trkpt>
      <trkpt lat="43.205322" lon="-4.984387">
        <ele>2104.410</ele>
        <time>2021-08-01T15:56:49Z</time>
      </trkpt>
      <trkpt lat="43.205313" lon="-4.984323">
        <ele>2103.889</ele>
        <time>2021-08-01T15:56:55Z</time>
      </trkpt>
      <trkpt lat="43.205316" lon="-4.984258">
        <ele>2103.291</ele>
        <time>2021-08-01T15:57:10Z</time>
      </trkpt>
      <trkpt lat="43.205273" lon="-4.984235">
        <ele>2102.365</ele>
        <time>2021-08-01T15:57:19Z</time>
      </trkpt>
      <trkpt lat="43.205228" lon="-4.984207">
        <ele>2102.352</ele>
        <time>2021-08-01T15:57:35Z</time>
      </trkpt>
      <trkpt lat="43.205202" lon="-4.984155">
        <ele>2101.847</ele>
        <time>2021-08-01T15:57:51Z</time>
      </trkpt>
      <trkpt lat="43.205198" lon="-4.984091">
        <ele>2102.217</ele>
        <time>2021-08-01T15:57:59Z</time>
      </trkpt>
      <trkpt lat="43.205192" lon="-4.984025">
        <ele>2102.135</ele>
        <time>2021-08-01T15:58:07Z</time>
      </trkpt>
      <trkpt lat="43.20517" lon="-4.983968">
        <ele>2101.486</ele>
        <time>2021-08-01T15:58:40Z</time>
      </trkpt>
      <trkpt lat="43.205147" lon="-4.983907">
        <ele>2100.714</ele>
        <time>2021-08-01T15:58:44Z</time>
      </trkpt>
      <trkpt lat="43.205154" lon="-4.983846">
        <ele>2100.608</ele>
        <time>2021-08-01T15:59:02Z</time>
      </trkpt>
      <trkpt lat="43.205177" lon="-4.983786">
        <ele>2100.250</ele>
        <time>2021-08-01T15:59:07Z</time>
      </trkpt>
      <trkpt lat="43.205211" lon="-4.983738">
        <ele>2100.082</ele>
        <time>2021-08-01T15:59:12Z</time>
      </trkpt>
      <trkpt lat="43.205236" lon="-4.983682">
        <ele>2099.791</ele>
        <time>2021-08-01T15:59:17Z</time>
      </trkpt>
      <trkpt lat="43.205243" lon="-4.983618">
        <ele>2099.963</ele>
        <time>2021-08-01T15:59:21Z</time>
      </trkpt>
      <trkpt lat="43.20526" lon="-4.98356">
        <ele>2100.177</ele>
        <time>2021-08-01T15:59:26Z</time>
      </trkpt>
      <trkpt lat="43.205269" lon="-4.983498">
        <ele>2098.484</ele>
        <time>2021-08-01T15:59:52Z</time>
      </trkpt>
      <trkpt lat="43.205266" lon="-4.98356">
        <ele>2097.689</ele>
        <time>2021-08-01T16:00:16Z</time>
      </trkpt>
      <trkpt lat="43.205282" lon="-4.983479">
        <ele>2095.229</ele>
        <time>2021-08-01T16:01:12Z</time>
      </trkpt>
      <trkpt lat="43.205291" lon="-4.983385">
        <ele>2092.831</ele>
        <time>2021-08-01T16:01:14Z</time>
      </trkpt>
      <trkpt lat="43.20533" lon="-4.983346">
        <ele>2091.761</ele>
        <time>2021-08-01T16:01:29Z</time>
      </trkpt>
      <trkpt lat="43.205383" lon="-4.983356">
        <ele>2090.607</ele>
        <time>2021-08-01T16:01:31Z</time>
      </trkpt>
      <trkpt lat="43.205307" lon="-4.983337">
        <ele>2089.808</ele>
        <time>2021-08-01T16:01:56Z</time>
      </trkpt>
      <trkpt lat="43.205349" lon="-4.983373">
        <ele>2089.260</ele>
        <time>2021-08-01T16:02:10Z</time>
      </trkpt>
      <trkpt lat="43.205395" lon="-4.983361">
        <ele>2089.362</ele>
        <time>2021-08-01T16:02:17Z</time>
      </trkpt>
      <trkpt lat="43.205439" lon="-4.983346">
        <ele>2088.761</ele>
        <time>2021-08-01T16:02:31Z</time>
      </trkpt>
      <trkpt lat="43.205486" lon="-4.983324">
        <ele>2089.063</ele>
        <time>2021-08-01T16:02:37Z</time>
      </trkpt>
      <trkpt lat="43.205523" lon="-4.983285">
        <ele>2088.717</ele>
        <time>2021-08-01T16:02:42Z</time>
      </trkpt>
      <trkpt lat="43.205564" lon="-4.983257">
        <ele>2088.394</ele>
        <time>2021-08-01T16:02:53Z</time>
      </trkpt>
      <trkpt lat="43.205591" lon="-4.983206">
        <ele>2089.269</ele>
        <time>2021-08-01T16:03:02Z</time>
      </trkpt>
      <trkpt lat="43.20561" lon="-4.983147">
        <ele>2091.439</ele>
        <time>2021-08-01T16:03:14Z</time>
      </trkpt>
      <trkpt lat="43.205586" lon="-4.983089">
        <ele>2092.995</ele>
        <time>2021-08-01T16:03:16Z</time>
      </trkpt>
      <trkpt lat="43.205575" lon="-4.98302">
        <ele>2093.849</ele>
        <time>2021-08-01T16:03:19Z</time>
      </trkpt>
      <trkpt lat="43.205572" lon="-4.982951">
        <ele>2093.923</ele>
        <time>2021-08-01T16:03:29Z</time>
      </trkpt>
      <trkpt lat="43.20559" lon="-4.982891">
        <ele>2093.408</ele>
        <time>2021-08-01T16:03:38Z</time>
      </trkpt>
      <trkpt lat="43.205617" lon="-4.98282">
        <ele>2093.266</ele>
        <time>2021-08-01T16:03:47Z</time>
      </trkpt>
      <trkpt lat="43.205661" lon="-4.982808">
        <ele>2092.618</ele>
        <time>2021-08-01T16:03:54Z</time>
      </trkpt>
      <trkpt lat="43.205711" lon="-4.982825">
        <ele>2091.257</ele>
        <time>2021-08-01T16:04:01Z</time>
      </trkpt>
      <trkpt lat="43.205756" lon="-4.982822">
        <ele>2090.739</ele>
        <time>2021-08-01T16:04:14Z</time>
      </trkpt>
      <trkpt lat="43.205784" lon="-4.982772">
        <ele>2089.643</ele>
        <time>2021-08-01T16:04:34Z</time>
      </trkpt>
      <trkpt lat="43.205822" lon="-4.982728">
        <ele>2087.550</ele>
        <time>2021-08-01T16:04:57Z</time>
      </trkpt>
      <trkpt lat="43.205864" lon="-4.982749">
        <ele>2086.335</ele>
        <time>2021-08-01T16:05:05Z</time>
      </trkpt>
      <trkpt lat="43.205901" lon="-4.982792">
        <ele>2084.955</ele>
        <time>2021-08-01T16:05:11Z</time>
      </trkpt>
      <trkpt lat="43.205916" lon="-4.982719">
        <ele>2082.967</ele>
        <time>2021-08-01T16:05:41Z</time>
      </trkpt>
      <trkpt lat="43.205931" lon="-4.98266">
        <ele>2081.081</ele>
        <time>2021-08-01T16:05:45Z</time>
      </trkpt>
      <trkpt lat="43.205953" lon="-4.9826">
        <ele>2079.719</ele>
        <time>2021-08-01T16:05:51Z</time>
      </trkpt>
      <trkpt lat="43.205972" lon="-4.982536">
        <ele>2078.108</ele>
        <time>2021-08-01T16:06:00Z</time>
      </trkpt>
      <trkpt lat="43.205997" lon="-4.98248">
        <ele>2076.893</ele>
        <time>2021-08-01T16:06:05Z</time>
      </trkpt>
      <trkpt lat="43.205964" lon="-4.982435">
        <ele>2074.985</ele>
        <time>2021-08-01T16:06:26Z</time>
      </trkpt>
      <trkpt lat="43.206011" lon="-4.982434">
        <ele>2073.024</ele>
        <time>2021-08-01T16:06:56Z</time>
      </trkpt>
      <trkpt lat="43.205997" lon="-4.982368">
        <ele>2071.966</ele>
        <time>2021-08-01T16:07:18Z</time>
      </trkpt>
      <trkpt lat="43.206016" lon="-4.982302">
        <ele>2067.910</ele>
        <time>2021-08-01T16:07:23Z</time>
      </trkpt>
      <trkpt lat="43.20605" lon="-4.982253">
        <ele>2064.427</ele>
        <time>2021-08-01T16:07:29Z</time>
      </trkpt>
      <trkpt lat="43.20601" lon="-4.982219">
        <ele>2062.152</ele>
        <time>2021-08-01T16:07:34Z</time>
      </trkpt>
      <trkpt lat="43.206056" lon="-4.982183">
        <ele>2060.322</ele>
        <time>2021-08-01T16:07:39Z</time>
      </trkpt>
      <trkpt lat="43.206065" lon="-4.982115">
        <ele>2059.036</ele>
        <time>2021-08-01T16:07:46Z</time>
      </trkpt>
      <trkpt lat="43.206093" lon="-4.982059">
        <ele>2057.617</ele>
        <time>2021-08-01T16:07:53Z</time>
      </trkpt>
      <trkpt lat="43.206074" lon="-4.981999">
        <ele>2056.718</ele>
        <time>2021-08-01T16:07:58Z</time>
      </trkpt>
      <trkpt lat="43.206083" lon="-4.981938">
        <ele>2055.608</ele>
        <time>2021-08-01T16:08:02Z</time>
      </trkpt>
      <trkpt lat="43.206044" lon="-4.981896">
        <ele>2055.390</ele>
        <time>2021-08-01T16:08:28Z</time>
      </trkpt>
      <trkpt lat="43.206014" lon="-4.981846">
        <ele>2055.172</ele>
        <time>2021-08-01T16:08:34Z</time>
      </trkpt>
      <trkpt lat="43.206058" lon="-4.981822">
        <ele>2054.831</ele>
        <time>2021-08-01T16:08:43Z</time>
      </trkpt>
      <trkpt lat="43.20601" lon="-4.981799">
        <ele>2053.483</ele>
        <time>2021-08-01T16:08:57Z</time>
      </trkpt>
      <trkpt lat="43.206044" lon="-4.981742">
        <ele>2052.377</ele>
        <time>2021-08-01T16:09:04Z</time>
      </trkpt>
      <trkpt lat="43.206059" lon="-4.981676">
        <ele>2050.514</ele>
        <time>2021-08-01T16:09:11Z</time>
      </trkpt>
      <trkpt lat="43.2061" lon="-4.981702">
        <ele>2048.599</ele>
        <time>2021-08-01T16:09:18Z</time>
      </trkpt>
      <trkpt lat="43.206063" lon="-4.981663">
        <ele>2047.369</ele>
        <time>2021-08-01T16:09:24Z</time>
      </trkpt>
      <trkpt lat="43.206028" lon="-4.981612">
        <ele>2045.073</ele>
        <time>2021-08-01T16:09:36Z</time>
      </trkpt>
      <trkpt lat="43.205976" lon="-4.9816">
        <ele>2043.385</ele>
        <time>2021-08-01T16:09:43Z</time>
      </trkpt>
      <trkpt lat="43.205928" lon="-4.981581">
        <ele>2042.413</ele>
        <time>2021-08-01T16:09:51Z</time>
      </trkpt>
      <trkpt lat="43.205889" lon="-4.981547">
        <ele>2040.808</ele>
        <time>2021-08-01T16:09:58Z</time>
      </trkpt>
      <trkpt lat="43.20587" lon="-4.981486">
        <ele>2040.874</ele>
        <time>2021-08-01T16:10:10Z</time>
      </trkpt>
      <trkpt lat="43.205897" lon="-4.981424">
        <ele>2039.116</ele>
        <time>2021-08-01T16:10:14Z</time>
      </trkpt>
      <trkpt lat="43.205908" lon="-4.981355">
        <ele>2036.955</ele>
        <time>2021-08-01T16:10:31Z</time>
      </trkpt>
      <trkpt lat="43.205917" lon="-4.981291">
        <ele>2036.037</ele>
        <time>2021-08-01T16:10:35Z</time>
      </trkpt>
      <trkpt lat="43.205923" lon="-4.981226">
        <ele>2036.031</ele>
        <time>2021-08-01T16:10:43Z</time>
      </trkpt>
      <trkpt lat="43.205958" lon="-4.981157">
        <ele>2036.298</ele>
        <time>2021-08-01T16:11:15Z</time>
      </trkpt>
      <trkpt lat="43.206" lon="-4.981114">
        <ele>2035.583</ele>
        <time>2021-08-01T16:11:22Z</time>
      </trkpt>
      <trkpt lat="43.20602" lon="-4.981043">
        <ele>2035.463</ele>
        <time>2021-08-01T16:11:27Z</time>
      </trkpt>
      <trkpt lat="43.206017" lon="-4.980977">
        <ele>2034.539</ele>
        <time>2021-08-01T16:11:31Z</time>
      </trkpt>
      <trkpt lat="43.206018" lon="-4.980908">
        <ele>2033.801</ele>
        <time>2021-08-01T16:11:35Z</time>
      </trkpt>
      <trkpt lat="43.20606" lon="-4.980879">
        <ele>2032.821</ele>
        <time>2021-08-01T16:11:44Z</time>
      </trkpt>
      <trkpt lat="43.206106" lon="-4.980856">
        <ele>2031.908</ele>
        <time>2021-08-01T16:11:50Z</time>
      </trkpt>
      <trkpt lat="43.206061" lon="-4.980812">
        <ele>2030.430</ele>
        <time>2021-08-01T16:12:31Z</time>
      </trkpt>
      <trkpt lat="43.206077" lon="-4.980754">
        <ele>2028.782</ele>
        <time>2021-08-01T16:12:40Z</time>
      </trkpt>
      <trkpt lat="43.206118" lon="-4.980723">
        <ele>2026.811</ele>
        <time>2021-08-01T16:12:50Z</time>
      </trkpt>
      <trkpt lat="43.206128" lon="-4.980663">
        <ele>2025.163</ele>
        <time>2021-08-01T16:12:56Z</time>
      </trkpt>
      <trkpt lat="43.206166" lon="-4.9807">
        <ele>2024.147</ele>
        <time>2021-08-01T16:13:03Z</time>
      </trkpt>
      <trkpt lat="43.206199" lon="-4.980742">
        <ele>2022.474</ele>
        <time>2021-08-01T16:13:09Z</time>
      </trkpt>
      <trkpt lat="43.206139" lon="-4.980719">
        <ele>2022.399</ele>
        <time>2021-08-01T16:13:17Z</time>
      </trkpt>
      <trkpt lat="43.206101" lon="-4.980683">
        <ele>2020.959</ele>
        <time>2021-08-01T16:13:19Z</time>
      </trkpt>
      <trkpt lat="43.206071" lon="-4.980634">
        <ele>2020.234</ele>
        <time>2021-08-01T16:13:21Z</time>
      </trkpt>
      <trkpt lat="43.206063" lon="-4.980571">
        <ele>2019.955</ele>
        <time>2021-08-01T16:13:24Z</time>
      </trkpt>
      <trkpt lat="43.206088" lon="-4.980512">
        <ele>2019.610</ele>
        <time>2021-08-01T16:13:33Z</time>
      </trkpt>
      <trkpt lat="43.206077" lon="-4.98045">
        <ele>2019.808</ele>
        <time>2021-08-01T16:13:38Z</time>
      </trkpt>
      <trkpt lat="43.20609" lon="-4.980389">
        <ele>2020.270</ele>
        <time>2021-08-01T16:13:42Z</time>
      </trkpt>
      <trkpt lat="43.206108" lon="-4.980322">
        <ele>2020.162</ele>
        <time>2021-08-01T16:13:46Z</time>
      </trkpt>
      <trkpt lat="43.20609" lon="-4.980262">
        <ele>2020.841</ele>
        <time>2021-08-01T16:14:23Z</time>
      </trkpt>
      <trkpt lat="43.206091" lon="-4.980194">
        <ele>2021.943</ele>
        <time>2021-08-01T16:14:29Z</time>
      </trkpt>
      <trkpt lat="43.206099" lon="-4.980133">
        <ele>2023.077</ele>
        <time>2021-08-01T16:14:35Z</time>
      </trkpt>
      <trkpt lat="43.206112" lon="-4.980071">
        <ele>2024.724</ele>
        <time>2021-08-01T16:15:01Z</time>
      </trkpt>
      <trkpt lat="43.206113" lon="-4.980004">
        <ele>2026.219</ele>
        <time>2021-08-01T16:15:50Z</time>
      </trkpt>
      <trkpt lat="43.206136" lon="-4.979948">
        <ele>2027.519</ele>
        <time>2021-08-01T16:16:07Z</time>
      </trkpt>
      <trkpt lat="43.206167" lon="-4.979897">
        <ele>2028.783</ele>
        <time>2021-08-01T16:16:17Z</time>
      </trkpt>
      <trkpt lat="43.20618" lon="-4.979835">
        <ele>2029.925</ele>
        <time>2021-08-01T16:16:23Z</time>
      </trkpt>
      <trkpt lat="43.2062" lon="-4.979778">
        <ele>2030.617</ele>
        <time>2021-08-01T16:16:33Z</time>
      </trkpt>
      <trkpt lat="43.206214" lon="-4.979712">
        <ele>2031.708</ele>
        <time>2021-08-01T16:16:50Z</time>
      </trkpt>
      <trkpt lat="43.206201" lon="-4.979644">
        <ele>2031.935</ele>
        <time>2021-08-01T16:16:55Z</time>
      </trkpt>
      <trkpt lat="43.206173" lon="-4.979588">
        <ele>2032.257</ele>
        <time>2021-08-01T16:16:59Z</time>
      </trkpt>
      <trkpt lat="43.206172" lon="-4.979526">
        <ele>2033.226</ele>
        <time>2021-08-01T16:17:07Z</time>
      </trkpt>
      <trkpt lat="43.206188" lon="-4.979461">
        <ele>2034.588</ele>
        <time>2021-08-01T16:17:14Z</time>
      </trkpt>
      <trkpt lat="43.206161" lon="-4.979409">
        <ele>2035.972</ele>
        <time>2021-08-01T16:17:19Z</time>
      </trkpt>
      <trkpt lat="43.206166" lon="-4.979346">
        <ele>2036.719</ele>
        <time>2021-08-01T16:17:28Z</time>
      </trkpt>
      <trkpt lat="43.20617" lon="-4.979283">
        <ele>2037.134</ele>
        <time>2021-08-01T16:17:34Z</time>
      </trkpt>
      <trkpt lat="43.206144" lon="-4.979231">
        <ele>2037.214</ele>
        <time>2021-08-01T16:17:42Z</time>
      </trkpt>
      <trkpt lat="43.206104" lon="-4.979202">
        <ele>2036.992</ele>
        <time>2021-08-01T16:17:48Z</time>
      </trkpt>
      <trkpt lat="43.20611" lon="-4.979138">
        <ele>2037.173</ele>
        <time>2021-08-01T16:17:57Z</time>
      </trkpt>
      <trkpt lat="43.206115" lon="-4.979069">
        <ele>2038.120</ele>
        <time>2021-08-01T16:18:00Z</time>
      </trkpt>
      <trkpt lat="43.206116" lon="-4.979006">
        <ele>2038.408</ele>
        <time>2021-08-01T16:18:06Z</time>
      </trkpt>
      <trkpt lat="43.206074" lon="-4.978982">
        <ele>2039.256</ele>
        <time>2021-08-01T16:18:31Z</time>
      </trkpt>
      <trkpt lat="43.206076" lon="-4.978915">
        <ele>2041.058</ele>
        <time>2021-08-01T16:18:52Z</time>
      </trkpt>
      <trkpt lat="43.20606" lon="-4.978851">
        <ele>2042.097</ele>
        <time>2021-08-01T16:18:58Z</time>
      </trkpt>
      <trkpt lat="43.206015" lon="-4.978865">
        <ele>2042.189</ele>
        <time>2021-08-01T16:19:11Z</time>
      </trkpt>
      <trkpt lat="43.205969" lon="-4.978868">
        <ele>2041.653</ele>
        <time>2021-08-01T16:19:20Z</time>
      </trkpt>
      <trkpt lat="43.205959" lon="-4.978807">
        <ele>2041.760</ele>
        <time>2021-08-01T16:19:33Z</time>
      </trkpt>
      <trkpt lat="43.205911" lon="-4.978803">
        <ele>2041.815</ele>
        <time>2021-08-01T16:19:54Z</time>
      </trkpt>
      <trkpt lat="43.205927" lon="-4.978743">
        <ele>2041.015</ele>
        <time>2021-08-01T16:20:13Z</time>
      </trkpt>
      <trkpt lat="43.205905" lon="-4.978686">
        <ele>2040.184</ele>
        <time>2021-08-01T16:20:24Z</time>
      </trkpt>
      <trkpt lat="43.205898" lon="-4.978624">
        <ele>2040.107</ele>
        <time>2021-08-01T16:20:35Z</time>
      </trkpt>
      <trkpt lat="43.205865" lon="-4.978577">
        <ele>2041.217</ele>
        <time>2021-08-01T16:20:44Z</time>
      </trkpt>
      <trkpt lat="43.205818" lon="-4.97856">
        <ele>2042.008</ele>
        <time>2021-08-01T16:21:01Z</time>
      </trkpt>
      <trkpt lat="43.205787" lon="-4.978514">
        <ele>2042.585</ele>
        <time>2021-08-01T16:21:08Z</time>
      </trkpt>
      <trkpt lat="43.205775" lon="-4.978454">
        <ele>2043.277</ele>
        <time>2021-08-01T16:21:17Z</time>
      </trkpt>
      <trkpt lat="43.205738" lon="-4.978416">
        <ele>2043.946</ele>
        <time>2021-08-01T16:21:20Z</time>
      </trkpt>
      <trkpt lat="43.205713" lon="-4.978364">
        <ele>2044.038</ele>
        <time>2021-08-01T16:21:25Z</time>
      </trkpt>
      <trkpt lat="43.205692" lon="-4.978307">
        <ele>2044.072</ele>
        <time>2021-08-01T16:21:32Z</time>
      </trkpt>
      <trkpt lat="43.205688" lon="-4.978242">
        <ele>2044.249</ele>
        <time>2021-08-01T16:21:37Z</time>
      </trkpt>
      <trkpt lat="43.205671" lon="-4.978184">
        <ele>2044.394</ele>
        <time>2021-08-01T16:21:42Z</time>
      </trkpt>
      <trkpt lat="43.205633" lon="-4.978142">
        <ele>2044.284</ele>
        <time>2021-08-01T16:21:47Z</time>
      </trkpt>
      <trkpt lat="43.205638" lon="-4.978077">
        <ele>2045.632</ele>
        <time>2021-08-01T16:22:20Z</time>
      </trkpt>
      <trkpt lat="43.2056" lon="-4.978034">
        <ele>2046.892</ele>
        <time>2021-08-01T16:22:26Z</time>
      </trkpt>
      <trkpt lat="43.205575" lon="-4.977982">
        <ele>2048.011</ele>
        <time>2021-08-01T16:22:50Z</time>
      </trkpt>
      <trkpt lat="43.205531" lon="-4.977962">
        <ele>2048.108</ele>
        <time>2021-08-01T16:23:01Z</time>
      </trkpt>
      <trkpt lat="43.205483" lon="-4.977963">
        <ele>2047.640</ele>
        <time>2021-08-01T16:23:12Z</time>
      </trkpt>
      <trkpt lat="43.205425" lon="-4.977984">
        <ele>2047.682</ele>
        <time>2021-08-01T16:23:16Z</time>
      </trkpt>
      <trkpt lat="43.205379" lon="-4.977991">
        <ele>2047.571</ele>
        <time>2021-08-01T16:23:20Z</time>
      </trkpt>
      <trkpt lat="43.205332" lon="-4.977961">
        <ele>2048.043</ele>
        <time>2021-08-01T16:23:28Z</time>
      </trkpt>
      <trkpt lat="43.205286" lon="-4.977969">
        <ele>2048.197</ele>
        <time>2021-08-01T16:23:40Z</time>
      </trkpt>
      <trkpt lat="43.205242" lon="-4.97795">
        <ele>2048.894</ele>
        <time>2021-08-01T16:23:46Z</time>
      </trkpt>
      <trkpt lat="43.205201" lon="-4.977912">
        <ele>2049.499</ele>
        <time>2021-08-01T16:23:52Z</time>
      </trkpt>
      <trkpt lat="43.20518" lon="-4.977857">
        <ele>2049.989</ele>
        <time>2021-08-01T16:23:57Z</time>
      </trkpt>
      <trkpt lat="43.205144" lon="-4.977811">
        <ele>2050.522</ele>
        <time>2021-08-01T16:24:05Z</time>
      </trkpt>
      <trkpt lat="43.205102" lon="-4.977779">
        <ele>2052.162</ele>
        <time>2021-08-01T16:24:10Z</time>
      </trkpt>
      <trkpt lat="43.205072" lon="-4.977728">
        <ele>2052.808</ele>
        <time>2021-08-01T16:24:15Z</time>
      </trkpt>
      <trkpt lat="43.205065" lon="-4.977666">
        <ele>2053.208</ele>
        <time>2021-08-01T16:24:21Z</time>
      </trkpt>
      <trkpt lat="43.205045" lon="-4.977606">
        <ele>2053.899</ele>
        <time>2021-08-01T16:24:28Z</time>
      </trkpt>
      <trkpt lat="43.205001" lon="-4.977576">
        <ele>2053.981</ele>
        <time>2021-08-01T16:24:33Z</time>
      </trkpt>
      <trkpt lat="43.204963" lon="-4.97754">
        <ele>2054.780</ele>
        <time>2021-08-01T16:24:46Z</time>
      </trkpt>
      <trkpt lat="43.204923" lon="-4.977508">
        <ele>2055.572</ele>
        <time>2021-08-01T16:24:58Z</time>
      </trkpt>
      <trkpt lat="43.204884" lon="-4.977475">
        <ele>2056.496</ele>
        <time>2021-08-01T16:25:37Z</time>
      </trkpt>
      <trkpt lat="43.204903" lon="-4.977415">
        <ele>2057.183</ele>
        <time>2021-08-01T16:25:53Z</time>
      </trkpt>
      <trkpt lat="43.204935" lon="-4.977371">
        <ele>2057.838</ele>
        <time>2021-08-01T16:25:57Z</time>
      </trkpt>
      <trkpt lat="43.204933" lon="-4.977302">
        <ele>2058.628</ele>
        <time>2021-08-01T16:26:03Z</time>
      </trkpt>
      <trkpt lat="43.204913" lon="-4.977246">
        <ele>2058.499</ele>
        <time>2021-08-01T16:26:08Z</time>
      </trkpt>
      <trkpt lat="43.204865" lon="-4.977226">
        <ele>2059.107</ele>
        <time>2021-08-01T16:26:15Z</time>
      </trkpt>
      <trkpt lat="43.20483" lon="-4.977268">
        <ele>2059.927</ele>
        <time>2021-08-01T16:26:33Z</time>
      </trkpt>
      <trkpt lat="43.204783" lon="-4.977258">
        <ele>2062.508</ele>
        <time>2021-08-01T16:27:05Z</time>
      </trkpt>
      <trkpt lat="43.20474" lon="-4.977217">
        <ele>2064.746</ele>
        <time>2021-08-01T16:27:11Z</time>
      </trkpt>
      <trkpt lat="43.204692" lon="-4.977209">
        <ele>2067.938</ele>
        <time>2021-08-01T16:27:37Z</time>
      </trkpt>
      <trkpt lat="43.204651" lon="-4.977162">
        <ele>2069.897</ele>
        <time>2021-08-01T16:27:42Z</time>
      </trkpt>
      <trkpt lat="43.204617" lon="-4.977115">
        <ele>2071.579</ele>
        <time>2021-08-01T16:27:47Z</time>
      </trkpt>
      <trkpt lat="43.204598" lon="-4.977055">
        <ele>2073.833</ele>
        <time>2021-08-01T16:27:55Z</time>
      </trkpt>
      <trkpt lat="43.204619" lon="-4.977">
        <ele>2076.660</ele>
        <time>2021-08-01T16:29:24Z</time>
      </trkpt>
      <trkpt lat="43.204587" lon="-4.976951">
        <ele>2078.785</ele>
        <time>2021-08-01T16:29:37Z</time>
      </trkpt>
      <trkpt lat="43.204543" lon="-4.976941">
        <ele>2080.015</ele>
        <time>2021-08-01T16:29:43Z</time>
      </trkpt>
      <trkpt lat="43.204499" lon="-4.976929">
        <ele>2080.836</ele>
        <time>2021-08-01T16:29:47Z</time>
      </trkpt>
      <trkpt lat="43.204457" lon="-4.9769">
        <ele>2082.017</ele>
        <time>2021-08-01T16:29:52Z</time>
      </trkpt>
      <trkpt lat="43.204432" lon="-4.976834">
        <ele>2082.618</ele>
        <time>2021-08-01T16:29:58Z</time>
      </trkpt>
      <trkpt lat="43.204395" lon="-4.976785">
        <ele>2083.008</ele>
        <time>2021-08-01T16:30:04Z</time>
      </trkpt>
      <trkpt lat="43.204393" lon="-4.97672">
        <ele>2084.480</ele>
        <time>2021-08-01T16:30:12Z</time>
      </trkpt>
      <trkpt lat="43.204354" lon="-4.976676">
        <ele>2084.472</ele>
        <time>2021-08-01T16:30:20Z</time>
      </trkpt>
      <trkpt lat="43.204306" lon="-4.976652">
        <ele>2084.121</ele>
        <time>2021-08-01T16:30:25Z</time>
      </trkpt>
      <trkpt lat="43.204268" lon="-4.976608">
        <ele>2084.413</ele>
        <time>2021-08-01T16:30:33Z</time>
      </trkpt>
      <trkpt lat="43.204215" lon="-4.976609">
        <ele>2084.717</ele>
        <time>2021-08-01T16:30:39Z</time>
      </trkpt>
      <trkpt lat="43.204167" lon="-4.976614">
        <ele>2085.414</ele>
        <time>2021-08-01T16:30:48Z</time>
      </trkpt>
      <trkpt lat="43.204126" lon="-4.976588">
        <ele>2086.279</ele>
        <time>2021-08-01T16:30:54Z</time>
      </trkpt>
      <trkpt lat="43.204079" lon="-4.976573">
        <ele>2087.039</ele>
        <time>2021-08-01T16:30:59Z</time>
      </trkpt>
      <trkpt lat="43.204043" lon="-4.976521">
        <ele>2087.295</ele>
        <time>2021-08-01T16:31:05Z</time>
      </trkpt>
      <trkpt lat="43.204004" lon="-4.976479">
        <ele>2087.349</ele>
        <time>2021-08-01T16:31:15Z</time>
      </trkpt>
      <trkpt lat="43.203968" lon="-4.97643">
        <ele>2088.423</ele>
        <time>2021-08-01T16:31:22Z</time>
      </trkpt>
      <trkpt lat="43.203952" lon="-4.976369">
        <ele>2089.008</ele>
        <time>2021-08-01T16:31:28Z</time>
      </trkpt>
      <trkpt lat="43.20391" lon="-4.976346">
        <ele>2089.256</ele>
        <time>2021-08-01T16:31:38Z</time>
      </trkpt>
      <trkpt lat="43.203875" lon="-4.976305">
        <ele>2090.228</ele>
        <time>2021-08-01T16:31:42Z</time>
      </trkpt>
      <trkpt lat="43.203834" lon="-4.976271">
        <ele>2090.667</ele>
        <time>2021-08-01T16:31:50Z</time>
      </trkpt>
      <trkpt lat="43.203804" lon="-4.97632">
        <ele>2091.059</ele>
        <time>2021-08-01T16:32:24Z</time>
      </trkpt>
      <trkpt lat="43.203793" lon="-4.976258">
        <ele>2092.043</ele>
        <time>2021-08-01T16:32:39Z</time>
      </trkpt>
      <trkpt lat="43.203746" lon="-4.976235">
        <ele>2093.450</ele>
        <time>2021-08-01T16:32:52Z</time>
      </trkpt>
      <trkpt lat="43.203727" lon="-4.976178">
        <ele>2094.985</ele>
        <time>2021-08-01T16:32:59Z</time>
      </trkpt>
      <trkpt lat="43.203688" lon="-4.976146">
        <ele>2096.845</ele>
        <time>2021-08-01T16:33:07Z</time>
      </trkpt>
      <trkpt lat="43.203672" lon="-4.976086">
        <ele>2098.614</ele>
        <time>2021-08-01T16:33:13Z</time>
      </trkpt>
      <trkpt lat="43.203621" lon="-4.976065">
        <ele>2100.154</ele>
        <time>2021-08-01T16:33:44Z</time>
      </trkpt>
      <trkpt lat="43.203588" lon="-4.976013">
        <ele>2099.509</ele>
        <time>2021-08-01T16:33:53Z</time>
      </trkpt>
      <trkpt lat="43.203559" lon="-4.975964">
        <ele>2100.208</ele>
        <time>2021-08-01T16:34:01Z</time>
      </trkpt>
      <trkpt lat="43.203522" lon="-4.975921">
        <ele>2100.498</ele>
        <time>2021-08-01T16:34:30Z</time>
      </trkpt>
      <trkpt lat="43.203477" lon="-4.975931">
        <ele>2099.340</ele>
        <time>2021-08-01T16:34:41Z</time>
      </trkpt>
      <trkpt lat="43.203553" lon="-4.975937">
        <ele>2099.989</ele>
        <time>2021-08-01T16:34:55Z</time>
      </trkpt>
      <trkpt lat="43.203606" lon="-4.975946">
        <ele>2099.921</ele>
        <time>2021-08-01T16:34:57Z</time>
      </trkpt>
      <trkpt lat="43.203654" lon="-4.97595">
        <ele>2101.265</ele>
        <time>2021-08-01T16:35:06Z</time>
      </trkpt>
      <trkpt lat="43.203652" lon="-4.975885">
        <ele>2104.512</ele>
        <time>2021-08-01T16:35:24Z</time>
      </trkpt>
      <trkpt lat="43.203604" lon="-4.975859">
        <ele>2107.837</ele>
        <time>2021-08-01T16:35:40Z</time>
      </trkpt>
      <trkpt lat="43.203558" lon="-4.975868">
        <ele>2109.527</ele>
        <time>2021-08-01T16:35:44Z</time>
      </trkpt>
      <trkpt lat="43.203515" lon="-4.975895">
        <ele>2110.216</ele>
        <time>2021-08-01T16:35:50Z</time>
      </trkpt>
      <trkpt lat="43.203469" lon="-4.975894">
        <ele>2111.276</ele>
        <time>2021-08-01T16:35:59Z</time>
      </trkpt>
      <trkpt lat="43.20347" lon="-4.975962">
        <ele>2112.713</ele>
        <time>2021-08-01T16:36:15Z</time>
      </trkpt>
      <trkpt lat="43.20343" lon="-4.976011">
        <ele>2113.708</ele>
        <time>2021-08-01T16:36:21Z</time>
      </trkpt>
      <trkpt lat="43.203444" lon="-4.976072">
        <ele>2114.288</ele>
        <time>2021-08-01T16:36:55Z</time>
      </trkpt>
      <trkpt lat="43.203401" lon="-4.976095">
        <ele>2115.210</ele>
        <time>2021-08-01T16:37:03Z</time>
      </trkpt>
      <trkpt lat="43.203355" lon="-4.976084">
        <ele>2115.879</ele>
        <time>2021-08-01T16:37:30Z</time>
      </trkpt>
      <trkpt lat="43.203303" lon="-4.976083">
        <ele>2116.171</ele>
        <time>2021-08-01T16:38:16Z</time>
      </trkpt>
      <trkpt lat="43.203259" lon="-4.976038">
        <ele>2116.135</ele>
        <time>2021-08-01T16:38:21Z</time>
      </trkpt>
      <trkpt lat="43.203265" lon="-4.975973">
        <ele>2116.272</ele>
        <time>2021-08-01T16:38:26Z</time>
      </trkpt>
      <trkpt lat="43.203252" lon="-4.975911">
        <ele>2116.347</ele>
        <time>2021-08-01T16:38:32Z</time>
      </trkpt>
      <trkpt lat="43.203208" lon="-4.975901">
        <ele>2117.197</ele>
        <time>2021-08-01T16:38:41Z</time>
      </trkpt>
      <trkpt lat="43.203172" lon="-4.975856">
        <ele>2118.099</ele>
        <time>2021-08-01T16:38:47Z</time>
      </trkpt>
      <trkpt lat="43.203126" lon="-4.975846">
        <ele>2119.407</ele>
        <time>2021-08-01T16:38:54Z</time>
      </trkpt>
      <trkpt lat="43.203079" lon="-4.975841">
        <ele>2120.527</ele>
        <time>2021-08-01T16:38:59Z</time>
      </trkpt>
      <trkpt lat="43.203046" lon="-4.975908">
        <ele>2122.908</ele>
        <time>2021-08-01T16:39:14Z</time>
      </trkpt>
      <trkpt lat="43.203014" lon="-4.975953">
        <ele>2124.246</ele>
        <time>2021-08-01T16:39:17Z</time>
      </trkpt>
      <trkpt lat="43.202994" lon="-4.975895">
        <ele>2124.968</ele>
        <time>2021-08-01T16:39:28Z</time>
      </trkpt>
      <trkpt lat="43.202946" lon="-4.975858">
        <ele>2125.597</ele>
        <time>2021-08-01T16:39:32Z</time>
      </trkpt>
      <trkpt lat="43.202916" lon="-4.975806">
        <ele>2125.649</ele>
        <time>2021-08-01T16:39:37Z</time>
      </trkpt>
      <trkpt lat="43.202872" lon="-4.975772">
        <ele>2125.553</ele>
        <time>2021-08-01T16:39:42Z</time>
      </trkpt>
      <trkpt lat="43.202835" lon="-4.975734">
        <ele>2124.530</ele>
        <time>2021-08-01T16:39:47Z</time>
      </trkpt>
      <trkpt lat="43.202798" lon="-4.975699">
        <ele>2123.155</ele>
        <time>2021-08-01T16:39:52Z</time>
      </trkpt>
      <trkpt lat="43.202761" lon="-4.975658">
        <ele>2122.565</ele>
        <time>2021-08-01T16:39:58Z</time>
      </trkpt>
      <trkpt lat="43.202806" lon="-4.975669">
        <ele>2121.354</ele>
        <time>2021-08-01T16:40:08Z</time>
      </trkpt>
      <trkpt lat="43.202783" lon="-4.975722">
        <ele>2120.656</ele>
        <time>2021-08-01T16:40:16Z</time>
      </trkpt>
      <trkpt lat="43.202741" lon="-4.975753">
        <ele>2120.011</ele>
        <time>2021-08-01T16:40:21Z</time>
      </trkpt>
      <trkpt lat="43.202697" lon="-4.975738">
        <ele>2119.208</ele>
        <time>2021-08-01T16:40:28Z</time>
      </trkpt>
      <trkpt lat="43.202703" lon="-4.975806">
        <ele>2118.422</ele>
        <time>2021-08-01T16:40:36Z</time>
      </trkpt>
      <trkpt lat="43.202657" lon="-4.975791">
        <ele>2117.774</ele>
        <time>2021-08-01T16:40:54Z</time>
      </trkpt>
      <trkpt lat="43.202637" lon="-4.975733">
        <ele>2117.473</ele>
        <time>2021-08-01T16:40:58Z</time>
      </trkpt>
      <trkpt lat="43.202615" lon="-4.975676">
        <ele>2117.485</ele>
        <time>2021-08-01T16:41:04Z</time>
      </trkpt>
      <trkpt lat="43.202577" lon="-4.975639">
        <ele>2118.139</ele>
        <time>2021-08-01T16:41:08Z</time>
      </trkpt>
      <trkpt lat="43.202541" lon="-4.975595">
        <ele>2118.946</ele>
        <time>2021-08-01T16:41:12Z</time>
      </trkpt>
      <trkpt lat="43.202491" lon="-4.975595">
        <ele>2119.481</ele>
        <time>2021-08-01T16:41:16Z</time>
      </trkpt>
      <trkpt lat="43.20244" lon="-4.975603">
        <ele>2119.261</ele>
        <time>2021-08-01T16:41:20Z</time>
      </trkpt>
      <trkpt lat="43.202395" lon="-4.975584">
        <ele>2119.589</ele>
        <time>2021-08-01T16:41:28Z</time>
      </trkpt>
      <trkpt lat="43.202381" lon="-4.975667">
        <ele>2118.406</ele>
        <time>2021-08-01T16:41:53Z</time>
      </trkpt>
      <trkpt lat="43.202338" lon="-4.975639">
        <ele>2117.726</ele>
        <time>2021-08-01T16:42:00Z</time>
      </trkpt>
      <trkpt lat="43.202293" lon="-4.975655">
        <ele>2117.108</ele>
        <time>2021-08-01T16:42:08Z</time>
      </trkpt>
      <trkpt lat="43.20227" lon="-4.975598">
        <ele>2116.785</ele>
        <time>2021-08-01T16:42:13Z</time>
      </trkpt>
      <trkpt lat="43.202229" lon="-4.975562">
        <ele>2116.477</ele>
        <time>2021-08-01T16:42:20Z</time>
      </trkpt>
      <trkpt lat="43.202183" lon="-4.975566">
        <ele>2116.736</ele>
        <time>2021-08-01T16:42:24Z</time>
      </trkpt>
      <trkpt lat="43.202133" lon="-4.975549">
        <ele>2115.428</ele>
        <time>2021-08-01T16:42:29Z</time>
      </trkpt>
      <trkpt lat="43.202081" lon="-4.975551">
        <ele>2114.942</ele>
        <time>2021-08-01T16:42:34Z</time>
      </trkpt>
      <trkpt lat="43.20203" lon="-4.975551">
        <ele>2114.329</ele>
        <time>2021-08-01T16:42:39Z</time>
      </trkpt>
      <trkpt lat="43.201985" lon="-4.975531">
        <ele>2114.074</ele>
        <time>2021-08-01T16:42:43Z</time>
      </trkpt>
      <trkpt lat="43.201939" lon="-4.975543">
        <ele>2113.424</ele>
        <time>2021-08-01T16:42:50Z</time>
      </trkpt>
      <trkpt lat="43.201893" lon="-4.975555">
        <ele>2112.495</ele>
        <time>2021-08-01T16:42:59Z</time>
      </trkpt>
      <trkpt lat="43.201845" lon="-4.975549">
        <ele>2111.749</ele>
        <time>2021-08-01T16:43:07Z</time>
      </trkpt>
      <trkpt lat="43.2018" lon="-4.975554">
        <ele>2111.723</ele>
        <time>2021-08-01T16:43:13Z</time>
      </trkpt>
      <trkpt lat="43.201756" lon="-4.975531">
        <ele>2112.508</ele>
        <time>2021-08-01T16:43:35Z</time>
      </trkpt>
      <trkpt lat="43.201735" lon="-4.975474">
        <ele>2113.886</ele>
        <time>2021-08-01T16:43:42Z</time>
      </trkpt>
      <trkpt lat="43.20169" lon="-4.975493">
        <ele>2115.218</ele>
        <time>2021-08-01T16:43:48Z</time>
      </trkpt>
      <trkpt lat="43.201646" lon="-4.975518">
        <ele>2116.957</ele>
        <time>2021-08-01T16:43:53Z</time>
      </trkpt>
      <trkpt lat="43.201595" lon="-4.975524">
        <ele>2118.489</ele>
        <time>2021-08-01T16:43:59Z</time>
      </trkpt>
      <trkpt lat="43.201551" lon="-4.975543">
        <ele>2119.633</ele>
        <time>2021-08-01T16:44:20Z</time>
      </trkpt>
      <trkpt lat="43.201503" lon="-4.975552">
        <ele>2119.770</ele>
        <time>2021-08-01T16:44:25Z</time>
      </trkpt>
      <trkpt lat="43.201463" lon="-4.975522">
        <ele>2120.365</ele>
        <time>2021-08-01T16:44:31Z</time>
      </trkpt>
      <trkpt lat="43.201424" lon="-4.975477">
        <ele>2121.315</ele>
        <time>2021-08-01T16:44:36Z</time>
      </trkpt>
      <trkpt lat="43.201376" lon="-4.975479">
        <ele>2121.424</ele>
        <time>2021-08-01T16:44:41Z</time>
      </trkpt>
      <trkpt lat="43.201339" lon="-4.975442">
        <ele>2122.004</ele>
        <time>2021-08-01T16:44:48Z</time>
      </trkpt>
      <trkpt lat="43.201383" lon="-4.975463">
        <ele>2122.814</ele>
        <time>2021-08-01T17:00:44Z</time>
      </trkpt>
      <trkpt lat="43.201433" lon="-4.975465">
        <ele>2123.908</ele>
        <time>2021-08-01T17:00:52Z</time>
      </trkpt>
      <trkpt lat="43.201393" lon="-4.975499">
        <ele>2122.869</ele>
        <time>2021-08-01T17:01:16Z</time>
      </trkpt>
      <trkpt lat="43.201354" lon="-4.975532">
        <ele>2122.841</ele>
        <time>2021-08-01T17:02:19Z</time>
      </trkpt>
      <trkpt lat="43.201307" lon="-4.975517">
        <ele>2121.380</ele>
        <time>2021-08-01T17:04:27Z</time>
      </trkpt>
      <trkpt lat="43.201253" lon="-4.97549">
        <ele>2120.362</ele>
        <time>2021-08-01T17:04:30Z</time>
      </trkpt>
      <trkpt lat="43.201213" lon="-4.975442">
        <ele>2119.956</ele>
        <time>2021-08-01T17:04:34Z</time>
      </trkpt>
      <trkpt lat="43.201174" lon="-4.975474">
        <ele>2119.593</ele>
        <time>2021-08-01T17:04:51Z</time>
      </trkpt>
      <trkpt lat="43.201145" lon="-4.975529">
        <ele>2119.788</ele>
        <time>2021-08-01T17:04:54Z</time>
      </trkpt>
      <trkpt lat="43.201104" lon="-4.975498">
        <ele>2118.638</ele>
        <time>2021-08-01T17:05:00Z</time>
      </trkpt>
      <trkpt lat="43.201091" lon="-4.975434">
        <ele>2117.424</ele>
        <time>2021-08-01T17:05:09Z</time>
      </trkpt>
      <trkpt lat="43.201094" lon="-4.975366">
        <ele>2116.204</ele>
        <time>2021-08-01T17:05:14Z</time>
      </trkpt>
      <trkpt lat="43.20106" lon="-4.975317">
        <ele>2115.814</ele>
        <time>2021-08-01T17:05:18Z</time>
      </trkpt>
      <trkpt lat="43.201031" lon="-4.975262">
        <ele>2114.508</ele>
        <time>2021-08-01T17:05:22Z</time>
      </trkpt>
      <trkpt lat="43.20102" lon="-4.975199">
        <ele>2114.739</ele>
        <time>2021-08-01T17:05:26Z</time>
      </trkpt>
      <trkpt lat="43.201065" lon="-4.975164">
        <ele>2112.431</ele>
        <time>2021-08-01T17:05:39Z</time>
      </trkpt>
      <trkpt lat="43.201062" lon="-4.975101">
        <ele>2110.420</ele>
        <time>2021-08-01T17:05:52Z</time>
      </trkpt>
      <trkpt lat="43.201039" lon="-4.975045">
        <ele>2108.752</ele>
        <time>2021-08-01T17:06:04Z</time>
      </trkpt>
      <trkpt lat="43.201002" lon="-4.975006">
        <ele>2107.936</ele>
        <time>2021-08-01T17:06:08Z</time>
      </trkpt>
      <trkpt lat="43.200966" lon="-4.974954">
        <ele>2106.993</ele>
        <time>2021-08-01T17:06:14Z</time>
      </trkpt>
      <trkpt lat="43.20092" lon="-4.974981">
        <ele>2106.398</ele>
        <time>2021-08-01T17:06:18Z</time>
      </trkpt>
      <trkpt lat="43.200874" lon="-4.974959">
        <ele>2105.528</ele>
        <time>2021-08-01T17:06:21Z</time>
      </trkpt>
      <trkpt lat="43.200851" lon="-4.974903">
        <ele>2105.398</ele>
        <time>2021-08-01T17:06:23Z</time>
      </trkpt>
      <trkpt lat="43.200821" lon="-4.974849">
        <ele>2104.515</ele>
        <time>2021-08-01T17:06:30Z</time>
      </trkpt>
      <trkpt lat="43.200777" lon="-4.974861">
        <ele>2103.726</ele>
        <time>2021-08-01T17:06:36Z</time>
      </trkpt>
      <trkpt lat="43.200731" lon="-4.974878">
        <ele>2102.708</ele>
        <time>2021-08-01T17:06:43Z</time>
      </trkpt>
      <trkpt lat="43.200685" lon="-4.974872">
        <ele>2101.276</ele>
        <time>2021-08-01T17:06:48Z</time>
      </trkpt>
      <trkpt lat="43.200636" lon="-4.974835">
        <ele>2100.518</ele>
        <time>2021-08-01T17:06:51Z</time>
      </trkpt>
      <trkpt lat="43.200595" lon="-4.974796">
        <ele>2099.617</ele>
        <time>2021-08-01T17:06:53Z</time>
      </trkpt>
      <trkpt lat="43.200547" lon="-4.974767">
        <ele>2099.069</ele>
        <time>2021-08-01T17:06:57Z</time>
      </trkpt>
      <trkpt lat="43.200516" lon="-4.97472">
        <ele>2098.413</ele>
        <time>2021-08-01T17:07:01Z</time>
      </trkpt>
      <trkpt lat="43.200494" lon="-4.974661">
        <ele>2097.630</ele>
        <time>2021-08-01T17:07:05Z</time>
      </trkpt>
      <trkpt lat="43.200461" lon="-4.974616">
        <ele>2097.355</ele>
        <time>2021-08-01T17:07:09Z</time>
      </trkpt>
      <trkpt lat="43.200423" lon="-4.974576">
        <ele>2096.755</ele>
        <time>2021-08-01T17:07:13Z</time>
      </trkpt>
      <trkpt lat="43.200376" lon="-4.974563">
        <ele>2095.527</ele>
        <time>2021-08-01T17:07:16Z</time>
      </trkpt>
      <trkpt lat="43.200334" lon="-4.974532">
        <ele>2094.868</ele>
        <time>2021-08-01T17:07:25Z</time>
      </trkpt>
      <trkpt lat="43.200293" lon="-4.974502">
        <ele>2093.914</ele>
        <time>2021-08-01T17:07:30Z</time>
      </trkpt>
      <trkpt lat="43.20025" lon="-4.974477">
        <ele>2092.708</ele>
        <time>2021-08-01T17:07:36Z</time>
      </trkpt>
      <trkpt lat="43.200202" lon="-4.974465">
        <ele>2091.549</ele>
        <time>2021-08-01T17:07:43Z</time>
      </trkpt>
      <trkpt lat="43.200188" lon="-4.974401">
        <ele>2089.871</ele>
        <time>2021-08-01T17:07:58Z</time>
      </trkpt>
      <trkpt lat="43.200198" lon="-4.974337">
        <ele>2088.720</ele>
        <time>2021-08-01T17:08:01Z</time>
      </trkpt>
      <trkpt lat="43.200175" lon="-4.974259">
        <ele>2087.682</ele>
        <time>2021-08-01T17:08:04Z</time>
      </trkpt>
      <trkpt lat="43.20015" lon="-4.974208">
        <ele>2086.226</ele>
        <time>2021-08-01T17:08:09Z</time>
      </trkpt>
      <trkpt lat="43.200152" lon="-4.974139">
        <ele>2085.333</ele>
        <time>2021-08-01T17:08:13Z</time>
      </trkpt>
      <trkpt lat="43.200158" lon="-4.974072">
        <ele>2084.358</ele>
        <time>2021-08-01T17:08:18Z</time>
      </trkpt>
      <trkpt lat="43.200115" lon="-4.974036">
        <ele>2083.378</ele>
        <time>2021-08-01T17:08:22Z</time>
      </trkpt>
      <trkpt lat="43.200067" lon="-4.974036">
        <ele>2082.833</ele>
        <time>2021-08-01T17:08:25Z</time>
      </trkpt>
      <trkpt lat="43.200023" lon="-4.974052">
        <ele>2082.423</ele>
        <time>2021-08-01T17:08:31Z</time>
      </trkpt>
      <trkpt lat="43.200004" lon="-4.97399">
        <ele>2081.715</ele>
        <time>2021-08-01T17:08:37Z</time>
      </trkpt>
      <trkpt lat="43.199974" lon="-4.973942">
        <ele>2081.108</ele>
        <time>2021-08-01T17:08:42Z</time>
      </trkpt>
      <trkpt lat="43.199937" lon="-4.973899">
        <ele>2080.750</ele>
        <time>2021-08-01T17:08:47Z</time>
      </trkpt>
      <trkpt lat="43.199905" lon="-4.973855">
        <ele>2081.312</ele>
        <time>2021-08-01T17:08:52Z</time>
      </trkpt>
      <trkpt lat="43.199881" lon="-4.973796">
        <ele>2081.131</ele>
        <time>2021-08-01T17:08:55Z</time>
      </trkpt>
      <trkpt lat="43.19985" lon="-4.973751">
        <ele>2080.573</ele>
        <time>2021-08-01T17:08:59Z</time>
      </trkpt>
      <trkpt lat="43.199817" lon="-4.973702">
        <ele>2079.927</ele>
        <time>2021-08-01T17:09:05Z</time>
      </trkpt>
      <trkpt lat="43.199816" lon="-4.97364">
        <ele>2079.734</ele>
        <time>2021-08-01T17:09:45Z</time>
      </trkpt>
      <trkpt lat="43.199768" lon="-4.973613">
        <ele>2079.059</ele>
        <time>2021-08-01T17:10:00Z</time>
      </trkpt>
      <trkpt lat="43.199767" lon="-4.973547">
        <ele>2078.799</ele>
        <time>2021-08-01T17:10:04Z</time>
      </trkpt>
      <trkpt lat="43.199733" lon="-4.9735">
        <ele>2078.728</ele>
        <time>2021-08-01T17:10:15Z</time>
      </trkpt>
      <trkpt lat="43.199685" lon="-4.973531">
        <ele>2078.789</ele>
        <time>2021-08-01T17:10:20Z</time>
      </trkpt>
      <trkpt lat="43.199642" lon="-4.973562">
        <ele>2079.617</ele>
        <time>2021-08-01T17:10:28Z</time>
      </trkpt>
      <trkpt lat="43.199619" lon="-4.973507">
        <ele>2080.108</ele>
        <time>2021-08-01T17:10:33Z</time>
      </trkpt>
      <trkpt lat="43.199608" lon="-4.973441">
        <ele>2080.079</ele>
        <time>2021-08-01T17:10:41Z</time>
      </trkpt>
      <trkpt lat="43.199593" lon="-4.97338">
        <ele>2079.331</ele>
        <time>2021-08-01T17:10:46Z</time>
      </trkpt>
      <trkpt lat="43.199576" lon="-4.973319">
        <ele>2079.860</ele>
        <time>2021-08-01T17:10:50Z</time>
      </trkpt>
      <trkpt lat="43.199539" lon="-4.973281">
        <ele>2079.092</ele>
        <time>2021-08-01T17:10:58Z</time>
      </trkpt>
      <trkpt lat="43.199507" lon="-4.973236">
        <ele>2077.926</ele>
        <time>2021-08-01T17:11:04Z</time>
      </trkpt>
      <trkpt lat="43.19946" lon="-4.973222">
        <ele>2077.343</ele>
        <time>2021-08-01T17:11:10Z</time>
      </trkpt>
      <trkpt lat="43.199498" lon="-4.973269">
        <ele>2076.318</ele>
        <time>2021-08-01T17:11:28Z</time>
      </trkpt>
      <trkpt lat="43.19946" lon="-4.973211">
        <ele>2074.898</ele>
        <time>2021-08-01T17:11:34Z</time>
      </trkpt>
      <trkpt lat="43.199431" lon="-4.973156">
        <ele>2072.625</ele>
        <time>2021-08-01T17:11:37Z</time>
      </trkpt>
      <trkpt lat="43.199402" lon="-4.973106">
        <ele>2071.526</ele>
        <time>2021-08-01T17:11:39Z</time>
      </trkpt>
      <trkpt lat="43.199363" lon="-4.973063">
        <ele>2070.708</ele>
        <time>2021-08-01T17:11:42Z</time>
      </trkpt>
      <trkpt lat="43.199324" lon="-4.973023">
        <ele>2069.908</ele>
        <time>2021-08-01T17:11:46Z</time>
      </trkpt>
      <trkpt lat="43.199277" lon="-4.972994">
        <ele>2068.579</ele>
        <time>2021-08-01T17:11:49Z</time>
      </trkpt>
      <trkpt lat="43.199232" lon="-4.972986">
        <ele>2066.791</ele>
        <time>2021-08-01T17:11:53Z</time>
      </trkpt>
      <trkpt lat="43.199198" lon="-4.972942">
        <ele>2065.160</ele>
        <time>2021-08-01T17:11:59Z</time>
      </trkpt>
      <trkpt lat="43.199152" lon="-4.972948">
        <ele>2062.982</ele>
        <time>2021-08-01T17:12:05Z</time>
      </trkpt>
      <trkpt lat="43.199105" lon="-4.972941">
        <ele>2060.056</ele>
        <time>2021-08-01T17:12:19Z</time>
      </trkpt>
      <trkpt lat="43.19906" lon="-4.972942">
        <ele>2058.833</ele>
        <time>2021-08-01T17:12:22Z</time>
      </trkpt>
      <trkpt lat="43.199008" lon="-4.972943">
        <ele>2057.858</ele>
        <time>2021-08-01T17:12:26Z</time>
      </trkpt>
      <trkpt lat="43.198977" lon="-4.972891">
        <ele>2056.998</ele>
        <time>2021-08-01T17:12:35Z</time>
      </trkpt>
      <trkpt lat="43.198972" lon="-4.972828">
        <ele>2055.637</ele>
        <time>2021-08-01T17:12:39Z</time>
      </trkpt>
      <trkpt lat="43.198926" lon="-4.972845">
        <ele>2054.049</ele>
        <time>2021-08-01T17:12:45Z</time>
      </trkpt>
      <trkpt lat="43.19893" lon="-4.972917">
        <ele>2052.813</ele>
        <time>2021-08-01T17:12:48Z</time>
      </trkpt>
      <trkpt lat="43.198935" lon="-4.972853">
        <ele>2050.608</ele>
        <time>2021-08-01T17:13:01Z</time>
      </trkpt>
      <trkpt lat="43.198912" lon="-4.972799">
        <ele>2048.970</ele>
        <time>2021-08-01T17:13:24Z</time>
      </trkpt>
      <trkpt lat="43.19887" lon="-4.972775">
        <ele>2046.642</ele>
        <time>2021-08-01T17:13:31Z</time>
      </trkpt>
      <trkpt lat="43.198825" lon="-4.972782">
        <ele>2045.551</ele>
        <time>2021-08-01T17:13:37Z</time>
      </trkpt>
      <trkpt lat="43.198782" lon="-4.972807">
        <ele>2043.593</ele>
        <time>2021-08-01T17:13:44Z</time>
      </trkpt>
      <trkpt lat="43.198826" lon="-4.972818">
        <ele>2042.227</ele>
        <time>2021-08-01T17:13:58Z</time>
      </trkpt>
      <trkpt lat="43.198854" lon="-4.972755">
        <ele>2039.774</ele>
        <time>2021-08-01T17:15:11Z</time>
      </trkpt>
      <trkpt lat="43.198809" lon="-4.972781">
        <ele>2039.079</ele>
        <time>2021-08-01T17:15:22Z</time>
      </trkpt>
      <trkpt lat="43.198776" lon="-4.972832">
        <ele>2039.469</ele>
        <time>2021-08-01T17:15:26Z</time>
      </trkpt>
      <trkpt lat="43.198742" lon="-4.972875">
        <ele>2039.864</ele>
        <time>2021-08-01T17:15:30Z</time>
      </trkpt>
      <trkpt lat="43.198698" lon="-4.972894">
        <ele>2039.906</ele>
        <time>2021-08-01T17:15:34Z</time>
      </trkpt>
      <trkpt lat="43.198651" lon="-4.972922">
        <ele>2039.916</ele>
        <time>2021-08-01T17:15:40Z</time>
      </trkpt>
      <trkpt lat="43.198618" lon="-4.972965">
        <ele>2039.808</ele>
        <time>2021-08-01T17:15:44Z</time>
      </trkpt>
      <trkpt lat="43.198585" lon="-4.973016">
        <ele>2040.113</ele>
        <time>2021-08-01T17:15:47Z</time>
      </trkpt>
      <trkpt lat="43.198541" lon="-4.973032">
        <ele>2040.115</ele>
        <time>2021-08-01T17:15:51Z</time>
      </trkpt>
      <trkpt lat="43.198497" lon="-4.973058">
        <ele>2040.254</ele>
        <time>2021-08-01T17:15:57Z</time>
      </trkpt>
      <trkpt lat="43.19845" lon="-4.973044">
        <ele>2041.076</ele>
        <time>2021-08-01T17:16:22Z</time>
      </trkpt>
      <trkpt lat="43.198411" lon="-4.973087">
        <ele>2042.410</ele>
        <time>2021-08-01T17:16:27Z</time>
      </trkpt>
      <trkpt lat="43.198368" lon="-4.973112">
        <ele>2044.737</ele>
        <time>2021-08-01T17:16:36Z</time>
      </trkpt>
      <trkpt lat="43.198329" lon="-4.973079">
        <ele>2045.972</ele>
        <time>2021-08-01T17:16:40Z</time>
      </trkpt>
      <trkpt lat="43.19828" lon="-4.973096">
        <ele>2046.772</ele>
        <time>2021-08-01T17:16:46Z</time>
      </trkpt>
      <trkpt lat="43.198229" lon="-4.973105">
        <ele>2047.137</ele>
        <time>2021-08-01T17:16:51Z</time>
      </trkpt>
      <trkpt lat="43.19818" lon="-4.973117">
        <ele>2047.949</ele>
        <time>2021-08-01T17:16:56Z</time>
      </trkpt>
      <trkpt lat="43.198135" lon="-4.973104">
        <ele>2047.813</ele>
        <time>2021-08-01T17:17:18Z</time>
      </trkpt>
      <trkpt lat="43.198087" lon="-4.973073">
        <ele>2047.608</ele>
        <time>2021-08-01T17:17:23Z</time>
      </trkpt>
      <trkpt lat="43.198047" lon="-4.973105">
        <ele>2047.730</ele>
        <time>2021-08-01T17:17:40Z</time>
      </trkpt>
      <trkpt lat="43.198009" lon="-4.973141">
        <ele>2048.452</ele>
        <time>2021-08-01T17:17:45Z</time>
      </trkpt>
      <trkpt lat="43.197974" lon="-4.973186">
        <ele>2048.461</ele>
        <time>2021-08-01T17:17:58Z</time>
      </trkpt>
      <trkpt lat="43.197938" lon="-4.973226">
        <ele>2048.653</ele>
        <time>2021-08-01T17:18:04Z</time>
      </trkpt>
      <trkpt lat="43.197886" lon="-4.973226">
        <ele>2048.347</ele>
        <time>2021-08-01T17:18:13Z</time>
      </trkpt>
      <trkpt lat="43.19784" lon="-4.973234">
        <ele>2048.884</ele>
        <time>2021-08-01T17:18:18Z</time>
      </trkpt>
      <trkpt lat="43.197815" lon="-4.97318">
        <ele>2049.039</ele>
        <time>2021-08-01T17:18:45Z</time>
      </trkpt>
      <trkpt lat="43.197769" lon="-4.973188">
        <ele>2048.679</ele>
        <time>2021-08-01T17:18:51Z</time>
      </trkpt>
      <trkpt lat="43.197726" lon="-4.973219">
        <ele>2049.347</ele>
        <time>2021-08-01T17:19:04Z</time>
      </trkpt>
      <trkpt lat="43.197688" lon="-4.973184">
        <ele>2049.929</ele>
        <time>2021-08-01T17:19:10Z</time>
      </trkpt>
      <trkpt lat="43.197655" lon="-4.973227">
        <ele>2050.621</ele>
        <time>2021-08-01T17:19:54Z</time>
      </trkpt>
      <trkpt lat="43.197604" lon="-4.973244">
        <ele>2050.608</ele>
        <time>2021-08-01T17:20:02Z</time>
      </trkpt>
      <trkpt lat="43.197557" lon="-4.973225">
        <ele>2051.471</ele>
        <time>2021-08-01T17:20:18Z</time>
      </trkpt>
      <trkpt lat="43.197511" lon="-4.973223">
        <ele>2053.363</ele>
        <time>2021-08-01T17:20:33Z</time>
      </trkpt>
      <trkpt lat="43.197478" lon="-4.97318">
        <ele>2055.562</ele>
        <time>2021-08-01T17:20:39Z</time>
      </trkpt>
      <trkpt lat="43.197466" lon="-4.97312">
        <ele>2057.394</ele>
        <time>2021-08-01T17:20:49Z</time>
      </trkpt>
      <trkpt lat="43.197442" lon="-4.973065">
        <ele>2059.658</ele>
        <time>2021-08-01T17:20:56Z</time>
      </trkpt>
      <trkpt lat="43.197403" lon="-4.97303">
        <ele>2061.855</ele>
        <time>2021-08-01T17:21:23Z</time>
      </trkpt>
      <trkpt lat="43.197436" lon="-4.972973">
        <ele>2063.410</ele>
        <time>2021-08-01T17:22:29Z</time>
      </trkpt>
      <trkpt lat="43.197471" lon="-4.972907">
        <ele>2064.660</ele>
        <time>2021-08-01T17:22:31Z</time>
      </trkpt>
      <trkpt lat="43.197412" lon="-4.972932">
        <ele>2064.943</ele>
        <time>2021-08-01T17:22:55Z</time>
      </trkpt>
      <trkpt lat="43.197359" lon="-4.972929">
        <ele>2065.164</ele>
        <time>2021-08-01T17:22:59Z</time>
      </trkpt>
      <trkpt lat="43.19731" lon="-4.972934">
        <ele>2065.310</ele>
        <time>2021-08-01T17:23:05Z</time>
      </trkpt>
      <trkpt lat="43.197276" lon="-4.972976">
        <ele>2065.508</ele>
        <time>2021-08-01T17:23:42Z</time>
      </trkpt>
      <trkpt lat="43.197231" lon="-4.972971">
        <ele>2065.831</ele>
        <time>2021-08-01T17:23:55Z</time>
      </trkpt>
      <trkpt lat="43.197202" lon="-4.972913">
        <ele>2065.873</ele>
        <time>2021-08-01T17:24:02Z</time>
      </trkpt>
      <trkpt lat="43.197165" lon="-4.972877">
        <ele>2065.452</ele>
        <time>2021-08-01T17:24:11Z</time>
      </trkpt>
      <trkpt lat="43.197125" lon="-4.972849">
        <ele>2065.194</ele>
        <time>2021-08-01T17:24:20Z</time>
      </trkpt>
      <trkpt lat="43.197116" lon="-4.972774">
        <ele>2063.798</ele>
        <time>2021-08-01T17:25:19Z</time>
      </trkpt>
      <trkpt lat="43.197129" lon="-4.972709">
        <ele>2062.985</ele>
        <time>2021-08-01T17:25:24Z</time>
      </trkpt>
      <trkpt lat="43.19708" lon="-4.972703">
        <ele>2061.780</ele>
        <time>2021-08-01T17:25:40Z</time>
      </trkpt>
      <trkpt lat="43.197041" lon="-4.97274">
        <ele>2061.920</ele>
        <time>2021-08-01T17:25:50Z</time>
      </trkpt>
      <trkpt lat="43.197002" lon="-4.97278">
        <ele>2063.784</ele>
        <time>2021-08-01T17:26:07Z</time>
      </trkpt>
      <trkpt lat="43.19696" lon="-4.972756">
        <ele>2066.507</ele>
        <time>2021-08-01T17:26:30Z</time>
      </trkpt>
      <trkpt lat="43.196915" lon="-4.972752">
        <ele>2068.317</ele>
        <time>2021-08-01T17:26:36Z</time>
      </trkpt>
      <trkpt lat="43.196871" lon="-4.972769">
        <ele>2070.108</ele>
        <time>2021-08-01T17:26:42Z</time>
      </trkpt>
      <trkpt lat="43.196837" lon="-4.972724">
        <ele>2072.275</ele>
        <time>2021-08-01T17:27:03Z</time>
      </trkpt>
      <trkpt lat="43.196789" lon="-4.972712">
        <ele>2074.917</ele>
        <time>2021-08-01T17:27:09Z</time>
      </trkpt>
      <trkpt lat="43.196744" lon="-4.972692">
        <ele>2076.826</ele>
        <time>2021-08-01T17:27:15Z</time>
      </trkpt>
      <trkpt lat="43.196702" lon="-4.972656">
        <ele>2078.528</ele>
        <time>2021-08-01T17:27:22Z</time>
      </trkpt>
      <trkpt lat="43.196655" lon="-4.97264">
        <ele>2080.662</ele>
        <time>2021-08-01T17:27:27Z</time>
      </trkpt>
      <trkpt lat="43.196613" lon="-4.972612">
        <ele>2081.999</ele>
        <time>2021-08-01T17:27:33Z</time>
      </trkpt>
      <trkpt lat="43.196573" lon="-4.972571">
        <ele>2083.694</ele>
        <time>2021-08-01T17:27:39Z</time>
      </trkpt>
      <trkpt lat="43.196544" lon="-4.972515">
        <ele>2085.534</ele>
        <time>2021-08-01T17:27:46Z</time>
      </trkpt>
      <trkpt lat="43.19651" lon="-4.972473">
        <ele>2086.731</ele>
        <time>2021-08-01T17:27:51Z</time>
      </trkpt>
      <trkpt lat="43.196489" lon="-4.972416">
        <ele>2087.161</ele>
        <time>2021-08-01T17:27:57Z</time>
      </trkpt>
      <trkpt lat="43.19646" lon="-4.972365">
        <ele>2088.307</ele>
        <time>2021-08-01T17:28:03Z</time>
      </trkpt>
      <trkpt lat="43.196416" lon="-4.972348">
        <ele>2088.208</ele>
        <time>2021-08-01T17:28:09Z</time>
      </trkpt>
      <trkpt lat="43.196402" lon="-4.972409">
        <ele>2088.260</ele>
        <time>2021-08-01T17:29:44Z</time>
      </trkpt>
      <trkpt lat="43.196352" lon="-4.972421">
        <ele>2092.282</ele>
        <time>2021-08-01T17:29:48Z</time>
      </trkpt>
      <trkpt lat="43.196323" lon="-4.972372">
        <ele>2095.741</ele>
        <time>2021-08-01T17:29:53Z</time>
      </trkpt>
      <trkpt lat="43.196321" lon="-4.972301">
        <ele>2097.043</ele>
        <time>2021-08-01T17:29:57Z</time>
      </trkpt>
      <trkpt lat="43.196362" lon="-4.972267">
        <ele>2098.227</ele>
        <time>2021-08-01T17:30:02Z</time>
      </trkpt>
      <trkpt lat="43.196396" lon="-4.972227">
        <ele>2099.094</ele>
        <time>2021-08-01T17:30:08Z</time>
      </trkpt>
      <trkpt lat="43.196387" lon="-4.972163">
        <ele>2099.999</ele>
        <time>2021-08-01T17:30:15Z</time>
      </trkpt>
      <trkpt lat="43.196392" lon="-4.972095">
        <ele>2100.049</ele>
        <time>2021-08-01T17:30:20Z</time>
      </trkpt>
      <trkpt lat="43.196404" lon="-4.972028">
        <ele>2100.367</ele>
        <time>2021-08-01T17:30:25Z</time>
      </trkpt>
      <trkpt lat="43.19642" lon="-4.971961">
        <ele>2100.281</ele>
        <time>2021-08-01T17:30:28Z</time>
      </trkpt>
      <trkpt lat="43.196439" lon="-4.971901">
        <ele>2100.019</ele>
        <time>2021-08-01T17:30:32Z</time>
      </trkpt>
      <trkpt lat="43.196457" lon="-4.971844">
        <ele>2100.908</ele>
        <time>2021-08-01T17:30:40Z</time>
      </trkpt>
      <trkpt lat="43.196454" lon="-4.971779">
        <ele>2100.373</ele>
        <time>2021-08-01T17:30:47Z</time>
      </trkpt>
      <trkpt lat="43.196469" lon="-4.971714">
        <ele>2100.165</ele>
        <time>2021-08-01T17:30:54Z</time>
      </trkpt>
      <trkpt lat="43.196459" lon="-4.97165">
        <ele>2099.614</ele>
        <time>2021-08-01T17:31:22Z</time>
      </trkpt>
      <trkpt lat="43.196498" lon="-4.971606">
        <ele>2098.966</ele>
        <time>2021-08-01T17:31:27Z</time>
      </trkpt>
      <trkpt lat="43.196539" lon="-4.971581">
        <ele>2098.110</ele>
        <time>2021-08-01T17:31:32Z</time>
      </trkpt>
      <trkpt lat="43.19653" lon="-4.971515">
        <ele>2097.577</ele>
        <time>2021-08-01T17:31:39Z</time>
      </trkpt>
      <trkpt lat="43.196575" lon="-4.97151">
        <ele>2098.072</ele>
        <time>2021-08-01T17:31:46Z</time>
      </trkpt>
      <trkpt lat="43.19662" lon="-4.97149">
        <ele>2097.732</ele>
        <time>2021-08-01T17:31:56Z</time>
      </trkpt>
      <trkpt lat="43.19665" lon="-4.971437">
        <ele>2097.854</ele>
        <time>2021-08-01T17:32:02Z</time>
      </trkpt>
      <trkpt lat="43.19667" lon="-4.97138">
        <ele>2098.756</ele>
        <time>2021-08-01T17:32:06Z</time>
      </trkpt>
      <trkpt lat="43.196705" lon="-4.971322">
        <ele>2098.511</ele>
        <time>2021-08-01T17:32:10Z</time>
      </trkpt>
      <trkpt lat="43.196711" lon="-4.97126">
        <ele>2098.108</ele>
        <time>2021-08-01T17:32:18Z</time>
      </trkpt>
      <trkpt lat="43.196728" lon="-4.971198">
        <ele>2098.692</ele>
        <time>2021-08-01T17:32:23Z</time>
      </trkpt>
      <trkpt lat="43.196721" lon="-4.971134">
        <ele>2098.964</ele>
        <time>2021-08-01T17:32:29Z</time>
      </trkpt>
      <trkpt lat="43.196707" lon="-4.971074">
        <ele>2098.613</ele>
        <time>2021-08-01T17:32:35Z</time>
      </trkpt>
      <trkpt lat="43.196746" lon="-4.971042">
        <ele>2098.175</ele>
        <time>2021-08-01T17:33:07Z</time>
      </trkpt>
      <trkpt lat="43.196787" lon="-4.970998">
        <ele>2097.539</ele>
        <time>2021-08-01T17:33:13Z</time>
      </trkpt>
      <trkpt lat="43.196823" lon="-4.970948">
        <ele>2097.346</ele>
        <time>2021-08-01T17:33:18Z</time>
      </trkpt>
      <trkpt lat="43.196819" lon="-4.970886">
        <ele>2096.991</ele>
        <time>2021-08-01T17:33:23Z</time>
      </trkpt>
      <trkpt lat="43.196853" lon="-4.970833">
        <ele>2096.481</ele>
        <time>2021-08-01T17:33:40Z</time>
      </trkpt>
      <trkpt lat="43.196876" lon="-4.97078">
        <ele>2097.184</ele>
        <time>2021-08-01T17:33:44Z</time>
      </trkpt>
      <trkpt lat="43.196892" lon="-4.970719">
        <ele>2096.507</ele>
        <time>2021-08-01T17:33:52Z</time>
      </trkpt>
      <trkpt lat="43.196869" lon="-4.970664">
        <ele>2096.217</ele>
        <time>2021-08-01T17:34:03Z</time>
      </trkpt>
      <trkpt lat="43.196877" lon="-4.970591">
        <ele>2097.208</ele>
        <time>2021-08-01T17:34:07Z</time>
      </trkpt>
      <trkpt lat="43.196869" lon="-4.97053">
        <ele>2096.715</ele>
        <time>2021-08-01T17:34:11Z</time>
      </trkpt>
      <trkpt lat="43.196889" lon="-4.970473">
        <ele>2096.247</ele>
        <time>2021-08-01T17:34:16Z</time>
      </trkpt>
      <trkpt lat="43.19692" lon="-4.970427">
        <ele>2096.496</ele>
        <time>2021-08-01T17:34:20Z</time>
      </trkpt>
      <trkpt lat="43.196935" lon="-4.970369">
        <ele>2094.998</ele>
        <time>2021-08-01T17:34:43Z</time>
      </trkpt>
      <trkpt lat="43.196905" lon="-4.970312">
        <ele>2094.612</ele>
        <time>2021-08-01T17:34:48Z</time>
      </trkpt>
      <trkpt lat="43.196864" lon="-4.970274">
        <ele>2094.629</ele>
        <time>2021-08-01T17:34:52Z</time>
      </trkpt>
      <trkpt lat="43.196822" lon="-4.970244">
        <ele>2093.874</ele>
        <time>2021-08-01T17:34:56Z</time>
      </trkpt>
      <trkpt lat="43.196808" lon="-4.970175">
        <ele>2093.614</ele>
        <time>2021-08-01T17:35:05Z</time>
      </trkpt>
      <trkpt lat="43.1968" lon="-4.970105">
        <ele>2092.944</ele>
        <time>2021-08-01T17:35:09Z</time>
      </trkpt>
      <trkpt lat="43.196795" lon="-4.970038">
        <ele>2092.005</ele>
        <time>2021-08-01T17:35:13Z</time>
      </trkpt>
      <trkpt lat="43.196813" lon="-4.969975">
        <ele>2091.615</ele>
        <time>2021-08-01T17:35:19Z</time>
      </trkpt>
      <trkpt lat="43.196833" lon="-4.969914">
        <ele>2090.308</ele>
        <time>2021-08-01T17:36:06Z</time>
      </trkpt>
      <trkpt lat="43.196846" lon="-4.969855">
        <ele>2089.651</ele>
        <time>2021-08-01T17:36:10Z</time>
      </trkpt>
      <trkpt lat="43.196841" lon="-4.969785">
        <ele>2089.413</ele>
        <time>2021-08-01T17:36:14Z</time>
      </trkpt>
      <trkpt lat="43.196832" lon="-4.969717">
        <ele>2089.012</ele>
        <time>2021-08-01T17:36:18Z</time>
      </trkpt>
      <trkpt lat="43.19683" lon="-4.969654">
        <ele>2088.614</ele>
        <time>2021-08-01T17:36:21Z</time>
      </trkpt>
      <trkpt lat="43.196837" lon="-4.969581">
        <ele>2087.728</ele>
        <time>2021-08-01T17:36:25Z</time>
      </trkpt>
      <trkpt lat="43.196842" lon="-4.969514">
        <ele>2087.525</ele>
        <time>2021-08-01T17:36:29Z</time>
      </trkpt>
      <trkpt lat="43.19686" lon="-4.969456">
        <ele>2086.730</ele>
        <time>2021-08-01T17:36:36Z</time>
      </trkpt>
      <trkpt lat="43.196871" lon="-4.969392">
        <ele>2086.780</ele>
        <time>2021-08-01T17:36:46Z</time>
      </trkpt>
      <trkpt lat="43.196845" lon="-4.969336">
        <ele>2086.319</ele>
        <time>2021-08-01T17:36:58Z</time>
      </trkpt>
      <trkpt lat="43.196799" lon="-4.969311">
        <ele>2086.009</ele>
        <time>2021-08-01T17:37:04Z</time>
      </trkpt>
      <trkpt lat="43.196763" lon="-4.969269">
        <ele>2086.019</ele>
        <time>2021-08-01T17:37:10Z</time>
      </trkpt>
      <trkpt lat="43.196723" lon="-4.969238">
        <ele>2086.108</ele>
        <time>2021-08-01T17:37:17Z</time>
      </trkpt>
      <trkpt lat="43.196741" lon="-4.969178">
        <ele>2086.978</ele>
        <time>2021-08-01T17:37:21Z</time>
      </trkpt>
      <trkpt lat="43.196727" lon="-4.969117">
        <ele>2086.470</ele>
        <time>2021-08-01T17:37:26Z</time>
      </trkpt>
      <trkpt lat="43.196726" lon="-4.969051">
        <ele>2086.439</ele>
        <time>2021-08-01T17:37:33Z</time>
      </trkpt>
      <trkpt lat="43.196747" lon="-4.96899">
        <ele>2085.861</ele>
        <time>2021-08-01T17:38:03Z</time>
      </trkpt>
      <trkpt lat="43.196701" lon="-4.968993">
        <ele>2085.495</ele>
        <time>2021-08-01T17:38:08Z</time>
      </trkpt>
      <trkpt lat="43.196676" lon="-4.968938">
        <ele>2085.032</ele>
        <time>2021-08-01T17:38:16Z</time>
      </trkpt>
      <trkpt lat="43.196713" lon="-4.968889">
        <ele>2083.917</ele>
        <time>2021-08-01T17:38:19Z</time>
      </trkpt>
      <trkpt lat="43.19672" lon="-4.968825">
        <ele>2082.737</ele>
        <time>2021-08-01T17:38:22Z</time>
      </trkpt>
      <trkpt lat="43.196726" lon="-4.968761">
        <ele>2081.812</ele>
        <time>2021-08-01T17:38:24Z</time>
      </trkpt>
      <trkpt lat="43.196732" lon="-4.968697">
        <ele>2080.632</ele>
        <time>2021-08-01T17:38:27Z</time>
      </trkpt>
      <trkpt lat="43.196757" lon="-4.968643">
        <ele>2079.405</ele>
        <time>2021-08-01T17:38:31Z</time>
      </trkpt>
      <trkpt lat="43.196766" lon="-4.968576">
        <ele>2077.208</ele>
        <time>2021-08-01T17:38:37Z</time>
      </trkpt>
      <trkpt lat="43.196729" lon="-4.96854">
        <ele>2073.448</ele>
        <time>2021-08-01T17:38:47Z</time>
      </trkpt>
      <trkpt lat="43.196735" lon="-4.968475">
        <ele>2069.920</ele>
        <time>2021-08-01T17:38:52Z</time>
      </trkpt>
      <trkpt lat="43.196735" lon="-4.96841">
        <ele>2066.829</ele>
        <time>2021-08-01T17:38:59Z</time>
      </trkpt>
      <trkpt lat="43.196694" lon="-4.968373">
        <ele>2064.311</ele>
        <time>2021-08-01T17:39:04Z</time>
      </trkpt>
      <trkpt lat="43.196678" lon="-4.968313">
        <ele>2062.175</ele>
        <time>2021-08-01T17:39:10Z</time>
      </trkpt>
      <trkpt lat="43.196712" lon="-4.968264">
        <ele>2060.372</ele>
        <time>2021-08-01T17:39:20Z</time>
      </trkpt>
      <trkpt lat="43.196757" lon="-4.968241">
        <ele>2058.657</ele>
        <time>2021-08-01T17:39:25Z</time>
      </trkpt>
      <trkpt lat="43.19675" lon="-4.968178">
        <ele>2057.817</ele>
        <time>2021-08-01T17:39:32Z</time>
      </trkpt>
      <trkpt lat="43.196773" lon="-4.96812">
        <ele>2056.424</ele>
        <time>2021-08-01T17:39:39Z</time>
      </trkpt>
      <trkpt lat="43.196786" lon="-4.968061">
        <ele>2055.404</ele>
        <time>2021-08-01T17:39:45Z</time>
      </trkpt>
      <trkpt lat="43.196803" lon="-4.967992">
        <ele>2054.914</ele>
        <time>2021-08-01T17:39:52Z</time>
      </trkpt>
      <trkpt lat="43.196787" lon="-4.96793">
        <ele>2053.908</ele>
        <time>2021-08-01T17:39:56Z</time>
      </trkpt>
      <trkpt lat="43.196764" lon="-4.967876">
        <ele>2052.949</ele>
        <time>2021-08-01T17:40:02Z</time>
      </trkpt>
      <trkpt lat="43.196748" lon="-4.967815">
        <ele>2050.881</ele>
        <time>2021-08-01T17:40:14Z</time>
      </trkpt>
      <trkpt lat="43.196723" lon="-4.967754">
        <ele>2049.920</ele>
        <time>2021-08-01T17:40:21Z</time>
      </trkpt>
      <trkpt lat="43.196699" lon="-4.967693">
        <ele>2049.382</ele>
        <time>2021-08-01T17:40:27Z</time>
      </trkpt>
      <trkpt lat="43.196672" lon="-4.967639">
        <ele>2048.116</ele>
        <time>2021-08-01T17:40:33Z</time>
      </trkpt>
      <trkpt lat="43.196626" lon="-4.967647">
        <ele>2046.723</ele>
        <time>2021-08-01T17:40:48Z</time>
      </trkpt>
      <trkpt lat="43.196589" lon="-4.967684">
        <ele>2045.678</ele>
        <time>2021-08-01T17:40:55Z</time>
      </trkpt>
      <trkpt lat="43.196548" lon="-4.967642">
        <ele>2046.718</ele>
        <time>2021-08-01T17:41:15Z</time>
      </trkpt>
      <trkpt lat="43.196509" lon="-4.967679">
        <ele>2048.589</ele>
        <time>2021-08-01T17:41:20Z</time>
      </trkpt>
      <trkpt lat="43.196489" lon="-4.967738">
        <ele>2050.206</ele>
        <time>2021-08-01T17:41:24Z</time>
      </trkpt>
      <trkpt lat="43.196456" lon="-4.96778">
        <ele>2052.126</ele>
        <time>2021-08-01T17:41:36Z</time>
      </trkpt>
      <trkpt lat="43.196411" lon="-4.967785">
        <ele>2053.208</ele>
        <time>2021-08-01T17:42:00Z</time>
      </trkpt>
      <trkpt lat="43.196388" lon="-4.967728">
        <ele>2057.245</ele>
        <time>2021-08-01T17:42:06Z</time>
      </trkpt>
      <trkpt lat="43.196353" lon="-4.967685">
        <ele>2060.527</ele>
        <time>2021-08-01T17:42:13Z</time>
      </trkpt>
      <trkpt lat="43.196318" lon="-4.967638">
        <ele>2062.496</ele>
        <time>2021-08-01T17:42:18Z</time>
      </trkpt>
      <trkpt lat="43.19627" lon="-4.967646">
        <ele>2063.438</ele>
        <time>2021-08-01T17:42:24Z</time>
      </trkpt>
      <trkpt lat="43.196226" lon="-4.967613">
        <ele>2063.412</ele>
        <time>2021-08-01T17:42:31Z</time>
      </trkpt>
      <trkpt lat="43.196203" lon="-4.967558">
        <ele>2062.649</ele>
        <time>2021-08-01T17:42:37Z</time>
      </trkpt>
      <trkpt lat="43.196215" lon="-4.967483">
        <ele>2061.124</ele>
        <time>2021-08-01T17:42:42Z</time>
      </trkpt>
      <trkpt lat="43.196208" lon="-4.967419">
        <ele>2059.894</ele>
        <time>2021-08-01T17:42:45Z</time>
      </trkpt>
      <trkpt lat="43.196186" lon="-4.967357">
        <ele>2057.233</ele>
        <time>2021-08-01T17:42:50Z</time>
      </trkpt>
      <trkpt lat="43.196186" lon="-4.967289">
        <ele>2055.023</ele>
        <time>2021-08-01T17:42:54Z</time>
      </trkpt>
      <trkpt lat="43.19618" lon="-4.967225">
        <ele>2052.715</ele>
        <time>2021-08-01T17:42:57Z</time>
      </trkpt>
      <trkpt lat="43.19615" lon="-4.967174">
        <ele>2049.908</ele>
        <time>2021-08-01T17:43:01Z</time>
      </trkpt>
      <trkpt lat="43.196085" lon="-4.967186">
        <ele>2047.860</ele>
        <time>2021-08-01T17:43:05Z</time>
      </trkpt>
      <trkpt lat="43.196039" lon="-4.967186">
        <ele>2045.182</ele>
        <time>2021-08-01T17:43:09Z</time>
      </trkpt>
      <trkpt lat="43.196008" lon="-4.967137">
        <ele>2042.151</ele>
        <time>2021-08-01T17:43:13Z</time>
      </trkpt>
      <trkpt lat="43.195974" lon="-4.967082">
        <ele>2038.863</ele>
        <time>2021-08-01T17:43:17Z</time>
      </trkpt>
      <trkpt lat="43.195957" lon="-4.967015">
        <ele>2035.687</ele>
        <time>2021-08-01T17:43:20Z</time>
      </trkpt>
      <trkpt lat="43.195953" lon="-4.966945">
        <ele>2032.154</ele>
        <time>2021-08-01T17:43:24Z</time>
      </trkpt>
      <trkpt lat="43.195918" lon="-4.966898">
        <ele>2028.419</ele>
        <time>2021-08-01T17:43:28Z</time>
      </trkpt>
      <trkpt lat="43.195881" lon="-4.966854">
        <ele>2024.499</ele>
        <time>2021-08-01T17:43:33Z</time>
      </trkpt>
      <trkpt lat="43.195845" lon="-4.966816">
        <ele>2020.838</ele>
        <time>2021-08-01T17:43:37Z</time>
      </trkpt>
      <trkpt lat="43.195801" lon="-4.966799">
        <ele>2018.270</ele>
        <time>2021-08-01T17:43:41Z</time>
      </trkpt>
      <trkpt lat="43.195753" lon="-4.966794">
        <ele>2015.317</ele>
        <time>2021-08-01T17:43:45Z</time>
      </trkpt>
      <trkpt lat="43.195704" lon="-4.966798">
        <ele>2014.208</ele>
        <time>2021-08-01T17:43:49Z</time>
      </trkpt>
      <trkpt lat="43.195659" lon="-4.966808">
        <ele>2011.490</ele>
        <time>2021-08-01T17:43:53Z</time>
      </trkpt>
      <trkpt lat="43.195658" lon="-4.966872">
        <ele>2010.522</ele>
        <time>2021-08-01T17:44:00Z</time>
      </trkpt>
      <trkpt lat="43.195627" lon="-4.966819">
        <ele>2008.891</ele>
        <time>2021-08-01T17:44:15Z</time>
      </trkpt>
      <trkpt lat="43.195618" lon="-4.966754">
        <ele>2007.713</ele>
        <time>2021-08-01T17:44:20Z</time>
      </trkpt>
      <trkpt lat="43.19559" lon="-4.966693">
        <ele>2006.117</ele>
        <time>2021-08-01T17:44:27Z</time>
      </trkpt>
      <trkpt lat="43.195544" lon="-4.96668">
        <ele>2004.324</ele>
        <time>2021-08-01T17:44:32Z</time>
      </trkpt>
      <trkpt lat="43.195528" lon="-4.966619">
        <ele>2002.719</ele>
        <time>2021-08-01T17:44:48Z</time>
      </trkpt>
      <trkpt lat="43.195506" lon="-4.96656">
        <ele>2001.739</ele>
        <time>2021-08-01T17:44:55Z</time>
      </trkpt>
      <trkpt lat="43.195475" lon="-4.966509">
        <ele>2001.934</ele>
        <time>2021-08-01T17:45:01Z</time>
      </trkpt>
      <trkpt lat="43.195439" lon="-4.966471">
        <ele>2002.055</ele>
        <time>2021-08-01T17:45:05Z</time>
      </trkpt>
      <trkpt lat="43.195399" lon="-4.96644">
        <ele>2001.410</ele>
        <time>2021-08-01T17:45:10Z</time>
      </trkpt>
      <trkpt lat="43.195366" lon="-4.966397">
        <ele>2000.808</ele>
        <time>2021-08-01T17:45:17Z</time>
      </trkpt>
      <trkpt lat="43.195324" lon="-4.966421">
        <ele>1999.590</ele>
        <time>2021-08-01T17:45:42Z</time>
      </trkpt>
      <trkpt lat="43.1953" lon="-4.966475">
        <ele>1998.332</ele>
        <time>2021-08-01T17:45:51Z</time>
      </trkpt>
      <trkpt lat="43.19526" lon="-4.966428">
        <ele>1998.581</ele>
        <time>2021-08-01T17:45:58Z</time>
      </trkpt>
      <trkpt lat="43.195256" lon="-4.966503">
        <ele>1998.693</ele>
        <time>2021-08-01T17:47:11Z</time>
      </trkpt>
      <trkpt lat="43.195262" lon="-4.966593">
        <ele>1998.737</ele>
        <time>2021-08-01T17:47:12Z</time>
      </trkpt>
      <trkpt lat="43.195214" lon="-4.966594">
        <ele>1998.724</ele>
        <time>2021-08-01T17:47:17Z</time>
      </trkpt>
      <trkpt lat="43.195179" lon="-4.966547">
        <ele>1998.729</ele>
        <time>2021-08-01T17:47:20Z</time>
      </trkpt>
      <trkpt lat="43.195136" lon="-4.966506">
        <ele>1998.739</ele>
        <time>2021-08-01T17:47:24Z</time>
      </trkpt>
      <trkpt lat="43.195094" lon="-4.966476">
        <ele>1998.772</ele>
        <time>2021-08-01T17:47:27Z</time>
      </trkpt>
      <trkpt lat="43.195057" lon="-4.966436">
        <ele>2002.713</ele>
        <time>2021-08-01T17:47:31Z</time>
      </trkpt>
      <trkpt lat="43.195034" lon="-4.966376">
        <ele>2006.714</ele>
        <time>2021-08-01T17:47:34Z</time>
      </trkpt>
      <trkpt lat="43.195002" lon="-4.966331">
        <ele>2010.708</ele>
        <time>2021-08-01T17:47:38Z</time>
      </trkpt>
      <trkpt lat="43.194983" lon="-4.966272">
        <ele>2014.734</ele>
        <time>2021-08-01T17:48:06Z</time>
      </trkpt>
      <trkpt lat="43.194978" lon="-4.966209">
        <ele>2018.776</ele>
        <time>2021-08-01T17:48:10Z</time>
      </trkpt>
      <trkpt lat="43.194971" lon="-4.966148">
        <ele>2022.775</ele>
        <time>2021-08-01T17:48:17Z</time>
      </trkpt>
      <trkpt lat="43.19497" lon="-4.966082">
        <ele>2026.397</ele>
        <time>2021-08-01T17:48:28Z</time>
      </trkpt>
      <trkpt lat="43.194964" lon="-4.966019">
        <ele>2028.421</ele>
        <time>2021-08-01T17:48:36Z</time>
      </trkpt>
      <trkpt lat="43.194917" lon="-4.965996">
        <ele>2030.188</ele>
        <time>2021-08-01T17:48:42Z</time>
      </trkpt>
      <trkpt lat="43.194877" lon="-4.965966">
        <ele>2030.483</ele>
        <time>2021-08-01T17:48:47Z</time>
      </trkpt>
      <trkpt lat="43.194866" lon="-4.965902">
        <ele>2030.753</ele>
        <time>2021-08-01T17:48:53Z</time>
      </trkpt>
      <trkpt lat="43.19487" lon="-4.96584">
        <ele>2030.691</ele>
        <time>2021-08-01T17:49:00Z</time>
      </trkpt>
      <trkpt lat="43.194879" lon="-4.965774">
        <ele>2030.081</ele>
        <time>2021-08-01T17:49:32Z</time>
      </trkpt>
      <trkpt lat="43.19489" lon="-4.965712">
        <ele>2030.219</ele>
        <time>2021-08-01T17:49:39Z</time>
      </trkpt>
      <trkpt lat="43.194882" lon="-4.965648">
        <ele>2029.408</ele>
        <time>2021-08-01T17:49:46Z</time>
      </trkpt>
      <trkpt lat="43.194869" lon="-4.965586">
        <ele>2029.636</ele>
        <time>2021-08-01T17:49:53Z</time>
      </trkpt>
      <trkpt lat="43.194864" lon="-4.965522">
        <ele>2029.448</ele>
        <time>2021-08-01T17:50:00Z</time>
      </trkpt>
      <trkpt lat="43.194903" lon="-4.965472">
        <ele>2030.117</ele>
        <time>2021-08-01T17:50:08Z</time>
      </trkpt>
      <trkpt lat="43.194905" lon="-4.965404">
        <ele>2031.729</ele>
        <time>2021-08-01T17:50:26Z</time>
      </trkpt>
      <trkpt lat="43.194896" lon="-4.965336">
        <ele>2034.783</ele>
        <time>2021-08-01T17:50:51Z</time>
      </trkpt>
      <trkpt lat="43.194877" lon="-4.965279">
        <ele>2036.070</ele>
        <time>2021-08-01T17:50:55Z</time>
      </trkpt>
      <trkpt lat="43.19485" lon="-4.965223">
        <ele>2036.855</ele>
        <time>2021-08-01T17:51:00Z</time>
      </trkpt>
      <trkpt lat="43.194825" lon="-4.96517">
        <ele>2036.855</ele>
        <time>2021-08-01T17:51:11Z</time>
      </trkpt>
      <trkpt lat="43.194801" lon="-4.965115">
        <ele>2036.878</ele>
        <time>2021-08-01T17:51:16Z</time>
      </trkpt>
      <trkpt lat="43.194792" lon="-4.965049">
        <ele>2036.033</ele>
        <time>2021-08-01T17:51:21Z</time>
      </trkpt>
      <trkpt lat="43.194779" lon="-4.964989">
        <ele>2034.726</ele>
        <time>2021-08-01T17:51:34Z</time>
      </trkpt>
      <trkpt lat="43.194786" lon="-4.965053">
        <ele>2033.808</ele>
        <time>2021-08-01T17:51:55Z</time>
      </trkpt>
      <trkpt lat="43.194775" lon="-4.965115">
        <ele>2033.224</ele>
        <time>2021-08-01T17:51:59Z</time>
      </trkpt>
      <trkpt lat="43.194808" lon="-4.965157">
        <ele>2032.426</ele>
        <time>2021-08-01T17:52:07Z</time>
      </trkpt>
      <trkpt lat="43.194783" lon="-4.965097">
        <ele>2032.355</ele>
        <time>2021-08-01T17:52:16Z</time>
      </trkpt>
      <trkpt lat="43.194752" lon="-4.965045">
        <ele>2031.357</ele>
        <time>2021-08-01T17:52:20Z</time>
      </trkpt>
      <trkpt lat="43.194713" lon="-4.965009">
        <ele>2030.861</ele>
        <time>2021-08-01T17:52:24Z</time>
      </trkpt>
      <trkpt lat="43.194712" lon="-4.965072">
        <ele>2031.118</ele>
        <time>2021-08-01T17:52:28Z</time>
      </trkpt>
      <trkpt lat="43.19468" lon="-4.965027">
        <ele>2031.453</ele>
        <time>2021-08-01T17:52:42Z</time>
      </trkpt>
      <trkpt lat="43.194638" lon="-4.965056">
        <ele>2031.383</ele>
        <time>2021-08-01T17:52:47Z</time>
      </trkpt>
      <trkpt lat="43.194592" lon="-4.965034">
        <ele>2031.592</ele>
        <time>2021-08-01T17:52:55Z</time>
      </trkpt>
      <trkpt lat="43.194598" lon="-4.964972">
        <ele>2031.873</ele>
        <time>2021-08-01T17:53:19Z</time>
      </trkpt>
      <trkpt lat="43.19457" lon="-4.964921">
        <ele>2031.620</ele>
        <time>2021-08-01T17:53:24Z</time>
      </trkpt>
      <trkpt lat="43.194529" lon="-4.964947">
        <ele>2032.308</ele>
        <time>2021-08-01T17:53:32Z</time>
      </trkpt>
      <trkpt lat="43.194539" lon="-4.964885">
        <ele>2032.136</ele>
        <time>2021-08-01T17:53:42Z</time>
      </trkpt>
      <trkpt lat="43.194538" lon="-4.964821">
        <ele>2031.698</ele>
        <time>2021-08-01T17:53:48Z</time>
      </trkpt>
      <trkpt lat="43.194511" lon="-4.96477">
        <ele>2031.987</ele>
        <time>2021-08-01T17:53:55Z</time>
      </trkpt>
      <trkpt lat="43.194493" lon="-4.964711">
        <ele>2031.469</ele>
        <time>2021-08-01T17:54:05Z</time>
      </trkpt>
      <trkpt lat="43.194483" lon="-4.964651">
        <ele>2030.683</ele>
        <time>2021-08-01T17:54:09Z</time>
      </trkpt>
      <trkpt lat="43.194454" lon="-4.964597">
        <ele>2030.180</ele>
        <time>2021-08-01T17:54:15Z</time>
      </trkpt>
      <trkpt lat="43.194447" lon="-4.964534">
        <ele>2030.335</ele>
        <time>2021-08-01T17:54:36Z</time>
      </trkpt>
      <trkpt lat="43.194429" lon="-4.964475">
        <ele>2031.195</ele>
        <time>2021-08-01T17:54:42Z</time>
      </trkpt>
      <trkpt lat="43.194404" lon="-4.96442">
        <ele>2032.262</ele>
        <time>2021-08-01T17:54:50Z</time>
      </trkpt>
      <trkpt lat="43.194392" lon="-4.964356">
        <ele>2032.483</ele>
        <time>2021-08-01T17:54:54Z</time>
      </trkpt>
      <trkpt lat="43.194371" lon="-4.964296">
        <ele>2032.411</ele>
        <time>2021-08-01T17:54:59Z</time>
      </trkpt>
      <trkpt lat="43.19434" lon="-4.964247">
        <ele>2033.008</ele>
        <time>2021-08-01T17:55:06Z</time>
      </trkpt>
      <trkpt lat="43.194331" lon="-4.964186">
        <ele>2032.673</ele>
        <time>2021-08-01T17:55:34Z</time>
      </trkpt>
      <trkpt lat="43.194339" lon="-4.964121">
        <ele>2032.495</ele>
        <time>2021-08-01T17:55:40Z</time>
      </trkpt>
      <trkpt lat="43.194297" lon="-4.964095">
        <ele>2032.494</ele>
        <time>2021-08-01T17:55:46Z</time>
      </trkpt>
      <trkpt lat="43.194254" lon="-4.964065">
        <ele>2032.316</ele>
        <time>2021-08-01T17:55:51Z</time>
      </trkpt>
      <trkpt lat="43.194268" lon="-4.964006">
        <ele>2031.790</ele>
        <time>2021-08-01T17:55:55Z</time>
      </trkpt>
      <trkpt lat="43.194278" lon="-4.963943">
        <ele>2031.327</ele>
        <time>2021-08-01T17:56:02Z</time>
      </trkpt>
      <trkpt lat="43.194244" lon="-4.963901">
        <ele>2031.192</ele>
        <time>2021-08-01T17:56:10Z</time>
      </trkpt>
      <trkpt lat="43.194203" lon="-4.963866">
        <ele>2031.092</ele>
        <time>2021-08-01T17:56:17Z</time>
      </trkpt>
      <trkpt lat="43.194184" lon="-4.963806">
        <ele>2030.645</ele>
        <time>2021-08-01T17:56:22Z</time>
      </trkpt>
      <trkpt lat="43.194158" lon="-4.963753">
        <ele>2030.347</ele>
        <time>2021-08-01T17:56:31Z</time>
      </trkpt>
      <trkpt lat="43.194117" lon="-4.963711">
        <ele>2030.511</ele>
        <time>2021-08-01T17:56:38Z</time>
      </trkpt>
      <trkpt lat="43.194084" lon="-4.963668">
        <ele>2030.508</ele>
        <time>2021-08-01T17:56:43Z</time>
      </trkpt>
      <trkpt lat="43.194074" lon="-4.963602">
        <ele>2030.521</ele>
        <time>2021-08-01T17:56:49Z</time>
      </trkpt>
      <trkpt lat="43.194042" lon="-4.963558">
        <ele>2030.183</ele>
        <time>2021-08-01T17:56:56Z</time>
      </trkpt>
      <trkpt lat="43.194017" lon="-4.963503">
        <ele>2029.522</ele>
        <time>2021-08-01T17:57:05Z</time>
      </trkpt>
      <trkpt lat="43.193995" lon="-4.963447">
        <ele>2028.744</ele>
        <time>2021-08-01T17:57:33Z</time>
      </trkpt>
      <trkpt lat="43.193957" lon="-4.963413">
        <ele>2028.688</ele>
        <time>2021-08-01T17:57:41Z</time>
      </trkpt>
      <trkpt lat="43.193914" lon="-4.963389">
        <ele>2028.885</ele>
        <time>2021-08-01T17:57:47Z</time>
      </trkpt>
      <trkpt lat="43.193886" lon="-4.963338">
        <ele>2029.020</ele>
        <time>2021-08-01T17:57:53Z</time>
      </trkpt>
      <trkpt lat="43.193849" lon="-4.963292">
        <ele>2028.680</ele>
        <time>2021-08-01T17:57:59Z</time>
      </trkpt>
      <trkpt lat="43.193822" lon="-4.963237">
        <ele>2028.456</ele>
        <time>2021-08-01T17:58:04Z</time>
      </trkpt>
      <trkpt lat="43.193834" lon="-4.963174">
        <ele>2027.559</ele>
        <time>2021-08-01T17:58:37Z</time>
      </trkpt>
      <trkpt lat="43.193829" lon="-4.963109">
        <ele>2026.714</ele>
        <time>2021-08-01T17:59:16Z</time>
      </trkpt>
      <trkpt lat="43.193811" lon="-4.963051">
        <ele>2026.408</ele>
        <time>2021-08-01T17:59:20Z</time>
      </trkpt>
      <trkpt lat="43.193767" lon="-4.963012">
        <ele>2026.682</ele>
        <time>2021-08-01T17:59:24Z</time>
      </trkpt>
      <trkpt lat="43.193725" lon="-4.962989">
        <ele>2026.344</ele>
        <time>2021-08-01T17:59:28Z</time>
      </trkpt>
      <trkpt lat="43.1937" lon="-4.962935">
        <ele>2026.933</ele>
        <time>2021-08-01T17:59:33Z</time>
      </trkpt>
      <trkpt lat="43.193666" lon="-4.962894">
        <ele>2027.465</ele>
        <time>2021-08-01T17:59:39Z</time>
      </trkpt>
      <trkpt lat="43.193626" lon="-4.962855">
        <ele>2027.679</ele>
        <time>2021-08-01T17:59:43Z</time>
      </trkpt>
      <trkpt lat="43.193599" lon="-4.962803">
        <ele>2027.996</ele>
        <time>2021-08-01T17:59:49Z</time>
      </trkpt>
      <trkpt lat="43.193575" lon="-4.96275">
        <ele>2028.351</ele>
        <time>2021-08-01T17:59:58Z</time>
      </trkpt>
      <trkpt lat="43.193548" lon="-4.962696">
        <ele>2028.991</ele>
        <time>2021-08-01T18:00:04Z</time>
      </trkpt>
      <trkpt lat="43.193513" lon="-4.96265">
        <ele>2029.353</ele>
        <time>2021-08-01T18:00:09Z</time>
      </trkpt>
      <trkpt lat="43.193493" lon="-4.962594">
        <ele>2029.904</ele>
        <time>2021-08-01T18:00:31Z</time>
      </trkpt>
      <trkpt lat="43.193459" lon="-4.962549">
        <ele>2028.914</ele>
        <time>2021-08-01T18:00:37Z</time>
      </trkpt>
      <trkpt lat="43.193431" lon="-4.962498">
        <ele>2029.308</ele>
        <time>2021-08-01T18:00:42Z</time>
      </trkpt>
      <trkpt lat="43.193406" lon="-4.962434">
        <ele>2029.112</ele>
        <time>2021-08-01T18:00:46Z</time>
      </trkpt>
      <trkpt lat="43.193374" lon="-4.962387">
        <ele>2029.284</ele>
        <time>2021-08-01T18:00:50Z</time>
      </trkpt>
      <trkpt lat="43.193343" lon="-4.962343">
        <ele>2028.313</ele>
        <time>2021-08-01T18:00:54Z</time>
      </trkpt>
      <trkpt lat="43.19331" lon="-4.962297">
        <ele>2027.725</ele>
        <time>2021-08-01T18:01:00Z</time>
      </trkpt>
      <trkpt lat="43.193281" lon="-4.962247">
        <ele>2027.569</ele>
        <time>2021-08-01T18:01:06Z</time>
      </trkpt>
      <trkpt lat="43.193257" lon="-4.96219">
        <ele>2027.166</ele>
        <time>2021-08-01T18:01:13Z</time>
      </trkpt>
      <trkpt lat="43.193221" lon="-4.962146">
        <ele>2027.041</ele>
        <time>2021-08-01T18:01:20Z</time>
      </trkpt>
      <trkpt lat="43.193186" lon="-4.962099">
        <ele>2026.891</ele>
        <time>2021-08-01T18:01:29Z</time>
      </trkpt>
      <trkpt lat="43.193162" lon="-4.962044">
        <ele>2026.847</ele>
        <time>2021-08-01T18:01:35Z</time>
      </trkpt>
      <trkpt lat="43.193118" lon="-4.962025">
        <ele>2028.629</ele>
        <time>2021-08-01T18:02:39Z</time>
      </trkpt>
      <trkpt lat="43.193065" lon="-4.962011">
        <ele>2030.021</ele>
        <time>2021-08-01T18:02:44Z</time>
      </trkpt>
      <trkpt lat="43.193012" lon="-4.962025">
        <ele>2031.308</ele>
        <time>2021-08-01T18:02:49Z</time>
      </trkpt>
      <trkpt lat="43.192963" lon="-4.962011">
        <ele>2031.941</ele>
        <time>2021-08-01T18:02:54Z</time>
      </trkpt>
      <trkpt lat="43.192913" lon="-4.962018">
        <ele>2032.923</ele>
        <time>2021-08-01T18:03:01Z</time>
      </trkpt>
      <trkpt lat="43.192859" lon="-4.962004">
        <ele>2033.262</ele>
        <time>2021-08-01T18:03:06Z</time>
      </trkpt>
      <trkpt lat="43.192845" lon="-4.961937">
        <ele>2034.854</ele>
        <time>2021-08-01T18:03:24Z</time>
      </trkpt>
      <trkpt lat="43.19282" lon="-4.961875">
        <ele>2035.078</ele>
        <time>2021-08-01T18:03:28Z</time>
      </trkpt>
      <trkpt lat="43.192781" lon="-4.961829">
        <ele>2035.735</ele>
        <time>2021-08-01T18:03:32Z</time>
      </trkpt>
      <trkpt lat="43.192739" lon="-4.961791">
        <ele>2036.610</ele>
        <time>2021-08-01T18:03:36Z</time>
      </trkpt>
      <trkpt lat="43.192701" lon="-4.96175">
        <ele>2037.220</ele>
        <time>2021-08-01T18:03:41Z</time>
      </trkpt>
      <trkpt lat="43.192664" lon="-4.961706">
        <ele>2037.345</ele>
        <time>2021-08-01T18:03:45Z</time>
      </trkpt>
      <trkpt lat="43.192621" lon="-4.961676">
        <ele>2037.547</ele>
        <time>2021-08-01T18:03:49Z</time>
      </trkpt>
      <trkpt lat="43.192661" lon="-4.961645">
        <ele>2037.911</ele>
        <time>2021-08-01T18:04:26Z</time>
      </trkpt>
      <trkpt lat="43.192636" lon="-4.961593">
        <ele>2037.808</ele>
        <time>2021-08-01T18:04:43Z</time>
      </trkpt>
      <trkpt lat="43.19259" lon="-4.961599">
        <ele>2039.361</ele>
        <time>2021-08-01T18:05:10Z</time>
      </trkpt>
      <trkpt lat="43.192547" lon="-4.961577">
        <ele>2040.343</ele>
        <time>2021-08-01T18:05:31Z</time>
      </trkpt>
      <trkpt lat="43.1925" lon="-4.961563">
        <ele>2040.892</ele>
        <time>2021-08-01T18:05:56Z</time>
      </trkpt>
      <trkpt lat="43.192452" lon="-4.961586">
        <ele>2040.654</ele>
        <time>2021-08-01T18:05:59Z</time>
      </trkpt>
      <trkpt lat="43.192413" lon="-4.961616">
        <ele>2039.668</ele>
        <time>2021-08-01T18:06:02Z</time>
      </trkpt>
      <trkpt lat="43.192367" lon="-4.961651">
        <ele>2039.925</ele>
        <time>2021-08-01T18:06:07Z</time>
      </trkpt>
      <trkpt lat="43.192318" lon="-4.961684">
        <ele>2039.720</ele>
        <time>2021-08-01T18:06:11Z</time>
      </trkpt>
      <trkpt lat="43.192272" lon="-4.961672">
        <ele>2039.760</ele>
        <time>2021-08-01T18:06:15Z</time>
      </trkpt>
      <trkpt lat="43.192226" lon="-4.961659">
        <ele>2039.263</ele>
        <time>2021-08-01T18:06:20Z</time>
      </trkpt>
      <trkpt lat="43.192183" lon="-4.961639">
        <ele>2039.344</ele>
        <time>2021-08-01T18:06:26Z</time>
      </trkpt>
      <trkpt lat="43.192177" lon="-4.961575">
        <ele>2038.818</ele>
        <time>2021-08-01T18:06:46Z</time>
      </trkpt>
      <trkpt lat="43.192172" lon="-4.961501">
        <ele>2038.308</ele>
        <time>2021-08-01T18:06:51Z</time>
      </trkpt>
      <trkpt lat="43.192172" lon="-4.961434">
        <ele>2038.333</ele>
        <time>2021-08-01T18:06:56Z</time>
      </trkpt>
      <trkpt lat="43.192165" lon="-4.961372">
        <ele>2038.525</ele>
        <time>2021-08-01T18:07:03Z</time>
      </trkpt>
      <trkpt lat="43.192162" lon="-4.96131">
        <ele>2039.044</ele>
        <time>2021-08-01T18:07:09Z</time>
      </trkpt>
      <trkpt lat="43.192187" lon="-4.961255">
        <ele>2040.076</ele>
        <time>2021-08-01T18:07:14Z</time>
      </trkpt>
      <trkpt lat="43.192213" lon="-4.9612">
        <ele>2040.610</ele>
        <time>2021-08-01T18:07:21Z</time>
      </trkpt>
      <trkpt lat="43.192188" lon="-4.961141">
        <ele>2043.547</ele>
        <time>2021-08-01T18:07:42Z</time>
      </trkpt>
      <trkpt lat="43.19218" lon="-4.961076">
        <ele>2044.792</ele>
        <time>2021-08-01T18:07:49Z</time>
      </trkpt>
      <trkpt lat="43.192167" lon="-4.961014">
        <ele>2046.662</ele>
        <time>2021-08-01T18:08:38Z</time>
      </trkpt>
      <trkpt lat="43.192139" lon="-4.960954">
        <ele>2049.347</ele>
        <time>2021-08-01T18:09:04Z</time>
      </trkpt>
      <trkpt lat="43.192116" lon="-4.960899">
        <ele>2050.929</ele>
        <time>2021-08-01T18:09:11Z</time>
      </trkpt>
      <trkpt lat="43.192128" lon="-4.960835">
        <ele>2051.721</ele>
        <time>2021-08-01T18:09:15Z</time>
      </trkpt>
      <trkpt lat="43.192093" lon="-4.960781">
        <ele>2051.408</ele>
        <time>2021-08-01T18:09:20Z</time>
      </trkpt>
      <trkpt lat="43.19207" lon="-4.960718">
        <ele>2051.231</ele>
        <time>2021-08-01T18:09:24Z</time>
      </trkpt>
      <trkpt lat="43.192057" lon="-4.960654">
        <ele>2050.973</ele>
        <time>2021-08-01T18:09:30Z</time>
      </trkpt>
      <trkpt lat="43.192056" lon="-4.960587">
        <ele>2051.022</ele>
        <time>2021-08-01T18:09:36Z</time>
      </trkpt>
      <trkpt lat="43.192036" lon="-4.960529">
        <ele>2051.024</ele>
        <time>2021-08-01T18:09:41Z</time>
      </trkpt>
      <trkpt lat="43.19201" lon="-4.960474">
        <ele>2050.918</ele>
        <time>2021-08-01T18:10:01Z</time>
      </trkpt>
      <trkpt lat="43.19202" lon="-4.960411">
        <ele>2050.315</ele>
        <time>2021-08-01T18:10:08Z</time>
      </trkpt>
      <trkpt lat="43.191981" lon="-4.960448">
        <ele>2050.890</ele>
        <time>2021-08-01T18:10:15Z</time>
      </trkpt>
      <trkpt lat="43.191936" lon="-4.96048">
        <ele>2050.770</ele>
        <time>2021-08-01T18:10:20Z</time>
      </trkpt>
      <trkpt lat="43.191899" lon="-4.960437">
        <ele>2050.147</ele>
        <time>2021-08-01T18:10:50Z</time>
      </trkpt>
      <trkpt lat="43.191924" lon="-4.960502">
        <ele>2050.329</ele>
        <time>2021-08-01T18:11:08Z</time>
      </trkpt>
      <trkpt lat="43.191952" lon="-4.960566">
        <ele>2050.821</ele>
        <time>2021-08-01T18:11:11Z</time>
      </trkpt>
      <trkpt lat="43.191948" lon="-4.960632">
        <ele>2051.708</ele>
        <time>2021-08-01T18:11:15Z</time>
      </trkpt>
      <trkpt lat="43.191896" lon="-4.960659">
        <ele>2051.931</ele>
        <time>2021-08-01T18:11:19Z</time>
      </trkpt>
      <trkpt lat="43.191843" lon="-4.960665">
        <ele>2051.863</ele>
        <time>2021-08-01T18:11:21Z</time>
      </trkpt>
      <trkpt lat="43.191798" lon="-4.960701">
        <ele>2052.212</ele>
        <time>2021-08-01T18:11:24Z</time>
      </trkpt>
      <trkpt lat="43.191763" lon="-4.960747">
        <ele>2051.724</ele>
        <time>2021-08-01T18:11:27Z</time>
      </trkpt>
      <trkpt lat="43.191735" lon="-4.960798">
        <ele>2052.158</ele>
        <time>2021-08-01T18:11:29Z</time>
      </trkpt>
      <trkpt lat="43.191713" lon="-4.960853">
        <ele>2051.585</ele>
        <time>2021-08-01T18:11:34Z</time>
      </trkpt>
      <trkpt lat="43.191746" lon="-4.960896">
        <ele>2051.310</ele>
        <time>2021-08-01T18:11:45Z</time>
      </trkpt>
      <trkpt lat="43.191723" lon="-4.960957">
        <ele>2051.050</ele>
        <time>2021-08-01T18:12:04Z</time>
      </trkpt>
      <trkpt lat="43.191685" lon="-4.961009">
        <ele>2050.548</ele>
        <time>2021-08-01T18:12:08Z</time>
      </trkpt>
      <trkpt lat="43.191657" lon="-4.96106">
        <ele>2049.861</ele>
        <time>2021-08-01T18:12:11Z</time>
      </trkpt>
      <trkpt lat="43.191629" lon="-4.961111">
        <ele>2049.517</ele>
        <time>2021-08-01T18:12:14Z</time>
      </trkpt>
      <trkpt lat="43.191592" lon="-4.961151">
        <ele>2048.908</ele>
        <time>2021-08-01T18:12:18Z</time>
      </trkpt>
      <trkpt lat="43.191564" lon="-4.961201">
        <ele>2047.611</ele>
        <time>2021-08-01T18:12:23Z</time>
      </trkpt>
      <trkpt lat="43.191534" lon="-4.961251">
        <ele>2047.763</ele>
        <time>2021-08-01T18:12:26Z</time>
      </trkpt>
      <trkpt lat="43.191514" lon="-4.961316">
        <ele>2046.172</ele>
        <time>2021-08-01T18:12:31Z</time>
      </trkpt>
      <trkpt lat="43.191493" lon="-4.961376">
        <ele>2045.564</ele>
        <time>2021-08-01T18:12:35Z</time>
      </trkpt>
      <trkpt lat="43.191491" lon="-4.961446">
        <ele>2045.468</ele>
        <time>2021-08-01T18:12:40Z</time>
      </trkpt>
      <trkpt lat="43.191503" lon="-4.961507">
        <ele>2045.195</ele>
        <time>2021-08-01T18:12:45Z</time>
      </trkpt>
      <trkpt lat="43.191504" lon="-4.961573">
        <ele>2045.310</ele>
        <time>2021-08-01T18:12:51Z</time>
      </trkpt>
      <trkpt lat="43.191483" lon="-4.961633">
        <ele>2045.240</ele>
        <time>2021-08-01T18:12:57Z</time>
      </trkpt>
      <trkpt lat="43.191476" lon="-4.9617">
        <ele>2045.152</ele>
        <time>2021-08-01T18:13:01Z</time>
      </trkpt>
      <trkpt lat="43.191466" lon="-4.961762">
        <ele>2044.553</ele>
        <time>2021-08-01T18:13:05Z</time>
      </trkpt>
      <trkpt lat="43.191457" lon="-4.961826">
        <ele>2043.508</ele>
        <time>2021-08-01T18:13:10Z</time>
      </trkpt>
      <trkpt lat="43.19149" lon="-4.961874">
        <ele>2043.708</ele>
        <time>2021-08-01T18:13:15Z</time>
      </trkpt>
      <trkpt lat="43.191503" lon="-4.961933">
        <ele>2043.822</ele>
        <time>2021-08-01T18:13:27Z</time>
      </trkpt>
      <trkpt lat="43.19146" lon="-4.961953">
        <ele>2043.844</ele>
        <time>2021-08-01T18:13:36Z</time>
      </trkpt>
      <trkpt lat="43.191417" lon="-4.961974">
        <ele>2044.113</ele>
        <time>2021-08-01T18:13:41Z</time>
      </trkpt>
      <trkpt lat="43.191372" lon="-4.962001">
        <ele>2044.585</ele>
        <time>2021-08-01T18:13:46Z</time>
      </trkpt>
      <trkpt lat="43.191327" lon="-4.962041">
        <ele>2044.839</ele>
        <time>2021-08-01T18:13:51Z</time>
      </trkpt>
      <trkpt lat="43.191281" lon="-4.962074">
        <ele>2044.136</ele>
        <time>2021-08-01T18:13:55Z</time>
      </trkpt>
      <trkpt lat="43.191236" lon="-4.962103">
        <ele>2044.431</ele>
        <time>2021-08-01T18:13:59Z</time>
      </trkpt>
      <trkpt lat="43.191195" lon="-4.962135">
        <ele>2044.291</ele>
        <time>2021-08-01T18:14:03Z</time>
      </trkpt>
      <trkpt lat="43.191153" lon="-4.962112">
        <ele>2044.251</ele>
        <time>2021-08-01T18:14:22Z</time>
      </trkpt>
      <trkpt lat="43.191108" lon="-4.962131">
        <ele>2043.501</ele>
        <time>2021-08-01T18:14:26Z</time>
      </trkpt>
      <trkpt lat="43.19107" lon="-4.962167">
        <ele>2043.511</ele>
        <time>2021-08-01T18:14:29Z</time>
      </trkpt>
      <trkpt lat="43.19103" lon="-4.962201">
        <ele>2042.508</ele>
        <time>2021-08-01T18:14:34Z</time>
      </trkpt>
      <trkpt lat="43.190999" lon="-4.962253">
        <ele>2042.182</ele>
        <time>2021-08-01T18:14:42Z</time>
      </trkpt>
      <trkpt lat="43.190957" lon="-4.962291">
        <ele>2042.034</ele>
        <time>2021-08-01T18:15:32Z</time>
      </trkpt>
      <trkpt lat="43.19093" lon="-4.962343">
        <ele>2041.873</ele>
        <time>2021-08-01T18:15:37Z</time>
      </trkpt>
      <trkpt lat="43.190903" lon="-4.962401">
        <ele>2042.275</ele>
        <time>2021-08-01T18:15:41Z</time>
      </trkpt>
      <trkpt lat="43.190863" lon="-4.962438">
        <ele>2042.799</ele>
        <time>2021-08-01T18:15:45Z</time>
      </trkpt>
      <trkpt lat="43.190822" lon="-4.962469">
        <ele>2042.466</ele>
        <time>2021-08-01T18:15:50Z</time>
      </trkpt>
      <trkpt lat="43.190815" lon="-4.962532">
        <ele>2042.561</ele>
        <time>2021-08-01T18:15:54Z</time>
      </trkpt>
      <trkpt lat="43.190785" lon="-4.962584">
        <ele>2042.091</ele>
        <time>2021-08-01T18:15:59Z</time>
      </trkpt>
      <trkpt lat="43.190764" lon="-4.96264">
        <ele>2041.532</ele>
        <time>2021-08-01T18:16:06Z</time>
      </trkpt>
      <trkpt lat="43.190716" lon="-4.962635">
        <ele>2041.592</ele>
        <time>2021-08-01T18:16:14Z</time>
      </trkpt>
      <trkpt lat="43.190675" lon="-4.962672">
        <ele>2041.311</ele>
        <time>2021-08-01T18:16:22Z</time>
      </trkpt>
      <trkpt lat="43.190624" lon="-4.962666">
        <ele>2040.908</ele>
        <time>2021-08-01T18:16:34Z</time>
      </trkpt>
      <trkpt lat="43.190584" lon="-4.962695">
        <ele>2040.660</ele>
        <time>2021-08-01T18:16:39Z</time>
      </trkpt>
      <trkpt lat="43.190578" lon="-4.962759">
        <ele>2040.312</ele>
        <time>2021-08-01T18:17:20Z</time>
      </trkpt>
      <trkpt lat="43.190556" lon="-4.962816">
        <ele>2040.861</ele>
        <time>2021-08-01T18:17:26Z</time>
      </trkpt>
      <trkpt lat="43.190513" lon="-4.962835">
        <ele>2042.993</ele>
        <time>2021-08-01T18:17:43Z</time>
      </trkpt>
      <trkpt lat="43.190476" lon="-4.962877">
        <ele>2045.167</ele>
        <time>2021-08-01T18:17:52Z</time>
      </trkpt>
      <trkpt lat="43.190434" lon="-4.962902">
        <ele>2047.284</ele>
        <time>2021-08-01T18:17:59Z</time>
      </trkpt>
      <trkpt lat="43.190394" lon="-4.96287">
        <ele>2050.149</ele>
        <time>2021-08-01T18:18:27Z</time>
      </trkpt>
      <trkpt lat="43.190356" lon="-4.96283">
        <ele>2052.669</ele>
        <time>2021-08-01T18:18:42Z</time>
      </trkpt>
      <trkpt lat="43.190348" lon="-4.962892">
        <ele>2055.452</ele>
        <time>2021-08-01T18:19:15Z</time>
      </trkpt>
      <trkpt lat="43.190307" lon="-4.96292">
        <ele>2058.253</ele>
        <time>2021-08-01T18:19:36Z</time>
      </trkpt>
      <trkpt lat="43.19026" lon="-4.962899">
        <ele>2060.808</ele>
        <time>2021-08-01T18:19:51Z</time>
      </trkpt>
      <trkpt lat="43.19021" lon="-4.962903">
        <ele>2062.408</ele>
        <time>2021-08-01T18:20:44Z</time>
      </trkpt>
      <trkpt lat="43.190257" lon="-4.962924">
        <ele>2063.332</ele>
        <time>2021-08-01T18:21:38Z</time>
      </trkpt>
      <trkpt lat="43.190326" lon="-4.962924">
        <ele>2063.994</ele>
        <time>2021-08-01T18:21:39Z</time>
      </trkpt>
      <trkpt lat="43.190371" lon="-4.962918">
        <ele>2067.933</ele>
        <time>2021-08-01T18:21:41Z</time>
      </trkpt>
      <trkpt lat="43.190366" lon="-4.962984">
        <ele>2071.985</ele>
        <time>2021-08-01T18:21:54Z</time>
      </trkpt>
      <trkpt lat="43.190357" lon="-4.96305">
        <ele>2075.999</ele>
        <time>2021-08-01T18:22:06Z</time>
      </trkpt>
      <trkpt lat="43.190325" lon="-4.963102">
        <ele>2078.966</ele>
        <time>2021-08-01T18:22:11Z</time>
      </trkpt>
      <trkpt lat="43.190283" lon="-4.963138">
        <ele>2080.641</ele>
        <time>2021-08-01T18:22:15Z</time>
      </trkpt>
      <trkpt lat="43.190245" lon="-4.963173">
        <ele>2082.341</ele>
        <time>2021-08-01T18:22:20Z</time>
      </trkpt>
      <trkpt lat="43.190197" lon="-4.963166">
        <ele>2082.726</ele>
        <time>2021-08-01T18:22:28Z</time>
      </trkpt>
      <trkpt lat="43.190147" lon="-4.963177">
        <ele>2082.647</ele>
        <time>2021-08-01T18:22:33Z</time>
      </trkpt>
      <trkpt lat="43.190098" lon="-4.963184">
        <ele>2082.511</ele>
        <time>2021-08-01T18:22:39Z</time>
      </trkpt>
      <trkpt lat="43.190054" lon="-4.963161">
        <ele>2082.608</ele>
        <time>2021-08-01T18:22:48Z</time>
      </trkpt>
      <trkpt lat="43.190006" lon="-4.963165">
        <ele>2082.399</ele>
        <time>2021-08-01T18:22:56Z</time>
      </trkpt>
      <trkpt lat="43.189961" lon="-4.963148">
        <ele>2081.381</ele>
        <time>2021-08-01T18:23:22Z</time>
      </trkpt>
      <trkpt lat="43.189918" lon="-4.963118">
        <ele>2081.570</ele>
        <time>2021-08-01T18:23:28Z</time>
      </trkpt>
      <trkpt lat="43.189876" lon="-4.963087">
        <ele>2081.432</ele>
        <time>2021-08-01T18:23:37Z</time>
      </trkpt>
      <trkpt lat="43.189836" lon="-4.963057">
        <ele>2081.656</ele>
        <time>2021-08-01T18:23:44Z</time>
      </trkpt>
      <trkpt lat="43.189791" lon="-4.963053">
        <ele>2082.113</ele>
        <time>2021-08-01T18:23:50Z</time>
      </trkpt>
      <trkpt lat="43.189746" lon="-4.963046">
        <ele>2082.168</ele>
        <time>2021-08-01T18:23:55Z</time>
      </trkpt>
      <trkpt lat="43.189702" lon="-4.963026">
        <ele>2082.478</ele>
        <time>2021-08-01T18:23:58Z</time>
      </trkpt>
      <trkpt lat="43.18966" lon="-4.962992">
        <ele>2083.233</ele>
        <time>2021-08-01T18:24:02Z</time>
      </trkpt>
      <trkpt lat="43.189619" lon="-4.962961">
        <ele>2083.623</ele>
        <time>2021-08-01T18:24:07Z</time>
      </trkpt>
      <trkpt lat="43.189575" lon="-4.962934">
        <ele>2083.515</ele>
        <time>2021-08-01T18:24:13Z</time>
      </trkpt>
      <trkpt lat="43.189528" lon="-4.962916">
        <ele>2084.508</ele>
        <time>2021-08-01T18:24:18Z</time>
      </trkpt>
      <trkpt lat="43.18948" lon="-4.962895">
        <ele>2084.490</ele>
        <time>2021-08-01T18:24:24Z</time>
      </trkpt>
      <trkpt lat="43.189436" lon="-4.962866">
        <ele>2084.682</ele>
        <time>2021-08-01T18:24:30Z</time>
      </trkpt>
      <trkpt lat="43.189395" lon="-4.962834">
        <ele>2085.151</ele>
        <time>2021-08-01T18:24:35Z</time>
      </trkpt>
      <trkpt lat="43.189352" lon="-4.96281">
        <ele>2085.443</ele>
        <time>2021-08-01T18:24:41Z</time>
      </trkpt>
      <trkpt lat="43.189314" lon="-4.962775">
        <ele>2085.667</ele>
        <time>2021-08-01T18:24:47Z</time>
      </trkpt>
      <trkpt lat="43.189269" lon="-4.962754">
        <ele>2086.324</ele>
        <time>2021-08-01T18:25:06Z</time>
      </trkpt>
      <trkpt lat="43.189218" lon="-4.962749">
        <ele>2086.339</ele>
        <time>2021-08-01T18:25:11Z</time>
      </trkpt>
      <trkpt lat="43.18917" lon="-4.962766">
        <ele>2086.989</ele>
        <time>2021-08-01T18:25:15Z</time>
      </trkpt>
      <trkpt lat="43.189127" lon="-4.962748">
        <ele>2087.773</ele>
        <time>2021-08-01T18:25:19Z</time>
      </trkpt>
      <trkpt lat="43.189083" lon="-4.962728">
        <ele>2088.585</ele>
        <time>2021-08-01T18:25:24Z</time>
      </trkpt>
      <trkpt lat="43.189034" lon="-4.962721">
        <ele>2089.213</ele>
        <time>2021-08-01T18:25:29Z</time>
      </trkpt>
      <trkpt lat="43.188989" lon="-4.962694">
        <ele>2089.308</ele>
        <time>2021-08-01T18:25:35Z</time>
      </trkpt>
      <trkpt lat="43.188958" lon="-4.962639">
        <ele>2089.754</ele>
        <time>2021-08-01T18:25:40Z</time>
      </trkpt>
      <trkpt lat="43.188935" lon="-4.962582">
        <ele>2089.566</ele>
        <time>2021-08-01T18:25:44Z</time>
      </trkpt>
      <trkpt lat="43.188902" lon="-4.962538">
        <ele>2090.135</ele>
        <time>2021-08-01T18:25:48Z</time>
      </trkpt>
      <trkpt lat="43.188857" lon="-4.96251">
        <ele>2090.097</ele>
        <time>2021-08-01T18:25:53Z</time>
      </trkpt>
      <trkpt lat="43.188809" lon="-4.962492">
        <ele>2090.351</ele>
        <time>2021-08-01T18:25:58Z</time>
      </trkpt>
      <trkpt lat="43.188769" lon="-4.962463">
        <ele>2090.928</ele>
        <time>2021-08-01T18:26:03Z</time>
      </trkpt>
      <trkpt lat="43.188721" lon="-4.962455">
        <ele>2091.213</ele>
        <time>2021-08-01T18:26:08Z</time>
      </trkpt>
      <trkpt lat="43.188702" lon="-4.962391">
        <ele>2091.883</ele>
        <time>2021-08-01T18:26:14Z</time>
      </trkpt>
      <trkpt lat="43.18867" lon="-4.962344">
        <ele>2091.574</ele>
        <time>2021-08-01T18:26:24Z</time>
      </trkpt>
      <trkpt lat="43.188636" lon="-4.962295">
        <ele>2090.756</ele>
        <time>2021-08-01T18:26:33Z</time>
      </trkpt>
      <trkpt lat="43.1886" lon="-4.962256">
        <ele>2090.121</ele>
        <time>2021-08-01T18:26:39Z</time>
      </trkpt>
      <trkpt lat="43.188552" lon="-4.962263">
        <ele>2090.108</ele>
        <time>2021-08-01T18:26:46Z</time>
      </trkpt>
      <trkpt lat="43.188514" lon="-4.962217">
        <ele>2089.584</ele>
        <time>2021-08-01T18:26:53Z</time>
      </trkpt>
      <trkpt lat="43.188476" lon="-4.962183">
        <ele>2088.136</ele>
        <time>2021-08-01T18:26:57Z</time>
      </trkpt>
      <trkpt lat="43.188426" lon="-4.962166">
        <ele>2087.935</ele>
        <time>2021-08-01T18:27:02Z</time>
      </trkpt>
      <trkpt lat="43.188378" lon="-4.962161">
        <ele>2087.877</ele>
        <time>2021-08-01T18:27:07Z</time>
      </trkpt>
      <trkpt lat="43.188335" lon="-4.962129">
        <ele>2087.311</ele>
        <time>2021-08-01T18:27:11Z</time>
      </trkpt>
      <trkpt lat="43.188296" lon="-4.962081">
        <ele>2087.118</ele>
        <time>2021-08-01T18:27:15Z</time>
      </trkpt>
      <trkpt lat="43.188254" lon="-4.962048">
        <ele>2087.963</ele>
        <time>2021-08-01T18:27:19Z</time>
      </trkpt>
      <trkpt lat="43.188205" lon="-4.962037">
        <ele>2088.433</ele>
        <time>2021-08-01T18:27:23Z</time>
      </trkpt>
      <trkpt lat="43.188158" lon="-4.962024">
        <ele>2089.027</ele>
        <time>2021-08-01T18:27:28Z</time>
      </trkpt>
      <trkpt lat="43.188124" lon="-4.961981">
        <ele>2089.368</ele>
        <time>2021-08-01T18:27:32Z</time>
      </trkpt>
      <trkpt lat="43.188091" lon="-4.961928">
        <ele>2088.714</ele>
        <time>2021-08-01T18:27:37Z</time>
      </trkpt>
      <trkpt lat="43.188059" lon="-4.961883">
        <ele>2088.808</ele>
        <time>2021-08-01T18:27:41Z</time>
      </trkpt>
      <trkpt lat="43.188028" lon="-4.96183">
        <ele>2089.379</ele>
        <time>2021-08-01T18:27:45Z</time>
      </trkpt>
      <trkpt lat="43.187979" lon="-4.961817">
        <ele>2089.661</ele>
        <time>2021-08-01T18:27:50Z</time>
      </trkpt>
      <trkpt lat="43.187936" lon="-4.961799">
        <ele>2089.770</ele>
        <time>2021-08-01T18:27:55Z</time>
      </trkpt>
      <trkpt lat="43.187898" lon="-4.961765">
        <ele>2090.022</ele>
        <time>2021-08-01T18:28:00Z</time>
      </trkpt>
      <trkpt lat="43.187877" lon="-4.96171">
        <ele>2089.436</ele>
        <time>2021-08-01T18:28:07Z</time>
      </trkpt>
      <trkpt lat="43.187833" lon="-4.961683">
        <ele>2089.413</ele>
        <time>2021-08-01T18:28:16Z</time>
      </trkpt>
      <trkpt lat="43.187788" lon="-4.961677">
        <ele>2089.378</ele>
        <time>2021-08-01T18:28:22Z</time>
      </trkpt>
      <trkpt lat="43.187744" lon="-4.961654">
        <ele>2089.348</ele>
        <time>2021-08-01T18:28:28Z</time>
      </trkpt>
      <trkpt lat="43.187698" lon="-4.961659">
        <ele>2089.671</ele>
        <time>2021-08-01T18:28:33Z</time>
      </trkpt>
      <trkpt lat="43.187653" lon="-4.961642">
        <ele>2089.541</ele>
        <time>2021-08-01T18:28:37Z</time>
      </trkpt>
      <trkpt lat="43.187607" lon="-4.961627">
        <ele>2089.515</ele>
        <time>2021-08-01T18:28:41Z</time>
      </trkpt>
      <trkpt lat="43.187563" lon="-4.961604">
        <ele>2089.708</ele>
        <time>2021-08-01T18:28:46Z</time>
      </trkpt>
      <trkpt lat="43.187511" lon="-4.961601">
        <ele>2089.614</ele>
        <time>2021-08-01T18:28:52Z</time>
      </trkpt>
      <trkpt lat="43.187465" lon="-4.961591">
        <ele>2089.486</ele>
        <time>2021-08-01T18:28:57Z</time>
      </trkpt>
      <trkpt lat="43.18742" lon="-4.961623">
        <ele>2089.155</ele>
        <time>2021-08-01T18:29:03Z</time>
      </trkpt>
      <trkpt lat="43.187374" lon="-4.961637">
        <ele>2088.827</ele>
        <time>2021-08-01T18:29:09Z</time>
      </trkpt>
      <trkpt lat="43.187334" lon="-4.961609">
        <ele>2088.721</ele>
        <time>2021-08-01T18:29:13Z</time>
      </trkpt>
      <trkpt lat="43.187287" lon="-4.961616">
        <ele>2088.338</ele>
        <time>2021-08-01T18:29:19Z</time>
      </trkpt>
      <trkpt lat="43.187273" lon="-4.96168">
        <ele>2088.483</ele>
        <time>2021-08-01T18:29:23Z</time>
      </trkpt>
      <trkpt lat="43.187234" lon="-4.961712">
        <ele>2088.213</ele>
        <time>2021-08-01T18:29:28Z</time>
      </trkpt>
      <trkpt lat="43.187193" lon="-4.961683">
        <ele>2087.885</ele>
        <time>2021-08-01T18:29:33Z</time>
      </trkpt>
      <trkpt lat="43.187144" lon="-4.961704">
        <ele>2088.089</ele>
        <time>2021-08-01T18:29:39Z</time>
      </trkpt>
      <trkpt lat="43.187099" lon="-4.961699">
        <ele>2088.117</ele>
        <time>2021-08-01T18:29:44Z</time>
      </trkpt>
      <trkpt lat="43.187054" lon="-4.961689">
        <ele>2088.208</ele>
        <time>2021-08-01T18:29:51Z</time>
      </trkpt>
      <trkpt lat="43.187016" lon="-4.961655">
        <ele>2087.775</ele>
        <time>2021-08-01T18:29:58Z</time>
      </trkpt>
      <trkpt lat="43.187007" lon="-4.96159">
        <ele>2087.567</ele>
        <time>2021-08-01T18:30:04Z</time>
      </trkpt>
      <trkpt lat="43.186974" lon="-4.961544">
        <ele>2087.656</ele>
        <time>2021-08-01T18:30:10Z</time>
      </trkpt>
      <trkpt lat="43.186942" lon="-4.961497">
        <ele>2087.298</ele>
        <time>2021-08-01T18:30:17Z</time>
      </trkpt>
      <trkpt lat="43.186896" lon="-4.961468">
        <ele>2087.272</ele>
        <time>2021-08-01T18:30:23Z</time>
      </trkpt>
      <trkpt lat="43.186849" lon="-4.961505">
        <ele>2088.039</ele>
        <time>2021-08-01T18:31:00Z</time>
      </trkpt>
      <trkpt lat="43.186803" lon="-4.961483">
        <ele>2088.094</ele>
        <time>2021-08-01T18:31:05Z</time>
      </trkpt>
      <trkpt lat="43.186794" lon="-4.961547">
        <ele>2088.624</ele>
        <time>2021-08-01T18:31:45Z</time>
      </trkpt>
      <trkpt lat="43.186807" lon="-4.961613">
        <ele>2088.262</ele>
        <time>2021-08-01T18:31:51Z</time>
      </trkpt>
      <trkpt lat="43.186763" lon="-4.961626">
        <ele>2088.783</ele>
        <time>2021-08-01T18:31:56Z</time>
      </trkpt>
      <trkpt lat="43.18672" lon="-4.961593">
        <ele>2089.011</ele>
        <time>2021-08-01T18:32:00Z</time>
      </trkpt>
      <trkpt lat="43.186678" lon="-4.961622">
        <ele>2089.308</ele>
        <time>2021-08-01T18:32:05Z</time>
      </trkpt>
      <trkpt lat="43.186655" lon="-4.961679">
        <ele>2089.223</ele>
        <time>2021-08-01T18:32:12Z</time>
      </trkpt>
      <trkpt lat="43.186608" lon="-4.961679">
        <ele>2089.095</ele>
        <time>2021-08-01T18:32:26Z</time>
      </trkpt>
      <trkpt lat="43.186562" lon="-4.961691">
        <ele>2089.314</ele>
        <time>2021-08-01T18:32:41Z</time>
      </trkpt>
      <trkpt lat="43.18652" lon="-4.961715">
        <ele>2089.196</ele>
        <time>2021-08-01T18:32:50Z</time>
      </trkpt>
      <trkpt lat="43.186479" lon="-4.961744">
        <ele>2089.510</ele>
        <time>2021-08-01T18:32:56Z</time>
      </trkpt>
      <trkpt lat="43.186442" lon="-4.961784">
        <ele>2089.567</ele>
        <time>2021-08-01T18:33:01Z</time>
      </trkpt>
      <trkpt lat="43.186404" lon="-4.961819">
        <ele>2089.882</ele>
        <time>2021-08-01T18:33:08Z</time>
      </trkpt>
      <trkpt lat="43.186403" lon="-4.961883">
        <ele>2089.892</ele>
        <time>2021-08-01T18:33:14Z</time>
      </trkpt>
      <trkpt lat="43.186375" lon="-4.961932">
        <ele>2090.115</ele>
        <time>2021-08-01T18:33:22Z</time>
      </trkpt>
      <trkpt lat="43.186332" lon="-4.961953">
        <ele>2090.765</ele>
        <time>2021-08-01T18:33:28Z</time>
      </trkpt>
      <trkpt lat="43.186302" lon="-4.962008">
        <ele>2091.311</ele>
        <time>2021-08-01T18:33:33Z</time>
      </trkpt>
      <trkpt lat="43.186259" lon="-4.962047">
        <ele>2091.908</ele>
        <time>2021-08-01T18:33:39Z</time>
      </trkpt>
      <trkpt lat="43.186231" lon="-4.962104">
        <ele>2091.998</ele>
        <time>2021-08-01T18:33:46Z</time>
      </trkpt>
      <trkpt lat="43.186195" lon="-4.962141">
        <ele>2092.460</ele>
        <time>2021-08-01T18:33:50Z</time>
      </trkpt>
      <trkpt lat="43.186163" lon="-4.962189">
        <ele>2092.819</ele>
        <time>2021-08-01T18:33:59Z</time>
      </trkpt>
      <trkpt lat="43.186154" lon="-4.962255">
        <ele>2093.451</ele>
        <time>2021-08-01T18:34:05Z</time>
      </trkpt>
      <trkpt lat="43.186113" lon="-4.962287">
        <ele>2094.415</ele>
        <time>2021-08-01T18:34:27Z</time>
      </trkpt>
      <trkpt lat="43.186091" lon="-4.962342">
        <ele>2095.092</ele>
        <time>2021-08-01T18:34:33Z</time>
      </trkpt>
      <trkpt lat="43.186047" lon="-4.962372">
        <ele>2095.317</ele>
        <time>2021-08-01T18:34:38Z</time>
      </trkpt>
      <trkpt lat="43.186007" lon="-4.9624">
        <ele>2095.457</ele>
        <time>2021-08-01T18:34:43Z</time>
      </trkpt>
      <trkpt lat="43.185963" lon="-4.962426">
        <ele>2095.478</ele>
        <time>2021-08-01T18:34:47Z</time>
      </trkpt>
      <trkpt lat="43.185922" lon="-4.962456">
        <ele>2096.033</ele>
        <time>2021-08-01T18:34:52Z</time>
      </trkpt>
      <trkpt lat="43.185874" lon="-4.962457">
        <ele>2095.926</ele>
        <time>2021-08-01T18:34:57Z</time>
      </trkpt>
      <trkpt lat="43.185838" lon="-4.962418">
        <ele>2096.708</ele>
        <time>2021-08-01T18:35:03Z</time>
      </trkpt>
      <trkpt lat="43.185799" lon="-4.962379">
        <ele>2096.394</ele>
        <time>2021-08-01T18:35:08Z</time>
      </trkpt>
      <trkpt lat="43.185763" lon="-4.962416">
        <ele>2096.516</ele>
        <time>2021-08-01T18:35:13Z</time>
      </trkpt>
      <trkpt lat="43.185751" lon="-4.962476">
        <ele>2096.785</ele>
        <time>2021-08-01T18:35:18Z</time>
      </trkpt>
      <trkpt lat="43.185734" lon="-4.962536">
        <ele>2097.047</ele>
        <time>2021-08-01T18:35:29Z</time>
      </trkpt>
      <trkpt lat="43.185766" lon="-4.962581">
        <ele>2097.051</ele>
        <time>2021-08-01T18:35:38Z</time>
      </trkpt>
      <trkpt lat="43.185741" lon="-4.962647">
        <ele>2096.568</ele>
        <time>2021-08-01T18:35:43Z</time>
      </trkpt>
      <trkpt lat="43.185714" lon="-4.962698">
        <ele>2096.463</ele>
        <time>2021-08-01T18:35:47Z</time>
      </trkpt>
      <trkpt lat="43.185706" lon="-4.962766">
        <ele>2096.653</ele>
        <time>2021-08-01T18:35:52Z</time>
      </trkpt>
      <trkpt lat="43.185681" lon="-4.962818">
        <ele>2096.772</ele>
        <time>2021-08-01T18:35:57Z</time>
      </trkpt>
      <trkpt lat="43.185629" lon="-4.962821">
        <ele>2096.913</ele>
        <time>2021-08-01T18:36:02Z</time>
      </trkpt>
      <trkpt lat="43.185609" lon="-4.962879">
        <ele>2097.014</ele>
        <time>2021-08-01T18:36:07Z</time>
      </trkpt>
      <trkpt lat="43.1856" lon="-4.962943">
        <ele>2097.508</ele>
        <time>2021-08-01T18:36:13Z</time>
      </trkpt>
      <trkpt lat="43.18559" lon="-4.963008">
        <ele>2096.954</ele>
        <time>2021-08-01T18:36:25Z</time>
      </trkpt>
      <trkpt lat="43.185546" lon="-4.963028">
        <ele>2096.956</ele>
        <time>2021-08-01T18:36:32Z</time>
      </trkpt>
      <trkpt lat="43.185504" lon="-4.962994">
        <ele>2096.795</ele>
        <time>2021-08-01T18:36:36Z</time>
      </trkpt>
      <trkpt lat="43.185459" lon="-4.962965">
        <ele>2096.137</ele>
        <time>2021-08-01T18:36:40Z</time>
      </trkpt>
      <trkpt lat="43.185413" lon="-4.962959">
        <ele>2096.341</ele>
        <time>2021-08-01T18:36:45Z</time>
      </trkpt>
      <trkpt lat="43.185372" lon="-4.963">
        <ele>2096.798</ele>
        <time>2021-08-01T18:36:49Z</time>
      </trkpt>
      <trkpt lat="43.185328" lon="-4.963016">
        <ele>2096.133</ele>
        <time>2021-08-01T18:36:56Z</time>
      </trkpt>
      <trkpt lat="43.185285" lon="-4.963037">
        <ele>2095.953</ele>
        <time>2021-08-01T18:37:04Z</time>
      </trkpt>
      <trkpt lat="43.185257" lon="-4.963107">
        <ele>2095.913</ele>
        <time>2021-08-01T18:38:53Z</time>
      </trkpt>
      <trkpt lat="43.185218" lon="-4.963156">
        <ele>2096.443</ele>
        <time>2021-08-01T18:39:03Z</time>
      </trkpt>
      <trkpt lat="43.185185" lon="-4.9632">
        <ele>2097.907</ele>
        <time>2021-08-01T18:39:07Z</time>
      </trkpt>
      <trkpt lat="43.185152" lon="-4.963242">
        <ele>2098.808</ele>
        <time>2021-08-01T18:39:12Z</time>
      </trkpt>
      <trkpt lat="43.185123" lon="-4.963292">
        <ele>2101.098</ele>
        <time>2021-08-01T18:39:22Z</time>
      </trkpt>
      <trkpt lat="43.185072" lon="-4.963303">
        <ele>2103.270</ele>
        <time>2021-08-01T18:39:25Z</time>
      </trkpt>
      <trkpt lat="43.185027" lon="-4.963285">
        <ele>2104.419</ele>
        <time>2021-08-01T18:39:29Z</time>
      </trkpt>
      <trkpt lat="43.184978" lon="-4.963276">
        <ele>2104.681</ele>
        <time>2021-08-01T18:39:35Z</time>
      </trkpt>
      <trkpt lat="43.184932" lon="-4.963265">
        <ele>2105.145</ele>
        <time>2021-08-01T18:39:40Z</time>
      </trkpt>
      <trkpt lat="43.184886" lon="-4.96327">
        <ele>2105.522</ele>
        <time>2021-08-01T18:39:45Z</time>
      </trkpt>
      <trkpt lat="43.184842" lon="-4.963255">
        <ele>2105.837</ele>
        <time>2021-08-01T18:39:50Z</time>
      </trkpt>
      <trkpt lat="43.184804" lon="-4.963212">
        <ele>2106.597</ele>
        <time>2021-08-01T18:39:57Z</time>
      </trkpt>
      <trkpt lat="43.184786" lon="-4.963154">
        <ele>2106.321</ele>
        <time>2021-08-01T18:40:02Z</time>
      </trkpt>
      <trkpt lat="43.184753" lon="-4.963107">
        <ele>2106.741</ele>
        <time>2021-08-01T18:40:09Z</time>
      </trkpt>
      <trkpt lat="43.184719" lon="-4.963059">
        <ele>2106.405</ele>
        <time>2021-08-01T18:40:14Z</time>
      </trkpt>
      <trkpt lat="43.1847" lon="-4.963">
        <ele>2105.708</ele>
        <time>2021-08-01T18:40:20Z</time>
      </trkpt>
      <trkpt lat="43.184659" lon="-4.962973">
        <ele>2104.869</ele>
        <time>2021-08-01T18:40:25Z</time>
      </trkpt>
      <trkpt lat="43.184614" lon="-4.962992">
        <ele>2103.951</ele>
        <time>2021-08-01T18:40:31Z</time>
      </trkpt>
      <trkpt lat="43.18457" lon="-4.963012">
        <ele>2102.980</ele>
        <time>2021-08-01T18:40:40Z</time>
      </trkpt>
      <trkpt lat="43.184528" lon="-4.96299">
        <ele>2102.842</ele>
        <time>2021-08-01T18:40:45Z</time>
      </trkpt>
      <trkpt lat="43.184503" lon="-4.963044">
        <ele>2101.526</ele>
        <time>2021-08-01T18:40:54Z</time>
      </trkpt>
      <trkpt lat="43.184504" lon="-4.963113">
        <ele>2101.423</ele>
        <time>2021-08-01T18:40:58Z</time>
      </trkpt>
      <trkpt lat="43.184495" lon="-4.963179">
        <ele>2101.528</ele>
        <time>2021-08-01T18:41:03Z</time>
      </trkpt>
      <trkpt lat="43.184448" lon="-4.96316">
        <ele>2101.858</ele>
        <time>2021-08-01T18:41:11Z</time>
      </trkpt>
      <trkpt lat="43.184436" lon="-4.9631">
        <ele>2102.255</ele>
        <time>2021-08-01T18:41:18Z</time>
      </trkpt>
      <trkpt lat="43.184392" lon="-4.963061">
        <ele>2101.807</ele>
        <time>2021-08-01T18:41:38Z</time>
      </trkpt>
      <trkpt lat="43.184347" lon="-4.963051">
        <ele>2101.717</ele>
        <time>2021-08-01T18:41:43Z</time>
      </trkpt>
      <trkpt lat="43.184312" lon="-4.963">
        <ele>2101.108</ele>
        <time>2021-08-01T18:41:50Z</time>
      </trkpt>
      <trkpt lat="43.18427" lon="-4.963045">
        <ele>2100.442</ele>
        <time>2021-08-01T18:42:01Z</time>
      </trkpt>
      <trkpt lat="43.184233" lon="-4.963082">
        <ele>2099.864</ele>
        <time>2021-08-01T18:42:04Z</time>
      </trkpt>
      <trkpt lat="43.184186" lon="-4.963077">
        <ele>2098.733</ele>
        <time>2021-08-01T18:42:10Z</time>
      </trkpt>
      <trkpt lat="43.18414" lon="-4.963096">
        <ele>2097.455</ele>
        <time>2021-08-01T18:42:18Z</time>
      </trkpt>
      <trkpt lat="43.184101" lon="-4.963132">
        <ele>2097.159</ele>
        <time>2021-08-01T18:42:22Z</time>
      </trkpt>
      <trkpt lat="43.184061" lon="-4.963166">
        <ele>2096.596</ele>
        <time>2021-08-01T18:42:25Z</time>
      </trkpt>
      <trkpt lat="43.184017" lon="-4.963189">
        <ele>2096.611</ele>
        <time>2021-08-01T18:42:29Z</time>
      </trkpt>
      <trkpt lat="43.183989" lon="-4.963241">
        <ele>2096.611</ele>
        <time>2021-08-01T18:42:34Z</time>
      </trkpt>
      <trkpt lat="43.183958" lon="-4.963286">
        <ele>2098.089</ele>
        <time>2021-08-01T18:42:41Z</time>
      </trkpt>
      <trkpt lat="43.183908" lon="-4.963304">
        <ele>2099.406</ele>
        <time>2021-08-01T18:42:47Z</time>
      </trkpt>
      <trkpt lat="43.183861" lon="-4.963308">
        <ele>2100.626</ele>
        <time>2021-08-01T18:42:52Z</time>
      </trkpt>
      <trkpt lat="43.183814" lon="-4.963305">
        <ele>2100.708</ele>
        <time>2021-08-01T18:42:57Z</time>
      </trkpt>
      <trkpt lat="43.183767" lon="-4.963294">
        <ele>2101.865</ele>
        <time>2021-08-01T18:43:03Z</time>
      </trkpt>
      <trkpt lat="43.183721" lon="-4.96333">
        <ele>2102.257</ele>
        <time>2021-08-01T18:43:07Z</time>
      </trkpt>
      <trkpt lat="43.183676" lon="-4.963339">
        <ele>2102.376</ele>
        <time>2021-08-01T18:43:33Z</time>
      </trkpt>
      <trkpt lat="43.183625" lon="-4.963334">
        <ele>2102.758</ele>
        <time>2021-08-01T18:43:39Z</time>
      </trkpt>
      <trkpt lat="43.183584" lon="-4.963366">
        <ele>2103.352</ele>
        <time>2021-08-01T18:43:44Z</time>
      </trkpt>
      <trkpt lat="43.1836" lon="-4.963427">
        <ele>2103.999</ele>
        <time>2021-08-01T18:43:51Z</time>
      </trkpt>
      <trkpt lat="43.183634" lon="-4.963477">
        <ele>2104.644</ele>
        <time>2021-08-01T18:43:55Z</time>
      </trkpt>
      <trkpt lat="43.183634" lon="-4.963541">
        <ele>2105.654</ele>
        <time>2021-08-01T18:44:03Z</time>
      </trkpt>
      <trkpt lat="43.183587" lon="-4.963546">
        <ele>2107.728</ele>
        <time>2021-08-01T18:44:19Z</time>
      </trkpt>
      <trkpt lat="43.183549" lon="-4.963504">
        <ele>2109.089</ele>
        <time>2021-08-01T18:44:25Z</time>
      </trkpt>
      <trkpt lat="43.183505" lon="-4.963487">
        <ele>2109.517</ele>
        <time>2021-08-01T18:44:29Z</time>
      </trkpt>
      <trkpt lat="43.183459" lon="-4.963495">
        <ele>2110.208</ele>
        <time>2021-08-01T18:44:34Z</time>
      </trkpt>
      <trkpt lat="43.183414" lon="-4.963508">
        <ele>2110.759</ele>
        <time>2021-08-01T18:44:54Z</time>
      </trkpt>
      <trkpt lat="43.183362" lon="-4.963504">
        <ele>2111.881</ele>
        <time>2021-08-01T18:45:20Z</time>
      </trkpt>
      <trkpt lat="43.183317" lon="-4.963502">
        <ele>2113.220</ele>
        <time>2021-08-01T18:45:24Z</time>
      </trkpt>
      <trkpt lat="43.183272" lon="-4.96349">
        <ele>2113.982</ele>
        <time>2021-08-01T18:45:28Z</time>
      </trkpt>
      <trkpt lat="43.183233" lon="-4.963455">
        <ele>2114.966</ele>
        <time>2021-08-01T18:45:35Z</time>
      </trkpt>
      <trkpt lat="43.183187" lon="-4.963453">
        <ele>2115.623</ele>
        <time>2021-08-01T18:45:42Z</time>
      </trkpt>
      <trkpt lat="43.183141" lon="-4.963477">
        <ele>2116.298</ele>
        <time>2021-08-01T18:45:47Z</time>
      </trkpt>
      <trkpt lat="43.183093" lon="-4.963475">
        <ele>2116.578</ele>
        <time>2021-08-01T18:45:55Z</time>
      </trkpt>
      <trkpt lat="43.183052" lon="-4.963443">
        <ele>2116.542</ele>
        <time>2021-08-01T18:46:00Z</time>
      </trkpt>
      <trkpt lat="43.183006" lon="-4.963422">
        <ele>2117.322</ele>
        <time>2021-08-01T18:46:05Z</time>
      </trkpt>
      <trkpt lat="43.182968" lon="-4.96346">
        <ele>2117.814</ele>
        <time>2021-08-01T18:46:12Z</time>
      </trkpt>
      <trkpt lat="43.182923" lon="-4.963469">
        <ele>2118.008</ele>
        <time>2021-08-01T18:46:21Z</time>
      </trkpt>
      <trkpt lat="43.182878" lon="-4.963477">
        <ele>2118.231</ele>
        <time>2021-08-01T18:46:34Z</time>
      </trkpt>
      <trkpt lat="43.182837" lon="-4.963508">
        <ele>2118.443</ele>
        <time>2021-08-01T18:46:43Z</time>
      </trkpt>
      <trkpt lat="43.182791" lon="-4.963492">
        <ele>2119.162</ele>
        <time>2021-08-01T18:46:48Z</time>
      </trkpt>
      <trkpt lat="43.182747" lon="-4.963476">
        <ele>2118.634</ele>
        <time>2021-08-01T18:47:15Z</time>
      </trkpt>
      <trkpt lat="43.1827" lon="-4.96346">
        <ele>2119.088</ele>
        <time>2021-08-01T18:47:22Z</time>
      </trkpt>
      <trkpt lat="43.182656" lon="-4.963441">
        <ele>2119.185</ele>
        <time>2021-08-01T18:47:29Z</time>
      </trkpt>
      <trkpt lat="43.182625" lon="-4.963396">
        <ele>2119.940</ele>
        <time>2021-08-01T18:48:29Z</time>
      </trkpt>
      <trkpt lat="43.182586" lon="-4.963358">
        <ele>2120.350</ele>
        <time>2021-08-01T18:48:37Z</time>
      </trkpt>
      <trkpt lat="43.182531" lon="-4.963331">
        <ele>2121.187</ele>
        <time>2021-08-01T18:48:43Z</time>
      </trkpt>
      <trkpt lat="43.182487" lon="-4.963309">
        <ele>2121.142</ele>
        <time>2021-08-01T18:48:46Z</time>
      </trkpt>
      <trkpt lat="43.182447" lon="-4.963344">
        <ele>2121.926</ele>
        <time>2021-08-01T18:48:50Z</time>
      </trkpt>
      <trkpt lat="43.182406" lon="-4.963379">
        <ele>2121.908</ele>
        <time>2021-08-01T18:48:55Z</time>
      </trkpt>
      <trkpt lat="43.182356" lon="-4.96339">
        <ele>2122.185</ele>
        <time>2021-08-01T18:49:04Z</time>
      </trkpt>
      <trkpt lat="43.182302" lon="-4.963382">
        <ele>2122.577</ele>
        <time>2021-08-01T18:49:11Z</time>
      </trkpt>
      <trkpt lat="43.182258" lon="-4.963357">
        <ele>2122.236</ele>
        <time>2021-08-01T18:49:16Z</time>
      </trkpt>
      <trkpt lat="43.182209" lon="-4.963352">
        <ele>2123.148</ele>
        <time>2021-08-01T18:49:22Z</time>
      </trkpt>
      <trkpt lat="43.182158" lon="-4.963345">
        <ele>2123.472</ele>
        <time>2021-08-01T18:49:27Z</time>
      </trkpt>
      <trkpt lat="43.18211" lon="-4.963355">
        <ele>2123.039</ele>
        <time>2021-08-01T18:49:33Z</time>
      </trkpt>
      <trkpt lat="43.182067" lon="-4.963387">
        <ele>2123.194</ele>
        <time>2021-08-01T18:49:39Z</time>
      </trkpt>
      <trkpt lat="43.18202" lon="-4.963393">
        <ele>2123.144</ele>
        <time>2021-08-01T18:49:44Z</time>
      </trkpt>
      <trkpt lat="43.181971" lon="-4.963368">
        <ele>2123.044</ele>
        <time>2021-08-01T18:49:50Z</time>
      </trkpt>
      <trkpt lat="43.181926" lon="-4.963348">
        <ele>2123.305</ele>
        <time>2021-08-01T18:49:54Z</time>
      </trkpt>
      <trkpt lat="43.18188" lon="-4.96335">
        <ele>2123.415</ele>
        <time>2021-08-01T18:50:00Z</time>
      </trkpt>
      <trkpt lat="43.181835" lon="-4.963329">
        <ele>2123.408</ele>
        <time>2021-08-01T18:50:14Z</time>
      </trkpt>
      <trkpt lat="43.181789" lon="-4.963347">
        <ele>2123.061</ele>
        <time>2021-08-01T18:50:19Z</time>
      </trkpt>
      <trkpt lat="43.181746" lon="-4.963386">
        <ele>2122.793</ele>
        <time>2021-08-01T18:50:22Z</time>
      </trkpt>
      <trkpt lat="43.181706" lon="-4.963433">
        <ele>2122.892</ele>
        <time>2021-08-01T18:50:26Z</time>
      </trkpt>
      <trkpt lat="43.181665" lon="-4.963478">
        <ele>2123.014</ele>
        <time>2021-08-01T18:50:31Z</time>
      </trkpt>
      <trkpt lat="43.181635" lon="-4.963535">
        <ele>2122.438</ele>
        <time>2021-08-01T18:50:38Z</time>
      </trkpt>
      <trkpt lat="43.181594" lon="-4.963576">
        <ele>2122.125</ele>
        <time>2021-08-01T18:50:45Z</time>
      </trkpt>
      <trkpt lat="43.181545" lon="-4.963565">
        <ele>2122.160</ele>
        <time>2021-08-01T18:50:49Z</time>
      </trkpt>
      <trkpt lat="43.181496" lon="-4.963541">
        <ele>2121.320</ele>
        <time>2021-08-01T18:50:54Z</time>
      </trkpt>
      <trkpt lat="43.181449" lon="-4.963525">
        <ele>2121.625</ele>
        <time>2021-08-01T18:50:58Z</time>
      </trkpt>
      <trkpt lat="43.181407" lon="-4.963489">
        <ele>2121.326</ele>
        <time>2021-08-01T18:51:02Z</time>
      </trkpt>
      <trkpt lat="43.181374" lon="-4.963438">
        <ele>2121.008</ele>
        <time>2021-08-01T18:51:06Z</time>
      </trkpt>
      <trkpt lat="43.18133" lon="-4.963402">
        <ele>2120.908</ele>
        <time>2021-08-01T18:51:11Z</time>
      </trkpt>
      <trkpt lat="43.181292" lon="-4.963369">
        <ele>2120.779</ele>
        <time>2021-08-01T18:51:16Z</time>
      </trkpt>
      <trkpt lat="43.181265" lon="-4.963317">
        <ele>2120.271</ele>
        <time>2021-08-01T18:51:21Z</time>
      </trkpt>
      <trkpt lat="43.181223" lon="-4.963284">
        <ele>2120.330</ele>
        <time>2021-08-01T18:51:26Z</time>
      </trkpt>
      <trkpt lat="43.181191" lon="-4.96324">
        <ele>2120.772</ele>
        <time>2021-08-01T18:51:31Z</time>
      </trkpt>
      <trkpt lat="43.181169" lon="-4.96318">
        <ele>2120.866</ele>
        <time>2021-08-01T18:51:37Z</time>
      </trkpt>
      <trkpt lat="43.181128" lon="-4.963149">
        <ele>2120.813</ele>
        <time>2021-08-01T18:51:42Z</time>
      </trkpt>
      <trkpt lat="43.181083" lon="-4.963156">
        <ele>2120.078</ele>
        <time>2021-08-01T18:51:47Z</time>
      </trkpt>
      <trkpt lat="43.181066" lon="-4.963213">
        <ele>2120.348</ele>
        <time>2021-08-01T18:51:51Z</time>
      </trkpt>
      <trkpt lat="43.181036" lon="-4.963262">
        <ele>2120.223</ele>
        <time>2021-08-01T18:51:58Z</time>
      </trkpt>
      <trkpt lat="43.181001" lon="-4.963301">
        <ele>2119.783</ele>
        <time>2021-08-01T18:52:03Z</time>
      </trkpt>
      <trkpt lat="43.180993" lon="-4.963367">
        <ele>2119.311</ele>
        <time>2021-08-01T18:52:09Z</time>
      </trkpt>
      <trkpt lat="43.181002" lon="-4.963428">
        <ele>2118.508</ele>
        <time>2021-08-01T18:52:15Z</time>
      </trkpt>
      <trkpt lat="43.180954" lon="-4.96344">
        <ele>2118.729</ele>
        <time>2021-08-01T18:52:22Z</time>
      </trkpt>
      <trkpt lat="43.180904" lon="-4.963433">
        <ele>2119.071</ele>
        <time>2021-08-01T18:52:26Z</time>
      </trkpt>
      <trkpt lat="43.180858" lon="-4.963453">
        <ele>2118.860</ele>
        <time>2021-08-01T18:52:30Z</time>
      </trkpt>
      <trkpt lat="43.18081" lon="-4.963463">
        <ele>2118.912</ele>
        <time>2021-08-01T18:52:48Z</time>
      </trkpt>
      <trkpt lat="43.180756" lon="-4.96346">
        <ele>2119.796</ele>
        <time>2021-08-01T18:52:53Z</time>
      </trkpt>
      <trkpt lat="43.180706" lon="-4.963476">
        <ele>2120.043</ele>
        <time>2021-08-01T18:52:57Z</time>
      </trkpt>
      <trkpt lat="43.180676" lon="-4.963526">
        <ele>2120.278</ele>
        <time>2021-08-01T18:53:01Z</time>
      </trkpt>
      <trkpt lat="43.18063" lon="-4.963542">
        <ele>2120.348</ele>
        <time>2021-08-01T18:53:07Z</time>
      </trkpt>
      <trkpt lat="43.180679" lon="-4.963561">
        <ele>2119.877</ele>
        <time>2021-08-01T18:53:19Z</time>
      </trkpt>
      <trkpt lat="43.180637" lon="-4.963593">
        <ele>2119.861</ele>
        <time>2021-08-01T18:53:29Z</time>
      </trkpt>
      <trkpt lat="43.180593" lon="-4.963608">
        <ele>2119.527</ele>
        <time>2021-08-01T18:53:35Z</time>
      </trkpt>
      <trkpt lat="43.180586" lon="-4.963671">
        <ele>2119.508</ele>
        <time>2021-08-01T18:53:41Z</time>
      </trkpt>
      <trkpt lat="43.180597" lon="-4.963739">
        <ele>2119.194</ele>
        <time>2021-08-01T18:53:46Z</time>
      </trkpt>
      <trkpt lat="43.180551" lon="-4.963771">
        <ele>2118.226</ele>
        <time>2021-08-01T18:53:51Z</time>
      </trkpt>
      <trkpt lat="43.180504" lon="-4.963768">
        <ele>2118.625</ele>
        <time>2021-08-01T18:53:55Z</time>
      </trkpt>
      <trkpt lat="43.180461" lon="-4.963796">
        <ele>2117.687</ele>
        <time>2021-08-01T18:54:00Z</time>
      </trkpt>
      <trkpt lat="43.180415" lon="-4.963787">
        <ele>2117.261</ele>
        <time>2021-08-01T18:54:16Z</time>
      </trkpt>
      <trkpt lat="43.18037" lon="-4.963757">
        <ele>2116.078</ele>
        <time>2021-08-01T18:54:20Z</time>
      </trkpt>
      <trkpt lat="43.180321" lon="-4.963752">
        <ele>2115.273</ele>
        <time>2021-08-01T18:54:24Z</time>
      </trkpt>
      <trkpt lat="43.180279" lon="-4.963785">
        <ele>2114.913</ele>
        <time>2021-08-01T18:54:29Z</time>
      </trkpt>
      <trkpt lat="43.180243" lon="-4.963745">
        <ele>2113.966</ele>
        <time>2021-08-01T18:54:38Z</time>
      </trkpt>
      <trkpt lat="43.180196" lon="-4.963751">
        <ele>2113.429</ele>
        <time>2021-08-01T18:54:50Z</time>
      </trkpt>
      <trkpt lat="43.180153" lon="-4.963776">
        <ele>2112.921</ele>
        <time>2021-08-01T18:54:59Z</time>
      </trkpt>
      <trkpt lat="43.180108" lon="-4.963773">
        <ele>2112.608</ele>
        <time>2021-08-01T18:55:32Z</time>
      </trkpt>
      <trkpt lat="43.180099" lon="-4.963834">
        <ele>2112.433</ele>
        <time>2021-08-01T18:55:40Z</time>
      </trkpt>
      <trkpt lat="43.180054" lon="-4.963865">
        <ele>2112.235</ele>
        <time>2021-08-01T18:55:51Z</time>
      </trkpt>
      <trkpt lat="43.180016" lon="-4.963905">
        <ele>2112.114</ele>
        <time>2021-08-01T18:56:02Z</time>
      </trkpt>
      <trkpt lat="43.179967" lon="-4.963922">
        <ele>2112.376</ele>
        <time>2021-08-01T18:56:08Z</time>
      </trkpt>
      <trkpt lat="43.179922" lon="-4.963913">
        <ele>2111.740</ele>
        <time>2021-08-01T18:56:12Z</time>
      </trkpt>
      <trkpt lat="43.179875" lon="-4.963898">
        <ele>2112.027</ele>
        <time>2021-08-01T18:56:18Z</time>
      </trkpt>
      <trkpt lat="43.17983" lon="-4.963903">
        <ele>2112.662</ele>
        <time>2021-08-01T18:56:23Z</time>
      </trkpt>
      <trkpt lat="43.17979" lon="-4.963933">
        <ele>2112.682</ele>
        <time>2021-08-01T18:56:32Z</time>
      </trkpt>
      <trkpt lat="43.179754" lon="-4.963886">
        <ele>2112.442</ele>
        <time>2021-08-01T18:56:38Z</time>
      </trkpt>
      <trkpt lat="43.179707" lon="-4.963875">
        <ele>2112.922</ele>
        <time>2021-08-01T18:56:43Z</time>
      </trkpt>
      <trkpt lat="43.17966" lon="-4.963862">
        <ele>2112.714</ele>
        <time>2021-08-01T18:56:47Z</time>
      </trkpt>
      <trkpt lat="43.179609" lon="-4.963863">
        <ele>2113.108</ele>
        <time>2021-08-01T18:56:51Z</time>
      </trkpt>
      <trkpt lat="43.179559" lon="-4.96387">
        <ele>2112.781</ele>
        <time>2021-08-01T18:56:56Z</time>
      </trkpt>
      <trkpt lat="43.179513" lon="-4.96385">
        <ele>2112.563</ele>
        <time>2021-08-01T18:57:03Z</time>
      </trkpt>
      <trkpt lat="43.179468" lon="-4.963849">
        <ele>2113.292</ele>
        <time>2021-08-01T18:57:07Z</time>
      </trkpt>
      <trkpt lat="43.179421" lon="-4.96386">
        <ele>2113.214</ele>
        <time>2021-08-01T18:57:13Z</time>
      </trkpt>
      <trkpt lat="43.179378" lon="-4.963839">
        <ele>2113.878</ele>
        <time>2021-08-01T18:57:44Z</time>
      </trkpt>
      <trkpt lat="43.17933" lon="-4.963835">
        <ele>2115.645</ele>
        <time>2021-08-01T18:57:54Z</time>
      </trkpt>
      <trkpt lat="43.179285" lon="-4.963817">
        <ele>2116.960</ele>
        <time>2021-08-01T18:58:05Z</time>
      </trkpt>
      <trkpt lat="43.179278" lon="-4.963756">
        <ele>2118.670</ele>
        <time>2021-08-01T18:58:46Z</time>
      </trkpt>
      <trkpt lat="43.179239" lon="-4.963712">
        <ele>2121.186</ele>
        <time>2021-08-01T19:01:03Z</time>
      </trkpt>
      <trkpt lat="43.179233" lon="-4.963775">
        <ele>2121.960</ele>
        <time>2021-08-01T19:02:12Z</time>
      </trkpt>
      <trkpt lat="43.179188" lon="-4.963811">
        <ele>2122.926</ele>
        <time>2021-08-01T19:02:37Z</time>
      </trkpt>
      <trkpt lat="43.179141" lon="-4.9638">
        <ele>2123.808</ele>
        <time>2021-08-01T19:02:41Z</time>
      </trkpt>
      <trkpt lat="43.179111" lon="-4.963752">
        <ele>2124.155</ele>
        <time>2021-08-01T19:02:48Z</time>
      </trkpt>
      <trkpt lat="43.17909" lon="-4.963691">
        <ele>2124.687</ele>
        <time>2021-08-01T19:03:03Z</time>
      </trkpt>
      <trkpt lat="43.179051" lon="-4.963658">
        <ele>2125.356</ele>
        <time>2021-08-01T19:03:08Z</time>
      </trkpt>
      <trkpt lat="43.179004" lon="-4.963635">
        <ele>2125.788</ele>
        <time>2021-08-01T19:03:23Z</time>
      </trkpt>
      <trkpt lat="43.178956" lon="-4.96361">
        <ele>2126.482</ele>
        <time>2021-08-01T19:03:27Z</time>
      </trkpt>
      <trkpt lat="43.178911" lon="-4.963588">
        <ele>2126.439</ele>
        <time>2021-08-01T19:03:30Z</time>
      </trkpt>
      <trkpt lat="43.17886" lon="-4.963569">
        <ele>2127.074</ele>
        <time>2021-08-01T19:03:34Z</time>
      </trkpt>
      <trkpt lat="43.178812" lon="-4.963547">
        <ele>2127.384</ele>
        <time>2021-08-01T19:03:38Z</time>
      </trkpt>
      <trkpt lat="43.178764" lon="-4.963538">
        <ele>2127.688</ele>
        <time>2021-08-01T19:03:43Z</time>
      </trkpt>
      <trkpt lat="43.178719" lon="-4.963526">
        <ele>2127.924</ele>
        <time>2021-08-01T19:03:46Z</time>
      </trkpt>
      <trkpt lat="43.178679" lon="-4.963497">
        <ele>2127.626</ele>
        <time>2021-08-01T19:03:50Z</time>
      </trkpt>
      <trkpt lat="43.178634" lon="-4.963482">
        <ele>2127.908</ele>
        <time>2021-08-01T19:03:56Z</time>
      </trkpt>
      <trkpt lat="43.178598" lon="-4.96344">
        <ele>2128.195</ele>
        <time>2021-08-01T19:04:03Z</time>
      </trkpt>
      <trkpt lat="43.178566" lon="-4.963389">
        <ele>2128.017</ele>
        <time>2021-08-01T19:04:10Z</time>
      </trkpt>
      <trkpt lat="43.17853" lon="-4.963346">
        <ele>2128.636</ele>
        <time>2021-08-01T19:04:16Z</time>
      </trkpt>
      <trkpt lat="43.178484" lon="-4.963324">
        <ele>2128.228</ele>
        <time>2021-08-01T19:04:21Z</time>
      </trkpt>
      <trkpt lat="43.178437" lon="-4.963307">
        <ele>2127.912</ele>
        <time>2021-08-01T19:04:26Z</time>
      </trkpt>
      <trkpt lat="43.178388" lon="-4.9633">
        <ele>2128.519</ele>
        <time>2021-08-01T19:04:31Z</time>
      </trkpt>
      <trkpt lat="43.178341" lon="-4.963281">
        <ele>2129.114</ele>
        <time>2021-08-01T19:04:39Z</time>
      </trkpt>
      <trkpt lat="43.178295" lon="-4.963269">
        <ele>2129.214</ele>
        <time>2021-08-01T19:04:45Z</time>
      </trkpt>
      <trkpt lat="43.178253" lon="-4.963242">
        <ele>2129.813</ele>
        <time>2021-08-01T19:04:52Z</time>
      </trkpt>
      <trkpt lat="43.178205" lon="-4.96324">
        <ele>2130.443</ele>
        <time>2021-08-01T19:04:58Z</time>
      </trkpt>
      <trkpt lat="43.17816" lon="-4.963243">
        <ele>2131.307</ele>
        <time>2021-08-01T19:05:03Z</time>
      </trkpt>
      <trkpt lat="43.178116" lon="-4.963229">
        <ele>2131.708</ele>
        <time>2021-08-01T19:05:08Z</time>
      </trkpt>
      <trkpt lat="43.178068" lon="-4.963206">
        <ele>2133.128</ele>
        <time>2021-08-01T19:05:13Z</time>
      </trkpt>
      <trkpt lat="43.178041" lon="-4.963145">
        <ele>2133.380</ele>
        <time>2021-08-01T19:05:18Z</time>
      </trkpt>
      <trkpt lat="43.177996" lon="-4.963119">
        <ele>2134.059</ele>
        <time>2021-08-01T19:05:25Z</time>
      </trkpt>
      <trkpt lat="43.177948" lon="-4.963103">
        <ele>2134.511</ele>
        <time>2021-08-01T19:05:51Z</time>
      </trkpt>
      <trkpt lat="43.177905" lon="-4.963083">
        <ele>2135.325</ele>
        <time>2021-08-01T19:05:56Z</time>
      </trkpt>
      <trkpt lat="43.177865" lon="-4.963049">
        <ele>2136.162</ele>
        <time>2021-08-01T19:06:02Z</time>
      </trkpt>
      <trkpt lat="43.17783" lon="-4.963">
        <ele>2136.667</ele>
        <time>2021-08-01T19:06:09Z</time>
      </trkpt>
      <trkpt lat="43.177789" lon="-4.962975">
        <ele>2137.227</ele>
        <time>2021-08-01T19:06:15Z</time>
      </trkpt>
      <trkpt lat="43.177743" lon="-4.962979">
        <ele>2138.927</ele>
        <time>2021-08-01T19:06:23Z</time>
      </trkpt>
      <trkpt lat="43.177694" lon="-4.962979">
        <ele>2139.068</ele>
        <time>2021-08-01T19:06:30Z</time>
      </trkpt>
      <trkpt lat="43.177645" lon="-4.96298">
        <ele>2139.814</ele>
        <time>2021-08-01T19:06:35Z</time>
      </trkpt>
      <trkpt lat="43.177592" lon="-4.962978">
        <ele>2140.208</ele>
        <time>2021-08-01T19:06:41Z</time>
      </trkpt>
      <trkpt lat="43.177546" lon="-4.962995">
        <ele>2140.539</ele>
        <time>2021-08-01T19:06:46Z</time>
      </trkpt>
      <trkpt lat="43.177494" lon="-4.963016">
        <ele>2140.741</ele>
        <time>2021-08-01T19:06:51Z</time>
      </trkpt>
      <trkpt lat="43.177459" lon="-4.963058">
        <ele>2141.460</ele>
        <time>2021-08-01T19:06:56Z</time>
      </trkpt>
      <trkpt lat="43.177414" lon="-4.963078">
        <ele>2141.632</ele>
        <time>2021-08-01T19:07:01Z</time>
      </trkpt>
      <trkpt lat="43.177369" lon="-4.963086">
        <ele>2142.366</ele>
        <time>2021-08-01T19:07:05Z</time>
      </trkpt>
      <trkpt lat="43.177322" lon="-4.963105">
        <ele>2142.953</ele>
        <time>2021-08-01T19:07:10Z</time>
      </trkpt>
      <trkpt lat="43.177275" lon="-4.96313">
        <ele>2142.848</ele>
        <time>2021-08-01T19:07:16Z</time>
      </trkpt>
      <trkpt lat="43.177233" lon="-4.963155">
        <ele>2143.328</ele>
        <time>2021-08-01T19:07:36Z</time>
      </trkpt>
      <trkpt lat="43.177184" lon="-4.963146">
        <ele>2144.081</ele>
        <time>2021-08-01T19:07:40Z</time>
      </trkpt>
      <trkpt lat="43.177145" lon="-4.963178">
        <ele>2144.861</ele>
        <time>2021-08-01T19:07:51Z</time>
      </trkpt>
      <trkpt lat="43.17714" lon="-4.963241">
        <ele>2145.117</ele>
        <time>2021-08-01T19:07:58Z</time>
      </trkpt>
      <trkpt lat="43.177181" lon="-4.963269">
        <ele>2144.908</ele>
        <time>2021-08-01T19:08:08Z</time>
      </trkpt>
      <trkpt lat="43.177146" lon="-4.963318">
        <ele>2145.625</ele>
        <time>2021-08-01T19:08:14Z</time>
      </trkpt>
      <trkpt lat="43.177176" lon="-4.963367">
        <ele>2144.527</ele>
        <time>2021-08-01T19:08:40Z</time>
      </trkpt>
      <trkpt lat="43.177155" lon="-4.963425">
        <ele>2143.966</ele>
        <time>2021-08-01T19:08:45Z</time>
      </trkpt>
      <trkpt lat="43.177115" lon="-4.963455">
        <ele>2143.418</ele>
        <time>2021-08-01T19:08:53Z</time>
      </trkpt>
      <trkpt lat="43.177071" lon="-4.963416">
        <ele>2142.752</ele>
        <time>2021-08-01T19:08:56Z</time>
      </trkpt>
      <trkpt lat="43.177028" lon="-4.963398">
        <ele>2142.849</ele>
        <time>2021-08-01T19:08:59Z</time>
      </trkpt>
      <trkpt lat="43.176998" lon="-4.963449">
        <ele>2142.774</ele>
        <time>2021-08-01T19:09:03Z</time>
      </trkpt>
      <trkpt lat="43.176952" lon="-4.963461">
        <ele>2142.214</ele>
        <time>2021-08-01T19:09:08Z</time>
      </trkpt>
      <trkpt lat="43.176907" lon="-4.963461">
        <ele>2141.463</ele>
        <time>2021-08-01T19:09:17Z</time>
      </trkpt>
      <trkpt lat="43.176865" lon="-4.963483">
        <ele>2141.044</ele>
        <time>2021-08-01T19:09:27Z</time>
      </trkpt>
      <trkpt lat="43.176838" lon="-4.963533">
        <ele>2140.018</ele>
        <time>2021-08-01T19:09:39Z</time>
      </trkpt>
      <trkpt lat="43.176881" lon="-4.963553">
        <ele>2138.908</ele>
        <time>2021-08-01T19:09:44Z</time>
      </trkpt>
      <trkpt lat="43.176832" lon="-4.963585">
        <ele>2137.673</ele>
        <time>2021-08-01T19:09:56Z</time>
      </trkpt>
      <trkpt lat="43.176788" lon="-4.963603">
        <ele>2136.315</ele>
        <time>2021-08-01T19:09:59Z</time>
      </trkpt>
      <trkpt lat="43.176743" lon="-4.963611">
        <ele>2134.964</ele>
        <time>2021-08-01T19:10:05Z</time>
      </trkpt>
      <trkpt lat="43.176694" lon="-4.963597">
        <ele>2134.166</ele>
        <time>2021-08-01T19:10:09Z</time>
      </trkpt>
      <trkpt lat="43.176664" lon="-4.963549">
        <ele>2133.030</ele>
        <time>2021-08-01T19:10:13Z</time>
      </trkpt>
      <trkpt lat="43.176618" lon="-4.963534">
        <ele>2131.297</ele>
        <time>2021-08-01T19:10:24Z</time>
      </trkpt>
      <trkpt lat="43.17657" lon="-4.963538">
        <ele>2129.472</ele>
        <time>2021-08-01T19:10:31Z</time>
      </trkpt>
      <trkpt lat="43.176524" lon="-4.963568">
        <ele>2126.732</ele>
        <time>2021-08-01T19:11:07Z</time>
      </trkpt>
      <trkpt lat="43.17648" lon="-4.963587">
        <ele>2124.967</ele>
        <time>2021-08-01T19:11:13Z</time>
      </trkpt>
      <trkpt lat="43.176437" lon="-4.963614">
        <ele>2123.281</ele>
        <time>2021-08-01T19:11:20Z</time>
      </trkpt>
      <trkpt lat="43.176415" lon="-4.963672">
        <ele>2122.419</ele>
        <time>2021-08-01T19:11:25Z</time>
      </trkpt>
      <trkpt lat="43.176459" lon="-4.963696">
        <ele>2121.308</ele>
        <time>2021-08-01T19:11:29Z</time>
      </trkpt>
      <trkpt lat="43.17645" lon="-4.963633">
        <ele>2121.073</ele>
        <time>2021-08-01T19:11:38Z</time>
      </trkpt>
      <trkpt lat="43.176404" lon="-4.96365">
        <ele>2119.925</ele>
        <time>2021-08-01T19:12:06Z</time>
      </trkpt>
      <trkpt lat="43.176379" lon="-4.963701">
        <ele>2119.314</ele>
        <time>2021-08-01T19:12:11Z</time>
      </trkpt>
      <trkpt lat="43.17637" lon="-4.963765">
        <ele>2118.516</ele>
        <time>2021-08-01T19:12:18Z</time>
      </trkpt>
      <trkpt lat="43.176348" lon="-4.96382">
        <ele>2116.630</ele>
        <time>2021-08-01T19:12:29Z</time>
      </trkpt>
      <trkpt lat="43.176302" lon="-4.963805">
        <ele>2115.127</ele>
        <time>2021-08-01T19:12:33Z</time>
      </trkpt>
      <trkpt lat="43.176275" lon="-4.963749">
        <ele>2113.932</ele>
        <time>2021-08-01T19:12:44Z</time>
      </trkpt>
      <trkpt lat="43.176245" lon="-4.963701">
        <ele>2112.512</ele>
        <time>2021-08-01T19:12:51Z</time>
      </trkpt>
      <trkpt lat="43.176203" lon="-4.963673">
        <ele>2110.974</ele>
        <time>2021-08-01T19:12:59Z</time>
      </trkpt>
      <trkpt lat="43.176149" lon="-4.963691">
        <ele>2109.756</ele>
        <time>2021-08-01T19:13:07Z</time>
      </trkpt>
      <trkpt lat="43.176104" lon="-4.963676">
        <ele>2109.121</ele>
        <time>2021-08-01T19:13:27Z</time>
      </trkpt>
      <trkpt lat="43.176065" lon="-4.963718">
        <ele>2109.308</ele>
        <time>2021-08-01T19:13:33Z</time>
      </trkpt>
      <trkpt lat="43.176096" lon="-4.963776">
        <ele>2107.914</ele>
        <time>2021-08-01T19:13:37Z</time>
      </trkpt>
      <trkpt lat="43.176142" lon="-4.963786">
        <ele>2107.176</ele>
        <time>2021-08-01T19:13:42Z</time>
      </trkpt>
      <trkpt lat="43.176097" lon="-4.963763">
        <ele>2106.195</ele>
        <time>2021-08-01T19:13:47Z</time>
      </trkpt>
      <trkpt lat="43.176055" lon="-4.963737">
        <ele>2105.167</ele>
        <time>2021-08-01T19:13:51Z</time>
      </trkpt>
      <trkpt lat="43.176019" lon="-4.963777">
        <ele>2104.371</ele>
        <time>2021-08-01T19:13:59Z</time>
      </trkpt>
      <trkpt lat="43.175971" lon="-4.963799">
        <ele>2103.758</ele>
        <time>2021-08-01T19:14:07Z</time>
      </trkpt>
      <trkpt lat="43.175941" lon="-4.963849">
        <ele>2102.863</ele>
        <time>2021-08-01T19:14:12Z</time>
      </trkpt>
      <trkpt lat="43.175989" lon="-4.963843">
        <ele>2101.733</ele>
        <time>2021-08-01T19:14:27Z</time>
      </trkpt>
      <trkpt lat="43.175959" lon="-4.963892">
        <ele>2099.814</ele>
        <time>2021-08-01T19:14:33Z</time>
      </trkpt>
      <trkpt lat="43.175915" lon="-4.963905">
        <ele>2099.654</ele>
        <time>2021-08-01T19:14:36Z</time>
      </trkpt>
      <trkpt lat="43.175877" lon="-4.963939">
        <ele>2098.309</ele>
        <time>2021-08-01T19:14:42Z</time>
      </trkpt>
      <trkpt lat="43.175836" lon="-4.963972">
        <ele>2096.908</ele>
        <time>2021-08-01T19:14:47Z</time>
      </trkpt>
      <trkpt lat="43.175786" lon="-4.963962">
        <ele>2096.448</ele>
        <time>2021-08-01T19:14:51Z</time>
      </trkpt>
      <trkpt lat="43.175788" lon="-4.964033">
        <ele>2095.150</ele>
        <time>2021-08-01T19:14:56Z</time>
      </trkpt>
      <trkpt lat="43.175745" lon="-4.964059">
        <ele>2093.769</ele>
        <time>2021-08-01T19:15:07Z</time>
      </trkpt>
      <trkpt lat="43.175696" lon="-4.964052">
        <ele>2092.661</ele>
        <time>2021-08-01T19:15:11Z</time>
      </trkpt>
      <trkpt lat="43.175653" lon="-4.964071">
        <ele>2091.265</ele>
        <time>2021-08-01T19:15:17Z</time>
      </trkpt>
      <trkpt lat="43.175617" lon="-4.964111">
        <ele>2089.142</ele>
        <time>2021-08-01T19:15:25Z</time>
      </trkpt>
      <trkpt lat="43.175577" lon="-4.964157">
        <ele>2087.037</ele>
        <time>2021-08-01T19:15:31Z</time>
      </trkpt>
      <trkpt lat="43.175533" lon="-4.964183">
        <ele>2086.187</ele>
        <time>2021-08-01T19:15:43Z</time>
      </trkpt>
      <trkpt lat="43.175489" lon="-4.964166">
        <ele>2083.622</ele>
        <time>2021-08-01T19:16:05Z</time>
      </trkpt>
      <trkpt lat="43.175444" lon="-4.964185">
        <ele>2081.362</ele>
        <time>2021-08-01T19:16:10Z</time>
      </trkpt>
      <trkpt lat="43.17541" lon="-4.964235">
        <ele>2080.208</ele>
        <time>2021-08-01T19:16:16Z</time>
      </trkpt>
      <trkpt lat="43.17536" lon="-4.964244">
        <ele>2079.208</ele>
        <time>2021-08-01T19:16:21Z</time>
      </trkpt>
      <trkpt lat="43.175315" lon="-4.964266">
        <ele>2077.799</ele>
        <time>2021-08-01T19:16:25Z</time>
      </trkpt>
      <trkpt lat="43.175276" lon="-4.964297">
        <ele>2077.391</ele>
        <time>2021-08-01T19:16:29Z</time>
      </trkpt>
      <trkpt lat="43.175232" lon="-4.96431">
        <ele>2077.170</ele>
        <time>2021-08-01T19:16:34Z</time>
      </trkpt>
      <trkpt lat="43.175187" lon="-4.96432">
        <ele>2075.642</ele>
        <time>2021-08-01T19:16:39Z</time>
      </trkpt>
      <trkpt lat="43.175141" lon="-4.964352">
        <ele>2075.456</ele>
        <time>2021-08-01T19:16:44Z</time>
      </trkpt>
      <trkpt lat="43.175099" lon="-4.964377">
        <ele>2074.753</ele>
        <time>2021-08-01T19:16:48Z</time>
      </trkpt>
      <trkpt lat="43.175049" lon="-4.964386">
        <ele>2073.058</ele>
        <time>2021-08-01T19:16:53Z</time>
      </trkpt>
      <trkpt lat="43.175012" lon="-4.964423">
        <ele>2072.518</ele>
        <time>2021-08-01T19:16:57Z</time>
      </trkpt>
      <trkpt lat="43.174969" lon="-4.964469">
        <ele>2071.485</ele>
        <time>2021-08-01T19:17:02Z</time>
      </trkpt>
      <trkpt lat="43.174934" lon="-4.964517">
        <ele>2070.989</ele>
        <time>2021-08-01T19:17:08Z</time>
      </trkpt>
      <trkpt lat="43.174904" lon="-4.964563">
        <ele>2069.617</ele>
        <time>2021-08-01T19:17:14Z</time>
      </trkpt>
      <trkpt lat="43.174861" lon="-4.964585">
        <ele>2069.608</ele>
        <time>2021-08-01T19:17:19Z</time>
      </trkpt>
      <trkpt lat="43.174811" lon="-4.964587">
        <ele>2068.385</ele>
        <time>2021-08-01T19:17:24Z</time>
      </trkpt>
      <trkpt lat="43.174763" lon="-4.964601">
        <ele>2066.737</ele>
        <time>2021-08-01T19:17:29Z</time>
      </trkpt>
      <trkpt lat="43.174716" lon="-4.964605">
        <ele>2065.546</ele>
        <time>2021-08-01T19:18:08Z</time>
      </trkpt>
      <trkpt lat="43.174673" lon="-4.964641">
        <ele>2063.598</ele>
        <time>2021-08-01T19:18:12Z</time>
      </trkpt>
      <trkpt lat="43.174626" lon="-4.964662">
        <ele>2062.192</ele>
        <time>2021-08-01T19:18:16Z</time>
      </trkpt>
      <trkpt lat="43.174582" lon="-4.964692">
        <ele>2060.849</ele>
        <time>2021-08-01T19:18:21Z</time>
      </trkpt>
      <trkpt lat="43.174549" lon="-4.964736">
        <ele>2060.224</ele>
        <time>2021-08-01T19:18:27Z</time>
      </trkpt>
      <trkpt lat="43.174511" lon="-4.964772">
        <ele>2059.094</ele>
        <time>2021-08-01T19:18:52Z</time>
      </trkpt>
      <trkpt lat="43.174473" lon="-4.964809">
        <ele>2057.514</ele>
        <time>2021-08-01T19:18:58Z</time>
      </trkpt>
      <trkpt lat="43.174436" lon="-4.964851">
        <ele>2056.054</ele>
        <time>2021-08-01T19:19:05Z</time>
      </trkpt>
      <trkpt lat="43.174393" lon="-4.964832">
        <ele>2055.509</ele>
        <time>2021-08-01T19:19:11Z</time>
      </trkpt>
      <trkpt lat="43.174345" lon="-4.96485">
        <ele>2054.708</ele>
        <time>2021-08-01T19:19:18Z</time>
      </trkpt>
      <trkpt lat="43.174322" lon="-4.964906">
        <ele>2053.848</ele>
        <time>2021-08-01T19:19:23Z</time>
      </trkpt>
      <trkpt lat="43.174307" lon="-4.964965">
        <ele>2053.450</ele>
        <time>2021-08-01T19:19:33Z</time>
      </trkpt>
      <trkpt lat="43.174266" lon="-4.965003">
        <ele>2052.689</ele>
        <time>2021-08-01T19:19:40Z</time>
      </trkpt>
      <trkpt lat="43.17423" lon="-4.964967">
        <ele>2051.921</ele>
        <time>2021-08-01T19:19:42Z</time>
      </trkpt>
      <trkpt lat="43.17419" lon="-4.964929">
        <ele>2051.235</ele>
        <time>2021-08-01T19:19:44Z</time>
      </trkpt>
      <trkpt lat="43.174197" lon="-4.965007">
        <ele>2050.672</ele>
        <time>2021-08-01T19:19:50Z</time>
      </trkpt>
      <trkpt lat="43.174239" lon="-4.96503">
        <ele>2050.347</ele>
        <time>2021-08-01T19:19:54Z</time>
      </trkpt>
      <trkpt lat="43.174188" lon="-4.965033">
        <ele>2049.777</ele>
        <time>2021-08-01T19:19:59Z</time>
      </trkpt>
      <trkpt lat="43.174152" lon="-4.965073">
        <ele>2049.173</ele>
        <time>2021-08-01T19:20:04Z</time>
      </trkpt>
      <trkpt lat="43.174103" lon="-4.965076">
        <ele>2047.885</ele>
        <time>2021-08-01T19:20:14Z</time>
      </trkpt>
      <trkpt lat="43.174078" lon="-4.965021">
        <ele>2046.913</ele>
        <time>2021-08-01T19:20:17Z</time>
      </trkpt>
      <trkpt lat="43.174033" lon="-4.965008">
        <ele>2046.008</ele>
        <time>2021-08-01T19:20:22Z</time>
      </trkpt>
      <trkpt lat="43.174046" lon="-4.965073">
        <ele>2045.164</ele>
        <time>2021-08-01T19:20:25Z</time>
      </trkpt>
      <trkpt lat="43.174075" lon="-4.96502">
        <ele>2042.926</ele>
        <time>2021-08-01T19:21:46Z</time>
      </trkpt>
      <trkpt lat="43.174025" lon="-4.965032">
        <ele>2041.695</ele>
        <time>2021-08-01T19:22:01Z</time>
      </trkpt>
      <trkpt lat="43.173985" lon="-4.964996">
        <ele>2041.517</ele>
        <time>2021-08-01T19:22:10Z</time>
      </trkpt>
      <trkpt lat="43.173957" lon="-4.965045">
        <ele>2041.271</ele>
        <time>2021-08-01T19:22:16Z</time>
      </trkpt>
      <trkpt lat="43.173949" lon="-4.965111">
        <ele>2041.658</ele>
        <time>2021-08-01T19:22:31Z</time>
      </trkpt>
      <trkpt lat="43.173906" lon="-4.965154">
        <ele>2042.683</ele>
        <time>2021-08-01T19:22:39Z</time>
      </trkpt>
      <trkpt lat="43.173871" lon="-4.965198">
        <ele>2041.813</ele>
        <time>2021-08-01T19:22:44Z</time>
      </trkpt>
      <trkpt lat="43.173868" lon="-4.965132">
        <ele>2039.976</ele>
        <time>2021-08-01T19:22:52Z</time>
      </trkpt>
      <trkpt lat="43.173881" lon="-4.965067">
        <ele>2039.690</ele>
        <time>2021-08-01T19:22:56Z</time>
      </trkpt>
      <trkpt lat="43.17385" lon="-4.965022">
        <ele>2038.419</ele>
        <time>2021-08-01T19:23:03Z</time>
      </trkpt>
      <trkpt lat="43.173816" lon="-4.965087">
        <ele>2037.808</ele>
        <time>2021-08-01T19:23:10Z</time>
      </trkpt>
      <trkpt lat="43.173856" lon="-4.965116">
        <ele>2036.784</ele>
        <time>2021-08-01T19:23:22Z</time>
      </trkpt>
      <trkpt lat="43.173811" lon="-4.965101">
        <ele>2036.036</ele>
        <time>2021-08-01T19:23:30Z</time>
      </trkpt>
      <trkpt lat="43.173774" lon="-4.965061">
        <ele>2035.865</ele>
        <time>2021-08-01T19:23:37Z</time>
      </trkpt>
      <trkpt lat="43.173729" lon="-4.965062">
        <ele>2034.927</ele>
        <time>2021-08-01T19:23:45Z</time>
      </trkpt>
      <trkpt lat="43.173678" lon="-4.965039">
        <ele>2034.431</ele>
        <time>2021-08-01T19:23:51Z</time>
      </trkpt>
      <trkpt lat="43.173634" lon="-4.965016">
        <ele>2031.798</ele>
        <time>2021-08-01T19:24:55Z</time>
      </trkpt>
      <trkpt lat="43.173589" lon="-4.965043">
        <ele>2029.963</ele>
        <time>2021-08-01T19:24:59Z</time>
      </trkpt>
      <trkpt lat="43.173545" lon="-4.965075">
        <ele>2030.043</ele>
        <time>2021-08-01T19:25:05Z</time>
      </trkpt>
      <trkpt lat="43.173509" lon="-4.965117">
        <ele>2028.915</ele>
        <time>2021-08-01T19:25:13Z</time>
      </trkpt>
      <trkpt lat="43.173467" lon="-4.965141">
        <ele>2029.165</ele>
        <time>2021-08-01T19:25:19Z</time>
      </trkpt>
      <trkpt lat="43.173444" lon="-4.965195">
        <ele>2028.511</ele>
        <time>2021-08-01T19:25:58Z</time>
      </trkpt>
      <trkpt lat="43.17343" lon="-4.965254">
        <ele>2027.808</ele>
        <time>2021-08-01T19:26:21Z</time>
      </trkpt>
      <trkpt lat="43.17346" lon="-4.965312">
        <ele>2027.888</ele>
        <time>2021-08-01T19:26:31Z</time>
      </trkpt>
      <trkpt lat="43.173492" lon="-4.965363">
        <ele>2027.410</ele>
        <time>2021-08-01T19:26:53Z</time>
      </trkpt>
      <trkpt lat="43.173511" lon="-4.965425">
        <ele>2027.579</ele>
        <time>2021-08-01T19:26:59Z</time>
      </trkpt>
      <trkpt lat="43.17353" lon="-4.965488">
        <ele>2027.291</ele>
        <time>2021-08-01T19:27:07Z</time>
      </trkpt>
      <trkpt lat="43.173554" lon="-4.965547">
        <ele>2026.645</ele>
        <time>2021-08-01T19:27:12Z</time>
      </trkpt>
      <trkpt lat="43.173586" lon="-4.9656">
        <ele>2026.522</ele>
        <time>2021-08-01T19:27:16Z</time>
      </trkpt>
      <trkpt lat="43.173621" lon="-4.965644">
        <ele>2026.087</ele>
        <time>2021-08-01T19:27:22Z</time>
      </trkpt>
      <trkpt lat="43.173674" lon="-4.965659">
        <ele>2025.837</ele>
        <time>2021-08-01T19:27:30Z</time>
      </trkpt>
      <trkpt lat="43.173718" lon="-4.965671">
        <ele>2025.545</ele>
        <time>2021-08-01T19:27:36Z</time>
      </trkpt>
      <trkpt lat="43.173678" lon="-4.96571">
        <ele>2024.047</ele>
        <time>2021-08-01T19:27:46Z</time>
      </trkpt>
      <trkpt lat="43.173633" lon="-4.965727">
        <ele>2022.711</ele>
        <time>2021-08-01T19:27:52Z</time>
      </trkpt>
      <trkpt lat="43.173659" lon="-4.965782">
        <ele>2022.508</ele>
        <time>2021-08-01T19:27:57Z</time>
      </trkpt>
      <trkpt lat="43.173649" lon="-4.965718">
        <ele>2020.321</ele>
        <time>2021-08-01T19:28:30Z</time>
      </trkpt>
      <trkpt lat="43.173663" lon="-4.965655">
        <ele>2018.543</ele>
        <time>2021-08-01T19:28:35Z</time>
      </trkpt>
      <trkpt lat="43.173657" lon="-4.96559">
        <ele>2016.422</ele>
        <time>2021-08-01T19:28:40Z</time>
      </trkpt>
      <trkpt lat="43.173604" lon="-4.965591">
        <ele>2014.414</ele>
        <time>2021-08-01T19:28:48Z</time>
      </trkpt>
      <trkpt lat="43.173578" lon="-4.965655">
        <ele>2012.968</ele>
        <time>2021-08-01T19:28:51Z</time>
      </trkpt>
      <trkpt lat="43.173533" lon="-4.965643">
        <ele>2010.865</ele>
        <time>2021-08-01T19:28:59Z</time>
      </trkpt>
      <trkpt lat="43.173484" lon="-4.965636">
        <ele>2009.090</ele>
        <time>2021-08-01T19:29:05Z</time>
      </trkpt>
      <trkpt lat="43.173424" lon="-4.965637">
        <ele>2007.530</ele>
        <time>2021-08-01T19:29:10Z</time>
      </trkpt>
      <trkpt lat="43.173379" lon="-4.965657">
        <ele>2005.139</ele>
        <time>2021-08-01T19:29:17Z</time>
      </trkpt>
      <trkpt lat="43.173421" lon="-4.965692">
        <ele>2003.801</ele>
        <time>2021-08-01T19:29:22Z</time>
      </trkpt>
      <trkpt lat="43.173462" lon="-4.965729">
        <ele>2000.721</ele>
        <time>2021-08-01T19:29:50Z</time>
      </trkpt>
      <trkpt lat="43.173484" lon="-4.965789">
        <ele>1998.108</ele>
        <time>2021-08-01T19:29:55Z</time>
      </trkpt>
      <trkpt lat="43.173513" lon="-4.965836">
        <ele>1994.430</ele>
        <time>2021-08-01T19:30:24Z</time>
      </trkpt>
      <trkpt lat="43.173467" lon="-4.965813">
        <ele>1991.722</ele>
        <time>2021-08-01T19:30:35Z</time>
      </trkpt>
      <trkpt lat="43.173422" lon="-4.965825">
        <ele>1989.921</ele>
        <time>2021-08-01T19:30:39Z</time>
      </trkpt>
      <trkpt lat="43.17338" lon="-4.965785">
        <ele>1988.113</ele>
        <time>2021-08-01T19:30:47Z</time>
      </trkpt>
      <trkpt lat="43.173332" lon="-4.965801">
        <ele>1986.687</ele>
        <time>2021-08-01T19:30:55Z</time>
      </trkpt>
      <trkpt lat="43.173286" lon="-4.965774">
        <ele>1984.934</ele>
        <time>2021-08-01T19:31:09Z</time>
      </trkpt>
      <trkpt lat="43.173254" lon="-4.96573">
        <ele>1983.629</ele>
        <time>2021-08-01T19:31:16Z</time>
      </trkpt>
      <trkpt lat="43.17324" lon="-4.965813">
        <ele>1982.489</ele>
        <time>2021-08-01T19:33:27Z</time>
      </trkpt>
      <trkpt lat="43.173201" lon="-4.965867">
        <ele>1981.112</ele>
        <time>2021-08-01T19:33:29Z</time>
      </trkpt>
      <trkpt lat="43.173154" lon="-4.965849">
        <ele>1982.732</ele>
        <time>2021-08-01T19:34:03Z</time>
      </trkpt>
      <trkpt lat="43.17312" lon="-4.965807">
        <ele>1983.505</ele>
        <time>2021-08-01T19:34:12Z</time>
      </trkpt>
      <trkpt lat="43.173077" lon="-4.965784">
        <ele>1983.408</ele>
        <time>2021-08-01T19:34:16Z</time>
      </trkpt>
      <trkpt lat="43.173032" lon="-4.965776">
        <ele>1983.478</ele>
        <time>2021-08-01T19:34:28Z</time>
      </trkpt>
      <trkpt lat="43.172997" lon="-4.965726">
        <ele>1982.520</ele>
        <time>2021-08-01T19:34:38Z</time>
      </trkpt>
      <trkpt lat="43.172976" lon="-4.965666">
        <ele>1981.069</ele>
        <time>2021-08-01T19:34:47Z</time>
      </trkpt>
      <trkpt lat="43.172949" lon="-4.965613">
        <ele>1979.031</ele>
        <time>2021-08-01T19:34:57Z</time>
      </trkpt>
      <trkpt lat="43.172912" lon="-4.965578">
        <ele>1977.975</ele>
        <time>2021-08-01T19:35:05Z</time>
      </trkpt>
      <trkpt lat="43.172867" lon="-4.965528">
        <ele>1977.332</ele>
        <time>2021-08-01T19:35:15Z</time>
      </trkpt>
      <trkpt lat="43.172836" lon="-4.965477">
        <ele>1976.557</ele>
        <time>2021-08-01T19:35:36Z</time>
      </trkpt>
      <trkpt lat="43.172817" lon="-4.965418">
        <ele>1975.587</ele>
        <time>2021-08-01T19:35:44Z</time>
      </trkpt>
      <trkpt lat="43.172771" lon="-4.965452">
        <ele>1973.762</ele>
        <time>2021-08-01T19:36:08Z</time>
      </trkpt>
      <trkpt lat="43.172757" lon="-4.965512">
        <ele>1972.183</ele>
        <time>2021-08-01T19:36:24Z</time>
      </trkpt>
      <trkpt lat="43.172726" lon="-4.965558">
        <ele>1970.111</ele>
        <time>2021-08-01T19:36:39Z</time>
      </trkpt>
      <trkpt lat="43.172771" lon="-4.965553">
        <ele>1968.508</ele>
        <time>2021-08-01T19:36:45Z</time>
      </trkpt>
      <trkpt lat="43.17275" lon="-4.965494">
        <ele>1966.773</ele>
        <time>2021-08-01T19:36:57Z</time>
      </trkpt>
      <trkpt lat="43.1727" lon="-4.965524">
        <ele>1963.595</ele>
        <time>2021-08-01T19:37:23Z</time>
      </trkpt>
      <trkpt lat="43.172645" lon="-4.965502">
        <ele>1961.514</ele>
        <time>2021-08-01T19:37:34Z</time>
      </trkpt>
      <trkpt lat="43.172606" lon="-4.965543">
        <ele>1960.086</ele>
        <time>2021-08-01T19:37:37Z</time>
      </trkpt>
      <trkpt lat="43.172577" lon="-4.965592">
        <ele>1959.920</ele>
        <time>2021-08-01T19:37:41Z</time>
      </trkpt>
      <trkpt lat="43.172607" lon="-4.96554">
        <ele>1959.627</ele>
        <time>2021-08-01T19:37:48Z</time>
      </trkpt>
      <trkpt lat="43.172558" lon="-4.965571">
        <ele>1959.892</ele>
        <time>2021-08-01T19:37:54Z</time>
      </trkpt>
      <trkpt lat="43.172521" lon="-4.965613">
        <ele>1959.492</ele>
        <time>2021-08-01T19:37:57Z</time>
      </trkpt>
      <trkpt lat="43.172512" lon="-4.965675">
        <ele>1959.297</ele>
        <time>2021-08-01T19:38:03Z</time>
      </trkpt>
      <trkpt lat="43.172508" lon="-4.965741">
        <ele>1956.823</ele>
        <time>2021-08-01T19:39:00Z</time>
      </trkpt>
      <trkpt lat="43.17246" lon="-4.965763">
        <ele>1955.425</ele>
        <time>2021-08-01T19:39:20Z</time>
      </trkpt>
      <trkpt lat="43.172419" lon="-4.965798">
        <ele>1954.608</ele>
        <time>2021-08-01T19:39:27Z</time>
      </trkpt>
      <trkpt lat="43.172379" lon="-4.965836">
        <ele>1954.516</ele>
        <time>2021-08-01T19:39:31Z</time>
      </trkpt>
      <trkpt lat="43.17237" lon="-4.965897">
        <ele>1954.698</ele>
        <time>2021-08-01T19:39:36Z</time>
      </trkpt>
      <trkpt lat="43.172332" lon="-4.965856">
        <ele>1954.467</ele>
        <time>2021-08-01T19:40:04Z</time>
      </trkpt>
      <trkpt lat="43.172279" lon="-4.965833">
        <ele>1953.299</ele>
        <time>2021-08-01T19:40:11Z</time>
      </trkpt>
      <trkpt lat="43.172242" lon="-4.965786">
        <ele>1953.163</ele>
        <time>2021-08-01T19:40:16Z</time>
      </trkpt>
      <trkpt lat="43.172195" lon="-4.965792">
        <ele>1951.680</ele>
        <time>2021-08-01T19:40:22Z</time>
      </trkpt>
      <trkpt lat="43.172147" lon="-4.965812">
        <ele>1950.155</ele>
        <time>2021-08-01T19:40:26Z</time>
      </trkpt>
      <trkpt lat="43.172091" lon="-4.965816">
        <ele>1949.455</ele>
        <time>2021-08-01T19:40:31Z</time>
      </trkpt>
      <trkpt lat="43.172048" lon="-4.965842">
        <ele>1949.056</ele>
        <time>2021-08-01T19:40:36Z</time>
      </trkpt>
      <trkpt lat="43.172008" lon="-4.965876">
        <ele>1947.759</ele>
        <time>2021-08-01T19:40:41Z</time>
      </trkpt>
      <trkpt lat="43.171968" lon="-4.965912">
        <ele>1946.714</ele>
        <time>2021-08-01T19:40:46Z</time>
      </trkpt>
      <trkpt lat="43.171913" lon="-4.965918">
        <ele>1946.308</ele>
        <time>2021-08-01T19:40:51Z</time>
      </trkpt>
      <trkpt lat="43.171873" lon="-4.965879">
        <ele>1945.212</ele>
        <time>2021-08-01T19:41:01Z</time>
      </trkpt>
      <trkpt lat="43.171845" lon="-4.965931">
        <ele>1943.284</ele>
        <time>2021-08-01T19:41:13Z</time>
      </trkpt>
      <trkpt lat="43.171849" lon="-4.965993">
        <ele>1942.193</ele>
        <time>2021-08-01T19:41:19Z</time>
      </trkpt>
      <trkpt lat="43.171825" lon="-4.966051">
        <ele>1941.435</ele>
        <time>2021-08-01T19:41:25Z</time>
      </trkpt>
      <trkpt lat="43.171778" lon="-4.966094">
        <ele>1939.999</ele>
        <time>2021-08-01T19:41:30Z</time>
      </trkpt>
      <trkpt lat="43.171732" lon="-4.966114">
        <ele>1938.696</ele>
        <time>2021-08-01T19:41:36Z</time>
      </trkpt>
      <trkpt lat="43.171698" lon="-4.966156">
        <ele>1936.971</ele>
        <time>2021-08-01T19:41:41Z</time>
      </trkpt>
      <trkpt lat="43.171655" lon="-4.966185">
        <ele>1935.481</ele>
        <time>2021-08-01T19:41:50Z</time>
      </trkpt>
      <trkpt lat="43.171612" lon="-4.96622">
        <ele>1934.533</ele>
        <time>2021-08-01T19:41:54Z</time>
      </trkpt>
      <trkpt lat="43.171567" lon="-4.966235">
        <ele>1932.723</ele>
        <time>2021-08-01T19:42:02Z</time>
      </trkpt>
      <trkpt lat="43.171524" lon="-4.966258">
        <ele>1932.015</ele>
        <time>2021-08-01T19:42:06Z</time>
      </trkpt>
      <trkpt lat="43.171489" lon="-4.966303">
        <ele>1930.908</ele>
        <time>2021-08-01T19:42:11Z</time>
      </trkpt>
      <trkpt lat="43.171458" lon="-4.966348">
        <ele>1930.710</ele>
        <time>2021-08-01T19:42:17Z</time>
      </trkpt>
      <trkpt lat="43.171419" lon="-4.966378">
        <ele>1929.652</ele>
        <time>2021-08-01T19:42:21Z</time>
      </trkpt>
      <trkpt lat="43.171383" lon="-4.96632">
        <ele>1928.511</ele>
        <time>2021-08-01T19:42:26Z</time>
      </trkpt>
      <trkpt lat="43.171342" lon="-4.96635">
        <ele>1926.973</ele>
        <time>2021-08-01T19:42:36Z</time>
      </trkpt>
      <trkpt lat="43.171346" lon="-4.966437">
        <ele>1925.327</ele>
        <time>2021-08-01T19:42:41Z</time>
      </trkpt>
      <trkpt lat="43.171319" lon="-4.966486">
        <ele>1923.944</ele>
        <time>2021-08-01T19:42:47Z</time>
      </trkpt>
      <trkpt lat="43.171271" lon="-4.966483">
        <ele>1923.689</ele>
        <time>2021-08-01T19:42:52Z</time>
      </trkpt>
      <trkpt lat="43.171221" lon="-4.966479">
        <ele>1922.989</ele>
        <time>2021-08-01T19:42:58Z</time>
      </trkpt>
      <trkpt lat="43.17117" lon="-4.966474">
        <ele>1921.438</ele>
        <time>2021-08-01T19:43:05Z</time>
      </trkpt>
      <trkpt lat="43.171129" lon="-4.966504">
        <ele>1919.870</ele>
        <time>2021-08-01T19:43:17Z</time>
      </trkpt>
      <trkpt lat="43.171081" lon="-4.966527">
        <ele>1918.617</ele>
        <time>2021-08-01T19:43:24Z</time>
      </trkpt>
      <trkpt lat="43.171035" lon="-4.96654">
        <ele>1916.508</ele>
        <time>2021-08-01T19:43:31Z</time>
      </trkpt>
      <trkpt lat="43.170996" lon="-4.966582">
        <ele>1914.980</ele>
        <time>2021-08-01T19:43:37Z</time>
      </trkpt>
      <trkpt lat="43.170959" lon="-4.966624">
        <ele>1914.182</ele>
        <time>2021-08-01T19:43:42Z</time>
      </trkpt>
      <trkpt lat="43.170912" lon="-4.966643">
        <ele>1912.511</ele>
        <time>2021-08-01T19:43:51Z</time>
      </trkpt>
      <trkpt lat="43.170958" lon="-4.966644">
        <ele>1911.333</ele>
        <time>2021-08-01T19:44:12Z</time>
      </trkpt>
      <trkpt lat="43.170917" lon="-4.966672">
        <ele>1910.117</ele>
        <time>2021-08-01T19:44:41Z</time>
      </trkpt>
      <trkpt lat="43.170875" lon="-4.96663">
        <ele>1909.084</ele>
        <time>2021-08-01T19:44:48Z</time>
      </trkpt>
      <trkpt lat="43.170835" lon="-4.966668">
        <ele>1907.189</ele>
        <time>2021-08-01T19:44:59Z</time>
      </trkpt>
      <trkpt lat="43.170792" lon="-4.966691">
        <ele>1905.859</ele>
        <time>2021-08-01T19:45:06Z</time>
      </trkpt>
      <trkpt lat="43.170743" lon="-4.966689">
        <ele>1904.513</ele>
        <time>2021-08-01T19:45:14Z</time>
      </trkpt>
      <trkpt lat="43.170762" lon="-4.966745">
        <ele>1903.343</ele>
        <time>2021-08-01T19:45:22Z</time>
      </trkpt>
      <trkpt lat="43.170712" lon="-4.966718">
        <ele>1902.607</ele>
        <time>2021-08-01T19:45:29Z</time>
      </trkpt>
      <trkpt lat="43.170706" lon="-4.966654">
        <ele>1902.108</ele>
        <time>2021-08-01T19:45:33Z</time>
      </trkpt>
      <trkpt lat="43.170686" lon="-4.966711">
        <ele>1900.548</ele>
        <time>2021-08-01T19:46:01Z</time>
      </trkpt>
      <trkpt lat="43.170682" lon="-4.966782">
        <ele>1899.980</ele>
        <time>2021-08-01T19:46:05Z</time>
      </trkpt>
      <trkpt lat="43.170705" lon="-4.966837">
        <ele>1900.089</ele>
        <time>2021-08-01T19:46:09Z</time>
      </trkpt>
      <trkpt lat="43.170707" lon="-4.966904">
        <ele>1898.731</ele>
        <time>2021-08-01T19:46:19Z</time>
      </trkpt>
      <trkpt lat="43.170665" lon="-4.966877">
        <ele>1898.625</ele>
        <time>2021-08-01T19:46:24Z</time>
      </trkpt>
      <trkpt lat="43.17063" lon="-4.966822">
        <ele>1898.182</ele>
        <time>2021-08-01T19:46:29Z</time>
      </trkpt>
      <trkpt lat="43.170584" lon="-4.966805">
        <ele>1897.387</ele>
        <time>2021-08-01T19:46:38Z</time>
      </trkpt>
      <trkpt lat="43.170544" lon="-4.966757">
        <ele>1896.987</ele>
        <time>2021-08-01T19:46:43Z</time>
      </trkpt>
      <trkpt lat="43.170537" lon="-4.966685">
        <ele>1895.453</ele>
        <time>2021-08-01T19:46:59Z</time>
      </trkpt>
      <trkpt lat="43.170524" lon="-4.966746">
        <ele>1894.904</ele>
        <time>2021-08-01T19:47:07Z</time>
      </trkpt>
      <trkpt lat="43.170562" lon="-4.966794">
        <ele>1894.814</ele>
        <time>2021-08-01T19:47:15Z</time>
      </trkpt>
      <trkpt lat="43.170564" lon="-4.966858">
        <ele>1894.208</ele>
        <time>2021-08-01T19:47:25Z</time>
      </trkpt>
      <trkpt lat="43.170523" lon="-4.966888">
        <ele>1893.152</ele>
        <time>2021-08-01T19:47:33Z</time>
      </trkpt>
      <trkpt lat="43.170489" lon="-4.966835">
        <ele>1892.284</ele>
        <time>2021-08-01T19:47:36Z</time>
      </trkpt>
      <trkpt lat="43.170453" lon="-4.966787">
        <ele>1891.723</ele>
        <time>2021-08-01T19:47:48Z</time>
      </trkpt>
      <trkpt lat="43.170442" lon="-4.966847">
        <ele>1890.685</ele>
        <time>2021-08-01T19:47:55Z</time>
      </trkpt>
      <trkpt lat="43.170408" lon="-4.966804">
        <ele>1888.629</ele>
        <time>2021-08-01T19:48:06Z</time>
      </trkpt>
      <trkpt lat="43.17036" lon="-4.96679">
        <ele>1886.256</ele>
        <time>2021-08-01T19:48:15Z</time>
      </trkpt>
      <trkpt lat="43.170313" lon="-4.966789">
        <ele>1884.791</ele>
        <time>2021-08-01T19:48:20Z</time>
      </trkpt>
      <trkpt lat="43.17027" lon="-4.966761">
        <ele>1883.491</ele>
        <time>2021-08-01T19:48:24Z</time>
      </trkpt>
      <trkpt lat="43.170232" lon="-4.966719">
        <ele>1882.079</ele>
        <time>2021-08-01T19:48:31Z</time>
      </trkpt>
      <trkpt lat="43.170193" lon="-4.966679">
        <ele>1880.905</ele>
        <time>2021-08-01T19:48:40Z</time>
      </trkpt>
      <trkpt lat="43.170141" lon="-4.966675">
        <ele>1880.225</ele>
        <time>2021-08-01T19:48:47Z</time>
      </trkpt>
      <trkpt lat="43.170117" lon="-4.966619">
        <ele>1880.608</ele>
        <time>2021-08-01T19:49:13Z</time>
      </trkpt>
      <trkpt lat="43.170073" lon="-4.966634">
        <ele>1880.774</ele>
        <time>2021-08-01T19:49:17Z</time>
      </trkpt>
      <trkpt lat="43.170032" lon="-4.966664">
        <ele>1880.586</ele>
        <time>2021-08-01T19:49:22Z</time>
      </trkpt>
      <trkpt lat="43.169996" lon="-4.966711">
        <ele>1879.855</ele>
        <time>2021-08-01T19:49:26Z</time>
      </trkpt>
      <trkpt lat="43.16996" lon="-4.966751">
        <ele>1880.157</ele>
        <time>2021-08-01T19:49:29Z</time>
      </trkpt>
      <trkpt lat="43.169913" lon="-4.966796">
        <ele>1880.461</ele>
        <time>2021-08-01T19:49:32Z</time>
      </trkpt>
      <trkpt lat="43.169867" lon="-4.966826">
        <ele>1880.228</ele>
        <time>2021-08-01T19:49:35Z</time>
      </trkpt>
      <trkpt lat="43.169821" lon="-4.966849">
        <ele>1880.393</ele>
        <time>2021-08-01T19:49:39Z</time>
      </trkpt>
      <trkpt lat="43.169772" lon="-4.966865">
        <ele>1880.333</ele>
        <time>2021-08-01T19:49:42Z</time>
      </trkpt>
      <trkpt lat="43.169724" lon="-4.966865">
        <ele>1880.854</ele>
        <time>2021-08-01T19:49:48Z</time>
      </trkpt>
      <trkpt lat="43.169675" lon="-4.966873">
        <ele>1881.056</ele>
        <time>2021-08-01T19:49:56Z</time>
      </trkpt>
      <trkpt lat="43.169627" lon="-4.966873">
        <ele>1880.611</ele>
        <time>2021-08-01T19:50:00Z</time>
      </trkpt>
      <trkpt lat="43.169583" lon="-4.966889">
        <ele>1880.708</ele>
        <time>2021-08-01T19:50:04Z</time>
      </trkpt>
      <trkpt lat="43.169541" lon="-4.966918">
        <ele>1881.442</ele>
        <time>2021-08-01T19:50:08Z</time>
      </trkpt>
      <trkpt lat="43.169499" lon="-4.966951">
        <ele>1881.324</ele>
        <time>2021-08-01T19:50:13Z</time>
      </trkpt>
      <trkpt lat="43.169459" lon="-4.966987">
        <ele>1882.173</ele>
        <time>2021-08-01T19:50:19Z</time>
      </trkpt>
      <trkpt lat="43.169413" lon="-4.967005">
        <ele>1882.695</ele>
        <time>2021-08-01T19:50:24Z</time>
      </trkpt>
      <trkpt lat="43.169364" lon="-4.96703">
        <ele>1883.139</ele>
        <time>2021-08-01T19:50:27Z</time>
      </trkpt>
      <trkpt lat="43.169331" lon="-4.967079">
        <ele>1882.726</ele>
        <time>2021-08-01T19:50:32Z</time>
      </trkpt>
      <trkpt lat="43.169292" lon="-4.967116">
        <ele>1883.391</ele>
        <time>2021-08-01T19:50:35Z</time>
      </trkpt>
      <trkpt lat="43.169253" lon="-4.96715">
        <ele>1882.761</ele>
        <time>2021-08-01T19:50:39Z</time>
      </trkpt>
      <trkpt lat="43.169215" lon="-4.967195">
        <ele>1882.594</ele>
        <time>2021-08-01T19:50:42Z</time>
      </trkpt>
      <trkpt lat="43.169176" lon="-4.967237">
        <ele>1882.957</ele>
        <time>2021-08-01T19:50:45Z</time>
      </trkpt>
      <trkpt lat="43.169151" lon="-4.96729">
        <ele>1883.022</ele>
        <time>2021-08-01T19:50:48Z</time>
      </trkpt>
      <trkpt lat="43.169137" lon="-4.967353">
        <ele>1882.808</ele>
        <time>2021-08-01T19:50:52Z</time>
      </trkpt>
      <trkpt lat="43.169119" lon="-4.967411">
        <ele>1883.296</ele>
        <time>2021-08-01T19:50:57Z</time>
      </trkpt>
      <trkpt lat="43.169101" lon="-4.967476">
        <ele>1884.028</ele>
        <time>2021-08-01T19:51:01Z</time>
      </trkpt>
      <trkpt lat="43.169079" lon="-4.967536">
        <ele>1884.057</ele>
        <time>2021-08-01T19:51:06Z</time>
      </trkpt>
      <trkpt lat="43.169043" lon="-4.967581">
        <ele>1885.079</ele>
        <time>2021-08-01T19:51:13Z</time>
      </trkpt>
      <trkpt lat="43.169051" lon="-4.967518">
        <ele>1885.633</ele>
        <time>2021-08-01T19:51:22Z</time>
      </trkpt>
      <trkpt lat="43.169052" lon="-4.96745">
        <ele>1886.930</ele>
        <time>2021-08-01T19:51:39Z</time>
      </trkpt>
      <trkpt lat="43.169005" lon="-4.967421">
        <ele>1888.335</ele>
        <time>2021-08-01T19:51:44Z</time>
      </trkpt>
      <trkpt lat="43.16896" lon="-4.967413">
        <ele>1889.625</ele>
        <time>2021-08-01T19:51:49Z</time>
      </trkpt>
      <trkpt lat="43.168914" lon="-4.967409">
        <ele>1890.029</ele>
        <time>2021-08-01T19:52:00Z</time>
      </trkpt>
      <trkpt lat="43.168866" lon="-4.96743">
        <ele>1889.800</ele>
        <time>2021-08-01T19:52:16Z</time>
      </trkpt>
      <trkpt lat="43.168866" lon="-4.967492">
        <ele>1889.520</ele>
        <time>2021-08-01T19:52:31Z</time>
      </trkpt>
      <trkpt lat="43.168837" lon="-4.967554">
        <ele>1889.508</ele>
        <time>2021-08-01T19:52:40Z</time>
      </trkpt>
      <trkpt lat="43.168837" lon="-4.967619">
        <ele>1889.289</ele>
        <time>2021-08-01T19:52:44Z</time>
      </trkpt>
      <trkpt lat="43.168826" lon="-4.967683">
        <ele>1889.141</ele>
        <time>2021-08-01T19:52:49Z</time>
      </trkpt>
      <trkpt lat="43.168814" lon="-4.967743">
        <ele>1888.470</ele>
        <time>2021-08-01T19:52:55Z</time>
      </trkpt>
      <trkpt lat="43.168816" lon="-4.967811">
        <ele>1887.952</ele>
        <time>2021-08-01T19:53:01Z</time>
      </trkpt>
      <trkpt lat="43.168824" lon="-4.967873">
        <ele>1887.526</ele>
        <time>2021-08-01T19:53:25Z</time>
      </trkpt>
      <trkpt lat="43.168811" lon="-4.967937">
        <ele>1885.913</ele>
        <time>2021-08-01T19:53:33Z</time>
      </trkpt>
      <trkpt lat="43.168855" lon="-4.967959">
        <ele>1884.468</ele>
        <time>2021-08-01T19:53:47Z</time>
      </trkpt>
      <trkpt lat="43.1689" lon="-4.967942">
        <ele>1883.668</ele>
        <time>2021-08-01T19:53:51Z</time>
      </trkpt>
      <trkpt lat="43.168941" lon="-4.967984">
        <ele>1882.335</ele>
        <time>2021-08-01T19:53:59Z</time>
      </trkpt>
      <trkpt lat="43.168937" lon="-4.968047">
        <ele>1880.486</ele>
        <time>2021-08-01T19:54:04Z</time>
      </trkpt>
      <trkpt lat="43.168968" lon="-4.968102">
        <ele>1878.914</ele>
        <time>2021-08-01T19:54:09Z</time>
      </trkpt>
      <trkpt lat="43.168995" lon="-4.968152">
        <ele>1878.008</ele>
        <time>2021-08-01T19:54:16Z</time>
      </trkpt>
      <trkpt lat="43.169027" lon="-4.9682">
        <ele>1877.180</ele>
        <time>2021-08-01T19:54:22Z</time>
      </trkpt>
      <trkpt lat="43.169068" lon="-4.968227">
        <ele>1875.552</ele>
        <time>2021-08-01T19:54:28Z</time>
      </trkpt>
      <trkpt lat="43.16911" lon="-4.968256">
        <ele>1874.031</ele>
        <time>2021-08-01T19:54:35Z</time>
      </trkpt>
      <trkpt lat="43.16915" lon="-4.968283">
        <ele>1872.493</ele>
        <time>2021-08-01T19:54:43Z</time>
      </trkpt>
      <trkpt lat="43.169179" lon="-4.96833">
        <ele>1871.837</ele>
        <time>2021-08-01T19:54:49Z</time>
      </trkpt>
      <trkpt lat="43.169129" lon="-4.968306">
        <ele>1870.614</ele>
        <time>2021-08-01T19:55:05Z</time>
      </trkpt>
      <trkpt lat="43.169081" lon="-4.968267">
        <ele>1870.969</ele>
        <time>2021-08-01T19:55:08Z</time>
      </trkpt>
      <trkpt lat="43.169026" lon="-4.968259">
        <ele>1869.289</ele>
        <time>2021-08-01T19:55:13Z</time>
      </trkpt>
      <trkpt lat="43.16898" lon="-4.96826">
        <ele>1867.873</ele>
        <time>2021-08-01T19:55:17Z</time>
      </trkpt>
      <trkpt lat="43.168929" lon="-4.968259">
        <ele>1866.585</ele>
        <time>2021-08-01T19:55:22Z</time>
      </trkpt>
      <trkpt lat="43.168882" lon="-4.968272">
        <ele>1865.013</ele>
        <time>2021-08-01T19:55:28Z</time>
      </trkpt>
      <trkpt lat="43.168851" lon="-4.968324">
        <ele>1863.608</ele>
        <time>2021-08-01T19:55:34Z</time>
      </trkpt>
      <trkpt lat="43.168803" lon="-4.96834">
        <ele>1862.274</ele>
        <time>2021-08-01T19:55:43Z</time>
      </trkpt>
      <trkpt lat="43.168756" lon="-4.968325">
        <ele>1860.466</ele>
        <time>2021-08-01T19:55:51Z</time>
      </trkpt>
      <trkpt lat="43.168752" lon="-4.968393">
        <ele>1858.875</ele>
        <time>2021-08-01T19:56:04Z</time>
      </trkpt>
      <trkpt lat="43.168705" lon="-4.968403">
        <ele>1857.677</ele>
        <time>2021-08-01T19:56:10Z</time>
      </trkpt>
      <trkpt lat="43.168661" lon="-4.968377">
        <ele>1856.891</ele>
        <time>2021-08-01T19:56:15Z</time>
      </trkpt>
      <trkpt lat="43.168631" lon="-4.968324">
        <ele>1855.958</ele>
        <time>2021-08-01T19:56:20Z</time>
      </trkpt>
      <trkpt lat="43.168627" lon="-4.96839">
        <ele>1853.693</ele>
        <time>2021-08-01T19:56:50Z</time>
      </trkpt>
      <trkpt lat="43.168575" lon="-4.968402">
        <ele>1852.563</ele>
        <time>2021-08-01T19:56:56Z</time>
      </trkpt>
      <trkpt lat="43.16853" lon="-4.968423">
        <ele>1851.416</ele>
        <time>2021-08-01T19:57:03Z</time>
      </trkpt>
      <trkpt lat="43.168487" lon="-4.968441">
        <ele>1850.576</ele>
        <time>2021-08-01T19:57:09Z</time>
      </trkpt>
      <trkpt lat="43.168445" lon="-4.968469">
        <ele>1849.113</ele>
        <time>2021-08-01T19:57:16Z</time>
      </trkpt>
      <trkpt lat="43.168406" lon="-4.9685">
        <ele>1847.508</ele>
        <time>2021-08-01T19:57:57Z</time>
      </trkpt>
      <trkpt lat="43.168373" lon="-4.968551">
        <ele>1845.438</ele>
        <time>2021-08-01T19:58:04Z</time>
      </trkpt>
      <trkpt lat="43.168335" lon="-4.968589">
        <ele>1843.990</ele>
        <time>2021-08-01T19:58:12Z</time>
      </trkpt>
      <trkpt lat="43.168292" lon="-4.968619">
        <ele>1843.189</ele>
        <time>2021-08-01T19:58:17Z</time>
      </trkpt>
      <trkpt lat="43.168248" lon="-4.96865">
        <ele>1841.651</ele>
        <time>2021-08-01T19:58:24Z</time>
      </trkpt>
      <trkpt lat="43.168225" lon="-4.968717">
        <ele>1840.545</ele>
        <time>2021-08-01T19:58:29Z</time>
      </trkpt>
      <trkpt lat="43.168177" lon="-4.968723">
        <ele>1839.592</ele>
        <time>2021-08-01T19:58:35Z</time>
      </trkpt>
      <trkpt lat="43.168131" lon="-4.9687">
        <ele>1838.477</ele>
        <time>2021-08-01T19:58:41Z</time>
      </trkpt>
      <trkpt lat="43.168089" lon="-4.968673">
        <ele>1836.787</ele>
        <time>2021-08-01T19:58:48Z</time>
      </trkpt>
      <trkpt lat="43.16805" lon="-4.968705">
        <ele>1834.915</ele>
        <time>2021-08-01T19:58:55Z</time>
      </trkpt>
      <trkpt lat="43.168026" lon="-4.968759">
        <ele>1833.865</ele>
        <time>2021-08-01T19:59:00Z</time>
      </trkpt>
      <trkpt lat="43.167977" lon="-4.968755">
        <ele>1832.811</ele>
        <time>2021-08-01T19:59:07Z</time>
      </trkpt>
      <trkpt lat="43.167936" lon="-4.968781">
        <ele>1832.008</ele>
        <time>2021-08-01T19:59:13Z</time>
      </trkpt>
      <trkpt lat="43.167893" lon="-4.968811">
        <ele>1831.268</ele>
        <time>2021-08-01T19:59:19Z</time>
      </trkpt>
      <trkpt lat="43.167866" lon="-4.968862">
        <ele>1830.460</ele>
        <time>2021-08-01T19:59:24Z</time>
      </trkpt>
      <trkpt lat="43.167827" lon="-4.968907">
        <ele>1828.839</ele>
        <time>2021-08-01T19:59:30Z</time>
      </trkpt>
      <trkpt lat="43.167786" lon="-4.968876">
        <ele>1827.561</ele>
        <time>2021-08-01T19:59:38Z</time>
      </trkpt>
      <trkpt lat="43.16774" lon="-4.968878">
        <ele>1826.715</ele>
        <time>2021-08-01T19:59:44Z</time>
      </trkpt>
      <trkpt lat="43.167715" lon="-4.968943">
        <ele>1825.412</ele>
        <time>2021-08-01T19:59:51Z</time>
      </trkpt>
      <trkpt lat="43.16773" lon="-4.969001">
        <ele>1824.517</ele>
        <time>2021-08-01T19:59:55Z</time>
      </trkpt>
      <trkpt lat="43.167756" lon="-4.969062">
        <ele>1823.967</ele>
        <time>2021-08-01T20:00:00Z</time>
      </trkpt>
      <trkpt lat="43.16772" lon="-4.969103">
        <ele>1822.522</ele>
        <time>2021-08-01T20:00:06Z</time>
      </trkpt>
      <trkpt lat="43.167672" lon="-4.969093">
        <ele>1822.362</ele>
        <time>2021-08-01T20:00:11Z</time>
      </trkpt>
      <trkpt lat="43.167634" lon="-4.969127">
        <ele>1821.308</ele>
        <time>2021-08-01T20:00:17Z</time>
      </trkpt>
      <trkpt lat="43.167634" lon="-4.969197">
        <ele>1820.308</ele>
        <time>2021-08-01T20:00:21Z</time>
      </trkpt>
      <trkpt lat="43.167588" lon="-4.969219">
        <ele>1819.559</ele>
        <time>2021-08-01T20:00:29Z</time>
      </trkpt>
      <trkpt lat="43.167553" lon="-4.969264">
        <ele>1819.171</ele>
        <time>2021-08-01T20:00:36Z</time>
      </trkpt>
      <trkpt lat="43.167502" lon="-4.969288">
        <ele>1817.880</ele>
        <time>2021-08-01T20:01:21Z</time>
      </trkpt>
      <trkpt lat="43.167448" lon="-4.969302">
        <ele>1816.482</ele>
        <time>2021-08-01T20:01:27Z</time>
      </trkpt>
      <trkpt lat="43.167409" lon="-4.969353">
        <ele>1814.526</ele>
        <time>2021-08-01T20:01:32Z</time>
      </trkpt>
      <trkpt lat="43.167407" lon="-4.969416">
        <ele>1813.223</ele>
        <time>2021-08-01T20:01:36Z</time>
      </trkpt>
      <trkpt lat="43.16741" lon="-4.969483">
        <ele>1811.388</ele>
        <time>2021-08-01T20:01:40Z</time>
      </trkpt>
      <trkpt lat="43.16743" lon="-4.969555">
        <ele>1808.418</ele>
        <time>2021-08-01T20:02:02Z</time>
      </trkpt>
      <trkpt lat="43.167444" lon="-4.969615">
        <ele>1806.818</ele>
        <time>2021-08-01T20:02:05Z</time>
      </trkpt>
      <trkpt lat="43.167448" lon="-4.969677">
        <ele>1805.598</ele>
        <time>2021-08-01T20:02:09Z</time>
      </trkpt>
      <trkpt lat="43.167414" lon="-4.969725">
        <ele>1803.817</ele>
        <time>2021-08-01T20:02:14Z</time>
      </trkpt>
      <trkpt lat="43.167383" lon="-4.969782">
        <ele>1803.208</ele>
        <time>2021-08-01T20:02:18Z</time>
      </trkpt>
      <trkpt lat="43.167353" lon="-4.969845">
        <ele>1802.278</ele>
        <time>2021-08-01T20:02:22Z</time>
      </trkpt>
      <trkpt lat="43.167347" lon="-4.969908">
        <ele>1801.210</ele>
        <time>2021-08-01T20:02:27Z</time>
      </trkpt>
      <trkpt lat="43.16732" lon="-4.969973">
        <ele>1800.099</ele>
        <time>2021-08-01T20:02:32Z</time>
      </trkpt>
      <trkpt lat="43.167316" lon="-4.970037">
        <ele>1798.671</ele>
        <time>2021-08-01T20:02:37Z</time>
      </trkpt>
      <trkpt lat="43.167323" lon="-4.9701">
        <ele>1797.165</ele>
        <time>2021-08-01T20:02:42Z</time>
      </trkpt>
      <trkpt lat="43.167324" lon="-4.970162">
        <ele>1795.612</ele>
        <time>2021-08-01T20:02:49Z</time>
      </trkpt>
      <trkpt lat="43.167303" lon="-4.970221">
        <ele>1793.637</ele>
        <time>2021-08-01T20:02:55Z</time>
      </trkpt>
      <trkpt lat="43.167284" lon="-4.970294">
        <ele>1792.847</ele>
        <time>2021-08-01T20:03:01Z</time>
      </trkpt>
      <trkpt lat="43.167256" lon="-4.970347">
        <ele>1792.031</ele>
        <time>2021-08-01T20:03:08Z</time>
      </trkpt>
      <trkpt lat="43.167231" lon="-4.970404">
        <ele>1790.161</ele>
        <time>2021-08-01T20:03:16Z</time>
      </trkpt>
      <trkpt lat="43.167223" lon="-4.970466">
        <ele>1788.907</ele>
        <time>2021-08-01T20:03:21Z</time>
      </trkpt>
      <trkpt lat="43.167233" lon="-4.970531">
        <ele>1787.208</ele>
        <time>2021-08-01T20:03:26Z</time>
      </trkpt>
      <trkpt lat="43.167199" lon="-4.970591">
        <ele>1785.380</ele>
        <time>2021-08-01T20:03:33Z</time>
      </trkpt>
      <trkpt lat="43.167237" lon="-4.970653">
        <ele>1784.432</ele>
        <time>2021-08-01T20:03:39Z</time>
      </trkpt>
      <trkpt lat="43.167223" lon="-4.970721">
        <ele>1782.471</ele>
        <time>2021-08-01T20:03:53Z</time>
      </trkpt>
      <trkpt lat="43.16719" lon="-4.970774">
        <ele>1780.953</ele>
        <time>2021-08-01T20:03:57Z</time>
      </trkpt>
      <trkpt lat="43.167148" lon="-4.970812">
        <ele>1780.257</ele>
        <time>2021-08-01T20:04:02Z</time>
      </trkpt>
      <trkpt lat="43.167134" lon="-4.970874">
        <ele>1778.994</ele>
        <time>2021-08-01T20:04:07Z</time>
      </trkpt>
      <trkpt lat="43.167139" lon="-4.970935">
        <ele>1777.959</ele>
        <time>2021-08-01T20:04:12Z</time>
      </trkpt>
      <trkpt lat="43.167147" lon="-4.971">
        <ele>1776.519</ele>
        <time>2021-08-01T20:04:18Z</time>
      </trkpt>
      <trkpt lat="43.167153" lon="-4.971066">
        <ele>1775.465</ele>
        <time>2021-08-01T20:04:25Z</time>
      </trkpt>
      <trkpt lat="43.167139" lon="-4.971127">
        <ele>1774.068</ele>
        <time>2021-08-01T20:04:37Z</time>
      </trkpt>
      <trkpt lat="43.167136" lon="-4.971197">
        <ele>1771.814</ele>
        <time>2021-08-01T20:04:42Z</time>
      </trkpt>
      <trkpt lat="43.167144" lon="-4.971262">
        <ele>1770.608</ele>
        <time>2021-08-01T20:04:46Z</time>
      </trkpt>
      <trkpt lat="43.167172" lon="-4.971315">
        <ele>1769.643</ele>
        <time>2021-08-01T20:04:49Z</time>
      </trkpt>
      <trkpt lat="43.167173" lon="-4.97138">
        <ele>1769.135</ele>
        <time>2021-08-01T20:04:53Z</time>
      </trkpt>
      <trkpt lat="43.167161" lon="-4.971446">
        <ele>1768.164</ele>
        <time>2021-08-01T20:04:57Z</time>
      </trkpt>
      <trkpt lat="43.16718" lon="-4.971511">
        <ele>1767.166</ele>
        <time>2021-08-01T20:05:02Z</time>
      </trkpt>
      <trkpt lat="43.167191" lon="-4.971579">
        <ele>1766.460</ele>
        <time>2021-08-01T20:05:06Z</time>
      </trkpt>
      <trkpt lat="43.16719" lon="-4.971643">
        <ele>1766.297</ele>
        <time>2021-08-01T20:05:09Z</time>
      </trkpt>
      <trkpt lat="43.167175" lon="-4.971702">
        <ele>1765.352</ele>
        <time>2021-08-01T20:05:23Z</time>
      </trkpt>
      <trkpt lat="43.167179" lon="-4.971771">
        <ele>1765.382</ele>
        <time>2021-08-01T20:05:27Z</time>
      </trkpt>
      <trkpt lat="43.167171" lon="-4.971836">
        <ele>1765.154</ele>
        <time>2021-08-01T20:05:30Z</time>
      </trkpt>
      <trkpt lat="43.167155" lon="-4.971895">
        <ele>1764.956</ele>
        <time>2021-08-01T20:05:34Z</time>
      </trkpt>
      <trkpt lat="43.16713" lon="-4.971951">
        <ele>1764.611</ele>
        <time>2021-08-01T20:05:37Z</time>
      </trkpt>
      <trkpt lat="43.167116" lon="-4.972017">
        <ele>1764.508</ele>
        <time>2021-08-01T20:05:41Z</time>
      </trkpt>
      <trkpt lat="43.1671" lon="-4.972077">
        <ele>1764.522</ele>
        <time>2021-08-01T20:05:45Z</time>
      </trkpt>
      <trkpt lat="43.1671" lon="-4.972139">
        <ele>1764.844</ele>
        <time>2021-08-01T20:05:48Z</time>
      </trkpt>
      <trkpt lat="43.167097" lon="-4.972202">
        <ele>1764.313</ele>
        <time>2021-08-01T20:05:52Z</time>
      </trkpt>
      <trkpt lat="43.167109" lon="-4.972269">
        <ele>1764.645</ele>
        <time>2021-08-01T20:05:56Z</time>
      </trkpt>
      <trkpt lat="43.167107" lon="-4.972331">
        <ele>1763.939</ele>
        <time>2021-08-01T20:06:00Z</time>
      </trkpt>
      <trkpt lat="43.167116" lon="-4.972394">
        <ele>1763.276</ele>
        <time>2021-08-01T20:06:04Z</time>
      </trkpt>
      <trkpt lat="43.167111" lon="-4.972457">
        <ele>1763.011</ele>
        <time>2021-08-01T20:06:07Z</time>
      </trkpt>
      <trkpt lat="43.167116" lon="-4.972528">
        <ele>1762.991</ele>
        <time>2021-08-01T20:06:12Z</time>
      </trkpt>
      <trkpt lat="43.167122" lon="-4.97259">
        <ele>1762.023</ele>
        <time>2021-08-01T20:06:15Z</time>
      </trkpt>
      <trkpt lat="43.167128" lon="-4.972658">
        <ele>1761.783</ele>
        <time>2021-08-01T20:06:18Z</time>
      </trkpt>
      <trkpt lat="43.167131" lon="-4.972725">
        <ele>1762.411</ele>
        <time>2021-08-01T20:06:23Z</time>
      </trkpt>
      <trkpt lat="43.167107" lon="-4.972793">
        <ele>1762.208</ele>
        <time>2021-08-01T20:06:29Z</time>
      </trkpt>
      <trkpt lat="43.167125" lon="-4.972855">
        <ele>1762.089</ele>
        <time>2021-08-01T20:06:55Z</time>
      </trkpt>
      <trkpt lat="43.167108" lon="-4.972921">
        <ele>1762.091</ele>
        <time>2021-08-01T20:07:00Z</time>
      </trkpt>
      <trkpt lat="43.167067" lon="-4.972956">
        <ele>1761.450</ele>
        <time>2021-08-01T20:07:04Z</time>
      </trkpt>
      <trkpt lat="43.167041" lon="-4.973008">
        <ele>1761.142</ele>
        <time>2021-08-01T20:07:07Z</time>
      </trkpt>
      <trkpt lat="43.167011" lon="-4.973062">
        <ele>1760.926</ele>
        <time>2021-08-01T20:07:11Z</time>
      </trkpt>
      <trkpt lat="43.167015" lon="-4.97313">
        <ele>1761.223</ele>
        <time>2021-08-01T20:07:15Z</time>
      </trkpt>
      <trkpt lat="43.167054" lon="-4.973164">
        <ele>1761.148</ele>
        <time>2021-08-01T20:07:21Z</time>
      </trkpt>
      <trkpt lat="43.167077" lon="-4.973219">
        <ele>1760.378</ele>
        <time>2021-08-01T20:07:25Z</time>
      </trkpt>
      <trkpt lat="43.167087" lon="-4.973281">
        <ele>1759.949</ele>
        <time>2021-08-01T20:07:36Z</time>
      </trkpt>
      <trkpt lat="43.167116" lon="-4.973345">
        <ele>1759.402</ele>
        <time>2021-08-01T20:07:44Z</time>
      </trkpt>
      <trkpt lat="43.167127" lon="-4.973409">
        <ele>1758.122</ele>
        <time>2021-08-01T20:07:55Z</time>
      </trkpt>
      <trkpt lat="43.167092" lon="-4.973453">
        <ele>1757.608</ele>
        <time>2021-08-01T20:08:00Z</time>
      </trkpt>
      <trkpt lat="43.167117" lon="-4.973508">
        <ele>1756.391</ele>
        <time>2021-08-01T20:08:09Z</time>
      </trkpt>
      <trkpt lat="43.167155" lon="-4.973546">
        <ele>1754.723</ele>
        <time>2021-08-01T20:08:20Z</time>
      </trkpt>
      <trkpt lat="43.167175" lon="-4.973602">
        <ele>1753.852</ele>
        <time>2021-08-01T20:08:26Z</time>
      </trkpt>
      <trkpt lat="43.167197" lon="-4.97366">
        <ele>1752.564</ele>
        <time>2021-08-01T20:08:33Z</time>
      </trkpt>
      <trkpt lat="43.167206" lon="-4.973723">
        <ele>1751.718</ele>
        <time>2021-08-01T20:08:41Z</time>
      </trkpt>
      <trkpt lat="43.167206" lon="-4.973786">
        <ele>1750.175</ele>
        <time>2021-08-01T20:08:52Z</time>
      </trkpt>
      <trkpt lat="43.167241" lon="-4.973828">
        <ele>1748.580</ele>
        <time>2021-08-01T20:09:05Z</time>
      </trkpt>
      <trkpt lat="43.167285" lon="-4.973853">
        <ele>1747.430</ele>
        <time>2021-08-01T20:09:09Z</time>
      </trkpt>
      <trkpt lat="43.167281" lon="-4.973926">
        <ele>1745.931</ele>
        <time>2021-08-01T20:09:19Z</time>
      </trkpt>
      <trkpt lat="43.167327" lon="-4.973929">
        <ele>1743.461</ele>
        <time>2021-08-01T20:09:37Z</time>
      </trkpt>
      <trkpt lat="43.167345" lon="-4.973992">
        <ele>1741.207</ele>
        <time>2021-08-01T20:09:47Z</time>
      </trkpt>
      <trkpt lat="43.167366" lon="-4.974052">
        <ele>1739.308</ele>
        <time>2021-08-01T20:09:55Z</time>
      </trkpt>
      <trkpt lat="43.16735" lon="-4.974112">
        <ele>1737.440</ele>
        <time>2021-08-01T20:10:01Z</time>
      </trkpt>
      <trkpt lat="43.167393" lon="-4.974132">
        <ele>1735.972</ele>
        <time>2021-08-01T20:10:13Z</time>
      </trkpt>
      <trkpt lat="43.167437" lon="-4.974115">
        <ele>1734.581</ele>
        <time>2021-08-01T20:10:19Z</time>
      </trkpt>
      <trkpt lat="43.167398" lon="-4.974148">
        <ele>1733.333</ele>
        <time>2021-08-01T20:10:33Z</time>
      </trkpt>
      <trkpt lat="43.167401" lon="-4.97421">
        <ele>1730.797</ele>
        <time>2021-08-01T20:10:41Z</time>
      </trkpt>
      <trkpt lat="43.167441" lon="-4.974246">
        <ele>1728.664</ele>
        <time>2021-08-01T20:10:49Z</time>
      </trkpt>
      <trkpt lat="43.167468" lon="-4.974297">
        <ele>1726.949</ele>
        <time>2021-08-01T20:10:56Z</time>
      </trkpt>
      <trkpt lat="43.16751" lon="-4.974327">
        <ele>1725.299</ele>
        <time>2021-08-01T20:11:02Z</time>
      </trkpt>
      <trkpt lat="43.167553" lon="-4.974352">
        <ele>1723.695</ele>
        <time>2021-08-01T20:11:11Z</time>
      </trkpt>
      <trkpt lat="43.167597" lon="-4.974373">
        <ele>1722.349</ele>
        <time>2021-08-01T20:11:18Z</time>
      </trkpt>
      <trkpt lat="43.167628" lon="-4.974423">
        <ele>1720.823</ele>
        <time>2021-08-01T20:11:23Z</time>
      </trkpt>
      <trkpt lat="43.167674" lon="-4.97445">
        <ele>1719.408</ele>
        <time>2021-08-01T20:11:28Z</time>
      </trkpt>
      <trkpt lat="43.16773" lon="-4.97444">
        <ele>1718.866</ele>
        <time>2021-08-01T20:11:34Z</time>
      </trkpt>
      <trkpt lat="43.167775" lon="-4.974461">
        <ele>1716.628</ele>
        <time>2021-08-01T20:11:51Z</time>
      </trkpt>
      <trkpt lat="43.167824" lon="-4.974459">
        <ele>1715.287</ele>
        <time>2021-08-01T20:12:26Z</time>
      </trkpt>
      <trkpt lat="43.167844" lon="-4.974519">
        <ele>1714.229</ele>
        <time>2021-08-01T20:12:32Z</time>
      </trkpt>
      <trkpt lat="43.167857" lon="-4.97458">
        <ele>1713.643</ele>
        <time>2021-08-01T20:12:35Z</time>
      </trkpt>
      <trkpt lat="43.167847" lon="-4.97465">
        <ele>1713.950</ele>
        <time>2021-08-01T20:12:38Z</time>
      </trkpt>
      <trkpt lat="43.167857" lon="-4.974713">
        <ele>1713.295</ele>
        <time>2021-08-01T20:12:41Z</time>
      </trkpt>
      <trkpt lat="43.167878" lon="-4.974773">
        <ele>1712.915</ele>
        <time>2021-08-01T20:12:44Z</time>
      </trkpt>
      <trkpt lat="43.167901" lon="-4.974842">
        <ele>1713.172</ele>
        <time>2021-08-01T20:12:49Z</time>
      </trkpt>
      <trkpt lat="43.167937" lon="-4.974886">
        <ele>1713.113</ele>
        <time>2021-08-01T20:13:10Z</time>
      </trkpt>
      <trkpt lat="43.167964" lon="-4.974937">
        <ele>1713.614</ele>
        <time>2021-08-01T20:13:14Z</time>
      </trkpt>
      <trkpt lat="43.167991" lon="-4.974988">
        <ele>1714.108</ele>
        <time>2021-08-01T20:13:18Z</time>
      </trkpt>
      <trkpt lat="43.167969" lon="-4.975045">
        <ele>1714.294</ele>
        <time>2021-08-01T20:13:23Z</time>
      </trkpt>
      <trkpt lat="43.167929" lon="-4.975074">
        <ele>1714.116</ele>
        <time>2021-08-01T20:13:29Z</time>
      </trkpt>
      <trkpt lat="43.167926" lon="-4.975138">
        <ele>1714.215</ele>
        <time>2021-08-01T20:13:34Z</time>
      </trkpt>
      <trkpt lat="43.167881" lon="-4.975172">
        <ele>1714.187</ele>
        <time>2021-08-01T20:13:40Z</time>
      </trkpt>
      <trkpt lat="43.167896" lon="-4.975236">
        <ele>1713.911</ele>
        <time>2021-08-01T20:13:47Z</time>
      </trkpt>
      <trkpt lat="43.167917" lon="-4.975293">
        <ele>1713.598</ele>
        <time>2021-08-01T20:13:51Z</time>
      </trkpt>
      <trkpt lat="43.167872" lon="-4.975314">
        <ele>1713.263</ele>
        <time>2021-08-01T20:13:57Z</time>
      </trkpt>
      <trkpt lat="43.167873" lon="-4.975378">
        <ele>1711.893</ele>
        <time>2021-08-01T20:14:22Z</time>
      </trkpt>
      <trkpt lat="43.167919" lon="-4.975389">
        <ele>1710.852</ele>
        <time>2021-08-01T20:14:24Z</time>
      </trkpt>
      <trkpt lat="43.167954" lon="-4.97543">
        <ele>1709.853</ele>
        <time>2021-08-01T20:14:30Z</time>
      </trkpt>
      <trkpt lat="43.167917" lon="-4.97547">
        <ele>1709.008</ele>
        <time>2021-08-01T20:14:34Z</time>
      </trkpt>
      <trkpt lat="43.167892" lon="-4.975533">
        <ele>1708.108</ele>
        <time>2021-08-01T20:14:39Z</time>
      </trkpt>
      <trkpt lat="43.167901" lon="-4.975605">
        <ele>1707.362</ele>
        <time>2021-08-01T20:14:43Z</time>
      </trkpt>
      <trkpt lat="43.167894" lon="-4.975669">
        <ele>1706.824</ele>
        <time>2021-08-01T20:14:49Z</time>
      </trkpt>
      <trkpt lat="43.167875" lon="-4.975728">
        <ele>1705.383</ele>
        <time>2021-08-01T20:14:57Z</time>
      </trkpt>
      <trkpt lat="43.167839" lon="-4.975768">
        <ele>1704.145</ele>
        <time>2021-08-01T20:15:04Z</time>
      </trkpt>
      <trkpt lat="43.167816" lon="-4.975825">
        <ele>1702.949</ele>
        <time>2021-08-01T20:15:11Z</time>
      </trkpt>
      <trkpt lat="43.167777" lon="-4.975875">
        <ele>1701.866</ele>
        <time>2021-08-01T20:15:21Z</time>
      </trkpt>
      <trkpt lat="43.167794" lon="-4.975935">
        <ele>1700.241</ele>
        <time>2021-08-01T20:15:29Z</time>
      </trkpt>
      <trkpt lat="43.167819" lon="-4.975988">
        <ele>1699.031</ele>
        <time>2021-08-01T20:15:36Z</time>
      </trkpt>
      <trkpt lat="43.167789" lon="-4.976058">
        <ele>1697.643</ele>
        <time>2021-08-01T20:15:58Z</time>
      </trkpt>
      <trkpt lat="43.167742" lon="-4.97606">
        <ele>1696.164</ele>
        <time>2021-08-01T20:16:04Z</time>
      </trkpt>
      <trkpt lat="43.167749" lon="-4.976135">
        <ele>1695.010</ele>
        <time>2021-08-01T20:16:13Z</time>
      </trkpt>
      <trkpt lat="43.167705" lon="-4.976119">
        <ele>1692.308</ele>
        <time>2021-08-01T20:16:39Z</time>
      </trkpt>
      <trkpt lat="43.167716" lon="-4.976188">
        <ele>1690.371</ele>
        <time>2021-08-01T20:16:47Z</time>
      </trkpt>
      <trkpt lat="43.167692" lon="-4.976243">
        <ele>1689.253</ele>
        <time>2021-08-01T20:16:56Z</time>
      </trkpt>
      <trkpt lat="43.167674" lon="-4.97631">
        <ele>1687.172</ele>
        <time>2021-08-01T20:17:03Z</time>
      </trkpt>
      <trkpt lat="43.167625" lon="-4.976313">
        <ele>1685.094</ele>
        <time>2021-08-01T20:17:25Z</time>
      </trkpt>
      <trkpt lat="43.167611" lon="-4.976377">
        <ele>1683.498</ele>
        <time>2021-08-01T20:17:40Z</time>
      </trkpt>
      <trkpt lat="43.167596" lon="-4.976445">
        <ele>1682.375</ele>
        <time>2021-08-01T20:17:45Z</time>
      </trkpt>
      <trkpt lat="43.167601" lon="-4.976522">
        <ele>1680.950</ele>
        <time>2021-08-01T20:17:50Z</time>
      </trkpt>
      <trkpt lat="43.167557" lon="-4.976546">
        <ele>1679.870</ele>
        <time>2021-08-01T20:17:55Z</time>
      </trkpt>
      <trkpt lat="43.167512" lon="-4.976566">
        <ele>1678.935</ele>
        <time>2021-08-01T20:18:00Z</time>
      </trkpt>
      <trkpt lat="43.167507" lon="-4.976634">
        <ele>1677.786</ele>
        <time>2021-08-01T20:18:07Z</time>
      </trkpt>
      <trkpt lat="43.167489" lon="-4.976706">
        <ele>1677.014</ele>
        <time>2021-08-01T20:18:13Z</time>
      </trkpt>
      <trkpt lat="43.167437" lon="-4.976685">
        <ele>1676.408</ele>
        <time>2021-08-01T20:18:18Z</time>
      </trkpt>
      <trkpt lat="43.167467" lon="-4.976737">
        <ele>1674.130</ele>
        <time>2021-08-01T20:18:43Z</time>
      </trkpt>
      <trkpt lat="43.167457" lon="-4.976804">
        <ele>1672.942</ele>
        <time>2021-08-01T20:18:50Z</time>
      </trkpt>
      <trkpt lat="43.167429" lon="-4.976859">
        <ele>1672.031</ele>
        <time>2021-08-01T20:18:56Z</time>
      </trkpt>
      <trkpt lat="43.167413" lon="-4.976922">
        <ele>1669.823</ele>
        <time>2021-08-01T20:19:05Z</time>
      </trkpt>
      <trkpt lat="43.167412" lon="-4.976984">
        <ele>1668.117</ele>
        <time>2021-08-01T20:19:17Z</time>
      </trkpt>
      <trkpt lat="43.167418" lon="-4.977049">
        <ele>1667.474</ele>
        <time>2021-08-01T20:19:25Z</time>
      </trkpt>
      <trkpt lat="43.167387" lon="-4.977101">
        <ele>1665.229</ele>
        <time>2021-08-01T20:19:38Z</time>
      </trkpt>
      <trkpt lat="43.167371" lon="-4.977165">
        <ele>1664.599</ele>
        <time>2021-08-01T20:19:45Z</time>
      </trkpt>
      <trkpt lat="43.167388" lon="-4.977226">
        <ele>1663.545</ele>
        <time>2021-08-01T20:20:05Z</time>
      </trkpt>
      <trkpt lat="43.167396" lon="-4.977289">
        <ele>1662.747</ele>
        <time>2021-08-01T20:20:11Z</time>
      </trkpt>
      <trkpt lat="43.167359" lon="-4.977331">
        <ele>1661.511</ele>
        <time>2021-08-01T20:20:15Z</time>
      </trkpt>
      <trkpt lat="43.167339" lon="-4.977388">
        <ele>1660.608</ele>
        <time>2021-08-01T20:20:28Z</time>
      </trkpt>
      <trkpt lat="43.167324" lon="-4.977446">
        <ele>1660.161</ele>
        <time>2021-08-01T20:20:33Z</time>
      </trkpt>
      <trkpt lat="43.167281" lon="-4.977464">
        <ele>1658.893</ele>
        <time>2021-08-01T20:20:41Z</time>
      </trkpt>
      <trkpt lat="43.16723" lon="-4.977453">
        <ele>1657.512</ele>
        <time>2021-08-01T20:20:46Z</time>
      </trkpt>
      <trkpt lat="43.16722" lon="-4.977519">
        <ele>1656.464</ele>
        <time>2021-08-01T20:20:51Z</time>
      </trkpt>
      <trkpt lat="43.167244" lon="-4.977581">
        <ele>1655.968</ele>
        <time>2021-08-01T20:20:54Z</time>
      </trkpt>
      <trkpt lat="43.167261" lon="-4.977639">
        <ele>1655.015</ele>
        <time>2021-08-01T20:20:59Z</time>
      </trkpt>
      <trkpt lat="43.167225" lon="-4.977678">
        <ele>1653.740</ele>
        <time>2021-08-01T20:21:07Z</time>
      </trkpt>
      <trkpt lat="43.167238" lon="-4.977741">
        <ele>1652.660</ele>
        <time>2021-08-01T20:21:13Z</time>
      </trkpt>
      <trkpt lat="43.167197" lon="-4.977769">
        <ele>1651.299</ele>
        <time>2021-08-01T20:21:24Z</time>
      </trkpt>
      <trkpt lat="43.167165" lon="-4.977717">
        <ele>1650.407</ele>
        <time>2021-08-01T20:21:28Z</time>
      </trkpt>
      <trkpt lat="43.16713" lon="-4.977673">
        <ele>1650.327</ele>
        <time>2021-08-01T20:21:35Z</time>
      </trkpt>
      <trkpt lat="43.167104" lon="-4.977732">
        <ele>1648.808</ele>
        <time>2021-08-01T20:21:48Z</time>
      </trkpt>
      <trkpt lat="43.167073" lon="-4.977787">
        <ele>1647.836</ele>
        <time>2021-08-01T20:21:52Z</time>
      </trkpt>
      <trkpt lat="43.167054" lon="-4.977845">
        <ele>1646.298</ele>
        <time>2021-08-01T20:21:59Z</time>
      </trkpt>
      <trkpt lat="43.167058" lon="-4.977909">
        <ele>1645.367</ele>
        <time>2021-08-01T20:22:05Z</time>
      </trkpt>
      <trkpt lat="43.167043" lon="-4.977973">
        <ele>1644.589</ele>
        <time>2021-08-01T20:22:10Z</time>
      </trkpt>
      <trkpt lat="43.16701" lon="-4.97802">
        <ele>1643.713</ele>
        <time>2021-08-01T20:22:15Z</time>
      </trkpt>
      <trkpt lat="43.166983" lon="-4.978075">
        <ele>1642.460</ele>
        <time>2021-08-01T20:22:22Z</time>
      </trkpt>
      <trkpt lat="43.167022" lon="-4.978129">
        <ele>1641.455</ele>
        <time>2021-08-01T20:22:44Z</time>
      </trkpt>
      <trkpt lat="43.166995" lon="-4.978181">
        <ele>1639.355</ele>
        <time>2021-08-01T20:23:01Z</time>
      </trkpt>
      <trkpt lat="43.166964" lon="-4.978228">
        <ele>1637.638</ele>
        <time>2021-08-01T20:23:06Z</time>
      </trkpt>
      <trkpt lat="43.166953" lon="-4.978291">
        <ele>1636.370</ele>
        <time>2021-08-01T20:23:11Z</time>
      </trkpt>
      <trkpt lat="43.166953" lon="-4.97836">
        <ele>1635.317</ele>
        <time>2021-08-01T20:23:16Z</time>
      </trkpt>
      <trkpt lat="43.166933" lon="-4.978419">
        <ele>1634.808</ele>
        <time>2021-08-01T20:23:22Z</time>
      </trkpt>
      <trkpt lat="43.166915" lon="-4.978493">
        <ele>1633.710</ele>
        <time>2021-08-01T20:23:30Z</time>
      </trkpt>
      <trkpt lat="43.166886" lon="-4.978543">
        <ele>1632.372</ele>
        <time>2021-08-01T20:23:39Z</time>
      </trkpt>
      <trkpt lat="43.166854" lon="-4.978594">
        <ele>1631.061</ele>
        <time>2021-08-01T20:23:45Z</time>
      </trkpt>
      <trkpt lat="43.166818" lon="-4.978643">
        <ele>1629.633</ele>
        <time>2021-08-01T20:23:51Z</time>
      </trkpt>
      <trkpt lat="43.166784" lon="-4.97869">
        <ele>1628.437</ele>
        <time>2021-08-01T20:24:00Z</time>
      </trkpt>
      <trkpt lat="43.166747" lon="-4.978724">
        <ele>1626.024</ele>
        <time>2021-08-01T20:24:11Z</time>
      </trkpt>
      <trkpt lat="43.166703" lon="-4.978765">
        <ele>1624.389</ele>
        <time>2021-08-01T20:24:19Z</time>
      </trkpt>
      <trkpt lat="43.166681" lon="-4.978821">
        <ele>1622.989</ele>
        <time>2021-08-01T20:24:24Z</time>
      </trkpt>
      <trkpt lat="43.166643" lon="-4.978876">
        <ele>1621.398</ele>
        <time>2021-08-01T20:24:34Z</time>
      </trkpt>
      <trkpt lat="43.1666" lon="-4.978904">
        <ele>1619.215</ele>
        <time>2021-08-01T20:24:41Z</time>
      </trkpt>
      <trkpt lat="43.166562" lon="-4.97894">
        <ele>1618.326</ele>
        <time>2021-08-01T20:24:46Z</time>
      </trkpt>
      <trkpt lat="43.166528" lon="-4.97899">
        <ele>1616.508</ele>
        <time>2021-08-01T20:24:51Z</time>
      </trkpt>
      <trkpt lat="43.166483" lon="-4.979008">
        <ele>1615.686</ele>
        <time>2021-08-01T20:24:56Z</time>
      </trkpt>
      <trkpt lat="43.166439" lon="-4.979031">
        <ele>1615.028</ele>
        <time>2021-08-01T20:25:00Z</time>
      </trkpt>
      <trkpt lat="43.166407" lon="-4.979093">
        <ele>1614.517</ele>
        <time>2021-08-01T20:25:05Z</time>
      </trkpt>
      <trkpt lat="43.166379" lon="-4.979144">
        <ele>1613.489</ele>
        <time>2021-08-01T20:25:11Z</time>
      </trkpt>
      <trkpt lat="43.166338" lon="-4.979172">
        <ele>1612.733</ele>
        <time>2021-08-01T20:25:16Z</time>
      </trkpt>
      <trkpt lat="43.166326" lon="-4.979235">
        <ele>1612.370</ele>
        <time>2021-08-01T20:25:22Z</time>
      </trkpt>
      <trkpt lat="43.16633" lon="-4.979311">
        <ele>1611.315</ele>
        <time>2021-08-01T20:25:27Z</time>
      </trkpt>
      <trkpt lat="43.166372" lon="-4.979273">
        <ele>1610.385</ele>
        <time>2021-08-01T20:25:31Z</time>
      </trkpt>
      <trkpt lat="43.166378" lon="-4.979338">
        <ele>1609.783</ele>
        <time>2021-08-01T20:25:47Z</time>
      </trkpt>
      <trkpt lat="43.166356" lon="-4.97941">
        <ele>1609.125</ele>
        <time>2021-08-01T20:25:51Z</time>
      </trkpt>
      <trkpt lat="43.16632" lon="-4.979449">
        <ele>1608.817</ele>
        <time>2021-08-01T20:25:57Z</time>
      </trkpt>
      <trkpt lat="43.166318" lon="-4.979512">
        <ele>1607.908</ele>
        <time>2021-08-01T20:26:04Z</time>
      </trkpt>
      <trkpt lat="43.166349" lon="-4.979564">
        <ele>1606.565</ele>
        <time>2021-08-01T20:26:10Z</time>
      </trkpt>
      <trkpt lat="43.166334" lon="-4.979633">
        <ele>1605.727</ele>
        <time>2021-08-01T20:26:16Z</time>
      </trkpt>
      <trkpt lat="43.166366" lon="-4.979681">
        <ele>1605.316</ele>
        <time>2021-08-01T20:26:26Z</time>
      </trkpt>
      <trkpt lat="43.166411" lon="-4.979705">
        <ele>1603.718</ele>
        <time>2021-08-01T20:27:01Z</time>
      </trkpt>
      <trkpt lat="43.166394" lon="-4.979768">
        <ele>1601.522</ele>
        <time>2021-08-01T20:27:11Z</time>
      </trkpt>
      <trkpt lat="43.166381" lon="-4.979827">
        <ele>1599.669</ele>
        <time>2021-08-01T20:27:18Z</time>
      </trkpt>
      <trkpt lat="43.166354" lon="-4.979883">
        <ele>1597.134</ele>
        <time>2021-08-01T20:27:24Z</time>
      </trkpt>
      <trkpt lat="43.166314" lon="-4.979915">
        <ele>1595.014</ele>
        <time>2021-08-01T20:27:29Z</time>
      </trkpt>
      <trkpt lat="43.166302" lon="-4.979978">
        <ele>1593.563</ele>
        <time>2021-08-01T20:27:34Z</time>
      </trkpt>
      <trkpt lat="43.166308" lon="-4.980045">
        <ele>1592.044</ele>
        <time>2021-08-01T20:27:43Z</time>
      </trkpt>
      <trkpt lat="43.166354" lon="-4.980046">
        <ele>1590.918</ele>
        <time>2021-08-01T20:27:54Z</time>
      </trkpt>
      <trkpt lat="43.166397" lon="-4.980025">
        <ele>1589.708</ele>
        <time>2021-08-01T20:27:58Z</time>
      </trkpt>
      <trkpt lat="43.166447" lon="-4.980013">
        <ele>1588.713</ele>
        <time>2021-08-01T20:28:02Z</time>
      </trkpt>
      <trkpt lat="43.166494" lon="-4.980033">
        <ele>1587.875</ele>
        <time>2021-08-01T20:28:07Z</time>
      </trkpt>
      <trkpt lat="43.166491" lon="-4.980097">
        <ele>1587.954</ele>
        <time>2021-08-01T20:28:14Z</time>
      </trkpt>
      <trkpt lat="43.166483" lon="-4.980035">
        <ele>1587.196</ele>
        <time>2021-08-01T20:28:29Z</time>
      </trkpt>
      <trkpt lat="43.166527" lon="-4.980008">
        <ele>1585.050</ele>
        <time>2021-08-01T20:28:40Z</time>
      </trkpt>
      <trkpt lat="43.166534" lon="-4.979944">
        <ele>1583.037</ele>
        <time>2021-08-01T20:28:46Z</time>
      </trkpt>
      <trkpt lat="43.166566" lon="-4.979993">
        <ele>1580.922</ele>
        <time>2021-08-01T20:29:01Z</time>
      </trkpt>
      <trkpt lat="43.166584" lon="-4.980057">
        <ele>1579.612</ele>
        <time>2021-08-01T20:29:12Z</time>
      </trkpt>
      <trkpt lat="43.166628" lon="-4.980093">
        <ele>1577.649</ele>
        <time>2021-08-01T20:29:17Z</time>
      </trkpt>
      <trkpt lat="43.166677" lon="-4.980115">
        <ele>1577.002</ele>
        <time>2021-08-01T20:29:21Z</time>
      </trkpt>
      <trkpt lat="43.166721" lon="-4.980145">
        <ele>1576.422</ele>
        <time>2021-08-01T20:29:34Z</time>
      </trkpt>
      <trkpt lat="43.16673" lon="-4.980212">
        <ele>1576.308</ele>
        <time>2021-08-01T20:29:46Z</time>
      </trkpt>
      <trkpt lat="43.166765" lon="-4.980251">
        <ele>1575.781</ele>
        <time>2021-08-01T20:29:52Z</time>
      </trkpt>
      <trkpt lat="43.166809" lon="-4.980269">
        <ele>1574.283</ele>
        <time>2021-08-01T20:30:07Z</time>
      </trkpt>
      <trkpt lat="43.166823" lon="-4.980329">
        <ele>1573.972</ele>
        <time>2021-08-01T20:30:16Z</time>
      </trkpt>
      <trkpt lat="43.166862" lon="-4.980365">
        <ele>1573.294</ele>
        <time>2021-08-01T20:30:26Z</time>
      </trkpt>
      <trkpt lat="43.166907" lon="-4.980339">
        <ele>1572.078</ele>
        <time>2021-08-01T20:30:32Z</time>
      </trkpt>
      <trkpt lat="43.166952" lon="-4.980336">
        <ele>1571.195</ele>
        <time>2021-08-01T20:30:43Z</time>
      </trkpt>
      <trkpt lat="43.166951" lon="-4.980403">
        <ele>1570.180</ele>
        <time>2021-08-01T20:30:50Z</time>
      </trkpt>
      <trkpt lat="43.166912" lon="-4.980451">
        <ele>1569.310</ele>
        <time>2021-08-01T20:30:55Z</time>
      </trkpt>
      <trkpt lat="43.166905" lon="-4.980516">
        <ele>1568.691</ele>
        <time>2021-08-01T20:31:03Z</time>
      </trkpt>
      <trkpt lat="43.166903" lon="-4.980579">
        <ele>1567.481</ele>
        <time>2021-08-01T20:31:10Z</time>
      </trkpt>
      <trkpt lat="43.166853" lon="-4.980574">
        <ele>1566.619</ele>
        <time>2021-08-01T20:31:14Z</time>
      </trkpt>
      <trkpt lat="43.166817" lon="-4.980614">
        <ele>1565.308</ele>
        <time>2021-08-01T20:31:20Z</time>
      </trkpt>
      <trkpt lat="43.166847" lon="-4.980671">
        <ele>1563.836</ele>
        <time>2021-08-01T20:31:30Z</time>
      </trkpt>
      <trkpt lat="43.166889" lon="-4.980698">
        <ele>1562.918</ele>
        <time>2021-08-01T20:31:49Z</time>
      </trkpt>
      <trkpt lat="43.166893" lon="-4.98076">
        <ele>1561.227</ele>
        <time>2021-08-01T20:31:54Z</time>
      </trkpt>
      <trkpt lat="43.166861" lon="-4.98081">
        <ele>1560.579</ele>
        <time>2021-08-01T20:31:58Z</time>
      </trkpt>
      <trkpt lat="43.16682" lon="-4.980848">
        <ele>1559.953</ele>
        <time>2021-08-01T20:32:07Z</time>
      </trkpt>
      <trkpt lat="43.166816" lon="-4.98091">
        <ele>1558.920</ele>
        <time>2021-08-01T20:32:13Z</time>
      </trkpt>
      <trkpt lat="43.16684" lon="-4.980962">
        <ele>1558.185</ele>
        <time>2021-08-01T20:32:20Z</time>
      </trkpt>
      <trkpt lat="43.166798" lon="-4.980988">
        <ele>1557.325</ele>
        <time>2021-08-01T20:32:25Z</time>
      </trkpt>
      <trkpt lat="43.166839" lon="-4.981017">
        <ele>1556.221</ele>
        <time>2021-08-01T20:32:41Z</time>
      </trkpt>
      <trkpt lat="43.166845" lon="-4.98108">
        <ele>1555.141</ele>
        <time>2021-08-01T20:32:53Z</time>
      </trkpt>
      <trkpt lat="43.166799" lon="-4.98111">
        <ele>1553.705</ele>
        <time>2021-08-01T20:32:58Z</time>
      </trkpt>
      <trkpt lat="43.166767" lon="-4.98116">
        <ele>1552.208</ele>
        <time>2021-08-01T20:33:03Z</time>
      </trkpt>
      <trkpt lat="43.166762" lon="-4.981227">
        <ele>1550.569</ele>
        <time>2021-08-01T20:33:20Z</time>
      </trkpt>
      <trkpt lat="43.166732" lon="-4.981277">
        <ele>1549.991</ele>
        <time>2021-08-01T20:33:26Z</time>
      </trkpt>
      <trkpt lat="43.166715" lon="-4.981339">
        <ele>1548.820</ele>
        <time>2021-08-01T20:33:31Z</time>
      </trkpt>
      <trkpt lat="43.166706" lon="-4.981403">
        <ele>1547.892</ele>
        <time>2021-08-01T20:33:39Z</time>
      </trkpt>
      <trkpt lat="43.166718" lon="-4.981463">
        <ele>1547.386</ele>
        <time>2021-08-01T20:33:49Z</time>
      </trkpt>
      <trkpt lat="43.166755" lon="-4.981507">
        <ele>1545.433</ele>
        <time>2021-08-01T20:33:59Z</time>
      </trkpt>
      <trkpt lat="43.166759" lon="-4.981571">
        <ele>1542.998</ele>
        <time>2021-08-01T20:34:13Z</time>
      </trkpt>
      <trkpt lat="43.166784" lon="-4.981624">
        <ele>1540.568</ele>
        <time>2021-08-01T20:34:55Z</time>
      </trkpt>
      <trkpt lat="43.166823" lon="-4.981676">
        <ele>1538.721</ele>
        <time>2021-08-01T20:35:04Z</time>
      </trkpt>
      <trkpt lat="43.166786" lon="-4.981712">
        <ele>1535.541</ele>
        <time>2021-08-01T20:35:17Z</time>
      </trkpt>
      <trkpt lat="43.166763" lon="-4.981771">
        <ele>1533.405</ele>
        <time>2021-08-01T20:35:24Z</time>
      </trkpt>
      <trkpt lat="43.16678" lon="-4.981828">
        <ele>1530.908</ele>
        <time>2021-08-01T20:35:28Z</time>
      </trkpt>
      <trkpt lat="43.166784" lon="-4.981896">
        <ele>1529.979</ele>
        <time>2021-08-01T20:35:33Z</time>
      </trkpt>
      <trkpt lat="43.166807" lon="-4.981949">
        <ele>1529.081</ele>
        <time>2021-08-01T20:35:39Z</time>
      </trkpt>
      <trkpt lat="43.166813" lon="-4.982012">
        <ele>1528.050</ele>
        <time>2021-08-01T20:35:49Z</time>
      </trkpt>
      <trkpt lat="43.166833" lon="-4.982077">
        <ele>1526.452</ele>
        <time>2021-08-01T20:35:56Z</time>
      </trkpt>
      <trkpt lat="43.166868" lon="-4.982129">
        <ele>1524.586</ele>
        <time>2021-08-01T20:36:14Z</time>
      </trkpt>
      <trkpt lat="43.166848" lon="-4.982189">
        <ele>1522.763</ele>
        <time>2021-08-01T20:36:21Z</time>
      </trkpt>
      <trkpt lat="43.166884" lon="-4.982246">
        <ele>1521.048</ele>
        <time>2021-08-01T20:36:31Z</time>
      </trkpt>
      <trkpt lat="43.166932" lon="-4.982269">
        <ele>1519.818</ele>
        <time>2021-08-01T20:36:34Z</time>
      </trkpt>
      <trkpt lat="43.16699" lon="-4.98227">
        <ele>1519.363</ele>
        <time>2021-08-01T20:36:38Z</time>
      </trkpt>
      <trkpt lat="43.167024" lon="-4.982311">
        <ele>1518.744</ele>
        <time>2021-08-01T20:36:43Z</time>
      </trkpt>
      <trkpt lat="43.167057" lon="-4.98236">
        <ele>1517.818</ele>
        <time>2021-08-01T20:37:02Z</time>
      </trkpt>
      <trkpt lat="43.16709" lon="-4.982304">
        <ele>1516.808</ele>
        <time>2021-08-01T20:37:05Z</time>
      </trkpt>
      <trkpt lat="43.167115" lon="-4.982359">
        <ele>1514.593</ele>
        <time>2021-08-01T20:37:42Z</time>
      </trkpt>
      <trkpt lat="43.167143" lon="-4.982411">
        <ele>1512.935</ele>
        <time>2021-08-01T20:37:58Z</time>
      </trkpt>
      <trkpt lat="43.167155" lon="-4.982477">
        <ele>1511.544</ele>
        <time>2021-08-01T20:38:11Z</time>
      </trkpt>
      <trkpt lat="43.167148" lon="-4.982542">
        <ele>1509.986</ele>
        <time>2021-08-01T20:38:16Z</time>
      </trkpt>
      <trkpt lat="43.167112" lon="-4.982586">
        <ele>1508.410</ele>
        <time>2021-08-01T20:38:27Z</time>
      </trkpt>
      <trkpt lat="43.167067" lon="-4.982623">
        <ele>1507.037</ele>
        <time>2021-08-01T20:38:34Z</time>
      </trkpt>
      <trkpt lat="43.167016" lon="-4.982627">
        <ele>1505.792</ele>
        <time>2021-08-01T20:38:37Z</time>
      </trkpt>
      <trkpt lat="43.167068" lon="-4.982648">
        <ele>1503.782</ele>
        <time>2021-08-01T20:39:00Z</time>
      </trkpt>
      <trkpt lat="43.167094" lon="-4.982699">
        <ele>1502.773</ele>
        <time>2021-08-01T20:39:14Z</time>
      </trkpt>
      <trkpt lat="43.167075" lon="-4.982758">
        <ele>1501.385</ele>
        <time>2021-08-01T20:39:23Z</time>
      </trkpt>
      <trkpt lat="43.167031" lon="-4.982811">
        <ele>1498.513</ele>
        <time>2021-08-01T20:39:31Z</time>
      </trkpt>
      <trkpt lat="43.166997" lon="-4.982856">
        <ele>1496.408</ele>
        <time>2021-08-01T20:39:35Z</time>
      </trkpt>
      <trkpt lat="43.166952" lon="-4.98287">
        <ele>1494.364</ele>
        <time>2021-08-01T20:41:01Z</time>
      </trkpt>
      <trkpt lat="43.166958" lon="-4.982934">
        <ele>1492.136</ele>
        <time>2021-08-01T20:42:03Z</time>
      </trkpt>
      <trkpt lat="43.166907" lon="-4.982936">
        <ele>1488.535</ele>
        <time>2021-08-01T20:42:20Z</time>
      </trkpt>
      <trkpt lat="43.166863" lon="-4.982955">
        <ele>1487.147</ele>
        <time>2021-08-01T20:42:26Z</time>
      </trkpt>
      <trkpt lat="43.166886" lon="-4.983009">
        <ele>1486.441</ele>
        <time>2021-08-01T20:42:38Z</time>
      </trkpt>
      <trkpt lat="43.166922" lon="-4.983053">
        <ele>1485.668</ele>
        <time>2021-08-01T20:42:48Z</time>
      </trkpt>
      <trkpt lat="43.166962" lon="-4.983087">
        <ele>1485.863</ele>
        <time>2021-08-01T20:42:54Z</time>
      </trkpt>
      <trkpt lat="43.16694" lon="-4.983144">
        <ele>1485.623</ele>
        <time>2021-08-01T20:43:01Z</time>
      </trkpt>
      <trkpt lat="43.166948" lon="-4.98321">
        <ele>1485.136</ele>
        <time>2021-08-01T20:43:12Z</time>
      </trkpt>
      <trkpt lat="43.166927" lon="-4.983283">
        <ele>1484.217</ele>
        <time>2021-08-01T20:43:22Z</time>
      </trkpt>
      <trkpt lat="43.166928" lon="-4.983347">
        <ele>1482.618</ele>
        <time>2021-08-01T20:43:30Z</time>
      </trkpt>
      <trkpt lat="43.16692" lon="-4.98341">
        <ele>1481.308</ele>
        <time>2021-08-01T20:43:36Z</time>
      </trkpt>
      <trkpt lat="43.166876" lon="-4.983429">
        <ele>1480.080</ele>
        <time>2021-08-01T20:43:41Z</time>
      </trkpt>
      <trkpt lat="43.166831" lon="-4.983475">
        <ele>1479.092</ele>
        <time>2021-08-01T20:43:47Z</time>
      </trkpt>
      <trkpt lat="43.166793" lon="-4.983509">
        <ele>1477.611</ele>
        <time>2021-08-01T20:43:53Z</time>
      </trkpt>
      <trkpt lat="43.166788" lon="-4.983571">
        <ele>1476.783</ele>
        <time>2021-08-01T20:43:58Z</time>
      </trkpt>
      <trkpt lat="43.166779" lon="-4.983632">
        <ele>1475.737</ele>
        <time>2021-08-01T20:44:05Z</time>
      </trkpt>
      <trkpt lat="43.166753" lon="-4.983686">
        <ele>1474.794</ele>
        <time>2021-08-01T20:44:16Z</time>
      </trkpt>
      <trkpt lat="43.166782" lon="-4.983738">
        <ele>1473.419</ele>
        <time>2021-08-01T20:44:29Z</time>
      </trkpt>
      <trkpt lat="43.16683" lon="-4.983746">
        <ele>1472.129</ele>
        <time>2021-08-01T20:44:36Z</time>
      </trkpt>
      <trkpt lat="43.166851" lon="-4.983806">
        <ele>1470.231</ele>
        <time>2021-08-01T20:44:42Z</time>
      </trkpt>
      <trkpt lat="43.166835" lon="-4.983877">
        <ele>1466.361</ele>
        <time>2021-08-01T20:45:01Z</time>
      </trkpt>
      <trkpt lat="43.166825" lon="-4.983941">
        <ele>1462.307</ele>
        <time>2021-08-01T20:45:12Z</time>
      </trkpt>
      <trkpt lat="43.166843" lon="-4.983998">
        <ele>1459.408</ele>
        <time>2021-08-01T20:45:16Z</time>
      </trkpt>
      <trkpt lat="43.166801" lon="-4.984021">
        <ele>1456.690</ele>
        <time>2021-08-01T20:45:23Z</time>
      </trkpt>
      <trkpt lat="43.166795" lon="-4.984096">
        <ele>1453.692</ele>
        <time>2021-08-01T20:45:31Z</time>
      </trkpt>
      <trkpt lat="43.166813" lon="-4.98416">
        <ele>1451.491</ele>
        <time>2021-08-01T20:45:41Z</time>
      </trkpt>
      <trkpt lat="43.166773" lon="-4.984205">
        <ele>1450.083</ele>
        <time>2021-08-01T20:45:46Z</time>
      </trkpt>
      <trkpt lat="43.166729" lon="-4.984223">
        <ele>1447.117</ele>
        <time>2021-08-01T20:46:03Z</time>
      </trkpt>
      <trkpt lat="43.166687" lon="-4.984255">
        <ele>1446.484</ele>
        <time>2021-08-01T20:46:08Z</time>
      </trkpt>
      <trkpt lat="43.166693" lon="-4.984321">
        <ele>1445.359</ele>
        <time>2021-08-01T20:46:15Z</time>
      </trkpt>
      <trkpt lat="43.166695" lon="-4.98439">
        <ele>1443.929</ele>
        <time>2021-08-01T20:46:23Z</time>
      </trkpt>
      <trkpt lat="43.166661" lon="-4.984435">
        <ele>1443.244</ele>
        <time>2021-08-01T20:46:28Z</time>
      </trkpt>
      <trkpt lat="43.166629" lon="-4.984485">
        <ele>1442.405</ele>
        <time>2021-08-01T20:46:33Z</time>
      </trkpt>
      <trkpt lat="43.166633" lon="-4.984547">
        <ele>1442.215</ele>
        <time>2021-08-01T20:46:41Z</time>
      </trkpt>
      <trkpt lat="43.16664" lon="-4.98461">
        <ele>1441.608</ele>
        <time>2021-08-01T20:46:46Z</time>
      </trkpt>
      <trkpt lat="43.166622" lon="-4.984676">
        <ele>1442.661</ele>
        <time>2021-08-01T20:46:52Z</time>
      </trkpt>
      <trkpt lat="43.166595" lon="-4.984733">
        <ele>1442.993</ele>
        <time>2021-08-01T20:46:56Z</time>
      </trkpt>
      <trkpt lat="43.166556" lon="-4.984772">
        <ele>1442.942</ele>
        <time>2021-08-01T20:47:00Z</time>
      </trkpt>
      <trkpt lat="43.166554" lon="-4.984835">
        <ele>1443.414</ele>
        <time>2021-08-01T20:47:05Z</time>
      </trkpt>
      <trkpt lat="43.166577" lon="-4.984894">
        <ele>1444.148</ele>
        <time>2021-08-01T20:47:09Z</time>
      </trkpt>
      <trkpt lat="43.166576" lon="-4.98496">
        <ele>1445.355</ele>
        <time>2021-08-01T20:47:14Z</time>
      </trkpt>
      <trkpt lat="43.166541" lon="-4.985013">
        <ele>1446.780</ele>
        <time>2021-08-01T20:47:22Z</time>
      </trkpt>
      <trkpt lat="43.166561" lon="-4.985072">
        <ele>1447.790</ele>
        <time>2021-08-01T20:47:39Z</time>
      </trkpt>
      <trkpt lat="43.16654" lon="-4.985128">
        <ele>1448.358</ele>
        <time>2021-08-01T20:47:49Z</time>
      </trkpt>
      <trkpt lat="43.166506" lon="-4.985176">
        <ele>1448.052</ele>
        <time>2021-08-01T20:47:58Z</time>
      </trkpt>
      <trkpt lat="43.166482" lon="-4.985244">
        <ele>1447.917</ele>
        <time>2021-08-01T20:48:03Z</time>
      </trkpt>
      <trkpt lat="43.166483" lon="-4.985306">
        <ele>1447.608</ele>
        <time>2021-08-01T20:48:08Z</time>
      </trkpt>
      <trkpt lat="43.166441" lon="-4.985331">
        <ele>1447.142</ele>
        <time>2021-08-01T20:48:15Z</time>
      </trkpt>
      <trkpt lat="43.166424" lon="-4.985388">
        <ele>1446.974</ele>
        <time>2021-08-01T20:48:20Z</time>
      </trkpt>
      <trkpt lat="43.166417" lon="-4.985457">
        <ele>1446.063</ele>
        <time>2021-08-01T20:48:27Z</time>
      </trkpt>
      <trkpt lat="43.166408" lon="-4.985522">
        <ele>1444.525</ele>
        <time>2021-08-01T20:48:33Z</time>
      </trkpt>
      <trkpt lat="43.166402" lon="-4.985592">
        <ele>1442.629</ele>
        <time>2021-08-01T20:48:38Z</time>
      </trkpt>
      <trkpt lat="43.166397" lon="-4.985657">
        <ele>1441.766</ele>
        <time>2021-08-01T20:48:43Z</time>
      </trkpt>
      <trkpt lat="43.166403" lon="-4.985719">
        <ele>1440.521</ele>
        <time>2021-08-01T20:48:50Z</time>
      </trkpt>
      <trkpt lat="43.166427" lon="-4.985772">
        <ele>1439.061</ele>
        <time>2021-08-01T20:48:56Z</time>
      </trkpt>
      <trkpt lat="43.166458" lon="-4.985821">
        <ele>1436.888</ele>
        <time>2021-08-01T20:49:02Z</time>
      </trkpt>
      <trkpt lat="43.16648" lon="-4.985877">
        <ele>1435.524</ele>
        <time>2021-08-01T20:49:08Z</time>
      </trkpt>
      <trkpt lat="43.16646" lon="-4.985933">
        <ele>1434.426</ele>
        <time>2021-08-01T20:49:14Z</time>
      </trkpt>
      <trkpt lat="43.166405" lon="-4.985932">
        <ele>1433.208</ele>
        <time>2021-08-01T20:49:19Z</time>
      </trkpt>
      <trkpt lat="43.166365" lon="-4.985898">
        <ele>1432.045</ele>
        <time>2021-08-01T20:49:25Z</time>
      </trkpt>
      <trkpt lat="43.166338" lon="-4.985957">
        <ele>1431.357</ele>
        <time>2021-08-01T20:49:32Z</time>
      </trkpt>
      <trkpt lat="43.166304" lon="-4.986004">
        <ele>1429.586</ele>
        <time>2021-08-01T20:49:41Z</time>
      </trkpt>
      <trkpt lat="43.166292" lon="-4.986067">
        <ele>1428.418</ele>
        <time>2021-08-01T20:49:47Z</time>
      </trkpt>
      <trkpt lat="43.166295" lon="-4.986132">
        <ele>1427.152</ele>
        <time>2021-08-01T20:49:52Z</time>
      </trkpt>
      <trkpt lat="43.166269" lon="-4.986185">
        <ele>1425.939</ele>
        <time>2021-08-01T20:49:57Z</time>
      </trkpt>
      <trkpt lat="43.166227" lon="-4.986214">
        <ele>1425.084</ele>
        <time>2021-08-01T20:50:02Z</time>
      </trkpt>
      <trkpt lat="43.166231" lon="-4.986279">
        <ele>1423.424</ele>
        <time>2021-08-01T20:50:09Z</time>
      </trkpt>
      <trkpt lat="43.166238" lon="-4.986343">
        <ele>1422.418</ele>
        <time>2021-08-01T20:50:15Z</time>
      </trkpt>
      <trkpt lat="43.166215" lon="-4.986403">
        <ele>1421.498</ele>
        <time>2021-08-01T20:50:19Z</time>
      </trkpt>
      <trkpt lat="43.166201" lon="-4.986469">
        <ele>1420.017</ele>
        <time>2021-08-01T20:50:24Z</time>
      </trkpt>
      <trkpt lat="43.166201" lon="-4.986542">
        <ele>1419.208</ele>
        <time>2021-08-01T20:50:30Z</time>
      </trkpt>
      <trkpt lat="43.166154" lon="-4.986564">
        <ele>1417.868</ele>
        <time>2021-08-01T20:50:39Z</time>
      </trkpt>
      <trkpt lat="43.166169" lon="-4.986623">
        <ele>1416.390</ele>
        <time>2021-08-01T20:51:03Z</time>
      </trkpt>
      <trkpt lat="43.166171" lon="-4.986691">
        <ele>1414.739</ele>
        <time>2021-08-01T20:51:11Z</time>
      </trkpt>
      <trkpt lat="43.166203" lon="-4.986734">
        <ele>1413.041</ele>
        <time>2021-08-01T20:51:17Z</time>
      </trkpt>
      <trkpt lat="43.166172" lon="-4.986783">
        <ele>1411.775</ele>
        <time>2021-08-01T20:51:37Z</time>
      </trkpt>
      <trkpt lat="43.166159" lon="-4.986843">
        <ele>1411.622</ele>
        <time>2021-08-01T20:52:15Z</time>
      </trkpt>
      <trkpt lat="43.166136" lon="-4.986898">
        <ele>1411.067</ele>
        <time>2021-08-01T20:52:19Z</time>
      </trkpt>
      <trkpt lat="43.166095" lon="-4.986926">
        <ele>1411.037</ele>
        <time>2021-08-01T20:52:24Z</time>
      </trkpt>
      <trkpt lat="43.16605" lon="-4.986906">
        <ele>1411.785</ele>
        <time>2021-08-01T20:52:29Z</time>
      </trkpt>
      <trkpt lat="43.16601" lon="-4.986877">
        <ele>1410.989</ele>
        <time>2021-08-01T20:52:33Z</time>
      </trkpt>
      <trkpt lat="43.165964" lon="-4.986906">
        <ele>1409.517</ele>
        <time>2021-08-01T20:52:39Z</time>
      </trkpt>
      <trkpt lat="43.165926" lon="-4.986945">
        <ele>1407.908</ele>
        <time>2021-08-01T20:52:44Z</time>
      </trkpt>
      <trkpt lat="43.165906" lon="-4.987003">
        <ele>1405.815</ele>
        <time>2021-08-01T20:52:55Z</time>
      </trkpt>
      <trkpt lat="43.165867" lon="-4.987042">
        <ele>1403.037</ele>
        <time>2021-08-01T20:53:04Z</time>
      </trkpt>
      <trkpt lat="43.165827" lon="-4.987011">
        <ele>1400.696</ele>
        <time>2021-08-01T20:53:18Z</time>
      </trkpt>
      <trkpt lat="43.165781" lon="-4.987032">
        <ele>1399.088</ele>
        <time>2021-08-01T20:53:31Z</time>
      </trkpt>
      <trkpt lat="43.165737" lon="-4.987008">
        <ele>1398.552</ele>
        <time>2021-08-01T20:53:38Z</time>
      </trkpt>
      <trkpt lat="43.165703" lon="-4.987056">
        <ele>1398.469</ele>
        <time>2021-08-01T20:54:07Z</time>
      </trkpt>
      <trkpt lat="43.165677" lon="-4.987112">
        <ele>1399.114</ele>
        <time>2021-08-01T20:54:12Z</time>
      </trkpt>
      <trkpt lat="43.165633" lon="-4.98714">
        <ele>1399.394</ele>
        <time>2021-08-01T20:54:16Z</time>
      </trkpt>
      <trkpt lat="43.165591" lon="-4.987177">
        <ele>1399.778</ele>
        <time>2021-08-01T20:54:21Z</time>
      </trkpt>
      <trkpt lat="43.165564" lon="-4.987227">
        <ele>1399.833</ele>
        <time>2021-08-01T20:54:25Z</time>
      </trkpt>
      <trkpt lat="43.165554" lon="-4.987288">
        <ele>1399.926</ele>
        <time>2021-08-01T20:54:31Z</time>
      </trkpt>
      <trkpt lat="43.165509" lon="-4.987297">
        <ele>1399.608</ele>
        <time>2021-08-01T20:54:40Z</time>
      </trkpt>
      <trkpt lat="43.165504" lon="-4.98736">
        <ele>1398.974</ele>
        <time>2021-08-01T20:54:47Z</time>
      </trkpt>
      <trkpt lat="43.165455" lon="-4.987366">
        <ele>1397.856</ele>
        <time>2021-08-01T20:54:58Z</time>
      </trkpt>
      <trkpt lat="43.165445" lon="-4.987426">
        <ele>1395.785</ele>
        <time>2021-08-01T20:55:17Z</time>
      </trkpt>
      <trkpt lat="43.16545" lon="-4.987489">
        <ele>1393.847</ele>
        <time>2021-08-01T20:55:40Z</time>
      </trkpt>
      <trkpt lat="43.165463" lon="-4.987552">
        <ele>1393.191</ele>
        <time>2021-08-01T20:55:46Z</time>
      </trkpt>
      <trkpt lat="43.165467" lon="-4.987617">
        <ele>1392.488</ele>
        <time>2021-08-01T20:55:53Z</time>
      </trkpt>
      <trkpt lat="43.165452" lon="-4.987679">
        <ele>1391.523</ele>
        <time>2021-08-01T20:55:59Z</time>
      </trkpt>
      <trkpt lat="43.165431" lon="-4.987741">
        <ele>1391.183</ele>
        <time>2021-08-01T20:56:06Z</time>
      </trkpt>
      <trkpt lat="43.165405" lon="-4.987794">
        <ele>1390.086</ele>
        <time>2021-08-01T20:56:12Z</time>
      </trkpt>
      <trkpt lat="43.165443" lon="-4.98784">
        <ele>1389.860</ele>
        <time>2021-08-01T20:56:19Z</time>
      </trkpt>
      <trkpt lat="43.165448" lon="-4.987904">
        <ele>1388.526</ele>
        <time>2021-08-01T20:56:29Z</time>
      </trkpt>
      <trkpt lat="43.165445" lon="-4.987966">
        <ele>1387.108</ele>
        <time>2021-08-01T20:56:37Z</time>
      </trkpt>
      <trkpt lat="43.1654" lon="-4.987978">
        <ele>1386.545</ele>
        <time>2021-08-01T20:56:42Z</time>
      </trkpt>
      <trkpt lat="43.165354" lon="-4.987964">
        <ele>1385.567</ele>
        <time>2021-08-01T20:56:48Z</time>
      </trkpt>
      <trkpt lat="43.165351" lon="-4.988036">
        <ele>1385.126</ele>
        <time>2021-08-01T20:56:56Z</time>
      </trkpt>
      <trkpt lat="43.165385" lon="-4.988078">
        <ele>1384.418</ele>
        <time>2021-08-01T20:57:04Z</time>
      </trkpt>
      <trkpt lat="43.165368" lon="-4.988138">
        <ele>1383.432</ele>
        <time>2021-08-01T20:57:14Z</time>
      </trkpt>
      <trkpt lat="43.165337" lon="-4.988183">
        <ele>1382.779</ele>
        <time>2021-08-01T20:57:21Z</time>
      </trkpt>
      <trkpt lat="43.165314" lon="-4.988248">
        <ele>1382.884</ele>
        <time>2021-08-01T20:57:26Z</time>
      </trkpt>
      <trkpt lat="43.165267" lon="-4.988293">
        <ele>1382.334</ele>
        <time>2021-08-01T20:57:30Z</time>
      </trkpt>
      <trkpt lat="43.165217" lon="-4.988318">
        <ele>1381.532</ele>
        <time>2021-08-01T20:57:35Z</time>
      </trkpt>
      <trkpt lat="43.165199" lon="-4.988377">
        <ele>1380.292</ele>
        <time>2021-08-01T20:57:40Z</time>
      </trkpt>
      <trkpt lat="43.165219" lon="-4.988449">
        <ele>1379.411</ele>
        <time>2021-08-01T20:57:45Z</time>
      </trkpt>
      <trkpt lat="43.165227" lon="-4.988521">
        <ele>1378.308</ele>
        <time>2021-08-01T20:57:50Z</time>
      </trkpt>
      <trkpt lat="43.165256" lon="-4.98857">
        <ele>1377.170</ele>
        <time>2021-08-01T20:57:57Z</time>
      </trkpt>
      <trkpt lat="43.165243" lon="-4.98863">
        <ele>1375.242</ele>
        <time>2021-08-01T20:58:10Z</time>
      </trkpt>
      <trkpt lat="43.165243" lon="-4.988694">
        <ele>1373.531</ele>
        <time>2021-08-01T20:58:16Z</time>
      </trkpt>
      <trkpt lat="43.165259" lon="-4.988756">
        <ele>1372.683</ele>
        <time>2021-08-01T20:58:22Z</time>
      </trkpt>
      <trkpt lat="43.165221" lon="-4.98882">
        <ele>1371.847</ele>
        <time>2021-08-01T20:58:27Z</time>
      </trkpt>
      <trkpt lat="43.165179" lon="-4.988842">
        <ele>1370.744</ele>
        <time>2021-08-01T20:58:33Z</time>
      </trkpt>
      <trkpt lat="43.1652" lon="-4.9889">
        <ele>1370.519</ele>
        <time>2021-08-01T20:58:39Z</time>
      </trkpt>
      <trkpt lat="43.165238" lon="-4.988938">
        <ele>1369.629</ele>
        <time>2021-08-01T20:58:44Z</time>
      </trkpt>
      <trkpt lat="43.165249" lon="-4.989">
        <ele>1368.228</ele>
        <time>2021-08-01T20:58:52Z</time>
      </trkpt>
      <trkpt lat="43.165264" lon="-4.98907">
        <ele>1367.389</ele>
        <time>2021-08-01T20:58:58Z</time>
      </trkpt>
      <trkpt lat="43.165248" lon="-4.989131">
        <ele>1366.817</ele>
        <time>2021-08-01T20:59:04Z</time>
      </trkpt>
      <trkpt lat="43.165207" lon="-4.989157">
        <ele>1365.708</ele>
        <time>2021-08-01T20:59:08Z</time>
      </trkpt>
      <trkpt lat="43.165198" lon="-4.989222">
        <ele>1364.499</ele>
        <time>2021-08-01T20:59:16Z</time>
      </trkpt>
      <trkpt lat="43.165193" lon="-4.989287">
        <ele>1362.681</ele>
        <time>2021-08-01T20:59:24Z</time>
      </trkpt>
      <trkpt lat="43.16523" lon="-4.989323">
        <ele>1361.430</ele>
        <time>2021-08-01T20:59:30Z</time>
      </trkpt>
      <trkpt lat="43.165261" lon="-4.989372">
        <ele>1360.862</ele>
        <time>2021-08-01T20:59:36Z</time>
      </trkpt>
      <trkpt lat="43.165231" lon="-4.989425">
        <ele>1360.536</ele>
        <time>2021-08-01T20:59:40Z</time>
      </trkpt>
      <trkpt lat="43.165264" lon="-4.989472">
        <ele>1360.053</ele>
        <time>2021-08-01T20:59:47Z</time>
      </trkpt>
      <trkpt lat="43.16531" lon="-4.989496">
        <ele>1359.618</ele>
        <time>2021-08-01T20:59:52Z</time>
      </trkpt>
      <trkpt lat="43.165328" lon="-4.98956">
        <ele>1359.428</ele>
        <time>2021-08-01T20:59:56Z</time>
      </trkpt>
      <trkpt lat="43.165331" lon="-4.989627">
        <ele>1358.812</ele>
        <time>2021-08-01T21:00:00Z</time>
      </trkpt>
      <trkpt lat="43.165293" lon="-4.989664">
        <ele>1358.432</ele>
        <time>2021-08-01T21:00:06Z</time>
      </trkpt>
      <trkpt lat="43.165289" lon="-4.989727">
        <ele>1357.505</ele>
        <time>2021-08-01T21:00:12Z</time>
      </trkpt>
      <trkpt lat="43.165326" lon="-4.989769">
        <ele>1356.308</ele>
        <time>2021-08-01T21:00:17Z</time>
      </trkpt>
      <trkpt lat="43.165368" lon="-4.989793">
        <ele>1355.828</ele>
        <time>2021-08-01T21:00:23Z</time>
      </trkpt>
      <trkpt lat="43.165382" lon="-4.989858">
        <ele>1355.320</ele>
        <time>2021-08-01T21:00:29Z</time>
      </trkpt>
      <trkpt lat="43.165394" lon="-4.989921">
        <ele>1354.529</ele>
        <time>2021-08-01T21:00:36Z</time>
      </trkpt>
      <trkpt lat="43.165438" lon="-4.989946">
        <ele>1353.711</ele>
        <time>2021-08-01T21:00:43Z</time>
      </trkpt>
      <trkpt lat="43.165472" lon="-4.989995">
        <ele>1352.545</ele>
        <time>2021-08-01T21:00:48Z</time>
      </trkpt>
      <trkpt lat="43.165511" lon="-4.990026">
        <ele>1351.482</ele>
        <time>2021-08-01T21:00:56Z</time>
      </trkpt>
      <trkpt lat="43.165557" lon="-4.990049">
        <ele>1350.577</ele>
        <time>2021-08-01T21:00:59Z</time>
      </trkpt>
      <trkpt lat="43.165587" lon="-4.9901">
        <ele>1349.727</ele>
        <time>2021-08-01T21:01:04Z</time>
      </trkpt>
      <trkpt lat="43.165594" lon="-4.990166">
        <ele>1348.124</ele>
        <time>2021-08-01T21:01:11Z</time>
      </trkpt>
      <trkpt lat="43.165618" lon="-4.990228">
        <ele>1345.904</ele>
        <time>2021-08-01T21:01:24Z</time>
      </trkpt>
      <trkpt lat="43.165638" lon="-4.990286">
        <ele>1343.514</ele>
        <time>2021-08-01T21:01:30Z</time>
      </trkpt>
      <trkpt lat="43.165633" lon="-4.990349">
        <ele>1342.208</ele>
        <time>2021-08-01T21:01:38Z</time>
      </trkpt>
      <trkpt lat="43.165583" lon="-4.990359">
        <ele>1341.299</ele>
        <time>2021-08-01T21:01:44Z</time>
      </trkpt>
      <trkpt lat="43.16558" lon="-4.990297">
        <ele>1340.311</ele>
        <time>2021-08-01T21:01:49Z</time>
      </trkpt>
      <trkpt lat="43.165569" lon="-4.990359">
        <ele>1340.280</ele>
        <time>2021-08-01T21:02:01Z</time>
      </trkpt>
      <trkpt lat="43.165577" lon="-4.990423">
        <ele>1339.622</ele>
        <time>2021-08-01T21:02:04Z</time>
      </trkpt>
      <trkpt lat="43.165556" lon="-4.99048">
        <ele>1339.286</ele>
        <time>2021-08-01T21:02:09Z</time>
      </trkpt>
      <trkpt lat="43.165554" lon="-4.990546">
        <ele>1338.973</ele>
        <time>2021-08-01T21:02:14Z</time>
      </trkpt>
      <trkpt lat="43.165556" lon="-4.990618">
        <ele>1339.118</ele>
        <time>2021-08-01T21:02:19Z</time>
      </trkpt>
      <trkpt lat="43.165546" lon="-4.990687">
        <ele>1338.768</ele>
        <time>2021-08-01T21:02:25Z</time>
      </trkpt>
      <trkpt lat="43.165542" lon="-4.990756">
        <ele>1338.677</ele>
        <time>2021-08-01T21:02:31Z</time>
      </trkpt>
      <trkpt lat="43.165572" lon="-4.990826">
        <ele>1337.861</ele>
        <time>2021-08-01T21:02:37Z</time>
      </trkpt>
      <trkpt lat="43.165618" lon="-4.990846">
        <ele>1335.827</ele>
        <time>2021-08-01T21:02:50Z</time>
      </trkpt>
      <trkpt lat="43.165655" lon="-4.990883">
        <ele>1334.108</ele>
        <time>2021-08-01T21:02:56Z</time>
      </trkpt>
      <trkpt lat="43.165615" lon="-4.99092">
        <ele>1331.254</ele>
        <time>2021-08-01T21:03:46Z</time>
      </trkpt>
      <trkpt lat="43.165577" lon="-4.990954">
        <ele>1330.266</ele>
        <time>2021-08-01T21:03:52Z</time>
      </trkpt>
      <trkpt lat="43.165596" lon="-4.991011">
        <ele>1330.865</ele>
        <time>2021-08-01T21:04:04Z</time>
      </trkpt>
      <trkpt lat="43.165618" lon="-4.991074">
        <ele>1330.977</ele>
        <time>2021-08-01T21:04:14Z</time>
      </trkpt>
      <trkpt lat="43.165636" lon="-4.991142">
        <ele>1331.041</ele>
        <time>2021-08-01T21:04:20Z</time>
      </trkpt>
      <trkpt lat="43.165646" lon="-4.991209">
        <ele>1331.428</ele>
        <time>2021-08-01T21:04:27Z</time>
      </trkpt>
      <trkpt lat="43.165647" lon="-4.991272">
        <ele>1331.123</ele>
        <time>2021-08-01T21:04:33Z</time>
      </trkpt>
      <trkpt lat="43.165669" lon="-4.991342">
        <ele>1330.683</ele>
        <time>2021-08-01T21:04:39Z</time>
      </trkpt>
      <trkpt lat="43.165676" lon="-4.991413">
        <ele>1330.458</ele>
        <time>2021-08-01T21:04:46Z</time>
      </trkpt>
      <trkpt lat="43.165672" lon="-4.991475">
        <ele>1329.652</ele>
        <time>2021-08-01T21:04:57Z</time>
      </trkpt>
      <trkpt lat="43.165668" lon="-4.991543">
        <ele>1329.617</ele>
        <time>2021-08-01T21:05:03Z</time>
      </trkpt>
      <trkpt lat="43.165693" lon="-4.99161">
        <ele>1329.008</ele>
        <time>2021-08-01T21:05:09Z</time>
      </trkpt>
      <trkpt lat="43.165722" lon="-4.991659">
        <ele>1328.922</ele>
        <time>2021-08-01T21:05:14Z</time>
      </trkpt>
      <trkpt lat="43.165758" lon="-4.9917">
        <ele>1327.924</ele>
        <time>2021-08-01T21:05:28Z</time>
      </trkpt>
      <trkpt lat="43.165788" lon="-4.991749">
        <ele>1326.433</ele>
        <time>2021-08-01T21:05:37Z</time>
      </trkpt>
      <trkpt lat="43.165812" lon="-4.991823">
        <ele>1324.995</ele>
        <time>2021-08-01T21:05:57Z</time>
      </trkpt>
      <trkpt lat="43.165841" lon="-4.991878">
        <ele>1323.889</ele>
        <time>2021-08-01T21:06:11Z</time>
      </trkpt>
      <trkpt lat="43.165867" lon="-4.991932">
        <ele>1323.336</ele>
        <time>2021-08-01T21:06:21Z</time>
      </trkpt>
      <trkpt lat="43.16587" lon="-4.992001">
        <ele>1323.531</ele>
        <time>2021-08-01T21:06:36Z</time>
      </trkpt>
      <trkpt lat="43.165898" lon="-4.992062">
        <ele>1323.521</ele>
        <time>2021-08-01T21:06:42Z</time>
      </trkpt>
      <trkpt lat="43.165928" lon="-4.992125">
        <ele>1323.759</ele>
        <time>2021-08-01T21:06:48Z</time>
      </trkpt>
      <trkpt lat="43.165966" lon="-4.992169">
        <ele>1324.303</ele>
        <time>2021-08-01T21:06:52Z</time>
      </trkpt>
      <trkpt lat="43.166006" lon="-4.9922">
        <ele>1323.723</ele>
        <time>2021-08-01T21:06:56Z</time>
      </trkpt>
      <trkpt lat="43.16605" lon="-4.992229">
        <ele>1323.708</ele>
        <time>2021-08-01T21:07:01Z</time>
      </trkpt>
      <trkpt lat="43.166096" lon="-4.992261">
        <ele>1323.662</ele>
        <time>2021-08-01T21:07:07Z</time>
      </trkpt>
      <trkpt lat="43.16613" lon="-4.992316">
        <ele>1323.584</ele>
        <time>2021-08-01T21:07:20Z</time>
      </trkpt>
      <trkpt lat="43.166173" lon="-4.992358">
        <ele>1323.463</ele>
        <time>2021-08-01T21:07:26Z</time>
      </trkpt>
      <trkpt lat="43.166197" lon="-4.992417">
        <ele>1323.445</ele>
        <time>2021-08-01T21:07:32Z</time>
      </trkpt>
      <trkpt lat="43.166212" lon="-4.992478">
        <ele>1323.469</ele>
        <time>2021-08-01T21:07:39Z</time>
      </trkpt>
      <trkpt lat="43.166239" lon="-4.99253">
        <ele>1323.016</ele>
        <time>2021-08-01T21:07:45Z</time>
      </trkpt>
      <trkpt lat="43.166261" lon="-4.992595">
        <ele>1322.231</ele>
        <time>2021-08-01T21:07:51Z</time>
      </trkpt>
      <trkpt lat="43.166275" lon="-4.992658">
        <ele>1321.751</ele>
        <time>2021-08-01T21:07:59Z</time>
      </trkpt>
      <trkpt lat="43.166302" lon="-4.99271">
        <ele>1322.088</ele>
        <time>2021-08-01T21:08:10Z</time>
      </trkpt>
      <trkpt lat="43.166333" lon="-4.992758">
        <ele>1322.224</ele>
        <time>2021-08-01T21:08:17Z</time>
      </trkpt>
      <trkpt lat="43.166367" lon="-4.992811">
        <ele>1321.526</ele>
        <time>2021-08-01T21:08:24Z</time>
      </trkpt>
      <trkpt lat="43.166413" lon="-4.992836">
        <ele>1321.208</ele>
        <time>2021-08-01T21:08:29Z</time>
      </trkpt>
      <trkpt lat="43.16644" lon="-4.992892">
        <ele>1321.255</ele>
        <time>2021-08-01T21:08:34Z</time>
      </trkpt>
      <trkpt lat="43.16648" lon="-4.992932">
        <ele>1321.147</ele>
        <time>2021-08-01T21:08:41Z</time>
      </trkpt>
      <trkpt lat="43.166528" lon="-4.992953">
        <ele>1321.216</ele>
        <time>2021-08-01T21:08:46Z</time>
      </trkpt>
      <trkpt lat="43.166575" lon="-4.992971">
        <ele>1321.168</ele>
        <time>2021-08-01T21:08:53Z</time>
      </trkpt>
      <trkpt lat="43.16661" lon="-4.993017">
        <ele>1320.972</ele>
        <time>2021-08-01T21:09:01Z</time>
      </trkpt>
      <trkpt lat="43.166644" lon="-4.993062">
        <ele>1321.059</ele>
        <time>2021-08-01T21:09:04Z</time>
      </trkpt>
      <trkpt lat="43.16668" lon="-4.99311">
        <ele>1321.554</ele>
        <time>2021-08-01T21:09:09Z</time>
      </trkpt>
      <trkpt lat="43.16671" lon="-4.993163">
        <ele>1322.014</ele>
        <time>2021-08-01T21:09:13Z</time>
      </trkpt>
      <trkpt lat="43.166755" lon="-4.993199">
        <ele>1321.685</ele>
        <time>2021-08-01T21:09:19Z</time>
      </trkpt>
      <trkpt lat="43.166787" lon="-4.993245">
        <ele>1321.389</ele>
        <time>2021-08-01T21:09:23Z</time>
      </trkpt>
      <trkpt lat="43.166836" lon="-4.99325">
        <ele>1321.017</ele>
        <time>2021-08-01T21:09:29Z</time>
      </trkpt>
      <trkpt lat="43.166872" lon="-4.99329">
        <ele>1320.908</ele>
        <time>2021-08-01T21:09:35Z</time>
      </trkpt>
      <trkpt lat="43.166896" lon="-4.993351">
        <ele>1321.195</ele>
        <time>2021-08-01T21:09:42Z</time>
      </trkpt>
      <trkpt lat="43.16692" lon="-4.993419">
        <ele>1321.077</ele>
        <time>2021-08-01T21:09:48Z</time>
      </trkpt>
      <trkpt lat="43.166874" lon="-4.993434">
        <ele>1320.956</ele>
        <time>2021-08-01T21:09:56Z</time>
      </trkpt>
      <trkpt lat="43.166878" lon="-4.993495">
        <ele>1320.518</ele>
        <time>2021-08-01T21:10:19Z</time>
      </trkpt>
      <trkpt lat="43.166866" lon="-4.993559">
        <ele>1320.042</ele>
        <time>2021-08-01T21:10:27Z</time>
      </trkpt>
      <trkpt lat="43.166884" lon="-4.993625">
        <ele>1320.289</ele>
        <time>2021-08-01T21:10:31Z</time>
      </trkpt>
      <trkpt lat="43.166886" lon="-4.993692">
        <ele>1320.294</ele>
        <time>2021-08-01T21:10:35Z</time>
      </trkpt>
      <trkpt lat="43.166886" lon="-4.993758">
        <ele>1320.494</ele>
        <time>2021-08-01T21:10:38Z</time>
      </trkpt>
      <trkpt lat="43.166902" lon="-4.993819">
        <ele>1320.734</ele>
        <time>2021-08-01T21:10:43Z</time>
      </trkpt>
      <trkpt lat="43.166894" lon="-4.993883">
        <ele>1321.355</ele>
        <time>2021-08-01T21:10:48Z</time>
      </trkpt>
      <trkpt lat="43.166909" lon="-4.993941">
        <ele>1321.210</ele>
        <time>2021-08-01T21:10:53Z</time>
      </trkpt>
      <trkpt lat="43.166947" lon="-4.993977">
        <ele>1321.708</ele>
        <time>2021-08-01T21:10:58Z</time>
      </trkpt>
      <trkpt lat="43.166992" lon="-4.99396">
        <ele>1322.260</ele>
        <time>2021-08-01T21:11:09Z</time>
      </trkpt>
      <trkpt lat="43.167034" lon="-4.993987">
        <ele>1322.652</ele>
        <time>2021-08-01T21:11:12Z</time>
      </trkpt>
      <trkpt lat="43.167056" lon="-4.994043">
        <ele>1322.931</ele>
        <time>2021-08-01T21:11:16Z</time>
      </trkpt>
      <trkpt lat="43.167063" lon="-4.994109">
        <ele>1322.993</ele>
        <time>2021-08-01T21:11:21Z</time>
      </trkpt>
      <trkpt lat="43.167083" lon="-4.994167">
        <ele>1323.367</ele>
        <time>2021-08-01T21:11:26Z</time>
      </trkpt>
      <trkpt lat="43.167121" lon="-4.994207">
        <ele>1322.754</ele>
        <time>2021-08-01T21:11:31Z</time>
      </trkpt>
      <trkpt lat="43.167168" lon="-4.994251">
        <ele>1322.439</ele>
        <time>2021-08-01T21:11:39Z</time>
      </trkpt>
      <trkpt lat="43.167203" lon="-4.994292">
        <ele>1322.689</ele>
        <time>2021-08-01T21:11:47Z</time>
      </trkpt>
      <trkpt lat="43.167226" lon="-4.994348">
        <ele>1322.374</ele>
        <time>2021-08-01T21:11:52Z</time>
      </trkpt>
      <trkpt lat="43.167256" lon="-4.9944">
        <ele>1321.856</ele>
        <time>2021-08-01T21:11:59Z</time>
      </trkpt>
      <trkpt lat="43.167283" lon="-4.994456">
        <ele>1321.821</ele>
        <time>2021-08-01T21:12:05Z</time>
      </trkpt>
      <trkpt lat="43.167313" lon="-4.994509">
        <ele>1321.608</ele>
        <time>2021-08-01T21:12:10Z</time>
      </trkpt>
      <trkpt lat="43.167358" lon="-4.994519">
        <ele>1321.774</ele>
        <time>2021-08-01T21:12:25Z</time>
      </trkpt>
      <trkpt lat="43.167378" lon="-4.994576">
        <ele>1321.056</ele>
        <time>2021-08-01T21:12:37Z</time>
      </trkpt>
      <trkpt lat="43.167393" lon="-4.994635">
        <ele>1319.945</ele>
        <time>2021-08-01T21:12:42Z</time>
      </trkpt>
      <trkpt lat="43.167404" lon="-4.994713">
        <ele>1319.537</ele>
        <time>2021-08-01T21:12:46Z</time>
      </trkpt>
      <trkpt lat="43.167449" lon="-4.994747">
        <ele>1319.891</ele>
        <time>2021-08-01T21:12:51Z</time>
      </trkpt>
      <trkpt lat="43.167423" lon="-4.994802">
        <ele>1319.618</ele>
        <time>2021-08-01T21:13:08Z</time>
      </trkpt>
      <trkpt lat="43.167414" lon="-4.994863">
        <ele>1318.873</ele>
        <time>2021-08-01T21:13:15Z</time>
      </trkpt>
      <trkpt lat="43.167458" lon="-4.994891">
        <ele>1318.043</ele>
        <time>2021-08-01T21:13:19Z</time>
      </trkpt>
      <trkpt lat="43.167504" lon="-4.994917">
        <ele>1317.475</ele>
        <time>2021-08-01T21:13:25Z</time>
      </trkpt>
      <trkpt lat="43.167547" lon="-4.99489">
        <ele>1317.028</ele>
        <time>2021-08-01T21:13:50Z</time>
      </trkpt>
      <trkpt lat="43.1676" lon="-4.994879">
        <ele>1316.220</ele>
        <time>2021-08-01T21:13:56Z</time>
      </trkpt>
      <trkpt lat="43.167636" lon="-4.994919">
        <ele>1315.608</ele>
        <time>2021-08-01T21:14:03Z</time>
      </trkpt>
      <trkpt lat="43.167594" lon="-4.99496">
        <ele>1315.354</ele>
        <time>2021-08-01T21:14:12Z</time>
      </trkpt>
      <trkpt lat="43.167596" lon="-4.995024">
        <ele>1314.966</ele>
        <time>2021-08-01T21:14:20Z</time>
      </trkpt>
      <trkpt lat="43.167607" lon="-4.995087">
        <ele>1314.095</ele>
        <time>2021-08-01T21:14:25Z</time>
      </trkpt>
      <trkpt lat="43.16761" lon="-4.995153">
        <ele>1313.867</ele>
        <time>2021-08-01T21:14:31Z</time>
      </trkpt>
      <trkpt lat="43.167658" lon="-4.995161">
        <ele>1313.461</ele>
        <time>2021-08-01T21:14:56Z</time>
      </trkpt>
      <trkpt lat="43.167705" lon="-4.995177">
        <ele>1313.188</ele>
        <time>2021-08-01T21:15:03Z</time>
      </trkpt>
      <trkpt lat="43.167726" lon="-4.995243">
        <ele>1313.123</ele>
        <time>2021-08-01T21:15:09Z</time>
      </trkpt>
      <trkpt lat="43.167768" lon="-4.995268">
        <ele>1312.743</ele>
        <time>2021-08-01T21:15:18Z</time>
      </trkpt>
      <trkpt lat="43.167783" lon="-4.995329">
        <ele>1312.424</ele>
        <time>2021-08-01T21:15:25Z</time>
      </trkpt>
      <trkpt lat="43.167811" lon="-4.995386">
        <ele>1311.804</ele>
        <time>2021-08-01T21:15:36Z</time>
      </trkpt>
      <trkpt lat="43.167786" lon="-4.995441">
        <ele>1311.114</ele>
        <time>2021-08-01T21:15:44Z</time>
      </trkpt>
      <trkpt lat="43.167771" lon="-4.995509">
        <ele>1310.408</ele>
        <time>2021-08-01T21:15:50Z</time>
      </trkpt>
      <trkpt lat="43.167773" lon="-4.995573">
        <ele>1310.369</ele>
        <time>2021-08-01T21:15:56Z</time>
      </trkpt>
      <trkpt lat="43.167786" lon="-4.995633">
        <ele>1310.081</ele>
        <time>2021-08-01T21:16:02Z</time>
      </trkpt>
      <trkpt lat="43.167815" lon="-4.995684">
        <ele>1309.590</ele>
        <time>2021-08-01T21:16:09Z</time>
      </trkpt>
      <trkpt lat="43.167824" lon="-4.995756">
        <ele>1309.662</ele>
        <time>2021-08-01T21:16:17Z</time>
      </trkpt>
      <trkpt lat="43.167859" lon="-4.995806">
        <ele>1309.466</ele>
        <time>2021-08-01T21:16:24Z</time>
      </trkpt>
      <trkpt lat="43.167864" lon="-4.995869">
        <ele>1309.693</ele>
        <time>2021-08-01T21:16:29Z</time>
      </trkpt>
      <trkpt lat="43.167877" lon="-4.995932">
        <ele>1309.818</ele>
        <time>2021-08-01T21:16:35Z</time>
      </trkpt>
      <trkpt lat="43.167843" lon="-4.995974">
        <ele>1310.068</ele>
        <time>2021-08-01T21:16:44Z</time>
      </trkpt>
      <trkpt lat="43.167841" lon="-4.996037">
        <ele>1309.944</ele>
        <time>2021-08-01T21:16:50Z</time>
      </trkpt>
      <trkpt lat="43.167816" lon="-4.996093">
        <ele>1309.505</ele>
        <time>2021-08-01T21:16:55Z</time>
      </trkpt>
      <trkpt lat="43.167788" lon="-4.996143">
        <ele>1309.215</ele>
        <time>2021-08-01T21:16:59Z</time>
      </trkpt>
      <trkpt lat="43.167756" lon="-4.9962">
        <ele>1309.108</ele>
        <time>2021-08-01T21:17:06Z</time>
      </trkpt>
      <trkpt lat="43.167712" lon="-4.996233">
        <ele>1309.071</ele>
        <time>2021-08-01T21:17:11Z</time>
      </trkpt>
      <trkpt lat="43.167668" lon="-4.996253">
        <ele>1308.843</ele>
        <time>2021-08-01T21:17:17Z</time>
      </trkpt>
      <trkpt lat="43.167688" lon="-4.996312">
        <ele>1308.012</ele>
        <time>2021-08-01T21:17:22Z</time>
      </trkpt>
      <trkpt lat="43.167716" lon="-4.996368">
        <ele>1307.834</ele>
        <time>2021-08-01T21:17:27Z</time>
      </trkpt>
      <trkpt lat="43.167711" lon="-4.996434">
        <ele>1307.658</ele>
        <time>2021-08-01T21:17:33Z</time>
      </trkpt>
      <trkpt lat="43.167744" lon="-4.996484">
        <ele>1306.885</ele>
        <time>2021-08-01T21:17:40Z</time>
      </trkpt>
      <trkpt lat="43.167779" lon="-4.996534">
        <ele>1305.940</ele>
        <time>2021-08-01T21:17:50Z</time>
      </trkpt>
      <trkpt lat="43.167806" lon="-4.996591">
        <ele>1305.160</ele>
        <time>2021-08-01T21:17:56Z</time>
      </trkpt>
      <trkpt lat="43.167797" lon="-4.996653">
        <ele>1304.694</ele>
        <time>2021-08-01T21:17:59Z</time>
      </trkpt>
      <trkpt lat="43.167812" lon="-4.996715">
        <ele>1304.357</ele>
        <time>2021-08-01T21:18:04Z</time>
      </trkpt>
      <trkpt lat="43.167822" lon="-4.996775">
        <ele>1303.522</ele>
        <time>2021-08-01T21:18:09Z</time>
      </trkpt>
      <trkpt lat="43.167841" lon="-4.996834">
        <ele>1302.508</ele>
        <time>2021-08-01T21:18:13Z</time>
      </trkpt>
      <trkpt lat="43.167841" lon="-4.996903">
        <ele>1302.016</ele>
        <time>2021-08-01T21:18:17Z</time>
      </trkpt>
      <trkpt lat="43.167825" lon="-4.996964">
        <ele>1301.968</ele>
        <time>2021-08-01T21:18:21Z</time>
      </trkpt>
      <trkpt lat="43.167821" lon="-4.997032">
        <ele>1301.717</ele>
        <time>2021-08-01T21:18:26Z</time>
      </trkpt>
      <trkpt lat="43.167818" lon="-4.997095">
        <ele>1301.369</ele>
        <time>2021-08-01T21:18:32Z</time>
      </trkpt>
      <trkpt lat="43.167805" lon="-4.997154">
        <ele>1301.133</ele>
        <time>2021-08-01T21:18:38Z</time>
      </trkpt>
      <trkpt lat="43.167794" lon="-4.997214">
        <ele>1301.020</ele>
        <time>2021-08-01T21:18:43Z</time>
      </trkpt>
      <trkpt lat="43.167761" lon="-4.997265">
        <ele>1301.245</ele>
        <time>2021-08-01T21:18:49Z</time>
      </trkpt>
      <trkpt lat="43.167772" lon="-4.997332">
        <ele>1301.475</ele>
        <time>2021-08-01T21:18:53Z</time>
      </trkpt>
      <trkpt lat="43.167763" lon="-4.997393">
        <ele>1301.244</ele>
        <time>2021-08-01T21:18:58Z</time>
      </trkpt>
      <trkpt lat="43.167738" lon="-4.997449">
        <ele>1301.205</ele>
        <time>2021-08-01T21:19:04Z</time>
      </trkpt>
      <trkpt lat="43.167723" lon="-4.997509">
        <ele>1300.615</ele>
        <time>2021-08-01T21:19:09Z</time>
      </trkpt>
      <trkpt lat="43.167716" lon="-4.99757">
        <ele>1300.908</ele>
        <time>2021-08-01T21:19:13Z</time>
      </trkpt>
      <trkpt lat="43.167689" lon="-4.997623">
        <ele>1300.871</ele>
        <time>2021-08-01T21:19:18Z</time>
      </trkpt>
      <trkpt lat="43.167689" lon="-4.997685">
        <ele>1300.613</ele>
        <time>2021-08-01T21:19:24Z</time>
      </trkpt>
      <trkpt lat="43.167672" lon="-4.997745">
        <ele>1300.662</ele>
        <time>2021-08-01T21:19:29Z</time>
      </trkpt>
      <trkpt lat="43.167663" lon="-4.99781">
        <ele>1300.564</ele>
        <time>2021-08-01T21:19:36Z</time>
      </trkpt>
      <trkpt lat="43.167653" lon="-4.997875">
        <ele>1300.948</ele>
        <time>2021-08-01T21:19:43Z</time>
      </trkpt>
      <trkpt lat="43.167648" lon="-4.997938">
        <ele>1301.095</ele>
        <time>2021-08-01T21:19:50Z</time>
      </trkpt>
      <trkpt lat="43.167633" lon="-4.997998">
        <ele>1300.580</ele>
        <time>2021-08-01T21:19:57Z</time>
      </trkpt>
      <trkpt lat="43.167632" lon="-4.998061">
        <ele>1301.080</ele>
        <time>2021-08-01T21:20:04Z</time>
      </trkpt>
      <trkpt lat="43.167637" lon="-4.998125">
        <ele>1301.195</ele>
        <time>2021-08-01T21:20:09Z</time>
      </trkpt>
      <trkpt lat="43.167637" lon="-4.99819">
        <ele>1301.149</ele>
        <time>2021-08-01T21:20:13Z</time>
      </trkpt>
      <trkpt lat="43.167634" lon="-4.998256">
        <ele>1300.923</ele>
        <time>2021-08-01T21:20:18Z</time>
      </trkpt>
      <trkpt lat="43.167642" lon="-4.998317">
        <ele>1300.808</ele>
        <time>2021-08-01T21:20:22Z</time>
      </trkpt>
      <trkpt lat="43.167639" lon="-4.998379">
        <ele>1300.576</ele>
        <time>2021-08-01T21:20:28Z</time>
      </trkpt>
      <trkpt lat="43.167644" lon="-4.998446">
        <ele>1301.078</ele>
        <time>2021-08-01T21:20:34Z</time>
      </trkpt>
      <trkpt lat="43.167635" lon="-4.998508">
        <ele>1301.147</ele>
        <time>2021-08-01T21:20:38Z</time>
      </trkpt>
      <trkpt lat="43.167625" lon="-4.998572">
        <ele>1300.889</ele>
        <time>2021-08-01T21:20:43Z</time>
      </trkpt>
      <trkpt lat="43.167603" lon="-4.998635">
        <ele>1301.533</ele>
        <time>2021-08-01T21:20:48Z</time>
      </trkpt>
      <trkpt lat="43.167573" lon="-4.998684">
        <ele>1301.160</ele>
        <time>2021-08-01T21:20:54Z</time>
      </trkpt>
      <trkpt lat="43.167544" lon="-4.998741">
        <ele>1301.295</ele>
        <time>2021-08-01T21:21:00Z</time>
      </trkpt>
      <trkpt lat="43.167514" lon="-4.99879">
        <ele>1301.455</ele>
        <time>2021-08-01T21:21:06Z</time>
      </trkpt>
      <trkpt lat="43.167483" lon="-4.998843">
        <ele>1301.856</ele>
        <time>2021-08-01T21:21:11Z</time>
      </trkpt>
      <trkpt lat="43.167478" lon="-4.998906">
        <ele>1301.559</ele>
        <time>2021-08-01T21:21:16Z</time>
      </trkpt>
      <trkpt lat="43.167466" lon="-4.998978">
        <ele>1300.914</ele>
        <time>2021-08-01T21:21:22Z</time>
      </trkpt>
      <trkpt lat="43.167449" lon="-4.999037">
        <ele>1301.008</ele>
        <time>2021-08-01T21:21:26Z</time>
      </trkpt>
      <trkpt lat="43.167424" lon="-4.999092">
        <ele>1301.622</ele>
        <time>2021-08-01T21:21:31Z</time>
      </trkpt>
      <trkpt lat="43.167416" lon="-4.999161">
        <ele>1301.224</ele>
        <time>2021-08-01T21:21:36Z</time>
      </trkpt>
      <trkpt lat="43.167398" lon="-4.99922">
        <ele>1301.353</ele>
        <time>2021-08-01T21:21:41Z</time>
      </trkpt>
      <trkpt lat="43.167353" lon="-4.999249">
        <ele>1301.655</ele>
        <time>2021-08-01T21:21:46Z</time>
      </trkpt>
      <trkpt lat="43.167324" lon="-4.999302">
        <ele>1301.649</ele>
        <time>2021-08-01T21:21:53Z</time>
      </trkpt>
      <trkpt lat="43.167285" lon="-4.999337">
        <ele>1301.486</ele>
        <time>2021-08-01T21:21:58Z</time>
      </trkpt>
      <trkpt lat="43.167257" lon="-4.999389">
        <ele>1301.651</ele>
        <time>2021-08-01T21:22:04Z</time>
      </trkpt>
      <trkpt lat="43.167215" lon="-4.999433">
        <ele>1301.651</ele>
        <time>2021-08-01T21:22:08Z</time>
      </trkpt>
      <trkpt lat="43.167182" lon="-4.999491">
        <ele>1301.944</ele>
        <time>2021-08-01T21:22:13Z</time>
      </trkpt>
      <trkpt lat="43.16716" lon="-4.999546">
        <ele>1302.005</ele>
        <time>2021-08-01T21:22:18Z</time>
      </trkpt>
      <trkpt lat="43.167134" lon="-4.999608">
        <ele>1302.015</ele>
        <time>2021-08-01T21:22:23Z</time>
      </trkpt>
      <trkpt lat="43.167126" lon="-4.99967">
        <ele>1302.108</ele>
        <time>2021-08-01T21:22:27Z</time>
      </trkpt>
      <trkpt lat="43.167107" lon="-4.99973">
        <ele>1301.931</ele>
        <time>2021-08-01T21:22:32Z</time>
      </trkpt>
      <trkpt lat="43.16709" lon="-4.999796">
        <ele>1302.173</ele>
        <time>2021-08-01T21:22:37Z</time>
      </trkpt>
      <trkpt lat="43.167074" lon="-4.999856">
        <ele>1302.362</ele>
        <time>2021-08-01T21:22:41Z</time>
      </trkpt>
      <trkpt lat="43.167059" lon="-4.999915">
        <ele>1302.314</ele>
        <time>2021-08-01T21:22:45Z</time>
      </trkpt>
      <trkpt lat="43.167044" lon="-4.999977">
        <ele>1302.728</ele>
        <time>2021-08-01T21:22:50Z</time>
      </trkpt>
      <trkpt lat="43.166999" lon="-5.000008">
        <ele>1303.785</ele>
        <time>2021-08-01T21:22:55Z</time>
      </trkpt>
      <trkpt lat="43.16696" lon="-5.00004">
        <ele>1303.950</ele>
        <time>2021-08-01T21:23:00Z</time>
      </trkpt>
      <trkpt lat="43.166944" lon="-5.000102">
        <ele>1304.570</ele>
        <time>2021-08-01T21:23:05Z</time>
      </trkpt>
      <trkpt lat="43.166925" lon="-5.000161">
        <ele>1305.378</ele>
        <time>2021-08-01T21:23:11Z</time>
      </trkpt>
      <trkpt lat="43.166902" lon="-5.000216">
        <ele>1305.933</ele>
        <time>2021-08-01T21:23:16Z</time>
      </trkpt>
      <trkpt lat="43.166893" lon="-5.000277">
        <ele>1306.126</ele>
        <time>2021-08-01T21:23:20Z</time>
      </trkpt>
      <trkpt lat="43.166901" lon="-5.00034">
        <ele>1307.008</ele>
        <time>2021-08-01T21:23:24Z</time>
      </trkpt>
      <trkpt lat="43.166896" lon="-5.000402">
        <ele>1307.034</ele>
        <time>2021-08-01T21:23:28Z</time>
      </trkpt>
      <trkpt lat="43.166883" lon="-5.000469">
        <ele>1307.456</ele>
        <time>2021-08-01T21:23:33Z</time>
      </trkpt>
      <trkpt lat="43.166885" lon="-5.000536">
        <ele>1308.285</ele>
        <time>2021-08-01T21:23:38Z</time>
      </trkpt>
      <trkpt lat="43.166848" lon="-5.000575">
        <ele>1308.637</ele>
        <time>2021-08-01T21:23:42Z</time>
      </trkpt>
      <trkpt lat="43.166802" lon="-5.000605">
        <ele>1308.841</ele>
        <time>2021-08-01T21:23:48Z</time>
      </trkpt>
      <trkpt lat="43.166758" lon="-5.000632">
        <ele>1309.158</ele>
        <time>2021-08-01T21:23:54Z</time>
      </trkpt>
      <trkpt lat="43.166779" lon="-5.000693">
        <ele>1309.793</ele>
        <time>2021-08-01T21:23:58Z</time>
      </trkpt>
      <trkpt lat="43.166801" lon="-5.000749">
        <ele>1309.623</ele>
        <time>2021-08-01T21:24:02Z</time>
      </trkpt>
      <trkpt lat="43.166824" lon="-5.000804">
        <ele>1310.067</ele>
        <time>2021-08-01T21:24:05Z</time>
      </trkpt>
      <trkpt lat="43.166851" lon="-5.000861">
        <ele>1311.081</ele>
        <time>2021-08-01T21:24:09Z</time>
      </trkpt>
      <trkpt lat="43.166891" lon="-5.000903">
        <ele>1311.819</ele>
        <time>2021-08-01T21:24:13Z</time>
      </trkpt>
      <trkpt lat="43.166929" lon="-5.000945">
        <ele>1311.508</ele>
        <time>2021-08-01T21:24:17Z</time>
      </trkpt>
      <trkpt lat="43.166964" lon="-5.000986">
        <ele>1312.183</ele>
        <time>2021-08-01T21:24:21Z</time>
      </trkpt>
      <trkpt lat="43.167009" lon="-5.001021">
        <ele>1312.495</ele>
        <time>2021-08-01T21:24:26Z</time>
      </trkpt>
      <trkpt lat="43.167057" lon="-5.001043">
        <ele>1312.574</ele>
        <time>2021-08-01T21:24:29Z</time>
      </trkpt>
      <trkpt lat="43.167081" lon="-5.001101">
        <ele>1312.656</ele>
        <time>2021-08-01T21:24:34Z</time>
      </trkpt>
      <trkpt lat="43.167058" lon="-5.001157">
        <ele>1312.750</ele>
        <time>2021-08-01T21:24:39Z</time>
      </trkpt>
      <trkpt lat="43.167033" lon="-5.00121">
        <ele>1312.997</ele>
        <time>2021-08-01T21:24:44Z</time>
      </trkpt>
      <trkpt lat="43.167022" lon="-5.001276">
        <ele>1313.172</ele>
        <time>2021-08-01T21:24:49Z</time>
      </trkpt>
      <trkpt lat="43.167016" lon="-5.001345">
        <ele>1313.272</ele>
        <time>2021-08-01T21:24:56Z</time>
      </trkpt>
      <trkpt lat="43.167026" lon="-5.001409">
        <ele>1313.031</ele>
        <time>2021-08-01T21:25:01Z</time>
      </trkpt>
      <trkpt lat="43.167011" lon="-5.001475">
        <ele>1312.861</ele>
        <time>2021-08-01T21:25:06Z</time>
      </trkpt>
      <trkpt lat="43.167006" lon="-5.001537">
        <ele>1312.807</ele>
        <time>2021-08-01T21:25:11Z</time>
      </trkpt>
      <trkpt lat="43.167012" lon="-5.001607">
        <ele>1313.108</ele>
        <time>2021-08-01T21:25:16Z</time>
      </trkpt>
      <trkpt lat="43.16699" lon="-5.001662">
        <ele>1313.140</ele>
        <time>2021-08-01T21:25:20Z</time>
      </trkpt>
      <trkpt lat="43.167011" lon="-5.001723">
        <ele>1313.022</ele>
        <time>2021-08-01T21:25:26Z</time>
      </trkpt>
      <trkpt lat="43.167023" lon="-5.001785">
        <ele>1312.621</ele>
        <time>2021-08-01T21:25:32Z</time>
      </trkpt>
      <trkpt lat="43.167048" lon="-5.00184">
        <ele>1312.793</ele>
        <time>2021-08-01T21:25:37Z</time>
      </trkpt>
      <trkpt lat="43.167078" lon="-5.001891">
        <ele>1312.577</ele>
        <time>2021-08-01T21:25:41Z</time>
      </trkpt>
      <trkpt lat="43.167119" lon="-5.001918">
        <ele>1312.624</ele>
        <time>2021-08-01T21:25:44Z</time>
      </trkpt>
      <trkpt lat="43.167167" lon="-5.001946">
        <ele>1312.129</ele>
        <time>2021-08-01T21:25:48Z</time>
      </trkpt>
      <trkpt lat="43.167182" lon="-5.002007">
        <ele>1311.819</ele>
        <time>2021-08-01T21:25:52Z</time>
      </trkpt>
      <trkpt lat="43.167216" lon="-5.002059">
        <ele>1311.075</ele>
        <time>2021-08-01T21:25:58Z</time>
      </trkpt>
      <trkpt lat="43.167267" lon="-5.002066">
        <ele>1310.928</ele>
        <time>2021-08-01T21:26:03Z</time>
      </trkpt>
      <trkpt lat="43.167247" lon="-5.002123">
        <ele>1309.520</ele>
        <time>2021-08-01T21:26:13Z</time>
      </trkpt>
      <trkpt lat="43.167292" lon="-5.002154">
        <ele>1309.308</ele>
        <time>2021-08-01T21:26:21Z</time>
      </trkpt>
      <trkpt lat="43.167329" lon="-5.002191">
        <ele>1308.824</ele>
        <time>2021-08-01T21:26:35Z</time>
      </trkpt>
      <trkpt lat="43.167356" lon="-5.002247">
        <ele>1308.116</ele>
        <time>2021-08-01T21:26:43Z</time>
      </trkpt>
      <trkpt lat="43.167387" lon="-5.00231">
        <ele>1307.835</ele>
        <time>2021-08-01T21:26:46Z</time>
      </trkpt>
      <trkpt lat="43.167379" lon="-5.002374">
        <ele>1307.557</ele>
        <time>2021-08-01T21:26:52Z</time>
      </trkpt>
      <trkpt lat="43.167424" lon="-5.002371">
        <ele>1307.781</ele>
        <time>2021-08-01T21:26:57Z</time>
      </trkpt>
      <trkpt lat="43.167456" lon="-5.002415">
        <ele>1307.798</ele>
        <time>2021-08-01T21:27:00Z</time>
      </trkpt>
      <trkpt lat="43.167472" lon="-5.002476">
        <ele>1307.773</ele>
        <time>2021-08-01T21:27:05Z</time>
      </trkpt>
      <trkpt lat="43.167463" lon="-5.002541">
        <ele>1307.113</ele>
        <time>2021-08-01T21:27:09Z</time>
      </trkpt>
      <trkpt lat="43.167456" lon="-5.002619">
        <ele>1307.789</ele>
        <time>2021-08-01T21:27:13Z</time>
      </trkpt>
      <trkpt lat="43.167462" lon="-5.00269">
        <ele>1307.006</ele>
        <time>2021-08-01T21:27:17Z</time>
      </trkpt>
      <trkpt lat="43.167462" lon="-5.002752">
        <ele>1307.026</ele>
        <time>2021-08-01T21:27:20Z</time>
      </trkpt>
      <trkpt lat="43.167465" lon="-5.002818">
        <ele>1306.908</ele>
        <time>2021-08-01T21:27:23Z</time>
      </trkpt>
      <trkpt lat="43.167471" lon="-5.00288">
        <ele>1306.615</ele>
        <time>2021-08-01T21:27:28Z</time>
      </trkpt>
      <trkpt lat="43.167489" lon="-5.002945">
        <ele>1307.197</ele>
        <time>2021-08-01T21:27:32Z</time>
      </trkpt>
      <trkpt lat="43.167513" lon="-5.003">
        <ele>1307.426</ele>
        <time>2021-08-01T21:27:36Z</time>
      </trkpt>
      <trkpt lat="43.167517" lon="-5.003067">
        <ele>1307.298</ele>
        <time>2021-08-01T21:27:41Z</time>
      </trkpt>
      <trkpt lat="43.167511" lon="-5.003132">
        <ele>1307.022</ele>
        <time>2021-08-01T21:27:44Z</time>
      </trkpt>
      <trkpt lat="43.167511" lon="-5.003194">
        <ele>1307.119</ele>
        <time>2021-08-01T21:27:50Z</time>
      </trkpt>
      <trkpt lat="43.167504" lon="-5.003258">
        <ele>1307.744</ele>
        <time>2021-08-01T21:27:54Z</time>
      </trkpt>
      <trkpt lat="43.167497" lon="-5.003322">
        <ele>1307.454</ele>
        <time>2021-08-01T21:27:59Z</time>
      </trkpt>
      <trkpt lat="43.167488" lon="-5.003389">
        <ele>1307.898</ele>
        <time>2021-08-01T21:28:07Z</time>
      </trkpt>
      <trkpt lat="43.167459" lon="-5.003446">
        <ele>1308.015</ele>
        <time>2021-08-01T21:28:13Z</time>
      </trkpt>
      <trkpt lat="43.167438" lon="-5.003509">
        <ele>1307.826</ele>
        <time>2021-08-01T21:28:18Z</time>
      </trkpt>
      <trkpt lat="43.167421" lon="-5.003588">
        <ele>1308.408</ele>
        <time>2021-08-01T21:28:22Z</time>
      </trkpt>
      <trkpt lat="43.16742" lon="-5.00367">
        <ele>1308.486</ele>
        <time>2021-08-01T21:28:27Z</time>
      </trkpt>
      <trkpt lat="43.167432" lon="-5.00373">
        <ele>1309.118</ele>
        <time>2021-08-01T21:28:31Z</time>
      </trkpt>
      <trkpt lat="43.167429" lon="-5.003792">
        <ele>1309.617</ele>
        <time>2021-08-01T21:28:36Z</time>
      </trkpt>
      <trkpt lat="43.167408" lon="-5.003849">
        <ele>1309.029</ele>
        <time>2021-08-01T21:28:42Z</time>
      </trkpt>
      <trkpt lat="43.16739" lon="-5.00392">
        <ele>1309.333</ele>
        <time>2021-08-01T21:28:47Z</time>
      </trkpt>
      <trkpt lat="43.167434" lon="-5.003935">
        <ele>1309.540</ele>
        <time>2021-08-01T21:28:54Z</time>
      </trkpt>
      <trkpt lat="43.167387" lon="-5.00396">
        <ele>1309.815</ele>
        <time>2021-08-01T21:29:06Z</time>
      </trkpt>
      <trkpt lat="43.167346" lon="-5.003999">
        <ele>1310.265</ele>
        <time>2021-08-01T21:29:09Z</time>
      </trkpt>
      <trkpt lat="43.167311" lon="-5.004041">
        <ele>1310.483</ele>
        <time>2021-08-01T21:29:13Z</time>
      </trkpt>
      <trkpt lat="43.167295" lon="-5.004104">
        <ele>1310.625</ele>
        <time>2021-08-01T21:29:17Z</time>
      </trkpt>
      <trkpt lat="43.167276" lon="-5.004163">
        <ele>1311.117</ele>
        <time>2021-08-01T21:29:25Z</time>
      </trkpt>
      <trkpt lat="43.167302" lon="-5.004216">
        <ele>1311.108</ele>
        <time>2021-08-01T21:29:39Z</time>
      </trkpt>
      <trkpt lat="43.167321" lon="-5.004273">
        <ele>1311.085</ele>
        <time>2021-08-01T21:29:43Z</time>
      </trkpt>
      <trkpt lat="43.167318" lon="-5.004338">
        <ele>1311.657</ele>
        <time>2021-08-01T21:29:49Z</time>
      </trkpt>
      <trkpt lat="43.167295" lon="-5.004398">
        <ele>1312.036</ele>
        <time>2021-08-01T21:29:54Z</time>
      </trkpt>
      <trkpt lat="43.167248" lon="-5.004411">
        <ele>1312.158</ele>
        <time>2021-08-01T21:29:59Z</time>
      </trkpt>
      <trkpt lat="43.167245" lon="-5.004478">
        <ele>1312.372</ele>
        <time>2021-08-01T21:30:08Z</time>
      </trkpt>
      <trkpt lat="43.167228" lon="-5.004538">
        <ele>1312.639</ele>
        <time>2021-08-01T21:30:13Z</time>
      </trkpt>
      <trkpt lat="43.167201" lon="-5.004595">
        <ele>1313.164</ele>
        <time>2021-08-01T21:30:18Z</time>
      </trkpt>
      <trkpt lat="43.167171" lon="-5.004653">
        <ele>1313.784</ele>
        <time>2021-08-01T21:30:22Z</time>
      </trkpt>
      <trkpt lat="43.16714" lon="-5.004708">
        <ele>1313.925</ele>
        <time>2021-08-01T21:30:26Z</time>
      </trkpt>
      <trkpt lat="43.167116" lon="-5.004762">
        <ele>1314.826</ele>
        <time>2021-08-01T21:30:31Z</time>
      </trkpt>
      <trkpt lat="43.1671" lon="-5.004821">
        <ele>1315.408</ele>
        <time>2021-08-01T21:30:40Z</time>
      </trkpt>
      <trkpt lat="43.167133" lon="-5.004865">
        <ele>1315.108</ele>
        <time>2021-08-01T21:30:46Z</time>
      </trkpt>
      <trkpt lat="43.167131" lon="-5.00493">
        <ele>1315.799</ele>
        <time>2021-08-01T21:30:54Z</time>
      </trkpt>
      <trkpt lat="43.167169" lon="-5.00497">
        <ele>1315.411</ele>
        <time>2021-08-01T21:30:59Z</time>
      </trkpt>
      <trkpt lat="43.16718" lon="-5.005036">
        <ele>1316.250</ele>
        <time>2021-08-01T21:31:03Z</time>
      </trkpt>
      <trkpt lat="43.167192" lon="-5.005104">
        <ele>1316.382</ele>
        <time>2021-08-01T21:31:09Z</time>
      </trkpt>
      <trkpt lat="43.167216" lon="-5.005163">
        <ele>1315.976</ele>
        <time>2021-08-01T21:31:14Z</time>
      </trkpt>
      <trkpt lat="43.16722" lon="-5.005232">
        <ele>1316.693</ele>
        <time>2021-08-01T21:31:20Z</time>
      </trkpt>
      <trkpt lat="43.167192" lon="-5.005283">
        <ele>1317.818</ele>
        <time>2021-08-01T21:31:29Z</time>
      </trkpt>
      <trkpt lat="43.167146" lon="-5.005303">
        <ele>1319.078</ele>
        <time>2021-08-01T21:31:37Z</time>
      </trkpt>
      <trkpt lat="43.167104" lon="-5.005328">
        <ele>1319.799</ele>
        <time>2021-08-01T21:31:43Z</time>
      </trkpt>
      <trkpt lat="43.167064" lon="-5.005359">
        <ele>1319.807</ele>
        <time>2021-08-01T21:31:49Z</time>
      </trkpt>
      <trkpt lat="43.167027" lon="-5.005395">
        <ele>1320.027</ele>
        <time>2021-08-01T21:31:55Z</time>
      </trkpt>
      <trkpt lat="43.166991" lon="-5.005433">
        <ele>1321.008</ele>
        <time>2021-08-01T21:31:59Z</time>
      </trkpt>
      <trkpt lat="43.166946" lon="-5.00545">
        <ele>1321.896</ele>
        <time>2021-08-01T21:32:03Z</time>
      </trkpt>
      <trkpt lat="43.166947" lon="-5.005516">
        <ele>1322.448</ele>
        <time>2021-08-01T21:32:35Z</time>
      </trkpt>
      <trkpt lat="43.166906" lon="-5.005545">
        <ele>1322.587</ele>
        <time>2021-08-01T21:32:41Z</time>
      </trkpt>
      <trkpt lat="43.16686" lon="-5.00556">
        <ele>1323.199</ele>
        <time>2021-08-01T21:32:45Z</time>
      </trkpt>
      <trkpt lat="43.166814" lon="-5.005582">
        <ele>1323.823</ele>
        <time>2021-08-01T21:32:49Z</time>
      </trkpt>
      <trkpt lat="43.16678" lon="-5.00563">
        <ele>1324.040</ele>
        <time>2021-08-01T21:32:53Z</time>
      </trkpt>
      <trkpt lat="43.16674" lon="-5.005664">
        <ele>1324.485</ele>
        <time>2021-08-01T21:32:58Z</time>
      </trkpt>
      <trkpt lat="43.1667" lon="-5.0057">
        <ele>1325.325</ele>
        <time>2021-08-01T21:33:03Z</time>
      </trkpt>
      <trkpt lat="43.166652" lon="-5.005713">
        <ele>1325.285</ele>
        <time>2021-08-01T21:33:08Z</time>
      </trkpt>
      <trkpt lat="43.166614" lon="-5.005674">
        <ele>1325.789</ele>
        <time>2021-08-01T21:33:13Z</time>
      </trkpt>
      <trkpt lat="43.16658" lon="-5.005629">
        <ele>1326.217</ele>
        <time>2021-08-01T21:33:18Z</time>
      </trkpt>
      <trkpt lat="43.166542" lon="-5.005592">
        <ele>1326.308</ele>
        <time>2021-08-01T21:33:22Z</time>
      </trkpt>
      <trkpt lat="43.166497" lon="-5.005575">
        <ele>1326.985</ele>
        <time>2021-08-01T21:33:26Z</time>
      </trkpt>
      <trkpt lat="43.16645" lon="-5.005548">
        <ele>1327.597</ele>
        <time>2021-08-01T21:33:30Z</time>
      </trkpt>
      <trkpt lat="43.166412" lon="-5.005503">
        <ele>1327.466</ele>
        <time>2021-08-01T21:33:35Z</time>
      </trkpt>
      <trkpt lat="43.16638" lon="-5.005457">
        <ele>1326.828</ele>
        <time>2021-08-01T21:33:39Z</time>
      </trkpt>
      <trkpt lat="43.166336" lon="-5.005438">
        <ele>1327.312</ele>
        <time>2021-08-01T21:33:43Z</time>
      </trkpt>
      <trkpt lat="43.166297" lon="-5.005405">
        <ele>1326.989</ele>
        <time>2021-08-01T21:33:47Z</time>
      </trkpt>
      <trkpt lat="43.166267" lon="-5.005357">
        <ele>1328.034</ele>
        <time>2021-08-01T21:33:53Z</time>
      </trkpt>
      <trkpt lat="43.166245" lon="-5.005303">
        <ele>1328.274</ele>
        <time>2021-08-01T21:33:57Z</time>
      </trkpt>
      <trkpt lat="43.166218" lon="-5.005253">
        <ele>1327.968</ele>
        <time>2021-08-01T21:34:01Z</time>
      </trkpt>
      <trkpt lat="43.166186" lon="-5.005201">
        <ele>1328.542</ele>
        <time>2021-08-01T21:34:07Z</time>
      </trkpt>
      <trkpt lat="43.166166" lon="-5.005139">
        <ele>1329.426</ele>
        <time>2021-08-01T21:34:12Z</time>
      </trkpt>
      <trkpt lat="43.166153" lon="-5.005078">
        <ele>1329.608</ele>
        <time>2021-08-01T21:34:28Z</time>
      </trkpt>
      <trkpt lat="43.166136" lon="-5.005017">
        <ele>1329.563</ele>
        <time>2021-08-01T21:34:35Z</time>
      </trkpt>
      <trkpt lat="43.166104" lon="-5.005061">
        <ele>1330.435</ele>
        <time>2021-08-01T21:34:55Z</time>
      </trkpt>
      <trkpt lat="43.165657" lon="-5.004083">
        <ele>1308.637</ele>
        <time>2021-08-02T08:49:47Z</time>
      </trkpt>
      <trkpt lat="43.165851" lon="-5.004531">
        <ele>1305.049</ele>
        <time>2021-08-02T08:49:55Z</time>
      </trkpt>
      <trkpt lat="43.165825" lon="-5.004409">
        <ele>1305.013</ele>
        <time>2021-08-02T08:49:56Z</time>
      </trkpt>
      <trkpt lat="43.165792" lon="-5.004276">
        <ele>1305.008</ele>
        <time>2021-08-02T08:49:57Z</time>
      </trkpt>
      <trkpt lat="43.165766" lon="-5.004166">
        <ele>1306.240</ele>
        <time>2021-08-02T08:49:58Z</time>
      </trkpt>
      <trkpt lat="43.165742" lon="-5.004067">
        <ele>1305.382</ele>
        <time>2021-08-02T08:50:00Z</time>
      </trkpt>
      <trkpt lat="43.165727" lon="-5.004009">
        <ele>1304.761</ele>
        <time>2021-08-02T08:50:01Z</time>
      </trkpt>
      <trkpt lat="43.165705" lon="-5.003936">
        <ele>1304.479</ele>
        <time>2021-08-02T08:50:03Z</time>
      </trkpt>
      <trkpt lat="43.165662" lon="-5.003886">
        <ele>1304.269</ele>
        <time>2021-08-02T08:50:05Z</time>
      </trkpt>
      <trkpt lat="43.16562" lon="-5.003837">
        <ele>1304.177</ele>
        <time>2021-08-02T08:50:08Z</time>
      </trkpt>
      <trkpt lat="43.165581" lon="-5.003793">
        <ele>1308.180</ele>
        <time>2021-08-02T08:50:11Z</time>
      </trkpt>
      <trkpt lat="43.16555" lon="-5.003747">
        <ele>1312.168</ele>
        <time>2021-08-02T08:50:16Z</time>
      </trkpt>
      <trkpt lat="43.165518" lon="-5.003693">
        <ele>1316.166</ele>
        <time>2021-08-02T08:50:28Z</time>
      </trkpt>
      <trkpt lat="43.165485" lon="-5.003647">
        <ele>1320.129</ele>
        <time>2021-08-02T08:50:32Z</time>
      </trkpt>
      <trkpt lat="43.165462" lon="-5.003589">
        <ele>1324.121</ele>
        <time>2021-08-02T08:50:35Z</time>
      </trkpt>
      <trkpt lat="43.165435" lon="-5.003533">
        <ele>1328.108</ele>
        <time>2021-08-02T08:50:40Z</time>
      </trkpt>
      <trkpt lat="43.165403" lon="-5.003488">
        <ele>1332.183</ele>
        <time>2021-08-02T08:50:44Z</time>
      </trkpt>
      <trkpt lat="43.165368" lon="-5.003442">
        <ele>1336.165</ele>
        <time>2021-08-02T08:50:49Z</time>
      </trkpt>
      <trkpt lat="43.165339" lon="-5.003388">
        <ele>1340.174</ele>
        <time>2021-08-02T08:50:54Z</time>
      </trkpt>
      <trkpt lat="43.165309" lon="-5.003339">
        <ele>1344.162</ele>
        <time>2021-08-02T08:51:00Z</time>
      </trkpt>
      <trkpt lat="43.165278" lon="-5.003279">
        <ele>1348.192</ele>
        <time>2021-08-02T08:51:05Z</time>
      </trkpt>
      <trkpt lat="43.165249" lon="-5.00323">
        <ele>1350.850</ele>
        <time>2021-08-02T08:51:11Z</time>
      </trkpt>
      <trkpt lat="43.165225" lon="-5.003176">
        <ele>1352.473</ele>
        <time>2021-08-02T08:51:36Z</time>
      </trkpt>
      <trkpt lat="43.165211" lon="-5.003114">
        <ele>1356.421</ele>
        <time>2021-08-02T08:51:43Z</time>
      </trkpt>
      <trkpt lat="43.165203" lon="-5.00305">
        <ele>1360.398</ele>
        <time>2021-08-02T08:51:47Z</time>
      </trkpt>
      <trkpt lat="43.165175" lon="-5.002993">
        <ele>1363.815</ele>
        <time>2021-08-02T08:51:56Z</time>
      </trkpt>
      <trkpt lat="43.165174" lon="-5.002931">
        <ele>1365.626</ele>
        <time>2021-08-02T08:51:58Z</time>
      </trkpt>
      <trkpt lat="43.165143" lon="-5.002881">
        <ele>1367.708</ele>
        <time>2021-08-02T08:52:03Z</time>
      </trkpt>
      <trkpt lat="43.165116" lon="-5.002827">
        <ele>1370.766</ele>
        <time>2021-08-02T08:52:26Z</time>
      </trkpt>
      <trkpt lat="43.165094" lon="-5.00277">
        <ele>1373.018</ele>
        <time>2021-08-02T08:52:30Z</time>
      </trkpt>
      <trkpt lat="43.165072" lon="-5.002713">
        <ele>1374.037</ele>
        <time>2021-08-02T08:52:34Z</time>
      </trkpt>
      <trkpt lat="43.165052" lon="-5.002654">
        <ele>1375.745</ele>
        <time>2021-08-02T08:52:39Z</time>
      </trkpt>
      <trkpt lat="43.165033" lon="-5.002596">
        <ele>1377.045</ele>
        <time>2021-08-02T08:52:45Z</time>
      </trkpt>
      <trkpt lat="43.164998" lon="-5.002553">
        <ele>1378.883</ele>
        <time>2021-08-02T08:52:51Z</time>
      </trkpt>
      <trkpt lat="43.16496" lon="-5.002517">
        <ele>1380.466</ele>
        <time>2021-08-02T08:52:58Z</time>
      </trkpt>
      <trkpt lat="43.164932" lon="-5.002467">
        <ele>1382.854</ele>
        <time>2021-08-02T08:53:07Z</time>
      </trkpt>
      <trkpt lat="43.164917" lon="-5.002535">
        <ele>1385.147</ele>
        <time>2021-08-02T08:54:01Z</time>
      </trkpt>
      <trkpt lat="43.164866" lon="-5.002552">
        <ele>1387.029</ele>
        <time>2021-08-02T08:54:05Z</time>
      </trkpt>
      <trkpt lat="43.164826" lon="-5.002508">
        <ele>1388.721</ele>
        <time>2021-08-02T08:54:09Z</time>
      </trkpt>
      <trkpt lat="43.164782" lon="-5.00247">
        <ele>1389.108</ele>
        <time>2021-08-02T08:54:12Z</time>
      </trkpt>
      <trkpt lat="43.164737" lon="-5.002448">
        <ele>1389.521</ele>
        <time>2021-08-02T08:54:14Z</time>
      </trkpt>
      <trkpt lat="43.1647" lon="-5.002409">
        <ele>1390.043</ele>
        <time>2021-08-02T08:54:17Z</time>
      </trkpt>
      <trkpt lat="43.16467" lon="-5.002352">
        <ele>1389.692</ele>
        <time>2021-08-02T08:54:23Z</time>
      </trkpt>
      <trkpt lat="43.164635" lon="-5.002306">
        <ele>1391.910</ele>
        <time>2021-08-02T08:54:28Z</time>
      </trkpt>
      <trkpt lat="43.164604" lon="-5.00226">
        <ele>1392.540</ele>
        <time>2021-08-02T08:54:38Z</time>
      </trkpt>
      <trkpt lat="43.164583" lon="-5.002203">
        <ele>1393.168</ele>
        <time>2021-08-02T08:54:49Z</time>
      </trkpt>
      <trkpt lat="43.16455" lon="-5.002153">
        <ele>1395.561</ele>
        <time>2021-08-02T08:54:55Z</time>
      </trkpt>
      <trkpt lat="43.164522" lon="-5.002101">
        <ele>1397.039</ele>
        <time>2021-08-02T08:55:00Z</time>
      </trkpt>
      <trkpt lat="43.164502" lon="-5.002043">
        <ele>1398.683</ele>
        <time>2021-08-02T08:56:18Z</time>
      </trkpt>
      <trkpt lat="43.164447" lon="-5.002016">
        <ele>1400.325</ele>
        <time>2021-08-02T08:56:23Z</time>
      </trkpt>
      <trkpt lat="43.164393" lon="-5.002005">
        <ele>1401.017</ele>
        <time>2021-08-02T08:56:28Z</time>
      </trkpt>
      <trkpt lat="43.164346" lon="-5.002009">
        <ele>1402.908</ele>
        <time>2021-08-02T08:56:34Z</time>
      </trkpt>
      <trkpt lat="43.164301" lon="-5.002015">
        <ele>1403.815</ele>
        <time>2021-08-02T08:56:38Z</time>
      </trkpt>
      <trkpt lat="43.164254" lon="-5.00199">
        <ele>1403.787</ele>
        <time>2021-08-02T08:56:42Z</time>
      </trkpt>
      <trkpt lat="43.164207" lon="-5.001975">
        <ele>1405.496</ele>
        <time>2021-08-02T08:56:50Z</time>
      </trkpt>
      <trkpt lat="43.164184" lon="-5.001921">
        <ele>1406.844</ele>
        <time>2021-08-02T08:56:59Z</time>
      </trkpt>
      <trkpt lat="43.164151" lon="-5.001872">
        <ele>1408.164</ele>
        <time>2021-08-02T08:57:05Z</time>
      </trkpt>
      <trkpt lat="43.164116" lon="-5.00183">
        <ele>1408.892</ele>
        <time>2021-08-02T08:57:11Z</time>
      </trkpt>
      <trkpt lat="43.164076" lon="-5.001794">
        <ele>1411.025</ele>
        <time>2021-08-02T08:57:16Z</time>
      </trkpt>
      <trkpt lat="43.164031" lon="-5.001782">
        <ele>1411.053</ele>
        <time>2021-08-02T08:57:21Z</time>
      </trkpt>
      <trkpt lat="43.163986" lon="-5.001763">
        <ele>1412.484</ele>
        <time>2021-08-02T08:57:28Z</time>
      </trkpt>
      <trkpt lat="43.163946" lon="-5.001733">
        <ele>1413.107</ele>
        <time>2021-08-02T08:57:33Z</time>
      </trkpt>
      <trkpt lat="43.163905" lon="-5.001694">
        <ele>1413.017</ele>
        <time>2021-08-02T08:57:37Z</time>
      </trkpt>
      <trkpt lat="43.163866" lon="-5.001649">
        <ele>1413.908</ele>
        <time>2021-08-02T08:57:42Z</time>
      </trkpt>
      <trkpt lat="43.163828" lon="-5.001612">
        <ele>1413.525</ele>
        <time>2021-08-02T08:57:45Z</time>
      </trkpt>
      <trkpt lat="43.163791" lon="-5.001573">
        <ele>1414.387</ele>
        <time>2021-08-02T08:57:49Z</time>
      </trkpt>
      <trkpt lat="43.163762" lon="-5.001523">
        <ele>1414.716</ele>
        <time>2021-08-02T08:57:54Z</time>
      </trkpt>
      <trkpt lat="43.163742" lon="-5.001467">
        <ele>1415.514</ele>
        <time>2021-08-02T08:57:58Z</time>
      </trkpt>
      <trkpt lat="43.163711" lon="-5.001421">
        <ele>1416.124</ele>
        <time>2021-08-02T08:58:03Z</time>
      </trkpt>
      <trkpt lat="43.163682" lon="-5.001368">
        <ele>1417.682</ele>
        <time>2021-08-02T08:58:07Z</time>
      </trkpt>
      <trkpt lat="43.163645" lon="-5.001327">
        <ele>1418.435</ele>
        <time>2021-08-02T08:58:12Z</time>
      </trkpt>
      <trkpt lat="43.163603" lon="-5.001291">
        <ele>1419.233</ele>
        <time>2021-08-02T08:58:16Z</time>
      </trkpt>
      <trkpt lat="43.163562" lon="-5.001261">
        <ele>1419.856</ele>
        <time>2021-08-02T08:58:20Z</time>
      </trkpt>
      <trkpt lat="43.16352" lon="-5.001226">
        <ele>1420.459</ele>
        <time>2021-08-02T08:58:23Z</time>
      </trkpt>
      <trkpt lat="43.16348" lon="-5.001193">
        <ele>1420.814</ele>
        <time>2021-08-02T08:58:27Z</time>
      </trkpt>
      <trkpt lat="43.163442" lon="-5.00115">
        <ele>1421.308</ele>
        <time>2021-08-02T08:58:31Z</time>
      </trkpt>
      <trkpt lat="43.163407" lon="-5.001106">
        <ele>1422.292</ele>
        <time>2021-08-02T08:58:36Z</time>
      </trkpt>
      <trkpt lat="43.163373" lon="-5.001065">
        <ele>1423.284</ele>
        <time>2021-08-02T08:58:41Z</time>
      </trkpt>
      <trkpt lat="43.163341" lon="-5.001021">
        <ele>1423.453</ele>
        <time>2021-08-02T08:58:47Z</time>
      </trkpt>
      <trkpt lat="43.163298" lon="-5.000987">
        <ele>1424.711</ele>
        <time>2021-08-02T08:58:51Z</time>
      </trkpt>
      <trkpt lat="43.163263" lon="-5.00094">
        <ele>1426.771</ele>
        <time>2021-08-02T08:59:41Z</time>
      </trkpt>
      <trkpt lat="43.163212" lon="-5.000953">
        <ele>1427.459</ele>
        <time>2021-08-02T08:59:44Z</time>
      </trkpt>
      <trkpt lat="43.163163" lon="-5.000948">
        <ele>1428.632</ele>
        <time>2021-08-02T08:59:47Z</time>
      </trkpt>
      <trkpt lat="43.163116" lon="-5.000943">
        <ele>1429.540</ele>
        <time>2021-08-02T08:59:50Z</time>
      </trkpt>
      <trkpt lat="43.163071" lon="-5.000932">
        <ele>1429.244</ele>
        <time>2021-08-02T08:59:55Z</time>
      </trkpt>
      <trkpt lat="43.163026" lon="-5.000922">
        <ele>1430.005</ele>
        <time>2021-08-02T09:00:00Z</time>
      </trkpt>
      <trkpt lat="43.162978" lon="-5.000908">
        <ele>1430.015</ele>
        <time>2021-08-02T09:00:05Z</time>
      </trkpt>
      <trkpt lat="43.162933" lon="-5.000899">
        <ele>1430.508</ele>
        <time>2021-08-02T09:00:08Z</time>
      </trkpt>
      <trkpt lat="43.162885" lon="-5.00089">
        <ele>1430.291</ele>
        <time>2021-08-02T09:00:11Z</time>
      </trkpt>
      <trkpt lat="43.162835" lon="-5.000875">
        <ele>1429.093</ele>
        <time>2021-08-02T09:00:15Z</time>
      </trkpt>
      <trkpt lat="43.162789" lon="-5.000864">
        <ele>1429.222</ele>
        <time>2021-08-02T09:00:18Z</time>
      </trkpt>
      <trkpt lat="43.162741" lon="-5.000857">
        <ele>1427.960</ele>
        <time>2021-08-02T09:00:22Z</time>
      </trkpt>
      <trkpt lat="43.162719" lon="-5.000803">
        <ele>1429.150</ele>
        <time>2021-08-02T09:00:49Z</time>
      </trkpt>
      <trkpt lat="43.1627" lon="-5.00074">
        <ele>1430.068</ele>
        <time>2021-08-02T09:00:55Z</time>
      </trkpt>
      <trkpt lat="43.162664" lon="-5.000704">
        <ele>1431.261</ele>
        <time>2021-08-02T09:00:59Z</time>
      </trkpt>
      <trkpt lat="43.162622" lon="-5.000665">
        <ele>1431.779</ele>
        <time>2021-08-02T09:01:03Z</time>
      </trkpt>
      <trkpt lat="43.162576" lon="-5.00064">
        <ele>1432.918</ele>
        <time>2021-08-02T09:01:07Z</time>
      </trkpt>
      <trkpt lat="43.162533" lon="-5.000618">
        <ele>1433.598</ele>
        <time>2021-08-02T09:01:12Z</time>
      </trkpt>
      <trkpt lat="43.162485" lon="-5.000631">
        <ele>1434.417</ele>
        <time>2021-08-02T09:01:18Z</time>
      </trkpt>
      <trkpt lat="43.162439" lon="-5.00065">
        <ele>1434.308</ele>
        <time>2021-08-02T09:01:23Z</time>
      </trkpt>
      <trkpt lat="43.162391" lon="-5.000642">
        <ele>1435.338</ele>
        <time>2021-08-02T09:01:28Z</time>
      </trkpt>
      <trkpt lat="43.162347" lon="-5.000625">
        <ele>1437.060</ele>
        <time>2021-08-02T09:01:33Z</time>
      </trkpt>
      <trkpt lat="43.162305" lon="-5.000589">
        <ele>1437.799</ele>
        <time>2021-08-02T09:01:37Z</time>
      </trkpt>
      <trkpt lat="43.162262" lon="-5.000561">
        <ele>1437.727</ele>
        <time>2021-08-02T09:01:41Z</time>
      </trkpt>
      <trkpt lat="43.162209" lon="-5.000538">
        <ele>1439.467</ele>
        <time>2021-08-02T09:01:46Z</time>
      </trkpt>
      <trkpt lat="43.162164" lon="-5.000534">
        <ele>1440.165</ele>
        <time>2021-08-02T09:01:52Z</time>
      </trkpt>
      <trkpt lat="43.162126" lon="-5.00057">
        <ele>1441.448</ele>
        <time>2021-08-02T09:01:59Z</time>
      </trkpt>
      <trkpt lat="43.162112" lon="-5.000511">
        <ele>1442.216</ele>
        <time>2021-08-02T09:02:07Z</time>
      </trkpt>
      <trkpt lat="43.162077" lon="-5.000469">
        <ele>1443.647</ele>
        <time>2021-08-02T09:02:23Z</time>
      </trkpt>
      <trkpt lat="43.162027" lon="-5.000463">
        <ele>1445.429</ele>
        <time>2021-08-02T09:02:29Z</time>
      </trkpt>
      <trkpt lat="43.161985" lon="-5.000434">
        <ele>1446.421</ele>
        <time>2021-08-02T09:02:36Z</time>
      </trkpt>
      <trkpt lat="43.161942" lon="-5.000411">
        <ele>1447.008</ele>
        <time>2021-08-02T09:02:51Z</time>
      </trkpt>
      <trkpt lat="43.161897" lon="-5.000393">
        <ele>1446.951</ele>
        <time>2021-08-02T09:02:56Z</time>
      </trkpt>
      <trkpt lat="43.161852" lon="-5.000406">
        <ele>1447.653</ele>
        <time>2021-08-02T09:03:02Z</time>
      </trkpt>
      <trkpt lat="43.161819" lon="-5.000453">
        <ele>1447.842</ele>
        <time>2021-08-02T09:03:10Z</time>
      </trkpt>
      <trkpt lat="43.16177" lon="-5.000465">
        <ele>1447.490</ele>
        <time>2021-08-02T09:03:17Z</time>
      </trkpt>
      <trkpt lat="43.161725" lon="-5.00047">
        <ele>1447.540</ele>
        <time>2021-08-02T09:03:21Z</time>
      </trkpt>
      <trkpt lat="43.161676" lon="-5.000475">
        <ele>1448.148</ele>
        <time>2021-08-02T09:03:24Z</time>
      </trkpt>
      <trkpt lat="43.16163" lon="-5.00048">
        <ele>1448.841</ele>
        <time>2021-08-02T09:03:27Z</time>
      </trkpt>
      <trkpt lat="43.161582" lon="-5.00048">
        <ele>1449.119</ele>
        <time>2021-08-02T09:03:31Z</time>
      </trkpt>
      <trkpt lat="43.161538" lon="-5.000506">
        <ele>1450.312</ele>
        <time>2021-08-02T09:03:57Z</time>
      </trkpt>
      <trkpt lat="43.161493" lon="-5.000515">
        <ele>1451.832</ele>
        <time>2021-08-02T09:04:03Z</time>
      </trkpt>
      <trkpt lat="43.161449" lon="-5.000502">
        <ele>1452.505</ele>
        <time>2021-08-02T09:04:09Z</time>
      </trkpt>
      <trkpt lat="43.161404" lon="-5.000484">
        <ele>1454.008</ele>
        <time>2021-08-02T09:04:15Z</time>
      </trkpt>
      <trkpt lat="43.161358" lon="-5.000458">
        <ele>1455.028</ele>
        <time>2021-08-02T09:04:19Z</time>
      </trkpt>
      <trkpt lat="43.161313" lon="-5.000438">
        <ele>1455.820</ele>
        <time>2021-08-02T09:04:24Z</time>
      </trkpt>
      <trkpt lat="43.161269" lon="-5.00042">
        <ele>1456.649</ele>
        <time>2021-08-02T09:04:27Z</time>
      </trkpt>
      <trkpt lat="43.161223" lon="-5.000409">
        <ele>1457.517</ele>
        <time>2021-08-02T09:04:31Z</time>
      </trkpt>
      <trkpt lat="43.161176" lon="-5.000407">
        <ele>1459.097</ele>
        <time>2021-08-02T09:04:37Z</time>
      </trkpt>
      <trkpt lat="43.161158" lon="-5.000465">
        <ele>1460.015</ele>
        <time>2021-08-02T09:05:00Z</time>
      </trkpt>
      <trkpt lat="43.161111" lon="-5.000487">
        <ele>1460.428</ele>
        <time>2021-08-02T09:05:08Z</time>
      </trkpt>
      <trkpt lat="43.161076" lon="-5.000444">
        <ele>1461.376</ele>
        <time>2021-08-02T09:05:12Z</time>
      </trkpt>
      <trkpt lat="43.161041" lon="-5.000399">
        <ele>1462.657</ele>
        <time>2021-08-02T09:05:17Z</time>
      </trkpt>
      <trkpt lat="43.161016" lon="-5.000481">
        <ele>1466.000</ele>
        <time>2021-08-02T09:06:37Z</time>
      </trkpt>
      <trkpt lat="43.161009" lon="-5.000547">
        <ele>1467.820</ele>
        <time>2021-08-02T09:06:39Z</time>
      </trkpt>
      <trkpt lat="43.161055" lon="-5.000528">
        <ele>1470.008</ele>
        <time>2021-08-02T09:06:48Z</time>
      </trkpt>
      <trkpt lat="43.161058" lon="-5.000465">
        <ele>1470.932</ele>
        <time>2021-08-02T09:07:08Z</time>
      </trkpt>
      <trkpt lat="43.161017" lon="-5.000501">
        <ele>1471.674</ele>
        <time>2021-08-02T09:07:56Z</time>
      </trkpt>
      <trkpt lat="43.160967" lon="-5.000509">
        <ele>1472.443</ele>
        <time>2021-08-02T09:08:00Z</time>
      </trkpt>
      <trkpt lat="43.161015" lon="-5.000501">
        <ele>1473.381</ele>
        <time>2021-08-02T09:08:21Z</time>
      </trkpt>
      <trkpt lat="43.16106" lon="-5.000486">
        <ele>1474.031</ele>
        <time>2021-08-02T09:08:27Z</time>
      </trkpt>
      <trkpt lat="43.161096" lon="-5.000446">
        <ele>1473.779</ele>
        <time>2021-08-02T09:08:34Z</time>
      </trkpt>
      <trkpt lat="43.161124" lon="-5.000381">
        <ele>1473.382</ele>
        <time>2021-08-02T09:08:40Z</time>
      </trkpt>
      <trkpt lat="43.161169" lon="-5.000347">
        <ele>1472.980</ele>
        <time>2021-08-02T09:08:44Z</time>
      </trkpt>
      <trkpt lat="43.161212" lon="-5.000321">
        <ele>1472.314</ele>
        <time>2021-08-02T09:08:48Z</time>
      </trkpt>
      <trkpt lat="43.161252" lon="-5.000287">
        <ele>1472.754</ele>
        <time>2021-08-02T09:08:53Z</time>
      </trkpt>
      <trkpt lat="43.1613" lon="-5.000272">
        <ele>1472.309</ele>
        <time>2021-08-02T09:09:00Z</time>
      </trkpt>
      <trkpt lat="43.161328" lon="-5.000223">
        <ele>1473.108</ele>
        <time>2021-08-02T09:09:07Z</time>
      </trkpt>
      <trkpt lat="43.161363" lon="-5.000176">
        <ele>1473.648</ele>
        <time>2021-08-02T09:09:15Z</time>
      </trkpt>
      <trkpt lat="43.161389" lon="-5.00012">
        <ele>1473.480</ele>
        <time>2021-08-02T09:09:21Z</time>
      </trkpt>
      <trkpt lat="43.161376" lon="-5.000059">
        <ele>1474.099</ele>
        <time>2021-08-02T09:09:29Z</time>
      </trkpt>
      <trkpt lat="43.161344" lon="-5.000012">
        <ele>1473.857</ele>
        <time>2021-08-02T09:09:34Z</time>
      </trkpt>
      <trkpt lat="43.161309" lon="-4.999967">
        <ele>1474.447</ele>
        <time>2021-08-02T09:09:39Z</time>
      </trkpt>
      <trkpt lat="43.161288" lon="-4.999912">
        <ele>1474.425</ele>
        <time>2021-08-02T09:09:43Z</time>
      </trkpt>
      <trkpt lat="43.161292" lon="-4.999847">
        <ele>1474.878</ele>
        <time>2021-08-02T09:10:35Z</time>
      </trkpt>
      <trkpt lat="43.161269" lon="-4.999781">
        <ele>1475.516</ele>
        <time>2021-08-02T09:10:40Z</time>
      </trkpt>
      <trkpt lat="43.161256" lon="-4.999716">
        <ele>1476.391</ele>
        <time>2021-08-02T09:10:44Z</time>
      </trkpt>
      <trkpt lat="43.16128" lon="-4.999658">
        <ele>1477.381</ele>
        <time>2021-08-02T09:10:51Z</time>
      </trkpt>
      <trkpt lat="43.161285" lon="-4.999589">
        <ele>1478.219</ele>
        <time>2021-08-02T09:11:01Z</time>
      </trkpt>
      <trkpt lat="43.161299" lon="-4.999528">
        <ele>1479.008</ele>
        <time>2021-08-02T09:11:05Z</time>
      </trkpt>
      <trkpt lat="43.161285" lon="-4.999468">
        <ele>1479.326</ele>
        <time>2021-08-02T09:11:10Z</time>
      </trkpt>
      <trkpt lat="43.161275" lon="-4.999401">
        <ele>1479.538</ele>
        <time>2021-08-02T09:11:15Z</time>
      </trkpt>
      <trkpt lat="43.161256" lon="-4.999335">
        <ele>1479.267</ele>
        <time>2021-08-02T09:11:19Z</time>
      </trkpt>
      <trkpt lat="43.16123" lon="-4.999276">
        <ele>1479.485</ele>
        <time>2021-08-02T09:11:24Z</time>
      </trkpt>
      <trkpt lat="43.161198" lon="-4.999223">
        <ele>1479.015</ele>
        <time>2021-08-02T09:11:29Z</time>
      </trkpt>
      <trkpt lat="43.161186" lon="-4.999164">
        <ele>1479.043</ele>
        <time>2021-08-02T09:11:34Z</time>
      </trkpt>
      <trkpt lat="43.161188" lon="-4.999099">
        <ele>1479.336</ele>
        <time>2021-08-02T09:11:40Z</time>
      </trkpt>
      <trkpt lat="43.161174" lon="-4.999038">
        <ele>1479.584</ele>
        <time>2021-08-02T09:11:50Z</time>
      </trkpt>
      <trkpt lat="43.161156" lon="-4.998981">
        <ele>1479.522</ele>
        <time>2021-08-02T09:11:57Z</time>
      </trkpt>
      <trkpt lat="43.161147" lon="-4.99892">
        <ele>1479.662</ele>
        <time>2021-08-02T09:12:02Z</time>
      </trkpt>
      <trkpt lat="43.161136" lon="-4.998859">
        <ele>1480.408</ele>
        <time>2021-08-02T09:12:06Z</time>
      </trkpt>
      <trkpt lat="43.161104" lon="-4.998812">
        <ele>1480.808</ele>
        <time>2021-08-02T09:12:11Z</time>
      </trkpt>
      <trkpt lat="43.161059" lon="-4.998807">
        <ele>1480.439</ele>
        <time>2021-08-02T09:12:16Z</time>
      </trkpt>
      <trkpt lat="43.161041" lon="-4.998745">
        <ele>1480.891</ele>
        <time>2021-08-02T09:12:21Z</time>
      </trkpt>
      <trkpt lat="43.161016" lon="-4.998691">
        <ele>1481.160</ele>
        <time>2021-08-02T09:12:27Z</time>
      </trkpt>
      <trkpt lat="43.160979" lon="-4.998652">
        <ele>1480.998</ele>
        <time>2021-08-02T09:12:31Z</time>
      </trkpt>
      <trkpt lat="43.160946" lon="-4.998607">
        <ele>1480.838</ele>
        <time>2021-08-02T09:12:36Z</time>
      </trkpt>
      <trkpt lat="43.160901" lon="-4.998583">
        <ele>1481.826</ele>
        <time>2021-08-02T09:14:21Z</time>
      </trkpt>
      <trkpt lat="43.160853" lon="-4.998578">
        <ele>1482.539</ele>
        <time>2021-08-02T09:14:27Z</time>
      </trkpt>
      <trkpt lat="43.160822" lon="-4.998525">
        <ele>1482.717</ele>
        <time>2021-08-02T09:15:04Z</time>
      </trkpt>
      <trkpt lat="43.160785" lon="-4.998484">
        <ele>1482.432</ele>
        <time>2021-08-02T09:15:10Z</time>
      </trkpt>
      <trkpt lat="43.160747" lon="-4.998448">
        <ele>1482.592</ele>
        <time>2021-08-02T09:15:16Z</time>
      </trkpt>
      <trkpt lat="43.160712" lon="-4.998408">
        <ele>1482.111</ele>
        <time>2021-08-02T09:15:21Z</time>
      </trkpt>
      <trkpt lat="43.160673" lon="-4.998369">
        <ele>1481.608</ele>
        <time>2021-08-02T09:15:50Z</time>
      </trkpt>
      <trkpt lat="43.160632" lon="-4.998332">
        <ele>1480.880</ele>
        <time>2021-08-02T09:15:56Z</time>
      </trkpt>
      <trkpt lat="43.160613" lon="-4.998273">
        <ele>1481.042</ele>
        <time>2021-08-02T09:16:01Z</time>
      </trkpt>
      <trkpt lat="43.160574" lon="-4.998235">
        <ele>1480.281</ele>
        <time>2021-08-02T09:16:06Z</time>
      </trkpt>
      <trkpt lat="43.160538" lon="-4.998187">
        <ele>1479.539</ele>
        <time>2021-08-02T09:16:10Z</time>
      </trkpt>
      <trkpt lat="43.160501" lon="-4.99815">
        <ele>1478.439</ele>
        <time>2021-08-02T09:16:14Z</time>
      </trkpt>
      <trkpt lat="43.160465" lon="-4.998102">
        <ele>1478.457</ele>
        <time>2021-08-02T09:16:19Z</time>
      </trkpt>
      <trkpt lat="43.160425" lon="-4.998071">
        <ele>1477.420</ele>
        <time>2021-08-02T09:16:25Z</time>
      </trkpt>
      <trkpt lat="43.160448" lon="-4.998015">
        <ele>1477.738</ele>
        <time>2021-08-02T09:17:15Z</time>
      </trkpt>
      <trkpt lat="43.160403" lon="-4.997996">
        <ele>1477.192</ele>
        <time>2021-08-02T09:17:29Z</time>
      </trkpt>
      <trkpt lat="43.160361" lon="-4.997961">
        <ele>1476.373</ele>
        <time>2021-08-02T09:17:39Z</time>
      </trkpt>
      <trkpt lat="43.160319" lon="-4.997938">
        <ele>1475.420</ele>
        <time>2021-08-02T09:17:54Z</time>
      </trkpt>
      <trkpt lat="43.160296" lon="-4.997884">
        <ele>1474.908</ele>
        <time>2021-08-02T09:18:22Z</time>
      </trkpt>
      <trkpt lat="43.160325" lon="-4.997835">
        <ele>1474.646</ele>
        <time>2021-08-02T09:18:33Z</time>
      </trkpt>
      <trkpt lat="43.16036" lon="-4.997795">
        <ele>1474.758</ele>
        <time>2021-08-02T09:19:02Z</time>
      </trkpt>
      <trkpt lat="43.160386" lon="-4.997733">
        <ele>1475.227</ele>
        <time>2021-08-02T09:19:07Z</time>
      </trkpt>
      <trkpt lat="43.160374" lon="-4.997671">
        <ele>1475.615</ele>
        <time>2021-08-02T09:19:11Z</time>
      </trkpt>
      <trkpt lat="43.160357" lon="-4.99761">
        <ele>1475.865</ele>
        <time>2021-08-02T09:19:17Z</time>
      </trkpt>
      <trkpt lat="43.160328" lon="-4.99756">
        <ele>1475.783</ele>
        <time>2021-08-02T09:19:37Z</time>
      </trkpt>
      <trkpt lat="43.160357" lon="-4.997512">
        <ele>1475.666</ele>
        <time>2021-08-02T09:19:43Z</time>
      </trkpt>
      <trkpt lat="43.160367" lon="-4.997449">
        <ele>1475.874</ele>
        <time>2021-08-02T09:20:19Z</time>
      </trkpt>
      <trkpt lat="43.160381" lon="-4.997388">
        <ele>1475.986</ele>
        <time>2021-08-02T09:20:26Z</time>
      </trkpt>
      <trkpt lat="43.160369" lon="-4.997324">
        <ele>1476.060</ele>
        <time>2021-08-02T09:20:33Z</time>
      </trkpt>
      <trkpt lat="43.160404" lon="-4.997283">
        <ele>1476.326</ele>
        <time>2021-08-02T09:20:38Z</time>
      </trkpt>
      <trkpt lat="43.160425" lon="-4.997222">
        <ele>1477.208</ele>
        <time>2021-08-02T09:20:45Z</time>
      </trkpt>
      <trkpt lat="43.160454" lon="-4.997169">
        <ele>1477.795</ele>
        <time>2021-08-02T09:20:50Z</time>
      </trkpt>
      <trkpt lat="43.160448" lon="-4.997102">
        <ele>1478.067</ele>
        <time>2021-08-02T09:21:18Z</time>
      </trkpt>
      <trkpt lat="43.160456" lon="-4.99704">
        <ele>1478.596</ele>
        <time>2021-08-02T09:21:43Z</time>
      </trkpt>
      <trkpt lat="43.160481" lon="-4.996988">
        <ele>1478.844</ele>
        <time>2021-08-02T09:21:49Z</time>
      </trkpt>
      <trkpt lat="43.160527" lon="-4.997003">
        <ele>1478.964</ele>
        <time>2021-08-02T09:21:54Z</time>
      </trkpt>
      <trkpt lat="43.160568" lon="-4.996969">
        <ele>1479.142</ele>
        <time>2021-08-02T09:22:01Z</time>
      </trkpt>
      <trkpt lat="43.16061" lon="-4.996944">
        <ele>1479.145</ele>
        <time>2021-08-02T09:22:06Z</time>
      </trkpt>
      <trkpt lat="43.160607" lon="-4.996881">
        <ele>1479.233</ele>
        <time>2021-08-02T09:22:11Z</time>
      </trkpt>
      <trkpt lat="43.160645" lon="-4.996841">
        <ele>1479.947</ele>
        <time>2021-08-02T09:23:18Z</time>
      </trkpt>
      <trkpt lat="43.160669" lon="-4.996772">
        <ele>1480.029</ele>
        <time>2021-08-02T09:23:23Z</time>
      </trkpt>
      <trkpt lat="43.160706" lon="-4.996728">
        <ele>1481.721</ele>
        <time>2021-08-02T09:23:29Z</time>
      </trkpt>
      <trkpt lat="43.160715" lon="-4.996667">
        <ele>1482.108</ele>
        <time>2021-08-02T09:23:34Z</time>
      </trkpt>
      <trkpt lat="43.160732" lon="-4.996609">
        <ele>1483.071</ele>
        <time>2021-08-02T09:23:39Z</time>
      </trkpt>
      <trkpt lat="43.16072" lon="-4.996546">
        <ele>1483.983</ele>
        <time>2021-08-02T09:23:43Z</time>
      </trkpt>
      <trkpt lat="43.160691" lon="-4.996493">
        <ele>1484.692</ele>
        <time>2021-08-02T09:23:46Z</time>
      </trkpt>
      <trkpt lat="43.160677" lon="-4.996431">
        <ele>1485.010</ele>
        <time>2021-08-02T09:23:52Z</time>
      </trkpt>
      <trkpt lat="43.160632" lon="-4.996406">
        <ele>1485.490</ele>
        <time>2021-08-02T09:24:15Z</time>
      </trkpt>
      <trkpt lat="43.160628" lon="-4.996343">
        <ele>1485.838</ele>
        <time>2021-08-02T09:24:25Z</time>
      </trkpt>
      <trkpt lat="43.160618" lon="-4.996282">
        <ele>1486.671</ele>
        <time>2021-08-02T09:24:54Z</time>
      </trkpt>
      <trkpt lat="43.160592" lon="-4.996217">
        <ele>1486.999</ele>
        <time>2021-08-02T09:25:04Z</time>
      </trkpt>
      <trkpt lat="43.160563" lon="-4.996167">
        <ele>1487.369</ele>
        <time>2021-08-02T09:25:16Z</time>
      </trkpt>
      <trkpt lat="43.160527" lon="-4.996129">
        <ele>1486.804</ele>
        <time>2021-08-02T09:25:23Z</time>
      </trkpt>
      <trkpt lat="43.160538" lon="-4.996066">
        <ele>1488.024</ele>
        <time>2021-08-02T09:25:41Z</time>
      </trkpt>
      <trkpt lat="43.160545" lon="-4.996003">
        <ele>1488.908</ele>
        <time>2021-08-02T09:25:48Z</time>
      </trkpt>
      <trkpt lat="43.160524" lon="-4.995944">
        <ele>1489.513</ele>
        <time>2021-08-02T09:25:55Z</time>
      </trkpt>
      <trkpt lat="43.160496" lon="-4.995889">
        <ele>1489.675</ele>
        <time>2021-08-02T09:26:00Z</time>
      </trkpt>
      <trkpt lat="43.160496" lon="-4.995827">
        <ele>1490.424</ele>
        <time>2021-08-02T09:26:07Z</time>
      </trkpt>
      <trkpt lat="43.160466" lon="-4.995776">
        <ele>1491.152</ele>
        <time>2021-08-02T09:26:18Z</time>
      </trkpt>
      <trkpt lat="43.16044" lon="-4.995722">
        <ele>1491.642</ele>
        <time>2021-08-02T09:26:26Z</time>
      </trkpt>
      <trkpt lat="43.160426" lon="-4.995662">
        <ele>1492.590</ele>
        <time>2021-08-02T09:26:58Z</time>
      </trkpt>
      <trkpt lat="43.160449" lon="-4.995608">
        <ele>1493.633</ele>
        <time>2021-08-02T09:27:26Z</time>
      </trkpt>
      <trkpt lat="43.160451" lon="-4.995546">
        <ele>1494.531</ele>
        <time>2021-08-02T09:27:35Z</time>
      </trkpt>
      <trkpt lat="43.160457" lon="-4.995481">
        <ele>1495.167</ele>
        <time>2021-08-02T09:27:41Z</time>
      </trkpt>
      <trkpt lat="43.160458" lon="-4.995415">
        <ele>1496.181</ele>
        <time>2021-08-02T09:27:51Z</time>
      </trkpt>
      <trkpt lat="43.160432" lon="-4.995358">
        <ele>1496.119</ele>
        <time>2021-08-02T09:27:56Z</time>
      </trkpt>
      <trkpt lat="43.16043" lon="-4.995294">
        <ele>1495.808</ele>
        <time>2021-08-02T09:28:02Z</time>
      </trkpt>
      <trkpt lat="43.160417" lon="-4.995233">
        <ele>1496.643</ele>
        <time>2021-08-02T09:28:08Z</time>
      </trkpt>
      <trkpt lat="43.160398" lon="-4.995177">
        <ele>1496.895</ele>
        <time>2021-08-02T09:28:34Z</time>
      </trkpt>
      <trkpt lat="43.160371" lon="-4.995122">
        <ele>1497.824</ele>
        <time>2021-08-02T09:28:45Z</time>
      </trkpt>
      <trkpt lat="43.160352" lon="-4.995062">
        <ele>1497.952</ele>
        <time>2021-08-02T09:28:50Z</time>
      </trkpt>
      <trkpt lat="43.160331" lon="-4.995006">
        <ele>1498.242</ele>
        <time>2021-08-02T09:28:58Z</time>
      </trkpt>
      <trkpt lat="43.160293" lon="-4.994968">
        <ele>1498.520</ele>
        <time>2021-08-02T09:29:22Z</time>
      </trkpt>
      <trkpt lat="43.160255" lon="-4.995007">
        <ele>1499.483</ele>
        <time>2021-08-02T09:29:52Z</time>
      </trkpt>
      <trkpt lat="43.160207" lon="-4.995007">
        <ele>1500.431</ele>
        <time>2021-08-02T09:30:01Z</time>
      </trkpt>
      <trkpt lat="43.160188" lon="-4.995066">
        <ele>1502.073</ele>
        <time>2021-08-02T09:30:08Z</time>
      </trkpt>
      <trkpt lat="43.160144" lon="-4.995091">
        <ele>1502.385</ele>
        <time>2021-08-02T09:30:14Z</time>
      </trkpt>
      <trkpt lat="43.160108" lon="-4.995131">
        <ele>1503.513</ele>
        <time>2021-08-02T09:30:20Z</time>
      </trkpt>
      <trkpt lat="43.160063" lon="-4.995133">
        <ele>1505.008</ele>
        <time>2021-08-02T09:30:27Z</time>
      </trkpt>
      <trkpt lat="43.160058" lon="-4.99507">
        <ele>1506.484</ele>
        <time>2021-08-02T09:31:02Z</time>
      </trkpt>
      <trkpt lat="43.160043" lon="-4.995011">
        <ele>1508.256</ele>
        <time>2021-08-02T09:31:14Z</time>
      </trkpt>
      <trkpt lat="43.160042" lon="-4.994946">
        <ele>1509.875</ele>
        <time>2021-08-02T09:31:20Z</time>
      </trkpt>
      <trkpt lat="43.160037" lon="-4.994879">
        <ele>1512.513</ele>
        <time>2021-08-02T09:31:46Z</time>
      </trkpt>
      <trkpt lat="43.160066" lon="-4.994829">
        <ele>1513.663</ele>
        <time>2021-08-02T09:31:50Z</time>
      </trkpt>
      <trkpt lat="43.160079" lon="-4.994767">
        <ele>1514.951</ele>
        <time>2021-08-02T09:31:56Z</time>
      </trkpt>
      <trkpt lat="43.160105" lon="-4.994709">
        <ele>1515.814</ele>
        <time>2021-08-02T09:32:01Z</time>
      </trkpt>
      <trkpt lat="43.160107" lon="-4.994646">
        <ele>1517.672</ele>
        <time>2021-08-02T09:32:08Z</time>
      </trkpt>
      <trkpt lat="43.160105" lon="-4.994584">
        <ele>1518.078</ele>
        <time>2021-08-02T09:32:13Z</time>
      </trkpt>
      <trkpt lat="43.160106" lon="-4.994518">
        <ele>1518.833</ele>
        <time>2021-08-02T09:32:17Z</time>
      </trkpt>
      <trkpt lat="43.160139" lon="-4.994474">
        <ele>1519.726</ele>
        <time>2021-08-02T09:32:23Z</time>
      </trkpt>
      <trkpt lat="43.160158" lon="-4.994418">
        <ele>1521.008</ele>
        <time>2021-08-02T09:32:30Z</time>
      </trkpt>
      <trkpt lat="43.16011" lon="-4.994421">
        <ele>1522.664</ele>
        <time>2021-08-02T09:33:19Z</time>
      </trkpt>
      <trkpt lat="43.160094" lon="-4.994356">
        <ele>1524.536</ele>
        <time>2021-08-02T09:33:28Z</time>
      </trkpt>
      <trkpt lat="43.160112" lon="-4.994298">
        <ele>1525.195</ele>
        <time>2021-08-02T09:33:34Z</time>
      </trkpt>
      <trkpt lat="43.160147" lon="-4.994245">
        <ele>1526.383</ele>
        <time>2021-08-02T09:33:39Z</time>
      </trkpt>
      <trkpt lat="43.160185" lon="-4.99421">
        <ele>1526.913</ele>
        <time>2021-08-02T09:33:44Z</time>
      </trkpt>
      <trkpt lat="43.160227" lon="-4.994181">
        <ele>1528.511</ele>
        <time>2021-08-02T09:33:51Z</time>
      </trkpt>
      <trkpt lat="43.160207" lon="-4.994121">
        <ele>1528.974</ele>
        <time>2021-08-02T09:33:56Z</time>
      </trkpt>
      <trkpt lat="43.160166" lon="-4.994088">
        <ele>1531.032</ele>
        <time>2021-08-02T09:34:42Z</time>
      </trkpt>
      <trkpt lat="43.160122" lon="-4.994069">
        <ele>1532.715</ele>
        <time>2021-08-02T09:34:50Z</time>
      </trkpt>
      <trkpt lat="43.160108" lon="-4.994009">
        <ele>1533.965</ele>
        <time>2021-08-02T09:34:58Z</time>
      </trkpt>
      <trkpt lat="43.16012" lon="-4.993949">
        <ele>1535.011</ele>
        <time>2021-08-02T09:35:20Z</time>
      </trkpt>
      <trkpt lat="43.160083" lon="-4.993904">
        <ele>1537.008</ele>
        <time>2021-08-02T09:35:34Z</time>
      </trkpt>
      <trkpt lat="43.160038" lon="-4.993876">
        <ele>1539.328</ele>
        <time>2021-08-02T09:35:43Z</time>
      </trkpt>
      <trkpt lat="43.160036" lon="-4.993814">
        <ele>1542.310</ele>
        <time>2021-08-02T09:36:02Z</time>
      </trkpt>
      <trkpt lat="43.160038" lon="-4.993748">
        <ele>1545.879</ele>
        <time>2021-08-02T09:36:16Z</time>
      </trkpt>
      <trkpt lat="43.160076" lon="-4.993714">
        <ele>1548.527</ele>
        <time>2021-08-02T09:36:26Z</time>
      </trkpt>
      <trkpt lat="43.16004" lon="-4.993676">
        <ele>1550.197</ele>
        <time>2021-08-02T09:36:31Z</time>
      </trkpt>
      <trkpt lat="43.160015" lon="-4.993622">
        <ele>1551.325</ele>
        <time>2021-08-02T09:36:37Z</time>
      </trkpt>
      <trkpt lat="43.160015" lon="-4.993556">
        <ele>1552.618</ele>
        <time>2021-08-02T09:36:44Z</time>
      </trkpt>
      <trkpt lat="43.16001" lon="-4.993494">
        <ele>1554.046</ele>
        <time>2021-08-02T09:36:51Z</time>
      </trkpt>
      <trkpt lat="43.160001" lon="-4.993431">
        <ele>1555.372</ele>
        <time>2021-08-02T09:36:58Z</time>
      </trkpt>
      <trkpt lat="43.159961" lon="-4.993389">
        <ele>1556.813</ele>
        <time>2021-08-02T09:37:26Z</time>
      </trkpt>
      <trkpt lat="43.160004" lon="-4.993371">
        <ele>1558.114</ele>
        <time>2021-08-02T09:37:42Z</time>
      </trkpt>
      <trkpt lat="43.160013" lon="-4.993304">
        <ele>1559.908</ele>
        <time>2021-08-02T09:39:48Z</time>
      </trkpt>
      <trkpt lat="43.159961" lon="-4.993281">
        <ele>1562.024</ele>
        <time>2021-08-02T09:39:53Z</time>
      </trkpt>
      <trkpt lat="43.159915" lon="-4.993258">
        <ele>1563.016</ele>
        <time>2021-08-02T09:39:57Z</time>
      </trkpt>
      <trkpt lat="43.159873" lon="-4.993232">
        <ele>1563.515</ele>
        <time>2021-08-02T09:40:01Z</time>
      </trkpt>
      <trkpt lat="43.159836" lon="-4.993179">
        <ele>1564.153</ele>
        <time>2021-08-02T09:40:06Z</time>
      </trkpt>
      <trkpt lat="43.159789" lon="-4.993168">
        <ele>1564.463</ele>
        <time>2021-08-02T09:40:10Z</time>
      </trkpt>
      <trkpt lat="43.159746" lon="-4.993134">
        <ele>1564.651</ele>
        <time>2021-08-02T09:40:15Z</time>
      </trkpt>
      <trkpt lat="43.159701" lon="-4.993108">
        <ele>1564.724</ele>
        <time>2021-08-02T09:40:20Z</time>
      </trkpt>
      <trkpt lat="43.15967" lon="-4.993061">
        <ele>1564.792</ele>
        <time>2021-08-02T09:40:24Z</time>
      </trkpt>
      <trkpt lat="43.159626" lon="-4.993034">
        <ele>1563.748</ele>
        <time>2021-08-02T09:40:29Z</time>
      </trkpt>
      <trkpt lat="43.159588" lon="-4.992999">
        <ele>1563.561</ele>
        <time>2021-08-02T09:41:29Z</time>
      </trkpt>
      <trkpt lat="43.159569" lon="-4.992937">
        <ele>1562.717</ele>
        <time>2021-08-02T09:41:33Z</time>
      </trkpt>
      <trkpt lat="43.159521" lon="-4.992908">
        <ele>1562.208</ele>
        <time>2021-08-02T09:41:38Z</time>
      </trkpt>
      <trkpt lat="43.159507" lon="-4.992843">
        <ele>1562.231</ele>
        <time>2021-08-02T09:42:15Z</time>
      </trkpt>
      <trkpt lat="43.159478" lon="-4.992795">
        <ele>1561.983</ele>
        <time>2021-08-02T09:42:20Z</time>
      </trkpt>
      <trkpt lat="43.159436" lon="-4.992767">
        <ele>1562.152</ele>
        <time>2021-08-02T09:42:24Z</time>
      </trkpt>
      <trkpt lat="43.1594" lon="-4.992724">
        <ele>1562.110</ele>
        <time>2021-08-02T09:42:28Z</time>
      </trkpt>
      <trkpt lat="43.159394" lon="-4.992657">
        <ele>1561.980</ele>
        <time>2021-08-02T09:42:33Z</time>
      </trkpt>
      <trkpt lat="43.159374" lon="-4.9926">
        <ele>1562.148</ele>
        <time>2021-08-02T09:42:37Z</time>
      </trkpt>
      <trkpt lat="43.159353" lon="-4.992544">
        <ele>1561.881</ele>
        <time>2021-08-02T09:42:41Z</time>
      </trkpt>
      <trkpt lat="43.159316" lon="-4.992504">
        <ele>1561.299</ele>
        <time>2021-08-02T09:42:45Z</time>
      </trkpt>
      <trkpt lat="43.159277" lon="-4.992463">
        <ele>1560.952</ele>
        <time>2021-08-02T09:42:50Z</time>
      </trkpt>
      <trkpt lat="43.159245" lon="-4.992416">
        <ele>1561.053</ele>
        <time>2021-08-02T09:42:54Z</time>
      </trkpt>
      <trkpt lat="43.159208" lon="-4.992374">
        <ele>1560.708</ele>
        <time>2021-08-02T09:42:58Z</time>
      </trkpt>
      <trkpt lat="43.15918" lon="-4.992321">
        <ele>1560.108</ele>
        <time>2021-08-02T09:43:03Z</time>
      </trkpt>
      <trkpt lat="43.159196" lon="-4.99226">
        <ele>1559.772</ele>
        <time>2021-08-02T09:43:08Z</time>
      </trkpt>
      <trkpt lat="43.159168" lon="-4.992209">
        <ele>1559.714</ele>
        <time>2021-08-02T09:43:13Z</time>
      </trkpt>
      <trkpt lat="43.159137" lon="-4.992154">
        <ele>1559.683</ele>
        <time>2021-08-02T09:43:20Z</time>
      </trkpt>
      <trkpt lat="43.159085" lon="-4.99215">
        <ele>1559.761</ele>
        <time>2021-08-02T09:43:26Z</time>
      </trkpt>
      <trkpt lat="43.15904" lon="-4.99213">
        <ele>1559.841</ele>
        <time>2021-08-02T09:43:32Z</time>
      </trkpt>
      <trkpt lat="43.159005" lon="-4.992087">
        <ele>1559.089</ele>
        <time>2021-08-02T09:43:37Z</time>
      </trkpt>
      <trkpt lat="43.158963" lon="-4.992053">
        <ele>1558.972</ele>
        <time>2021-08-02T09:43:43Z</time>
      </trkpt>
      <trkpt lat="43.158923" lon="-4.992021">
        <ele>1559.330</ele>
        <time>2021-08-02T09:43:48Z</time>
      </trkpt>
      <trkpt lat="43.158908" lon="-4.991958">
        <ele>1559.182</ele>
        <time>2021-08-02T09:44:19Z</time>
      </trkpt>
      <trkpt lat="43.158874" lon="-4.99191">
        <ele>1559.243</ele>
        <time>2021-08-02T09:44:26Z</time>
      </trkpt>
      <trkpt lat="43.158833" lon="-4.991872">
        <ele>1559.217</ele>
        <time>2021-08-02T09:44:31Z</time>
      </trkpt>
      <trkpt lat="43.158806" lon="-4.991818">
        <ele>1559.108</ele>
        <time>2021-08-02T09:44:45Z</time>
      </trkpt>
      <trkpt lat="43.158783" lon="-4.99176">
        <ele>1558.475</ele>
        <time>2021-08-02T09:45:03Z</time>
      </trkpt>
      <trkpt lat="43.158747" lon="-4.991713">
        <ele>1558.267</ele>
        <time>2021-08-02T09:45:09Z</time>
      </trkpt>
      <trkpt lat="43.158741" lon="-4.991644">
        <ele>1558.886</ele>
        <time>2021-08-02T09:45:14Z</time>
      </trkpt>
      <trkpt lat="43.158736" lon="-4.991581">
        <ele>1559.744</ele>
        <time>2021-08-02T09:45:30Z</time>
      </trkpt>
      <trkpt lat="43.15872" lon="-4.99152">
        <ele>1560.724</ele>
        <time>2021-08-02T09:45:36Z</time>
      </trkpt>
      <trkpt lat="43.158733" lon="-4.991455">
        <ele>1560.842</ele>
        <time>2021-08-02T09:45:48Z</time>
      </trkpt>
      <trkpt lat="43.158709" lon="-4.991398">
        <ele>1560.785</ele>
        <time>2021-08-02T09:45:54Z</time>
      </trkpt>
      <trkpt lat="43.158683" lon="-4.991346">
        <ele>1561.093</ele>
        <time>2021-08-02T09:45:58Z</time>
      </trkpt>
      <trkpt lat="43.158665" lon="-4.991286">
        <ele>1561.135</ele>
        <time>2021-08-02T09:46:05Z</time>
      </trkpt>
      <trkpt lat="43.158682" lon="-4.991225">
        <ele>1561.686</ele>
        <time>2021-08-02T09:46:12Z</time>
      </trkpt>
      <trkpt lat="43.158663" lon="-4.991156">
        <ele>1562.014</ele>
        <time>2021-08-02T09:46:18Z</time>
      </trkpt>
      <trkpt lat="43.158638" lon="-4.991102">
        <ele>1561.908</ele>
        <time>2021-08-02T09:46:37Z</time>
      </trkpt>
      <trkpt lat="43.158609" lon="-4.991054">
        <ele>1561.450</ele>
        <time>2021-08-02T09:46:40Z</time>
      </trkpt>
      <trkpt lat="43.158585" lon="-4.990997">
        <ele>1561.382</ele>
        <time>2021-08-02T09:46:44Z</time>
      </trkpt>
      <trkpt lat="43.158576" lon="-4.990936">
        <ele>1561.271</ele>
        <time>2021-08-02T09:46:49Z</time>
      </trkpt>
      <trkpt lat="43.158618" lon="-4.990903">
        <ele>1561.479</ele>
        <time>2021-08-02T09:46:57Z</time>
      </trkpt>
      <trkpt lat="43.15859" lon="-4.990849">
        <ele>1562.129</ele>
        <time>2021-08-02T09:47:07Z</time>
      </trkpt>
      <trkpt lat="43.158553" lon="-4.990811">
        <ele>1562.127</ele>
        <time>2021-08-02T09:47:14Z</time>
      </trkpt>
      <trkpt lat="43.158524" lon="-4.99076">
        <ele>1563.270</ele>
        <time>2021-08-02T09:47:20Z</time>
      </trkpt>
      <trkpt lat="43.158518" lon="-4.990696">
        <ele>1562.978</ele>
        <time>2021-08-02T09:47:27Z</time>
      </trkpt>
      <trkpt lat="43.158518" lon="-4.990627">
        <ele>1563.165</ele>
        <time>2021-08-02T09:47:32Z</time>
      </trkpt>
      <trkpt lat="43.158499" lon="-4.990571">
        <ele>1563.268</ele>
        <time>2021-08-02T09:47:36Z</time>
      </trkpt>
      <trkpt lat="43.15847" lon="-4.990517">
        <ele>1564.114</ele>
        <time>2021-08-02T09:47:40Z</time>
      </trkpt>
      <trkpt lat="43.158434" lon="-4.990468">
        <ele>1563.808</ele>
        <time>2021-08-02T09:47:44Z</time>
      </trkpt>
      <trkpt lat="43.158403" lon="-4.990413">
        <ele>1563.983</ele>
        <time>2021-08-02T09:47:51Z</time>
      </trkpt>
      <trkpt lat="43.158392" lon="-4.990349">
        <ele>1564.545</ele>
        <time>2021-08-02T09:48:00Z</time>
      </trkpt>
      <trkpt lat="43.158358" lon="-4.990304">
        <ele>1565.424</ele>
        <time>2021-08-02T09:48:05Z</time>
      </trkpt>
      <trkpt lat="43.158335" lon="-4.990249">
        <ele>1566.182</ele>
        <time>2021-08-02T09:48:11Z</time>
      </trkpt>
      <trkpt lat="43.158303" lon="-4.990196">
        <ele>1566.342</ele>
        <time>2021-08-02T09:48:17Z</time>
      </trkpt>
      <trkpt lat="43.15827" lon="-4.990147">
        <ele>1566.260</ele>
        <time>2021-08-02T09:48:47Z</time>
      </trkpt>
      <trkpt lat="43.158243" lon="-4.990089">
        <ele>1566.323</ele>
        <time>2021-08-02T09:48:52Z</time>
      </trkpt>
      <trkpt lat="43.158216" lon="-4.990036">
        <ele>1566.591</ele>
        <time>2021-08-02T09:48:58Z</time>
      </trkpt>
      <trkpt lat="43.158182" lon="-4.989994">
        <ele>1567.252</ele>
        <time>2021-08-02T09:49:32Z</time>
      </trkpt>
      <trkpt lat="43.158142" lon="-4.989962">
        <ele>1567.553</ele>
        <time>2021-08-02T09:49:41Z</time>
      </trkpt>
      <trkpt lat="43.158096" lon="-4.98995">
        <ele>1567.608</ele>
        <time>2021-08-02T09:49:51Z</time>
      </trkpt>
      <trkpt lat="43.158083" lon="-4.989889">
        <ele>1567.808</ele>
        <time>2021-08-02T09:49:57Z</time>
      </trkpt>
      <trkpt lat="43.158038" lon="-4.98986">
        <ele>1568.442</ele>
        <time>2021-08-02T09:50:06Z</time>
      </trkpt>
      <trkpt lat="43.158056" lon="-4.989802">
        <ele>1569.094</ele>
        <time>2021-08-02T09:50:24Z</time>
      </trkpt>
      <trkpt lat="43.158029" lon="-4.989741">
        <ele>1569.133</ele>
        <time>2021-08-02T09:50:32Z</time>
      </trkpt>
      <trkpt lat="43.157985" lon="-4.98976">
        <ele>1569.251</ele>
        <time>2021-08-02T09:50:47Z</time>
      </trkpt>
      <trkpt lat="43.157962" lon="-4.989706">
        <ele>1569.891</ele>
        <time>2021-08-02T09:50:53Z</time>
      </trkpt>
      <trkpt lat="43.157947" lon="-4.989645">
        <ele>1571.169</ele>
        <time>2021-08-02T09:50:59Z</time>
      </trkpt>
      <trkpt lat="43.157918" lon="-4.989594">
        <ele>1571.872</ele>
        <time>2021-08-02T09:51:05Z</time>
      </trkpt>
      <trkpt lat="43.157892" lon="-4.98954">
        <ele>1573.550</ele>
        <time>2021-08-02T09:51:19Z</time>
      </trkpt>
      <trkpt lat="43.15785" lon="-4.989499">
        <ele>1574.488</ele>
        <time>2021-08-02T09:51:33Z</time>
      </trkpt>
      <trkpt lat="43.157813" lon="-4.989453">
        <ele>1574.524</ele>
        <time>2021-08-02T09:51:39Z</time>
      </trkpt>
      <trkpt lat="43.157825" lon="-4.989391">
        <ele>1574.326</ele>
        <time>2021-08-02T09:51:56Z</time>
      </trkpt>
      <trkpt lat="43.157787" lon="-4.989351">
        <ele>1572.608</ele>
        <time>2021-08-02T09:52:03Z</time>
      </trkpt>
      <trkpt lat="43.157741" lon="-4.989365">
        <ele>1572.545</ele>
        <time>2021-08-02T09:52:07Z</time>
      </trkpt>
      <trkpt lat="43.157709" lon="-4.989313">
        <ele>1572.037</ele>
        <time>2021-08-02T09:53:00Z</time>
      </trkpt>
      <trkpt lat="43.157671" lon="-4.989277">
        <ele>1571.786</ele>
        <time>2021-08-02T09:53:06Z</time>
      </trkpt>
      <trkpt lat="43.157665" lon="-4.989213">
        <ele>1571.524</ele>
        <time>2021-08-02T09:53:13Z</time>
      </trkpt>
      <trkpt lat="43.157628" lon="-4.989168">
        <ele>1571.814</ele>
        <time>2021-08-02T09:53:24Z</time>
      </trkpt>
      <trkpt lat="43.157594" lon="-4.989128">
        <ele>1570.672</ele>
        <time>2021-08-02T09:53:36Z</time>
      </trkpt>
      <trkpt lat="43.157542" lon="-4.98913">
        <ele>1569.925</ele>
        <time>2021-08-02T09:53:41Z</time>
      </trkpt>
      <trkpt lat="43.157495" lon="-4.989128">
        <ele>1569.963</ele>
        <time>2021-08-02T09:53:45Z</time>
      </trkpt>
      <trkpt lat="43.15744" lon="-4.989143">
        <ele>1569.283</ele>
        <time>2021-08-02T09:53:49Z</time>
      </trkpt>
      <trkpt lat="43.157403" lon="-4.989101">
        <ele>1568.225</ele>
        <time>2021-08-02T09:53:55Z</time>
      </trkpt>
      <trkpt lat="43.157361" lon="-4.989075">
        <ele>1567.717</ele>
        <time>2021-08-02T09:54:07Z</time>
      </trkpt>
      <trkpt lat="43.157316" lon="-4.989057">
        <ele>1567.508</ele>
        <time>2021-08-02T09:54:16Z</time>
      </trkpt>
      <trkpt lat="43.157266" lon="-4.989065">
        <ele>1566.735</ele>
        <time>2021-08-02T09:54:25Z</time>
      </trkpt>
      <trkpt lat="43.157228" lon="-4.989024">
        <ele>1566.457</ele>
        <time>2021-08-02T09:54:53Z</time>
      </trkpt>
      <trkpt lat="43.157197" lon="-4.988976">
        <ele>1566.896</ele>
        <time>2021-08-02T09:56:04Z</time>
      </trkpt>
      <trkpt lat="43.157158" lon="-4.988939">
        <ele>1566.624</ele>
        <time>2021-08-02T09:56:18Z</time>
      </trkpt>
      <trkpt lat="43.157118" lon="-4.98891">
        <ele>1566.084</ele>
        <time>2021-08-02T09:56:23Z</time>
      </trkpt>
      <trkpt lat="43.157092" lon="-4.988849">
        <ele>1565.152</ele>
        <time>2021-08-02T09:56:29Z</time>
      </trkpt>
      <trkpt lat="43.157088" lon="-4.988785">
        <ele>1564.985</ele>
        <time>2021-08-02T09:56:36Z</time>
      </trkpt>
      <trkpt lat="43.157056" lon="-4.98874">
        <ele>1564.393</ele>
        <time>2021-08-02T09:56:44Z</time>
      </trkpt>
      <trkpt lat="43.157012" lon="-4.988728">
        <ele>1563.686</ele>
        <time>2021-08-02T09:56:55Z</time>
      </trkpt>
      <trkpt lat="43.156979" lon="-4.98868">
        <ele>1562.660</ele>
        <time>2021-08-02T09:57:01Z</time>
      </trkpt>
      <trkpt lat="43.156948" lon="-4.988631">
        <ele>1562.226</ele>
        <time>2021-08-02T09:57:06Z</time>
      </trkpt>
      <trkpt lat="43.156904" lon="-4.988611">
        <ele>1561.408</ele>
        <time>2021-08-02T09:57:13Z</time>
      </trkpt>
      <trkpt lat="43.156859" lon="-4.988586">
        <ele>1560.615</ele>
        <time>2021-08-02T09:57:17Z</time>
      </trkpt>
      <trkpt lat="43.156808" lon="-4.988581">
        <ele>1559.927</ele>
        <time>2021-08-02T09:57:26Z</time>
      </trkpt>
      <trkpt lat="43.156762" lon="-4.988614">
        <ele>1559.916</ele>
        <time>2021-08-02T09:57:30Z</time>
      </trkpt>
      <trkpt lat="43.156718" lon="-4.988631">
        <ele>1558.854</ele>
        <time>2021-08-02T09:57:35Z</time>
      </trkpt>
      <trkpt lat="43.156684" lon="-4.988587">
        <ele>1558.554</ele>
        <time>2021-08-02T09:57:42Z</time>
      </trkpt>
      <trkpt lat="43.156641" lon="-4.988604">
        <ele>1557.412</ele>
        <time>2021-08-02T09:58:08Z</time>
      </trkpt>
      <trkpt lat="43.156608" lon="-4.988559">
        <ele>1556.915</ele>
        <time>2021-08-02T09:58:38Z</time>
      </trkpt>
      <trkpt lat="43.156576" lon="-4.988509">
        <ele>1556.073</ele>
        <time>2021-08-02T09:58:46Z</time>
      </trkpt>
      <trkpt lat="43.156571" lon="-4.988446">
        <ele>1555.761</ele>
        <time>2021-08-02T09:58:54Z</time>
      </trkpt>
      <trkpt lat="43.156544" lon="-4.988395">
        <ele>1555.521</ele>
        <time>2021-08-02T09:59:01Z</time>
      </trkpt>
      <trkpt lat="43.156504" lon="-4.98836">
        <ele>1554.913</ele>
        <time>2021-08-02T09:59:06Z</time>
      </trkpt>
      <trkpt lat="43.156459" lon="-4.988348">
        <ele>1554.308</ele>
        <time>2021-08-02T09:59:13Z</time>
      </trkpt>
      <trkpt lat="43.156419" lon="-4.988315">
        <ele>1554.893</ele>
        <time>2021-08-02T09:59:20Z</time>
      </trkpt>
      <trkpt lat="43.156381" lon="-4.988279">
        <ele>1555.075</ele>
        <time>2021-08-02T10:00:06Z</time>
      </trkpt>
      <trkpt lat="43.156345" lon="-4.988241">
        <ele>1555.084</ele>
        <time>2021-08-02T10:00:13Z</time>
      </trkpt>
      <trkpt lat="43.156325" lon="-4.98818">
        <ele>1554.622</ele>
        <time>2021-08-02T10:00:19Z</time>
      </trkpt>
      <trkpt lat="43.156299" lon="-4.988125">
        <ele>1554.812</ele>
        <time>2021-08-02T10:00:27Z</time>
      </trkpt>
      <trkpt lat="43.156271" lon="-4.988074">
        <ele>1555.180</ele>
        <time>2021-08-02T10:00:50Z</time>
      </trkpt>
      <trkpt lat="43.156255" lon="-4.988012">
        <ele>1554.323</ele>
        <time>2021-08-02T10:00:57Z</time>
      </trkpt>
      <trkpt lat="43.15627" lon="-4.987948">
        <ele>1553.711</ele>
        <time>2021-08-02T10:01:12Z</time>
      </trkpt>
      <trkpt lat="43.156285" lon="-4.98788">
        <ele>1553.012</ele>
        <time>2021-08-02T10:01:16Z</time>
      </trkpt>
      <trkpt lat="43.156282" lon="-4.987812">
        <ele>1552.632</ele>
        <time>2021-08-02T10:01:25Z</time>
      </trkpt>
      <trkpt lat="43.15629" lon="-4.987751">
        <ele>1553.305</ele>
        <time>2021-08-02T10:01:32Z</time>
      </trkpt>
      <trkpt lat="43.156256" lon="-4.987711">
        <ele>1553.708</ele>
        <time>2021-08-02T10:01:39Z</time>
      </trkpt>
      <trkpt lat="43.156228" lon="-4.987662">
        <ele>1554.178</ele>
        <time>2021-08-02T10:01:47Z</time>
      </trkpt>
      <trkpt lat="43.156247" lon="-4.987606">
        <ele>1555.360</ele>
        <time>2021-08-02T10:02:08Z</time>
      </trkpt>
      <trkpt lat="43.156224" lon="-4.987547">
        <ele>1556.859</ele>
        <time>2021-08-02T10:02:15Z</time>
      </trkpt>
      <trkpt lat="43.156186" lon="-4.987504">
        <ele>1556.887</ele>
        <time>2021-08-02T10:02:23Z</time>
      </trkpt>
      <trkpt lat="43.156149" lon="-4.987464">
        <ele>1558.447</ele>
        <time>2021-08-02T10:02:46Z</time>
      </trkpt>
      <trkpt lat="43.156178" lon="-4.987415">
        <ele>1559.285</ele>
        <time>2021-08-02T10:02:57Z</time>
      </trkpt>
      <trkpt lat="43.156219" lon="-4.987389">
        <ele>1560.698</ele>
        <time>2021-08-02T10:03:18Z</time>
      </trkpt>
      <trkpt lat="43.156182" lon="-4.987353">
        <ele>1561.936</ele>
        <time>2021-08-02T10:03:31Z</time>
      </trkpt>
      <trkpt lat="43.156136" lon="-4.987325">
        <ele>1562.959</ele>
        <time>2021-08-02T10:03:39Z</time>
      </trkpt>
      <trkpt lat="43.156094" lon="-4.987279">
        <ele>1563.903</ele>
        <time>2021-08-02T10:03:46Z</time>
      </trkpt>
      <trkpt lat="43.156063" lon="-4.987231">
        <ele>1564.423</ele>
        <time>2021-08-02T10:03:55Z</time>
      </trkpt>
      <trkpt lat="43.156055" lon="-4.987165">
        <ele>1564.308</ele>
        <time>2021-08-02T10:03:59Z</time>
      </trkpt>
      <trkpt lat="43.156046" lon="-4.987102">
        <ele>1564.062</ele>
        <time>2021-08-02T10:04:06Z</time>
      </trkpt>
      <trkpt lat="43.156013" lon="-4.987057">
        <ele>1564.034</ele>
        <time>2021-08-02T10:04:13Z</time>
      </trkpt>
      <trkpt lat="43.156" lon="-4.986989">
        <ele>1564.213</ele>
        <time>2021-08-02T10:04:23Z</time>
      </trkpt>
      <trkpt lat="43.155987" lon="-4.986927">
        <ele>1564.381</ele>
        <time>2021-08-02T10:04:28Z</time>
      </trkpt>
      <trkpt lat="43.15597" lon="-4.986869">
        <ele>1564.431</ele>
        <time>2021-08-02T10:04:33Z</time>
      </trkpt>
      <trkpt lat="43.155957" lon="-4.986808">
        <ele>1564.749</ele>
        <time>2021-08-02T10:04:40Z</time>
      </trkpt>
      <trkpt lat="43.155945" lon="-4.986747">
        <ele>1565.042</ele>
        <time>2021-08-02T10:04:48Z</time>
      </trkpt>
      <trkpt lat="43.155941" lon="-4.986684">
        <ele>1565.740</ele>
        <time>2021-08-02T10:05:24Z</time>
      </trkpt>
      <trkpt lat="43.155927" lon="-4.986621">
        <ele>1565.529</ele>
        <time>2021-08-02T10:05:32Z</time>
      </trkpt>
      <trkpt lat="43.155888" lon="-4.986576">
        <ele>1565.700</ele>
        <time>2021-08-02T10:05:35Z</time>
      </trkpt>
      <trkpt lat="43.155861" lon="-4.986524">
        <ele>1565.520</ele>
        <time>2021-08-02T10:05:41Z</time>
      </trkpt>
      <trkpt lat="43.155847" lon="-4.986462">
        <ele>1565.208</ele>
        <time>2021-08-02T10:05:45Z</time>
      </trkpt>
      <trkpt lat="43.155838" lon="-4.986394">
        <ele>1565.439</ele>
        <time>2021-08-02T10:05:49Z</time>
      </trkpt>
      <trkpt lat="43.155838" lon="-4.986324">
        <ele>1565.391</ele>
        <time>2021-08-02T10:05:52Z</time>
      </trkpt>
      <trkpt lat="43.155872" lon="-4.986279">
        <ele>1565.020</ele>
        <time>2021-08-02T10:06:08Z</time>
      </trkpt>
      <trkpt lat="43.155914" lon="-4.986257">
        <ele>1564.598</ele>
        <time>2021-08-02T10:06:17Z</time>
      </trkpt>
      <trkpt lat="43.155913" lon="-4.98619">
        <ele>1564.818</ele>
        <time>2021-08-02T10:06:23Z</time>
      </trkpt>
      <trkpt lat="43.155889" lon="-4.986135">
        <ele>1564.516</ele>
        <time>2021-08-02T10:06:26Z</time>
      </trkpt>
      <trkpt lat="43.155849" lon="-4.986101">
        <ele>1564.829</ele>
        <time>2021-08-02T10:06:32Z</time>
      </trkpt>
      <trkpt lat="43.155871" lon="-4.986036">
        <ele>1564.347</ele>
        <time>2021-08-02T10:06:37Z</time>
      </trkpt>
      <trkpt lat="43.155888" lon="-4.985976">
        <ele>1564.775</ele>
        <time>2021-08-02T10:06:43Z</time>
      </trkpt>
      <trkpt lat="43.15589" lon="-4.985912">
        <ele>1564.428</ele>
        <time>2021-08-02T10:06:49Z</time>
      </trkpt>
      <trkpt lat="43.155909" lon="-4.985854">
        <ele>1564.320</ele>
        <time>2021-08-02T10:06:54Z</time>
      </trkpt>
      <trkpt lat="43.155906" lon="-4.985784">
        <ele>1564.408</ele>
        <time>2021-08-02T10:06:59Z</time>
      </trkpt>
      <trkpt lat="43.155898" lon="-4.985722">
        <ele>1564.254</ele>
        <time>2021-08-02T10:07:02Z</time>
      </trkpt>
      <trkpt lat="43.155901" lon="-4.985659">
        <ele>1564.136</ele>
        <time>2021-08-02T10:07:07Z</time>
      </trkpt>
      <trkpt lat="43.155906" lon="-4.985592">
        <ele>1564.365</ele>
        <time>2021-08-02T10:07:11Z</time>
      </trkpt>
      <trkpt lat="43.155923" lon="-4.98553">
        <ele>1564.743</ele>
        <time>2021-08-02T10:07:17Z</time>
      </trkpt>
      <trkpt lat="43.155916" lon="-4.985464">
        <ele>1565.043</ele>
        <time>2021-08-02T10:07:25Z</time>
      </trkpt>
      <trkpt lat="43.1559" lon="-4.985406">
        <ele>1564.821</ele>
        <time>2021-08-02T10:07:32Z</time>
      </trkpt>
      <trkpt lat="43.155866" lon="-4.985365">
        <ele>1565.264</ele>
        <time>2021-08-02T10:07:44Z</time>
      </trkpt>
      <trkpt lat="43.155885" lon="-4.985301">
        <ele>1565.782</ele>
        <time>2021-08-02T10:07:47Z</time>
      </trkpt>
      <trkpt lat="43.155894" lon="-4.985232">
        <ele>1566.394</ele>
        <time>2021-08-02T10:07:51Z</time>
      </trkpt>
      <trkpt lat="43.155896" lon="-4.985163">
        <ele>1566.657</ele>
        <time>2021-08-02T10:07:56Z</time>
      </trkpt>
      <trkpt lat="43.155865" lon="-4.985112">
        <ele>1566.522</ele>
        <time>2021-08-02T10:08:02Z</time>
      </trkpt>
      <trkpt lat="43.155857" lon="-4.985043">
        <ele>1566.608</ele>
        <time>2021-08-02T10:08:07Z</time>
      </trkpt>
      <trkpt lat="43.15586" lon="-4.984973">
        <ele>1567.066</ele>
        <time>2021-08-02T10:08:11Z</time>
      </trkpt>
      <trkpt lat="43.155863" lon="-4.984909">
        <ele>1568.268</ele>
        <time>2021-08-02T10:08:15Z</time>
      </trkpt>
      <trkpt lat="43.155856" lon="-4.984845">
        <ele>1567.887</ele>
        <time>2021-08-02T10:08:20Z</time>
      </trkpt>
      <trkpt lat="43.155842" lon="-4.984785">
        <ele>1568.415</ele>
        <time>2021-08-02T10:08:25Z</time>
      </trkpt>
      <trkpt lat="43.155823" lon="-4.984727">
        <ele>1569.095</ele>
        <time>2021-08-02T10:08:30Z</time>
      </trkpt>
      <trkpt lat="43.155817" lon="-4.984664">
        <ele>1569.913</ele>
        <time>2021-08-02T10:09:03Z</time>
      </trkpt>
      <trkpt lat="43.155823" lon="-4.984602">
        <ele>1570.466</ele>
        <time>2021-08-02T10:09:22Z</time>
      </trkpt>
      <trkpt lat="43.155815" lon="-4.984541">
        <ele>1570.814</ele>
        <time>2021-08-02T10:09:33Z</time>
      </trkpt>
      <trkpt lat="43.155784" lon="-4.984494">
        <ele>1571.516</ele>
        <time>2021-08-02T10:09:40Z</time>
      </trkpt>
      <trkpt lat="43.155784" lon="-4.984428">
        <ele>1571.576</ele>
        <time>2021-08-02T10:09:45Z</time>
      </trkpt>
      <trkpt lat="43.155783" lon="-4.984365">
        <ele>1572.413</ele>
        <time>2021-08-02T10:09:51Z</time>
      </trkpt>
      <trkpt lat="43.155748" lon="-4.984316">
        <ele>1572.408</ele>
        <time>2021-08-02T10:10:00Z</time>
      </trkpt>
      <trkpt lat="43.155715" lon="-4.984272">
        <ele>1572.388</ele>
        <time>2021-08-02T10:10:05Z</time>
      </trkpt>
      <trkpt lat="43.155682" lon="-4.98423">
        <ele>1572.460</ele>
        <time>2021-08-02T10:10:10Z</time>
      </trkpt>
      <trkpt lat="43.155672" lon="-4.984165">
        <ele>1572.159</ele>
        <time>2021-08-02T10:10:18Z</time>
      </trkpt>
      <trkpt lat="43.155639" lon="-4.984123">
        <ele>1572.267</ele>
        <time>2021-08-02T10:10:30Z</time>
      </trkpt>
      <trkpt lat="43.155599" lon="-4.984088">
        <ele>1571.997</ele>
        <time>2021-08-02T10:10:34Z</time>
      </trkpt>
      <trkpt lat="43.155554" lon="-4.984101">
        <ele>1571.515</ele>
        <time>2021-08-02T10:10:39Z</time>
      </trkpt>
      <trkpt lat="43.155509" lon="-4.984083">
        <ele>1570.988</ele>
        <time>2021-08-02T10:10:46Z</time>
      </trkpt>
      <trkpt lat="43.155464" lon="-4.98406">
        <ele>1571.676</ele>
        <time>2021-08-02T10:10:51Z</time>
      </trkpt>
      <trkpt lat="43.15542" lon="-4.984042">
        <ele>1571.061</ele>
        <time>2021-08-02T10:10:57Z</time>
      </trkpt>
      <trkpt lat="43.155376" lon="-4.98407">
        <ele>1570.921</ele>
        <time>2021-08-02T10:11:03Z</time>
      </trkpt>
      <trkpt lat="43.155333" lon="-4.984091">
        <ele>1570.613</ele>
        <time>2021-08-02T10:11:08Z</time>
      </trkpt>
      <trkpt lat="43.155285" lon="-4.984091">
        <ele>1571.408</ele>
        <time>2021-08-02T10:11:14Z</time>
      </trkpt>
      <trkpt lat="43.155241" lon="-4.984112">
        <ele>1571.443</ele>
        <time>2021-08-02T10:11:18Z</time>
      </trkpt>
      <trkpt lat="43.155201" lon="-4.984142">
        <ele>1571.555</ele>
        <time>2021-08-02T10:11:23Z</time>
      </trkpt>
      <trkpt lat="43.155155" lon="-4.98414">
        <ele>1571.584</ele>
        <time>2021-08-02T10:11:28Z</time>
      </trkpt>
      <trkpt lat="43.155103" lon="-4.98415">
        <ele>1571.672</ele>
        <time>2021-08-02T10:11:33Z</time>
      </trkpt>
      <trkpt lat="43.155052" lon="-4.984162">
        <ele>1570.852</ele>
        <time>2021-08-02T10:11:37Z</time>
      </trkpt>
      <trkpt lat="43.155011" lon="-4.984205">
        <ele>1570.740</ele>
        <time>2021-08-02T10:11:41Z</time>
      </trkpt>
      <trkpt lat="43.154967" lon="-4.984218">
        <ele>1570.913</ele>
        <time>2021-08-02T10:11:50Z</time>
      </trkpt>
      <trkpt lat="43.154924" lon="-4.984237">
        <ele>1570.431</ele>
        <time>2021-08-02T10:12:08Z</time>
      </trkpt>
      <trkpt lat="43.154881" lon="-4.984271">
        <ele>1570.038</ele>
        <time>2021-08-02T10:12:13Z</time>
      </trkpt>
      <trkpt lat="43.154836" lon="-4.984292">
        <ele>1569.370</ele>
        <time>2021-08-02T10:12:24Z</time>
      </trkpt>
      <trkpt lat="43.154794" lon="-4.984318">
        <ele>1568.917</ele>
        <time>2021-08-02T10:12:28Z</time>
      </trkpt>
      <trkpt lat="43.154751" lon="-4.984337">
        <ele>1568.608</ele>
        <time>2021-08-02T10:12:32Z</time>
      </trkpt>
      <trkpt lat="43.154707" lon="-4.984351">
        <ele>1568.410</ele>
        <time>2021-08-02T10:12:36Z</time>
      </trkpt>
      <trkpt lat="43.154659" lon="-4.984354">
        <ele>1568.462</ele>
        <time>2021-08-02T10:12:41Z</time>
      </trkpt>
      <trkpt lat="43.154614" lon="-4.984342">
        <ele>1568.261</ele>
        <time>2021-08-02T10:12:47Z</time>
      </trkpt>
      <trkpt lat="43.15457" lon="-4.984367">
        <ele>1567.859</ele>
        <time>2021-08-02T10:12:53Z</time>
      </trkpt>
      <trkpt lat="43.15452" lon="-4.984371">
        <ele>1567.949</ele>
        <time>2021-08-02T10:12:59Z</time>
      </trkpt>
      <trkpt lat="43.154474" lon="-4.98437">
        <ele>1567.387</ele>
        <time>2021-08-02T10:13:03Z</time>
      </trkpt>
      <trkpt lat="43.154429" lon="-4.984377">
        <ele>1567.680</ele>
        <time>2021-08-02T10:13:07Z</time>
      </trkpt>
      <trkpt lat="43.154387" lon="-4.984406">
        <ele>1567.298</ele>
        <time>2021-08-02T10:13:12Z</time>
      </trkpt>
      <trkpt lat="43.154344" lon="-4.984423">
        <ele>1567.031</ele>
        <time>2021-08-02T10:13:16Z</time>
      </trkpt>
      <trkpt lat="43.154294" lon="-4.984415">
        <ele>1566.761</ele>
        <time>2021-08-02T10:13:21Z</time>
      </trkpt>
      <trkpt lat="43.154257" lon="-4.984453">
        <ele>1567.007</ele>
        <time>2021-08-02T10:13:25Z</time>
      </trkpt>
      <trkpt lat="43.154221" lon="-4.984505">
        <ele>1567.308</ele>
        <time>2021-08-02T10:13:30Z</time>
      </trkpt>
      <trkpt lat="43.154185" lon="-4.984544">
        <ele>1567.350</ele>
        <time>2021-08-02T10:13:34Z</time>
      </trkpt>
      <trkpt lat="43.154149" lon="-4.984586">
        <ele>1567.972</ele>
        <time>2021-08-02T10:13:38Z</time>
      </trkpt>
      <trkpt lat="43.154194" lon="-4.984576">
        <ele>1567.761</ele>
        <time>2021-08-02T10:14:06Z</time>
      </trkpt>
      <trkpt lat="43.154159" lon="-4.984623">
        <ele>1567.569</ele>
        <time>2021-08-02T10:14:13Z</time>
      </trkpt>
      <trkpt lat="43.154116" lon="-4.984652">
        <ele>1567.729</ele>
        <time>2021-08-02T10:14:17Z</time>
      </trkpt>
      <trkpt lat="43.154077" lon="-4.984694">
        <ele>1568.317</ele>
        <time>2021-08-02T10:14:22Z</time>
      </trkpt>
      <trkpt lat="43.154052" lon="-4.984746">
        <ele>1568.470</ele>
        <time>2021-08-02T10:14:26Z</time>
      </trkpt>
      <trkpt lat="43.154012" lon="-4.984789">
        <ele>1568.678</ele>
        <time>2021-08-02T10:14:30Z</time>
      </trkpt>
      <trkpt lat="43.154023" lon="-4.984727">
        <ele>1567.851</ele>
        <time>2021-08-02T10:14:35Z</time>
      </trkpt>
      <trkpt lat="43.153977" lon="-4.984748">
        <ele>1569.801</ele>
        <time>2021-08-02T10:15:59Z</time>
      </trkpt>
      <trkpt lat="43.153935" lon="-4.984781">
        <ele>1571.311</ele>
        <time>2021-08-02T10:16:03Z</time>
      </trkpt>
      <trkpt lat="43.153962" lon="-4.984834">
        <ele>1570.408</ele>
        <time>2021-08-02T10:16:57Z</time>
      </trkpt>
      <trkpt lat="43.153929" lon="-4.984888">
        <ele>1570.682</ele>
        <time>2021-08-02T10:17:01Z</time>
      </trkpt>
      <trkpt lat="43.153882" lon="-4.984898">
        <ele>1570.574</ele>
        <time>2021-08-02T10:17:04Z</time>
      </trkpt>
      <trkpt lat="43.153837" lon="-4.984906">
        <ele>1570.223</ele>
        <time>2021-08-02T10:17:08Z</time>
      </trkpt>
      <trkpt lat="43.153793" lon="-4.984924">
        <ele>1570.341</ele>
        <time>2021-08-02T10:17:11Z</time>
      </trkpt>
      <trkpt lat="43.153744" lon="-4.984918">
        <ele>1569.621</ele>
        <time>2021-08-02T10:17:24Z</time>
      </trkpt>
      <trkpt lat="43.153697" lon="-4.984933">
        <ele>1569.049</ele>
        <time>2021-08-02T10:17:28Z</time>
      </trkpt>
      <trkpt lat="43.153649" lon="-4.984931">
        <ele>1569.092</ele>
        <time>2021-08-02T10:17:32Z</time>
      </trkpt>
      <trkpt lat="43.153602" lon="-4.984931">
        <ele>1568.010</ele>
        <time>2021-08-02T10:17:36Z</time>
      </trkpt>
      <trkpt lat="43.153556" lon="-4.984935">
        <ele>1568.436</ele>
        <time>2021-08-02T10:17:39Z</time>
      </trkpt>
      <trkpt lat="43.1535" lon="-4.98492">
        <ele>1568.317</ele>
        <time>2021-08-02T10:17:43Z</time>
      </trkpt>
      <trkpt lat="43.153459" lon="-4.984881">
        <ele>1568.418</ele>
        <time>2021-08-02T10:17:48Z</time>
      </trkpt>
      <trkpt lat="43.153415" lon="-4.98486">
        <ele>1568.708</ele>
        <time>2021-08-02T10:17:53Z</time>
      </trkpt>
      <trkpt lat="43.153367" lon="-4.984853">
        <ele>1568.470</ele>
        <time>2021-08-02T10:18:01Z</time>
      </trkpt>
      <trkpt lat="43.15332" lon="-4.984867">
        <ele>1567.872</ele>
        <time>2021-08-02T10:18:05Z</time>
      </trkpt>
      <trkpt lat="43.153273" lon="-4.984878">
        <ele>1567.041</ele>
        <time>2021-08-02T10:18:09Z</time>
      </trkpt>
      <trkpt lat="43.153266" lon="-4.98481">
        <ele>1567.369</ele>
        <time>2021-08-02T10:18:22Z</time>
      </trkpt>
      <trkpt lat="43.153267" lon="-4.984738">
        <ele>1567.489</ele>
        <time>2021-08-02T10:18:32Z</time>
      </trkpt>
      <trkpt lat="43.153247" lon="-4.984672">
        <ele>1567.247</ele>
        <time>2021-08-02T10:18:37Z</time>
      </trkpt>
      <trkpt lat="43.153232" lon="-4.98461">
        <ele>1566.530</ele>
        <time>2021-08-02T10:18:43Z</time>
      </trkpt>
      <trkpt lat="43.153255" lon="-4.984549">
        <ele>1567.078</ele>
        <time>2021-08-02T10:18:48Z</time>
      </trkpt>
      <trkpt lat="43.153263" lon="-4.984487">
        <ele>1566.846</ele>
        <time>2021-08-02T10:18:53Z</time>
      </trkpt>
      <trkpt lat="43.153259" lon="-4.98442">
        <ele>1567.088</ele>
        <time>2021-08-02T10:18:59Z</time>
      </trkpt>
      <trkpt lat="43.153254" lon="-4.984355">
        <ele>1566.716</ele>
        <time>2021-08-02T10:19:04Z</time>
      </trkpt>
      <trkpt lat="43.153276" lon="-4.9843">
        <ele>1567.608</ele>
        <time>2021-08-02T10:19:25Z</time>
      </trkpt>
      <trkpt lat="43.153295" lon="-4.984242">
        <ele>1568.131</ele>
        <time>2021-08-02T10:19:31Z</time>
      </trkpt>
      <trkpt lat="43.1533" lon="-4.984177">
        <ele>1569.073</ele>
        <time>2021-08-02T10:19:37Z</time>
      </trkpt>
      <trkpt lat="43.153304" lon="-4.984114">
        <ele>1568.662</ele>
        <time>2021-08-02T10:19:42Z</time>
      </trkpt>
      <trkpt lat="43.153303" lon="-4.984037">
        <ele>1569.250</ele>
        <time>2021-08-02T10:19:47Z</time>
      </trkpt>
      <trkpt lat="43.153281" lon="-4.983963">
        <ele>1569.620</ele>
        <time>2021-08-02T10:19:53Z</time>
      </trkpt>
      <trkpt lat="43.153269" lon="-4.983898">
        <ele>1570.368</ele>
        <time>2021-08-02T10:19:58Z</time>
      </trkpt>
      <trkpt lat="43.153282" lon="-4.983835">
        <ele>1571.511</ele>
        <time>2021-08-02T10:20:05Z</time>
      </trkpt>
      <trkpt lat="43.153298" lon="-4.983772">
        <ele>1572.539</ele>
        <time>2021-08-02T10:20:11Z</time>
      </trkpt>
      <trkpt lat="43.15329" lon="-4.983709">
        <ele>1573.267</ele>
        <time>2021-08-02T10:20:17Z</time>
      </trkpt>
      <trkpt lat="43.153287" lon="-4.983647">
        <ele>1573.081</ele>
        <time>2021-08-02T10:20:22Z</time>
      </trkpt>
      <trkpt lat="43.153277" lon="-4.983585">
        <ele>1573.319</ele>
        <time>2021-08-02T10:20:29Z</time>
      </trkpt>
      <trkpt lat="43.15326" lon="-4.983522">
        <ele>1574.608</ele>
        <time>2021-08-02T10:21:01Z</time>
      </trkpt>
      <trkpt lat="43.153225" lon="-4.983481">
        <ele>1575.043</ele>
        <time>2021-08-02T10:21:05Z</time>
      </trkpt>
      <trkpt lat="43.153186" lon="-4.983447">
        <ele>1576.065</ele>
        <time>2021-08-02T10:21:10Z</time>
      </trkpt>
      <trkpt lat="43.153143" lon="-4.983464">
        <ele>1576.194</ele>
        <time>2021-08-02T10:21:16Z</time>
      </trkpt>
      <trkpt lat="43.153111" lon="-4.983399">
        <ele>1576.332</ele>
        <time>2021-08-02T10:21:29Z</time>
      </trkpt>
      <trkpt lat="43.153065" lon="-4.983412">
        <ele>1577.262</ele>
        <time>2021-08-02T10:21:37Z</time>
      </trkpt>
      <trkpt lat="43.15304" lon="-4.98335">
        <ele>1577.010</ele>
        <time>2021-08-02T10:21:42Z</time>
      </trkpt>
      <trkpt lat="43.153011" lon="-4.983412">
        <ele>1577.413</ele>
        <time>2021-08-02T10:21:47Z</time>
      </trkpt>
      <trkpt lat="43.152966" lon="-4.983381">
        <ele>1577.281</ele>
        <time>2021-08-02T10:21:54Z</time>
      </trkpt>
      <trkpt lat="43.152969" lon="-4.983445">
        <ele>1576.743</ele>
        <time>2021-08-02T10:22:00Z</time>
      </trkpt>
      <trkpt lat="43.152975" lon="-4.983383">
        <ele>1577.064</ele>
        <time>2021-08-02T10:22:09Z</time>
      </trkpt>
      <trkpt lat="43.153014" lon="-4.983419">
        <ele>1579.210</ele>
        <time>2021-08-02T10:24:40Z</time>
      </trkpt>
      <trkpt lat="43.153007" lon="-4.983348">
        <ele>1581.708</ele>
        <time>2021-08-02T10:28:01Z</time>
      </trkpt>
      <trkpt lat="43.152962" lon="-4.983343">
        <ele>1582.021</ele>
        <time>2021-08-02T10:30:34Z</time>
      </trkpt>
      <trkpt lat="43.152961" lon="-4.983405">
        <ele>1581.643</ele>
        <time>2021-08-02T10:31:01Z</time>
      </trkpt>
      <trkpt lat="43.153001" lon="-4.983435">
        <ele>1580.382</ele>
        <time>2021-08-02T10:32:26Z</time>
      </trkpt>
      <trkpt lat="43.152995" lon="-4.983372">
        <ele>1578.680</ele>
        <time>2021-08-02T10:32:42Z</time>
      </trkpt>
      <trkpt lat="43.153004" lon="-4.98331">
        <ele>1577.620</ele>
        <time>2021-08-02T10:32:46Z</time>
      </trkpt>
      <trkpt lat="43.152985" lon="-4.983253">
        <ele>1577.058</ele>
        <time>2021-08-02T10:32:49Z</time>
      </trkpt>
      <trkpt lat="43.152935" lon="-4.98323">
        <ele>1576.151</ele>
        <time>2021-08-02T10:33:01Z</time>
      </trkpt>
      <trkpt lat="43.152886" lon="-4.983228">
        <ele>1575.879</ele>
        <time>2021-08-02T10:33:09Z</time>
      </trkpt>
      <trkpt lat="43.152848" lon="-4.983193">
        <ele>1575.124</ele>
        <time>2021-08-02T10:33:19Z</time>
      </trkpt>
      <trkpt lat="43.152811" lon="-4.983156">
        <ele>1574.804</ele>
        <time>2021-08-02T10:33:27Z</time>
      </trkpt>
      <trkpt lat="43.152772" lon="-4.983122">
        <ele>1574.514</ele>
        <time>2021-08-02T10:33:48Z</time>
      </trkpt>
      <trkpt lat="43.152727" lon="-4.983116">
        <ele>1573.708</ele>
        <time>2021-08-02T10:34:21Z</time>
      </trkpt>
      <trkpt lat="43.152682" lon="-4.9831">
        <ele>1573.339</ele>
        <time>2021-08-02T10:34:30Z</time>
      </trkpt>
      <trkpt lat="43.152655" lon="-4.983051">
        <ele>1573.351</ele>
        <time>2021-08-02T10:34:42Z</time>
      </trkpt>
      <trkpt lat="43.152611" lon="-4.983064">
        <ele>1573.750</ele>
        <time>2021-08-02T10:35:06Z</time>
      </trkpt>
      <trkpt lat="43.152565" lon="-4.983049">
        <ele>1574.278</ele>
        <time>2021-08-02T10:35:12Z</time>
      </trkpt>
      <trkpt lat="43.15252" lon="-4.983067">
        <ele>1574.338</ele>
        <time>2021-08-02T10:35:18Z</time>
      </trkpt>
      <trkpt lat="43.152474" lon="-4.983069">
        <ele>1574.226</ele>
        <time>2021-08-02T10:35:24Z</time>
      </trkpt>
      <trkpt lat="43.152428" lon="-4.983091">
        <ele>1574.079</ele>
        <time>2021-08-02T10:35:29Z</time>
      </trkpt>
      <trkpt lat="43.152379" lon="-4.983073">
        <ele>1573.957</ele>
        <time>2021-08-02T10:35:32Z</time>
      </trkpt>
      <trkpt lat="43.152341" lon="-4.983035">
        <ele>1574.043</ele>
        <time>2021-08-02T10:35:37Z</time>
      </trkpt>
      <trkpt lat="43.152312" lon="-4.982984">
        <ele>1573.764</ele>
        <time>2021-08-02T10:35:43Z</time>
      </trkpt>
      <trkpt lat="43.152265" lon="-4.983017">
        <ele>1573.210</ele>
        <time>2021-08-02T10:35:48Z</time>
      </trkpt>
      <trkpt lat="43.152286" lon="-4.983073">
        <ele>1572.608</ele>
        <time>2021-08-02T10:35:52Z</time>
      </trkpt>
      <trkpt lat="43.152246" lon="-4.983101">
        <ele>1571.911</ele>
        <time>2021-08-02T10:36:00Z</time>
      </trkpt>
      <trkpt lat="43.152198" lon="-4.983115">
        <ele>1569.513</ele>
        <time>2021-08-02T10:36:07Z</time>
      </trkpt>
      <trkpt lat="43.15216" lon="-4.983074">
        <ele>1567.742</ele>
        <time>2021-08-02T10:36:11Z</time>
      </trkpt>
      <trkpt lat="43.152139" lon="-4.983131">
        <ele>1565.310</ele>
        <time>2021-08-02T10:36:25Z</time>
      </trkpt>
      <trkpt lat="43.152112" lon="-4.983078">
        <ele>1562.970</ele>
        <time>2021-08-02T10:36:33Z</time>
      </trkpt>
      <trkpt lat="43.152068" lon="-4.983056">
        <ele>1561.368</ele>
        <time>2021-08-02T10:36:39Z</time>
      </trkpt>
      <trkpt lat="43.152078" lon="-4.982992">
        <ele>1559.791</ele>
        <time>2021-08-02T10:36:47Z</time>
      </trkpt>
      <trkpt lat="43.152054" lon="-4.983044">
        <ele>1556.899</ele>
        <time>2021-08-02T10:37:14Z</time>
      </trkpt>
      <trkpt lat="43.152008" lon="-4.98303">
        <ele>1554.525</ele>
        <time>2021-08-02T10:37:22Z</time>
      </trkpt>
      <trkpt lat="43.152046" lon="-4.982989">
        <ele>1553.326</ele>
        <time>2021-08-02T10:37:33Z</time>
      </trkpt>
      <trkpt lat="43.152034" lon="-4.982926">
        <ele>1552.508</ele>
        <time>2021-08-02T10:37:36Z</time>
      </trkpt>
      <trkpt lat="43.152005" lon="-4.982876">
        <ele>1551.308</ele>
        <time>2021-08-02T10:37:40Z</time>
      </trkpt>
      <trkpt lat="43.15196" lon="-4.982856">
        <ele>1550.549</ele>
        <time>2021-08-02T10:37:43Z</time>
      </trkpt>
      <trkpt lat="43.151916" lon="-4.982871">
        <ele>1550.431</ele>
        <time>2021-08-02T10:37:48Z</time>
      </trkpt>
      <trkpt lat="43.151876" lon="-4.982837">
        <ele>1549.480</ele>
        <time>2021-08-02T10:37:54Z</time>
      </trkpt>
      <trkpt lat="43.151872" lon="-4.982899">
        <ele>1548.958</ele>
        <time>2021-08-02T10:38:03Z</time>
      </trkpt>
      <trkpt lat="43.151915" lon="-4.982869">
        <ele>1547.778</ele>
        <time>2021-08-02T10:38:16Z</time>
      </trkpt>
      <trkpt lat="43.151934" lon="-4.982811">
        <ele>1546.296</ele>
        <time>2021-08-02T10:38:27Z</time>
      </trkpt>
      <trkpt lat="43.151901" lon="-4.982765">
        <ele>1545.119</ele>
        <time>2021-08-02T10:38:33Z</time>
      </trkpt>
      <trkpt lat="43.151947" lon="-4.982757">
        <ele>1543.347</ele>
        <time>2021-08-02T10:38:52Z</time>
      </trkpt>
      <trkpt lat="43.151986" lon="-4.98272">
        <ele>1541.975</ele>
        <time>2021-08-02T10:38:56Z</time>
      </trkpt>
      <trkpt lat="43.152009" lon="-4.982666">
        <ele>1540.528</ele>
        <time>2021-08-02T10:39:09Z</time>
      </trkpt>
      <trkpt lat="43.152029" lon="-4.982608">
        <ele>1538.620</ele>
        <time>2021-08-02T10:39:12Z</time>
      </trkpt>
      <trkpt lat="43.152052" lon="-4.982544">
        <ele>1537.608</ele>
        <time>2021-08-02T10:39:16Z</time>
      </trkpt>
      <trkpt lat="43.152062" lon="-4.982482">
        <ele>1537.174</ele>
        <time>2021-08-02T10:39:19Z</time>
      </trkpt>
      <trkpt lat="43.152099" lon="-4.982445">
        <ele>1535.826</ele>
        <time>2021-08-02T10:39:23Z</time>
      </trkpt>
      <trkpt lat="43.152089" lon="-4.982384">
        <ele>1534.565</ele>
        <time>2021-08-02T10:39:29Z</time>
      </trkpt>
      <trkpt lat="43.152128" lon="-4.982426">
        <ele>1533.333</ele>
        <time>2021-08-02T10:39:49Z</time>
      </trkpt>
      <trkpt lat="43.152082" lon="-4.982422">
        <ele>1531.973</ele>
        <time>2021-08-02T10:39:55Z</time>
      </trkpt>
      <trkpt lat="43.152036" lon="-4.982421">
        <ele>1530.361</ele>
        <time>2021-08-02T10:40:08Z</time>
      </trkpt>
      <trkpt lat="43.152069" lon="-4.982375">
        <ele>1529.854</ele>
        <time>2021-08-02T10:40:14Z</time>
      </trkpt>
      <trkpt lat="43.152114" lon="-4.982355">
        <ele>1529.312</ele>
        <time>2021-08-02T10:40:20Z</time>
      </trkpt>
      <trkpt lat="43.152096" lon="-4.982298">
        <ele>1527.216</ele>
        <time>2021-08-02T10:40:38Z</time>
      </trkpt>
      <trkpt lat="43.152101" lon="-4.982235">
        <ele>1525.576</ele>
        <time>2021-08-02T10:40:45Z</time>
      </trkpt>
      <trkpt lat="43.152115" lon="-4.982175">
        <ele>1523.413</ele>
        <time>2021-08-02T10:40:53Z</time>
      </trkpt>
      <trkpt lat="43.152142" lon="-4.982119">
        <ele>1520.508</ele>
        <time>2021-08-02T10:42:04Z</time>
      </trkpt>
      <trkpt lat="43.15215" lon="-4.982058">
        <ele>1519.568</ele>
        <time>2021-08-02T10:42:12Z</time>
      </trkpt>
      <trkpt lat="43.152105" lon="-4.982045">
        <ele>1519.220</ele>
        <time>2021-08-02T10:42:24Z</time>
      </trkpt>
      <trkpt lat="43.15209" lon="-4.981986">
        <ele>1518.329</ele>
        <time>2021-08-02T10:42:38Z</time>
      </trkpt>
      <trkpt lat="43.152124" lon="-4.981945">
        <ele>1516.777</ele>
        <time>2021-08-02T10:42:47Z</time>
      </trkpt>
      <trkpt lat="43.152153" lon="-4.981897">
        <ele>1515.577</ele>
        <time>2021-08-02T10:42:58Z</time>
      </trkpt>
      <trkpt lat="43.152183" lon="-4.981848">
        <ele>1513.715</ele>
        <time>2021-08-02T10:43:09Z</time>
      </trkpt>
      <trkpt lat="43.152187" lon="-4.981785">
        <ele>1511.758</ele>
        <time>2021-08-02T10:43:18Z</time>
      </trkpt>
      <trkpt lat="43.152217" lon="-4.981734">
        <ele>1510.496</ele>
        <time>2021-08-02T10:43:25Z</time>
      </trkpt>
      <trkpt lat="43.152226" lon="-4.981671">
        <ele>1507.814</ele>
        <time>2021-08-02T10:43:36Z</time>
      </trkpt>
      <trkpt lat="43.152216" lon="-4.981604">
        <ele>1506.554</ele>
        <time>2021-08-02T10:43:41Z</time>
      </trkpt>
      <trkpt lat="43.152176" lon="-4.981635">
        <ele>1504.709</ele>
        <time>2021-08-02T10:43:47Z</time>
      </trkpt>
      <trkpt lat="43.152202" lon="-4.981578">
        <ele>1503.208</ele>
        <time>2021-08-02T10:44:00Z</time>
      </trkpt>
      <trkpt lat="43.152208" lon="-4.981515">
        <ele>1502.028</ele>
        <time>2021-08-02T10:44:06Z</time>
      </trkpt>
      <trkpt lat="43.152231" lon="-4.98146">
        <ele>1501.760</ele>
        <time>2021-08-02T10:44:10Z</time>
      </trkpt>
      <trkpt lat="43.152272" lon="-4.981428">
        <ele>1500.569</ele>
        <time>2021-08-02T10:44:18Z</time>
      </trkpt>
      <trkpt lat="43.152251" lon="-4.981359">
        <ele>1500.127</ele>
        <time>2021-08-02T10:44:25Z</time>
      </trkpt>
      <trkpt lat="43.152227" lon="-4.981306">
        <ele>1498.677</ele>
        <time>2021-08-02T10:44:31Z</time>
      </trkpt>
      <trkpt lat="43.152182" lon="-4.981323">
        <ele>1497.945</ele>
        <time>2021-08-02T10:44:34Z</time>
      </trkpt>
      <trkpt lat="43.152156" lon="-4.981374">
        <ele>1497.848</ele>
        <time>2021-08-02T10:44:44Z</time>
      </trkpt>
      <trkpt lat="43.152129" lon="-4.98132">
        <ele>1496.556</ele>
        <time>2021-08-02T10:44:53Z</time>
      </trkpt>
      <trkpt lat="43.152083" lon="-4.981299">
        <ele>1495.588</ele>
        <time>2021-08-02T10:45:00Z</time>
      </trkpt>
      <trkpt lat="43.152032" lon="-4.981307">
        <ele>1494.524</ele>
        <time>2021-08-02T10:45:08Z</time>
      </trkpt>
      <trkpt lat="43.151994" lon="-4.981266">
        <ele>1493.426</ele>
        <time>2021-08-02T10:45:13Z</time>
      </trkpt>
      <trkpt lat="43.15202" lon="-4.981214">
        <ele>1491.208</ele>
        <time>2021-08-02T10:45:35Z</time>
      </trkpt>
      <trkpt lat="43.152068" lon="-4.981216">
        <ele>1489.645</ele>
        <time>2021-08-02T10:45:42Z</time>
      </trkpt>
      <trkpt lat="43.152106" lon="-4.981254">
        <ele>1488.497</ele>
        <time>2021-08-02T10:45:45Z</time>
      </trkpt>
      <trkpt lat="43.152156" lon="-4.981237">
        <ele>1487.116</ele>
        <time>2021-08-02T10:45:50Z</time>
      </trkpt>
      <trkpt lat="43.15215" lon="-4.981171">
        <ele>1486.414</ele>
        <time>2021-08-02T10:45:56Z</time>
      </trkpt>
      <trkpt lat="43.152093" lon="-4.981144">
        <ele>1484.974</ele>
        <time>2021-08-02T10:45:59Z</time>
      </trkpt>
      <trkpt lat="43.152048" lon="-4.98116">
        <ele>1484.852</ele>
        <time>2021-08-02T10:46:03Z</time>
      </trkpt>
      <trkpt lat="43.152087" lon="-4.981123">
        <ele>1484.335</ele>
        <time>2021-08-02T10:46:19Z</time>
      </trkpt>
      <trkpt lat="43.152116" lon="-4.981063">
        <ele>1483.783</ele>
        <time>2021-08-02T10:46:22Z</time>
      </trkpt>
      <trkpt lat="43.152142" lon="-4.981011">
        <ele>1483.056</ele>
        <time>2021-08-02T10:46:25Z</time>
      </trkpt>
      <trkpt lat="43.152147" lon="-4.98094">
        <ele>1482.959</ele>
        <time>2021-08-02T10:46:29Z</time>
      </trkpt>
      <trkpt lat="43.152151" lon="-4.980877">
        <ele>1482.314</ele>
        <time>2021-08-02T10:46:32Z</time>
      </trkpt>
      <trkpt lat="43.152125" lon="-4.980825">
        <ele>1481.908</ele>
        <time>2021-08-02T10:46:34Z</time>
      </trkpt>
      <trkpt lat="43.152086" lon="-4.98078">
        <ele>1481.412</ele>
        <time>2021-08-02T10:46:36Z</time>
      </trkpt>
      <trkpt lat="43.152047" lon="-4.980742">
        <ele>1481.054</ele>
        <time>2021-08-02T10:46:38Z</time>
      </trkpt>
      <trkpt lat="43.152006" lon="-4.980689">
        <ele>1480.373</ele>
        <time>2021-08-02T10:46:42Z</time>
      </trkpt>
      <trkpt lat="43.151976" lon="-4.980637">
        <ele>1480.241</ele>
        <time>2021-08-02T10:46:45Z</time>
      </trkpt>
      <trkpt lat="43.151973" lon="-4.980574">
        <ele>1480.331</ele>
        <time>2021-08-02T10:46:49Z</time>
      </trkpt>
      <trkpt lat="43.151922" lon="-4.980562">
        <ele>1480.279</ele>
        <time>2021-08-02T10:46:53Z</time>
      </trkpt>
      <trkpt lat="43.151879" lon="-4.980524">
        <ele>1479.352</ele>
        <time>2021-08-02T10:46:57Z</time>
      </trkpt>
      <trkpt lat="43.151866" lon="-4.980462">
        <ele>1478.550</ele>
        <time>2021-08-02T10:47:05Z</time>
      </trkpt>
      <trkpt lat="43.15182" lon="-4.980433">
        <ele>1477.572</ele>
        <time>2021-08-02T10:47:07Z</time>
      </trkpt>
      <trkpt lat="43.151771" lon="-4.980397">
        <ele>1476.813</ele>
        <time>2021-08-02T10:47:10Z</time>
      </trkpt>
      <trkpt lat="43.151808" lon="-4.980358">
        <ele>1476.414</ele>
        <time>2021-08-02T10:47:13Z</time>
      </trkpt>
      <trkpt lat="43.151822" lon="-4.980292">
        <ele>1475.208</ele>
        <time>2021-08-02T10:47:17Z</time>
      </trkpt>
      <trkpt lat="43.151799" lon="-4.980222">
        <ele>1474.184</ele>
        <time>2021-08-02T10:47:21Z</time>
      </trkpt>
      <trkpt lat="43.151841" lon="-4.980196">
        <ele>1473.656</ele>
        <time>2021-08-02T10:47:27Z</time>
      </trkpt>
      <trkpt lat="43.151801" lon="-4.980235">
        <ele>1473.175</ele>
        <time>2021-08-02T10:47:33Z</time>
      </trkpt>
      <trkpt lat="43.151755" lon="-4.980242">
        <ele>1472.663</ele>
        <time>2021-08-02T10:47:36Z</time>
      </trkpt>
      <trkpt lat="43.151738" lon="-4.980179">
        <ele>1471.413</ele>
        <time>2021-08-02T10:47:54Z</time>
      </trkpt>
      <trkpt lat="43.151753" lon="-4.98011">
        <ele>1470.591</ele>
        <time>2021-08-02T10:48:00Z</time>
      </trkpt>
      <trkpt lat="43.151762" lon="-4.980048">
        <ele>1469.664</ele>
        <time>2021-08-02T10:48:05Z</time>
      </trkpt>
      <trkpt lat="43.151727" lon="-4.979995">
        <ele>1468.352</ele>
        <time>2021-08-02T10:48:08Z</time>
      </trkpt>
      <trkpt lat="43.15169" lon="-4.979953">
        <ele>1467.527</ele>
        <time>2021-08-02T10:48:14Z</time>
      </trkpt>
      <trkpt lat="43.151646" lon="-4.979927">
        <ele>1465.768</ele>
        <time>2021-08-02T10:48:19Z</time>
      </trkpt>
      <trkpt lat="43.151669" lon="-4.979869">
        <ele>1464.414</ele>
        <time>2021-08-02T10:48:29Z</time>
      </trkpt>
      <trkpt lat="43.151711" lon="-4.979847">
        <ele>1461.508</ele>
        <time>2021-08-02T10:49:03Z</time>
      </trkpt>
      <trkpt lat="43.151757" lon="-4.979836">
        <ele>1460.719</ele>
        <time>2021-08-02T10:49:07Z</time>
      </trkpt>
      <trkpt lat="43.151776" lon="-4.97978">
        <ele>1459.851</ele>
        <time>2021-08-02T10:49:10Z</time>
      </trkpt>
      <trkpt lat="43.151757" lon="-4.979721">
        <ele>1458.910</ele>
        <time>2021-08-02T10:49:13Z</time>
      </trkpt>
      <trkpt lat="43.151712" lon="-4.979686">
        <ele>1458.288</ele>
        <time>2021-08-02T10:49:16Z</time>
      </trkpt>
      <trkpt lat="43.151665" lon="-4.979664">
        <ele>1457.178</ele>
        <time>2021-08-02T10:49:19Z</time>
      </trkpt>
      <trkpt lat="43.151638" lon="-4.979609">
        <ele>1456.596</ele>
        <time>2021-08-02T10:49:25Z</time>
      </trkpt>
      <trkpt lat="43.151641" lon="-4.979544">
        <ele>1455.169</ele>
        <time>2021-08-02T10:49:32Z</time>
      </trkpt>
      <trkpt lat="43.151591" lon="-4.979563">
        <ele>1454.867</ele>
        <time>2021-08-02T10:49:36Z</time>
      </trkpt>
      <trkpt lat="43.151547" lon="-4.979582">
        <ele>1453.392</ele>
        <time>2021-08-02T10:49:47Z</time>
      </trkpt>
      <trkpt lat="43.151589" lon="-4.979555">
        <ele>1452.673</ele>
        <time>2021-08-02T10:49:55Z</time>
      </trkpt>
      <trkpt lat="43.151606" lon="-4.979497">
        <ele>1450.920</ele>
        <time>2021-08-02T10:50:36Z</time>
      </trkpt>
      <trkpt lat="43.151597" lon="-4.979429">
        <ele>1450.208</ele>
        <time>2021-08-02T10:51:09Z</time>
      </trkpt>
      <trkpt lat="43.151655" lon="-4.979402">
        <ele>1447.436</ele>
        <time>2021-08-02T10:52:46Z</time>
      </trkpt>
      <trkpt lat="43.151689" lon="-4.979358">
        <ele>1444.938</ele>
        <time>2021-08-02T10:54:01Z</time>
      </trkpt>
      <trkpt lat="43.151712" lon="-4.979296">
        <ele>1443.447</ele>
        <time>2021-08-02T10:54:05Z</time>
      </trkpt>
      <trkpt lat="43.151731" lon="-4.979238">
        <ele>1442.525</ele>
        <time>2021-08-02T10:54:08Z</time>
      </trkpt>
      <trkpt lat="43.151742" lon="-4.979171">
        <ele>1442.095</ele>
        <time>2021-08-02T10:54:11Z</time>
      </trkpt>
      <trkpt lat="43.15174" lon="-4.979106">
        <ele>1441.753</ele>
        <time>2021-08-02T10:54:16Z</time>
      </trkpt>
      <trkpt lat="43.151714" lon="-4.979053">
        <ele>1440.716</ele>
        <time>2021-08-02T10:54:23Z</time>
      </trkpt>
      <trkpt lat="43.151696" lon="-4.978993">
        <ele>1439.424</ele>
        <time>2021-08-02T10:54:29Z</time>
      </trkpt>
      <trkpt lat="43.151672" lon="-4.978937">
        <ele>1437.564</ele>
        <time>2021-08-02T10:54:35Z</time>
      </trkpt>
      <trkpt lat="43.151642" lon="-4.978886">
        <ele>1436.506</ele>
        <time>2021-08-02T10:54:42Z</time>
      </trkpt>
      <trkpt lat="43.151639" lon="-4.978819">
        <ele>1435.016</ele>
        <time>2021-08-02T10:54:48Z</time>
      </trkpt>
      <trkpt lat="43.151631" lon="-4.97875">
        <ele>1433.908</ele>
        <time>2021-08-02T10:54:54Z</time>
      </trkpt>
      <trkpt lat="43.151631" lon="-4.978681">
        <ele>1432.093</ele>
        <time>2021-08-02T10:54:58Z</time>
      </trkpt>
      <trkpt lat="43.151629" lon="-4.978616">
        <ele>1431.365</ele>
        <time>2021-08-02T10:55:03Z</time>
      </trkpt>
      <trkpt lat="43.151632" lon="-4.978553">
        <ele>1429.734</ele>
        <time>2021-08-02T10:55:09Z</time>
      </trkpt>
      <trkpt lat="43.151621" lon="-4.978491">
        <ele>1428.212</ele>
        <time>2021-08-02T10:55:15Z</time>
      </trkpt>
      <trkpt lat="43.151589" lon="-4.978443">
        <ele>1426.892</ele>
        <time>2021-08-02T10:55:19Z</time>
      </trkpt>
      <trkpt lat="43.151578" lon="-4.978375">
        <ele>1425.010</ele>
        <time>2021-08-02T10:55:24Z</time>
      </trkpt>
      <trkpt lat="43.151577" lon="-4.978313">
        <ele>1423.783</ele>
        <time>2021-08-02T10:55:29Z</time>
      </trkpt>
      <trkpt lat="43.151624" lon="-4.978302">
        <ele>1420.911</ele>
        <time>2021-08-02T10:55:49Z</time>
      </trkpt>
      <trkpt lat="43.151587" lon="-4.978254">
        <ele>1420.028</ele>
        <time>2021-08-02T10:56:05Z</time>
      </trkpt>
      <trkpt lat="43.151568" lon="-4.978184">
        <ele>1419.589</ele>
        <time>2021-08-02T10:56:09Z</time>
      </trkpt>
      <trkpt lat="43.151543" lon="-4.97813">
        <ele>1418.317</ele>
        <time>2021-08-02T10:56:46Z</time>
      </trkpt>
      <trkpt lat="43.151541" lon="-4.978062">
        <ele>1417.908</ele>
        <time>2021-08-02T10:56:51Z</time>
      </trkpt>
      <trkpt lat="43.151557" lon="-4.977996">
        <ele>1417.689</ele>
        <time>2021-08-02T10:56:55Z</time>
      </trkpt>
      <trkpt lat="43.151575" lon="-4.977939">
        <ele>1417.181</ele>
        <time>2021-08-02T10:56:59Z</time>
      </trkpt>
      <trkpt lat="43.151596" lon="-4.977877">
        <ele>1417.580</ele>
        <time>2021-08-02T10:57:03Z</time>
      </trkpt>
      <trkpt lat="43.151606" lon="-4.977808">
        <ele>1416.688</ele>
        <time>2021-08-02T10:57:07Z</time>
      </trkpt>
      <trkpt lat="43.151605" lon="-4.977742">
        <ele>1416.558</ele>
        <time>2021-08-02T10:57:12Z</time>
      </trkpt>
      <trkpt lat="43.151599" lon="-4.977681">
        <ele>1415.986</ele>
        <time>2021-08-02T10:57:16Z</time>
      </trkpt>
      <trkpt lat="43.151587" lon="-4.977613">
        <ele>1415.989</ele>
        <time>2021-08-02T10:57:20Z</time>
      </trkpt>
      <trkpt lat="43.151589" lon="-4.977548">
        <ele>1415.497</ele>
        <time>2021-08-02T10:57:49Z</time>
      </trkpt>
      <trkpt lat="43.151546" lon="-4.977524">
        <ele>1415.276</ele>
        <time>2021-08-02T10:58:04Z</time>
      </trkpt>
      <trkpt lat="43.151569" lon="-4.977463">
        <ele>1415.790</ele>
        <time>2021-08-02T10:58:11Z</time>
      </trkpt>
      <trkpt lat="43.151605" lon="-4.977425">
        <ele>1415.719</ele>
        <time>2021-08-02T10:58:16Z</time>
      </trkpt>
      <trkpt lat="43.15164" lon="-4.977387">
        <ele>1415.808</ele>
        <time>2021-08-02T10:58:21Z</time>
      </trkpt>
      <trkpt lat="43.151653" lon="-4.977326">
        <ele>1415.764</ele>
        <time>2021-08-02T10:58:25Z</time>
      </trkpt>
      <trkpt lat="43.151663" lon="-4.977262">
        <ele>1415.976</ele>
        <time>2021-08-02T10:58:32Z</time>
      </trkpt>
      <trkpt lat="43.151676" lon="-4.977201">
        <ele>1415.395</ele>
        <time>2021-08-02T10:58:36Z</time>
      </trkpt>
      <trkpt lat="43.151689" lon="-4.977134">
        <ele>1414.433</ele>
        <time>2021-08-02T10:58:39Z</time>
      </trkpt>
      <trkpt lat="43.151698" lon="-4.977064">
        <ele>1414.843</ele>
        <time>2021-08-02T10:58:43Z</time>
      </trkpt>
      <trkpt lat="43.151699" lon="-4.976995">
        <ele>1413.871</ele>
        <time>2021-08-02T10:58:47Z</time>
      </trkpt>
      <trkpt lat="43.151669" lon="-4.976945">
        <ele>1413.384</ele>
        <time>2021-08-02T10:58:51Z</time>
      </trkpt>
      <trkpt lat="43.151661" lon="-4.976882">
        <ele>1412.162</ele>
        <time>2021-08-02T10:58:56Z</time>
      </trkpt>
      <trkpt lat="43.151629" lon="-4.976828">
        <ele>1410.927</ele>
        <time>2021-08-02T10:59:00Z</time>
      </trkpt>
      <trkpt lat="43.151592" lon="-4.97679">
        <ele>1410.268</ele>
        <time>2021-08-02T10:59:05Z</time>
      </trkpt>
      <trkpt lat="43.151583" lon="-4.976725">
        <ele>1408.214</ele>
        <time>2021-08-02T10:59:09Z</time>
      </trkpt>
      <trkpt lat="43.151561" lon="-4.97667">
        <ele>1407.808</ele>
        <time>2021-08-02T10:59:15Z</time>
      </trkpt>
      <trkpt lat="43.151515" lon="-4.976685">
        <ele>1405.989</ele>
        <time>2021-08-02T10:59:31Z</time>
      </trkpt>
      <trkpt lat="43.151497" lon="-4.976618">
        <ele>1403.681</ele>
        <time>2021-08-02T10:59:36Z</time>
      </trkpt>
      <trkpt lat="43.151501" lon="-4.976552">
        <ele>1402.750</ele>
        <time>2021-08-02T10:59:39Z</time>
      </trkpt>
      <trkpt lat="43.151506" lon="-4.976488">
        <ele>1401.558</ele>
        <time>2021-08-02T10:59:43Z</time>
      </trkpt>
      <trkpt lat="43.1515" lon="-4.976421">
        <ele>1400.398</ele>
        <time>2021-08-02T10:59:47Z</time>
      </trkpt>
      <trkpt lat="43.151472" lon="-4.976369">
        <ele>1400.476</ele>
        <time>2021-08-02T10:59:50Z</time>
      </trkpt>
      <trkpt lat="43.151431" lon="-4.976341">
        <ele>1399.999</ele>
        <time>2021-08-02T10:59:54Z</time>
      </trkpt>
      <trkpt lat="43.151408" lon="-4.976284">
        <ele>1398.987</ele>
        <time>2021-08-02T10:59:58Z</time>
      </trkpt>
      <trkpt lat="43.151404" lon="-4.97622">
        <ele>1398.117</ele>
        <time>2021-08-02T11:00:03Z</time>
      </trkpt>
      <trkpt lat="43.151409" lon="-4.976157">
        <ele>1397.287</ele>
        <time>2021-08-02T11:00:09Z</time>
      </trkpt>
      <trkpt lat="43.151401" lon="-4.976094">
        <ele>1396.615</ele>
        <time>2021-08-02T11:00:14Z</time>
      </trkpt>
      <trkpt lat="43.151397" lon="-4.976031">
        <ele>1396.208</ele>
        <time>2021-08-02T11:00:20Z</time>
      </trkpt>
      <trkpt lat="43.151405" lon="-4.975968">
        <ele>1395.888</ele>
        <time>2021-08-02T11:00:26Z</time>
      </trkpt>
      <trkpt lat="43.151364" lon="-4.976004">
        <ele>1394.960</ele>
        <time>2021-08-02T11:00:36Z</time>
      </trkpt>
      <trkpt lat="43.15136" lon="-4.975942">
        <ele>1394.139</ele>
        <time>2021-08-02T11:00:47Z</time>
      </trkpt>
      <trkpt lat="43.15132" lon="-4.975913">
        <ele>1392.897</ele>
        <time>2021-08-02T11:00:55Z</time>
      </trkpt>
      <trkpt lat="43.151275" lon="-4.975884">
        <ele>1392.497</ele>
        <time>2021-08-02T11:01:16Z</time>
      </trkpt>
      <trkpt lat="43.151303" lon="-4.975828">
        <ele>1393.135</ele>
        <time>2021-08-02T11:01:21Z</time>
      </trkpt>
      <trkpt lat="43.151334" lon="-4.975783">
        <ele>1393.668</ele>
        <time>2021-08-02T11:01:27Z</time>
      </trkpt>
      <trkpt lat="43.151356" lon="-4.975728">
        <ele>1394.426</ele>
        <time>2021-08-02T11:01:37Z</time>
      </trkpt>
      <trkpt lat="43.151353" lon="-4.975665">
        <ele>1394.664</ele>
        <time>2021-08-02T11:01:43Z</time>
      </trkpt>
      <trkpt lat="43.151334" lon="-4.975606">
        <ele>1393.506</ele>
        <time>2021-08-02T11:01:51Z</time>
      </trkpt>
      <trkpt lat="43.15134" lon="-4.975541">
        <ele>1392.916</ele>
        <time>2021-08-02T11:02:01Z</time>
      </trkpt>
      <trkpt lat="43.151387" lon="-4.975527">
        <ele>1391.808</ele>
        <time>2021-08-02T11:02:06Z</time>
      </trkpt>
      <trkpt lat="43.151354" lon="-4.975481">
        <ele>1390.523</ele>
        <time>2021-08-02T11:02:13Z</time>
      </trkpt>
      <trkpt lat="43.151305" lon="-4.975463">
        <ele>1388.475</ele>
        <time>2021-08-02T11:02:17Z</time>
      </trkpt>
      <trkpt lat="43.151258" lon="-4.975479">
        <ele>1387.394</ele>
        <time>2021-08-02T11:02:21Z</time>
      </trkpt>
      <trkpt lat="43.151224" lon="-4.97543">
        <ele>1386.742</ele>
        <time>2021-08-02T11:02:25Z</time>
      </trkpt>
      <trkpt lat="43.151241" lon="-4.975371">
        <ele>1385.672</ele>
        <time>2021-08-02T11:02:29Z</time>
      </trkpt>
      <trkpt lat="43.151285" lon="-4.975347">
        <ele>1385.340</ele>
        <time>2021-08-02T11:02:32Z</time>
      </trkpt>
      <trkpt lat="43.151329" lon="-4.975369">
        <ele>1384.323</ele>
        <time>2021-08-02T11:02:35Z</time>
      </trkpt>
      <trkpt lat="43.151369" lon="-4.975337">
        <ele>1382.461</ele>
        <time>2021-08-02T11:02:41Z</time>
      </trkpt>
      <trkpt lat="43.151395" lon="-4.975274">
        <ele>1381.698</ele>
        <time>2021-08-02T11:02:47Z</time>
      </trkpt>
      <trkpt lat="43.151443" lon="-4.975275">
        <ele>1380.115</ele>
        <time>2021-08-02T11:02:56Z</time>
      </trkpt>
      <trkpt lat="43.151486" lon="-4.975294">
        <ele>1378.026</ele>
        <time>2021-08-02T11:03:05Z</time>
      </trkpt>
      <trkpt lat="43.151491" lon="-4.975219">
        <ele>1376.508</ele>
        <time>2021-08-02T11:03:08Z</time>
      </trkpt>
      <trkpt lat="43.151511" lon="-4.97516">
        <ele>1375.686</ele>
        <time>2021-08-02T11:03:11Z</time>
      </trkpt>
      <trkpt lat="43.151533" lon="-4.975095">
        <ele>1374.978</ele>
        <time>2021-08-02T11:03:14Z</time>
      </trkpt>
      <trkpt lat="43.151529" lon="-4.97503">
        <ele>1373.887</ele>
        <time>2021-08-02T11:03:17Z</time>
      </trkpt>
      <trkpt lat="43.151491" lon="-4.974987">
        <ele>1373.385</ele>
        <time>2021-08-02T11:03:20Z</time>
      </trkpt>
      <trkpt lat="43.151469" lon="-4.97493">
        <ele>1372.795</ele>
        <time>2021-08-02T11:03:22Z</time>
      </trkpt>
      <trkpt lat="43.151512" lon="-4.974907">
        <ele>1371.383</ele>
        <time>2021-08-02T11:03:28Z</time>
      </trkpt>
      <trkpt lat="43.151562" lon="-4.97489">
        <ele>1369.766</ele>
        <time>2021-08-02T11:03:33Z</time>
      </trkpt>
      <trkpt lat="43.151517" lon="-4.974899">
        <ele>1368.184</ele>
        <time>2021-08-02T11:03:41Z</time>
      </trkpt>
      <trkpt lat="43.151554" lon="-4.974949">
        <ele>1366.953</ele>
        <time>2021-08-02T11:04:00Z</time>
      </trkpt>
      <trkpt lat="43.151601" lon="-4.974925">
        <ele>1365.504</ele>
        <time>2021-08-02T11:04:03Z</time>
      </trkpt>
      <trkpt lat="43.151617" lon="-4.974859">
        <ele>1364.314</ele>
        <time>2021-08-02T11:04:06Z</time>
      </trkpt>
      <trkpt lat="43.1516" lon="-4.974793">
        <ele>1363.308</ele>
        <time>2021-08-02T11:04:08Z</time>
      </trkpt>
      <trkpt lat="43.151582" lon="-4.974713">
        <ele>1362.732</ele>
        <time>2021-08-02T11:04:11Z</time>
      </trkpt>
      <trkpt lat="43.151562" lon="-4.97465">
        <ele>1361.834</ele>
        <time>2021-08-02T11:04:14Z</time>
      </trkpt>
      <trkpt lat="43.151553" lon="-4.974586">
        <ele>1360.313</ele>
        <time>2021-08-02T11:04:21Z</time>
      </trkpt>
      <trkpt lat="43.151517" lon="-4.974544">
        <ele>1357.491</ele>
        <time>2021-08-02T11:04:34Z</time>
      </trkpt>
      <trkpt lat="43.151459" lon="-4.974526">
        <ele>1354.721</ele>
        <time>2021-08-02T11:04:42Z</time>
      </trkpt>
      <trkpt lat="43.151471" lon="-4.974457">
        <ele>1352.579</ele>
        <time>2021-08-02T11:04:46Z</time>
      </trkpt>
      <trkpt lat="43.151513" lon="-4.974411">
        <ele>1350.852</ele>
        <time>2021-08-02T11:04:51Z</time>
      </trkpt>
      <trkpt lat="43.151542" lon="-4.974362">
        <ele>1349.110</ele>
        <time>2021-08-02T11:04:57Z</time>
      </trkpt>
      <trkpt lat="43.151546" lon="-4.974296">
        <ele>1347.267</ele>
        <time>2021-08-02T11:05:08Z</time>
      </trkpt>
      <trkpt lat="43.151518" lon="-4.974245">
        <ele>1345.881</ele>
        <time>2021-08-02T11:05:10Z</time>
      </trkpt>
      <trkpt lat="43.151477" lon="-4.974189">
        <ele>1344.519</ele>
        <time>2021-08-02T11:05:14Z</time>
      </trkpt>
      <trkpt lat="43.151435" lon="-4.974152">
        <ele>1343.908</ele>
        <time>2021-08-02T11:05:16Z</time>
      </trkpt>
      <trkpt lat="43.151435" lon="-4.974088">
        <ele>1343.183</ele>
        <time>2021-08-02T11:05:18Z</time>
      </trkpt>
      <trkpt lat="43.151479" lon="-4.97406">
        <ele>1342.285</ele>
        <time>2021-08-02T11:05:21Z</time>
      </trkpt>
      <trkpt lat="43.151506" lon="-4.974005">
        <ele>1342.414</ele>
        <time>2021-08-02T11:05:25Z</time>
      </trkpt>
      <trkpt lat="43.151525" lon="-4.973948">
        <ele>1341.342</ele>
        <time>2021-08-02T11:05:30Z</time>
      </trkpt>
      <trkpt lat="43.151512" lon="-4.973888">
        <ele>1340.312</ele>
        <time>2021-08-02T11:05:33Z</time>
      </trkpt>
      <trkpt lat="43.151461" lon="-4.973878">
        <ele>1338.990</ele>
        <time>2021-08-02T11:05:36Z</time>
      </trkpt>
      <trkpt lat="43.151508" lon="-4.97387">
        <ele>1337.253</ele>
        <time>2021-08-02T11:05:42Z</time>
      </trkpt>
      <trkpt lat="43.151534" lon="-4.973807">
        <ele>1335.281</ele>
        <time>2021-08-02T11:05:47Z</time>
      </trkpt>
      <trkpt lat="43.151489" lon="-4.973835">
        <ele>1333.481</ele>
        <time>2021-08-02T11:06:09Z</time>
      </trkpt>
      <trkpt lat="43.151468" lon="-4.973891">
        <ele>1331.461</ele>
        <time>2021-08-02T11:06:24Z</time>
      </trkpt>
      <trkpt lat="43.151433" lon="-4.973938">
        <ele>1328.117</ele>
        <time>2021-08-02T11:06:34Z</time>
      </trkpt>
      <trkpt lat="43.151465" lon="-4.973983">
        <ele>1325.108</ele>
        <time>2021-08-02T11:06:42Z</time>
      </trkpt>
      <trkpt lat="43.151507" lon="-4.973942">
        <ele>1322.755</ele>
        <time>2021-08-02T11:06:45Z</time>
      </trkpt>
      <trkpt lat="43.151557" lon="-4.973928">
        <ele>1320.487</ele>
        <time>2021-08-02T11:06:50Z</time>
      </trkpt>
      <trkpt lat="43.151586" lon="-4.973876">
        <ele>1318.436</ele>
        <time>2021-08-02T11:06:59Z</time>
      </trkpt>
      <trkpt lat="43.151627" lon="-4.973908">
        <ele>1316.874</ele>
        <time>2021-08-02T11:07:23Z</time>
      </trkpt>
      <trkpt lat="43.15163" lon="-4.973978">
        <ele>1314.334</ele>
        <time>2021-08-02T11:07:26Z</time>
      </trkpt>
      <trkpt lat="43.151662" lon="-4.974024">
        <ele>1312.872</ele>
        <time>2021-08-02T11:07:40Z</time>
      </trkpt>
      <trkpt lat="43.151659" lon="-4.97409">
        <ele>1311.375</ele>
        <time>2021-08-02T11:07:58Z</time>
      </trkpt>
      <trkpt lat="43.151682" lon="-4.974153">
        <ele>1310.613</ele>
        <time>2021-08-02T11:08:07Z</time>
      </trkpt>
      <trkpt lat="43.151719" lon="-4.974193">
        <ele>1309.383</ele>
        <time>2021-08-02T11:08:12Z</time>
      </trkpt>
      <trkpt lat="43.151697" lon="-4.974136">
        <ele>1308.325</ele>
        <time>2021-08-02T11:09:47Z</time>
      </trkpt>
      <trkpt lat="43.151696" lon="-4.97407">
        <ele>1306.617</ele>
        <time>2021-08-02T11:09:55Z</time>
      </trkpt>
      <trkpt lat="43.151731" lon="-4.974022">
        <ele>1306.608</ele>
        <time>2021-08-02T11:10:01Z</time>
      </trkpt>
      <trkpt lat="43.151771" lon="-4.973976">
        <ele>1306.695</ele>
        <time>2021-08-02T11:10:06Z</time>
      </trkpt>
      <trkpt lat="43.151792" lon="-4.973922">
        <ele>1306.727</ele>
        <time>2021-08-02T11:10:15Z</time>
      </trkpt>
      <trkpt lat="43.151789" lon="-4.973859">
        <ele>1307.846</ele>
        <time>2021-08-02T11:10:22Z</time>
      </trkpt>
      <trkpt lat="43.151808" lon="-4.973797">
        <ele>1309.694</ele>
        <time>2021-08-02T11:10:40Z</time>
      </trkpt>
      <trkpt lat="43.151772" lon="-4.973749">
        <ele>1311.384</ele>
        <time>2021-08-02T11:10:45Z</time>
      </trkpt>
      <trkpt lat="43.151819" lon="-4.973728">
        <ele>1313.042</ele>
        <time>2021-08-02T11:10:51Z</time>
      </trkpt>
      <trkpt lat="43.151863" lon="-4.973711">
        <ele>1313.815</ele>
        <time>2021-08-02T11:10:56Z</time>
      </trkpt>
      <trkpt lat="43.151879" lon="-4.973653">
        <ele>1315.283</ele>
        <time>2021-08-02T11:11:01Z</time>
      </trkpt>
      <trkpt lat="43.151903" lon="-4.973594">
        <ele>1315.921</ele>
        <time>2021-08-02T11:11:05Z</time>
      </trkpt>
      <trkpt lat="43.151939" lon="-4.973543">
        <ele>1315.741</ele>
        <time>2021-08-02T11:11:09Z</time>
      </trkpt>
      <trkpt lat="43.151969" lon="-4.973497">
        <ele>1315.705</ele>
        <time>2021-08-02T11:11:17Z</time>
      </trkpt>
      <trkpt lat="43.151999" lon="-4.973448">
        <ele>1316.608</ele>
        <time>2021-08-02T11:11:21Z</time>
      </trkpt>
      <trkpt lat="43.152" lon="-4.973381">
        <ele>1316.239</ele>
        <time>2021-08-02T11:11:25Z</time>
      </trkpt>
      <trkpt lat="43.152008" lon="-4.97332">
        <ele>1317.081</ele>
        <time>2021-08-02T11:11:29Z</time>
      </trkpt>
      <trkpt lat="43.152014" lon="-4.973257">
        <ele>1316.790</ele>
        <time>2021-08-02T11:11:33Z</time>
      </trkpt>
      <trkpt lat="43.152023" lon="-4.973196">
        <ele>1317.858</ele>
        <time>2021-08-02T11:11:37Z</time>
      </trkpt>
      <trkpt lat="43.152018" lon="-4.973131">
        <ele>1317.438</ele>
        <time>2021-08-02T11:11:41Z</time>
      </trkpt>
      <trkpt lat="43.152025" lon="-4.973061">
        <ele>1318.156</ele>
        <time>2021-08-02T11:11:45Z</time>
      </trkpt>
      <trkpt lat="43.152052" lon="-4.972995">
        <ele>1318.519</ele>
        <time>2021-08-02T11:11:48Z</time>
      </trkpt>
      <trkpt lat="43.152069" lon="-4.972937">
        <ele>1317.897</ele>
        <time>2021-08-02T11:11:51Z</time>
      </trkpt>
      <trkpt lat="43.15209" lon="-4.972868">
        <ele>1318.338</ele>
        <time>2021-08-02T11:11:54Z</time>
      </trkpt>
      <trkpt lat="43.152106" lon="-4.972803">
        <ele>1318.470</ele>
        <time>2021-08-02T11:11:58Z</time>
      </trkpt>
      <trkpt lat="43.152121" lon="-4.972737">
        <ele>1319.217</ele>
        <time>2021-08-02T11:12:01Z</time>
      </trkpt>
      <trkpt lat="43.152139" lon="-4.972678">
        <ele>1319.608</ele>
        <time>2021-08-02T11:12:05Z</time>
      </trkpt>
      <trkpt lat="43.152153" lon="-4.972615">
        <ele>1320.230</ele>
        <time>2021-08-02T11:12:08Z</time>
      </trkpt>
      <trkpt lat="43.152171" lon="-4.972553">
        <ele>1319.572</ele>
        <time>2021-08-02T11:12:12Z</time>
      </trkpt>
      <trkpt lat="43.152179" lon="-4.972487">
        <ele>1319.651</ele>
        <time>2021-08-02T11:12:15Z</time>
      </trkpt>
      <trkpt lat="43.152191" lon="-4.972427">
        <ele>1319.179</ele>
        <time>2021-08-02T11:12:18Z</time>
      </trkpt>
      <trkpt lat="43.152208" lon="-4.972361">
        <ele>1319.249</ele>
        <time>2021-08-02T11:12:23Z</time>
      </trkpt>
      <trkpt lat="43.152233" lon="-4.972307">
        <ele>1319.887</ele>
        <time>2021-08-02T11:12:27Z</time>
      </trkpt>
      <trkpt lat="43.152264" lon="-4.97226">
        <ele>1319.830</ele>
        <time>2021-08-02T11:12:32Z</time>
      </trkpt>
      <trkpt lat="43.152285" lon="-4.972198">
        <ele>1318.718</ele>
        <time>2021-08-02T11:12:37Z</time>
      </trkpt>
      <trkpt lat="43.152303" lon="-4.972137">
        <ele>1318.355</ele>
        <time>2021-08-02T11:12:40Z</time>
      </trkpt>
      <trkpt lat="43.152322" lon="-4.97207">
        <ele>1317.807</ele>
        <time>2021-08-02T11:12:44Z</time>
      </trkpt>
      <trkpt lat="43.152348" lon="-4.972014">
        <ele>1317.317</ele>
        <time>2021-08-02T11:12:49Z</time>
      </trkpt>
      <trkpt lat="43.152358" lon="-4.971953">
        <ele>1317.008</ele>
        <time>2021-08-02T11:12:53Z</time>
      </trkpt>
      <trkpt lat="43.152323" lon="-4.971915">
        <ele>1317.512</ele>
        <time>2021-08-02T11:12:56Z</time>
      </trkpt>
      <trkpt lat="43.152293" lon="-4.971864">
        <ele>1317.564</ele>
        <time>2021-08-02T11:13:00Z</time>
      </trkpt>
      <trkpt lat="43.152318" lon="-4.971806">
        <ele>1317.153</ele>
        <time>2021-08-02T11:13:09Z</time>
      </trkpt>
      <trkpt lat="43.15235" lon="-4.97176">
        <ele>1316.631</ele>
        <time>2021-08-02T11:13:15Z</time>
      </trkpt>
      <trkpt lat="43.152388" lon="-4.971717">
        <ele>1316.861</ele>
        <time>2021-08-02T11:13:20Z</time>
      </trkpt>
      <trkpt lat="43.152419" lon="-4.971667">
        <ele>1316.779</ele>
        <time>2021-08-02T11:13:25Z</time>
      </trkpt>
      <trkpt lat="43.152465" lon="-4.971644">
        <ele>1317.222</ele>
        <time>2021-08-02T11:13:52Z</time>
      </trkpt>
      <trkpt lat="43.152512" lon="-4.97165">
        <ele>1317.170</ele>
        <time>2021-08-02T11:13:55Z</time>
      </trkpt>
      <trkpt lat="43.152569" lon="-4.971658">
        <ele>1316.732</ele>
        <time>2021-08-02T11:13:58Z</time>
      </trkpt>
      <trkpt lat="43.15262" lon="-4.971614">
        <ele>1316.492</ele>
        <time>2021-08-02T11:14:03Z</time>
      </trkpt>
      <trkpt lat="43.152657" lon="-4.971577">
        <ele>1315.911</ele>
        <time>2021-08-02T11:14:08Z</time>
      </trkpt>
      <trkpt lat="43.15261" lon="-4.971572">
        <ele>1315.708</ele>
        <time>2021-08-02T11:14:24Z</time>
      </trkpt>
      <trkpt lat="43.15258" lon="-4.971524">
        <ele>1315.350</ele>
        <time>2021-08-02T11:14:32Z</time>
      </trkpt>
      <trkpt lat="43.152625" lon="-4.971513">
        <ele>1315.452</ele>
        <time>2021-08-02T11:14:38Z</time>
      </trkpt>
      <trkpt lat="43.152674" lon="-4.971503">
        <ele>1315.191</ele>
        <time>2021-08-02T11:14:41Z</time>
      </trkpt>
      <trkpt lat="43.15272" lon="-4.971507">
        <ele>1315.339</ele>
        <time>2021-08-02T11:14:45Z</time>
      </trkpt>
      <trkpt lat="43.152768" lon="-4.971508">
        <ele>1315.029</ele>
        <time>2021-08-02T11:14:51Z</time>
      </trkpt>
      <trkpt lat="43.152764" lon="-4.971442">
        <ele>1314.857</ele>
        <time>2021-08-02T11:14:58Z</time>
      </trkpt>
      <trkpt lat="43.152749" lon="-4.971375">
        <ele>1315.010</ele>
        <time>2021-08-02T11:15:03Z</time>
      </trkpt>
      <trkpt lat="43.152752" lon="-4.971312">
        <ele>1315.138</ele>
        <time>2021-08-02T11:15:06Z</time>
      </trkpt>
      <trkpt lat="43.152749" lon="-4.971246">
        <ele>1314.829</ele>
        <time>2021-08-02T11:15:11Z</time>
      </trkpt>
      <trkpt lat="43.152739" lon="-4.971184">
        <ele>1314.500</ele>
        <time>2021-08-02T11:15:15Z</time>
      </trkpt>
      <trkpt lat="43.152725" lon="-4.971121">
        <ele>1314.620</ele>
        <time>2021-08-02T11:15:19Z</time>
      </trkpt>
      <trkpt lat="43.152697" lon="-4.971064">
        <ele>1314.408</ele>
        <time>2021-08-02T11:15:23Z</time>
      </trkpt>
      <trkpt lat="43.15266" lon="-4.971029">
        <ele>1314.129</ele>
        <time>2021-08-02T11:15:28Z</time>
      </trkpt>
      <trkpt lat="43.152612" lon="-4.97102">
        <ele>1314.171</ele>
        <time>2021-08-02T11:15:34Z</time>
      </trkpt>
      <trkpt lat="43.15257" lon="-4.970983">
        <ele>1314.070</ele>
        <time>2021-08-02T11:15:38Z</time>
      </trkpt>
      <trkpt lat="43.152531" lon="-4.970948">
        <ele>1314.158</ele>
        <time>2021-08-02T11:15:42Z</time>
      </trkpt>
      <trkpt lat="43.15249" lon="-4.970916">
        <ele>1313.558</ele>
        <time>2021-08-02T11:15:46Z</time>
      </trkpt>
      <trkpt lat="43.152455" lon="-4.970874">
        <ele>1313.576</ele>
        <time>2021-08-02T11:15:52Z</time>
      </trkpt>
      <trkpt lat="43.152435" lon="-4.970818">
        <ele>1313.569</ele>
        <time>2021-08-02T11:15:55Z</time>
      </trkpt>
      <trkpt lat="43.152414" lon="-4.970762">
        <ele>1313.247</ele>
        <time>2021-08-02T11:15:59Z</time>
      </trkpt>
      <trkpt lat="43.152386" lon="-4.970708">
        <ele>1312.344</ele>
        <time>2021-08-02T11:16:03Z</time>
      </trkpt>
      <trkpt lat="43.15234" lon="-4.970702">
        <ele>1312.105</ele>
        <time>2021-08-02T11:16:18Z</time>
      </trkpt>
      <trkpt lat="43.152321" lon="-4.970645">
        <ele>1312.215</ele>
        <time>2021-08-02T11:16:22Z</time>
      </trkpt>
      <trkpt lat="43.152333" lon="-4.97058">
        <ele>1311.108</ele>
        <time>2021-08-02T11:16:24Z</time>
      </trkpt>
      <trkpt lat="43.152312" lon="-4.970524">
        <ele>1310.471</ele>
        <time>2021-08-02T11:16:27Z</time>
      </trkpt>
      <trkpt lat="43.152279" lon="-4.970469">
        <ele>1309.663</ele>
        <time>2021-08-02T11:16:29Z</time>
      </trkpt>
      <trkpt lat="43.15226" lon="-4.970398">
        <ele>1308.452</ele>
        <time>2021-08-02T11:16:32Z</time>
      </trkpt>
      <trkpt lat="43.152296" lon="-4.970354">
        <ele>1307.180</ele>
        <time>2021-08-02T11:16:37Z</time>
      </trkpt>
      <trkpt lat="43.152278" lon="-4.970412">
        <ele>1306.350</ele>
        <time>2021-08-02T11:16:45Z</time>
      </trkpt>
      <trkpt lat="43.152232" lon="-4.970421">
        <ele>1305.378</ele>
        <time>2021-08-02T11:16:57Z</time>
      </trkpt>
      <trkpt lat="43.152208" lon="-4.970366">
        <ele>1303.541</ele>
        <time>2021-08-02T11:17:02Z</time>
      </trkpt>
      <trkpt lat="43.152183" lon="-4.970308">
        <ele>1302.629</ele>
        <time>2021-08-02T11:17:05Z</time>
      </trkpt>
      <trkpt lat="43.152189" lon="-4.970245">
        <ele>1301.289</ele>
        <time>2021-08-02T11:17:09Z</time>
      </trkpt>
      <trkpt lat="43.152157" lon="-4.970189">
        <ele>1299.906</ele>
        <time>2021-08-02T11:17:13Z</time>
      </trkpt>
      <trkpt lat="43.15215" lon="-4.970127">
        <ele>1298.126</ele>
        <time>2021-08-02T11:17:29Z</time>
      </trkpt>
      <trkpt lat="43.15213" lon="-4.970067">
        <ele>1296.708</ele>
        <time>2021-08-02T11:17:36Z</time>
      </trkpt>
      <trkpt lat="43.152125" lon="-4.970001">
        <ele>1294.985</ele>
        <time>2021-08-02T11:17:41Z</time>
      </trkpt>
      <trkpt lat="43.152113" lon="-4.969941">
        <ele>1293.677</ele>
        <time>2021-08-02T11:17:43Z</time>
      </trkpt>
      <trkpt lat="43.152099" lon="-4.969873">
        <ele>1293.196</ele>
        <time>2021-08-02T11:17:46Z</time>
      </trkpt>
      <trkpt lat="43.152068" lon="-4.969827">
        <ele>1292.174</ele>
        <time>2021-08-02T11:17:49Z</time>
      </trkpt>
      <trkpt lat="43.152064" lon="-4.969758">
        <ele>1291.224</ele>
        <time>2021-08-02T11:17:54Z</time>
      </trkpt>
      <trkpt lat="43.152074" lon="-4.969692">
        <ele>1290.342</ele>
        <time>2021-08-02T11:17:58Z</time>
      </trkpt>
      <trkpt lat="43.152081" lon="-4.969631">
        <ele>1288.795</ele>
        <time>2021-08-02T11:18:01Z</time>
      </trkpt>
      <trkpt lat="43.15209" lon="-4.969569">
        <ele>1288.553</ele>
        <time>2021-08-02T11:18:05Z</time>
      </trkpt>
      <trkpt lat="43.152085" lon="-4.969504">
        <ele>1288.032</ele>
        <time>2021-08-02T11:18:09Z</time>
      </trkpt>
      <trkpt lat="43.152101" lon="-4.969445">
        <ele>1286.792</ele>
        <time>2021-08-02T11:18:13Z</time>
      </trkpt>
      <trkpt lat="43.152091" lon="-4.969385">
        <ele>1286.411</ele>
        <time>2021-08-02T11:18:18Z</time>
      </trkpt>
      <trkpt lat="43.152057" lon="-4.969343">
        <ele>1286.208</ele>
        <time>2021-08-02T11:18:22Z</time>
      </trkpt>
      <trkpt lat="43.152021" lon="-4.969384">
        <ele>1285.720</ele>
        <time>2021-08-02T11:18:27Z</time>
      </trkpt>
      <trkpt lat="43.152" lon="-4.969322">
        <ele>1285.672</ele>
        <time>2021-08-02T11:18:33Z</time>
      </trkpt>
      <trkpt lat="43.151999" lon="-4.969257">
        <ele>1285.331</ele>
        <time>2021-08-02T11:18:36Z</time>
      </trkpt>
      <trkpt lat="43.152009" lon="-4.969191">
        <ele>1284.549</ele>
        <time>2021-08-02T11:18:39Z</time>
      </trkpt>
      <trkpt lat="43.152027" lon="-4.969109">
        <ele>1284.389</ele>
        <time>2021-08-02T11:18:42Z</time>
      </trkpt>
      <trkpt lat="43.152027" lon="-4.969046">
        <ele>1283.897</ele>
        <time>2021-08-02T11:18:47Z</time>
      </trkpt>
      <trkpt lat="43.151991" lon="-4.968996">
        <ele>1283.310</ele>
        <time>2021-08-02T11:18:52Z</time>
      </trkpt>
      <trkpt lat="43.15198" lon="-4.968927">
        <ele>1282.518</ele>
        <time>2021-08-02T11:18:57Z</time>
      </trkpt>
      <trkpt lat="43.152005" lon="-4.968865">
        <ele>1281.762</ele>
        <time>2021-08-02T11:19:04Z</time>
      </trkpt>
      <trkpt lat="43.151979" lon="-4.968794">
        <ele>1281.383</ele>
        <time>2021-08-02T11:19:13Z</time>
      </trkpt>
      <trkpt lat="43.151939" lon="-4.968747">
        <ele>1280.111</ele>
        <time>2021-08-02T11:19:17Z</time>
      </trkpt>
      <trkpt lat="43.151911" lon="-4.968696">
        <ele>1279.608</ele>
        <time>2021-08-02T11:19:24Z</time>
      </trkpt>
      <trkpt lat="43.151874" lon="-4.968737">
        <ele>1279.033</ele>
        <time>2021-08-02T11:19:30Z</time>
      </trkpt>
      <trkpt lat="43.151861" lon="-4.968677">
        <ele>1278.575</ele>
        <time>2021-08-02T11:19:44Z</time>
      </trkpt>
      <trkpt lat="43.151836" lon="-4.968619">
        <ele>1278.394</ele>
        <time>2021-08-02T11:19:50Z</time>
      </trkpt>
      <trkpt lat="43.151881" lon="-4.968625">
        <ele>1278.162</ele>
        <time>2021-08-02T11:19:54Z</time>
      </trkpt>
      <trkpt lat="43.151841" lon="-4.968597">
        <ele>1278.512</ele>
        <time>2021-08-02T11:20:03Z</time>
      </trkpt>
      <trkpt lat="43.151852" lon="-4.968533">
        <ele>1279.260</ele>
        <time>2021-08-02T11:20:07Z</time>
      </trkpt>
      <trkpt lat="43.151855" lon="-4.968471">
        <ele>1279.563</ele>
        <time>2021-08-02T11:20:14Z</time>
      </trkpt>
      <trkpt lat="43.151818" lon="-4.968434">
        <ele>1279.611</ele>
        <time>2021-08-02T11:20:19Z</time>
      </trkpt>
      <trkpt lat="43.151863" lon="-4.968417">
        <ele>1279.658</ele>
        <time>2021-08-02T11:20:23Z</time>
      </trkpt>
      <trkpt lat="43.15187" lon="-4.968354">
        <ele>1279.652</ele>
        <time>2021-08-02T11:20:28Z</time>
      </trkpt>
      <trkpt lat="43.151909" lon="-4.968321">
        <ele>1279.717</ele>
        <time>2021-08-02T11:20:34Z</time>
      </trkpt>
      <trkpt lat="43.151956" lon="-4.968305">
        <ele>1279.808</ele>
        <time>2021-08-02T11:20:54Z</time>
      </trkpt>
      <trkpt lat="43.152002" lon="-4.968312">
        <ele>1280.092</ele>
        <time>2021-08-02T11:20:58Z</time>
      </trkpt>
      <trkpt lat="43.152041" lon="-4.968278">
        <ele>1280.354</ele>
        <time>2021-08-02T11:21:08Z</time>
      </trkpt>
      <trkpt lat="43.152089" lon="-4.968259">
        <ele>1281.063</ele>
        <time>2021-08-02T11:21:24Z</time>
      </trkpt>
      <trkpt lat="43.152135" lon="-4.968258">
        <ele>1281.231</ele>
        <time>2021-08-02T11:21:30Z</time>
      </trkpt>
      <trkpt lat="43.152177" lon="-4.968227">
        <ele>1281.291</ele>
        <time>2021-08-02T11:21:37Z</time>
      </trkpt>
      <trkpt lat="43.152217" lon="-4.968186">
        <ele>1281.449</ele>
        <time>2021-08-02T11:21:42Z</time>
      </trkpt>
      <trkpt lat="43.15226" lon="-4.96815">
        <ele>1281.232</ele>
        <time>2021-08-02T11:21:45Z</time>
      </trkpt>
      <trkpt lat="43.152298" lon="-4.968116">
        <ele>1280.590</ele>
        <time>2021-08-02T11:21:51Z</time>
      </trkpt>
      <trkpt lat="43.152256" lon="-4.96809">
        <ele>1280.378</ele>
        <time>2021-08-02T11:21:56Z</time>
      </trkpt>
      <trkpt lat="43.152297" lon="-4.968049">
        <ele>1279.233</ele>
        <time>2021-08-02T11:22:10Z</time>
      </trkpt>
      <trkpt lat="43.152347" lon="-4.968043">
        <ele>1278.926</ele>
        <time>2021-08-02T11:22:14Z</time>
      </trkpt>
      <trkpt lat="43.152393" lon="-4.968036">
        <ele>1277.808</ele>
        <time>2021-08-02T11:22:17Z</time>
      </trkpt>
      <trkpt lat="43.152389" lon="-4.967973">
        <ele>1277.474</ele>
        <time>2021-08-02T11:22:24Z</time>
      </trkpt>
      <trkpt lat="43.152429" lon="-4.96794">
        <ele>1276.736</ele>
        <time>2021-08-02T11:22:38Z</time>
      </trkpt>
      <trkpt lat="43.152478" lon="-4.967936">
        <ele>1275.825</ele>
        <time>2021-08-02T11:22:41Z</time>
      </trkpt>
      <trkpt lat="43.152532" lon="-4.967962">
        <ele>1275.533</ele>
        <time>2021-08-02T11:22:45Z</time>
      </trkpt>
      <trkpt lat="43.152577" lon="-4.96795">
        <ele>1275.443</ele>
        <time>2021-08-02T11:22:55Z</time>
      </trkpt>
      <trkpt lat="43.152608" lon="-4.967893">
        <ele>1275.361</ele>
        <time>2021-08-02T11:23:00Z</time>
      </trkpt>
      <trkpt lat="43.152625" lon="-4.967835">
        <ele>1273.064</ele>
        <time>2021-08-02T11:23:23Z</time>
      </trkpt>
      <trkpt lat="43.15267" lon="-4.967842">
        <ele>1271.832</ele>
        <time>2021-08-02T11:23:27Z</time>
      </trkpt>
      <trkpt lat="43.152718" lon="-4.967848">
        <ele>1271.357</ele>
        <time>2021-08-02T11:23:32Z</time>
      </trkpt>
      <trkpt lat="43.152725" lon="-4.967787">
        <ele>1270.400</ele>
        <time>2021-08-02T11:23:45Z</time>
      </trkpt>
      <trkpt lat="43.152778" lon="-4.967776">
        <ele>1269.720</ele>
        <time>2021-08-02T11:23:50Z</time>
      </trkpt>
      <trkpt lat="43.15283" lon="-4.967798">
        <ele>1269.708</ele>
        <time>2021-08-02T11:23:54Z</time>
      </trkpt>
      <trkpt lat="43.152853" lon="-4.967717">
        <ele>1268.712</ele>
        <time>2021-08-02T11:24:22Z</time>
      </trkpt>
      <trkpt lat="43.15285" lon="-4.967646">
        <ele>1270.034</ele>
        <time>2021-08-02T11:25:06Z</time>
      </trkpt>
      <trkpt lat="43.152894" lon="-4.96763">
        <ele>1270.773</ele>
        <time>2021-08-02T11:25:14Z</time>
      </trkpt>
      <trkpt lat="43.152937" lon="-4.967663">
        <ele>1271.451</ele>
        <time>2021-08-02T11:25:16Z</time>
      </trkpt>
      <trkpt lat="43.152976" lon="-4.967705">
        <ele>1271.891</ele>
        <time>2021-08-02T11:25:22Z</time>
      </trkpt>
      <trkpt lat="43.153023" lon="-4.967699">
        <ele>1272.229</ele>
        <time>2021-08-02T11:25:28Z</time>
      </trkpt>
      <trkpt lat="43.153071" lon="-4.967697">
        <ele>1272.672</ele>
        <time>2021-08-02T11:25:32Z</time>
      </trkpt>
      <trkpt lat="43.153102" lon="-4.967742">
        <ele>1272.880</ele>
        <time>2021-08-02T11:25:35Z</time>
      </trkpt>
      <trkpt lat="43.153149" lon="-4.967791">
        <ele>1273.033</ele>
        <time>2021-08-02T11:25:39Z</time>
      </trkpt>
      <trkpt lat="43.153207" lon="-4.967802">
        <ele>1272.823</ele>
        <time>2021-08-02T11:25:41Z</time>
      </trkpt>
      <trkpt lat="43.153263" lon="-4.967794">
        <ele>1273.015</ele>
        <time>2021-08-02T11:25:43Z</time>
      </trkpt>
      <trkpt lat="43.153318" lon="-4.967782">
        <ele>1272.708</ele>
        <time>2021-08-02T11:25:45Z</time>
      </trkpt>
      <trkpt lat="43.153364" lon="-4.967776">
        <ele>1273.350</ele>
        <time>2021-08-02T11:25:47Z</time>
      </trkpt>
      <trkpt lat="43.153414" lon="-4.967743">
        <ele>1273.142</ele>
        <time>2021-08-02T11:25:49Z</time>
      </trkpt>
      <trkpt lat="43.153463" lon="-4.967714">
        <ele>1272.381</ele>
        <time>2021-08-02T11:25:52Z</time>
      </trkpt>
      <trkpt lat="43.153502" lon="-4.967681">
        <ele>1271.439</ele>
        <time>2021-08-02T11:25:56Z</time>
      </trkpt>
      <trkpt lat="43.153451" lon="-4.967653">
        <ele>1270.979</ele>
        <time>2021-08-02T11:26:03Z</time>
      </trkpt>
      <trkpt lat="43.153409" lon="-4.96762">
        <ele>1269.927</ele>
        <time>2021-08-02T11:26:09Z</time>
      </trkpt>
      <trkpt lat="43.153392" lon="-4.967561">
        <ele>1268.770</ele>
        <time>2021-08-02T11:26:19Z</time>
      </trkpt>
      <trkpt lat="43.153428" lon="-4.967511">
        <ele>1266.828</ele>
        <time>2021-08-02T11:26:23Z</time>
      </trkpt>
      <trkpt lat="43.153416" lon="-4.967434">
        <ele>1265.422</ele>
        <time>2021-08-02T11:26:25Z</time>
      </trkpt>
      <trkpt lat="43.153397" lon="-4.967373">
        <ele>1263.962</ele>
        <time>2021-08-02T11:26:26Z</time>
      </trkpt>
      <trkpt lat="43.153378" lon="-4.967309">
        <ele>1263.408</ele>
        <time>2021-08-02T11:26:28Z</time>
      </trkpt>
      <trkpt lat="43.153368" lon="-4.967243">
        <ele>1262.608</ele>
        <time>2021-08-02T11:26:30Z</time>
      </trkpt>
      <trkpt lat="43.153357" lon="-4.967178">
        <ele>1260.559</ele>
        <time>2021-08-02T11:26:35Z</time>
      </trkpt>
      <trkpt lat="43.153332" lon="-4.967117">
        <ele>1257.711</ele>
        <time>2021-08-02T11:26:43Z</time>
      </trkpt>
      <trkpt lat="43.153296" lon="-4.967063">
        <ele>1254.770</ele>
        <time>2021-08-02T11:26:47Z</time>
      </trkpt>
      <trkpt lat="43.153255" lon="-4.967022">
        <ele>1253.578</ele>
        <time>2021-08-02T11:26:49Z</time>
      </trkpt>
      <trkpt lat="43.153207" lon="-4.967014">
        <ele>1251.828</ele>
        <time>2021-08-02T11:26:53Z</time>
      </trkpt>
      <trkpt lat="43.153179" lon="-4.966957">
        <ele>1250.836</ele>
        <time>2021-08-02T11:26:56Z</time>
      </trkpt>
      <trkpt lat="43.153159" lon="-4.966899">
        <ele>1248.539</ele>
        <time>2021-08-02T11:26:59Z</time>
      </trkpt>
      <trkpt lat="43.153147" lon="-4.966829">
        <ele>1248.187</ele>
        <time>2021-08-02T11:27:02Z</time>
      </trkpt>
      <trkpt lat="43.153119" lon="-4.966771">
        <ele>1247.153</ele>
        <time>2021-08-02T11:27:06Z</time>
      </trkpt>
      <trkpt lat="43.15308" lon="-4.966738">
        <ele>1246.004</ele>
        <time>2021-08-02T11:27:10Z</time>
      </trkpt>
      <trkpt lat="43.153042" lon="-4.966689">
        <ele>1245.314</ele>
        <time>2021-08-02T11:27:14Z</time>
      </trkpt>
      <trkpt lat="43.152993" lon="-4.966685">
        <ele>1243.808</ele>
        <time>2021-08-02T11:27:17Z</time>
      </trkpt>
      <trkpt lat="43.152945" lon="-4.966648">
        <ele>1243.422</ele>
        <time>2021-08-02T11:27:21Z</time>
      </trkpt>
      <trkpt lat="43.152922" lon="-4.966594">
        <ele>1243.074</ele>
        <time>2021-08-02T11:27:25Z</time>
      </trkpt>
      <trkpt lat="43.152904" lon="-4.966537">
        <ele>1242.093</ele>
        <time>2021-08-02T11:27:28Z</time>
      </trkpt>
      <trkpt lat="43.152882" lon="-4.966482">
        <ele>1241.451</ele>
        <time>2021-08-02T11:27:34Z</time>
      </trkpt>
      <trkpt lat="43.152857" lon="-4.966427">
        <ele>1240.631</ele>
        <time>2021-08-02T11:27:39Z</time>
      </trkpt>
      <trkpt lat="43.152818" lon="-4.966387">
        <ele>1240.589</ele>
        <time>2021-08-02T11:27:43Z</time>
      </trkpt>
      <trkpt lat="43.15278" lon="-4.966337">
        <ele>1240.142</ele>
        <time>2021-08-02T11:27:47Z</time>
      </trkpt>
      <trkpt lat="43.152749" lon="-4.96629">
        <ele>1239.920</ele>
        <time>2021-08-02T11:27:52Z</time>
      </trkpt>
      <trkpt lat="43.152708" lon="-4.966234">
        <ele>1239.279</ele>
        <time>2021-08-02T11:27:57Z</time>
      </trkpt>
      <trkpt lat="43.152664" lon="-4.966215">
        <ele>1239.105</ele>
        <time>2021-08-02T11:28:01Z</time>
      </trkpt>
      <trkpt lat="43.15262" lon="-4.966182">
        <ele>1238.925</ele>
        <time>2021-08-02T11:28:05Z</time>
      </trkpt>
      <trkpt lat="43.152587" lon="-4.966131">
        <ele>1238.308</ele>
        <time>2021-08-02T11:28:09Z</time>
      </trkpt>
      <trkpt lat="43.152559" lon="-4.966063">
        <ele>1237.764</ele>
        <time>2021-08-02T11:28:12Z</time>
      </trkpt>
      <trkpt lat="43.15252" lon="-4.966029">
        <ele>1237.316</ele>
        <time>2021-08-02T11:28:17Z</time>
      </trkpt>
      <trkpt lat="43.152481" lon="-4.965991">
        <ele>1236.565</ele>
        <time>2021-08-02T11:28:21Z</time>
      </trkpt>
      <trkpt lat="43.152438" lon="-4.965964">
        <ele>1236.193</ele>
        <time>2021-08-02T11:28:25Z</time>
      </trkpt>
      <trkpt lat="43.152388" lon="-4.965935">
        <ele>1236.393</ele>
        <time>2021-08-02T11:28:28Z</time>
      </trkpt>
      <trkpt lat="43.15234" lon="-4.965921">
        <ele>1236.141</ele>
        <time>2021-08-02T11:28:31Z</time>
      </trkpt>
      <trkpt lat="43.152288" lon="-4.96591">
        <ele>1236.424</ele>
        <time>2021-08-02T11:28:34Z</time>
      </trkpt>
      <trkpt lat="43.152251" lon="-4.965875">
        <ele>1236.052</ele>
        <time>2021-08-02T11:28:38Z</time>
      </trkpt>
      <trkpt lat="43.152217" lon="-4.965824">
        <ele>1235.737</ele>
        <time>2021-08-02T11:28:42Z</time>
      </trkpt>
      <trkpt lat="43.152174" lon="-4.965795">
        <ele>1235.849</ele>
        <time>2021-08-02T11:28:47Z</time>
      </trkpt>
      <trkpt lat="43.152144" lon="-4.965733">
        <ele>1236.913</ele>
        <time>2021-08-02T11:28:52Z</time>
      </trkpt>
      <trkpt lat="43.152135" lon="-4.965664">
        <ele>1237.008</ele>
        <time>2021-08-02T11:28:56Z</time>
      </trkpt>
      <trkpt lat="43.152127" lon="-4.965603">
        <ele>1237.550</ele>
        <time>2021-08-02T11:29:00Z</time>
      </trkpt>
      <trkpt lat="43.152101" lon="-4.96554">
        <ele>1237.332</ele>
        <time>2021-08-02T11:29:04Z</time>
      </trkpt>
      <trkpt lat="43.152069" lon="-4.965488">
        <ele>1237.171</ele>
        <time>2021-08-02T11:29:07Z</time>
      </trkpt>
      <trkpt lat="43.152034" lon="-4.965446">
        <ele>1237.019</ele>
        <time>2021-08-02T11:29:10Z</time>
      </trkpt>
      <trkpt lat="43.152009" lon="-4.965394">
        <ele>1236.379</ele>
        <time>2021-08-02T11:29:13Z</time>
      </trkpt>
      <trkpt lat="43.151998" lon="-4.965328">
        <ele>1235.577</ele>
        <time>2021-08-02T11:29:18Z</time>
      </trkpt>
      <trkpt lat="43.151984" lon="-4.965262">
        <ele>1235.670</ele>
        <time>2021-08-02T11:29:22Z</time>
      </trkpt>
      <trkpt lat="43.151956" lon="-4.965209">
        <ele>1235.258</ele>
        <time>2021-08-02T11:29:26Z</time>
      </trkpt>
      <trkpt lat="43.151922" lon="-4.965163">
        <ele>1235.038</ele>
        <time>2021-08-02T11:29:30Z</time>
      </trkpt>
      <trkpt lat="43.15193" lon="-4.965089">
        <ele>1234.370</ele>
        <time>2021-08-02T11:29:35Z</time>
      </trkpt>
      <trkpt lat="43.151933" lon="-4.965026">
        <ele>1234.217</ele>
        <time>2021-08-02T11:29:40Z</time>
      </trkpt>
      <trkpt lat="43.151937" lon="-4.964958">
        <ele>1234.008</ele>
        <time>2021-08-02T11:29:44Z</time>
      </trkpt>
      <trkpt lat="43.151942" lon="-4.964894">
        <ele>1233.960</ele>
        <time>2021-08-02T11:29:48Z</time>
      </trkpt>
      <trkpt lat="43.151925" lon="-4.964832">
        <ele>1233.082</ele>
        <time>2021-08-02T11:29:51Z</time>
      </trkpt>
      <trkpt lat="43.151933" lon="-4.964763">
        <ele>1232.441</ele>
        <time>2021-08-02T11:29:55Z</time>
      </trkpt>
      <trkpt lat="43.151935" lon="-4.964695">
        <ele>1231.099</ele>
        <time>2021-08-02T11:30:00Z</time>
      </trkpt>
      <trkpt lat="43.151938" lon="-4.964622">
        <ele>1229.399</ele>
        <time>2021-08-02T11:30:04Z</time>
      </trkpt>
      <trkpt lat="43.151951" lon="-4.964556">
        <ele>1229.077</ele>
        <time>2021-08-02T11:30:08Z</time>
      </trkpt>
      <trkpt lat="43.151948" lon="-4.964486">
        <ele>1228.010</ele>
        <time>2021-08-02T11:30:12Z</time>
      </trkpt>
      <trkpt lat="43.151944" lon="-4.964423">
        <ele>1227.048</ele>
        <time>2021-08-02T11:30:15Z</time>
      </trkpt>
      <trkpt lat="43.151918" lon="-4.964361">
        <ele>1226.391</ele>
        <time>2021-08-02T11:30:19Z</time>
      </trkpt>
      <trkpt lat="43.151892" lon="-4.96431">
        <ele>1225.781</ele>
        <time>2021-08-02T11:30:22Z</time>
      </trkpt>
      <trkpt lat="43.151874" lon="-4.964251">
        <ele>1225.519</ele>
        <time>2021-08-02T11:30:26Z</time>
      </trkpt>
      <trkpt lat="43.151875" lon="-4.964187">
        <ele>1225.708</ele>
        <time>2021-08-02T11:30:29Z</time>
      </trkpt>
      <trkpt lat="43.151874" lon="-4.964121">
        <ele>1225.726</ele>
        <time>2021-08-02T11:30:33Z</time>
      </trkpt>
      <trkpt lat="43.151884" lon="-4.96406">
        <ele>1225.878</ele>
        <time>2021-08-02T11:30:37Z</time>
      </trkpt>
      <trkpt lat="43.151892" lon="-4.963996">
        <ele>1225.847</ele>
        <time>2021-08-02T11:30:41Z</time>
      </trkpt>
      <trkpt lat="43.151895" lon="-4.963931">
        <ele>1225.965</ele>
        <time>2021-08-02T11:30:45Z</time>
      </trkpt>
      <trkpt lat="43.1519" lon="-4.963856">
        <ele>1225.895</ele>
        <time>2021-08-02T11:30:49Z</time>
      </trkpt>
      <trkpt lat="43.151885" lon="-4.963796">
        <ele>1226.013</ele>
        <time>2021-08-02T11:30:53Z</time>
      </trkpt>
      <trkpt lat="43.15187" lon="-4.963724">
        <ele>1225.846</ele>
        <time>2021-08-02T11:30:56Z</time>
      </trkpt>
      <trkpt lat="43.151842" lon="-4.963662">
        <ele>1225.244</ele>
        <time>2021-08-02T11:31:01Z</time>
      </trkpt>
      <trkpt lat="43.151797" lon="-4.963643">
        <ele>1225.289</ele>
        <time>2021-08-02T11:31:17Z</time>
      </trkpt>
      <trkpt lat="43.151757" lon="-4.963601">
        <ele>1224.806</ele>
        <time>2021-08-02T11:31:20Z</time>
      </trkpt>
      <trkpt lat="43.151729" lon="-4.963546">
        <ele>1224.726</ele>
        <time>2021-08-02T11:31:23Z</time>
      </trkpt>
      <trkpt lat="43.151722" lon="-4.963476">
        <ele>1224.608</ele>
        <time>2021-08-02T11:31:26Z</time>
      </trkpt>
      <trkpt lat="43.151705" lon="-4.963395">
        <ele>1224.455</ele>
        <time>2021-08-02T11:31:30Z</time>
      </trkpt>
      <trkpt lat="43.151686" lon="-4.963328">
        <ele>1223.717</ele>
        <time>2021-08-02T11:31:33Z</time>
      </trkpt>
      <trkpt lat="43.151675" lon="-4.96326">
        <ele>1224.096</ele>
        <time>2021-08-02T11:31:36Z</time>
      </trkpt>
      <trkpt lat="43.151658" lon="-4.963202">
        <ele>1223.834</ele>
        <time>2021-08-02T11:31:39Z</time>
      </trkpt>
      <trkpt lat="43.151646" lon="-4.96314">
        <ele>1223.384</ele>
        <time>2021-08-02T11:31:42Z</time>
      </trkpt>
      <trkpt lat="43.151624" lon="-4.963074">
        <ele>1222.642</ele>
        <time>2021-08-02T11:31:45Z</time>
      </trkpt>
      <trkpt lat="43.151594" lon="-4.963016">
        <ele>1222.265</ele>
        <time>2021-08-02T11:31:49Z</time>
      </trkpt>
      <trkpt lat="43.151563" lon="-4.962971">
        <ele>1222.383</ele>
        <time>2021-08-02T11:31:51Z</time>
      </trkpt>
      <trkpt lat="43.151516" lon="-4.962934">
        <ele>1221.995</ele>
        <time>2021-08-02T11:31:55Z</time>
      </trkpt>
      <trkpt lat="43.151475" lon="-4.962902">
        <ele>1221.349</ele>
        <time>2021-08-02T11:32:00Z</time>
      </trkpt>
      <trkpt lat="43.151435" lon="-4.962869">
        <ele>1220.923</ele>
        <time>2021-08-02T11:32:09Z</time>
      </trkpt>
      <trkpt lat="43.151463" lon="-4.962821">
        <ele>1221.308</ele>
        <time>2021-08-02T11:32:16Z</time>
      </trkpt>
      <trkpt lat="43.151446" lon="-4.962763">
        <ele>1220.656</ele>
        <time>2021-08-02T11:32:34Z</time>
      </trkpt>
      <trkpt lat="43.151401" lon="-4.962753">
        <ele>1219.798</ele>
        <time>2021-08-02T11:32:40Z</time>
      </trkpt>
      <trkpt lat="43.151356" lon="-4.962767">
        <ele>1219.637</ele>
        <time>2021-08-02T11:32:44Z</time>
      </trkpt>
      <trkpt lat="43.151347" lon="-4.962706">
        <ele>1218.885</ele>
        <time>2021-08-02T11:32:52Z</time>
      </trkpt>
      <trkpt lat="43.151309" lon="-4.96267">
        <ele>1219.655</ele>
        <time>2021-08-02T11:33:53Z</time>
      </trkpt>
      <trkpt lat="43.151274" lon="-4.962624">
        <ele>1220.033</ele>
        <time>2021-08-02T11:33:58Z</time>
      </trkpt>
      <trkpt lat="43.151241" lon="-4.962565">
        <ele>1220.816</ele>
        <time>2021-08-02T11:34:02Z</time>
      </trkpt>
      <trkpt lat="43.151206" lon="-4.962517">
        <ele>1221.514</ele>
        <time>2021-08-02T11:34:05Z</time>
      </trkpt>
      <trkpt lat="43.151158" lon="-4.962496">
        <ele>1221.441</ele>
        <time>2021-08-02T11:34:08Z</time>
      </trkpt>
      <trkpt lat="43.151106" lon="-4.962485">
        <ele>1220.381</ele>
        <time>2021-08-02T11:34:11Z</time>
      </trkpt>
      <trkpt lat="43.151054" lon="-4.962489">
        <ele>1220.509</ele>
        <time>2021-08-02T11:34:14Z</time>
      </trkpt>
      <trkpt lat="43.151002" lon="-4.962507">
        <ele>1220.308</ele>
        <time>2021-08-02T11:34:17Z</time>
      </trkpt>
      <trkpt lat="43.15096" lon="-4.962531">
        <ele>1220.581</ele>
        <time>2021-08-02T11:34:19Z</time>
      </trkpt>
      <trkpt lat="43.150913" lon="-4.962555">
        <ele>1220.573</ele>
        <time>2021-08-02T11:34:23Z</time>
      </trkpt>
      <trkpt lat="43.15087" lon="-4.962579">
        <ele>1220.282</ele>
        <time>2021-08-02T11:34:27Z</time>
      </trkpt>
      <trkpt lat="43.150822" lon="-4.96258">
        <ele>1220.050</ele>
        <time>2021-08-02T11:34:31Z</time>
      </trkpt>
      <trkpt lat="43.150775" lon="-4.962576">
        <ele>1219.720</ele>
        <time>2021-08-02T11:34:36Z</time>
      </trkpt>
      <trkpt lat="43.15078" lon="-4.962639">
        <ele>1219.618</ele>
        <time>2021-08-02T11:34:41Z</time>
      </trkpt>
      <trkpt lat="43.150755" lon="-4.962587">
        <ele>1219.181</ele>
        <time>2021-08-02T11:34:55Z</time>
      </trkpt>
      <trkpt lat="43.150717" lon="-4.962536">
        <ele>1219.049</ele>
        <time>2021-08-02T11:34:58Z</time>
      </trkpt>
      <trkpt lat="43.150671" lon="-4.962509">
        <ele>1217.558</ele>
        <time>2021-08-02T11:35:01Z</time>
      </trkpt>
      <trkpt lat="43.150624" lon="-4.9625">
        <ele>1216.652</ele>
        <time>2021-08-02T11:35:04Z</time>
      </trkpt>
      <trkpt lat="43.150576" lon="-4.962492">
        <ele>1215.417</ele>
        <time>2021-08-02T11:35:08Z</time>
      </trkpt>
      <trkpt lat="43.150528" lon="-4.962482">
        <ele>1215.008</ele>
        <time>2021-08-02T11:35:12Z</time>
      </trkpt>
      <trkpt lat="43.150481" lon="-4.962472">
        <ele>1215.192</ele>
        <time>2021-08-02T11:35:20Z</time>
      </trkpt>
      <trkpt lat="43.150433" lon="-4.962468">
        <ele>1215.144</ele>
        <time>2021-08-02T11:35:24Z</time>
      </trkpt>
      <trkpt lat="43.150382" lon="-4.962476">
        <ele>1214.833</ele>
        <time>2021-08-02T11:35:29Z</time>
      </trkpt>
      <trkpt lat="43.150339" lon="-4.962447">
        <ele>1214.191</ele>
        <time>2021-08-02T11:35:35Z</time>
      </trkpt>
      <trkpt lat="43.150303" lon="-4.962403">
        <ele>1214.011</ele>
        <time>2021-08-02T11:35:40Z</time>
      </trkpt>
      <trkpt lat="43.150279" lon="-4.962347">
        <ele>1213.959</ele>
        <time>2021-08-02T11:35:46Z</time>
      </trkpt>
      <trkpt lat="43.150252" lon="-4.962296">
        <ele>1213.072</ele>
        <time>2021-08-02T11:35:51Z</time>
      </trkpt>
      <trkpt lat="43.150227" lon="-4.962241">
        <ele>1212.260</ele>
        <time>2021-08-02T11:35:57Z</time>
      </trkpt>
      <trkpt lat="43.15019" lon="-4.962202">
        <ele>1211.488</ele>
        <time>2021-08-02T11:36:01Z</time>
      </trkpt>
      <trkpt lat="43.150147" lon="-4.962158">
        <ele>1210.524</ele>
        <time>2021-08-02T11:36:06Z</time>
      </trkpt>
      <trkpt lat="43.150105" lon="-4.962134">
        <ele>1209.426</ele>
        <time>2021-08-02T11:36:11Z</time>
      </trkpt>
      <trkpt lat="43.150068" lon="-4.962092">
        <ele>1207.308</ele>
        <time>2021-08-02T11:36:17Z</time>
      </trkpt>
      <trkpt lat="43.150029" lon="-4.962057">
        <ele>1206.385</ele>
        <time>2021-08-02T11:36:22Z</time>
      </trkpt>
      <trkpt lat="43.15" lon="-4.962004">
        <ele>1204.817</ele>
        <time>2021-08-02T11:36:27Z</time>
      </trkpt>
      <trkpt lat="43.149957" lon="-4.961977">
        <ele>1204.016</ele>
        <time>2021-08-02T11:36:32Z</time>
      </trkpt>
      <trkpt lat="43.149916" lon="-4.961936">
        <ele>1202.324</ele>
        <time>2021-08-02T11:36:36Z</time>
      </trkpt>
      <trkpt lat="43.149898" lon="-4.961876">
        <ele>1201.124</ele>
        <time>2021-08-02T11:36:41Z</time>
      </trkpt>
      <trkpt lat="43.149902" lon="-4.961813">
        <ele>1199.472</ele>
        <time>2021-08-02T11:36:45Z</time>
      </trkpt>
      <trkpt lat="43.149871" lon="-4.961763">
        <ele>1198.135</ele>
        <time>2021-08-02T11:36:52Z</time>
      </trkpt>
      <trkpt lat="43.149828" lon="-4.96174">
        <ele>1196.223</ele>
        <time>2021-08-02T11:37:12Z</time>
      </trkpt>
      <trkpt lat="43.149805" lon="-4.961684">
        <ele>1194.261</ele>
        <time>2021-08-02T11:37:16Z</time>
      </trkpt>
      <trkpt lat="43.149786" lon="-4.961622">
        <ele>1193.121</ele>
        <time>2021-08-02T11:37:20Z</time>
      </trkpt>
      <trkpt lat="43.149767" lon="-4.96156">
        <ele>1192.313</ele>
        <time>2021-08-02T11:37:25Z</time>
      </trkpt>
      <trkpt lat="43.149741" lon="-4.961503">
        <ele>1190.808</ele>
        <time>2021-08-02T11:37:38Z</time>
      </trkpt>
      <trkpt lat="43.149701" lon="-4.961464">
        <ele>1189.173</ele>
        <time>2021-08-02T11:37:41Z</time>
      </trkpt>
      <trkpt lat="43.149674" lon="-4.961408">
        <ele>1187.265</ele>
        <time>2021-08-02T11:37:45Z</time>
      </trkpt>
      <trkpt lat="43.149657" lon="-4.961349">
        <ele>1185.424</ele>
        <time>2021-08-02T11:37:50Z</time>
      </trkpt>
      <trkpt lat="43.149634" lon="-4.961285">
        <ele>1184.522</ele>
        <time>2021-08-02T11:37:55Z</time>
      </trkpt>
      <trkpt lat="43.149616" lon="-4.961224">
        <ele>1183.252</ele>
        <time>2021-08-02T11:38:01Z</time>
      </trkpt>
      <trkpt lat="43.149591" lon="-4.961169">
        <ele>1181.980</ele>
        <time>2021-08-02T11:38:06Z</time>
      </trkpt>
      <trkpt lat="43.149568" lon="-4.961114">
        <ele>1181.223</ele>
        <time>2021-08-02T11:38:10Z</time>
      </trkpt>
      <trkpt lat="43.149537" lon="-4.961067">
        <ele>1180.241</ele>
        <time>2021-08-02T11:38:17Z</time>
      </trkpt>
      <trkpt lat="43.149511" lon="-4.961016">
        <ele>1178.668</ele>
        <time>2021-08-02T11:38:22Z</time>
      </trkpt>
      <trkpt lat="43.149494" lon="-4.960957">
        <ele>1177.142</ele>
        <time>2021-08-02T11:38:25Z</time>
      </trkpt>
      <trkpt lat="43.149483" lon="-4.960888">
        <ele>1176.826</ele>
        <time>2021-08-02T11:38:30Z</time>
      </trkpt>
      <trkpt lat="43.149475" lon="-4.960825">
        <ele>1175.708</ele>
        <time>2021-08-02T11:38:35Z</time>
      </trkpt>
      <trkpt lat="43.14943" lon="-4.960806">
        <ele>1174.433</ele>
        <time>2021-08-02T11:38:41Z</time>
      </trkpt>
      <trkpt lat="43.1494" lon="-4.960759">
        <ele>1174.245</ele>
        <time>2021-08-02T11:38:47Z</time>
      </trkpt>
      <trkpt lat="43.149362" lon="-4.960725">
        <ele>1174.174</ele>
        <time>2021-08-02T11:38:52Z</time>
      </trkpt>
      <trkpt lat="43.149321" lon="-4.960698">
        <ele>1173.312</ele>
        <time>2021-08-02T11:38:57Z</time>
      </trkpt>
      <trkpt lat="43.149273" lon="-4.960719">
        <ele>1172.922</ele>
        <time>2021-08-02T11:39:04Z</time>
      </trkpt>
      <trkpt lat="43.14923" lon="-4.960746">
        <ele>1172.510</ele>
        <time>2021-08-02T11:39:09Z</time>
      </trkpt>
      <trkpt lat="43.149197" lon="-4.9607">
        <ele>1172.963</ele>
        <time>2021-08-02T11:39:14Z</time>
      </trkpt>
      <trkpt lat="43.149151" lon="-4.960667">
        <ele>1173.331</ele>
        <time>2021-08-02T11:39:20Z</time>
      </trkpt>
      <trkpt lat="43.149119" lon="-4.960603">
        <ele>1173.464</ele>
        <time>2021-08-02T11:39:25Z</time>
      </trkpt>
      <trkpt lat="43.1491" lon="-4.960546">
        <ele>1173.306</ele>
        <time>2021-08-02T11:39:30Z</time>
      </trkpt>
      <trkpt lat="43.149069" lon="-4.9605">
        <ele>1173.416</ele>
        <time>2021-08-02T11:39:35Z</time>
      </trkpt>
      <trkpt lat="43.149009" lon="-4.960477">
        <ele>1173.108</ele>
        <time>2021-08-02T11:39:40Z</time>
      </trkpt>
      <trkpt lat="43.148963" lon="-4.960426">
        <ele>1172.593</ele>
        <time>2021-08-02T11:39:45Z</time>
      </trkpt>
      <trkpt lat="43.148952" lon="-4.960365">
        <ele>1172.035</ele>
        <time>2021-08-02T11:39:50Z</time>
      </trkpt>
      <trkpt lat="43.148944" lon="-4.960304">
        <ele>1171.284</ele>
        <time>2021-08-02T11:39:53Z</time>
      </trkpt>
      <trkpt lat="43.148935" lon="-4.960243">
        <ele>1171.112</ele>
        <time>2021-08-02T11:39:57Z</time>
      </trkpt>
      <trkpt lat="43.148932" lon="-4.960181">
        <ele>1170.652</ele>
        <time>2021-08-02T11:40:01Z</time>
      </trkpt>
      <trkpt lat="43.148929" lon="-4.960113">
        <ele>1169.660</ele>
        <time>2021-08-02T11:40:06Z</time>
      </trkpt>
      <trkpt lat="43.148912" lon="-4.960044">
        <ele>1169.023</ele>
        <time>2021-08-02T11:40:09Z</time>
      </trkpt>
      <trkpt lat="43.148895" lon="-4.959964">
        <ele>1168.041</ele>
        <time>2021-08-02T11:40:12Z</time>
      </trkpt>
      <trkpt lat="43.148887" lon="-4.959903">
        <ele>1168.068</ele>
        <time>2021-08-02T11:40:19Z</time>
      </trkpt>
      <trkpt lat="43.148875" lon="-4.959839">
        <ele>1167.242</ele>
        <time>2021-08-02T11:40:24Z</time>
      </trkpt>
      <trkpt lat="43.148886" lon="-4.959778">
        <ele>1166.826</ele>
        <time>2021-08-02T11:40:30Z</time>
      </trkpt>
      <trkpt lat="43.148875" lon="-4.959712">
        <ele>1165.308</ele>
        <time>2021-08-02T11:40:36Z</time>
      </trkpt>
      <trkpt lat="43.14886" lon="-4.959648">
        <ele>1164.383</ele>
        <time>2021-08-02T11:40:42Z</time>
      </trkpt>
      <trkpt lat="43.148852" lon="-4.959585">
        <ele>1163.015</ele>
        <time>2021-08-02T11:40:48Z</time>
      </trkpt>
      <trkpt lat="43.148822" lon="-4.959527">
        <ele>1162.194</ele>
        <time>2021-08-02T11:40:54Z</time>
      </trkpt>
      <trkpt lat="43.148797" lon="-4.95947">
        <ele>1161.692</ele>
        <time>2021-08-02T11:40:57Z</time>
      </trkpt>
      <trkpt lat="43.148768" lon="-4.959421">
        <ele>1161.092</ele>
        <time>2021-08-02T11:41:01Z</time>
      </trkpt>
      <trkpt lat="43.148723" lon="-4.959389">
        <ele>1160.270</ele>
        <time>2021-08-02T11:41:05Z</time>
      </trkpt>
      <trkpt lat="43.14868" lon="-4.959354">
        <ele>1159.983</ele>
        <time>2021-08-02T11:41:15Z</time>
      </trkpt>
      <trkpt lat="43.148639" lon="-4.959327">
        <ele>1159.871</ele>
        <time>2021-08-02T11:41:18Z</time>
      </trkpt>
      <trkpt lat="43.14861" lon="-4.959272">
        <ele>1159.171</ele>
        <time>2021-08-02T11:41:23Z</time>
      </trkpt>
      <trkpt lat="43.148595" lon="-4.95921">
        <ele>1159.441</ele>
        <time>2021-08-02T11:41:27Z</time>
      </trkpt>
      <trkpt lat="43.148584" lon="-4.959147">
        <ele>1158.715</ele>
        <time>2021-08-02T11:41:31Z</time>
      </trkpt>
      <trkpt lat="43.148564" lon="-4.959069">
        <ele>1157.608</ele>
        <time>2021-08-02T11:41:35Z</time>
      </trkpt>
      <trkpt lat="43.148613" lon="-4.959093">
        <ele>1156.964</ele>
        <time>2021-08-02T11:46:05Z</time>
      </trkpt>
      <trkpt lat="43.148647" lon="-4.959041">
        <ele>1152.916</ele>
        <time>2021-08-02T11:46:13Z</time>
      </trkpt>
      <trkpt lat="43.148667" lon="-4.958984">
        <ele>1150.515</ele>
        <time>2021-08-02T11:46:16Z</time>
      </trkpt>
      <trkpt lat="43.148685" lon="-4.958926">
        <ele>1149.263</ele>
        <time>2021-08-02T11:46:20Z</time>
      </trkpt>
      <trkpt lat="43.148716" lon="-4.95888">
        <ele>1148.123</ele>
        <time>2021-08-02T11:46:25Z</time>
      </trkpt>
      <trkpt lat="43.148752" lon="-4.958839">
        <ele>1147.331</ele>
        <time>2021-08-02T11:46:28Z</time>
      </trkpt>
      <trkpt lat="43.148789" lon="-4.958801">
        <ele>1147.224</ele>
        <time>2021-08-02T11:46:32Z</time>
      </trkpt>
      <trkpt lat="43.148827" lon="-4.958759">
        <ele>1146.862</ele>
        <time>2021-08-02T11:46:36Z</time>
      </trkpt>
      <trkpt lat="43.148864" lon="-4.958722">
        <ele>1146.344</ele>
        <time>2021-08-02T11:46:40Z</time>
      </trkpt>
      <trkpt lat="43.148899" lon="-4.958682">
        <ele>1146.705</ele>
        <time>2021-08-02T11:46:45Z</time>
      </trkpt>
      <trkpt lat="43.148904" lon="-4.958616">
        <ele>1146.815</ele>
        <time>2021-08-02T11:46:49Z</time>
      </trkpt>
      <trkpt lat="43.148883" lon="-4.958554">
        <ele>1147.608</ele>
        <time>2021-08-02T11:46:54Z</time>
      </trkpt>
      <trkpt lat="43.14884" lon="-4.958527">
        <ele>1147.351</ele>
        <time>2021-08-02T11:46:59Z</time>
      </trkpt>
      <trkpt lat="43.148802" lon="-4.958493">
        <ele>1147.623</ele>
        <time>2021-08-02T11:47:03Z</time>
      </trkpt>
      <trkpt lat="43.148768" lon="-4.958451">
        <ele>1147.592</ele>
        <time>2021-08-02T11:47:07Z</time>
      </trkpt>
      <trkpt lat="43.148735" lon="-4.958409">
        <ele>1146.880</ele>
        <time>2021-08-02T11:47:11Z</time>
      </trkpt>
      <trkpt lat="43.148706" lon="-4.95836">
        <ele>1146.710</ele>
        <time>2021-08-02T11:47:14Z</time>
      </trkpt>
      <trkpt lat="43.148671" lon="-4.95831">
        <ele>1146.778</ele>
        <time>2021-08-02T11:47:18Z</time>
      </trkpt>
      <trkpt lat="43.148632" lon="-4.958276">
        <ele>1147.481</ele>
        <time>2021-08-02T11:47:22Z</time>
      </trkpt>
      <trkpt lat="43.148584" lon="-4.958253">
        <ele>1146.579</ele>
        <time>2021-08-02T11:47:25Z</time>
      </trkpt>
      <trkpt lat="43.148538" lon="-4.958254">
        <ele>1146.685</ele>
        <time>2021-08-02T11:47:28Z</time>
      </trkpt>
      <trkpt lat="43.148492" lon="-4.95826">
        <ele>1147.089</ele>
        <time>2021-08-02T11:47:31Z</time>
      </trkpt>
      <trkpt lat="43.148444" lon="-4.958252">
        <ele>1147.317</ele>
        <time>2021-08-02T11:47:35Z</time>
      </trkpt>
      <trkpt lat="43.148398" lon="-4.958253">
        <ele>1147.708</ele>
        <time>2021-08-02T11:47:39Z</time>
      </trkpt>
      <trkpt lat="43.148348" lon="-4.958258">
        <ele>1147.965</ele>
        <time>2021-08-02T11:47:44Z</time>
      </trkpt>
      <trkpt lat="43.148299" lon="-4.95826">
        <ele>1148.427</ele>
        <time>2021-08-02T11:47:48Z</time>
      </trkpt>
      <trkpt lat="43.148249" lon="-4.958263">
        <ele>1148.576</ele>
        <time>2021-08-02T11:47:52Z</time>
      </trkpt>
      <trkpt lat="43.148198" lon="-4.958262">
        <ele>1148.924</ele>
        <time>2021-08-02T11:47:55Z</time>
      </trkpt>
      <trkpt lat="43.148153" lon="-4.958243">
        <ele>1148.814</ele>
        <time>2021-08-02T11:47:59Z</time>
      </trkpt>
      <trkpt lat="43.148107" lon="-4.95822">
        <ele>1148.682</ele>
        <time>2021-08-02T11:48:03Z</time>
      </trkpt>
      <trkpt lat="43.148058" lon="-4.958205">
        <ele>1149.075</ele>
        <time>2021-08-02T11:48:07Z</time>
      </trkpt>
      <trkpt lat="43.148013" lon="-4.958198">
        <ele>1149.063</ele>
        <time>2021-08-02T11:48:11Z</time>
      </trkpt>
      <trkpt lat="43.147964" lon="-4.958186">
        <ele>1148.887</ele>
        <time>2021-08-02T11:48:14Z</time>
      </trkpt>
      <trkpt lat="43.147917" lon="-4.958172">
        <ele>1148.342</ele>
        <time>2021-08-02T11:48:18Z</time>
      </trkpt>
      <trkpt lat="43.147872" lon="-4.958176">
        <ele>1148.326</ele>
        <time>2021-08-02T11:48:23Z</time>
      </trkpt>
      <trkpt lat="43.147829" lon="-4.958157">
        <ele>1148.008</ele>
        <time>2021-08-02T11:48:28Z</time>
      </trkpt>
      <trkpt lat="43.147786" lon="-4.958132">
        <ele>1147.835</ele>
        <time>2021-08-02T11:48:32Z</time>
      </trkpt>
      <trkpt lat="43.147744" lon="-4.958105">
        <ele>1146.777</ele>
        <time>2021-08-02T11:48:37Z</time>
      </trkpt>
      <trkpt lat="43.147695" lon="-4.95809">
        <ele>1145.926</ele>
        <time>2021-08-02T11:48:42Z</time>
      </trkpt>
      <trkpt lat="43.147644" lon="-4.958078">
        <ele>1144.964</ele>
        <time>2021-08-02T11:48:47Z</time>
      </trkpt>
      <trkpt lat="43.147598" lon="-4.958063">
        <ele>1143.114</ele>
        <time>2021-08-02T11:48:51Z</time>
      </trkpt>
      <trkpt lat="43.147551" lon="-4.958062">
        <ele>1142.312</ele>
        <time>2021-08-02T11:48:56Z</time>
      </trkpt>
      <trkpt lat="43.147502" lon="-4.958044">
        <ele>1141.165</ele>
        <time>2021-08-02T11:49:01Z</time>
      </trkpt>
      <trkpt lat="43.147459" lon="-4.958016">
        <ele>1140.493</ele>
        <time>2021-08-02T11:49:05Z</time>
      </trkpt>
      <trkpt lat="43.147422" lon="-4.957973">
        <ele>1139.548</ele>
        <time>2021-08-02T11:49:09Z</time>
      </trkpt>
      <trkpt lat="43.1474" lon="-4.957916">
        <ele>1138.461</ele>
        <time>2021-08-02T11:49:12Z</time>
      </trkpt>
      <trkpt lat="43.147434" lon="-4.957972">
        <ele>1137.917</ele>
        <time>2021-08-02T11:49:20Z</time>
      </trkpt>
      <trkpt lat="43.14739" lon="-4.957983">
        <ele>1137.108</ele>
        <time>2021-08-02T11:49:49Z</time>
      </trkpt>
      <trkpt lat="43.147379" lon="-4.957918">
        <ele>1137.451</ele>
        <time>2021-08-02T11:49:52Z</time>
      </trkpt>
      <trkpt lat="43.147368" lon="-4.957854">
        <ele>1137.163</ele>
        <time>2021-08-02T11:49:55Z</time>
      </trkpt>
      <trkpt lat="43.14735" lon="-4.957787">
        <ele>1137.052</ele>
        <time>2021-08-02T11:49:58Z</time>
      </trkpt>
      <trkpt lat="43.147314" lon="-4.957727">
        <ele>1136.690</ele>
        <time>2021-08-02T11:50:04Z</time>
      </trkpt>
      <trkpt lat="43.147286" lon="-4.957674">
        <ele>1136.560</ele>
        <time>2021-08-02T11:50:08Z</time>
      </trkpt>
      <trkpt lat="43.14724" lon="-4.957644">
        <ele>1135.148</ele>
        <time>2021-08-02T11:50:12Z</time>
      </trkpt>
      <trkpt lat="43.147193" lon="-4.957642">
        <ele>1134.891</ele>
        <time>2021-08-02T11:50:14Z</time>
      </trkpt>
      <trkpt lat="43.147143" lon="-4.957644">
        <ele>1133.969</ele>
        <time>2021-08-02T11:50:18Z</time>
      </trkpt>
      <trkpt lat="43.147099" lon="-4.957664">
        <ele>1133.689</ele>
        <time>2021-08-02T11:50:21Z</time>
      </trkpt>
      <trkpt lat="43.147054" lon="-4.957685">
        <ele>1133.206</ele>
        <time>2021-08-02T11:50:25Z</time>
      </trkpt>
      <trkpt lat="43.147002" lon="-4.957711">
        <ele>1132.426</ele>
        <time>2021-08-02T11:50:29Z</time>
      </trkpt>
      <trkpt lat="43.146943" lon="-4.957729">
        <ele>1131.508</ele>
        <time>2021-08-02T11:50:34Z</time>
      </trkpt>
      <trkpt lat="43.14694" lon="-4.957793">
        <ele>1130.855</ele>
        <time>2021-08-02T11:50:53Z</time>
      </trkpt>
      <trkpt lat="43.146891" lon="-4.957789">
        <ele>1129.937</ele>
        <time>2021-08-02T11:50:59Z</time>
      </trkpt>
      <trkpt lat="43.146839" lon="-4.957759">
        <ele>1128.886</ele>
        <time>2021-08-02T11:51:04Z</time>
      </trkpt>
      <trkpt lat="43.146794" lon="-4.957748">
        <ele>1128.794</ele>
        <time>2021-08-02T11:51:07Z</time>
      </trkpt>
      <trkpt lat="43.146742" lon="-4.95773">
        <ele>1128.074</ele>
        <time>2021-08-02T11:51:10Z</time>
      </trkpt>
      <trkpt lat="43.146696" lon="-4.957707">
        <ele>1128.112</ele>
        <time>2021-08-02T11:51:13Z</time>
      </trkpt>
      <trkpt lat="43.146648" lon="-4.95769">
        <ele>1128.535</ele>
        <time>2021-08-02T11:51:17Z</time>
      </trkpt>
      <trkpt lat="43.146602" lon="-4.957665">
        <ele>1127.833</ele>
        <time>2021-08-02T11:51:21Z</time>
      </trkpt>
      <trkpt lat="43.146558" lon="-4.957631">
        <ele>1127.945</ele>
        <time>2021-08-02T11:51:24Z</time>
      </trkpt>
      <trkpt lat="43.146518" lon="-4.957594">
        <ele>1127.547</ele>
        <time>2021-08-02T11:51:29Z</time>
      </trkpt>
      <trkpt lat="43.146476" lon="-4.957555">
        <ele>1126.911</ele>
        <time>2021-08-02T11:51:34Z</time>
      </trkpt>
      <trkpt lat="43.146451" lon="-4.957503">
        <ele>1126.308</ele>
        <time>2021-08-02T11:51:37Z</time>
      </trkpt>
      <trkpt lat="43.146404" lon="-4.957485">
        <ele>1125.271</ele>
        <time>2021-08-02T11:51:52Z</time>
      </trkpt>
      <trkpt lat="43.146359" lon="-4.957464">
        <ele>1124.343</ele>
        <time>2021-08-02T11:51:55Z</time>
      </trkpt>
      <trkpt lat="43.146311" lon="-4.957454">
        <ele>1122.972</ele>
        <time>2021-08-02T11:52:05Z</time>
      </trkpt>
      <trkpt lat="43.146268" lon="-4.957424">
        <ele>1123.120</ele>
        <time>2021-08-02T11:52:09Z</time>
      </trkpt>
      <trkpt lat="43.146233" lon="-4.957378">
        <ele>1122.640</ele>
        <time>2021-08-02T11:52:12Z</time>
      </trkpt>
      <trkpt lat="43.146191" lon="-4.957351">
        <ele>1122.158</ele>
        <time>2021-08-02T11:52:16Z</time>
      </trkpt>
      <trkpt lat="43.146143" lon="-4.957329">
        <ele>1121.651</ele>
        <time>2021-08-02T11:52:20Z</time>
      </trkpt>
      <trkpt lat="43.146097" lon="-4.957315">
        <ele>1120.469</ele>
        <time>2021-08-02T11:52:24Z</time>
      </trkpt>
      <trkpt lat="43.146057" lon="-4.957287">
        <ele>1119.612</ele>
        <time>2021-08-02T11:52:27Z</time>
      </trkpt>
      <trkpt lat="43.146016" lon="-4.95726">
        <ele>1119.032</ele>
        <time>2021-08-02T11:52:30Z</time>
      </trkpt>
      <trkpt lat="43.145975" lon="-4.957229">
        <ele>1118.905</ele>
        <time>2021-08-02T11:52:34Z</time>
      </trkpt>
      <trkpt lat="43.145927" lon="-4.957211">
        <ele>1118.708</ele>
        <time>2021-08-02T11:52:39Z</time>
      </trkpt>
      <trkpt lat="43.145881" lon="-4.957195">
        <ele>1118.648</ele>
        <time>2021-08-02T11:52:42Z</time>
      </trkpt>
      <trkpt lat="43.145837" lon="-4.957162">
        <ele>1118.290</ele>
        <time>2021-08-02T11:52:45Z</time>
      </trkpt>
      <trkpt lat="43.145792" lon="-4.957133">
        <ele>1118.169</ele>
        <time>2021-08-02T11:52:49Z</time>
      </trkpt>
      <trkpt lat="43.145749" lon="-4.957112">
        <ele>1117.997</ele>
        <time>2021-08-02T11:52:52Z</time>
      </trkpt>
      <trkpt lat="43.145695" lon="-4.957084">
        <ele>1118.087</ele>
        <time>2021-08-02T11:52:56Z</time>
      </trkpt>
      <trkpt lat="43.145647" lon="-4.957071">
        <ele>1118.015</ele>
        <time>2021-08-02T11:52:59Z</time>
      </trkpt>
      <trkpt lat="43.145604" lon="-4.957044">
        <ele>1117.758</ele>
        <time>2021-08-02T11:53:03Z</time>
      </trkpt>
      <trkpt lat="43.145555" lon="-4.95703">
        <ele>1116.856</ele>
        <time>2021-08-02T11:53:08Z</time>
      </trkpt>
      <trkpt lat="43.145508" lon="-4.957014">
        <ele>1116.431</ele>
        <time>2021-08-02T11:53:11Z</time>
      </trkpt>
      <trkpt lat="43.145463" lon="-4.957001">
        <ele>1116.561</ele>
        <time>2021-08-02T11:53:15Z</time>
      </trkpt>
      <trkpt lat="43.145414" lon="-4.956997">
        <ele>1115.607</ele>
        <time>2021-08-02T11:53:20Z</time>
      </trkpt>
      <trkpt lat="43.145369" lon="-4.956986">
        <ele>1115.408</ele>
        <time>2021-08-02T11:53:23Z</time>
      </trkpt>
      <trkpt lat="43.145314" lon="-4.956958">
        <ele>1114.920</ele>
        <time>2021-08-02T11:53:28Z</time>
      </trkpt>
      <trkpt lat="43.145269" lon="-4.956938">
        <ele>1114.372</ele>
        <time>2021-08-02T11:53:32Z</time>
      </trkpt>
      <trkpt lat="43.145218" lon="-4.95692">
        <ele>1114.151</ele>
        <time>2021-08-02T11:53:36Z</time>
      </trkpt>
      <trkpt lat="43.145171" lon="-4.956895">
        <ele>1112.999</ele>
        <time>2021-08-02T11:53:40Z</time>
      </trkpt>
      <trkpt lat="43.145124" lon="-4.956882">
        <ele>1112.489</ele>
        <time>2021-08-02T11:53:44Z</time>
      </trkpt>
      <trkpt lat="43.145073" lon="-4.956869">
        <ele>1112.357</ele>
        <time>2021-08-02T11:53:48Z</time>
      </trkpt>
      <trkpt lat="43.145025" lon="-4.956865">
        <ele>1111.480</ele>
        <time>2021-08-02T11:53:52Z</time>
      </trkpt>
      <trkpt lat="43.144983" lon="-4.956837">
        <ele>1110.848</ele>
        <time>2021-08-02T11:53:56Z</time>
      </trkpt>
      <trkpt lat="43.144942" lon="-4.956811">
        <ele>1110.281</ele>
        <time>2021-08-02T11:54:00Z</time>
      </trkpt>
      <trkpt lat="43.144898" lon="-4.95679">
        <ele>1110.061</ele>
        <time>2021-08-02T11:54:03Z</time>
      </trkpt>
      <trkpt lat="43.14484" lon="-4.956767">
        <ele>1109.717</ele>
        <time>2021-08-02T11:54:08Z</time>
      </trkpt>
      <trkpt lat="43.144789" lon="-4.956725">
        <ele>1108.308</ele>
        <time>2021-08-02T11:54:13Z</time>
      </trkpt>
      <trkpt lat="43.144754" lon="-4.956682">
        <ele>1108.285</ele>
        <time>2021-08-02T11:54:18Z</time>
      </trkpt>
      <trkpt lat="43.144716" lon="-4.956635">
        <ele>1107.187</ele>
        <time>2021-08-02T11:54:23Z</time>
      </trkpt>
      <trkpt lat="43.144695" lon="-4.956572">
        <ele>1107.016</ele>
        <time>2021-08-02T11:54:27Z</time>
      </trkpt>
      <trkpt lat="43.144676" lon="-4.956514">
        <ele>1105.424</ele>
        <time>2021-08-02T11:54:31Z</time>
      </trkpt>
      <trkpt lat="43.14466" lon="-4.95645">
        <ele>1105.474</ele>
        <time>2021-08-02T11:54:35Z</time>
      </trkpt>
      <trkpt lat="43.14463" lon="-4.9564">
        <ele>1103.722</ele>
        <time>2021-08-02T11:54:40Z</time>
      </trkpt>
      <trkpt lat="43.144584" lon="-4.956365">
        <ele>1102.375</ele>
        <time>2021-08-02T11:54:44Z</time>
      </trkpt>
      <trkpt lat="43.144538" lon="-4.956349">
        <ele>1102.283</ele>
        <time>2021-08-02T11:54:47Z</time>
      </trkpt>
      <trkpt lat="43.144489" lon="-4.956343">
        <ele>1101.922</ele>
        <time>2021-08-02T11:54:50Z</time>
      </trkpt>
      <trkpt lat="43.144442" lon="-4.956342">
        <ele>1100.362</ele>
        <time>2021-08-02T11:54:53Z</time>
      </trkpt>
      <trkpt lat="43.144394" lon="-4.956345">
        <ele>1100.008</ele>
        <time>2021-08-02T11:54:57Z</time>
      </trkpt>
      <trkpt lat="43.144345" lon="-4.956353">
        <ele>1099.908</ele>
        <time>2021-08-02T11:55:01Z</time>
      </trkpt>
      <trkpt lat="43.144294" lon="-4.956367">
        <ele>1099.559</ele>
        <time>2021-08-02T11:55:05Z</time>
      </trkpt>
      <trkpt lat="43.144249" lon="-4.956378">
        <ele>1099.641</ele>
        <time>2021-08-02T11:55:08Z</time>
      </trkpt>
      <trkpt lat="43.144203" lon="-4.956381">
        <ele>1100.180</ele>
        <time>2021-08-02T11:55:11Z</time>
      </trkpt>
      <trkpt lat="43.144157" lon="-4.956376">
        <ele>1100.058</ele>
        <time>2021-08-02T11:55:15Z</time>
      </trkpt>
      <trkpt lat="43.14411" lon="-4.956363">
        <ele>1099.438</ele>
        <time>2021-08-02T11:55:20Z</time>
      </trkpt>
      <trkpt lat="43.144056" lon="-4.956361">
        <ele>1098.886</ele>
        <time>2021-08-02T11:55:24Z</time>
      </trkpt>
      <trkpt lat="43.144006" lon="-4.956369">
        <ele>1098.719</ele>
        <time>2021-08-02T11:55:27Z</time>
      </trkpt>
      <trkpt lat="43.143958" lon="-4.956357">
        <ele>1098.417</ele>
        <time>2021-08-02T11:55:31Z</time>
      </trkpt>
      <trkpt lat="43.143912" lon="-4.956343">
        <ele>1097.831</ele>
        <time>2021-08-02T11:55:35Z</time>
      </trkpt>
      <trkpt lat="43.143864" lon="-4.956336">
        <ele>1098.361</ele>
        <time>2021-08-02T11:55:39Z</time>
      </trkpt>
      <trkpt lat="43.143818" lon="-4.956332">
        <ele>1097.507</ele>
        <time>2021-08-02T11:55:42Z</time>
      </trkpt>
      <trkpt lat="43.14377" lon="-4.956325">
        <ele>1097.808</ele>
        <time>2021-08-02T11:55:46Z</time>
      </trkpt>
      <trkpt lat="43.143726" lon="-4.956307">
        <ele>1096.940</ele>
        <time>2021-08-02T11:55:50Z</time>
      </trkpt>
      <trkpt lat="43.143681" lon="-4.956292">
        <ele>1096.912</ele>
        <time>2021-08-02T11:55:54Z</time>
      </trkpt>
      <trkpt lat="43.143634" lon="-4.956296">
        <ele>1096.881</ele>
        <time>2021-08-02T11:55:59Z</time>
      </trkpt>
      <trkpt lat="43.143592" lon="-4.956275">
        <ele>1096.039</ele>
        <time>2021-08-02T11:56:02Z</time>
      </trkpt>
      <trkpt lat="43.143547" lon="-4.956268">
        <ele>1094.939</ele>
        <time>2021-08-02T11:56:06Z</time>
      </trkpt>
      <trkpt lat="43.143502" lon="-4.956253">
        <ele>1094.377</ele>
        <time>2021-08-02T11:56:09Z</time>
      </trkpt>
      <trkpt lat="43.143449" lon="-4.956251">
        <ele>1093.920</ele>
        <time>2021-08-02T11:56:13Z</time>
      </trkpt>
      <trkpt lat="43.14348" lon="-4.956304">
        <ele>1094.238</ele>
        <time>2021-08-02T11:56:23Z</time>
      </trkpt>
      <trkpt lat="43.14345" lon="-4.956254">
        <ele>1094.534</ele>
        <time>2021-08-02T11:57:03Z</time>
      </trkpt>
      <trkpt lat="43.143425" lon="-4.956193">
        <ele>1094.555</ele>
        <time>2021-08-02T11:57:07Z</time>
      </trkpt>
      <trkpt lat="43.143413" lon="-4.956124">
        <ele>1094.110</ele>
        <time>2021-08-02T11:57:10Z</time>
      </trkpt>
      <trkpt lat="43.143386" lon="-4.956068">
        <ele>1093.908</ele>
        <time>2021-08-02T11:57:13Z</time>
      </trkpt>
      <trkpt lat="43.143367" lon="-4.956011">
        <ele>1093.950</ele>
        <time>2021-08-02T11:57:18Z</time>
      </trkpt>
      <trkpt lat="43.143355" lon="-4.955945">
        <ele>1093.732</ele>
        <time>2021-08-02T11:57:22Z</time>
      </trkpt>
      <trkpt lat="43.143345" lon="-4.955885">
        <ele>1093.431</ele>
        <time>2021-08-02T11:57:27Z</time>
      </trkpt>
      <trkpt lat="43.143321" lon="-4.955826">
        <ele>1092.519</ele>
        <time>2021-08-02T11:57:31Z</time>
      </trkpt>
      <trkpt lat="43.143309" lon="-4.955764">
        <ele>1092.879</ele>
        <time>2021-08-02T11:57:35Z</time>
      </trkpt>
      <trkpt lat="43.143289" lon="-4.955702">
        <ele>1092.867</ele>
        <time>2021-08-02T11:57:38Z</time>
      </trkpt>
      <trkpt lat="43.143243" lon="-4.955674">
        <ele>1092.650</ele>
        <time>2021-08-02T11:57:42Z</time>
      </trkpt>
      <trkpt lat="43.1432" lon="-4.955644">
        <ele>1092.098</ele>
        <time>2021-08-02T11:57:45Z</time>
      </trkpt>
      <trkpt lat="43.143158" lon="-4.955616">
        <ele>1092.035</ele>
        <time>2021-08-02T11:57:50Z</time>
      </trkpt>
      <trkpt lat="43.143108" lon="-4.955602">
        <ele>1091.486</ele>
        <time>2021-08-02T11:57:54Z</time>
      </trkpt>
      <trkpt lat="43.143059" lon="-4.955608">
        <ele>1091.514</ele>
        <time>2021-08-02T11:57:58Z</time>
      </trkpt>
      <trkpt lat="43.143015" lon="-4.955623">
        <ele>1091.108</ele>
        <time>2021-08-02T11:58:01Z</time>
      </trkpt>
      <trkpt lat="43.142964" lon="-4.955649">
        <ele>1090.710</ele>
        <time>2021-08-02T11:58:05Z</time>
      </trkpt>
      <trkpt lat="43.142922" lon="-4.955677">
        <ele>1090.692</ele>
        <time>2021-08-02T11:58:09Z</time>
      </trkpt>
      <trkpt lat="43.142879" lon="-4.955709">
        <ele>1090.481</ele>
        <time>2021-08-02T11:58:13Z</time>
      </trkpt>
      <trkpt lat="43.142836" lon="-4.955732">
        <ele>1090.699</ele>
        <time>2021-08-02T11:58:17Z</time>
      </trkpt>
      <trkpt lat="43.142787" lon="-4.955741">
        <ele>1089.879</ele>
        <time>2021-08-02T11:58:21Z</time>
      </trkpt>
      <trkpt lat="43.142731" lon="-4.955754">
        <ele>1089.617</ele>
        <time>2021-08-02T11:58:25Z</time>
      </trkpt>
      <trkpt lat="43.142678" lon="-4.95575">
        <ele>1089.150</ele>
        <time>2021-08-02T11:58:30Z</time>
      </trkpt>
      <trkpt lat="43.142626" lon="-4.955742">
        <ele>1088.788</ele>
        <time>2021-08-02T11:58:35Z</time>
      </trkpt>
      <trkpt lat="43.142582" lon="-4.955727">
        <ele>1088.635</ele>
        <time>2021-08-02T11:58:40Z</time>
      </trkpt>
      <trkpt lat="43.142536" lon="-4.955711">
        <ele>1088.686</ele>
        <time>2021-08-02T11:58:43Z</time>
      </trkpt>
      <trkpt lat="43.142491" lon="-4.955685">
        <ele>1088.614</ele>
        <time>2021-08-02T11:58:47Z</time>
      </trkpt>
      <trkpt lat="43.142449" lon="-4.955659">
        <ele>1088.308</ele>
        <time>2021-08-02T11:58:51Z</time>
      </trkpt>
      <trkpt lat="43.142411" lon="-4.955625">
        <ele>1088.280</ele>
        <time>2021-08-02T11:58:55Z</time>
      </trkpt>
      <trkpt lat="43.142376" lon="-4.955585">
        <ele>1088.392</ele>
        <time>2021-08-02T11:58:59Z</time>
      </trkpt>
      <trkpt lat="43.142332" lon="-4.955555">
        <ele>1088.151</ele>
        <time>2021-08-02T11:59:05Z</time>
      </trkpt>
      <trkpt lat="43.1423" lon="-4.955512">
        <ele>1087.729</ele>
        <time>2021-08-02T11:59:10Z</time>
      </trkpt>
      <trkpt lat="43.142261" lon="-4.955472">
        <ele>1087.219</ele>
        <time>2021-08-02T11:59:15Z</time>
      </trkpt>
      <trkpt lat="43.142222" lon="-4.955428">
        <ele>1086.287</ele>
        <time>2021-08-02T11:59:19Z</time>
      </trkpt>
      <trkpt lat="43.142195" lon="-4.955375">
        <ele>1086.440</ele>
        <time>2021-08-02T11:59:23Z</time>
      </trkpt>
      <trkpt lat="43.142178" lon="-4.955317">
        <ele>1086.058</ele>
        <time>2021-08-02T11:59:27Z</time>
      </trkpt>
      <trkpt lat="43.142172" lon="-4.955253">
        <ele>1085.844</ele>
        <time>2021-08-02T11:59:30Z</time>
      </trkpt>
      <trkpt lat="43.142153" lon="-4.955189">
        <ele>1085.905</ele>
        <time>2021-08-02T11:59:36Z</time>
      </trkpt>
      <trkpt lat="43.14214" lon="-4.955127">
        <ele>1085.915</ele>
        <time>2021-08-02T11:59:41Z</time>
      </trkpt>
      <trkpt lat="43.142136" lon="-4.955056">
        <ele>1084.908</ele>
        <time>2021-08-02T11:59:46Z</time>
      </trkpt>
      <trkpt lat="43.142128" lon="-4.954993">
        <ele>1084.421</ele>
        <time>2021-08-02T11:59:50Z</time>
      </trkpt>
      <trkpt lat="43.142125" lon="-4.954924">
        <ele>1084.693</ele>
        <time>2021-08-02T11:59:54Z</time>
      </trkpt>
      <trkpt lat="43.142129" lon="-4.954862">
        <ele>1083.672</ele>
        <time>2021-08-02T11:59:58Z</time>
      </trkpt>
      <trkpt lat="43.142132" lon="-4.954796">
        <ele>1083.610</ele>
        <time>2021-08-02T12:00:03Z</time>
      </trkpt>
      <trkpt lat="43.142131" lon="-4.954732">
        <ele>1083.130</ele>
        <time>2021-08-02T12:00:06Z</time>
      </trkpt>
      <trkpt lat="43.142108" lon="-4.954662">
        <ele>1082.628</ele>
        <time>2021-08-02T12:00:11Z</time>
      </trkpt>
      <trkpt lat="43.142091" lon="-4.954605">
        <ele>1082.581</ele>
        <time>2021-08-02T12:00:16Z</time>
      </trkpt>
      <trkpt lat="43.142075" lon="-4.954547">
        <ele>1082.449</ele>
        <time>2021-08-02T12:00:19Z</time>
      </trkpt>
      <trkpt lat="43.142064" lon="-4.954481">
        <ele>1082.253</ele>
        <time>2021-08-02T12:00:24Z</time>
      </trkpt>
      <trkpt lat="43.142057" lon="-4.954416">
        <ele>1081.804</ele>
        <time>2021-08-02T12:00:28Z</time>
      </trkpt>
      <trkpt lat="43.142056" lon="-4.954344">
        <ele>1082.114</ele>
        <time>2021-08-02T12:00:32Z</time>
      </trkpt>
      <trkpt lat="43.142044" lon="-4.95428">
        <ele>1081.408</ele>
        <time>2021-08-02T12:00:36Z</time>
      </trkpt>
      <trkpt lat="43.142034" lon="-4.954216">
        <ele>1081.032</ele>
        <time>2021-08-02T12:00:40Z</time>
      </trkpt>
      <trkpt lat="43.142022" lon="-4.954155">
        <ele>1081.074</ele>
        <time>2021-08-02T12:00:45Z</time>
      </trkpt>
      <trkpt lat="43.142" lon="-4.954101">
        <ele>1080.143</ele>
        <time>2021-08-02T12:00:49Z</time>
      </trkpt>
      <trkpt lat="43.141981" lon="-4.954044">
        <ele>1079.981</ele>
        <time>2021-08-02T12:00:53Z</time>
      </trkpt>
      <trkpt lat="43.141974" lon="-4.953974">
        <ele>1079.541</ele>
        <time>2021-08-02T12:00:56Z</time>
      </trkpt>
      <trkpt lat="43.141968" lon="-4.953902">
        <ele>1079.229</ele>
        <time>2021-08-02T12:01:01Z</time>
      </trkpt>
      <trkpt lat="43.141964" lon="-4.953839">
        <ele>1078.892</ele>
        <time>2021-08-02T12:01:06Z</time>
      </trkpt>
      <trkpt lat="43.141955" lon="-4.953778">
        <ele>1078.370</ele>
        <time>2021-08-02T12:01:10Z</time>
      </trkpt>
      <trkpt lat="43.141934" lon="-4.953719">
        <ele>1078.662</ele>
        <time>2021-08-02T12:01:14Z</time>
      </trkpt>
      <trkpt lat="43.141907" lon="-4.953667">
        <ele>1078.583</ele>
        <time>2021-08-02T12:01:18Z</time>
      </trkpt>
      <trkpt lat="43.14188" lon="-4.953607">
        <ele>1078.811</ele>
        <time>2021-08-02T12:01:22Z</time>
      </trkpt>
      <trkpt lat="43.141929" lon="-4.953588">
        <ele>1078.808</ele>
        <time>2021-08-02T12:01:27Z</time>
      </trkpt>
      <trkpt lat="43.14189" lon="-4.953652">
        <ele>1078.193</ele>
        <time>2021-08-02T12:02:09Z</time>
      </trkpt>
      <trkpt lat="43.141848" lon="-4.95363">
        <ele>1078.255</ele>
        <time>2021-08-02T12:02:16Z</time>
      </trkpt>
      <trkpt lat="43.1418" lon="-4.953588">
        <ele>1078.074</ele>
        <time>2021-08-02T12:02:19Z</time>
      </trkpt>
      <trkpt lat="43.141758" lon="-4.953552">
        <ele>1078.152</ele>
        <time>2021-08-02T12:02:22Z</time>
      </trkpt>
      <trkpt lat="43.141729" lon="-4.953504">
        <ele>1078.462</ele>
        <time>2021-08-02T12:02:24Z</time>
      </trkpt>
      <trkpt lat="43.141701" lon="-4.953452">
        <ele>1078.310</ele>
        <time>2021-08-02T12:02:27Z</time>
      </trkpt>
      <trkpt lat="43.14168" lon="-4.953391">
        <ele>1077.533</ele>
        <time>2021-08-02T12:02:30Z</time>
      </trkpt>
      <trkpt lat="43.141681" lon="-4.953314">
        <ele>1076.871</ele>
        <time>2021-08-02T12:02:34Z</time>
      </trkpt>
      <trkpt lat="43.141713" lon="-4.953265">
        <ele>1077.323</ele>
        <time>2021-08-02T12:03:21Z</time>
      </trkpt>
      <trkpt lat="43.141712" lon="-4.953199">
        <ele>1077.183</ele>
        <time>2021-08-02T12:03:25Z</time>
      </trkpt>
      <trkpt lat="43.141694" lon="-4.953135">
        <ele>1076.911</ele>
        <time>2021-08-02T12:03:28Z</time>
      </trkpt>
      <trkpt lat="43.141674" lon="-4.953075">
        <ele>1077.308</ele>
        <time>2021-08-02T12:03:32Z</time>
      </trkpt>
      <trkpt lat="43.141658" lon="-4.953004">
        <ele>1077.339</ele>
        <time>2021-08-02T12:03:36Z</time>
      </trkpt>
      <trkpt lat="43.141635" lon="-4.952942">
        <ele>1077.421</ele>
        <time>2021-08-02T12:03:39Z</time>
      </trkpt>
      <trkpt lat="43.141624" lon="-4.952878">
        <ele>1077.340</ele>
        <time>2021-08-02T12:03:43Z</time>
      </trkpt>
      <trkpt lat="43.141599" lon="-4.952825">
        <ele>1077.228</ele>
        <time>2021-08-02T12:03:46Z</time>
      </trkpt>
      <trkpt lat="43.141573" lon="-4.952767">
        <ele>1077.178</ele>
        <time>2021-08-02T12:03:51Z</time>
      </trkpt>
      <trkpt lat="43.141543" lon="-4.952714">
        <ele>1076.866</ele>
        <time>2021-08-02T12:03:55Z</time>
      </trkpt>
      <trkpt lat="43.141523" lon="-4.952656">
        <ele>1076.599</ele>
        <time>2021-08-02T12:03:58Z</time>
      </trkpt>
      <trkpt lat="43.14151" lon="-4.952594">
        <ele>1075.427</ele>
        <time>2021-08-02T12:04:02Z</time>
      </trkpt>
      <trkpt lat="43.141498" lon="-4.95253">
        <ele>1073.689</ele>
        <time>2021-08-02T12:04:15Z</time>
      </trkpt>
      <trkpt lat="43.141466" lon="-4.952468">
        <ele>1072.706</ele>
        <time>2021-08-02T12:04:20Z</time>
      </trkpt>
      <trkpt lat="43.1415" lon="-4.952421">
        <ele>1071.426</ele>
        <time>2021-08-02T12:04:28Z</time>
      </trkpt>
      <trkpt lat="43.141522" lon="-4.952362">
        <ele>1070.708</ele>
        <time>2021-08-02T12:04:33Z</time>
      </trkpt>
      <trkpt lat="43.141499" lon="-4.952307">
        <ele>1069.075</ele>
        <time>2021-08-02T12:04:37Z</time>
      </trkpt>
      <trkpt lat="43.141457" lon="-4.952255">
        <ele>1068.377</ele>
        <time>2021-08-02T12:04:41Z</time>
      </trkpt>
      <trkpt lat="43.141416" lon="-4.952206">
        <ele>1067.886</ele>
        <time>2021-08-02T12:04:46Z</time>
      </trkpt>
      <trkpt lat="43.141387" lon="-4.952137">
        <ele>1067.244</ele>
        <time>2021-08-02T12:04:51Z</time>
      </trkpt>
      <trkpt lat="43.141371" lon="-4.952076">
        <ele>1066.614</ele>
        <time>2021-08-02T12:05:06Z</time>
      </trkpt>
      <trkpt lat="43.141393" lon="-4.952017">
        <ele>1065.852</ele>
        <time>2021-08-02T12:05:09Z</time>
      </trkpt>
      <trkpt lat="43.141433" lon="-4.951982">
        <ele>1065.755</ele>
        <time>2021-08-02T12:05:14Z</time>
      </trkpt>
      <trkpt lat="43.141454" lon="-4.951925">
        <ele>1065.033</ele>
        <time>2021-08-02T12:05:20Z</time>
      </trkpt>
      <trkpt lat="43.141505" lon="-4.951882">
        <ele>1063.865</ele>
        <time>2021-08-02T12:05:25Z</time>
      </trkpt>
      <trkpt lat="43.141533" lon="-4.951829">
        <ele>1063.668</ele>
        <time>2021-08-02T12:05:30Z</time>
      </trkpt>
      <trkpt lat="43.141561" lon="-4.951777">
        <ele>1063.014</ele>
        <time>2021-08-02T12:05:36Z</time>
      </trkpt>
      <trkpt lat="43.14158" lon="-4.951714">
        <ele>1062.408</ele>
        <time>2021-08-02T12:05:39Z</time>
      </trkpt>
      <trkpt lat="43.141596" lon="-4.951649">
        <ele>1061.583</ele>
        <time>2021-08-02T12:05:43Z</time>
      </trkpt>
      <trkpt lat="43.141627" lon="-4.951584">
        <ele>1061.485</ele>
        <time>2021-08-02T12:05:48Z</time>
      </trkpt>
      <trkpt lat="43.141582" lon="-4.951564">
        <ele>1060.824</ele>
        <time>2021-08-02T12:05:53Z</time>
      </trkpt>
      <trkpt lat="43.14161" lon="-4.951506">
        <ele>1059.652</ele>
        <time>2021-08-02T12:06:11Z</time>
      </trkpt>
      <trkpt lat="43.141648" lon="-4.95144">
        <ele>1058.282</ele>
        <time>2021-08-02T12:06:14Z</time>
      </trkpt>
      <trkpt lat="43.141679" lon="-4.951383">
        <ele>1056.960</ele>
        <time>2021-08-02T12:06:19Z</time>
      </trkpt>
      <trkpt lat="43.141697" lon="-4.951317">
        <ele>1056.373</ele>
        <time>2021-08-02T12:06:23Z</time>
      </trkpt>
      <trkpt lat="43.141688" lon="-4.951255">
        <ele>1055.411</ele>
        <time>2021-08-02T12:06:27Z</time>
      </trkpt>
      <trkpt lat="43.141658" lon="-4.951203">
        <ele>1054.865</ele>
        <time>2021-08-02T12:06:31Z</time>
      </trkpt>
      <trkpt lat="43.141618" lon="-4.951165">
        <ele>1054.768</ele>
        <time>2021-08-02T12:06:34Z</time>
      </trkpt>
      <trkpt lat="43.141579" lon="-4.951128">
        <ele>1054.614</ele>
        <time>2021-08-02T12:06:37Z</time>
      </trkpt>
      <trkpt lat="43.141537" lon="-4.951095">
        <ele>1054.608</ele>
        <time>2021-08-02T12:06:41Z</time>
      </trkpt>
      <trkpt lat="43.141495" lon="-4.951072">
        <ele>1054.013</ele>
        <time>2021-08-02T12:06:45Z</time>
      </trkpt>
      <trkpt lat="43.14146" lon="-4.951029">
        <ele>1053.065</ele>
        <time>2021-08-02T12:06:50Z</time>
      </trkpt>
      <trkpt lat="43.141433" lon="-4.950977">
        <ele>1052.814</ele>
        <time>2021-08-02T12:06:54Z</time>
      </trkpt>
      <trkpt lat="43.14141" lon="-4.950924">
        <ele>1052.712</ele>
        <time>2021-08-02T12:06:59Z</time>
      </trkpt>
      <trkpt lat="43.141372" lon="-4.950881">
        <ele>1052.442</ele>
        <time>2021-08-02T12:07:05Z</time>
      </trkpt>
      <trkpt lat="43.141332" lon="-4.950826">
        <ele>1052.050</ele>
        <time>2021-08-02T12:07:11Z</time>
      </trkpt>
      <trkpt lat="43.141306" lon="-4.950768">
        <ele>1051.783</ele>
        <time>2021-08-02T12:07:19Z</time>
      </trkpt>
      <trkpt lat="43.141306" lon="-4.950705">
        <ele>1051.391</ele>
        <time>2021-08-02T12:07:24Z</time>
      </trkpt>
      <trkpt lat="43.141315" lon="-4.950644">
        <ele>1050.034</ele>
        <time>2021-08-02T12:07:30Z</time>
      </trkpt>
      <trkpt lat="43.141279" lon="-4.950592">
        <ele>1049.555</ele>
        <time>2021-08-02T12:07:36Z</time>
      </trkpt>
      <trkpt lat="43.141235" lon="-4.950568">
        <ele>1049.410</ele>
        <time>2021-08-02T12:07:41Z</time>
      </trkpt>
      <trkpt lat="43.141194" lon="-4.950533">
        <ele>1048.708</ele>
        <time>2021-08-02T12:07:50Z</time>
      </trkpt>
      <trkpt lat="43.141167" lon="-4.95048">
        <ele>1049.170</ele>
        <time>2021-08-02T12:08:48Z</time>
      </trkpt>
      <trkpt lat="43.141149" lon="-4.950417">
        <ele>1049.142</ele>
        <time>2021-08-02T12:08:52Z</time>
      </trkpt>
      <trkpt lat="43.141135" lon="-4.950347">
        <ele>1048.421</ele>
        <time>2021-08-02T12:08:56Z</time>
      </trkpt>
      <trkpt lat="43.141111" lon="-4.950291">
        <ele>1047.479</ele>
        <time>2021-08-02T12:09:00Z</time>
      </trkpt>
      <trkpt lat="43.141082" lon="-4.950239">
        <ele>1047.199</ele>
        <time>2021-08-02T12:09:04Z</time>
      </trkpt>
      <trkpt lat="43.141073" lon="-4.950179">
        <ele>1046.597</ele>
        <time>2021-08-02T12:09:09Z</time>
      </trkpt>
      <trkpt lat="43.141093" lon="-4.950121">
        <ele>1045.380</ele>
        <time>2021-08-02T12:09:16Z</time>
      </trkpt>
      <trkpt lat="43.141114" lon="-4.950052">
        <ele>1044.678</ele>
        <time>2021-08-02T12:09:23Z</time>
      </trkpt>
      <trkpt lat="43.14113" lon="-4.949993">
        <ele>1044.083</ele>
        <time>2021-08-02T12:09:33Z</time>
      </trkpt>
      <trkpt lat="43.141141" lon="-4.949924">
        <ele>1042.925</ele>
        <time>2021-08-02T12:09:37Z</time>
      </trkpt>
      <trkpt lat="43.141154" lon="-4.949861">
        <ele>1042.917</ele>
        <time>2021-08-02T12:09:41Z</time>
      </trkpt>
      <trkpt lat="43.14118" lon="-4.949804">
        <ele>1042.508</ele>
        <time>2021-08-02T12:09:45Z</time>
      </trkpt>
      <trkpt lat="43.141208" lon="-4.949746">
        <ele>1042.375</ele>
        <time>2021-08-02T12:09:48Z</time>
      </trkpt>
      <trkpt lat="43.14124" lon="-4.949696">
        <ele>1041.497</ele>
        <time>2021-08-02T12:09:53Z</time>
      </trkpt>
      <trkpt lat="43.141266" lon="-4.949644">
        <ele>1040.316</ele>
        <time>2021-08-02T12:09:56Z</time>
      </trkpt>
      <trkpt lat="43.141291" lon="-4.949588">
        <ele>1040.044</ele>
        <time>2021-08-02T12:10:00Z</time>
      </trkpt>
      <trkpt lat="43.141316" lon="-4.949536">
        <ele>1040.544</ele>
        <time>2021-08-02T12:10:04Z</time>
      </trkpt>
      <trkpt lat="43.141355" lon="-4.94948">
        <ele>1039.692</ele>
        <time>2021-08-02T12:10:09Z</time>
      </trkpt>
      <trkpt lat="43.141393" lon="-4.949428">
        <ele>1040.345</ele>
        <time>2021-08-02T12:10:14Z</time>
      </trkpt>
      <trkpt lat="43.141419" lon="-4.949377">
        <ele>1039.873</ele>
        <time>2021-08-02T12:10:18Z</time>
      </trkpt>
      <trkpt lat="43.141451" lon="-4.949324">
        <ele>1039.939</ele>
        <time>2021-08-02T12:10:24Z</time>
      </trkpt>
      <trkpt lat="43.141482" lon="-4.949277">
        <ele>1038.501</ele>
        <time>2021-08-02T12:10:28Z</time>
      </trkpt>
      <trkpt lat="43.141522" lon="-4.949245">
        <ele>1038.521</ele>
        <time>2021-08-02T12:10:32Z</time>
      </trkpt>
      <trkpt lat="43.141566" lon="-4.949216">
        <ele>1038.008</ele>
        <time>2021-08-02T12:10:35Z</time>
      </trkpt>
      <trkpt lat="43.141602" lon="-4.949176">
        <ele>1037.910</ele>
        <time>2021-08-02T12:10:39Z</time>
      </trkpt>
      <trkpt lat="43.14164" lon="-4.949139">
        <ele>1038.132</ele>
        <time>2021-08-02T12:10:43Z</time>
      </trkpt>
      <trkpt lat="43.141681" lon="-4.949099">
        <ele>1038.431</ele>
        <time>2021-08-02T12:10:47Z</time>
      </trkpt>
      <trkpt lat="43.141715" lon="-4.949057">
        <ele>1038.329</ele>
        <time>2021-08-02T12:10:51Z</time>
      </trkpt>
      <trkpt lat="43.14174" lon="-4.949005">
        <ele>1038.339</ele>
        <time>2021-08-02T12:10:54Z</time>
      </trkpt>
      <trkpt lat="43.141767" lon="-4.948952">
        <ele>1038.417</ele>
        <time>2021-08-02T12:10:58Z</time>
      </trkpt>
      <trkpt lat="43.141798" lon="-4.948895">
        <ele>1038.050</ele>
        <time>2021-08-02T12:11:02Z</time>
      </trkpt>
      <trkpt lat="43.141827" lon="-4.948842">
        <ele>1038.378</ele>
        <time>2021-08-02T12:11:05Z</time>
      </trkpt>
      <trkpt lat="43.141851" lon="-4.948784">
        <ele>1038.154</ele>
        <time>2021-08-02T12:11:09Z</time>
      </trkpt>
      <trkpt lat="43.141879" lon="-4.948725">
        <ele>1037.256</ele>
        <time>2021-08-02T12:11:13Z</time>
      </trkpt>
      <trkpt lat="43.141901" lon="-4.948661">
        <ele>1037.611</ele>
        <time>2021-08-02T12:11:17Z</time>
      </trkpt>
      <trkpt lat="43.141927" lon="-4.948585">
        <ele>1038.008</ele>
        <time>2021-08-02T12:11:22Z</time>
      </trkpt>
      <trkpt lat="43.141953" lon="-4.948525">
        <ele>1038.032</ele>
        <time>2021-08-02T12:11:27Z</time>
      </trkpt>
      <trkpt lat="43.141978" lon="-4.948473">
        <ele>1037.664</ele>
        <time>2021-08-02T12:11:32Z</time>
      </trkpt>
      <trkpt lat="43.142005" lon="-4.948416">
        <ele>1037.543</ele>
        <time>2021-08-02T12:11:36Z</time>
      </trkpt>
      <trkpt lat="43.142039" lon="-4.948363">
        <ele>1038.391</ele>
        <time>2021-08-02T12:11:41Z</time>
      </trkpt>
      <trkpt lat="43.142061" lon="-4.9483">
        <ele>1037.831</ele>
        <time>2021-08-02T12:11:45Z</time>
      </trkpt>
      <trkpt lat="43.142077" lon="-4.948239">
        <ele>1038.439</ele>
        <time>2021-08-02T12:11:49Z</time>
      </trkpt>
      <trkpt lat="43.142087" lon="-4.948174">
        <ele>1038.692</ele>
        <time>2021-08-02T12:11:54Z</time>
      </trkpt>
      <trkpt lat="43.142093" lon="-4.948104">
        <ele>1038.060</ele>
        <time>2021-08-02T12:11:58Z</time>
      </trkpt>
      <trkpt lat="43.142117" lon="-4.948043">
        <ele>1038.388</ele>
        <time>2021-08-02T12:12:03Z</time>
      </trkpt>
      <trkpt lat="43.142143" lon="-4.94799">
        <ele>1038.424</ele>
        <time>2021-08-02T12:12:07Z</time>
      </trkpt>
      <trkpt lat="43.14217" lon="-4.94794">
        <ele>1038.726</ele>
        <time>2021-08-02T12:12:11Z</time>
      </trkpt>
      <trkpt lat="43.142196" lon="-4.947886">
        <ele>1038.708</ele>
        <time>2021-08-02T12:12:15Z</time>
      </trkpt>
      <trkpt lat="43.142235" lon="-4.947831">
        <ele>1038.885</ele>
        <time>2021-08-02T12:12:19Z</time>
      </trkpt>
      <trkpt lat="43.142255" lon="-4.947776">
        <ele>1038.517</ele>
        <time>2021-08-02T12:12:25Z</time>
      </trkpt>
      <trkpt lat="43.142269" lon="-4.947711">
        <ele>1038.436</ele>
        <time>2021-08-02T12:12:29Z</time>
      </trkpt>
      <trkpt lat="43.142271" lon="-4.947637">
        <ele>1038.774</ele>
        <time>2021-08-02T12:12:34Z</time>
      </trkpt>
      <trkpt lat="43.142255" lon="-4.947554">
        <ele>1038.924</ele>
        <time>2021-08-02T12:12:39Z</time>
      </trkpt>
      <trkpt lat="43.142253" lon="-4.94749">
        <ele>1038.912</ele>
        <time>2021-08-02T12:12:43Z</time>
      </trkpt>
      <trkpt lat="43.142257" lon="-4.947426">
        <ele>1038.745</ele>
        <time>2021-08-02T12:12:47Z</time>
      </trkpt>
      <trkpt lat="43.142258" lon="-4.94736">
        <ele>1038.313</ele>
        <time>2021-08-02T12:12:51Z</time>
      </trkpt>
      <trkpt lat="43.142255" lon="-4.94729">
        <ele>1038.894</ele>
        <time>2021-08-02T12:12:56Z</time>
      </trkpt>
      <trkpt lat="43.142255" lon="-4.947225">
        <ele>1038.957</ele>
        <time>2021-08-02T12:12:59Z</time>
      </trkpt>
      <trkpt lat="43.142256" lon="-4.947159">
        <ele>1038.922</ele>
        <time>2021-08-02T12:13:03Z</time>
      </trkpt>
      <trkpt lat="43.142252" lon="-4.947087">
        <ele>1038.908</ele>
        <time>2021-08-02T12:13:07Z</time>
      </trkpt>
      <trkpt lat="43.142234" lon="-4.947025">
        <ele>1038.316</ele>
        <time>2021-08-02T12:13:16Z</time>
      </trkpt>
      <trkpt lat="43.142254" lon="-4.946964">
        <ele>1038.198</ele>
        <time>2021-08-02T12:13:19Z</time>
      </trkpt>
      <trkpt lat="43.142269" lon="-4.946899">
        <ele>1037.917</ele>
        <time>2021-08-02T12:13:23Z</time>
      </trkpt>
      <trkpt lat="43.142272" lon="-4.946832">
        <ele>1037.775</ele>
        <time>2021-08-02T12:13:27Z</time>
      </trkpt>
      <trkpt lat="43.142258" lon="-4.946771">
        <ele>1037.855</ele>
        <time>2021-08-02T12:13:31Z</time>
      </trkpt>
      <trkpt lat="43.142224" lon="-4.946718">
        <ele>1038.133</ele>
        <time>2021-08-02T12:13:34Z</time>
      </trkpt>
      <trkpt lat="43.142197" lon="-4.94665">
        <ele>1037.766</ele>
        <time>2021-08-02T12:13:38Z</time>
      </trkpt>
      <trkpt lat="43.142185" lon="-4.946572">
        <ele>1037.544</ele>
        <time>2021-08-02T12:13:43Z</time>
      </trkpt>
      <trkpt lat="43.14217" lon="-4.946508">
        <ele>1036.888</ele>
        <time>2021-08-02T12:13:48Z</time>
      </trkpt>
      <trkpt lat="43.142163" lon="-4.946446">
        <ele>1037.124</ele>
        <time>2021-08-02T12:13:51Z</time>
      </trkpt>
      <trkpt lat="43.142166" lon="-4.946379">
        <ele>1037.026</ele>
        <time>2021-08-02T12:13:55Z</time>
      </trkpt>
      <trkpt lat="43.142192" lon="-4.946317">
        <ele>1036.508</ele>
        <time>2021-08-02T12:13:59Z</time>
      </trkpt>
      <trkpt lat="43.142225" lon="-4.946273">
        <ele>1035.855</ele>
        <time>2021-08-02T12:14:03Z</time>
      </trkpt>
      <trkpt lat="43.142259" lon="-4.946229">
        <ele>1035.017</ele>
        <time>2021-08-02T12:14:07Z</time>
      </trkpt>
      <trkpt lat="43.142266" lon="-4.946162">
        <ele>1034.836</ele>
        <time>2021-08-02T12:14:12Z</time>
      </trkpt>
      <trkpt lat="43.142288" lon="-4.946099">
        <ele>1034.474</ele>
        <time>2021-08-02T12:14:16Z</time>
      </trkpt>
      <trkpt lat="43.142308" lon="-4.946033">
        <ele>1033.994</ele>
        <time>2021-08-02T12:14:21Z</time>
      </trkpt>
      <trkpt lat="43.142329" lon="-4.945972">
        <ele>1033.222</ele>
        <time>2021-08-02T12:14:24Z</time>
      </trkpt>
      <trkpt lat="43.142362" lon="-4.94592">
        <ele>1032.645</ele>
        <time>2021-08-02T12:14:29Z</time>
      </trkpt>
      <trkpt lat="43.142377" lon="-4.945856">
        <ele>1032.073</ele>
        <time>2021-08-02T12:14:33Z</time>
      </trkpt>
      <trkpt lat="43.142382" lon="-4.945794">
        <ele>1031.811</ele>
        <time>2021-08-02T12:14:37Z</time>
      </trkpt>
      <trkpt lat="43.142374" lon="-4.945718">
        <ele>1031.421</ele>
        <time>2021-08-02T12:14:41Z</time>
      </trkpt>
      <trkpt lat="43.142362" lon="-4.945653">
        <ele>1031.203</ele>
        <time>2021-08-02T12:14:45Z</time>
      </trkpt>
      <trkpt lat="43.142362" lon="-4.945583">
        <ele>1031.008</ele>
        <time>2021-08-02T12:14:49Z</time>
      </trkpt>
      <trkpt lat="43.142357" lon="-4.945518">
        <ele>1030.568</ele>
        <time>2021-08-02T12:14:52Z</time>
      </trkpt>
      <trkpt lat="43.142367" lon="-4.94544">
        <ele>1030.370</ele>
        <time>2021-08-02T12:14:58Z</time>
      </trkpt>
      <trkpt lat="43.142388" lon="-4.945382">
        <ele>1029.979</ele>
        <time>2021-08-02T12:15:01Z</time>
      </trkpt>
      <trkpt lat="43.142418" lon="-4.945327">
        <ele>1029.337</ele>
        <time>2021-08-02T12:15:05Z</time>
      </trkpt>
      <trkpt lat="43.142447" lon="-4.945274">
        <ele>1029.167</ele>
        <time>2021-08-02T12:15:09Z</time>
      </trkpt>
      <trkpt lat="43.142481" lon="-4.945217">
        <ele>1028.895</ele>
        <time>2021-08-02T12:15:13Z</time>
      </trkpt>
      <trkpt lat="43.142522" lon="-4.945179">
        <ele>1028.018</ele>
        <time>2021-08-02T12:15:17Z</time>
      </trkpt>
      <trkpt lat="43.142561" lon="-4.945133">
        <ele>1026.926</ele>
        <time>2021-08-02T12:15:22Z</time>
      </trkpt>
      <trkpt lat="43.142529" lon="-4.945088">
        <ele>1026.718</ele>
        <time>2021-08-02T12:15:27Z</time>
      </trkpt>
      <trkpt lat="43.142574" lon="-4.945106">
        <ele>1026.098</ele>
        <time>2021-08-02T12:15:50Z</time>
      </trkpt>
      <trkpt lat="43.142624" lon="-4.945123">
        <ele>1024.917</ele>
        <time>2021-08-02T12:15:54Z</time>
      </trkpt>
      <trkpt lat="43.142671" lon="-4.945134">
        <ele>1024.208</ele>
        <time>2021-08-02T12:15:58Z</time>
      </trkpt>
      <trkpt lat="43.142718" lon="-4.945128">
        <ele>1023.838</ele>
        <time>2021-08-02T12:16:02Z</time>
      </trkpt>
      <trkpt lat="43.142769" lon="-4.945108">
        <ele>1023.430</ele>
        <time>2021-08-02T12:16:06Z</time>
      </trkpt>
      <trkpt lat="43.142813" lon="-4.945072">
        <ele>1022.759</ele>
        <time>2021-08-02T12:16:10Z</time>
      </trkpt>
      <trkpt lat="43.142858" lon="-4.945035">
        <ele>1023.057</ele>
        <time>2021-08-02T12:16:14Z</time>
      </trkpt>
      <trkpt lat="43.142895" lon="-4.944986">
        <ele>1022.697</ele>
        <time>2021-08-02T12:16:18Z</time>
      </trkpt>
      <trkpt lat="43.14293" lon="-4.944924">
        <ele>1021.985</ele>
        <time>2021-08-02T12:16:21Z</time>
      </trkpt>
      <trkpt lat="43.14296" lon="-4.94487">
        <ele>1022.078</ele>
        <time>2021-08-02T12:16:25Z</time>
      </trkpt>
      <trkpt lat="43.142981" lon="-4.944806">
        <ele>1020.976</ele>
        <time>2021-08-02T12:16:29Z</time>
      </trkpt>
      <trkpt lat="43.142995" lon="-4.944745">
        <ele>1020.951</ele>
        <time>2021-08-02T12:16:32Z</time>
      </trkpt>
      <trkpt lat="43.143005" lon="-4.944678">
        <ele>1020.701</ele>
        <time>2021-08-02T12:16:36Z</time>
      </trkpt>
      <trkpt lat="43.143027" lon="-4.944616">
        <ele>1020.611</ele>
        <time>2021-08-02T12:16:39Z</time>
      </trkpt>
      <trkpt lat="43.143047" lon="-4.944552">
        <ele>1020.808</ele>
        <time>2021-08-02T12:16:43Z</time>
      </trkpt>
      <trkpt lat="43.143059" lon="-4.944486">
        <ele>1020.452</ele>
        <time>2021-08-02T12:16:46Z</time>
      </trkpt>
      <trkpt lat="43.143076" lon="-4.944425">
        <ele>1020.024</ele>
        <time>2021-08-02T12:16:50Z</time>
      </trkpt>
      <trkpt lat="43.143108" lon="-4.94437">
        <ele>1019.673</ele>
        <time>2021-08-02T12:16:54Z</time>
      </trkpt>
      <trkpt lat="43.143133" lon="-4.944307">
        <ele>1019.551</ele>
        <time>2021-08-02T12:16:58Z</time>
      </trkpt>
      <trkpt lat="43.143157" lon="-4.944252">
        <ele>1019.411</ele>
        <time>2021-08-02T12:17:01Z</time>
      </trkpt>
      <trkpt lat="43.143177" lon="-4.944188">
        <ele>1019.269</ele>
        <time>2021-08-02T12:17:05Z</time>
      </trkpt>
      <trkpt lat="43.143196" lon="-4.944128">
        <ele>1018.912</ele>
        <time>2021-08-02T12:17:09Z</time>
      </trkpt>
      <trkpt lat="43.143216" lon="-4.944065">
        <ele>1018.430</ele>
        <time>2021-08-02T12:17:13Z</time>
      </trkpt>
      <trkpt lat="43.143243" lon="-4.944012">
        <ele>1018.487</ele>
        <time>2021-08-02T12:17:16Z</time>
      </trkpt>
      <trkpt lat="43.143254" lon="-4.94395">
        <ele>1018.442</ele>
        <time>2021-08-02T12:17:20Z</time>
      </trkpt>
      <trkpt lat="43.143249" lon="-4.943889">
        <ele>1018.226</ele>
        <time>2021-08-02T12:17:25Z</time>
      </trkpt>
      <trkpt lat="43.143241" lon="-4.94382">
        <ele>1018.408</ele>
        <time>2021-08-02T12:17:31Z</time>
      </trkpt>
      <trkpt lat="43.143242" lon="-4.943756">
        <ele>1017.945</ele>
        <time>2021-08-02T12:17:51Z</time>
      </trkpt>
      <trkpt lat="43.143263" lon="-4.943698">
        <ele>1017.757</ele>
        <time>2021-08-02T12:17:56Z</time>
      </trkpt>
      <trkpt lat="43.14329" lon="-4.943643">
        <ele>1017.376</ele>
        <time>2021-08-02T12:17:59Z</time>
      </trkpt>
      <trkpt lat="43.143308" lon="-4.943583">
        <ele>1017.074</ele>
        <time>2021-08-02T12:18:02Z</time>
      </trkpt>
      <trkpt lat="43.143324" lon="-4.943518">
        <ele>1016.444</ele>
        <time>2021-08-02T12:18:06Z</time>
      </trkpt>
      <trkpt lat="43.143335" lon="-4.943458">
        <ele>1015.382</ele>
        <time>2021-08-02T12:18:10Z</time>
      </trkpt>
      <trkpt lat="43.143332" lon="-4.943389">
        <ele>1015.565</ele>
        <time>2021-08-02T12:18:14Z</time>
      </trkpt>
      <trkpt lat="43.143327" lon="-4.94332">
        <ele>1015.733</ele>
        <time>2021-08-02T12:18:17Z</time>
      </trkpt>
      <trkpt lat="43.143325" lon="-4.943257">
        <ele>1015.987</ele>
        <time>2021-08-02T12:18:22Z</time>
      </trkpt>
      <trkpt lat="43.143318" lon="-4.943186">
        <ele>1015.442</ele>
        <time>2021-08-02T12:18:25Z</time>
      </trkpt>
      <trkpt lat="43.143296" lon="-4.943122">
        <ele>1015.226</ele>
        <time>2021-08-02T12:18:28Z</time>
      </trkpt>
      <trkpt lat="43.143285" lon="-4.943061">
        <ele>1015.508</ele>
        <time>2021-08-02T12:18:32Z</time>
      </trkpt>
      <trkpt lat="43.14327" lon="-4.942996">
        <ele>1015.865</ele>
        <time>2021-08-02T12:18:36Z</time>
      </trkpt>
      <trkpt lat="43.143249" lon="-4.942934">
        <ele>1015.747</ele>
        <time>2021-08-02T12:18:40Z</time>
      </trkpt>
      <trkpt lat="43.143219" lon="-4.942877">
        <ele>1016.046</ele>
        <time>2021-08-02T12:18:43Z</time>
      </trkpt>
      <trkpt lat="43.143191" lon="-4.94281">
        <ele>1016.174</ele>
        <time>2021-08-02T12:18:48Z</time>
      </trkpt>
      <trkpt lat="43.143166" lon="-4.942753">
        <ele>1016.054</ele>
        <time>2021-08-02T12:18:53Z</time>
      </trkpt>
      <trkpt lat="43.143155" lon="-4.942671">
        <ele>1015.742</ele>
        <time>2021-08-02T12:18:58Z</time>
      </trkpt>
      <trkpt lat="43.14315" lon="-4.942589">
        <ele>1015.575</ele>
        <time>2021-08-02T12:19:03Z</time>
      </trkpt>
      <trkpt lat="43.143142" lon="-4.942524">
        <ele>1015.943</ele>
        <time>2021-08-02T12:19:08Z</time>
      </trkpt>
      <trkpt lat="43.143098" lon="-4.942488">
        <ele>1015.937</ele>
        <time>2021-08-02T12:19:13Z</time>
      </trkpt>
      <trkpt lat="43.143115" lon="-4.942411">
        <ele>1015.649</ele>
        <time>2021-08-02T12:19:18Z</time>
      </trkpt>
      <trkpt lat="43.143136" lon="-4.942348">
        <ele>1015.513</ele>
        <time>2021-08-02T12:19:23Z</time>
      </trkpt>
      <trkpt lat="43.143136" lon="-4.942283">
        <ele>1015.208</ele>
        <time>2021-08-02T12:19:35Z</time>
      </trkpt>
      <trkpt lat="43.143168" lon="-4.942239">
        <ele>1015.350</ele>
        <time>2021-08-02T12:19:38Z</time>
      </trkpt>
      <trkpt lat="43.143203" lon="-4.942192">
        <ele>1015.852</ele>
        <time>2021-08-02T12:19:43Z</time>
      </trkpt>
      <trkpt lat="43.143217" lon="-4.942129">
        <ele>1014.791</ele>
        <time>2021-08-02T12:19:50Z</time>
      </trkpt>
      <trkpt lat="43.143239" lon="-4.942071">
        <ele>1014.989</ele>
        <time>2021-08-02T12:19:55Z</time>
      </trkpt>
      <trkpt lat="43.143264" lon="-4.942017">
        <ele>1014.159</ele>
        <time>2021-08-02T12:19:59Z</time>
      </trkpt>
      <trkpt lat="43.143293" lon="-4.94196">
        <ele>1014.217</ele>
        <time>2021-08-02T12:20:04Z</time>
      </trkpt>
      <trkpt lat="43.143312" lon="-4.941902">
        <ele>1013.850</ele>
        <time>2021-08-02T12:20:08Z</time>
      </trkpt>
      <trkpt lat="43.143322" lon="-4.94184">
        <ele>1013.798</ele>
        <time>2021-08-02T12:20:11Z</time>
      </trkpt>
      <trkpt lat="43.143333" lon="-4.941778">
        <ele>1013.583</ele>
        <time>2021-08-02T12:20:15Z</time>
      </trkpt>
      <trkpt lat="43.143322" lon="-4.941713">
        <ele>1013.125</ele>
        <time>2021-08-02T12:20:19Z</time>
      </trkpt>
      <trkpt lat="43.143334" lon="-4.941642">
        <ele>1013.217</ele>
        <time>2021-08-02T12:20:24Z</time>
      </trkpt>
      <trkpt lat="43.143342" lon="-4.941578">
        <ele>1012.408</ele>
        <time>2021-08-02T12:20:29Z</time>
      </trkpt>
      <trkpt lat="43.143336" lon="-4.94151">
        <ele>1012.025</ele>
        <time>2021-08-02T12:20:34Z</time>
      </trkpt>
      <trkpt lat="43.143309" lon="-4.941453">
        <ele>1011.797</ele>
        <time>2021-08-02T12:20:38Z</time>
      </trkpt>
      <trkpt lat="43.143294" lon="-4.941394">
        <ele>1011.546</ele>
        <time>2021-08-02T12:20:41Z</time>
      </trkpt>
      <trkpt lat="43.143301" lon="-4.941324">
        <ele>1010.924</ele>
        <time>2021-08-02T12:20:46Z</time>
      </trkpt>
      <trkpt lat="43.143311" lon="-4.941261">
        <ele>1010.844</ele>
        <time>2021-08-02T12:20:50Z</time>
      </trkpt>
      <trkpt lat="43.143325" lon="-4.941201">
        <ele>1010.892</ele>
        <time>2021-08-02T12:20:54Z</time>
      </trkpt>
      <trkpt lat="43.143343" lon="-4.941138">
        <ele>1011.115</ele>
        <time>2021-08-02T12:20:58Z</time>
      </trkpt>
      <trkpt lat="43.143356" lon="-4.941075">
        <ele>1010.843</ele>
        <time>2021-08-02T12:21:02Z</time>
      </trkpt>
      <trkpt lat="43.143357" lon="-4.941">
        <ele>1010.535</ele>
        <time>2021-08-02T12:21:05Z</time>
      </trkpt>
      <trkpt lat="43.143369" lon="-4.940924">
        <ele>1011.186</ele>
        <time>2021-08-02T12:21:11Z</time>
      </trkpt>
      <trkpt lat="43.143384" lon="-4.940858">
        <ele>1010.714</ele>
        <time>2021-08-02T12:21:16Z</time>
      </trkpt>
      <trkpt lat="43.143394" lon="-4.940794">
        <ele>1010.808</ele>
        <time>2021-08-02T12:21:19Z</time>
      </trkpt>
      <trkpt lat="43.143406" lon="-4.940734">
        <ele>1009.490</ele>
        <time>2021-08-02T12:21:23Z</time>
      </trkpt>
      <trkpt lat="43.143415" lon="-4.940671">
        <ele>1009.182</ele>
        <time>2021-08-02T12:21:27Z</time>
      </trkpt>
      <trkpt lat="43.143432" lon="-4.940606">
        <ele>1009.381</ele>
        <time>2021-08-02T12:21:32Z</time>
      </trkpt>
      <trkpt lat="43.143449" lon="-4.940541">
        <ele>1009.129</ele>
        <time>2021-08-02T12:21:36Z</time>
      </trkpt>
      <trkpt lat="43.143459" lon="-4.940471">
        <ele>1007.879</ele>
        <time>2021-08-02T12:21:41Z</time>
      </trkpt>
      <trkpt lat="43.14346" lon="-4.940408">
        <ele>1008.287</ele>
        <time>2021-08-02T12:21:44Z</time>
      </trkpt>
      <trkpt lat="43.143464" lon="-4.940344">
        <ele>1007.730</ele>
        <time>2021-08-02T12:21:49Z</time>
      </trkpt>
      <trkpt lat="43.143444" lon="-4.940285">
        <ele>1006.998</ele>
        <time>2021-08-02T12:21:54Z</time>
      </trkpt>
      <trkpt lat="43.143434" lon="-4.940222">
        <ele>1006.997</ele>
        <time>2021-08-02T12:21:57Z</time>
      </trkpt>
      <trkpt lat="43.143417" lon="-4.940161">
        <ele>1005.923</ele>
        <time>2021-08-02T12:22:02Z</time>
      </trkpt>
      <trkpt lat="43.143394" lon="-4.940105">
        <ele>1005.325</ele>
        <time>2021-08-02T12:22:07Z</time>
      </trkpt>
      <trkpt lat="43.143371" lon="-4.940049">
        <ele>1004.908</ele>
        <time>2021-08-02T12:22:12Z</time>
      </trkpt>
      <trkpt lat="43.143355" lon="-4.939989">
        <ele>1003.236</ele>
        <time>2021-08-02T12:22:17Z</time>
      </trkpt>
      <trkpt lat="43.143358" lon="-4.939921">
        <ele>1002.348</ele>
        <time>2021-08-02T12:22:24Z</time>
      </trkpt>
      <trkpt lat="43.143334" lon="-4.939864">
        <ele>1001.117</ele>
        <time>2021-08-02T12:22:28Z</time>
      </trkpt>
      <trkpt lat="43.143314" lon="-4.939809">
        <ele>1000.865</ele>
        <time>2021-08-02T12:22:33Z</time>
      </trkpt>
      <trkpt lat="43.143284" lon="-4.939758">
        <ele>1000.035</ele>
        <time>2021-08-02T12:22:36Z</time>
      </trkpt>
      <trkpt lat="43.14325" lon="-4.939713">
        <ele>999.183</ele>
        <time>2021-08-02T12:22:40Z</time>
      </trkpt>
      <trkpt lat="43.14322" lon="-4.939666">
        <ele>999.246</ele>
        <time>2021-08-02T12:22:45Z</time>
      </trkpt>
      <trkpt lat="43.143183" lon="-4.93962">
        <ele>999.054</ele>
        <time>2021-08-02T12:22:54Z</time>
      </trkpt>
      <trkpt lat="43.143141" lon="-4.939588">
        <ele>998.522</ele>
        <time>2021-08-02T12:22:58Z</time>
      </trkpt>
      <trkpt lat="43.143093" lon="-4.93957">
        <ele>998.162</ele>
        <time>2021-08-02T12:23:03Z</time>
      </trkpt>
      <trkpt lat="43.143058" lon="-4.939532">
        <ele>997.308</ele>
        <time>2021-08-02T12:23:06Z</time>
      </trkpt>
      <trkpt lat="43.14303" lon="-4.939476">
        <ele>997.508</ele>
        <time>2021-08-02T12:23:11Z</time>
      </trkpt>
      <trkpt lat="43.143012" lon="-4.939414">
        <ele>997.389</ele>
        <time>2021-08-02T12:23:30Z</time>
      </trkpt>
      <trkpt lat="43.14297" lon="-4.939377">
        <ele>996.651</ele>
        <time>2021-08-02T12:23:35Z</time>
      </trkpt>
      <trkpt lat="43.142925" lon="-4.939367">
        <ele>996.960</ele>
        <time>2021-08-02T12:23:38Z</time>
      </trkpt>
      <trkpt lat="43.142874" lon="-4.939395">
        <ele>996.428</ele>
        <time>2021-08-02T12:23:42Z</time>
      </trkpt>
      <trkpt lat="43.142831" lon="-4.939375">
        <ele>996.958</ele>
        <time>2021-08-02T12:23:46Z</time>
      </trkpt>
      <trkpt lat="43.142869" lon="-4.939337">
        <ele>996.996</ele>
        <time>2021-08-02T12:23:53Z</time>
      </trkpt>
      <trkpt lat="43.142916" lon="-4.939328">
        <ele>997.629</ele>
        <time>2021-08-02T12:23:59Z</time>
      </trkpt>
      <trkpt lat="43.142871" lon="-4.93932">
        <ele>999.057</ele>
        <time>2021-08-02T12:25:22Z</time>
      </trkpt>
      <trkpt lat="43.142921" lon="-4.939312">
        <ele>1000.927</ele>
        <time>2021-08-02T12:27:44Z</time>
      </trkpt>
      <trkpt lat="43.142967" lon="-4.939308">
        <ele>1002.268</ele>
        <time>2021-08-02T12:27:51Z</time>
      </trkpt>
      <trkpt lat="43.142925" lon="-4.939334">
        <ele>1002.714</ele>
        <time>2021-08-02T12:29:22Z</time>
      </trkpt>
      <trkpt lat="43.142879" lon="-4.939322">
        <ele>1002.108</ele>
        <time>2021-08-02T12:42:48Z</time>
      </trkpt>
      <trkpt lat="43.142835" lon="-4.939339">
        <ele>1002.169</ele>
        <time>2021-08-02T12:42:51Z</time>
      </trkpt>
      <trkpt lat="43.142815" lon="-4.939403">
        <ele>1002.491</ele>
        <time>2021-08-02T12:42:54Z</time>
      </trkpt>
      <trkpt lat="43.142858" lon="-4.939454">
        <ele>1003.150</ele>
        <time>2021-08-02T12:42:57Z</time>
      </trkpt>
      <trkpt lat="43.142899" lon="-4.939491">
        <ele>1002.668</ele>
        <time>2021-08-02T12:43:00Z</time>
      </trkpt>
      <trkpt lat="43.142948" lon="-4.939508">
        <ele>1003.218</ele>
        <time>2021-08-02T12:43:08Z</time>
      </trkpt>
      <trkpt lat="43.142991" lon="-4.939532">
        <ele>1003.496</ele>
        <time>2021-08-02T12:43:11Z</time>
      </trkpt>
      <trkpt lat="43.143034" lon="-4.93956">
        <ele>1003.279</ele>
        <time>2021-08-02T12:43:16Z</time>
      </trkpt>
      <trkpt lat="43.14308" lon="-4.939594">
        <ele>1002.937</ele>
        <time>2021-08-02T12:43:19Z</time>
      </trkpt>
      <trkpt lat="43.143118" lon="-4.939639">
        <ele>1002.996</ele>
        <time>2021-08-02T12:43:22Z</time>
      </trkpt>
      <trkpt lat="43.143156" lon="-4.939683">
        <ele>1002.731</ele>
        <time>2021-08-02T12:43:31Z</time>
      </trkpt>
      <trkpt lat="43.143199" lon="-4.939714">
        <ele>1001.824</ele>
        <time>2021-08-02T12:43:35Z</time>
      </trkpt>
      <trkpt lat="43.143236" lon="-4.93975">
        <ele>1001.508</ele>
        <time>2021-08-02T12:43:39Z</time>
      </trkpt>
      <trkpt lat="43.14328" lon="-4.939778">
        <ele>1001.086</ele>
        <time>2021-08-02T12:43:44Z</time>
      </trkpt>
      <trkpt lat="43.143323" lon="-4.939814">
        <ele>1000.418</ele>
        <time>2021-08-02T12:43:48Z</time>
      </trkpt>
      <trkpt lat="43.143365" lon="-4.939841">
        <ele>999.657</ele>
        <time>2021-08-02T12:43:53Z</time>
      </trkpt>
      <trkpt lat="43.143402" lon="-4.939804">
        <ele>999.225</ele>
        <time>2021-08-02T12:43:58Z</time>
      </trkpt>
      <trkpt lat="43.143408" lon="-4.939741">
        <ele>998.165</ele>
        <time>2021-08-02T12:44:02Z</time>
      </trkpt>
      <trkpt lat="43.143417" lon="-4.939677">
        <ele>997.933</ele>
        <time>2021-08-02T12:44:07Z</time>
      </trkpt>
      <trkpt lat="43.143415" lon="-4.939612">
        <ele>997.976</ele>
        <time>2021-08-02T12:44:15Z</time>
      </trkpt>
      <trkpt lat="43.143399" lon="-4.939553">
        <ele>997.564</ele>
        <time>2021-08-02T12:44:20Z</time>
      </trkpt>
      <trkpt lat="43.143395" lon="-4.939487">
        <ele>997.648</ele>
        <time>2021-08-02T12:44:26Z</time>
      </trkpt>
      <trkpt lat="43.143389" lon="-4.93942">
        <ele>997.961</ele>
        <time>2021-08-02T12:44:31Z</time>
      </trkpt>
      <trkpt lat="43.143385" lon="-4.939356">
        <ele>997.717</ele>
        <time>2021-08-02T12:44:36Z</time>
      </trkpt>
      <trkpt lat="43.143405" lon="-4.939299">
        <ele>998.008</ele>
        <time>2021-08-02T12:44:41Z</time>
      </trkpt>
      <trkpt lat="43.143433" lon="-4.939249">
        <ele>998.191</ele>
        <time>2021-08-02T12:44:45Z</time>
      </trkpt>
      <trkpt lat="43.143457" lon="-4.939195">
        <ele>997.813</ele>
        <time>2021-08-02T12:44:49Z</time>
      </trkpt>
      <trkpt lat="43.143478" lon="-4.939131">
        <ele>998.352</ele>
        <time>2021-08-02T12:44:53Z</time>
      </trkpt>
      <trkpt lat="43.143495" lon="-4.939068">
        <ele>998.730</ele>
        <time>2021-08-02T12:44:57Z</time>
      </trkpt>
      <trkpt lat="43.143499" lon="-4.939001">
        <ele>999.020</ele>
        <time>2021-08-02T12:45:01Z</time>
      </trkpt>
      <trkpt lat="43.143502" lon="-4.938937">
        <ele>998.638</ele>
        <time>2021-08-02T12:45:06Z</time>
      </trkpt>
      <trkpt lat="43.143522" lon="-4.938869">
        <ele>999.151</ele>
        <time>2021-08-02T12:45:10Z</time>
      </trkpt>
      <trkpt lat="43.14354" lon="-4.938806">
        <ele>999.389</ele>
        <time>2021-08-02T12:45:14Z</time>
      </trkpt>
      <trkpt lat="43.143552" lon="-4.938734">
        <ele>999.321</ele>
        <time>2021-08-02T12:45:18Z</time>
      </trkpt>
      <trkpt lat="43.143566" lon="-4.93867">
        <ele>999.341</ele>
        <time>2021-08-02T12:45:22Z</time>
      </trkpt>
      <trkpt lat="43.143578" lon="-4.938607">
        <ele>999.805</ele>
        <time>2021-08-02T12:45:27Z</time>
      </trkpt>
      <trkpt lat="43.143593" lon="-4.938545">
        <ele>999.708</ele>
        <time>2021-08-02T12:45:32Z</time>
      </trkpt>
      <trkpt lat="43.143596" lon="-4.938481">
        <ele>999.619</ele>
        <time>2021-08-02T12:45:37Z</time>
      </trkpt>
      <trkpt lat="43.143613" lon="-4.93842">
        <ele>999.551</ele>
        <time>2021-08-02T12:45:41Z</time>
      </trkpt>
      <trkpt lat="43.143625" lon="-4.93836">
        <ele>999.580</ele>
        <time>2021-08-02T12:45:45Z</time>
      </trkpt>
      <trkpt lat="43.143636" lon="-4.938296">
        <ele>999.718</ele>
        <time>2021-08-02T12:45:50Z</time>
      </trkpt>
      <trkpt lat="43.143655" lon="-4.938234">
        <ele>999.818</ele>
        <time>2021-08-02T12:45:54Z</time>
      </trkpt>
      <trkpt lat="43.143688" lon="-4.938186">
        <ele>999.776</ele>
        <time>2021-08-02T12:45:59Z</time>
      </trkpt>
      <trkpt lat="43.143713" lon="-4.938127">
        <ele>999.379</ele>
        <time>2021-08-02T12:46:04Z</time>
      </trkpt>
      <trkpt lat="43.143746" lon="-4.938085">
        <ele>999.517</ele>
        <time>2021-08-02T12:46:10Z</time>
      </trkpt>
      <trkpt lat="43.143776" lon="-4.938032">
        <ele>999.236</ele>
        <time>2021-08-02T12:46:14Z</time>
      </trkpt>
      <trkpt lat="43.143805" lon="-4.937974">
        <ele>998.917</ele>
        <time>2021-08-02T12:46:29Z</time>
      </trkpt>
      <trkpt lat="43.143825" lon="-4.937916">
        <ele>998.818</ele>
        <time>2021-08-02T12:46:33Z</time>
      </trkpt>
      <trkpt lat="43.143849" lon="-4.937857">
        <ele>997.508</ele>
        <time>2021-08-02T12:46:37Z</time>
      </trkpt>
      <trkpt lat="43.143863" lon="-4.937795">
        <ele>997.110</ele>
        <time>2021-08-02T12:46:41Z</time>
      </trkpt>
      <trkpt lat="43.143884" lon="-4.937739">
        <ele>997.442</ele>
        <time>2021-08-02T12:46:52Z</time>
      </trkpt>
      <trkpt lat="43.143921" lon="-4.937698">
        <ele>996.521</ele>
        <time>2021-08-02T12:46:56Z</time>
      </trkpt>
      <trkpt lat="43.14395" lon="-4.937648">
        <ele>996.289</ele>
        <time>2021-08-02T12:47:00Z</time>
      </trkpt>
      <trkpt lat="43.14397" lon="-4.937587">
        <ele>996.439</ele>
        <time>2021-08-02T12:47:04Z</time>
      </trkpt>
      <trkpt lat="43.143986" lon="-4.937527">
        <ele>996.447</ele>
        <time>2021-08-02T12:47:08Z</time>
      </trkpt>
      <trkpt lat="43.143998" lon="-4.937466">
        <ele>996.020</ele>
        <time>2021-08-02T12:47:11Z</time>
      </trkpt>
      <trkpt lat="43.144014" lon="-4.9374">
        <ele>995.488</ele>
        <time>2021-08-02T12:47:17Z</time>
      </trkpt>
      <trkpt lat="43.144011" lon="-4.937335">
        <ele>995.376</ele>
        <time>2021-08-02T12:47:23Z</time>
      </trkpt>
      <trkpt lat="43.143998" lon="-4.937273">
        <ele>995.190</ele>
        <time>2021-08-02T12:47:29Z</time>
      </trkpt>
      <trkpt lat="43.144" lon="-4.937206">
        <ele>994.819</ele>
        <time>2021-08-02T12:47:36Z</time>
      </trkpt>
      <trkpt lat="43.144015" lon="-4.937148">
        <ele>994.808</ele>
        <time>2021-08-02T12:47:42Z</time>
      </trkpt>
      <trkpt lat="43.144027" lon="-4.937085">
        <ele>994.484</ele>
        <time>2021-08-02T12:47:48Z</time>
      </trkpt>
      <trkpt lat="43.144035" lon="-4.93702">
        <ele>995.036</ele>
        <time>2021-08-02T12:48:05Z</time>
      </trkpt>
      <trkpt lat="43.144062" lon="-4.936963">
        <ele>995.045</ele>
        <time>2021-08-02T12:48:10Z</time>
      </trkpt>
      <trkpt lat="43.144081" lon="-4.936905">
        <ele>995.293</ele>
        <time>2021-08-02T12:48:14Z</time>
      </trkpt>
      <trkpt lat="43.144091" lon="-4.936843">
        <ele>995.283</ele>
        <time>2021-08-02T12:48:18Z</time>
      </trkpt>
      <trkpt lat="43.14409" lon="-4.936775">
        <ele>995.121</ele>
        <time>2021-08-02T12:48:23Z</time>
      </trkpt>
      <trkpt lat="43.144082" lon="-4.936713">
        <ele>994.664</ele>
        <time>2021-08-02T12:48:28Z</time>
      </trkpt>
      <trkpt lat="43.144059" lon="-4.936649">
        <ele>995.172</ele>
        <time>2021-08-02T12:48:32Z</time>
      </trkpt>
      <trkpt lat="43.144073" lon="-4.93659">
        <ele>994.697</ele>
        <time>2021-08-02T12:48:44Z</time>
      </trkpt>
      <trkpt lat="43.144096" lon="-4.936529">
        <ele>994.623</ele>
        <time>2021-08-02T12:48:47Z</time>
      </trkpt>
      <trkpt lat="43.14411" lon="-4.936468">
        <ele>994.325</ele>
        <time>2021-08-02T12:48:51Z</time>
      </trkpt>
      <trkpt lat="43.144118" lon="-4.936404">
        <ele>994.808</ele>
        <time>2021-08-02T12:48:54Z</time>
      </trkpt>
      <trkpt lat="43.144134" lon="-4.936337">
        <ele>995.166</ele>
        <time>2021-08-02T12:48:58Z</time>
      </trkpt>
      <trkpt lat="43.144172" lon="-4.936278">
        <ele>994.958</ele>
        <time>2021-08-02T12:49:02Z</time>
      </trkpt>
      <trkpt lat="43.1442" lon="-4.93623">
        <ele>994.767</ele>
        <time>2021-08-02T12:49:06Z</time>
      </trkpt>
      <trkpt lat="43.144235" lon="-4.936181">
        <ele>994.225</ele>
        <time>2021-08-02T12:49:09Z</time>
      </trkpt>
      <trkpt lat="43.144252" lon="-4.936123">
        <ele>993.755</ele>
        <time>2021-08-02T12:49:13Z</time>
      </trkpt>
      <trkpt lat="43.144284" lon="-4.936078">
        <ele>994.133</ele>
        <time>2021-08-02T12:49:17Z</time>
      </trkpt>
      <trkpt lat="43.144315" lon="-4.936026">
        <ele>994.046</ele>
        <time>2021-08-02T12:49:22Z</time>
      </trkpt>
      <trkpt lat="43.144335" lon="-4.935969">
        <ele>994.344</ele>
        <time>2021-08-02T12:49:26Z</time>
      </trkpt>
      <trkpt lat="43.144351" lon="-4.93591">
        <ele>994.572</ele>
        <time>2021-08-02T12:49:30Z</time>
      </trkpt>
      <trkpt lat="43.144377" lon="-4.93585">
        <ele>994.113</ele>
        <time>2021-08-02T12:49:35Z</time>
      </trkpt>
      <trkpt lat="43.144396" lon="-4.935793">
        <ele>994.314</ele>
        <time>2021-08-02T12:49:39Z</time>
      </trkpt>
      <trkpt lat="43.144427" lon="-4.935746">
        <ele>994.508</ele>
        <time>2021-08-02T12:49:44Z</time>
      </trkpt>
      <trkpt lat="43.144452" lon="-4.935682">
        <ele>994.034</ele>
        <time>2021-08-02T12:49:48Z</time>
      </trkpt>
      <trkpt lat="43.144482" lon="-4.935625">
        <ele>993.796</ele>
        <time>2021-08-02T12:49:53Z</time>
      </trkpt>
      <trkpt lat="43.144502" lon="-4.935561">
        <ele>993.075</ele>
        <time>2021-08-02T12:49:59Z</time>
      </trkpt>
      <trkpt lat="43.14452" lon="-4.935495">
        <ele>992.943</ele>
        <time>2021-08-02T12:50:03Z</time>
      </trkpt>
      <trkpt lat="43.144533" lon="-4.93543">
        <ele>992.093</ele>
        <time>2021-08-02T12:50:08Z</time>
      </trkpt>
      <trkpt lat="43.14457" lon="-4.93538">
        <ele>991.291</ele>
        <time>2021-08-02T12:50:14Z</time>
      </trkpt>
      <trkpt lat="43.144583" lon="-4.93532">
        <ele>990.684</ele>
        <time>2021-08-02T12:50:20Z</time>
      </trkpt>
      <trkpt lat="43.144591" lon="-4.935258">
        <ele>989.982</ele>
        <time>2021-08-02T12:50:25Z</time>
      </trkpt>
      <trkpt lat="43.144619" lon="-4.935207">
        <ele>989.019</ele>
        <time>2021-08-02T12:50:36Z</time>
      </trkpt>
      <trkpt lat="43.144649" lon="-4.935152">
        <ele>988.909</ele>
        <time>2021-08-02T12:50:41Z</time>
      </trkpt>
      <trkpt lat="43.144673" lon="-4.935094">
        <ele>988.419</ele>
        <time>2021-08-02T12:50:45Z</time>
      </trkpt>
      <trkpt lat="43.144684" lon="-4.935032">
        <ele>988.708</ele>
        <time>2021-08-02T12:50:49Z</time>
      </trkpt>
      <trkpt lat="43.144702" lon="-4.934972">
        <ele>988.568</ele>
        <time>2021-08-02T12:50:54Z</time>
      </trkpt>
      <trkpt lat="43.144738" lon="-4.934919">
        <ele>987.770</ele>
        <time>2021-08-02T12:50:57Z</time>
      </trkpt>
      <trkpt lat="43.144769" lon="-4.934865">
        <ele>988.289</ele>
        <time>2021-08-02T12:51:02Z</time>
      </trkpt>
      <trkpt lat="43.144791" lon="-4.93481">
        <ele>988.257</ele>
        <time>2021-08-02T12:51:06Z</time>
      </trkpt>
      <trkpt lat="43.144811" lon="-4.934749">
        <ele>988.157</ele>
        <time>2021-08-02T12:51:10Z</time>
      </trkpt>
      <trkpt lat="43.144833" lon="-4.93469">
        <ele>987.825</ele>
        <time>2021-08-02T12:51:14Z</time>
      </trkpt>
      <trkpt lat="43.144858" lon="-4.934622">
        <ele>988.158</ele>
        <time>2021-08-02T12:51:19Z</time>
      </trkpt>
      <trkpt lat="43.144872" lon="-4.934561">
        <ele>988.696</ele>
        <time>2021-08-02T12:51:25Z</time>
      </trkpt>
      <trkpt lat="43.144886" lon="-4.934502">
        <ele>989.058</ele>
        <time>2021-08-02T12:51:30Z</time>
      </trkpt>
      <trkpt lat="43.144906" lon="-4.934443">
        <ele>989.152</ele>
        <time>2021-08-02T12:51:35Z</time>
      </trkpt>
      <trkpt lat="43.144942" lon="-4.934401">
        <ele>988.817</ele>
        <time>2021-08-02T12:51:40Z</time>
      </trkpt>
      <trkpt lat="43.144982" lon="-4.934363">
        <ele>988.808</ele>
        <time>2021-08-02T12:51:44Z</time>
      </trkpt>
      <trkpt lat="43.145007" lon="-4.934311">
        <ele>989.272</ele>
        <time>2021-08-02T12:51:48Z</time>
      </trkpt>
      <trkpt lat="43.145015" lon="-4.934248">
        <ele>989.424</ele>
        <time>2021-08-02T12:51:52Z</time>
      </trkpt>
      <trkpt lat="43.145013" lon="-4.934185">
        <ele>989.573</ele>
        <time>2021-08-02T12:51:58Z</time>
      </trkpt>
      <trkpt lat="43.14503" lon="-4.934126">
        <ele>990.231</ele>
        <time>2021-08-02T12:52:03Z</time>
      </trkpt>
      <trkpt lat="43.145061" lon="-4.934079">
        <ele>989.791</ele>
        <time>2021-08-02T12:52:08Z</time>
      </trkpt>
      <trkpt lat="43.145075" lon="-4.934014">
        <ele>989.749</ele>
        <time>2021-08-02T12:52:11Z</time>
      </trkpt>
      <trkpt lat="43.145077" lon="-4.933952">
        <ele>989.752</ele>
        <time>2021-08-02T12:52:17Z</time>
      </trkpt>
      <trkpt lat="43.145098" lon="-4.933889">
        <ele>989.350</ele>
        <time>2021-08-02T12:52:22Z</time>
      </trkpt>
      <trkpt lat="43.145114" lon="-4.933829">
        <ele>988.886</ele>
        <time>2021-08-02T12:52:28Z</time>
      </trkpt>
      <trkpt lat="43.14514" lon="-4.933772">
        <ele>988.060</ele>
        <time>2021-08-02T12:52:33Z</time>
      </trkpt>
      <trkpt lat="43.145172" lon="-4.933718">
        <ele>987.626</ele>
        <time>2021-08-02T12:52:37Z</time>
      </trkpt>
      <trkpt lat="43.145207" lon="-4.933672">
        <ele>987.508</ele>
        <time>2021-08-02T12:52:41Z</time>
      </trkpt>
      <trkpt lat="43.145241" lon="-4.933629">
        <ele>987.285</ele>
        <time>2021-08-02T12:52:45Z</time>
      </trkpt>
      <trkpt lat="43.145269" lon="-4.933576">
        <ele>986.647</ele>
        <time>2021-08-02T12:52:50Z</time>
      </trkpt>
      <trkpt lat="43.145305" lon="-4.93353">
        <ele>985.616</ele>
        <time>2021-08-02T12:52:55Z</time>
      </trkpt>
      <trkpt lat="43.145336" lon="-4.933472">
        <ele>985.184</ele>
        <time>2021-08-02T12:52:59Z</time>
      </trkpt>
      <trkpt lat="43.145375" lon="-4.933436">
        <ele>984.074</ele>
        <time>2021-08-02T12:53:23Z</time>
      </trkpt>
      <trkpt lat="43.145404" lon="-4.933384">
        <ele>983.482</ele>
        <time>2021-08-02T12:53:27Z</time>
      </trkpt>
      <trkpt lat="43.145439" lon="-4.933341">
        <ele>982.635</ele>
        <time>2021-08-02T12:53:31Z</time>
      </trkpt>
      <trkpt lat="43.145478" lon="-4.933297">
        <ele>981.573</ele>
        <time>2021-08-02T12:53:36Z</time>
      </trkpt>
      <trkpt lat="43.145521" lon="-4.933249">
        <ele>981.074</ele>
        <time>2021-08-02T12:53:41Z</time>
      </trkpt>
      <trkpt lat="43.145565" lon="-4.933206">
        <ele>980.756</ele>
        <time>2021-08-02T12:53:45Z</time>
      </trkpt>
      <trkpt lat="43.145593" lon="-4.933156">
        <ele>980.421</ele>
        <time>2021-08-02T12:53:48Z</time>
      </trkpt>
      <trkpt lat="43.145614" lon="-4.933096">
        <ele>980.008</ele>
        <time>2021-08-02T12:53:52Z</time>
      </trkpt>
      <trkpt lat="43.145599" lon="-4.933034">
        <ele>980.034</ele>
        <time>2021-08-02T12:53:57Z</time>
      </trkpt>
      <trkpt lat="43.145579" lon="-4.932969">
        <ele>979.426</ele>
        <time>2021-08-02T12:54:02Z</time>
      </trkpt>
      <trkpt lat="43.145546" lon="-4.932923">
        <ele>979.365</ele>
        <time>2021-08-02T12:54:07Z</time>
      </trkpt>
      <trkpt lat="43.145512" lon="-4.932874">
        <ele>978.883</ele>
        <time>2021-08-02T12:54:12Z</time>
      </trkpt>
      <trkpt lat="43.145521" lon="-4.93281">
        <ele>978.933</ele>
        <time>2021-08-02T12:54:28Z</time>
      </trkpt>
      <trkpt lat="43.145497" lon="-4.932749">
        <ele>978.421</ele>
        <time>2021-08-02T12:54:33Z</time>
      </trkpt>
      <trkpt lat="43.145468" lon="-4.932696">
        <ele>977.484</ele>
        <time>2021-08-02T12:54:37Z</time>
      </trkpt>
      <trkpt lat="43.145453" lon="-4.932637">
        <ele>977.872</ele>
        <time>2021-08-02T12:54:41Z</time>
      </trkpt>
      <trkpt lat="43.145444" lon="-4.932576">
        <ele>978.348</ele>
        <time>2021-08-02T12:54:45Z</time>
      </trkpt>
      <trkpt lat="43.14544" lon="-4.932514">
        <ele>977.861</ele>
        <time>2021-08-02T12:54:49Z</time>
      </trkpt>
      <trkpt lat="43.145433" lon="-4.932447">
        <ele>977.417</ele>
        <time>2021-08-02T12:54:53Z</time>
      </trkpt>
      <trkpt lat="43.145451" lon="-4.932386">
        <ele>977.208</ele>
        <time>2021-08-02T12:54:58Z</time>
      </trkpt>
      <trkpt lat="43.14546" lon="-4.932323">
        <ele>977.111</ele>
        <time>2021-08-02T12:55:02Z</time>
      </trkpt>
      <trkpt lat="43.145478" lon="-4.932265">
        <ele>977.223</ele>
        <time>2021-08-02T12:55:06Z</time>
      </trkpt>
      <trkpt lat="43.145501" lon="-4.932208">
        <ele>977.692</ele>
        <time>2021-08-02T12:55:11Z</time>
      </trkpt>
      <trkpt lat="43.145536" lon="-4.932158">
        <ele>977.540</ele>
        <time>2021-08-02T12:55:16Z</time>
      </trkpt>
      <trkpt lat="43.14557" lon="-4.932105">
        <ele>977.280</ele>
        <time>2021-08-02T12:55:20Z</time>
      </trkpt>
      <trkpt lat="43.145589" lon="-4.932048">
        <ele>977.568</ele>
        <time>2021-08-02T12:55:24Z</time>
      </trkpt>
      <trkpt lat="43.145605" lon="-4.931988">
        <ele>977.561</ele>
        <time>2021-08-02T12:55:29Z</time>
      </trkpt>
      <trkpt lat="43.145634" lon="-4.931941">
        <ele>977.779</ele>
        <time>2021-08-02T12:55:33Z</time>
      </trkpt>
      <trkpt lat="43.145671" lon="-4.931895">
        <ele>977.339</ele>
        <time>2021-08-02T12:55:36Z</time>
      </trkpt>
      <trkpt lat="43.145712" lon="-4.93185">
        <ele>976.901</ele>
        <time>2021-08-02T12:55:41Z</time>
      </trkpt>
      <trkpt lat="43.14575" lon="-4.931804">
        <ele>976.321</ele>
        <time>2021-08-02T12:55:47Z</time>
      </trkpt>
      <trkpt lat="43.145784" lon="-4.931757">
        <ele>976.408</ele>
        <time>2021-08-02T12:55:51Z</time>
      </trkpt>
      <trkpt lat="43.145815" lon="-4.931703">
        <ele>976.710</ele>
        <time>2021-08-02T12:55:55Z</time>
      </trkpt>
      <trkpt lat="43.145852" lon="-4.931658">
        <ele>976.852</ele>
        <time>2021-08-02T12:55:59Z</time>
      </trkpt>
      <trkpt lat="43.145898" lon="-4.931644">
        <ele>976.781</ele>
        <time>2021-08-02T12:56:03Z</time>
      </trkpt>
      <trkpt lat="43.145943" lon="-4.931625">
        <ele>976.299</ele>
        <time>2021-08-02T12:56:07Z</time>
      </trkpt>
      <trkpt lat="43.145984" lon="-4.931589">
        <ele>975.189</ele>
        <time>2021-08-02T12:56:11Z</time>
      </trkpt>
      <trkpt lat="43.146016" lon="-4.931539">
        <ele>975.987</ele>
        <time>2021-08-02T12:56:14Z</time>
      </trkpt>
      <trkpt lat="43.146045" lon="-4.931485">
        <ele>975.280</ele>
        <time>2021-08-02T12:56:18Z</time>
      </trkpt>
      <trkpt lat="43.146089" lon="-4.931439">
        <ele>974.838</ele>
        <time>2021-08-02T12:56:23Z</time>
      </trkpt>
      <trkpt lat="43.146125" lon="-4.931387">
        <ele>973.999</ele>
        <time>2021-08-02T12:56:28Z</time>
      </trkpt>
      <trkpt lat="43.146153" lon="-4.931333">
        <ele>973.707</ele>
        <time>2021-08-02T12:56:33Z</time>
      </trkpt>
      <trkpt lat="43.146193" lon="-4.931302">
        <ele>973.027</ele>
        <time>2021-08-02T12:56:38Z</time>
      </trkpt>
      <trkpt lat="43.146235" lon="-4.931269">
        <ele>973.008</ele>
        <time>2021-08-02T12:56:43Z</time>
      </trkpt>
      <trkpt lat="43.146262" lon="-4.931209">
        <ele>973.376</ele>
        <time>2021-08-02T12:56:58Z</time>
      </trkpt>
      <trkpt lat="43.146296" lon="-4.931169">
        <ele>972.968</ele>
        <time>2021-08-02T12:57:04Z</time>
      </trkpt>
      <trkpt lat="43.146327" lon="-4.931111">
        <ele>973.457</ele>
        <time>2021-08-02T12:57:09Z</time>
      </trkpt>
      <trkpt lat="43.146361" lon="-4.931059">
        <ele>973.875</ele>
        <time>2021-08-02T12:57:14Z</time>
      </trkpt>
      <trkpt lat="43.146394" lon="-4.931013">
        <ele>973.895</ele>
        <time>2021-08-02T12:57:18Z</time>
      </trkpt>
      <trkpt lat="43.146421" lon="-4.930956">
        <ele>973.573</ele>
        <time>2021-08-02T12:57:22Z</time>
      </trkpt>
      <trkpt lat="43.146447" lon="-4.930901">
        <ele>972.576</ele>
        <time>2021-08-02T12:57:25Z</time>
      </trkpt>
      <trkpt lat="43.146477" lon="-4.930854">
        <ele>972.664</ele>
        <time>2021-08-02T12:57:30Z</time>
      </trkpt>
      <trkpt lat="43.146503" lon="-4.9308">
        <ele>972.715</ele>
        <time>2021-08-02T12:57:36Z</time>
      </trkpt>
      <trkpt lat="43.146537" lon="-4.930751">
        <ele>971.965</ele>
        <time>2021-08-02T12:57:41Z</time>
      </trkpt>
      <trkpt lat="43.146573" lon="-4.930696">
        <ele>971.511</ele>
        <time>2021-08-02T12:57:45Z</time>
      </trkpt>
      <trkpt lat="43.146605" lon="-4.930644">
        <ele>971.208</ele>
        <time>2021-08-02T12:57:50Z</time>
      </trkpt>
      <trkpt lat="43.146649" lon="-4.930618">
        <ele>971.238</ele>
        <time>2021-08-02T12:57:55Z</time>
      </trkpt>
      <trkpt lat="43.146694" lon="-4.930567">
        <ele>970.660</ele>
        <time>2021-08-02T12:58:00Z</time>
      </trkpt>
      <trkpt lat="43.146721" lon="-4.930505">
        <ele>970.089</ele>
        <time>2021-08-02T12:58:05Z</time>
      </trkpt>
      <trkpt lat="43.146747" lon="-4.930438">
        <ele>969.937</ele>
        <time>2021-08-02T12:58:10Z</time>
      </trkpt>
      <trkpt lat="43.146781" lon="-4.930395">
        <ele>969.497</ele>
        <time>2021-08-02T12:58:16Z</time>
      </trkpt>
      <trkpt lat="43.146817" lon="-4.930348">
        <ele>969.025</ele>
        <time>2021-08-02T12:58:20Z</time>
      </trkpt>
      <trkpt lat="43.146859" lon="-4.930311">
        <ele>968.868</ele>
        <time>2021-08-02T12:58:25Z</time>
      </trkpt>
      <trkpt lat="43.146904" lon="-4.930316">
        <ele>968.546</ele>
        <time>2021-08-02T12:58:29Z</time>
      </trkpt>
      <trkpt lat="43.146944" lon="-4.930286">
        <ele>968.415</ele>
        <time>2021-08-02T12:58:33Z</time>
      </trkpt>
      <trkpt lat="43.146979" lon="-4.930239">
        <ele>968.465</ele>
        <time>2021-08-02T12:58:39Z</time>
      </trkpt>
      <trkpt lat="43.147011" lon="-4.930194">
        <ele>968.311</ele>
        <time>2021-08-02T12:58:44Z</time>
      </trkpt>
      <trkpt lat="43.147048" lon="-4.930157">
        <ele>968.408</ele>
        <time>2021-08-02T12:58:48Z</time>
      </trkpt>
      <trkpt lat="43.147086" lon="-4.930122">
        <ele>968.518</ele>
        <time>2021-08-02T12:58:52Z</time>
      </trkpt>
      <trkpt lat="43.147123" lon="-4.93008">
        <ele>968.720</ele>
        <time>2021-08-02T12:58:56Z</time>
      </trkpt>
      <trkpt lat="43.147163" lon="-4.93003">
        <ele>968.519</ele>
        <time>2021-08-02T12:59:00Z</time>
      </trkpt>
      <trkpt lat="43.1472" lon="-4.929975">
        <ele>968.767</ele>
        <time>2021-08-02T12:59:05Z</time>
      </trkpt>
      <trkpt lat="43.147245" lon="-4.929944">
        <ele>968.547</ele>
        <time>2021-08-02T12:59:10Z</time>
      </trkpt>
      <trkpt lat="43.147279" lon="-4.929991">
        <ele>968.685</ele>
        <time>2021-08-02T12:59:19Z</time>
      </trkpt>
      <trkpt lat="43.147267" lon="-4.930055">
        <ele>968.988</ele>
        <time>2021-08-02T12:59:26Z</time>
      </trkpt>
      <trkpt lat="43.147253" lon="-4.93012">
        <ele>969.166</ele>
        <time>2021-08-02T12:59:36Z</time>
      </trkpt>
      <trkpt lat="43.147214" lon="-4.930153">
        <ele>967.877</ele>
        <time>2021-08-02T13:00:49Z</time>
      </trkpt>
      <trkpt lat="43.147158" lon="-4.930098">
        <ele>969.661</ele>
        <time>2021-08-02T13:01:21Z</time>
      </trkpt>
      <trkpt lat="43.147085" lon="-4.930064">
        <ele>969.627</ele>
        <time>2021-08-02T13:01:23Z</time>
      </trkpt>
      <trkpt lat="43.147036" lon="-4.93005">
        <ele>969.108</ele>
        <time>2021-08-02T13:01:27Z</time>
      </trkpt>
      <trkpt lat="43.147085" lon="-4.93008">
        <ele>970.274</ele>
        <time>2021-08-02T13:01:34Z</time>
      </trkpt>
      <trkpt lat="43.147135" lon="-4.930136">
        <ele>969.926</ele>
        <time>2021-08-02T13:01:38Z</time>
      </trkpt>
      <trkpt lat="43.147178" lon="-4.930169">
        <ele>970.435</ele>
        <time>2021-08-02T13:01:43Z</time>
      </trkpt>
      <trkpt lat="43.147134" lon="-4.930229">
        <ele>971.943</ele>
        <time>2021-08-02T13:17:57Z</time>
      </trkpt>
      <trkpt lat="43.147086" lon="-4.930268">
        <ele>973.213</ele>
        <time>2021-08-02T13:17:59Z</time>
      </trkpt>
      <trkpt lat="43.147123" lon="-4.930219">
        <ele>972.061</ele>
        <time>2021-08-02T13:20:02Z</time>
      </trkpt>
      <trkpt lat="43.147171" lon="-4.930212">
        <ele>972.044</ele>
        <time>2021-08-02T13:20:10Z</time>
      </trkpt>
      <trkpt lat="43.147126" lon="-4.930227">
        <ele>972.072</ele>
        <time>2021-08-02T13:24:15Z</time>
      </trkpt>
      <trkpt lat="43.147181" lon="-4.930215">
        <ele>972.065</ele>
        <time>2021-08-02T13:29:30Z</time>
      </trkpt>
      <trkpt lat="43.147225" lon="-4.930204">
        <ele>972.068</ele>
        <time>2021-08-02T13:33:49Z</time>
      </trkpt>
      <trkpt lat="43.147173" lon="-4.930205">
        <ele>972.014</ele>
        <time>2021-08-02T13:44:41Z</time>
      </trkpt>
      <trkpt lat="43.147206" lon="-4.930247">
        <ele>970.008</ele>
        <time>2021-08-02T13:45:35Z</time>
      </trkpt>
      <trkpt lat="43.147229" lon="-4.93019">
        <ele>968.683</ele>
        <time>2021-08-02T13:47:36Z</time>
      </trkpt>
      <trkpt lat="43.147243" lon="-4.930129">
        <ele>967.755</ele>
        <time>2021-08-02T13:47:40Z</time>
      </trkpt>
      <trkpt lat="43.147256" lon="-4.930069">
        <ele>967.264</ele>
        <time>2021-08-02T13:47:47Z</time>
      </trkpt>
      <trkpt lat="43.147276" lon="-4.93001">
        <ele>966.992</ele>
        <time>2021-08-02T13:47:52Z</time>
      </trkpt>
      <trkpt lat="43.147316" lon="-4.929975">
        <ele>966.722</ele>
        <time>2021-08-02T13:48:03Z</time>
      </trkpt>
      <trkpt lat="43.147352" lon="-4.929931">
        <ele>966.630</ele>
        <time>2021-08-02T13:48:09Z</time>
      </trkpt>
      <trkpt lat="43.1474" lon="-4.929922">
        <ele>966.123</ele>
        <time>2021-08-02T13:48:14Z</time>
      </trkpt>
      <trkpt lat="43.147446" lon="-4.929904">
        <ele>966.351</ele>
        <time>2021-08-02T13:48:19Z</time>
      </trkpt>
      <trkpt lat="43.147488" lon="-4.929867">
        <ele>965.922</ele>
        <time>2021-08-02T13:48:23Z</time>
      </trkpt>
      <trkpt lat="43.147526" lon="-4.92983">
        <ele>966.562</ele>
        <time>2021-08-02T13:48:26Z</time>
      </trkpt>
      <trkpt lat="43.147562" lon="-4.92979">
        <ele>966.408</ele>
        <time>2021-08-02T13:48:31Z</time>
      </trkpt>
      <trkpt lat="43.147594" lon="-4.929738">
        <ele>966.308</ele>
        <time>2021-08-02T13:48:36Z</time>
      </trkpt>
      <trkpt lat="43.147621" lon="-4.929686">
        <ele>966.849</ele>
        <time>2021-08-02T13:48:40Z</time>
      </trkpt>
      <trkpt lat="43.147646" lon="-4.929634">
        <ele>967.141</ele>
        <time>2021-08-02T13:48:44Z</time>
      </trkpt>
      <trkpt lat="43.147676" lon="-4.929586">
        <ele>966.690</ele>
        <time>2021-08-02T13:48:48Z</time>
      </trkpt>
      <trkpt lat="43.147708" lon="-4.929533">
        <ele>965.768</ele>
        <time>2021-08-02T13:48:53Z</time>
      </trkpt>
      <trkpt lat="43.147737" lon="-4.929482">
        <ele>964.598</ele>
        <time>2021-08-02T13:48:57Z</time>
      </trkpt>
      <trkpt lat="43.14775" lon="-4.929423">
        <ele>965.066</ele>
        <time>2021-08-02T13:49:00Z</time>
      </trkpt>
      <trkpt lat="43.14778" lon="-4.929377">
        <ele>964.789</ele>
        <time>2021-08-02T13:49:05Z</time>
      </trkpt>
      <trkpt lat="43.147815" lon="-4.929337">
        <ele>963.687</ele>
        <time>2021-08-02T13:49:09Z</time>
      </trkpt>
      <trkpt lat="43.147844" lon="-4.929285">
        <ele>964.566</ele>
        <time>2021-08-02T13:49:15Z</time>
      </trkpt>
      <trkpt lat="43.147874" lon="-4.929235">
        <ele>964.329</ele>
        <time>2021-08-02T13:49:21Z</time>
      </trkpt>
      <trkpt lat="43.147874" lon="-4.929151">
        <ele>963.621</ele>
        <time>2021-08-02T13:49:54Z</time>
      </trkpt>
      <trkpt lat="43.147894" lon="-4.929094">
        <ele>962.708</ele>
        <time>2021-08-02T13:49:57Z</time>
      </trkpt>
      <trkpt lat="43.147932" lon="-4.929061">
        <ele>962.053</ele>
        <time>2021-08-02T13:50:01Z</time>
      </trkpt>
      <trkpt lat="43.147975" lon="-4.929027">
        <ele>961.485</ele>
        <time>2021-08-02T13:50:04Z</time>
      </trkpt>
      <trkpt lat="43.148007" lon="-4.92898">
        <ele>961.124</ele>
        <time>2021-08-02T13:50:09Z</time>
      </trkpt>
      <trkpt lat="43.148045" lon="-4.928933">
        <ele>960.392</ele>
        <time>2021-08-02T13:50:14Z</time>
      </trkpt>
      <trkpt lat="43.148083" lon="-4.928879">
        <ele>960.592</ele>
        <time>2021-08-02T13:50:19Z</time>
      </trkpt>
      <trkpt lat="43.148115" lon="-4.928823">
        <ele>959.210</ele>
        <time>2021-08-02T13:50:24Z</time>
      </trkpt>
      <trkpt lat="43.148136" lon="-4.928762">
        <ele>959.283</ele>
        <time>2021-08-02T13:50:29Z</time>
      </trkpt>
      <trkpt lat="43.14816" lon="-4.928705">
        <ele>959.281</ele>
        <time>2021-08-02T13:50:34Z</time>
      </trkpt>
      <trkpt lat="43.148173" lon="-4.928644">
        <ele>958.652</ele>
        <time>2021-08-02T13:50:39Z</time>
      </trkpt>
      <trkpt lat="43.148199" lon="-4.928587">
        <ele>957.953</ele>
        <time>2021-08-02T13:50:44Z</time>
      </trkpt>
      <trkpt lat="43.148233" lon="-4.928534">
        <ele>957.408</ele>
        <time>2021-08-02T13:50:49Z</time>
      </trkpt>
      <trkpt lat="43.14824" lon="-4.928469">
        <ele>956.808</ele>
        <time>2021-08-02T13:50:54Z</time>
      </trkpt>
      <trkpt lat="43.148254" lon="-4.928409">
        <ele>957.322</ele>
        <time>2021-08-02T13:50:57Z</time>
      </trkpt>
      <trkpt lat="43.148269" lon="-4.928348">
        <ele>957.614</ele>
        <time>2021-08-02T13:51:01Z</time>
      </trkpt>
      <trkpt lat="43.148282" lon="-4.928288">
        <ele>957.393</ele>
        <time>2021-08-02T13:51:03Z</time>
      </trkpt>
      <trkpt lat="43.148294" lon="-4.92822">
        <ele>956.811</ele>
        <time>2021-08-02T13:51:06Z</time>
      </trkpt>
      <trkpt lat="43.148313" lon="-4.928164">
        <ele>957.261</ele>
        <time>2021-08-02T13:51:09Z</time>
      </trkpt>
      <trkpt lat="43.148349" lon="-4.928092">
        <ele>956.359</ele>
        <time>2021-08-02T13:51:12Z</time>
      </trkpt>
      <trkpt lat="43.148378" lon="-4.928037">
        <ele>957.622</ele>
        <time>2021-08-02T13:51:16Z</time>
      </trkpt>
      <trkpt lat="43.148389" lon="-4.927969">
        <ele>958.390</ele>
        <time>2021-08-02T13:51:20Z</time>
      </trkpt>
      <trkpt lat="43.148398" lon="-4.927902">
        <ele>958.591</ele>
        <time>2021-08-02T13:51:24Z</time>
      </trkpt>
      <trkpt lat="43.148412" lon="-4.927834">
        <ele>958.281</ele>
        <time>2021-08-02T13:51:27Z</time>
      </trkpt>
      <trkpt lat="43.148446" lon="-4.927781">
        <ele>958.119</ele>
        <time>2021-08-02T13:51:31Z</time>
      </trkpt>
      <trkpt lat="43.14847" lon="-4.927721">
        <ele>958.808</ele>
        <time>2021-08-02T13:51:36Z</time>
      </trkpt>
      <trkpt lat="43.148473" lon="-4.927659">
        <ele>959.246</ele>
        <time>2021-08-02T13:51:47Z</time>
      </trkpt>
      <trkpt lat="43.148513" lon="-4.927597">
        <ele>959.788</ele>
        <time>2021-08-02T13:51:51Z</time>
      </trkpt>
      <trkpt lat="43.148565" lon="-4.927554">
        <ele>959.527</ele>
        <time>2021-08-02T13:51:56Z</time>
      </trkpt>
      <trkpt lat="43.148597" lon="-4.927494">
        <ele>960.955</ele>
        <time>2021-08-02T13:52:01Z</time>
      </trkpt>
      <trkpt lat="43.148608" lon="-4.927432">
        <ele>960.975</ele>
        <time>2021-08-02T13:52:05Z</time>
      </trkpt>
      <trkpt lat="43.148608" lon="-4.92737">
        <ele>960.253</ele>
        <time>2021-08-02T13:52:08Z</time>
      </trkpt>
      <trkpt lat="43.148599" lon="-4.927302">
        <ele>959.576</ele>
        <time>2021-08-02T13:52:11Z</time>
      </trkpt>
      <trkpt lat="43.148589" lon="-4.927239">
        <ele>959.674</ele>
        <time>2021-08-02T13:52:15Z</time>
      </trkpt>
      <trkpt lat="43.14859" lon="-4.927175">
        <ele>958.811</ele>
        <time>2021-08-02T13:52:19Z</time>
      </trkpt>
      <trkpt lat="43.148602" lon="-4.927112">
        <ele>958.521</ele>
        <time>2021-08-02T13:52:23Z</time>
      </trkpt>
      <trkpt lat="43.148616" lon="-4.927044">
        <ele>958.203</ele>
        <time>2021-08-02T13:52:27Z</time>
      </trkpt>
      <trkpt lat="43.148624" lon="-4.926979">
        <ele>958.308</ele>
        <time>2021-08-02T13:52:31Z</time>
      </trkpt>
      <trkpt lat="43.148639" lon="-4.926912">
        <ele>958.458</ele>
        <time>2021-08-02T13:52:35Z</time>
      </trkpt>
      <trkpt lat="43.148665" lon="-4.92686">
        <ele>957.730</ele>
        <time>2021-08-02T13:52:40Z</time>
      </trkpt>
      <trkpt lat="43.148692" lon="-4.9268">
        <ele>957.459</ele>
        <time>2021-08-02T13:52:43Z</time>
      </trkpt>
      <trkpt lat="43.148725" lon="-4.926751">
        <ele>957.437</ele>
        <time>2021-08-02T13:52:47Z</time>
      </trkpt>
      <trkpt lat="43.148755" lon="-4.926698">
        <ele>958.047</ele>
        <time>2021-08-02T13:52:50Z</time>
      </trkpt>
      <trkpt lat="43.148771" lon="-4.926633">
        <ele>958.715</ele>
        <time>2021-08-02T13:52:54Z</time>
      </trkpt>
      <trkpt lat="43.148795" lon="-4.926554">
        <ele>959.728</ele>
        <time>2021-08-02T13:52:58Z</time>
      </trkpt>
      <trkpt lat="43.148796" lon="-4.926487">
        <ele>959.036</ele>
        <time>2021-08-02T13:53:02Z</time>
      </trkpt>
      <trkpt lat="43.148791" lon="-4.926419">
        <ele>960.367</ele>
        <time>2021-08-02T13:53:06Z</time>
      </trkpt>
      <trkpt lat="43.148783" lon="-4.926356">
        <ele>961.381</ele>
        <time>2021-08-02T13:53:09Z</time>
      </trkpt>
      <trkpt lat="43.148771" lon="-4.926285">
        <ele>962.019</ele>
        <time>2021-08-02T13:53:13Z</time>
      </trkpt>
      <trkpt lat="43.148794" lon="-4.926227">
        <ele>962.908</ele>
        <time>2021-08-02T13:53:17Z</time>
      </trkpt>
      <trkpt lat="43.148829" lon="-4.926182">
        <ele>963.633</ele>
        <time>2021-08-02T13:53:20Z</time>
      </trkpt>
      <trkpt lat="43.148866" lon="-4.926137">
        <ele>964.135</ele>
        <time>2021-08-02T13:53:24Z</time>
      </trkpt>
      <trkpt lat="43.148899" lon="-4.926086">
        <ele>965.194</ele>
        <time>2021-08-02T13:53:27Z</time>
      </trkpt>
      <trkpt lat="43.148913" lon="-4.926019">
        <ele>965.772</ele>
        <time>2021-08-02T13:53:31Z</time>
      </trkpt>
      <trkpt lat="43.1489" lon="-4.925958">
        <ele>967.162</ele>
        <time>2021-08-02T13:53:35Z</time>
      </trkpt>
      <trkpt lat="43.148886" lon="-4.925892">
        <ele>968.230</ele>
        <time>2021-08-02T13:53:39Z</time>
      </trkpt>
      <trkpt lat="43.148878" lon="-4.925819">
        <ele>968.093</ele>
        <time>2021-08-02T13:53:42Z</time>
      </trkpt>
      <trkpt lat="43.148871" lon="-4.925749">
        <ele>968.371</ele>
        <time>2021-08-02T13:53:47Z</time>
      </trkpt>
      <trkpt lat="43.148876" lon="-4.925685">
        <ele>968.881</ele>
        <time>2021-08-02T13:53:50Z</time>
      </trkpt>
      <trkpt lat="43.148856" lon="-4.925629">
        <ele>968.961</ele>
        <time>2021-08-02T13:53:54Z</time>
      </trkpt>
      <trkpt lat="43.14884" lon="-4.925566">
        <ele>969.117</ele>
        <time>2021-08-02T13:53:57Z</time>
      </trkpt>
      <trkpt lat="43.148831" lon="-4.925505">
        <ele>968.808</ele>
        <time>2021-08-02T13:54:01Z</time>
      </trkpt>
      <trkpt lat="43.148821" lon="-4.925443">
        <ele>969.175</ele>
        <time>2021-08-02T13:54:06Z</time>
      </trkpt>
      <trkpt lat="43.14884" lon="-4.925384">
        <ele>969.417</ele>
        <time>2021-08-02T13:54:11Z</time>
      </trkpt>
      <trkpt lat="43.14888" lon="-4.925351">
        <ele>969.916</ele>
        <time>2021-08-02T13:54:14Z</time>
      </trkpt>
      <trkpt lat="43.148898" lon="-4.925408">
        <ele>969.824</ele>
        <time>2021-08-02T13:54:30Z</time>
      </trkpt>
      <trkpt lat="43.14893" lon="-4.925364">
        <ele>969.064</ele>
        <time>2021-08-02T13:54:39Z</time>
      </trkpt>
      <trkpt lat="43.148967" lon="-4.925318">
        <ele>968.852</ele>
        <time>2021-08-02T13:54:43Z</time>
      </trkpt>
      <trkpt lat="43.148987" lon="-4.925248">
        <ele>968.645</ele>
        <time>2021-08-02T13:54:48Z</time>
      </trkpt>
      <trkpt lat="43.149006" lon="-4.925188">
        <ele>968.253</ele>
        <time>2021-08-02T13:54:54Z</time>
      </trkpt>
      <trkpt lat="43.149032" lon="-4.925132">
        <ele>967.317</ele>
        <time>2021-08-02T13:54:58Z</time>
      </trkpt>
      <trkpt lat="43.149047" lon="-4.92507">
        <ele>967.287</ele>
        <time>2021-08-02T13:55:02Z</time>
      </trkpt>
      <trkpt lat="43.149044" lon="-4.925008">
        <ele>967.015</ele>
        <time>2021-08-02T13:55:05Z</time>
      </trkpt>
      <trkpt lat="43.149045" lon="-4.92494">
        <ele>966.208</ele>
        <time>2021-08-02T13:55:09Z</time>
      </trkpt>
      <trkpt lat="43.149055" lon="-4.92488">
        <ele>966.248</ele>
        <time>2021-08-02T13:55:12Z</time>
      </trkpt>
      <trkpt lat="43.149071" lon="-4.924823">
        <ele>965.640</ele>
        <time>2021-08-02T13:55:16Z</time>
      </trkpt>
      <trkpt lat="43.149091" lon="-4.92476">
        <ele>965.539</ele>
        <time>2021-08-02T13:55:20Z</time>
      </trkpt>
      <trkpt lat="43.149091" lon="-4.924691">
        <ele>964.337</ele>
        <time>2021-08-02T13:55:25Z</time>
      </trkpt>
      <trkpt lat="43.149085" lon="-4.924624">
        <ele>963.637</ele>
        <time>2021-08-02T13:55:29Z</time>
      </trkpt>
      <trkpt lat="43.149075" lon="-4.92456">
        <ele>962.865</ele>
        <time>2021-08-02T13:55:33Z</time>
      </trkpt>
      <trkpt lat="43.149083" lon="-4.924499">
        <ele>962.438</ele>
        <time>2021-08-02T13:55:36Z</time>
      </trkpt>
      <trkpt lat="43.14909" lon="-4.924435">
        <ele>962.036</ele>
        <time>2021-08-02T13:55:40Z</time>
      </trkpt>
      <trkpt lat="43.149088" lon="-4.924367">
        <ele>962.084</ele>
        <time>2021-08-02T13:55:44Z</time>
      </trkpt>
      <trkpt lat="43.149081" lon="-4.9243">
        <ele>961.707</ele>
        <time>2021-08-02T13:55:46Z</time>
      </trkpt>
      <trkpt lat="43.149075" lon="-4.92423">
        <ele>961.717</ele>
        <time>2021-08-02T13:55:51Z</time>
      </trkpt>
      <trkpt lat="43.149077" lon="-4.924166">
        <ele>962.308</ele>
        <time>2021-08-02T13:55:55Z</time>
      </trkpt>
      <trkpt lat="43.149073" lon="-4.924103">
        <ele>962.935</ele>
        <time>2021-08-02T13:55:59Z</time>
      </trkpt>
      <trkpt lat="43.149088" lon="-4.924044">
        <ele>963.647</ele>
        <time>2021-08-02T13:56:04Z</time>
      </trkpt>
      <trkpt lat="43.149112" lon="-4.923987">
        <ele>965.286</ele>
        <time>2021-08-02T13:56:08Z</time>
      </trkpt>
      <trkpt lat="43.149144" lon="-4.923938">
        <ele>965.474</ele>
        <time>2021-08-02T13:56:12Z</time>
      </trkpt>
      <trkpt lat="43.149172" lon="-4.923884">
        <ele>965.394</ele>
        <time>2021-08-02T13:56:16Z</time>
      </trkpt>
      <trkpt lat="43.14919" lon="-4.923819">
        <ele>965.912</ele>
        <time>2021-08-02T13:56:21Z</time>
      </trkpt>
      <trkpt lat="43.149215" lon="-4.923761">
        <ele>965.635</ele>
        <time>2021-08-02T13:56:25Z</time>
      </trkpt>
      <trkpt lat="43.149228" lon="-4.923701">
        <ele>965.543</ele>
        <time>2021-08-02T13:56:29Z</time>
      </trkpt>
      <trkpt lat="43.14925" lon="-4.92364">
        <ele>966.891</ele>
        <time>2021-08-02T13:56:34Z</time>
      </trkpt>
      <trkpt lat="43.149275" lon="-4.923588">
        <ele>967.481</ele>
        <time>2021-08-02T13:56:38Z</time>
      </trkpt>
      <trkpt lat="43.149317" lon="-4.923566">
        <ele>968.219</ele>
        <time>2021-08-02T13:56:45Z</time>
      </trkpt>
      <trkpt lat="43.14933" lon="-4.923501">
        <ele>969.108</ele>
        <time>2021-08-02T13:56:51Z</time>
      </trkpt>
      <trkpt lat="43.149337" lon="-4.923438">
        <ele>969.166</ele>
        <time>2021-08-02T13:56:55Z</time>
      </trkpt>
      <trkpt lat="43.149368" lon="-4.923388">
        <ele>968.318</ele>
        <time>2021-08-02T13:57:00Z</time>
      </trkpt>
      <trkpt lat="43.14941" lon="-4.923362">
        <ele>969.667</ele>
        <time>2021-08-02T13:57:04Z</time>
      </trkpt>
      <trkpt lat="43.149476" lon="-4.92337">
        <ele>969.045</ele>
        <time>2021-08-02T13:57:09Z</time>
      </trkpt>
      <trkpt lat="43.149524" lon="-4.923362">
        <ele>969.365</ele>
        <time>2021-08-02T13:57:12Z</time>
      </trkpt>
      <trkpt lat="43.14956" lon="-4.92332">
        <ele>969.583</ele>
        <time>2021-08-02T13:57:15Z</time>
      </trkpt>
      <trkpt lat="43.149603" lon="-4.92329">
        <ele>969.556</ele>
        <time>2021-08-02T13:57:18Z</time>
      </trkpt>
      <trkpt lat="43.149647" lon="-4.923277">
        <ele>969.164</ele>
        <time>2021-08-02T13:57:21Z</time>
      </trkpt>
      <trkpt lat="43.149692" lon="-4.923271">
        <ele>970.491</ele>
        <time>2021-08-02T13:57:24Z</time>
      </trkpt>
      <trkpt lat="43.149739" lon="-4.923278">
        <ele>969.681</ele>
        <time>2021-08-02T13:57:28Z</time>
      </trkpt>
      <trkpt lat="43.149789" lon="-4.923268">
        <ele>968.319</ele>
        <time>2021-08-02T13:57:33Z</time>
      </trkpt>
      <trkpt lat="43.149835" lon="-4.923257">
        <ele>968.508</ele>
        <time>2021-08-02T13:57:37Z</time>
      </trkpt>
      <trkpt lat="43.149882" lon="-4.923269">
        <ele>967.096</ele>
        <time>2021-08-02T13:57:42Z</time>
      </trkpt>
      <trkpt lat="43.14993" lon="-4.923261">
        <ele>965.528</ele>
        <time>2021-08-02T13:57:48Z</time>
      </trkpt>
      <trkpt lat="43.149976" lon="-4.923248">
        <ele>964.597</ele>
        <time>2021-08-02T13:57:53Z</time>
      </trkpt>
      <trkpt lat="43.150022" lon="-4.923254">
        <ele>963.785</ele>
        <time>2021-08-02T13:57:57Z</time>
      </trkpt>
      <trkpt lat="43.150066" lon="-4.923273">
        <ele>962.485</ele>
        <time>2021-08-02T13:58:00Z</time>
      </trkpt>
      <trkpt lat="43.150114" lon="-4.923271">
        <ele>961.343</ele>
        <time>2021-08-02T13:58:04Z</time>
      </trkpt>
      <trkpt lat="43.150162" lon="-4.923249">
        <ele>961.126</ele>
        <time>2021-08-02T13:58:09Z</time>
      </trkpt>
      <trkpt lat="43.15021" lon="-4.923218">
        <ele>960.584</ele>
        <time>2021-08-02T13:58:12Z</time>
      </trkpt>
      <trkpt lat="43.150255" lon="-4.923183">
        <ele>960.569</ele>
        <time>2021-08-02T13:58:15Z</time>
      </trkpt>
      <trkpt lat="43.150289" lon="-4.923139">
        <ele>960.004</ele>
        <time>2021-08-02T13:58:19Z</time>
      </trkpt>
      <trkpt lat="43.150336" lon="-4.923125">
        <ele>959.724</ele>
        <time>2021-08-02T13:58:22Z</time>
      </trkpt>
      <trkpt lat="43.150382" lon="-4.923103">
        <ele>959.608</ele>
        <time>2021-08-02T13:58:26Z</time>
      </trkpt>
      <trkpt lat="43.150431" lon="-4.92309">
        <ele>959.573</ele>
        <time>2021-08-02T13:58:30Z</time>
      </trkpt>
      <trkpt lat="43.150476" lon="-4.923078">
        <ele>959.965</ele>
        <time>2021-08-02T13:58:34Z</time>
      </trkpt>
      <trkpt lat="43.150524" lon="-4.923048">
        <ele>960.114</ele>
        <time>2021-08-02T13:58:38Z</time>
      </trkpt>
      <trkpt lat="43.150559" lon="-4.923004">
        <ele>960.532</ele>
        <time>2021-08-02T13:58:41Z</time>
      </trkpt>
      <trkpt lat="43.150611" lon="-4.922991">
        <ele>960.852</ele>
        <time>2021-08-02T13:58:45Z</time>
      </trkpt>
      <trkpt lat="43.150648" lon="-4.922938">
        <ele>960.310</ele>
        <time>2021-08-02T13:58:50Z</time>
      </trkpt>
      <trkpt lat="43.150682" lon="-4.922887">
        <ele>959.713</ele>
        <time>2021-08-02T13:58:55Z</time>
      </trkpt>
      <trkpt lat="43.150717" lon="-4.922841">
        <ele>959.481</ele>
        <time>2021-08-02T13:59:03Z</time>
      </trkpt>
      <trkpt lat="43.150734" lon="-4.922775">
        <ele>958.918</ele>
        <time>2021-08-02T13:59:06Z</time>
      </trkpt>
      <trkpt lat="43.150739" lon="-4.922706">
        <ele>958.798</ele>
        <time>2021-08-02T13:59:09Z</time>
      </trkpt>
      <trkpt lat="43.150745" lon="-4.922642">
        <ele>958.917</ele>
        <time>2021-08-02T13:59:11Z</time>
      </trkpt>
      <trkpt lat="43.150754" lon="-4.922581">
        <ele>958.608</ele>
        <time>2021-08-02T13:59:14Z</time>
      </trkpt>
      <trkpt lat="43.150771" lon="-4.922517">
        <ele>958.428</ele>
        <time>2021-08-02T13:59:17Z</time>
      </trkpt>
      <trkpt lat="43.150799" lon="-4.922459">
        <ele>958.380</ele>
        <time>2021-08-02T13:59:20Z</time>
      </trkpt>
      <trkpt lat="43.150806" lon="-4.922397">
        <ele>954.359</ele>
        <time>2021-08-02T13:59:23Z</time>
      </trkpt>
      <trkpt lat="43.150819" lon="-4.922331">
        <ele>950.317</ele>
        <time>2021-08-02T13:59:26Z</time>
      </trkpt>
      <trkpt lat="43.150824" lon="-4.922256">
        <ele>947.077</ele>
        <time>2021-08-02T13:59:30Z</time>
      </trkpt>
      <trkpt lat="43.150813" lon="-4.922184">
        <ele>945.095</ele>
        <time>2021-08-02T13:59:33Z</time>
      </trkpt>
      <trkpt lat="43.150806" lon="-4.922122">
        <ele>943.818</ele>
        <time>2021-08-02T13:59:37Z</time>
      </trkpt>
      <trkpt lat="43.150804" lon="-4.922056">
        <ele>943.156</ele>
        <time>2021-08-02T13:59:41Z</time>
      </trkpt>
      <trkpt lat="43.150797" lon="-4.921988">
        <ele>942.737</ele>
        <time>2021-08-02T13:59:45Z</time>
      </trkpt>
      <trkpt lat="43.150779" lon="-4.921924">
        <ele>942.549</ele>
        <time>2021-08-02T13:59:49Z</time>
      </trkpt>
      <trkpt lat="43.150771" lon="-4.921851">
        <ele>942.413</ele>
        <time>2021-08-02T13:59:53Z</time>
      </trkpt>
      <trkpt lat="43.150744" lon="-4.92179">
        <ele>942.308</ele>
        <time>2021-08-02T13:59:58Z</time>
      </trkpt>
      <trkpt lat="43.15072" lon="-4.921731">
        <ele>942.210</ele>
        <time>2021-08-02T14:00:01Z</time>
      </trkpt>
      <trkpt lat="43.150696" lon="-4.921671">
        <ele>942.222</ele>
        <time>2021-08-02T14:00:05Z</time>
      </trkpt>
      <trkpt lat="43.150668" lon="-4.921618">
        <ele>942.271</ele>
        <time>2021-08-02T14:00:08Z</time>
      </trkpt>
      <trkpt lat="43.150642" lon="-4.921568">
        <ele>942.229</ele>
        <time>2021-08-02T14:00:11Z</time>
      </trkpt>
      <trkpt lat="43.150604" lon="-4.921528">
        <ele>942.249</ele>
        <time>2021-08-02T14:00:15Z</time>
      </trkpt>
      <trkpt lat="43.150562" lon="-4.921497">
        <ele>946.287</ele>
        <time>2021-08-02T14:00:18Z</time>
      </trkpt>
      <trkpt lat="43.150536" lon="-4.921447">
        <ele>950.210</ele>
        <time>2021-08-02T14:00:22Z</time>
      </trkpt>
      <trkpt lat="43.150523" lon="-4.921379">
        <ele>954.238</ele>
        <time>2021-08-02T14:00:26Z</time>
      </trkpt>
      <trkpt lat="43.150537" lon="-4.921318">
        <ele>956.326</ele>
        <time>2021-08-02T14:00:32Z</time>
      </trkpt>
      <trkpt lat="43.150536" lon="-4.92138">
        <ele>957.647</ele>
        <time>2021-08-02T14:00:46Z</time>
      </trkpt>
      <trkpt lat="43.1505" lon="-4.921321">
        <ele>958.411</ele>
        <time>2021-08-02T14:01:53Z</time>
      </trkpt>
      <trkpt lat="43.150488" lon="-4.921246">
        <ele>954.408</ele>
        <time>2021-08-02T14:01:59Z</time>
      </trkpt>
      <trkpt lat="43.150499" lon="-4.921183">
        <ele>951.369</ele>
        <time>2021-08-02T14:02:04Z</time>
      </trkpt>
      <trkpt lat="43.150525" lon="-4.921132">
        <ele>949.521</ele>
        <time>2021-08-02T14:02:08Z</time>
      </trkpt>
      <trkpt lat="43.15052" lon="-4.921069">
        <ele>948.440</ele>
        <time>2021-08-02T14:02:12Z</time>
      </trkpt>
      <trkpt lat="43.150532" lon="-4.921009">
        <ele>947.758</ele>
        <time>2021-08-02T14:02:16Z</time>
      </trkpt>
      <trkpt lat="43.150571" lon="-4.920977">
        <ele>947.328</ele>
        <time>2021-08-02T14:02:19Z</time>
      </trkpt>
      <trkpt lat="43.150603" lon="-4.920933">
        <ele>947.526</ele>
        <time>2021-08-02T14:02:23Z</time>
      </trkpt>
      <trkpt lat="43.150611" lon="-4.920865">
        <ele>947.979</ele>
        <time>2021-08-02T14:02:26Z</time>
      </trkpt>
      <trkpt lat="43.150608" lon="-4.920794">
        <ele>948.177</ele>
        <time>2021-08-02T14:02:29Z</time>
      </trkpt>
      <trkpt lat="43.150598" lon="-4.920732">
        <ele>948.287</ele>
        <time>2021-08-02T14:02:32Z</time>
      </trkpt>
      <trkpt lat="43.150585" lon="-4.920665">
        <ele>947.942</ele>
        <time>2021-08-02T14:02:35Z</time>
      </trkpt>
      <trkpt lat="43.150583" lon="-4.920602">
        <ele>947.726</ele>
        <time>2021-08-02T14:02:38Z</time>
      </trkpt>
      <trkpt lat="43.150614" lon="-4.920557">
        <ele>947.608</ele>
        <time>2021-08-02T14:02:44Z</time>
      </trkpt>
      <trkpt lat="43.150576" lon="-4.920517">
        <ele>947.355</ele>
        <time>2021-08-02T14:02:56Z</time>
      </trkpt>
      <trkpt lat="43.150574" lon="-4.92044">
        <ele>947.137</ele>
        <time>2021-08-02T14:03:00Z</time>
      </trkpt>
      <trkpt lat="43.150597" lon="-4.920386">
        <ele>947.076</ele>
        <time>2021-08-02T14:03:03Z</time>
      </trkpt>
      <trkpt lat="43.150618" lon="-4.920327">
        <ele>947.124</ele>
        <time>2021-08-02T14:03:07Z</time>
      </trkpt>
      <trkpt lat="43.150643" lon="-4.92027">
        <ele>947.234</ele>
        <time>2021-08-02T14:03:10Z</time>
      </trkpt>
      <trkpt lat="43.150661" lon="-4.920212">
        <ele>947.362</ele>
        <time>2021-08-02T14:03:14Z</time>
      </trkpt>
      <trkpt lat="43.150653" lon="-4.920142">
        <ele>947.525</ele>
        <time>2021-08-02T14:03:20Z</time>
      </trkpt>
      <trkpt lat="43.150657" lon="-4.920079">
        <ele>947.753</ele>
        <time>2021-08-02T14:03:23Z</time>
      </trkpt>
      <trkpt lat="43.150658" lon="-4.920011">
        <ele>947.975</ele>
        <time>2021-08-02T14:03:27Z</time>
      </trkpt>
      <trkpt lat="43.150657" lon="-4.919943">
        <ele>948.128</ele>
        <time>2021-08-02T14:03:30Z</time>
      </trkpt>
      <trkpt lat="43.150661" lon="-4.919875">
        <ele>948.220</ele>
        <time>2021-08-02T14:03:33Z</time>
      </trkpt>
      <trkpt lat="43.150667" lon="-4.919803">
        <ele>948.108</ele>
        <time>2021-08-02T14:03:37Z</time>
      </trkpt>
      <trkpt lat="43.150661" lon="-4.919727">
        <ele>947.964</ele>
        <time>2021-08-02T14:03:40Z</time>
      </trkpt>
      <trkpt lat="43.15066" lon="-4.91966">
        <ele>947.856</ele>
        <time>2021-08-02T14:03:44Z</time>
      </trkpt>
      <trkpt lat="43.150665" lon="-4.919594">
        <ele>947.675</ele>
        <time>2021-08-02T14:03:48Z</time>
      </trkpt>
      <trkpt lat="43.150681" lon="-4.91953">
        <ele>947.573</ele>
        <time>2021-08-02T14:03:53Z</time>
      </trkpt>
      <trkpt lat="43.150698" lon="-4.919472">
        <ele>947.363</ele>
        <time>2021-08-02T14:03:56Z</time>
      </trkpt>
      <trkpt lat="43.150701" lon="-4.919403">
        <ele>947.221</ele>
        <time>2021-08-02T14:04:00Z</time>
      </trkpt>
      <trkpt lat="43.150711" lon="-4.919338">
        <ele>946.974</ele>
        <time>2021-08-02T14:04:04Z</time>
      </trkpt>
      <trkpt lat="43.150709" lon="-4.919276">
        <ele>946.762</ele>
        <time>2021-08-02T14:04:08Z</time>
      </trkpt>
      <trkpt lat="43.150704" lon="-4.919213">
        <ele>946.657</ele>
        <time>2021-08-02T14:04:12Z</time>
      </trkpt>
      <trkpt lat="43.15071" lon="-4.919143">
        <ele>946.500</ele>
        <time>2021-08-02T14:04:16Z</time>
      </trkpt>
      <trkpt lat="43.150721" lon="-4.919073">
        <ele>946.420</ele>
        <time>2021-08-02T14:04:19Z</time>
      </trkpt>
      <trkpt lat="43.150741" lon="-4.918994">
        <ele>946.408</ele>
        <time>2021-08-02T14:04:24Z</time>
      </trkpt>
      <trkpt lat="43.150752" lon="-4.918909">
        <ele>946.342</ele>
        <time>2021-08-02T14:04:29Z</time>
      </trkpt>
      <trkpt lat="43.150772" lon="-4.918852">
        <ele>946.164</ele>
        <time>2021-08-02T14:04:35Z</time>
      </trkpt>
      <trkpt lat="43.15079" lon="-4.918791">
        <ele>946.063</ele>
        <time>2021-08-02T14:04:39Z</time>
      </trkpt>
      <trkpt lat="43.150814" lon="-4.918731">
        <ele>945.911</ele>
        <time>2021-08-02T14:04:43Z</time>
      </trkpt>
      <trkpt lat="43.150846" lon="-4.918683">
        <ele>945.931</ele>
        <time>2021-08-02T14:04:46Z</time>
      </trkpt>
      <trkpt lat="43.150872" lon="-4.918629">
        <ele>945.959</ele>
        <time>2021-08-02T14:04:50Z</time>
      </trkpt>
      <trkpt lat="43.150902" lon="-4.918577">
        <ele>945.932</ele>
        <time>2021-08-02T14:04:54Z</time>
      </trkpt>
      <trkpt lat="43.150924" lon="-4.918521">
        <ele>945.920</ele>
        <time>2021-08-02T14:04:59Z</time>
      </trkpt>
      <trkpt lat="43.150946" lon="-4.918456">
        <ele>945.898</ele>
        <time>2021-08-02T14:05:04Z</time>
      </trkpt>
      <trkpt lat="43.15097" lon="-4.918395">
        <ele>945.715</ele>
        <time>2021-08-02T14:05:10Z</time>
      </trkpt>
      <trkpt lat="43.151011" lon="-4.918359">
        <ele>945.726</ele>
        <time>2021-08-02T14:05:14Z</time>
      </trkpt>
      <trkpt lat="43.151059" lon="-4.918335">
        <ele>945.708</ele>
        <time>2021-08-02T14:05:19Z</time>
      </trkpt>
      <trkpt lat="43.151105" lon="-4.918361">
        <ele>945.666</ele>
        <time>2021-08-02T14:05:23Z</time>
      </trkpt>
      <trkpt lat="43.15112" lon="-4.918292">
        <ele>945.668</ele>
        <time>2021-08-02T14:05:45Z</time>
      </trkpt>
      <trkpt lat="43.151145" lon="-4.918234">
        <ele>945.677</ele>
        <time>2021-08-02T14:05:48Z</time>
      </trkpt>
      <trkpt lat="43.151172" lon="-4.918178">
        <ele>945.575</ele>
        <time>2021-08-02T14:05:52Z</time>
      </trkpt>
      <trkpt lat="43.151206" lon="-4.918127">
        <ele>945.425</ele>
        <time>2021-08-02T14:05:56Z</time>
      </trkpt>
      <trkpt lat="43.151258" lon="-4.918103">
        <ele>945.593</ele>
        <time>2021-08-02T14:06:01Z</time>
      </trkpt>
      <trkpt lat="43.151307" lon="-4.91808">
        <ele>945.636</ele>
        <time>2021-08-02T14:06:05Z</time>
      </trkpt>
      <trkpt lat="43.151362" lon="-4.918029">
        <ele>945.754</ele>
        <time>2021-08-02T14:06:10Z</time>
      </trkpt>
      <trkpt lat="43.151401" lon="-4.917987">
        <ele>945.769</ele>
        <time>2021-08-02T14:06:14Z</time>
      </trkpt>
      <trkpt lat="43.15144" lon="-4.91795">
        <ele>945.804</ele>
        <time>2021-08-02T14:06:19Z</time>
      </trkpt>
      <trkpt lat="43.15147" lon="-4.9179">
        <ele>946.024</ele>
        <time>2021-08-02T14:06:25Z</time>
      </trkpt>
      <trkpt lat="43.151491" lon="-4.917835">
        <ele>946.208</ele>
        <time>2021-08-02T14:06:30Z</time>
      </trkpt>
      <trkpt lat="43.151491" lon="-4.917761">
        <ele>946.493</ele>
        <time>2021-08-02T14:06:33Z</time>
      </trkpt>
      <trkpt lat="43.151534" lon="-4.91773">
        <ele>946.635</ele>
        <time>2021-08-02T14:06:40Z</time>
      </trkpt>
      <trkpt lat="43.151582" lon="-4.917726">
        <ele>946.924</ele>
        <time>2021-08-02T14:07:09Z</time>
      </trkpt>
      <trkpt lat="43.15158" lon="-4.91766">
        <ele>947.012</ele>
        <time>2021-08-02T14:07:49Z</time>
      </trkpt>
      <trkpt lat="43.151586" lon="-4.917592">
        <ele>947.072</ele>
        <time>2021-08-02T14:07:54Z</time>
      </trkpt>
      <trkpt lat="43.151625" lon="-4.917556">
        <ele>947.020</ele>
        <time>2021-08-02T14:07:57Z</time>
      </trkpt>
      <trkpt lat="43.151668" lon="-4.917579">
        <ele>947.173</ele>
        <time>2021-08-02T14:08:03Z</time>
      </trkpt>
      <trkpt lat="43.151609" lon="-4.917589">
        <ele>947.261</ele>
        <time>2021-08-02T14:08:13Z</time>
      </trkpt>
      <trkpt lat="43.151562" lon="-4.917587">
        <ele>947.616</ele>
        <time>2021-08-02T14:08:30Z</time>
      </trkpt>
      <trkpt lat="43.151497" lon="-4.917581">
        <ele>947.776</ele>
        <time>2021-08-02T14:08:34Z</time>
      </trkpt>
      <trkpt lat="43.151448" lon="-4.917582">
        <ele>947.813</ele>
        <time>2021-08-02T14:08:54Z</time>
      </trkpt>
      <trkpt lat="43.151401" lon="-4.917593">
        <ele>947.908</ele>
        <time>2021-08-02T14:08:58Z</time>
      </trkpt>
      <trkpt lat="43.151354" lon="-4.91758">
        <ele>947.888</ele>
        <time>2021-08-02T14:09:02Z</time>
      </trkpt>
      <trkpt lat="43.151362" lon="-4.917518">
        <ele>947.780</ele>
        <time>2021-08-02T14:09:07Z</time>
      </trkpt>
      <trkpt lat="43.151407" lon="-4.917492">
        <ele>947.689</ele>
        <time>2021-08-02T14:09:12Z</time>
      </trkpt>
      <trkpt lat="43.151433" lon="-4.917438">
        <ele>947.457</ele>
        <time>2021-08-02T14:09:20Z</time>
      </trkpt>
      <trkpt lat="43.15143" lon="-4.917376">
        <ele>947.477</ele>
        <time>2021-08-02T14:09:27Z</time>
      </trkpt>
      <trkpt lat="43.151298" lon="-4.91758">
        <ele>947.425</ele>
        <time>2021-08-02T14:09:30Z</time>
      </trkpt>
      <trkpt lat="43.151251" lon="-4.917554">
        <ele>947.598</ele>
        <time>2021-08-02T14:09:36Z</time>
      </trkpt>
      <trkpt lat="43.151203" lon="-4.917523">
        <ele>947.666</ele>
        <time>2021-08-02T14:09:40Z</time>
      </trkpt>
      <trkpt lat="43.151158" lon="-4.917511">
        <ele>947.937</ele>
        <time>2021-08-02T14:09:45Z</time>
      </trkpt>
      <trkpt lat="43.151117" lon="-4.917479">
        <ele>948.349</ele>
        <time>2021-08-02T14:09:49Z</time>
      </trkpt>
      <trkpt lat="43.15109" lon="-4.917533">
        <ele>948.813</ele>
        <time>2021-08-02T14:10:16Z</time>
      </trkpt>
      <trkpt lat="43.151017" lon="-4.917514">
        <ele>949.208</ele>
        <time>2021-08-02T14:14:22Z</time>
      </trkpt>
      <trkpt lat="43.150962" lon="-4.917505">
        <ele>949.410</ele>
        <time>2021-08-02T14:14:26Z</time>
      </trkpt>
      <trkpt lat="43.15101" lon="-4.917498">
        <ele>949.522</ele>
        <time>2021-08-02T14:14:58Z</time>
      </trkpt>
      <trkpt lat="43.151043" lon="-4.917426">
        <ele>949.531</ele>
        <time>2021-08-02T14:15:01Z</time>
      </trkpt>
      <trkpt lat="43.151105" lon="-4.917422">
        <ele>949.559</ele>
        <time>2021-08-02T14:15:06Z</time>
      </trkpt>
      <trkpt lat="43.151151" lon="-4.91743">
        <ele>949.559</ele>
        <time>2021-08-02T14:15:10Z</time>
      </trkpt>
      <trkpt lat="43.151193" lon="-4.917454">
        <ele>949.467</ele>
        <time>2021-08-02T14:15:13Z</time>
      </trkpt>
      <trkpt lat="43.151237" lon="-4.917467">
        <ele>949.380</ele>
        <time>2021-08-02T14:15:17Z</time>
      </trkpt>
      <trkpt lat="43.151287" lon="-4.917497">
        <ele>949.198</ele>
        <time>2021-08-02T14:15:22Z</time>
      </trkpt>
      <trkpt lat="43.151329" lon="-4.917524">
        <ele>948.965</ele>
        <time>2021-08-02T14:15:25Z</time>
      </trkpt>
      <trkpt lat="43.151379" lon="-4.917559">
        <ele>948.868</ele>
        <time>2021-08-02T14:15:29Z</time>
      </trkpt>
      <trkpt lat="43.151419" lon="-4.917604">
        <ele>948.614</ele>
        <time>2021-08-02T14:15:33Z</time>
      </trkpt>
      <trkpt lat="43.151474" lon="-4.917639">
        <ele>948.408</ele>
        <time>2021-08-02T14:15:37Z</time>
      </trkpt>
      <trkpt lat="43.151521" lon="-4.917665">
        <ele>948.373</ele>
        <time>2021-08-02T14:15:41Z</time>
      </trkpt>
      <trkpt lat="43.151564" lon="-4.917688">
        <ele>948.195</ele>
        <time>2021-08-02T14:15:44Z</time>
      </trkpt>
      <trkpt lat="43.15161" lon="-4.917712">
        <ele>947.814</ele>
        <time>2021-08-02T14:15:47Z</time>
      </trkpt>
      <trkpt lat="43.151653" lon="-4.917753">
        <ele>947.652</ele>
        <time>2021-08-02T14:15:51Z</time>
      </trkpt>
      <trkpt lat="43.151697" lon="-4.917782">
        <ele>947.482</ele>
        <time>2021-08-02T14:15:55Z</time>
      </trkpt>
      <trkpt lat="43.151742" lon="-4.917782">
        <ele>947.360</ele>
        <time>2021-08-02T14:15:58Z</time>
      </trkpt>
      <trkpt lat="43.151708" lon="-4.917829">
        <ele>947.223</ele>
        <time>2021-08-02T14:16:11Z</time>
      </trkpt>
      <trkpt lat="43.151747" lon="-4.917879">
        <ele>947.141</ele>
        <time>2021-08-02T14:16:22Z</time>
      </trkpt>
      <trkpt lat="43.151763" lon="-4.91794">
        <ele>947.028</ele>
        <time>2021-08-02T14:16:26Z</time>
      </trkpt>
      <trkpt lat="43.151781" lon="-4.918008">
        <ele>946.989</ele>
        <time>2021-08-02T14:16:31Z</time>
      </trkpt>
      <trkpt lat="43.151764" lon="-4.918071">
        <ele>946.917</ele>
        <time>2021-08-02T14:16:35Z</time>
      </trkpt>
      <trkpt lat="43.151761" lon="-4.918139">
        <ele>946.908</ele>
        <time>2021-08-02T14:16:39Z</time>
      </trkpt>
      <trkpt lat="43.151763" lon="-4.918218">
        <ele>946.989</ele>
        <time>2021-08-02T14:16:43Z</time>
      </trkpt>
      <trkpt lat="43.151778" lon="-4.91828">
        <ele>946.921</ele>
        <time>2021-08-02T14:16:47Z</time>
      </trkpt>
      <trkpt lat="43.151799" lon="-4.918339">
        <ele>946.910</ele>
        <time>2021-08-02T14:16:50Z</time>
      </trkpt>
      <trkpt lat="43.151795" lon="-4.918406">
        <ele>947.088</ele>
        <time>2021-08-02T14:16:55Z</time>
      </trkpt>
      <trkpt lat="43.151825" lon="-4.91846">
        <ele>947.178</ele>
        <time>2021-08-02T14:17:01Z</time>
      </trkpt>
      <trkpt lat="43.151867" lon="-4.918491">
        <ele>947.156</ele>
        <time>2021-08-02T14:17:05Z</time>
      </trkpt>
      <trkpt lat="43.151884" lon="-4.918551">
        <ele>946.329</ele>
        <time>2021-08-02T14:17:08Z</time>
      </trkpt>
      <trkpt lat="43.151877" lon="-4.918627">
        <ele>945.757</ele>
        <time>2021-08-02T14:17:13Z</time>
      </trkpt>
      <trkpt lat="43.151884" lon="-4.918688">
        <ele>945.396</ele>
        <time>2021-08-02T14:17:16Z</time>
      </trkpt>
      <trkpt lat="43.151878" lon="-4.918754">
        <ele>944.931</ele>
        <time>2021-08-02T14:17:22Z</time>
      </trkpt>
      <trkpt lat="43.151871" lon="-4.918826">
        <ele>944.224</ele>
        <time>2021-08-02T14:17:26Z</time>
      </trkpt>
      <trkpt lat="43.151863" lon="-4.918889">
        <ele>943.808</ele>
        <time>2021-08-02T14:17:31Z</time>
      </trkpt>
      <trkpt lat="43.151863" lon="-4.918957">
        <ele>943.576</ele>
        <time>2021-08-02T14:17:35Z</time>
      </trkpt>
      <trkpt lat="43.151848" lon="-4.919019">
        <ele>943.258</ele>
        <time>2021-08-02T14:17:38Z</time>
      </trkpt>
      <trkpt lat="43.151839" lon="-4.919081">
        <ele>943.047</ele>
        <time>2021-08-02T14:17:42Z</time>
      </trkpt>
      <trkpt lat="43.151844" lon="-4.919148">
        <ele>942.855</ele>
        <time>2021-08-02T14:17:46Z</time>
      </trkpt>
      <trkpt lat="43.151893" lon="-4.919162">
        <ele>942.625</ele>
        <time>2021-08-02T14:17:51Z</time>
      </trkpt>
      <trkpt lat="43.151938" lon="-4.919174">
        <ele>942.323</ele>
        <time>2021-08-02T14:17:54Z</time>
      </trkpt>
      <trkpt lat="43.151974" lon="-4.919219">
        <ele>942.156</ele>
        <time>2021-08-02T14:17:58Z</time>
      </trkpt>
      <trkpt lat="43.152011" lon="-4.919254">
        <ele>942.984</ele>
        <time>2021-08-02T14:18:01Z</time>
      </trkpt>
      <trkpt lat="43.15205" lon="-4.919292">
        <ele>943.458</ele>
        <time>2021-08-02T14:18:05Z</time>
      </trkpt>
      <trkpt lat="43.152093" lon="-4.919322">
        <ele>943.552</ele>
        <time>2021-08-02T14:18:09Z</time>
      </trkpt>
      <trkpt lat="43.152134" lon="-4.919352">
        <ele>943.517</ele>
        <time>2021-08-02T14:18:13Z</time>
      </trkpt>
      <trkpt lat="43.152172" lon="-4.919386">
        <ele>943.308</ele>
        <time>2021-08-02T14:18:17Z</time>
      </trkpt>
      <trkpt lat="43.152219" lon="-4.919392">
        <ele>943.262</ele>
        <time>2021-08-02T14:18:23Z</time>
      </trkpt>
      <trkpt lat="43.152266" lon="-4.919405">
        <ele>943.174</ele>
        <time>2021-08-02T14:18:26Z</time>
      </trkpt>
      <trkpt lat="43.152297" lon="-4.919452">
        <ele>943.113</ele>
        <time>2021-08-02T14:18:30Z</time>
      </trkpt>
      <trkpt lat="43.152325" lon="-4.919518">
        <ele>943.071</ele>
        <time>2021-08-02T14:18:34Z</time>
      </trkpt>
      <trkpt lat="43.152342" lon="-4.919599">
        <ele>944.331</ele>
        <time>2021-08-02T14:18:39Z</time>
      </trkpt>
      <trkpt lat="43.152368" lon="-4.919658">
        <ele>945.299</ele>
        <time>2021-08-02T14:18:44Z</time>
      </trkpt>
      <trkpt lat="43.152422" lon="-4.919672">
        <ele>945.712</ele>
        <time>2021-08-02T14:18:49Z</time>
      </trkpt>
      <trkpt lat="43.152472" lon="-4.91967">
        <ele>946.040</ele>
        <time>2021-08-02T14:18:54Z</time>
      </trkpt>
      <trkpt lat="43.152421" lon="-4.919666">
        <ele>946.245</ele>
        <time>2021-08-02T14:19:04Z</time>
      </trkpt>
      <trkpt lat="43.152392" lon="-4.919725">
        <ele>946.347</ele>
        <time>2021-08-02T14:19:09Z</time>
      </trkpt>
      <trkpt lat="43.152359" lon="-4.91977">
        <ele>946.411</ele>
        <time>2021-08-02T14:19:16Z</time>
      </trkpt>
      <trkpt lat="43.152332" lon="-4.919821">
        <ele>946.408</ele>
        <time>2021-08-02T14:19:23Z</time>
      </trkpt>
      <trkpt lat="43.152347" lon="-4.919881">
        <ele>946.421</ele>
        <time>2021-08-02T14:19:28Z</time>
      </trkpt>
      <trkpt lat="43.15239" lon="-4.919909">
        <ele>946.483</ele>
        <time>2021-08-02T14:19:31Z</time>
      </trkpt>
      <trkpt lat="43.1524" lon="-4.91997">
        <ele>946.462</ele>
        <time>2021-08-02T14:19:35Z</time>
      </trkpt>
      <trkpt lat="43.152376" lon="-4.920032">
        <ele>946.470</ele>
        <time>2021-08-02T14:19:40Z</time>
      </trkpt>
      <trkpt lat="43.152353" lon="-4.920086">
        <ele>946.460</ele>
        <time>2021-08-02T14:19:44Z</time>
      </trkpt>
      <trkpt lat="43.152329" lon="-4.920146">
        <ele>946.488</ele>
        <time>2021-08-02T14:19:49Z</time>
      </trkpt>
      <trkpt lat="43.152312" lon="-4.920212">
        <ele>944.161</ele>
        <time>2021-08-02T14:19:54Z</time>
      </trkpt>
      <trkpt lat="43.152303" lon="-4.920274">
        <ele>942.879</ele>
        <time>2021-08-02T14:19:58Z</time>
      </trkpt>
      <trkpt lat="43.152307" lon="-4.920339">
        <ele>942.193</ele>
        <time>2021-08-02T14:20:02Z</time>
      </trkpt>
      <trkpt lat="43.152328" lon="-4.920395">
        <ele>941.765</ele>
        <time>2021-08-02T14:20:05Z</time>
      </trkpt>
      <trkpt lat="43.152352" lon="-4.920448">
        <ele>941.521</ele>
        <time>2021-08-02T14:20:09Z</time>
      </trkpt>
      <trkpt lat="43.152369" lon="-4.920509">
        <ele>941.308</ele>
        <time>2021-08-02T14:20:12Z</time>
      </trkpt>
      <trkpt lat="43.152394" lon="-4.92056">
        <ele>941.336</ele>
        <time>2021-08-02T14:20:15Z</time>
      </trkpt>
      <trkpt lat="43.152427" lon="-4.920613">
        <ele>941.318</ele>
        <time>2021-08-02T14:20:19Z</time>
      </trkpt>
      <trkpt lat="43.152481" lon="-4.920623">
        <ele>941.397</ele>
        <time>2021-08-02T14:20:23Z</time>
      </trkpt>
      <trkpt lat="43.152517" lon="-4.920664">
        <ele>941.285</ele>
        <time>2021-08-02T14:20:42Z</time>
      </trkpt>
      <trkpt lat="43.152553" lon="-4.920703">
        <ele>941.185</ele>
        <time>2021-08-02T14:20:45Z</time>
      </trkpt>
      <trkpt lat="43.152584" lon="-4.920755">
        <ele>941.153</ele>
        <time>2021-08-02T14:20:50Z</time>
      </trkpt>
      <trkpt lat="43.152619" lon="-4.920803">
        <ele>941.146</ele>
        <time>2021-08-02T14:20:54Z</time>
      </trkpt>
      <trkpt lat="43.152653" lon="-4.92085">
        <ele>941.254</ele>
        <time>2021-08-02T14:20:58Z</time>
      </trkpt>
      <trkpt lat="43.152696" lon="-4.920881">
        <ele>941.367</ele>
        <time>2021-08-02T14:21:04Z</time>
      </trkpt>
      <trkpt lat="43.152744" lon="-4.92089">
        <ele>941.381</ele>
        <time>2021-08-02T14:21:09Z</time>
      </trkpt>
      <trkpt lat="43.152793" lon="-4.920882">
        <ele>941.319</ele>
        <time>2021-08-02T14:21:13Z</time>
      </trkpt>
      <trkpt lat="43.152839" lon="-4.920899">
        <ele>941.308</ele>
        <time>2021-08-02T14:21:18Z</time>
      </trkpt>
      <trkpt lat="43.152882" lon="-4.920926">
        <ele>941.353</ele>
        <time>2021-08-02T14:21:23Z</time>
      </trkpt>
      <trkpt lat="43.152927" lon="-4.920918">
        <ele>941.325</ele>
        <time>2021-08-02T14:21:28Z</time>
      </trkpt>
      <trkpt lat="43.152972" lon="-4.920907">
        <ele>941.384</ele>
        <time>2021-08-02T14:21:31Z</time>
      </trkpt>
      <trkpt lat="43.15303" lon="-4.920921">
        <ele>941.332</ele>
        <time>2021-08-02T14:21:35Z</time>
      </trkpt>
      <trkpt lat="43.153083" lon="-4.920897">
        <ele>941.382</ele>
        <time>2021-08-02T14:21:40Z</time>
      </trkpt>
      <trkpt lat="43.15313" lon="-4.920893">
        <ele>941.360</ele>
        <time>2021-08-02T14:21:44Z</time>
      </trkpt>
      <trkpt lat="43.15318" lon="-4.920902">
        <ele>941.323</ele>
        <time>2021-08-02T14:21:48Z</time>
      </trkpt>
      <trkpt lat="43.153224" lon="-4.920917">
        <ele>941.331</ele>
        <time>2021-08-02T14:21:58Z</time>
      </trkpt>
      <trkpt lat="43.153259" lon="-4.92087">
        <ele>941.349</ele>
        <time>2021-08-02T14:22:02Z</time>
      </trkpt>
      <trkpt lat="43.153306" lon="-4.920819">
        <ele>941.302</ele>
        <time>2021-08-02T14:22:06Z</time>
      </trkpt>
      <trkpt lat="43.153353" lon="-4.920792">
        <ele>941.222</ele>
        <time>2021-08-02T14:22:09Z</time>
      </trkpt>
      <trkpt lat="43.153399" lon="-4.920777">
        <ele>941.208</ele>
        <time>2021-08-02T14:22:13Z</time>
      </trkpt>
      <trkpt lat="43.153451" lon="-4.920758">
        <ele>941.271</ele>
        <time>2021-08-02T14:22:16Z</time>
      </trkpt>
      <trkpt lat="43.153494" lon="-4.920738">
        <ele>941.293</ele>
        <time>2021-08-02T14:22:20Z</time>
      </trkpt>
      <trkpt lat="43.153539" lon="-4.920731">
        <ele>941.222</ele>
        <time>2021-08-02T14:22:23Z</time>
      </trkpt>
      <trkpt lat="43.153586" lon="-4.920723">
        <ele>941.210</ele>
        <time>2021-08-02T14:22:26Z</time>
      </trkpt>
      <trkpt lat="43.153637" lon="-4.920715">
        <ele>941.270</ele>
        <time>2021-08-02T14:22:31Z</time>
      </trkpt>
      <trkpt lat="43.153687" lon="-4.920675">
        <ele>941.268</ele>
        <time>2021-08-02T14:22:36Z</time>
      </trkpt>
      <trkpt lat="43.153726" lon="-4.92064">
        <ele>937.241</ele>
        <time>2021-08-02T14:22:40Z</time>
      </trkpt>
      <trkpt lat="43.153765" lon="-4.920601">
        <ele>933.269</ele>
        <time>2021-08-02T14:22:44Z</time>
      </trkpt>
      <trkpt lat="43.153807" lon="-4.920563">
        <ele>929.247</ele>
        <time>2021-08-02T14:22:48Z</time>
      </trkpt>
      <trkpt lat="43.15385" lon="-4.920535">
        <ele>925.229</ele>
        <time>2021-08-02T14:22:51Z</time>
      </trkpt>
      <trkpt lat="43.153895" lon="-4.920515">
        <ele>921.221</ele>
        <time>2021-08-02T14:22:55Z</time>
      </trkpt>
      <trkpt lat="43.153943" lon="-4.920491">
        <ele>917.408</ele>
        <time>2021-08-02T14:23:00Z</time>
      </trkpt>
      <trkpt lat="43.153987" lon="-4.920462">
        <ele>914.651</ele>
        <time>2021-08-02T14:23:03Z</time>
      </trkpt>
      <trkpt lat="43.15403" lon="-4.920439">
        <ele>913.633</ele>
        <time>2021-08-02T14:23:07Z</time>
      </trkpt>
      <trkpt lat="43.154086" lon="-4.920405">
        <ele>913.312</ele>
        <time>2021-08-02T14:23:11Z</time>
      </trkpt>
      <trkpt lat="43.154134" lon="-4.920374">
        <ele>913.440</ele>
        <time>2021-08-02T14:23:16Z</time>
      </trkpt>
      <trkpt lat="43.15418" lon="-4.920344">
        <ele>913.780</ele>
        <time>2021-08-02T14:23:21Z</time>
      </trkpt>
      <trkpt lat="43.154224" lon="-4.920315">
        <ele>913.738</ele>
        <time>2021-08-02T14:23:26Z</time>
      </trkpt>
      <trkpt lat="43.154268" lon="-4.920289">
        <ele>913.751</ele>
        <time>2021-08-02T14:23:30Z</time>
      </trkpt>
      <trkpt lat="43.154318" lon="-4.920282">
        <ele>913.789</ele>
        <time>2021-08-02T14:23:34Z</time>
      </trkpt>
      <trkpt lat="43.154365" lon="-4.920294">
        <ele>913.717</ele>
        <time>2021-08-02T14:23:38Z</time>
      </trkpt>
      <trkpt lat="43.154411" lon="-4.920298">
        <ele>913.787</ele>
        <time>2021-08-02T14:23:43Z</time>
      </trkpt>
      <trkpt lat="43.154465" lon="-4.920275">
        <ele>913.715</ele>
        <time>2021-08-02T14:23:46Z</time>
      </trkpt>
      <trkpt lat="43.154513" lon="-4.920229">
        <ele>913.708</ele>
        <time>2021-08-02T14:23:51Z</time>
      </trkpt>
      <trkpt lat="43.154553" lon="-4.920183">
        <ele>913.738</ele>
        <time>2021-08-02T14:23:56Z</time>
      </trkpt>
      <trkpt lat="43.154593" lon="-4.920136">
        <ele>913.750</ele>
        <time>2021-08-02T14:24:01Z</time>
      </trkpt>
      <trkpt lat="43.154641" lon="-4.920099">
        <ele>913.759</ele>
        <time>2021-08-02T14:24:06Z</time>
      </trkpt>
      <trkpt lat="43.154681" lon="-4.920067">
        <ele>913.767</ele>
        <time>2021-08-02T14:24:11Z</time>
      </trkpt>
      <trkpt lat="43.154726" lon="-4.920047">
        <ele>913.727</ele>
        <time>2021-08-02T14:24:15Z</time>
      </trkpt>
      <trkpt lat="43.154773" lon="-4.920053">
        <ele>913.755</ele>
        <time>2021-08-02T14:24:18Z</time>
      </trkpt>
      <trkpt lat="43.154822" lon="-4.920055">
        <ele>913.718</ele>
        <time>2021-08-02T14:24:22Z</time>
      </trkpt>
      <trkpt lat="43.154872" lon="-4.920048">
        <ele>913.786</ele>
        <time>2021-08-02T14:24:26Z</time>
      </trkpt>
      <trkpt lat="43.154915" lon="-4.920029">
        <ele>913.771</ele>
        <time>2021-08-02T14:24:30Z</time>
      </trkpt>
      <trkpt lat="43.154963" lon="-4.92001">
        <ele>913.741</ele>
        <time>2021-08-02T14:24:34Z</time>
      </trkpt>
      <trkpt lat="43.155008" lon="-4.919992">
        <ele>913.715</ele>
        <time>2021-08-02T14:24:37Z</time>
      </trkpt>
      <trkpt lat="43.155059" lon="-4.919986">
        <ele>913.708</ele>
        <time>2021-08-02T14:24:41Z</time>
      </trkpt>
      <trkpt lat="43.155107" lon="-4.919993">
        <ele>913.734</ele>
        <time>2021-08-02T14:24:45Z</time>
      </trkpt>
      <trkpt lat="43.155154" lon="-4.919999">
        <ele>913.716</ele>
        <time>2021-08-02T14:24:49Z</time>
      </trkpt>
      <trkpt lat="43.155202" lon="-4.919993">
        <ele>913.725</ele>
        <time>2021-08-02T14:24:53Z</time>
      </trkpt>
      <trkpt lat="43.155249" lon="-4.91997">
        <ele>913.743</ele>
        <time>2021-08-02T14:24:56Z</time>
      </trkpt>
      <trkpt lat="43.155281" lon="-4.919927">
        <ele>913.713</ele>
        <time>2021-08-02T14:25:00Z</time>
      </trkpt>
      <trkpt lat="43.155313" lon="-4.919875">
        <ele>913.711</ele>
        <time>2021-08-02T14:25:03Z</time>
      </trkpt>
      <trkpt lat="43.155344" lon="-4.919812">
        <ele>913.794</ele>
        <time>2021-08-02T14:25:07Z</time>
      </trkpt>
      <trkpt lat="43.155364" lon="-4.919748">
        <ele>913.732</ele>
        <time>2021-08-02T14:25:10Z</time>
      </trkpt>
      <trkpt lat="43.155384" lon="-4.919689">
        <ele>913.733</ele>
        <time>2021-08-02T14:25:13Z</time>
      </trkpt>
      <trkpt lat="43.155414" lon="-4.919638">
        <ele>913.723</ele>
        <time>2021-08-02T14:25:16Z</time>
      </trkpt>
      <trkpt lat="43.155451" lon="-4.919585">
        <ele>913.715</ele>
        <time>2021-08-02T14:25:19Z</time>
      </trkpt>
      <trkpt lat="43.155482" lon="-4.919534">
        <ele>913.708</ele>
        <time>2021-08-02T14:25:22Z</time>
      </trkpt>
      <trkpt lat="43.155502" lon="-4.919475">
        <ele>913.760</ele>
        <time>2021-08-02T14:25:25Z</time>
      </trkpt>
      <trkpt lat="43.155519" lon="-4.919415">
        <ele>913.712</ele>
        <time>2021-08-02T14:25:29Z</time>
      </trkpt>
      <trkpt lat="43.155533" lon="-4.919347">
        <ele>913.781</ele>
        <time>2021-08-02T14:25:32Z</time>
      </trkpt>
      <trkpt lat="43.155558" lon="-4.919275">
        <ele>913.799</ele>
        <time>2021-08-02T14:25:35Z</time>
      </trkpt>
      <trkpt lat="43.155597" lon="-4.919212">
        <ele>913.769</ele>
        <time>2021-08-02T14:25:40Z</time>
      </trkpt>
      <trkpt lat="43.155634" lon="-4.919164">
        <ele>913.737</ele>
        <time>2021-08-02T14:25:44Z</time>
      </trkpt>
      <trkpt lat="43.155668" lon="-4.919124">
        <ele>913.720</ele>
        <time>2021-08-02T14:25:48Z</time>
      </trkpt>
      <trkpt lat="43.155703" lon="-4.919075">
        <ele>913.718</ele>
        <time>2021-08-02T14:25:52Z</time>
      </trkpt>
      <trkpt lat="43.155732" lon="-4.919015">
        <ele>913.726</ele>
        <time>2021-08-02T14:25:55Z</time>
      </trkpt>
      <trkpt lat="43.15576" lon="-4.918965">
        <ele>913.747</ele>
        <time>2021-08-02T14:25:58Z</time>
      </trkpt>
      <trkpt lat="43.155785" lon="-4.918909">
        <ele>913.711</ele>
        <time>2021-08-02T14:26:02Z</time>
      </trkpt>
      <trkpt lat="43.155816" lon="-4.918862">
        <ele>913.808</ele>
        <time>2021-08-02T14:26:05Z</time>
      </trkpt>
      <trkpt lat="43.155856" lon="-4.918821">
        <ele>913.949</ele>
        <time>2021-08-02T14:26:10Z</time>
      </trkpt>
      <trkpt lat="43.155896" lon="-4.918783">
        <ele>913.961</ele>
        <time>2021-08-02T14:26:14Z</time>
      </trkpt>
      <trkpt lat="43.155933" lon="-4.918738">
        <ele>913.920</ele>
        <time>2021-08-02T14:26:19Z</time>
      </trkpt>
      <trkpt lat="43.155966" lon="-4.918694">
        <ele>913.978</ele>
        <time>2021-08-02T14:26:23Z</time>
      </trkpt>
      <trkpt lat="43.155994" lon="-4.918642">
        <ele>913.938</ele>
        <time>2021-08-02T14:26:27Z</time>
      </trkpt>
      <trkpt lat="43.15602" lon="-4.918591">
        <ele>913.966</ele>
        <time>2021-08-02T14:26:30Z</time>
      </trkpt>
      <trkpt lat="43.156044" lon="-4.918518">
        <ele>913.929</ele>
        <time>2021-08-02T14:26:34Z</time>
      </trkpt>
      <trkpt lat="43.156047" lon="-4.918456">
        <ele>914.027</ele>
        <time>2021-08-02T14:26:37Z</time>
      </trkpt>
      <trkpt lat="43.156062" lon="-4.918391">
        <ele>914.058</ele>
        <time>2021-08-02T14:26:41Z</time>
      </trkpt>
      <trkpt lat="43.156104" lon="-4.918352">
        <ele>914.052</ele>
        <time>2021-08-02T14:26:45Z</time>
      </trkpt>
      <trkpt lat="43.156139" lon="-4.918301">
        <ele>914.017</ele>
        <time>2021-08-02T14:26:48Z</time>
      </trkpt>
      <trkpt lat="43.156162" lon="-4.918247">
        <ele>914.008</ele>
        <time>2021-08-02T14:26:52Z</time>
      </trkpt>
      <trkpt lat="43.15619" lon="-4.918193">
        <ele>914.052</ele>
        <time>2021-08-02T14:26:56Z</time>
      </trkpt>
      <trkpt lat="43.156217" lon="-4.91814">
        <ele>914.084</ele>
        <time>2021-08-02T14:27:00Z</time>
      </trkpt>
      <trkpt lat="43.156242" lon="-4.918084">
        <ele>914.033</ele>
        <time>2021-08-02T14:27:04Z</time>
      </trkpt>
      <trkpt lat="43.156266" lon="-4.918031">
        <ele>914.041</ele>
        <time>2021-08-02T14:27:08Z</time>
      </trkpt>
      <trkpt lat="43.156301" lon="-4.917986">
        <ele>914.031</ele>
        <time>2021-08-02T14:27:12Z</time>
      </trkpt>
      <trkpt lat="43.156335" lon="-4.917943">
        <ele>918.059</ele>
        <time>2021-08-02T14:27:16Z</time>
      </trkpt>
      <trkpt lat="43.156371" lon="-4.917906">
        <ele>922.012</ele>
        <time>2021-08-02T14:27:20Z</time>
      </trkpt>
      <trkpt lat="43.156409" lon="-4.917861">
        <ele>926.090</ele>
        <time>2021-08-02T14:27:24Z</time>
      </trkpt>
      <trkpt lat="43.156447" lon="-4.917813">
        <ele>928.489</ele>
        <time>2021-08-02T14:27:28Z</time>
      </trkpt>
      <trkpt lat="43.156482" lon="-4.917773">
        <ele>929.606</ele>
        <time>2021-08-02T14:27:32Z</time>
      </trkpt>
      <trkpt lat="43.156514" lon="-4.917728">
        <ele>931.326</ele>
        <time>2021-08-02T14:27:36Z</time>
      </trkpt>
      <trkpt lat="43.156559" lon="-4.91768">
        <ele>932.308</ele>
        <time>2021-08-02T14:27:40Z</time>
      </trkpt>
      <trkpt lat="43.156593" lon="-4.91763">
        <ele>932.425</ele>
        <time>2021-08-02T14:27:44Z</time>
      </trkpt>
      <trkpt lat="43.156632" lon="-4.917579">
        <ele>932.537</ele>
        <time>2021-08-02T14:27:47Z</time>
      </trkpt>
      <trkpt lat="43.156629" lon="-4.917517">
        <ele>933.546</ele>
        <time>2021-08-02T14:27:52Z</time>
      </trkpt>
      <trkpt lat="43.156679" lon="-4.917509">
        <ele>932.674</ele>
        <time>2021-08-02T14:28:07Z</time>
      </trkpt>
      <trkpt lat="43.156727" lon="-4.917502">
        <ele>932.354</ele>
        <time>2021-08-02T14:28:17Z</time>
      </trkpt>
      <trkpt lat="43.15677" lon="-4.917458">
        <ele>932.112</ele>
        <time>2021-08-02T14:28:20Z</time>
      </trkpt>
      <trkpt lat="43.1568" lon="-4.917412">
        <ele>932.135</ele>
        <time>2021-08-02T14:28:24Z</time>
      </trkpt>
      <trkpt lat="43.156833" lon="-4.917359">
        <ele>931.583</ele>
        <time>2021-08-02T14:28:28Z</time>
      </trkpt>
      <trkpt lat="43.156859" lon="-4.917298">
        <ele>931.046</ele>
        <time>2021-08-02T14:28:32Z</time>
      </trkpt>
      <trkpt lat="43.156887" lon="-4.91722">
        <ele>930.788</ele>
        <time>2021-08-02T14:28:35Z</time>
      </trkpt>
      <trkpt lat="43.156918" lon="-4.917165">
        <ele>930.316</ele>
        <time>2021-08-02T14:28:39Z</time>
      </trkpt>
      <trkpt lat="43.156956" lon="-4.917121">
        <ele>931.408</ele>
        <time>2021-08-02T14:28:43Z</time>
      </trkpt>
      <trkpt lat="43.156987" lon="-4.917072">
        <ele>931.381</ele>
        <time>2021-08-02T14:28:48Z</time>
      </trkpt>
      <trkpt lat="43.157019" lon="-4.917028">
        <ele>931.633</ele>
        <time>2021-08-02T14:28:52Z</time>
      </trkpt>
      <trkpt lat="43.157046" lon="-4.916975">
        <ele>932.242</ele>
        <time>2021-08-02T14:28:55Z</time>
      </trkpt>
      <trkpt lat="43.157066" lon="-4.916913">
        <ele>932.460</ele>
        <time>2021-08-02T14:28:59Z</time>
      </trkpt>
      <trkpt lat="43.157096" lon="-4.916859">
        <ele>932.150</ele>
        <time>2021-08-02T14:29:03Z</time>
      </trkpt>
      <trkpt lat="43.157135" lon="-4.916819">
        <ele>933.298</ele>
        <time>2021-08-02T14:29:07Z</time>
      </trkpt>
      <trkpt lat="43.157176" lon="-4.91678">
        <ele>933.281</ele>
        <time>2021-08-02T14:29:10Z</time>
      </trkpt>
      <trkpt lat="43.157229" lon="-4.916741">
        <ele>933.569</ele>
        <time>2021-08-02T14:29:15Z</time>
      </trkpt>
      <trkpt lat="43.157275" lon="-4.916704">
        <ele>933.175</ele>
        <time>2021-08-02T14:29:20Z</time>
      </trkpt>
      <trkpt lat="43.157311" lon="-4.916666">
        <ele>933.628</ele>
        <time>2021-08-02T14:29:25Z</time>
      </trkpt>
      <trkpt lat="43.157349" lon="-4.916628">
        <ele>932.620</ele>
        <time>2021-08-02T14:29:28Z</time>
      </trkpt>
      <trkpt lat="43.157384" lon="-4.916584">
        <ele>933.108</ele>
        <time>2021-08-02T14:29:33Z</time>
      </trkpt>
      <trkpt lat="43.157409" lon="-4.916529">
        <ele>932.854</ele>
        <time>2021-08-02T14:29:37Z</time>
      </trkpt>
      <trkpt lat="43.157436" lon="-4.916479">
        <ele>932.676</ele>
        <time>2021-08-02T14:29:40Z</time>
      </trkpt>
      <trkpt lat="43.157473" lon="-4.916429">
        <ele>931.825</ele>
        <time>2021-08-02T14:29:45Z</time>
      </trkpt>
      <trkpt lat="43.157503" lon="-4.916374">
        <ele>932.033</ele>
        <time>2021-08-02T14:29:49Z</time>
      </trkpt>
      <trkpt lat="43.157532" lon="-4.916327">
        <ele>931.993</ele>
        <time>2021-08-02T14:29:53Z</time>
      </trkpt>
      <trkpt lat="43.157548" lon="-4.916264">
        <ele>930.811</ele>
        <time>2021-08-02T14:29:57Z</time>
      </trkpt>
      <trkpt lat="43.15758" lon="-4.916194">
        <ele>930.984</ele>
        <time>2021-08-02T14:30:01Z</time>
      </trkpt>
      <trkpt lat="43.157607" lon="-4.916139">
        <ele>931.172</ele>
        <time>2021-08-02T14:30:07Z</time>
      </trkpt>
      <trkpt lat="43.157647" lon="-4.916095">
        <ele>930.327</ele>
        <time>2021-08-02T14:30:11Z</time>
      </trkpt>
      <trkpt lat="43.157687" lon="-4.916059">
        <ele>929.868</ele>
        <time>2021-08-02T14:30:15Z</time>
      </trkpt>
      <trkpt lat="43.157727" lon="-4.91602">
        <ele>930.514</ele>
        <time>2021-08-02T14:30:20Z</time>
      </trkpt>
      <trkpt lat="43.157765" lon="-4.915962">
        <ele>931.308</ele>
        <time>2021-08-02T14:30:25Z</time>
      </trkpt>
      <trkpt lat="43.157792" lon="-4.915912">
        <ele>930.419</ele>
        <time>2021-08-02T14:30:31Z</time>
      </trkpt>
      <trkpt lat="43.157836" lon="-4.915872">
        <ele>931.891</ele>
        <time>2021-08-02T14:30:35Z</time>
      </trkpt>
      <trkpt lat="43.157882" lon="-4.915846">
        <ele>931.640</ele>
        <time>2021-08-02T14:30:40Z</time>
      </trkpt>
      <trkpt lat="43.157924" lon="-4.915821">
        <ele>931.768</ele>
        <time>2021-08-02T14:30:45Z</time>
      </trkpt>
      <trkpt lat="43.15793" lon="-4.915759">
        <ele>931.728</ele>
        <time>2021-08-02T14:32:34Z</time>
      </trkpt>
      <trkpt lat="43.157925" lon="-4.915688">
        <ele>935.516</ele>
        <time>2021-08-02T14:32:36Z</time>
      </trkpt>
      <trkpt lat="43.157971" lon="-4.915689">
        <ele>936.999</ele>
        <time>2021-08-02T14:32:45Z</time>
      </trkpt>
      <trkpt lat="43.158016" lon="-4.915721">
        <ele>938.847</ele>
        <time>2021-08-02T14:32:49Z</time>
      </trkpt>
      <trkpt lat="43.158061" lon="-4.915702">
        <ele>939.965</ele>
        <time>2021-08-02T14:32:54Z</time>
      </trkpt>
      <trkpt lat="43.158106" lon="-4.915692">
        <ele>939.868</ele>
        <time>2021-08-02T14:33:00Z</time>
      </trkpt>
      <trkpt lat="43.158157" lon="-4.9157">
        <ele>940.514</ele>
        <time>2021-08-02T14:33:05Z</time>
      </trkpt>
      <trkpt lat="43.158209" lon="-4.915718">
        <ele>939.908</ele>
        <time>2021-08-02T14:33:09Z</time>
      </trkpt>
      <trkpt lat="43.158253" lon="-4.915742">
        <ele>940.053</ele>
        <time>2021-08-02T14:33:13Z</time>
      </trkpt>
      <trkpt lat="43.1583" lon="-4.915771">
        <ele>939.925</ele>
        <time>2021-08-02T14:33:16Z</time>
      </trkpt>
      <trkpt lat="43.158344" lon="-4.915786">
        <ele>939.964</ele>
        <time>2021-08-02T14:33:19Z</time>
      </trkpt>
      <trkpt lat="43.15839" lon="-4.915799">
        <ele>939.762</ele>
        <time>2021-08-02T14:33:23Z</time>
      </trkpt>
      <trkpt lat="43.158439" lon="-4.915813">
        <ele>939.532</ele>
        <time>2021-08-02T14:33:26Z</time>
      </trkpt>
      <trkpt lat="43.158489" lon="-4.915816">
        <ele>939.060</ele>
        <time>2021-08-02T14:33:30Z</time>
      </trkpt>
      <trkpt lat="43.158537" lon="-4.915817">
        <ele>938.753</ele>
        <time>2021-08-02T14:33:33Z</time>
      </trkpt>
      <trkpt lat="43.158599" lon="-4.915812">
        <ele>938.571</ele>
        <time>2021-08-02T14:33:37Z</time>
      </trkpt>
      <trkpt lat="43.158648" lon="-4.915808">
        <ele>938.258</ele>
        <time>2021-08-02T14:33:41Z</time>
      </trkpt>
      <trkpt lat="43.158699" lon="-4.91581">
        <ele>938.252</ele>
        <time>2021-08-02T14:33:45Z</time>
      </trkpt>
      <trkpt lat="43.158746" lon="-4.915799">
        <ele>937.317</ele>
        <time>2021-08-02T14:33:49Z</time>
      </trkpt>
      <trkpt lat="43.158788" lon="-4.915764">
        <ele>936.708</ele>
        <time>2021-08-02T14:33:54Z</time>
      </trkpt>
      <trkpt lat="43.158819" lon="-4.915719">
        <ele>936.732</ele>
        <time>2021-08-02T14:33:58Z</time>
      </trkpt>
      <trkpt lat="43.158865" lon="-4.915691">
        <ele>936.854</ele>
        <time>2021-08-02T14:34:02Z</time>
      </trkpt>
      <trkpt lat="43.158902" lon="-4.915644">
        <ele>936.543</ele>
        <time>2021-08-02T14:34:06Z</time>
      </trkpt>
      <trkpt lat="43.158943" lon="-4.915608">
        <ele>936.811</ele>
        <time>2021-08-02T14:34:10Z</time>
      </trkpt>
      <trkpt lat="43.158988" lon="-4.915589">
        <ele>937.131</ele>
        <time>2021-08-02T14:34:14Z</time>
      </trkpt>
      <trkpt lat="43.15903" lon="-4.915561">
        <ele>937.289</ele>
        <time>2021-08-02T14:34:18Z</time>
      </trkpt>
      <trkpt lat="43.159076" lon="-4.915531">
        <ele>936.662</ele>
        <time>2021-08-02T14:34:22Z</time>
      </trkpt>
      <trkpt lat="43.159116" lon="-4.915491">
        <ele>936.670</ele>
        <time>2021-08-02T14:34:26Z</time>
      </trkpt>
      <trkpt lat="43.159147" lon="-4.915444">
        <ele>936.572</ele>
        <time>2021-08-02T14:34:29Z</time>
      </trkpt>
      <trkpt lat="43.159176" lon="-4.915389">
        <ele>936.013</ele>
        <time>2021-08-02T14:34:32Z</time>
      </trkpt>
      <trkpt lat="43.159201" lon="-4.915333">
        <ele>935.914</ele>
        <time>2021-08-02T14:34:36Z</time>
      </trkpt>
      <trkpt lat="43.159231" lon="-4.915281">
        <ele>935.508</ele>
        <time>2021-08-02T14:34:40Z</time>
      </trkpt>
      <trkpt lat="43.159254" lon="-4.915222">
        <ele>936.264</ele>
        <time>2021-08-02T14:34:44Z</time>
      </trkpt>
      <trkpt lat="43.159276" lon="-4.915166">
        <ele>935.636</ele>
        <time>2021-08-02T14:34:47Z</time>
      </trkpt>
      <trkpt lat="43.159308" lon="-4.915109">
        <ele>935.145</ele>
        <time>2021-08-02T14:34:51Z</time>
      </trkpt>
      <trkpt lat="43.159355" lon="-4.915083">
        <ele>934.313</ele>
        <time>2021-08-02T14:34:56Z</time>
      </trkpt>
      <trkpt lat="43.159399" lon="-4.915105">
        <ele>933.633</ele>
        <time>2021-08-02T14:35:00Z</time>
      </trkpt>
      <trkpt lat="43.159448" lon="-4.915087">
        <ele>933.531</ele>
        <time>2021-08-02T14:35:05Z</time>
      </trkpt>
      <trkpt lat="43.159475" lon="-4.915035">
        <ele>933.164</ele>
        <time>2021-08-02T14:35:09Z</time>
      </trkpt>
      <trkpt lat="43.159507" lon="-4.914986">
        <ele>933.512</ele>
        <time>2021-08-02T14:35:12Z</time>
      </trkpt>
      <trkpt lat="43.159547" lon="-4.914948">
        <ele>933.255</ele>
        <time>2021-08-02T14:35:17Z</time>
      </trkpt>
      <trkpt lat="43.159597" lon="-4.914908">
        <ele>933.007</ele>
        <time>2021-08-02T14:35:23Z</time>
      </trkpt>
      <trkpt lat="43.15965" lon="-4.914875">
        <ele>933.217</ele>
        <time>2021-08-02T14:35:28Z</time>
      </trkpt>
      <trkpt lat="43.159689" lon="-4.914843">
        <ele>932.408</ele>
        <time>2021-08-02T14:35:32Z</time>
      </trkpt>
      <trkpt lat="43.159728" lon="-4.914803">
        <ele>932.322</ele>
        <time>2021-08-02T14:35:36Z</time>
      </trkpt>
      <trkpt lat="43.159774" lon="-4.914776">
        <ele>932.774</ele>
        <time>2021-08-02T14:35:41Z</time>
      </trkpt>
      <trkpt lat="43.159817" lon="-4.914747">
        <ele>932.653</ele>
        <time>2021-08-02T14:35:45Z</time>
      </trkpt>
      <trkpt lat="43.159841" lon="-4.91469">
        <ele>932.321</ele>
        <time>2021-08-02T14:35:53Z</time>
      </trkpt>
      <trkpt lat="43.159876" lon="-4.914736">
        <ele>931.971</ele>
        <time>2021-08-02T14:36:01Z</time>
      </trkpt>
      <trkpt lat="43.159829" lon="-4.914754">
        <ele>932.069</ele>
        <time>2021-08-02T14:36:06Z</time>
      </trkpt>
      <trkpt lat="43.159871" lon="-4.914732">
        <ele>932.982</ele>
        <time>2021-08-02T14:36:28Z</time>
      </trkpt>
      <trkpt lat="43.159904" lon="-4.914685">
        <ele>934.170</ele>
        <time>2021-08-02T14:37:18Z</time>
      </trkpt>
      <trkpt lat="43.159912" lon="-4.914758">
        <ele>935.984</ele>
        <time>2021-08-02T14:37:27Z</time>
      </trkpt>
      <trkpt lat="43.159918" lon="-4.914822">
        <ele>937.707</ele>
        <time>2021-08-02T14:37:30Z</time>
      </trkpt>
      <trkpt lat="43.159957" lon="-4.914853">
        <ele>937.917</ele>
        <time>2021-08-02T14:37:33Z</time>
      </trkpt>
      <trkpt lat="43.160004" lon="-4.914838">
        <ele>938.908</ele>
        <time>2021-08-02T14:37:37Z</time>
      </trkpt>
      <trkpt lat="43.160041" lon="-4.914803">
        <ele>938.865</ele>
        <time>2021-08-02T14:37:41Z</time>
      </trkpt>
      <trkpt lat="43.160073" lon="-4.914746">
        <ele>939.597</ele>
        <time>2021-08-02T14:37:43Z</time>
      </trkpt>
      <trkpt lat="43.160113" lon="-4.914716">
        <ele>939.256</ele>
        <time>2021-08-02T14:37:47Z</time>
      </trkpt>
      <trkpt lat="43.160164" lon="-4.914718">
        <ele>939.414</ele>
        <time>2021-08-02T14:37:51Z</time>
      </trkpt>
      <trkpt lat="43.160212" lon="-4.914737">
        <ele>939.524</ele>
        <time>2021-08-02T14:37:55Z</time>
      </trkpt>
      <trkpt lat="43.160252" lon="-4.914768">
        <ele>940.162</ele>
        <time>2021-08-02T14:37:59Z</time>
      </trkpt>
      <trkpt lat="43.160272" lon="-4.914711">
        <ele>941.015</ele>
        <time>2021-08-02T14:38:33Z</time>
      </trkpt>
      <trkpt lat="43.160285" lon="-4.914777">
        <ele>941.663</ele>
        <time>2021-08-02T14:38:39Z</time>
      </trkpt>
      <trkpt lat="43.160324" lon="-4.914822">
        <ele>941.189</ele>
        <time>2021-08-02T14:38:43Z</time>
      </trkpt>
      <trkpt lat="43.160348" lon="-4.914875">
        <ele>940.606</ele>
        <time>2021-08-02T14:38:46Z</time>
      </trkpt>
      <trkpt lat="43.160362" lon="-4.914938">
        <ele>940.126</ele>
        <time>2021-08-02T14:38:50Z</time>
      </trkpt>
      <trkpt lat="43.160389" lon="-4.914989">
        <ele>938.508</ele>
        <time>2021-08-02T14:38:54Z</time>
      </trkpt>
      <trkpt lat="43.160432" lon="-4.915028">
        <ele>937.295</ele>
        <time>2021-08-02T14:38:58Z</time>
      </trkpt>
      <trkpt lat="43.160476" lon="-4.915059">
        <ele>935.347</ele>
        <time>2021-08-02T14:39:01Z</time>
      </trkpt>
      <trkpt lat="43.160523" lon="-4.915083">
        <ele>934.866</ele>
        <time>2021-08-02T14:39:04Z</time>
      </trkpt>
      <trkpt lat="43.160569" lon="-4.915113">
        <ele>933.164</ele>
        <time>2021-08-02T14:39:08Z</time>
      </trkpt>
      <trkpt lat="43.160618" lon="-4.915132">
        <ele>931.444</ele>
        <time>2021-08-02T14:39:11Z</time>
      </trkpt>
      <trkpt lat="43.160666" lon="-4.915098">
        <ele>930.722</ele>
        <time>2021-08-02T14:39:15Z</time>
      </trkpt>
      <trkpt lat="43.160699" lon="-4.915054">
        <ele>930.375</ele>
        <time>2021-08-02T14:39:27Z</time>
      </trkpt>
      <trkpt lat="43.160747" lon="-4.915026">
        <ele>929.963</ele>
        <time>2021-08-02T14:39:33Z</time>
      </trkpt>
      <trkpt lat="43.160795" lon="-4.915012">
        <ele>929.774</ele>
        <time>2021-08-02T14:39:35Z</time>
      </trkpt>
      <trkpt lat="43.160842" lon="-4.914983">
        <ele>929.956</ele>
        <time>2021-08-02T14:39:38Z</time>
      </trkpt>
      <trkpt lat="43.160893" lon="-4.914984">
        <ele>929.621</ele>
        <time>2021-08-02T14:39:42Z</time>
      </trkpt>
      <trkpt lat="43.160936" lon="-4.915006">
        <ele>929.508</ele>
        <time>2021-08-02T14:39:46Z</time>
      </trkpt>
      <trkpt lat="43.160976" lon="-4.915039">
        <ele>929.554</ele>
        <time>2021-08-02T14:39:51Z</time>
      </trkpt>
      <trkpt lat="43.161023" lon="-4.915025">
        <ele>929.146</ele>
        <time>2021-08-02T14:39:56Z</time>
      </trkpt>
      <trkpt lat="43.161058" lon="-4.915067">
        <ele>928.715</ele>
        <time>2021-08-02T14:40:00Z</time>
      </trkpt>
      <trkpt lat="43.161097" lon="-4.915128">
        <ele>928.813</ele>
        <time>2021-08-02T14:40:05Z</time>
      </trkpt>
      <trkpt lat="43.161139" lon="-4.915174">
        <ele>928.583</ele>
        <time>2021-08-02T14:40:10Z</time>
      </trkpt>
      <trkpt lat="43.161183" lon="-4.915207">
        <ele>927.721</ele>
        <time>2021-08-02T14:40:14Z</time>
      </trkpt>
      <trkpt lat="43.161231" lon="-4.915228">
        <ele>927.144</ele>
        <time>2021-08-02T14:40:18Z</time>
      </trkpt>
      <trkpt lat="43.161276" lon="-4.915253">
        <ele>926.752</ele>
        <time>2021-08-02T14:40:21Z</time>
      </trkpt>
      <trkpt lat="43.16133" lon="-4.915285">
        <ele>926.518</ele>
        <time>2021-08-02T14:40:25Z</time>
      </trkpt>
      <trkpt lat="43.161377" lon="-4.915315">
        <ele>925.398</ele>
        <time>2021-08-02T14:40:29Z</time>
      </trkpt>
      <trkpt lat="43.16142" lon="-4.915346">
        <ele>924.317</ele>
        <time>2021-08-02T14:40:33Z</time>
      </trkpt>
      <trkpt lat="43.16146" lon="-4.915383">
        <ele>923.908</ele>
        <time>2021-08-02T14:40:37Z</time>
      </trkpt>
      <trkpt lat="43.161504" lon="-4.915402">
        <ele>923.028</ele>
        <time>2021-08-02T14:40:41Z</time>
      </trkpt>
      <trkpt lat="43.16156" lon="-4.915422">
        <ele>922.790</ele>
        <time>2021-08-02T14:40:45Z</time>
      </trkpt>
      <trkpt lat="43.161606" lon="-4.915411">
        <ele>921.889</ele>
        <time>2021-08-02T14:40:49Z</time>
      </trkpt>
      <trkpt lat="43.161646" lon="-4.915379">
        <ele>921.547</ele>
        <time>2021-08-02T14:40:52Z</time>
      </trkpt>
      <trkpt lat="43.161691" lon="-4.915355">
        <ele>920.897</ele>
        <time>2021-08-02T14:40:56Z</time>
      </trkpt>
      <trkpt lat="43.161737" lon="-4.915361">
        <ele>920.895</ele>
        <time>2021-08-02T14:40:59Z</time>
      </trkpt>
      <trkpt lat="43.161789" lon="-4.915365">
        <ele>920.988</ele>
        <time>2021-08-02T14:41:03Z</time>
      </trkpt>
      <trkpt lat="43.161839" lon="-4.915352">
        <ele>920.996</ele>
        <time>2021-08-02T14:41:08Z</time>
      </trkpt>
      <trkpt lat="43.16188" lon="-4.915317">
        <ele>920.574</ele>
        <time>2021-08-02T14:41:11Z</time>
      </trkpt>
      <trkpt lat="43.161924" lon="-4.915276">
        <ele>920.856</ele>
        <time>2021-08-02T14:41:15Z</time>
      </trkpt>
      <trkpt lat="43.161953" lon="-4.915225">
        <ele>920.921</ele>
        <time>2021-08-02T14:41:18Z</time>
      </trkpt>
      <trkpt lat="43.161987" lon="-4.915176">
        <ele>920.808</ele>
        <time>2021-08-02T14:41:21Z</time>
      </trkpt>
      <trkpt lat="43.162018" lon="-4.915117">
        <ele>921.514</ele>
        <time>2021-08-02T14:41:23Z</time>
      </trkpt>
      <trkpt lat="43.162035" lon="-4.915059">
        <ele>922.246</ele>
        <time>2021-08-02T14:41:26Z</time>
      </trkpt>
      <trkpt lat="43.162062" lon="-4.915009">
        <ele>922.225</ele>
        <time>2021-08-02T14:41:33Z</time>
      </trkpt>
      <trkpt lat="43.162108" lon="-4.914985">
        <ele>923.963</ele>
        <time>2021-08-02T14:41:45Z</time>
      </trkpt>
      <trkpt lat="43.162159" lon="-4.914969">
        <ele>925.863</ele>
        <time>2021-08-02T14:41:50Z</time>
      </trkpt>
      <trkpt lat="43.162202" lon="-4.914944">
        <ele>927.491</ele>
        <time>2021-08-02T14:41:53Z</time>
      </trkpt>
      <trkpt lat="43.162245" lon="-4.914923">
        <ele>928.474</ele>
        <time>2021-08-02T14:41:57Z</time>
      </trkpt>
      <trkpt lat="43.162292" lon="-4.914902">
        <ele>928.912</ele>
        <time>2021-08-02T14:42:01Z</time>
      </trkpt>
      <trkpt lat="43.162347" lon="-4.914868">
        <ele>929.827</ele>
        <time>2021-08-02T14:42:05Z</time>
      </trkpt>
      <trkpt lat="43.162384" lon="-4.914819">
        <ele>930.368</ele>
        <time>2021-08-02T14:42:09Z</time>
      </trkpt>
      <trkpt lat="43.162431" lon="-4.914792">
        <ele>930.714</ele>
        <time>2021-08-02T14:42:13Z</time>
      </trkpt>
      <trkpt lat="43.162475" lon="-4.914758">
        <ele>931.208</ele>
        <time>2021-08-02T14:42:18Z</time>
      </trkpt>
      <trkpt lat="43.162519" lon="-4.91473">
        <ele>931.739</ele>
        <time>2021-08-02T14:42:22Z</time>
      </trkpt>
      <trkpt lat="43.162564" lon="-4.914701">
        <ele>932.851</ele>
        <time>2021-08-02T14:42:26Z</time>
      </trkpt>
      <trkpt lat="43.162617" lon="-4.914672">
        <ele>933.340</ele>
        <time>2021-08-02T14:42:30Z</time>
      </trkpt>
      <trkpt lat="43.162664" lon="-4.914622">
        <ele>933.868</ele>
        <time>2021-08-02T14:42:35Z</time>
      </trkpt>
      <trkpt lat="43.162701" lon="-4.914571">
        <ele>934.358</ele>
        <time>2021-08-02T14:42:40Z</time>
      </trkpt>
      <trkpt lat="43.162748" lon="-4.914536">
        <ele>934.696</ele>
        <time>2021-08-02T14:42:45Z</time>
      </trkpt>
      <trkpt lat="43.162793" lon="-4.914546">
        <ele>935.159</ele>
        <time>2021-08-02T14:42:49Z</time>
      </trkpt>
      <trkpt lat="43.162835" lon="-4.914522">
        <ele>935.667</ele>
        <time>2021-08-02T14:42:54Z</time>
      </trkpt>
      <trkpt lat="43.162878" lon="-4.9145">
        <ele>936.887</ele>
        <time>2021-08-02T14:42:58Z</time>
      </trkpt>
      <trkpt lat="43.162922" lon="-4.914486">
        <ele>936.742</ele>
        <time>2021-08-02T14:43:01Z</time>
      </trkpt>
      <trkpt lat="43.162971" lon="-4.914473">
        <ele>936.326</ele>
        <time>2021-08-02T14:43:05Z</time>
      </trkpt>
      <trkpt lat="43.163018" lon="-4.914472">
        <ele>935.708</ele>
        <time>2021-08-02T14:43:08Z</time>
      </trkpt>
      <trkpt lat="43.163069" lon="-4.91446">
        <ele>935.585</ele>
        <time>2021-08-02T14:43:12Z</time>
      </trkpt>
      <trkpt lat="43.163114" lon="-4.914441">
        <ele>935.717</ele>
        <time>2021-08-02T14:43:15Z</time>
      </trkpt>
      <trkpt lat="43.163165" lon="-4.914424">
        <ele>935.616</ele>
        <time>2021-08-02T14:43:19Z</time>
      </trkpt>
      <trkpt lat="43.163213" lon="-4.91442">
        <ele>935.894</ele>
        <time>2021-08-02T14:43:23Z</time>
      </trkpt>
      <trkpt lat="43.163258" lon="-4.914398">
        <ele>935.384</ele>
        <time>2021-08-02T14:43:27Z</time>
      </trkpt>
      <trkpt lat="43.163312" lon="-4.914369">
        <ele>934.962</ele>
        <time>2021-08-02T14:43:32Z</time>
      </trkpt>
      <trkpt lat="43.163354" lon="-4.91434">
        <ele>934.755</ele>
        <time>2021-08-02T14:43:36Z</time>
      </trkpt>
      <trkpt lat="43.163397" lon="-4.914314">
        <ele>934.653</ele>
        <time>2021-08-02T14:43:40Z</time>
      </trkpt>
      <trkpt lat="43.163444" lon="-4.914301">
        <ele>934.456</ele>
        <time>2021-08-02T14:43:44Z</time>
      </trkpt>
      <trkpt lat="43.163488" lon="-4.914285">
        <ele>933.959</ele>
        <time>2021-08-02T14:43:48Z</time>
      </trkpt>
      <trkpt lat="43.163541" lon="-4.91426">
        <ele>934.214</ele>
        <time>2021-08-02T14:43:52Z</time>
      </trkpt>
      <trkpt lat="43.16357" lon="-4.914209">
        <ele>934.308</ele>
        <time>2021-08-02T14:43:57Z</time>
      </trkpt>
      <trkpt lat="43.163612" lon="-4.914155">
        <ele>934.162</ele>
        <time>2021-08-02T14:44:02Z</time>
      </trkpt>
      <trkpt lat="43.163646" lon="-4.914102">
        <ele>933.874</ele>
        <time>2021-08-02T14:44:07Z</time>
      </trkpt>
      <trkpt lat="43.163673" lon="-4.914043">
        <ele>933.943</ele>
        <time>2021-08-02T14:44:10Z</time>
      </trkpt>
      <trkpt lat="43.163705" lon="-4.913988">
        <ele>933.761</ele>
        <time>2021-08-02T14:44:14Z</time>
      </trkpt>
      <trkpt lat="43.163729" lon="-4.913934">
        <ele>933.331</ele>
        <time>2021-08-02T14:44:17Z</time>
      </trkpt>
      <trkpt lat="43.163754" lon="-4.913873">
        <ele>934.089</ele>
        <time>2021-08-02T14:44:22Z</time>
      </trkpt>
      <trkpt lat="43.163781" lon="-4.913817">
        <ele>934.322</ele>
        <time>2021-08-02T14:44:26Z</time>
      </trkpt>
      <trkpt lat="43.16381" lon="-4.913766">
        <ele>934.640</ele>
        <time>2021-08-02T14:44:29Z</time>
      </trkpt>
      <trkpt lat="43.163832" lon="-4.91371">
        <ele>935.136</ele>
        <time>2021-08-02T14:44:33Z</time>
      </trkpt>
      <trkpt lat="43.163811" lon="-4.913644">
        <ele>935.617</ele>
        <time>2021-08-02T14:44:37Z</time>
      </trkpt>
      <trkpt lat="43.163757" lon="-4.913545">
        <ele>936.418</ele>
        <time>2021-08-02T14:45:35Z</time>
      </trkpt>
      <trkpt lat="43.163718" lon="-4.913448">
        <ele>937.508</ele>
        <time>2021-08-02T14:45:37Z</time>
      </trkpt>
      <trkpt lat="43.163733" lon="-4.913523">
        <ele>938.340</ele>
        <time>2021-08-02T14:46:30Z</time>
      </trkpt>
      <trkpt lat="43.16376" lon="-4.913578">
        <ele>939.192</ele>
        <time>2021-08-02T14:46:47Z</time>
      </trkpt>
      <trkpt lat="43.163771" lon="-4.913645">
        <ele>938.821</ele>
        <time>2021-08-02T14:46:53Z</time>
      </trkpt>
      <trkpt lat="43.163729" lon="-4.913686">
        <ele>939.699</ele>
        <time>2021-08-02T14:46:57Z</time>
      </trkpt>
      <trkpt lat="43.163748" lon="-4.913754">
        <ele>939.899</ele>
        <time>2021-08-02T14:47:08Z</time>
      </trkpt>
      <trkpt lat="43.163788" lon="-4.913787">
        <ele>939.677</ele>
        <time>2021-08-02T14:47:11Z</time>
      </trkpt>
      <trkpt lat="43.163833" lon="-4.91378">
        <ele>939.320</ele>
        <time>2021-08-02T14:47:14Z</time>
      </trkpt>
      <trkpt lat="43.163887" lon="-4.913776">
        <ele>938.498</ele>
        <time>2021-08-02T14:47:17Z</time>
      </trkpt>
      <trkpt lat="43.163935" lon="-4.913764">
        <ele>937.776</ele>
        <time>2021-08-02T14:47:20Z</time>
      </trkpt>
      <trkpt lat="43.16398" lon="-4.913755">
        <ele>937.790</ele>
        <time>2021-08-02T14:47:22Z</time>
      </trkpt>
      <trkpt lat="43.164029" lon="-4.913744">
        <ele>936.519</ele>
        <time>2021-08-02T14:47:26Z</time>
      </trkpt>
      <trkpt lat="43.164073" lon="-4.913712">
        <ele>936.608</ele>
        <time>2021-08-02T14:47:30Z</time>
      </trkpt>
      <trkpt lat="43.164097" lon="-4.91365">
        <ele>936.264</ele>
        <time>2021-08-02T14:47:34Z</time>
      </trkpt>
      <trkpt lat="43.164095" lon="-4.913583">
        <ele>936.746</ele>
        <time>2021-08-02T14:47:38Z</time>
      </trkpt>
      <trkpt lat="43.164113" lon="-4.913524">
        <ele>936.735</ele>
        <time>2021-08-02T14:47:45Z</time>
      </trkpt>
      <trkpt lat="43.164143" lon="-4.913472">
        <ele>936.293</ele>
        <time>2021-08-02T14:47:50Z</time>
      </trkpt>
      <trkpt lat="43.164183" lon="-4.913436">
        <ele>934.983</ele>
        <time>2021-08-02T14:47:54Z</time>
      </trkpt>
      <trkpt lat="43.164229" lon="-4.913413">
        <ele>934.421</ele>
        <time>2021-08-02T14:48:00Z</time>
      </trkpt>
      <trkpt lat="43.164261" lon="-4.913362">
        <ele>934.734</ele>
        <time>2021-08-02T14:48:05Z</time>
      </trkpt>
      <trkpt lat="43.164277" lon="-4.913304">
        <ele>934.962</ele>
        <time>2021-08-02T14:48:08Z</time>
      </trkpt>
      <trkpt lat="43.164301" lon="-4.913248">
        <ele>934.942</ele>
        <time>2021-08-02T14:48:11Z</time>
      </trkpt>
      <trkpt lat="43.16434" lon="-4.913206">
        <ele>934.622</ele>
        <time>2021-08-02T14:48:16Z</time>
      </trkpt>
      <trkpt lat="43.164387" lon="-4.913191">
        <ele>934.814</ele>
        <time>2021-08-02T14:48:19Z</time>
      </trkpt>
      <trkpt lat="43.164431" lon="-4.913176">
        <ele>934.608</ele>
        <time>2021-08-02T14:48:23Z</time>
      </trkpt>
      <trkpt lat="43.164469" lon="-4.913136">
        <ele>933.911</ele>
        <time>2021-08-02T14:48:28Z</time>
      </trkpt>
      <trkpt lat="43.164513" lon="-4.913088">
        <ele>933.033</ele>
        <time>2021-08-02T14:48:31Z</time>
      </trkpt>
      <trkpt lat="43.164547" lon="-4.913037">
        <ele>932.992</ele>
        <time>2021-08-02T14:48:35Z</time>
      </trkpt>
      <trkpt lat="43.164586" lon="-4.912992">
        <ele>931.890</ele>
        <time>2021-08-02T14:48:38Z</time>
      </trkpt>
      <trkpt lat="43.164622" lon="-4.912932">
        <ele>930.940</ele>
        <time>2021-08-02T14:48:42Z</time>
      </trkpt>
      <trkpt lat="43.164654" lon="-4.912871">
        <ele>930.878</ele>
        <time>2021-08-02T14:48:46Z</time>
      </trkpt>
      <trkpt lat="43.164683" lon="-4.912822">
        <ele>930.421</ele>
        <time>2021-08-02T14:48:49Z</time>
      </trkpt>
      <trkpt lat="43.164708" lon="-4.912767">
        <ele>929.849</ele>
        <time>2021-08-02T14:48:52Z</time>
      </trkpt>
      <trkpt lat="43.164741" lon="-4.912715">
        <ele>929.746</ele>
        <time>2021-08-02T14:48:56Z</time>
      </trkpt>
      <trkpt lat="43.164761" lon="-4.912657">
        <ele>928.988</ele>
        <time>2021-08-02T14:49:01Z</time>
      </trkpt>
      <trkpt lat="43.164778" lon="-4.912595">
        <ele>927.616</ele>
        <time>2021-08-02T14:49:16Z</time>
      </trkpt>
      <trkpt lat="43.164793" lon="-4.912536">
        <ele>927.208</ele>
        <time>2021-08-02T14:49:19Z</time>
      </trkpt>
      <trkpt lat="43.164824" lon="-4.912485">
        <ele>926.371</ele>
        <time>2021-08-02T14:49:22Z</time>
      </trkpt>
      <trkpt lat="43.164865" lon="-4.912452">
        <ele>925.773</ele>
        <time>2021-08-02T14:49:26Z</time>
      </trkpt>
      <trkpt lat="43.164906" lon="-4.912425">
        <ele>925.062</ele>
        <time>2021-08-02T14:49:30Z</time>
      </trkpt>
      <trkpt lat="43.164938" lon="-4.912375">
        <ele>924.080</ele>
        <time>2021-08-02T14:49:34Z</time>
      </trkpt>
      <trkpt lat="43.164974" lon="-4.912326">
        <ele>923.970</ele>
        <time>2021-08-02T14:49:38Z</time>
      </trkpt>
      <trkpt lat="43.165007" lon="-4.912282">
        <ele>923.468</ele>
        <time>2021-08-02T14:49:42Z</time>
      </trkpt>
      <trkpt lat="43.165034" lon="-4.912223">
        <ele>922.771</ele>
        <time>2021-08-02T14:49:46Z</time>
      </trkpt>
      <trkpt lat="43.165062" lon="-4.912169">
        <ele>922.599</ele>
        <time>2021-08-02T14:49:49Z</time>
      </trkpt>
      <trkpt lat="43.165105" lon="-4.912137">
        <ele>922.257</ele>
        <time>2021-08-02T14:49:53Z</time>
      </trkpt>
      <trkpt lat="43.165156" lon="-4.912124">
        <ele>921.900</ele>
        <time>2021-08-02T14:49:57Z</time>
      </trkpt>
      <trkpt lat="43.1652" lon="-4.912109">
        <ele>922.020</ele>
        <time>2021-08-02T14:50:03Z</time>
      </trkpt>
      <trkpt lat="43.165253" lon="-4.912099">
        <ele>921.408</ele>
        <time>2021-08-02T14:50:08Z</time>
      </trkpt>
      <trkpt lat="43.165295" lon="-4.912067">
        <ele>921.182</ele>
        <time>2021-08-02T14:50:12Z</time>
      </trkpt>
      <trkpt lat="43.165335" lon="-4.912032">
        <ele>921.364</ele>
        <time>2021-08-02T14:50:16Z</time>
      </trkpt>
      <trkpt lat="43.165368" lon="-4.911988">
        <ele>921.033</ele>
        <time>2021-08-02T14:50:21Z</time>
      </trkpt>
      <trkpt lat="43.16539" lon="-4.911933">
        <ele>921.481</ele>
        <time>2021-08-02T14:50:25Z</time>
      </trkpt>
      <trkpt lat="43.165418" lon="-4.911884">
        <ele>921.831</ele>
        <time>2021-08-02T14:50:30Z</time>
      </trkpt>
      <trkpt lat="43.165437" lon="-4.911822">
        <ele>922.089</ele>
        <time>2021-08-02T14:50:34Z</time>
      </trkpt>
      <trkpt lat="43.165454" lon="-4.911761">
        <ele>922.062</ele>
        <time>2021-08-02T14:50:38Z</time>
      </trkpt>
      <trkpt lat="43.165484" lon="-4.911713">
        <ele>922.140</ele>
        <time>2021-08-02T14:50:43Z</time>
      </trkpt>
      <trkpt lat="43.165518" lon="-4.911672">
        <ele>922.898</ele>
        <time>2021-08-02T14:50:47Z</time>
      </trkpt>
      <trkpt lat="43.165548" lon="-4.911624">
        <ele>922.015</ele>
        <time>2021-08-02T14:50:51Z</time>
      </trkpt>
      <trkpt lat="43.165571" lon="-4.911569">
        <ele>922.326</ele>
        <time>2021-08-02T14:50:55Z</time>
      </trkpt>
      <trkpt lat="43.165595" lon="-4.911514">
        <ele>922.008</ele>
        <time>2021-08-02T14:50:58Z</time>
      </trkpt>
      <trkpt lat="43.165617" lon="-4.911456">
        <ele>922.256</ele>
        <time>2021-08-02T14:51:02Z</time>
      </trkpt>
      <trkpt lat="43.165639" lon="-4.911401">
        <ele>922.078</ele>
        <time>2021-08-02T14:51:06Z</time>
      </trkpt>
      <trkpt lat="43.165661" lon="-4.911347">
        <ele>922.517</ele>
        <time>2021-08-02T14:51:09Z</time>
      </trkpt>
      <trkpt lat="43.165684" lon="-4.911289">
        <ele>922.425</ele>
        <time>2021-08-02T14:51:13Z</time>
      </trkpt>
      <trkpt lat="43.165709" lon="-4.911235">
        <ele>922.685</ele>
        <time>2021-08-02T14:51:17Z</time>
      </trkpt>
      <trkpt lat="43.16573" lon="-4.911179">
        <ele>922.653</ele>
        <time>2021-08-02T14:51:21Z</time>
      </trkpt>
      <trkpt lat="43.165745" lon="-4.911115">
        <ele>923.046</ele>
        <time>2021-08-02T14:51:26Z</time>
      </trkpt>
      <trkpt lat="43.165768" lon="-4.911056">
        <ele>923.174</ele>
        <time>2021-08-02T14:51:31Z</time>
      </trkpt>
      <trkpt lat="43.165792" lon="-4.910998">
        <ele>923.686</ele>
        <time>2021-08-02T14:51:56Z</time>
      </trkpt>
      <trkpt lat="43.16583" lon="-4.910963">
        <ele>924.560</ele>
        <time>2021-08-02T14:52:00Z</time>
      </trkpt>
      <trkpt lat="43.165858" lon="-4.910913">
        <ele>925.126</ele>
        <time>2021-08-02T14:52:05Z</time>
      </trkpt>
      <trkpt lat="43.165877" lon="-4.910853">
        <ele>926.008</ele>
        <time>2021-08-02T14:52:08Z</time>
      </trkpt>
      <trkpt lat="43.165909" lon="-4.910801">
        <ele>925.545</ele>
        <time>2021-08-02T14:52:13Z</time>
      </trkpt>
      <trkpt lat="43.165945" lon="-4.910757">
        <ele>926.487</ele>
        <time>2021-08-02T14:52:19Z</time>
      </trkpt>
      <trkpt lat="43.165978" lon="-4.910706">
        <ele>926.526</ele>
        <time>2021-08-02T14:52:23Z</time>
      </trkpt>
      <trkpt lat="43.166002" lon="-4.910649">
        <ele>927.114</ele>
        <time>2021-08-02T14:52:30Z</time>
      </trkpt>
      <trkpt lat="43.165965" lon="-4.910612">
        <ele>928.054</ele>
        <time>2021-08-02T14:52:52Z</time>
      </trkpt>
      <trkpt lat="43.165847" lon="-4.91041">
        <ele>934.062</ele>
        <time>2021-08-02T15:01:23Z</time>
      </trkpt>
      <trkpt lat="43.165847" lon="-4.91041">
        <ele>934.055</ele>
        <time>2021-08-02T15:01:23Z</time>
      </trkpt>
      <trkpt lat="43.165847" lon="-4.91041">
        <ele>934.073</ele>
        <time>2021-08-02T15:01:23Z</time>
      </trkpt>
      <trkpt lat="43.165847" lon="-4.91041">
        <ele>934.093</ele>
        <time>2021-08-02T15:01:23Z</time>
      </trkpt>
      <trkpt lat="43.165847" lon="-4.91041">
        <ele>934.065</ele>
        <time>2021-08-02T15:01:23Z</time>
      </trkpt>
      <trkpt lat="43.165847" lon="-4.91041">
        <ele>934.021</ele>
        <time>2021-08-02T15:01:23Z</time>
      </trkpt>
      <trkpt lat="43.165847" lon="-4.91041">
        <ele>934.008</ele>
        <time>2021-08-02T15:01:23Z</time>
      </trkpt>
      <trkpt lat="43.165847" lon="-4.91041">
        <ele>934.026</ele>
        <time>2021-08-02T15:01:23Z</time>
      </trkpt>
      <trkpt lat="43.165847" lon="-4.91041">
        <ele>934.018</ele>
        <time>2021-08-02T15:01:23Z</time>
      </trkpt>
      <trkpt lat="43.165847" lon="-4.91041">
        <ele>934.057</ele>
        <time>2021-08-02T15:01:23Z</time>
      </trkpt>
      <trkpt lat="43.165847" lon="-4.91041">
        <ele>934.035</ele>
        <time>2021-08-02T15:01:23Z</time>
      </trkpt>
      <trkpt lat="43.165847" lon="-4.91041">
        <ele>934.055</ele>
        <time>2021-08-02T15:01:23Z</time>
      </trkpt>
      <trkpt lat="43.165847" lon="-4.91041">
        <ele>934.093</ele>
        <time>2021-08-02T15:01:23Z</time>
      </trkpt>
      <trkpt lat="43.165847" lon="-4.91041">
        <ele>934.046</ele>
        <time>2021-08-02T15:01:23Z</time>
      </trkpt>
      <trkpt lat="43.165847" lon="-4.91041">
        <ele>934.054</ele>
        <time>2021-08-02T15:01:23Z</time>
      </trkpt>
      <trkpt lat="43.165847" lon="-4.91041">
        <ele>934.029</ele>
        <time>2021-08-02T15:01:23Z</time>
      </trkpt>
      <trkpt lat="43.165847" lon="-4.91041">
        <ele>934.000</ele>
        <time>2021-08-02T15:01:23Z</time>
      </trkpt>
      <trkpt lat="43.165847" lon="-4.91041">
        <ele>934.020</ele>
        <time>2021-08-02T15:01:23Z</time>
      </trkpt>
      <trkpt lat="43.165847" lon="-4.91041">
        <ele>934.008</ele>
        <time>2021-08-02T15:01:23Z</time>
      </trkpt>
      <trkpt lat="43.165847" lon="-4.91041">
        <ele>934.019</ele>
        <time>2021-08-02T15:01:23Z</time>
      </trkpt>
      <trkpt lat="43.165847" lon="-4.91041">
        <ele>934.061</ele>
        <time>2021-08-02T15:01:23Z</time>
      </trkpt>
      <trkpt lat="43.165847" lon="-4.91041">
        <ele>934.050</ele>
        <time>2021-08-02T15:01:23Z</time>
      </trkpt>
      <trkpt lat="43.165847" lon="-4.91041">
        <ele>934.018</ele>
        <time>2021-08-02T15:01:23Z</time>
      </trkpt>
      <trkpt lat="43.165847" lon="-4.91041">
        <ele>934.058</ele>
        <time>2021-08-02T15:01:23Z</time>
      </trkpt>
      <trkpt lat="43.165847" lon="-4.91041">
        <ele>934.036</ele>
        <time>2021-08-02T15:01:23Z</time>
      </trkpt>
      <trkpt lat="43.165847" lon="-4.91041">
        <ele>934.089</ele>
        <time>2021-08-02T15:01:23Z</time>
      </trkpt>
      <trkpt lat="43.165847" lon="-4.91041">
        <ele>934.097</ele>
        <time>2021-08-02T15:01:23Z</time>
      </trkpt>
      <trkpt lat="43.165847" lon="-4.91041">
        <ele>934.014</ele>
        <time>2021-08-02T15:01:23Z</time>
      </trkpt>
      <trkpt lat="43.165847" lon="-4.91041">
        <ele>934.054</ele>
        <time>2021-08-02T15:01:23Z</time>
      </trkpt>
      <trkpt lat="43.165847" lon="-4.91041">
        <ele>934.009</ele>
        <time>2021-08-02T15:01:23Z</time>
      </trkpt>
      <trkpt lat="43.165847" lon="-4.91041">
        <ele>934.008</ele>
        <time>2021-08-02T15:01:23Z</time>
      </trkpt>
      <trkpt lat="43.165847" lon="-4.91041">
        <ele>934.018</ele>
        <time>2021-08-02T15:01:23Z</time>
      </trkpt>
      <trkpt lat="43.165847" lon="-4.91041">
        <ele>934.040</ele>
        <time>2021-08-02T15:01:23Z</time>
      </trkpt>
      <trkpt lat="43.165847" lon="-4.91041">
        <ele>934.039</ele>
        <time>2021-08-02T15:01:23Z</time>
      </trkpt>
      <trkpt lat="43.165847" lon="-4.91041">
        <ele>934.087</ele>
        <time>2021-08-02T15:01:23Z</time>
      </trkpt>
      <trkpt lat="43.165847" lon="-4.91041">
        <ele>934.097</ele>
        <time>2021-08-02T15:01:23Z</time>
      </trkpt>
      <trkpt lat="43.165847" lon="-4.91041">
        <ele>934.025</ele>
        <time>2021-08-02T15:01:23Z</time>
      </trkpt>
      <trkpt lat="43.165847" lon="-4.91041">
        <ele>934.028</ele>
        <time>2021-08-02T15:01:23Z</time>
      </trkpt>
      <trkpt lat="43.165847" lon="-4.91041">
        <ele>934.086</ele>
        <time>2021-08-02T15:01:23Z</time>
      </trkpt>
      <trkpt lat="43.165847" lon="-4.91041">
        <ele>934.061</ele>
        <time>2021-08-02T15:01:23Z</time>
      </trkpt>
      <trkpt lat="43.165847" lon="-4.91041">
        <ele>934.021</ele>
        <time>2021-08-02T15:01:23Z</time>
      </trkpt>
      <trkpt lat="43.165847" lon="-4.91041">
        <ele>934.013</ele>
        <time>2021-08-02T15:01:23Z</time>
      </trkpt>
      <trkpt lat="43.165847" lon="-4.91041">
        <ele>934.008</ele>
        <time>2021-08-02T15:01:23Z</time>
      </trkpt>
      <trkpt lat="43.165847" lon="-4.91041">
        <ele>934.053</ele>
        <time>2021-08-02T15:01:23Z</time>
      </trkpt>
      <trkpt lat="43.165847" lon="-4.91041">
        <ele>934.035</ele>
        <time>2021-08-02T15:01:23Z</time>
      </trkpt>
      <trkpt lat="43.165847" lon="-4.91041">
        <ele>934.094</ele>
        <time>2021-08-02T15:01:23Z</time>
      </trkpt>
      <trkpt lat="43.165847" lon="-4.91041">
        <ele>934.012</ele>
        <time>2021-08-02T15:01:23Z</time>
      </trkpt>
      <trkpt lat="43.165847" lon="-4.91041">
        <ele>934.062</ele>
        <time>2021-08-02T15:01:23Z</time>
      </trkpt>
      <trkpt lat="43.165847" lon="-4.91041">
        <ele>934.070</ele>
        <time>2021-08-02T15:01:23Z</time>
      </trkpt>
      <trkpt lat="43.165847" lon="-4.91041">
        <ele>934.033</ele>
        <time>2021-08-02T15:01:23Z</time>
      </trkpt>
      <trkpt lat="43.165847" lon="-4.91041">
        <ele>934.041</ele>
        <time>2021-08-02T15:01:23Z</time>
      </trkpt>
      <trkpt lat="43.165847" lon="-4.91041">
        <ele>934.096</ele>
        <time>2021-08-02T15:01:23Z</time>
      </trkpt>
      <trkpt lat="43.165847" lon="-4.91041">
        <ele>934.031</ele>
        <time>2021-08-02T15:01:23Z</time>
      </trkpt>
      <trkpt lat="43.165847" lon="-4.91041">
        <ele>934.024</ele>
        <time>2021-08-02T15:01:23Z</time>
      </trkpt>
      <trkpt lat="43.165847" lon="-4.91041">
        <ele>934.008</ele>
        <time>2021-08-02T15:01:23Z</time>
      </trkpt>
      <trkpt lat="43.165847" lon="-4.91041">
        <ele>934.046</ele>
        <time>2021-08-02T15:01:23Z</time>
      </trkpt>
      <trkpt lat="43.165847" lon="-4.91041">
        <ele>934.078</ele>
        <time>2021-08-02T15:01:23Z</time>
      </trkpt>
      <trkpt lat="43.165847" lon="-4.91041">
        <ele>934.027</ele>
        <time>2021-08-02T15:01:23Z</time>
      </trkpt>
      <trkpt lat="43.165847" lon="-4.91041">
        <ele>934.035</ele>
        <time>2021-08-02T15:01:23Z</time>
      </trkpt>
      <trkpt lat="43.165847" lon="-4.91041">
        <ele>934.095</ele>
        <time>2021-08-02T15:01:23Z</time>
      </trkpt>
      <trkpt lat="43.165847" lon="-4.91041">
        <ele>934.073</ele>
        <time>2021-08-02T15:01:23Z</time>
      </trkpt>
      <trkpt lat="43.165847" lon="-4.91041">
        <ele>934.096</ele>
        <time>2021-08-02T15:01:23Z</time>
      </trkpt>
      <trkpt lat="43.165847" lon="-4.91041">
        <ele>934.034</ele>
        <time>2021-08-02T15:01:23Z</time>
      </trkpt>
      <trkpt lat="43.165847" lon="-4.91041">
        <ele>934.018</ele>
        <time>2021-08-02T15:01:23Z</time>
      </trkpt>
      <trkpt lat="43.165847" lon="-4.91041">
        <ele>934.098</ele>
        <time>2021-08-02T15:01:23Z</time>
      </trkpt>
      <trkpt lat="43.165847" lon="-4.91041">
        <ele>934.017</ele>
        <time>2021-08-02T15:01:23Z</time>
      </trkpt>
      <trkpt lat="43.165847" lon="-4.91041">
        <ele>934.008</ele>
        <time>2021-08-02T15:01:23Z</time>
      </trkpt>
      <trkpt lat="43.165847" lon="-4.91041">
        <ele>934.088</ele>
        <time>2021-08-02T15:01:23Z</time>
      </trkpt>
      <trkpt lat="43.165847" lon="-4.91041">
        <ele>934.020</ele>
        <time>2021-08-02T15:01:23Z</time>
      </trkpt>
      <trkpt lat="43.165847" lon="-4.91041">
        <ele>934.029</ele>
        <time>2021-08-02T15:01:23Z</time>
      </trkpt>
      <trkpt lat="43.165847" lon="-4.91041">
        <ele>934.087</ele>
        <time>2021-08-02T15:01:23Z</time>
      </trkpt>
      <trkpt lat="43.165847" lon="-4.91041">
        <ele>934.067</ele>
        <time>2021-08-02T15:01:23Z</time>
      </trkpt>
      <trkpt lat="43.165847" lon="-4.91041">
        <ele>934.055</ele>
        <time>2021-08-02T15:01:23Z</time>
      </trkpt>
      <trkpt lat="43.165847" lon="-4.91041">
        <ele>934.058</ele>
        <time>2021-08-02T15:01:23Z</time>
      </trkpt>
      <trkpt lat="43.165847" lon="-4.91041">
        <ele>934.046</ele>
        <time>2021-08-02T15:01:23Z</time>
      </trkpt>
      <trkpt lat="43.165847" lon="-4.91041">
        <ele>934.016</ele>
        <time>2021-08-02T15:01:23Z</time>
      </trkpt>
      <trkpt lat="43.165847" lon="-4.91041">
        <ele>934.076</ele>
        <time>2021-08-02T15:01:23Z</time>
      </trkpt>
      <trkpt lat="43.165847" lon="-4.91041">
        <ele>934.013</ele>
        <time>2021-08-02T15:01:23Z</time>
      </trkpt>
      <trkpt lat="43.165847" lon="-4.91041">
        <ele>934.008</ele>
        <time>2021-08-02T15:01:23Z</time>
      </trkpt>
      <trkpt lat="43.165847" lon="-4.91041">
        <ele>934.078</ele>
        <time>2021-08-02T15:01:23Z</time>
      </trkpt>
      <trkpt lat="43.165847" lon="-4.91041">
        <ele>934.090</ele>
        <time>2021-08-02T15:01:23Z</time>
      </trkpt>
      <trkpt lat="43.165847" lon="-4.91041">
        <ele>934.089</ele>
        <time>2021-08-02T15:01:23Z</time>
      </trkpt>
      <trkpt lat="43.165847" lon="-4.91041">
        <ele>934.077</ele>
        <time>2021-08-02T15:01:23Z</time>
      </trkpt>
      <trkpt lat="43.165847" lon="-4.91041">
        <ele>934.037</ele>
        <time>2021-08-02T15:01:23Z</time>
      </trkpt>
      <trkpt lat="43.165847" lon="-4.91041">
        <ele>934.095</ele>
        <time>2021-08-02T15:01:23Z</time>
      </trkpt>
      <trkpt lat="43.165847" lon="-4.91041">
        <ele>934.058</ele>
        <time>2021-08-02T15:01:23Z</time>
      </trkpt>
      <trkpt lat="43.165847" lon="-4.91041">
        <ele>934.066</ele>
        <time>2021-08-02T15:01:23Z</time>
      </trkpt>
      <trkpt lat="43.165847" lon="-4.91041">
        <ele>934.042</ele>
        <time>2021-08-02T15:01:23Z</time>
      </trkpt>
      <trkpt lat="43.165847" lon="-4.91041">
        <ele>934.022</ele>
        <time>2021-08-02T15:01:23Z</time>
      </trkpt>
      <trkpt lat="43.165847" lon="-4.91041">
        <ele>934.014</ele>
        <time>2021-08-02T15:01:23Z</time>
      </trkpt>
      <trkpt lat="43.165847" lon="-4.91041">
        <ele>934.008</ele>
        <time>2021-08-02T15:01:23Z</time>
      </trkpt>
      <trkpt lat="43.165847" lon="-4.91041">
        <ele>934.021</ele>
        <time>2021-08-02T15:01:23Z</time>
      </trkpt>
      <trkpt lat="43.165847" lon="-4.91041">
        <ele>934.073</ele>
        <time>2021-08-02T15:01:23Z</time>
      </trkpt>
      <trkpt lat="43.165847" lon="-4.91041">
        <ele>934.052</ele>
        <time>2021-08-02T15:01:23Z</time>
      </trkpt>
      <trkpt lat="43.165847" lon="-4.91041">
        <ele>934.030</ele>
        <time>2021-08-02T15:01:23Z</time>
      </trkpt>
      <trkpt lat="43.165847" lon="-4.91041">
        <ele>934.020</ele>
        <time>2021-08-02T15:01:23Z</time>
      </trkpt>
      <trkpt lat="43.165847" lon="-4.91041">
        <ele>934.068</ele>
        <time>2021-08-02T15:01:23Z</time>
      </trkpt>
      <trkpt lat="43.165847" lon="-4.91041">
        <ele>934.081</ele>
        <time>2021-08-02T15:01:23Z</time>
      </trkpt>
      <trkpt lat="43.165847" lon="-4.91041">
        <ele>934.039</ele>
        <time>2021-08-02T15:01:23Z</time>
      </trkpt>
      <trkpt lat="43.165847" lon="-4.91041">
        <ele>934.041</ele>
        <time>2021-08-02T15:01:23Z</time>
      </trkpt>
      <trkpt lat="43.165847" lon="-4.91041">
        <ele>934.081</ele>
        <time>2021-08-02T15:01:23Z</time>
      </trkpt>
      <trkpt lat="43.165847" lon="-4.91041">
        <ele>934.009</ele>
        <time>2021-08-02T15:01:23Z</time>
      </trkpt>
      <trkpt lat="43.165847" lon="-4.91041">
        <ele>934.008</ele>
        <time>2021-08-02T15:01:23Z</time>
      </trkpt>
      <trkpt lat="43.165847" lon="-4.91041">
        <ele>934.051</ele>
        <time>2021-08-02T15:01:23Z</time>
      </trkpt>
      <trkpt lat="43.165847" lon="-4.91041">
        <ele>934.093</ele>
        <time>2021-08-02T15:01:23Z</time>
      </trkpt>
      <trkpt lat="43.165847" lon="-4.91041">
        <ele>934.052</ele>
        <time>2021-08-02T15:01:23Z</time>
      </trkpt>
      <trkpt lat="43.165847" lon="-4.91041">
        <ele>934.030</ele>
        <time>2021-08-02T15:01:23Z</time>
      </trkpt>
      <trkpt lat="43.165847" lon="-4.91041">
        <ele>934.070</ele>
        <time>2021-08-02T15:01:23Z</time>
      </trkpt>
      <trkpt lat="43.165847" lon="-4.91041">
        <ele>934.068</ele>
        <time>2021-08-02T15:01:23Z</time>
      </trkpt>
      <trkpt lat="43.165847" lon="-4.91041">
        <ele>934.011</ele>
        <time>2021-08-02T15:01:23Z</time>
      </trkpt>
      <trkpt lat="43.165847" lon="-4.91041">
        <ele>934.059</ele>
        <time>2021-08-02T15:01:23Z</time>
      </trkpt>
      <trkpt lat="43.165847" lon="-4.91041">
        <ele>934.062</ele>
        <time>2021-08-02T15:01:23Z</time>
      </trkpt>
      <trkpt lat="43.165847" lon="-4.91041">
        <ele>934.083</ele>
        <time>2021-08-02T15:01:23Z</time>
      </trkpt>
      <trkpt lat="43.165847" lon="-4.91041">
        <ele>934.011</ele>
        <time>2021-08-02T15:01:23Z</time>
      </trkpt>
      <trkpt lat="43.165847" lon="-4.91041">
        <ele>934.008</ele>
        <time>2021-08-02T15:01:23Z</time>
      </trkpt>
      <trkpt lat="43.165847" lon="-4.91041">
        <ele>934.083</ele>
        <time>2021-08-02T15:01:23Z</time>
      </trkpt>
      <trkpt lat="43.165847" lon="-4.91041">
        <ele>934.085</ele>
        <time>2021-08-02T15:01:23Z</time>
      </trkpt>
      <trkpt lat="43.165847" lon="-4.91041">
        <ele>934.064</ele>
        <time>2021-08-02T15:01:23Z</time>
      </trkpt>
      <trkpt lat="43.165847" lon="-4.91041">
        <ele>934.012</ele>
        <time>2021-08-02T15:01:23Z</time>
      </trkpt>
      <trkpt lat="43.165847" lon="-4.91041">
        <ele>934.032</ele>
        <time>2021-08-02T15:01:23Z</time>
      </trkpt>
      <trkpt lat="43.165847" lon="-4.91041">
        <ele>934.060</ele>
        <time>2021-08-02T15:01:23Z</time>
      </trkpt>
      <trkpt lat="43.165847" lon="-4.91041">
        <ele>934.033</ele>
        <time>2021-08-02T15:01:23Z</time>
      </trkpt>
      <trkpt lat="43.165847" lon="-4.91041">
        <ele>934.031</ele>
        <time>2021-08-02T15:01:23Z</time>
      </trkpt>
      <trkpt lat="43.165847" lon="-4.91041">
        <ele>934.046</ele>
        <time>2021-08-02T15:01:23Z</time>
      </trkpt>
      <trkpt lat="43.165847" lon="-4.91041">
        <ele>934.088</ele>
        <time>2021-08-02T15:01:23Z</time>
      </trkpt>
      <trkpt lat="43.165847" lon="-4.91041">
        <ele>934.016</ele>
        <time>2021-08-02T15:01:23Z</time>
      </trkpt>
      <trkpt lat="43.165847" lon="-4.91041">
        <ele>934.008</ele>
        <time>2021-08-02T15:01:23Z</time>
      </trkpt>
      <trkpt lat="43.165847" lon="-4.91041">
        <ele>934.021</ele>
        <time>2021-08-02T15:01:23Z</time>
      </trkpt>
      <trkpt lat="43.165847" lon="-4.91041">
        <ele>934.073</ele>
        <time>2021-08-02T15:01:23Z</time>
      </trkpt>
      <trkpt lat="43.165847" lon="-4.91041">
        <ele>934.052</ele>
        <time>2021-08-02T15:01:23Z</time>
      </trkpt>
      <trkpt lat="43.165847" lon="-4.91041">
        <ele>934.060</ele>
        <time>2021-08-02T15:01:23Z</time>
      </trkpt>
      <trkpt lat="43.165847" lon="-4.91041">
        <ele>934.030</ele>
        <time>2021-08-02T15:01:23Z</time>
      </trkpt>
      <trkpt lat="43.165847" lon="-4.91041">
        <ele>934.028</ele>
        <time>2021-08-02T15:01:23Z</time>
      </trkpt>
      <trkpt lat="43.165847" lon="-4.91041">
        <ele>934.011</ele>
        <time>2021-08-02T15:01:23Z</time>
      </trkpt>
      <trkpt lat="43.165847" lon="-4.91041">
        <ele>934.079</ele>
        <time>2021-08-02T15:01:23Z</time>
      </trkpt>
      <trkpt lat="43.165847" lon="-4.91041">
        <ele>934.056</ele>
        <time>2021-08-02T15:01:23Z</time>
      </trkpt>
      <trkpt lat="43.165847" lon="-4.91041">
        <ele>934.059</ele>
        <time>2021-08-02T15:01:23Z</time>
      </trkpt>
      <trkpt lat="43.165847" lon="-4.91041">
        <ele>934.014</ele>
        <time>2021-08-02T15:01:23Z</time>
      </trkpt>
      <trkpt lat="43.165847" lon="-4.91041">
        <ele>934.008</ele>
        <time>2021-08-02T15:01:23Z</time>
      </trkpt>
      <trkpt lat="43.165847" lon="-4.91041">
        <ele>934.012</ele>
        <time>2021-08-02T15:01:23Z</time>
      </trkpt>
      <trkpt lat="43.165847" lon="-4.91041">
        <ele>934.014</ele>
        <time>2021-08-02T15:01:23Z</time>
      </trkpt>
      <trkpt lat="43.165847" lon="-4.91041">
        <ele>934.063</ele>
        <time>2021-08-02T15:01:23Z</time>
      </trkpt>
      <trkpt lat="43.165847" lon="-4.91041">
        <ele>934.031</ele>
        <time>2021-08-02T15:01:23Z</time>
      </trkpt>
      <trkpt lat="43.165847" lon="-4.91041">
        <ele>934.081</ele>
        <time>2021-08-02T15:01:23Z</time>
      </trkpt>
      <trkpt lat="43.165847" lon="-4.91041">
        <ele>934.069</ele>
        <time>2021-08-02T15:01:23Z</time>
      </trkpt>
      <trkpt lat="43.165847" lon="-4.91041">
        <ele>934.012</ele>
        <time>2021-08-02T15:01:23Z</time>
      </trkpt>
      <trkpt lat="43.165847" lon="-4.91041">
        <ele>934.040</ele>
        <time>2021-08-02T15:01:23Z</time>
      </trkpt>
      <trkpt lat="43.165847" lon="-4.91041">
        <ele>934.037</ele>
        <time>2021-08-02T15:01:23Z</time>
      </trkpt>
      <trkpt lat="43.165847" lon="-4.91041">
        <ele>934.049</ele>
        <time>2021-08-02T15:01:23Z</time>
      </trkpt>
      <trkpt lat="43.165847" lon="-4.91041">
        <ele>934.013</ele>
        <time>2021-08-02T15:01:23Z</time>
      </trkpt>
      <trkpt lat="43.165847" lon="-4.91041">
        <ele>934.008</ele>
        <time>2021-08-02T15:01:23Z</time>
      </trkpt>
      <trkpt lat="43.165847" lon="-4.91041">
        <ele>934.080</ele>
        <time>2021-08-02T15:01:23Z</time>
      </trkpt>
      <trkpt lat="43.165847" lon="-4.91041">
        <ele>934.012</ele>
        <time>2021-08-02T15:01:23Z</time>
      </trkpt>
      <trkpt lat="43.165847" lon="-4.91041">
        <ele>934.011</ele>
        <time>2021-08-02T15:01:23Z</time>
      </trkpt>
      <trkpt lat="43.165847" lon="-4.91041">
        <ele>934.029</ele>
        <time>2021-08-02T15:01:23Z</time>
      </trkpt>
      <trkpt lat="43.165847" lon="-4.91041">
        <ele>934.069</ele>
        <time>2021-08-02T15:01:23Z</time>
      </trkpt>
      <trkpt lat="43.165847" lon="-4.91041">
        <ele>934.027</ele>
        <time>2021-08-02T15:01:23Z</time>
      </trkpt>
      <trkpt lat="43.165847" lon="-4.91041">
        <ele>934.090</ele>
        <time>2021-08-02T15:01:23Z</time>
      </trkpt>
      <trkpt lat="43.165847" lon="-4.91041">
        <ele>934.058</ele>
        <time>2021-08-02T15:01:23Z</time>
      </trkpt>
      <trkpt lat="43.165847" lon="-4.91041">
        <ele>934.091</ele>
        <time>2021-08-02T15:01:23Z</time>
      </trkpt>
      <trkpt lat="43.165847" lon="-4.91041">
        <ele>934.081</ele>
        <time>2021-08-02T15:01:23Z</time>
      </trkpt>
      <trkpt lat="43.165847" lon="-4.91041">
        <ele>934.019</ele>
        <time>2021-08-02T15:01:23Z</time>
      </trkpt>
      <trkpt lat="43.165847" lon="-4.91041">
        <ele>934.008</ele>
        <time>2021-08-02T15:01:23Z</time>
      </trkpt>
      <trkpt lat="43.165847" lon="-4.91041">
        <ele>934.096</ele>
        <time>2021-08-02T15:01:23Z</time>
      </trkpt>
      <trkpt lat="43.165847" lon="-4.91041">
        <ele>934.048</ele>
        <time>2021-08-02T15:01:23Z</time>
      </trkpt>
      <trkpt lat="43.165847" lon="-4.91041">
        <ele>934.037</ele>
        <time>2021-08-02T15:01:23Z</time>
      </trkpt>
      <trkpt lat="43.165847" lon="-4.91041">
        <ele>934.025</ele>
        <time>2021-08-02T15:01:23Z</time>
      </trkpt>
      <trkpt lat="43.165847" lon="-4.91041">
        <ele>934.015</ele>
        <time>2021-08-02T15:01:23Z</time>
      </trkpt>
      <trkpt lat="43.165847" lon="-4.91041">
        <ele>934.033</ele>
        <time>2021-08-02T15:01:23Z</time>
      </trkpt>
      <trkpt lat="43.165847" lon="-4.91041">
        <ele>934.076</ele>
        <time>2021-08-02T15:01:23Z</time>
      </trkpt>
      <trkpt lat="43.165847" lon="-4.91041">
        <ele>934.024</ele>
        <time>2021-08-02T15:01:23Z</time>
      </trkpt>
      <trkpt lat="43.165847" lon="-4.91041">
        <ele>934.054</ele>
        <time>2021-08-02T15:01:23Z</time>
      </trkpt>
      <trkpt lat="43.165847" lon="-4.91041">
        <ele>934.056</ele>
        <time>2021-08-02T15:01:23Z</time>
      </trkpt>
      <trkpt lat="43.165847" lon="-4.91041">
        <ele>934.011</ele>
        <time>2021-08-02T15:01:23Z</time>
      </trkpt>
      <trkpt lat="43.165847" lon="-4.91041">
        <ele>934.008</ele>
        <time>2021-08-02T15:01:23Z</time>
      </trkpt>
      <trkpt lat="43.165847" lon="-4.91041">
        <ele>934.082</ele>
        <time>2021-08-02T15:01:23Z</time>
      </trkpt>
      <trkpt lat="43.165847" lon="-4.91041">
        <ele>934.014</ele>
        <time>2021-08-02T15:01:23Z</time>
      </trkpt>
      <trkpt lat="43.165847" lon="-4.91041">
        <ele>934.013</ele>
        <time>2021-08-02T15:01:23Z</time>
      </trkpt>
      <trkpt lat="43.165847" lon="-4.91041">
        <ele>934.031</ele>
        <time>2021-08-02T15:01:23Z</time>
      </trkpt>
      <trkpt lat="43.165847" lon="-4.91041">
        <ele>934.051</ele>
        <time>2021-08-02T15:01:23Z</time>
      </trkpt>
      <trkpt lat="43.165847" lon="-4.91041">
        <ele>934.029</ele>
        <time>2021-08-02T15:01:23Z</time>
      </trkpt>
      <trkpt lat="43.165847" lon="-4.91041">
        <ele>934.012</ele>
        <time>2021-08-02T15:01:23Z</time>
      </trkpt>
      <trkpt lat="43.165847" lon="-4.91041">
        <ele>934.090</ele>
        <time>2021-08-02T15:01:23Z</time>
      </trkpt>
      <trkpt lat="43.165847" lon="-4.91041">
        <ele>934.074</ele>
        <time>2021-08-02T15:01:23Z</time>
      </trkpt>
      <trkpt lat="43.165847" lon="-4.91041">
        <ele>934.056</ele>
        <time>2021-08-02T15:01:23Z</time>
      </trkpt>
      <trkpt lat="43.165847" lon="-4.91041">
        <ele>934.021</ele>
        <time>2021-08-02T15:01:23Z</time>
      </trkpt>
      <trkpt lat="43.165847" lon="-4.91041">
        <ele>934.008</ele>
        <time>2021-08-02T15:01:23Z</time>
      </trkpt>
      <trkpt lat="43.165847" lon="-4.91041">
        <ele>934.014</ele>
        <time>2021-08-02T15:01:23Z</time>
      </trkpt>
      <trkpt lat="43.165847" lon="-4.91041">
        <ele>934.076</ele>
        <time>2021-08-02T15:01:23Z</time>
      </trkpt>
      <trkpt lat="43.165847" lon="-4.91041">
        <ele>934.055</ele>
        <time>2021-08-02T15:01:23Z</time>
      </trkpt>
      <trkpt lat="43.165847" lon="-4.91041">
        <ele>934.013</ele>
        <time>2021-08-02T15:01:23Z</time>
      </trkpt>
      <trkpt lat="43.165847" lon="-4.91041">
        <ele>934.063</ele>
        <time>2021-08-02T15:01:23Z</time>
      </trkpt>
      <trkpt lat="43.165847" lon="-4.91041">
        <ele>934.061</ele>
        <time>2021-08-02T15:01:23Z</time>
      </trkpt>
      <trkpt lat="43.165847" lon="-4.91041">
        <ele>934.034</ele>
        <time>2021-08-02T15:01:23Z</time>
      </trkpt>
      <trkpt lat="43.165847" lon="-4.91041">
        <ele>934.032</ele>
        <time>2021-08-02T15:01:23Z</time>
      </trkpt>
      <trkpt lat="43.165847" lon="-4.91041">
        <ele>934.078</ele>
        <time>2021-08-02T15:01:23Z</time>
      </trkpt>
      <trkpt lat="43.165847" lon="-4.91041">
        <ele>934.033</ele>
        <time>2021-08-02T15:01:23Z</time>
      </trkpt>
      <trkpt lat="43.165847" lon="-4.91041">
        <ele>934.026</ele>
        <time>2021-08-02T15:01:23Z</time>
      </trkpt>
      <trkpt lat="43.165847" lon="-4.91041">
        <ele>934.008</ele>
        <time>2021-08-02T15:01:23Z</time>
      </trkpt>
      <trkpt lat="43.165847" lon="-4.91041">
        <ele>934.034</ele>
        <time>2021-08-02T15:01:23Z</time>
      </trkpt>
      <trkpt lat="43.165847" lon="-4.91041">
        <ele>934.076</ele>
        <time>2021-08-02T15:01:23Z</time>
      </trkpt>
      <trkpt lat="43.165847" lon="-4.91041">
        <ele>934.085</ele>
        <time>2021-08-02T15:01:23Z</time>
      </trkpt>
      <trkpt lat="43.165847" lon="-4.91041">
        <ele>934.093</ele>
        <time>2021-08-02T15:01:23Z</time>
      </trkpt>
      <trkpt lat="43.165847" lon="-4.91041">
        <ele>934.033</ele>
        <time>2021-08-02T15:01:23Z</time>
      </trkpt>
      <trkpt lat="43.165847" lon="-4.91041">
        <ele>934.041</ele>
        <time>2021-08-02T15:01:23Z</time>
      </trkpt>
      <trkpt lat="43.165847" lon="-4.91041">
        <ele>934.044</ele>
        <time>2021-08-02T15:01:23Z</time>
      </trkpt>
      <trkpt lat="43.165847" lon="-4.91041">
        <ele>934.052</ele>
        <time>2021-08-02T15:01:23Z</time>
      </trkpt>
      <trkpt lat="43.165847" lon="-4.91041">
        <ele>934.024</ele>
        <time>2021-08-02T15:01:23Z</time>
      </trkpt>
      <trkpt lat="43.165847" lon="-4.91041">
        <ele>934.004</ele>
        <time>2021-08-02T15:01:23Z</time>
      </trkpt>
      <trkpt lat="43.165847" lon="-4.91041">
        <ele>934.014</ele>
        <time>2021-08-02T15:01:23Z</time>
      </trkpt>
      <trkpt lat="43.165847" lon="-4.91041">
        <ele>934.008</ele>
        <time>2021-08-02T15:01:23Z</time>
      </trkpt>
      <trkpt lat="43.165847" lon="-4.91041">
        <ele>934.039</ele>
        <time>2021-08-02T15:01:23Z</time>
      </trkpt>
      <trkpt lat="43.165847" lon="-4.91041">
        <ele>934.051</ele>
        <time>2021-08-02T15:01:23Z</time>
      </trkpt>
      <trkpt lat="43.165847" lon="-4.91041">
        <ele>934.090</ele>
        <time>2021-08-02T15:01:23Z</time>
      </trkpt>
      <trkpt lat="43.165847" lon="-4.91041">
        <ele>934.088</ele>
        <time>2021-08-02T15:01:23Z</time>
      </trkpt>
      <trkpt lat="43.165847" lon="-4.91041">
        <ele>934.078</ele>
        <time>2021-08-02T15:01:23Z</time>
      </trkpt>
      <trkpt lat="43.165847" lon="-4.91041">
        <ele>934.056</ele>
        <time>2021-08-02T15:01:23Z</time>
      </trkpt>
      <trkpt lat="43.165847" lon="-4.91041">
        <ele>934.069</ele>
        <time>2021-08-02T15:01:23Z</time>
      </trkpt>
      <trkpt lat="43.165847" lon="-4.91041">
        <ele>934.077</ele>
        <time>2021-08-02T15:01:23Z</time>
      </trkpt>
      <trkpt lat="43.165847" lon="-4.91041">
        <ele>934.032</ele>
        <time>2021-08-02T15:01:23Z</time>
      </trkpt>
      <trkpt lat="43.165847" lon="-4.91041">
        <ele>934.092</ele>
        <time>2021-08-02T15:01:23Z</time>
      </trkpt>
      <trkpt lat="43.165847" lon="-4.91041">
        <ele>934.011</ele>
        <time>2021-08-02T15:01:23Z</time>
      </trkpt>
      <trkpt lat="43.165847" lon="-4.91041">
        <ele>934.008</ele>
        <time>2021-08-02T15:01:23Z</time>
      </trkpt>
      <trkpt lat="43.165847" lon="-4.91041">
        <ele>934.090</ele>
        <time>2021-08-02T15:01:23Z</time>
      </trkpt>
      <trkpt lat="43.165847" lon="-4.91041">
        <ele>934.042</ele>
        <time>2021-08-02T15:01:23Z</time>
      </trkpt>
      <trkpt lat="43.165847" lon="-4.91041">
        <ele>934.081</ele>
        <time>2021-08-02T15:01:23Z</time>
      </trkpt>
      <trkpt lat="43.165847" lon="-4.91041">
        <ele>934.079</ele>
        <time>2021-08-02T15:01:23Z</time>
      </trkpt>
      <trkpt lat="43.165847" lon="-4.91041">
        <ele>934.059</ele>
        <time>2021-08-02T15:01:23Z</time>
      </trkpt>
      <trkpt lat="43.165847" lon="-4.91041">
        <ele>934.047</ele>
        <time>2021-08-02T15:01:23Z</time>
      </trkpt>
      <trkpt lat="43.165847" lon="-4.91041">
        <ele>934.090</ele>
        <time>2021-08-02T15:01:23Z</time>
      </trkpt>
      <trkpt lat="43.165847" lon="-4.91041">
        <ele>934.038</ele>
        <time>2021-08-02T15:01:23Z</time>
      </trkpt>
      <trkpt lat="43.165847" lon="-4.91041">
        <ele>934.034</ele>
        <time>2021-08-02T15:01:23Z</time>
      </trkpt>
      <trkpt lat="43.165847" lon="-4.91041">
        <ele>934.055</ele>
        <time>2021-08-02T15:01:23Z</time>
      </trkpt>
      <trkpt lat="43.165847" lon="-4.91041">
        <ele>934.010</ele>
        <time>2021-08-02T15:01:23Z</time>
      </trkpt>
      <trkpt lat="43.165847" lon="-4.91041">
        <ele>934.008</ele>
        <time>2021-08-02T15:01:23Z</time>
      </trkpt>
      <trkpt lat="43.165847" lon="-4.91041">
        <ele>934.030</ele>
        <time>2021-08-02T15:01:23Z</time>
      </trkpt>
      <trkpt lat="43.165847" lon="-4.91041">
        <ele>934.082</ele>
        <time>2021-08-02T15:01:23Z</time>
      </trkpt>
      <trkpt lat="43.165847" lon="-4.91041">
        <ele>934.031</ele>
        <time>2021-08-02T15:01:23Z</time>
      </trkpt>
      <trkpt lat="43.165847" lon="-4.91041">
        <ele>934.019</ele>
        <time>2021-08-02T15:01:23Z</time>
      </trkpt>
      <trkpt lat="43.165847" lon="-4.91041">
        <ele>934.029</ele>
        <time>2021-08-02T15:01:23Z</time>
      </trkpt>
      <trkpt lat="43.165847" lon="-4.91041">
        <ele>934.037</ele>
        <time>2021-08-02T15:01:23Z</time>
      </trkpt>
      <trkpt lat="43.165847" lon="-4.91041">
        <ele>934.030</ele>
        <time>2021-08-02T15:01:23Z</time>
      </trkpt>
      <trkpt lat="43.165847" lon="-4.91041">
        <ele>934.078</ele>
        <time>2021-08-02T15:01:23Z</time>
      </trkpt>
      <trkpt lat="43.165847" lon="-4.91041">
        <ele>934.019</ele>
        <time>2021-08-02T15:01:23Z</time>
      </trkpt>
      <trkpt lat="43.165847" lon="-4.91041">
        <ele>934.009</ele>
        <time>2021-08-02T15:01:23Z</time>
      </trkpt>
      <trkpt lat="43.165847" lon="-4.91041">
        <ele>934.019</ele>
        <time>2021-08-02T15:01:23Z</time>
      </trkpt>
      <trkpt lat="43.165847" lon="-4.91041">
        <ele>934.008</ele>
        <time>2021-08-02T15:01:23Z</time>
      </trkpt>
      <trkpt lat="43.165847" lon="-4.91041">
        <ele>934.068</ele>
        <time>2021-08-02T15:01:23Z</time>
      </trkpt>
      <trkpt lat="43.165847" lon="-4.91041">
        <ele>934.030</ele>
        <time>2021-08-02T15:01:23Z</time>
      </trkpt>
      <trkpt lat="43.165847" lon="-4.91041">
        <ele>934.019</ele>
        <time>2021-08-02T15:01:23Z</time>
      </trkpt>
      <trkpt lat="43.165847" lon="-4.91041">
        <ele>934.017</ele>
        <time>2021-08-02T15:01:23Z</time>
      </trkpt>
      <trkpt lat="43.165847" lon="-4.91041">
        <ele>934.057</ele>
        <time>2021-08-02T15:01:23Z</time>
      </trkpt>
      <trkpt lat="43.165847" lon="-4.91041">
        <ele>934.045</ele>
        <time>2021-08-02T15:01:23Z</time>
      </trkpt>
      <trkpt lat="43.165847" lon="-4.91041">
        <ele>934.078</ele>
        <time>2021-08-02T15:01:23Z</time>
      </trkpt>
      <trkpt lat="43.165847" lon="-4.91041">
        <ele>934.026</ele>
        <time>2021-08-02T15:01:23Z</time>
      </trkpt>
      <trkpt lat="43.165847" lon="-4.91041">
        <ele>934.054</ele>
        <time>2021-08-02T15:01:23Z</time>
      </trkpt>
      <trkpt lat="43.165847" lon="-4.91041">
        <ele>934.056</ele>
        <time>2021-08-02T15:01:23Z</time>
      </trkpt>
      <trkpt lat="43.165847" lon="-4.91041">
        <ele>934.011</ele>
        <time>2021-08-02T15:01:23Z</time>
      </trkpt>
      <trkpt lat="43.165847" lon="-4.91041">
        <ele>934.008</ele>
        <time>2021-08-02T15:01:23Z</time>
      </trkpt>
      <trkpt lat="43.165847" lon="-4.91041">
        <ele>934.072</ele>
        <time>2021-08-02T15:01:23Z</time>
      </trkpt>
      <trkpt lat="43.165847" lon="-4.91041">
        <ele>934.054</ele>
        <time>2021-08-02T15:01:23Z</time>
      </trkpt>
      <trkpt lat="43.165847" lon="-4.91041">
        <ele>934.023</ele>
        <time>2021-08-02T15:01:23Z</time>
      </trkpt>
      <trkpt lat="43.165847" lon="-4.91041">
        <ele>934.011</ele>
        <time>2021-08-02T15:01:23Z</time>
      </trkpt>
      <trkpt lat="43.165847" lon="-4.91041">
        <ele>934.011</ele>
        <time>2021-08-02T15:01:23Z</time>
      </trkpt>
      <trkpt lat="43.165847" lon="-4.91041">
        <ele>934.079</ele>
        <time>2021-08-02T15:01:23Z</time>
      </trkpt>
      <trkpt lat="43.165847" lon="-4.91041">
        <ele>934.012</ele>
        <time>2021-08-02T15:01:23Z</time>
      </trkpt>
      <trkpt lat="43.165929" lon="-4.910402">
        <ele>930.030</ele>
        <time>2021-08-02T15:32:36Z</time>
      </trkpt>
      <trkpt lat="43.166006" lon="-4.910395">
        <ele>926.785</ele>
        <time>2021-08-02T15:32:38Z</time>
      </trkpt>
      <trkpt lat="43.165966" lon="-4.910455">
        <ele>925.089</ele>
        <time>2021-08-02T15:36:59Z</time>
      </trkpt>
      <trkpt lat="43.16591" lon="-4.910494">
        <ele>925.817</ele>
        <time>2021-08-02T15:40:42Z</time>
      </trkpt>
      <trkpt lat="43.165951" lon="-4.910456">
        <ele>928.108</ele>
        <time>2021-08-02T15:45:22Z</time>
      </trkpt>
      <trkpt lat="43.165982" lon="-4.91041">
        <ele>929.945</ele>
        <time>2021-08-02T15:45:31Z</time>
      </trkpt>
      <trkpt lat="43.165937" lon="-4.910404">
        <ele>932.487</ele>
        <time>2021-08-02T16:01:20Z</time>
      </trkpt>
      <trkpt lat="43.165959" lon="-4.910463">
        <ele>931.966</ele>
        <time>2021-08-02T16:02:43Z</time>
      </trkpt>
      <trkpt lat="43.165959" lon="-4.910463">
        <ele>931.964</ele>
        <time>2021-08-02T16:02:43Z</time>
      </trkpt>
      <trkpt lat="43.165959" lon="-4.910463">
        <ele>931.994</ele>
        <time>2021-08-02T16:02:43Z</time>
      </trkpt>
      <trkpt lat="43.165959" lon="-4.910463">
        <ele>931.942</ele>
        <time>2021-08-02T16:02:43Z</time>
      </trkpt>
      <trkpt lat="43.165959" lon="-4.910463">
        <ele>931.975</ele>
        <time>2021-08-02T16:02:43Z</time>
      </trkpt>
      <trkpt lat="43.165959" lon="-4.910463">
        <ele>931.923</ele>
        <time>2021-08-02T16:02:43Z</time>
      </trkpt>
      <trkpt lat="43.165959" lon="-4.910463">
        <ele>931.957</ele>
        <time>2021-08-02T16:02:43Z</time>
      </trkpt>
      <trkpt lat="43.165959" lon="-4.910463">
        <ele>931.900</ele>
        <time>2021-08-02T16:02:43Z</time>
      </trkpt>
      <trkpt lat="43.165959" lon="-4.910463">
        <ele>931.920</ele>
        <time>2021-08-02T16:02:43Z</time>
      </trkpt>
      <trkpt lat="43.165959" lon="-4.910463">
        <ele>931.908</ele>
        <time>2021-08-02T16:02:43Z</time>
      </trkpt>
      <trkpt lat="43.165959" lon="-4.910463">
        <ele>931.962</ele>
        <time>2021-08-02T16:02:43Z</time>
      </trkpt>
      <trkpt lat="43.165959" lon="-4.910463">
        <ele>931.914</ele>
        <time>2021-08-02T16:02:43Z</time>
      </trkpt>
      <trkpt lat="43.165959" lon="-4.910463">
        <ele>931.933</ele>
        <time>2021-08-02T16:02:43Z</time>
      </trkpt>
      <trkpt lat="43.165959" lon="-4.910463">
        <ele>931.931</ele>
        <time>2021-08-02T16:02:43Z</time>
      </trkpt>
      <trkpt lat="43.165959" lon="-4.910463">
        <ele>931.941</ele>
        <time>2021-08-02T16:02:43Z</time>
      </trkpt>
      <trkpt lat="43.165959" lon="-4.910463">
        <ele>931.929</ele>
        <time>2021-08-02T16:02:43Z</time>
      </trkpt>
      <trkpt lat="43.165959" lon="-4.910463">
        <ele>931.982</ele>
        <time>2021-08-02T16:02:43Z</time>
      </trkpt>
      <trkpt lat="43.165959" lon="-4.910463">
        <ele>931.960</ele>
        <time>2021-08-02T16:02:43Z</time>
      </trkpt>
      <trkpt lat="43.165959" lon="-4.910463">
        <ele>931.986</ele>
        <time>2021-08-02T16:02:43Z</time>
      </trkpt>
      <trkpt lat="43.165959" lon="-4.910463">
        <ele>931.960</ele>
        <time>2021-08-02T16:02:43Z</time>
      </trkpt>
      <trkpt lat="43.165959" lon="-4.910463">
        <ele>931.926</ele>
        <time>2021-08-02T16:02:43Z</time>
      </trkpt>
      <trkpt lat="43.165959" lon="-4.910463">
        <ele>931.908</ele>
        <time>2021-08-02T16:02:43Z</time>
      </trkpt>
      <trkpt lat="43.165959" lon="-4.910463">
        <ele>931.925</ele>
        <time>2021-08-02T16:02:43Z</time>
      </trkpt>
      <trkpt lat="43.165959" lon="-4.910463">
        <ele>931.917</ele>
        <time>2021-08-02T16:02:43Z</time>
      </trkpt>
      <trkpt lat="43.165959" lon="-4.910463">
        <ele>931.916</ele>
        <time>2021-08-02T16:02:43Z</time>
      </trkpt>
      <trkpt lat="43.165959" lon="-4.910463">
        <ele>931.944</ele>
        <time>2021-08-02T16:02:43Z</time>
      </trkpt>
      <trkpt lat="43.165959" lon="-4.910463">
        <ele>931.934</ele>
        <time>2021-08-02T16:02:43Z</time>
      </trkpt>
      <trkpt lat="43.165959" lon="-4.910463">
        <ele>931.912</ele>
        <time>2021-08-02T16:02:43Z</time>
      </trkpt>
      <trkpt lat="43.165959" lon="-4.910463">
        <ele>931.935</ele>
        <time>2021-08-02T16:02:43Z</time>
      </trkpt>
      <trkpt lat="43.165959" lon="-4.910463">
        <ele>931.913</ele>
        <time>2021-08-02T16:02:43Z</time>
      </trkpt>
      <trkpt lat="43.165959" lon="-4.910463">
        <ele>931.931</ele>
        <time>2021-08-02T16:02:43Z</time>
      </trkpt>
      <trkpt lat="43.165959" lon="-4.910463">
        <ele>931.961</ele>
        <time>2021-08-02T16:02:43Z</time>
      </trkpt>
      <trkpt lat="43.165959" lon="-4.910463">
        <ele>931.907</ele>
        <time>2021-08-02T16:02:43Z</time>
      </trkpt>
      <trkpt lat="43.165959" lon="-4.910463">
        <ele>931.908</ele>
        <time>2021-08-02T16:02:43Z</time>
      </trkpt>
      <trkpt lat="43.165959" lon="-4.910463">
        <ele>931.930</ele>
        <time>2021-08-02T16:02:43Z</time>
      </trkpt>
      <trkpt lat="43.165959" lon="-4.910463">
        <ele>931.932</ele>
        <time>2021-08-02T16:02:43Z</time>
      </trkpt>
      <trkpt lat="43.165959" lon="-4.910463">
        <ele>931.961</ele>
        <time>2021-08-02T16:02:43Z</time>
      </trkpt>
      <trkpt lat="43.165959" lon="-4.910463">
        <ele>931.979</ele>
        <time>2021-08-02T16:02:43Z</time>
      </trkpt>
      <trkpt lat="43.165959" lon="-4.910463">
        <ele>931.979</ele>
        <time>2021-08-02T16:02:43Z</time>
      </trkpt>
      <trkpt lat="43.165959" lon="-4.910463">
        <ele>931.967</ele>
        <time>2021-08-02T16:02:43Z</time>
      </trkpt>
      <trkpt lat="43.165959" lon="-4.910463">
        <ele>931.930</ele>
        <time>2021-08-02T16:02:43Z</time>
      </trkpt>
      <trkpt lat="43.165959" lon="-4.910463">
        <ele>931.978</ele>
        <time>2021-08-02T16:02:43Z</time>
      </trkpt>
      <trkpt lat="43.165959" lon="-4.910463">
        <ele>931.963</ele>
        <time>2021-08-02T16:02:43Z</time>
      </trkpt>
      <trkpt lat="43.165901" lon="-4.910495">
        <ele>927.944</ele>
        <time>2021-08-02T16:06:09Z</time>
      </trkpt>
      <trkpt lat="43.165935" lon="-4.91045">
        <ele>923.918</ele>
        <time>2021-08-02T16:07:10Z</time>
      </trkpt>
      <trkpt lat="43.165932" lon="-4.910376">
        <ele>920.708</ele>
        <time>2021-08-02T16:07:37Z</time>
      </trkpt>
      <trkpt lat="43.16594" lon="-4.910307">
        <ele>918.283</ele>
        <time>2021-08-02T16:07:41Z</time>
      </trkpt>
      <trkpt lat="43.165958" lon="-4.910249">
        <ele>916.775</ele>
        <time>2021-08-02T16:07:45Z</time>
      </trkpt>
      <trkpt lat="43.16598" lon="-4.910189">
        <ele>917.274</ele>
        <time>2021-08-02T16:07:51Z</time>
      </trkpt>
      <trkpt lat="43.166021" lon="-4.910144">
        <ele>917.962</ele>
        <time>2021-08-02T16:07:57Z</time>
      </trkpt>
      <trkpt lat="43.166049" lon="-4.910088">
        <ele>918.862</ele>
        <time>2021-08-02T16:08:01Z</time>
      </trkpt>
      <trkpt lat="43.166075" lon="-4.910032">
        <ele>919.350</ele>
        <time>2021-08-02T16:08:06Z</time>
      </trkpt>
      <trkpt lat="43.166094" lon="-4.909965">
        <ele>920.263</ele>
        <time>2021-08-02T16:08:10Z</time>
      </trkpt>
      <trkpt lat="43.166133" lon="-4.90992">
        <ele>921.531</ele>
        <time>2021-08-02T16:08:47Z</time>
      </trkpt>
      <trkpt lat="43.16616" lon="-4.909869">
        <ele>922.966</ele>
        <time>2021-08-02T16:08:50Z</time>
      </trkpt>
      <trkpt lat="43.166193" lon="-4.90982">
        <ele>923.129</ele>
        <time>2021-08-02T16:08:53Z</time>
      </trkpt>
      <trkpt lat="43.166199" lon="-4.909759">
        <ele>924.721</ele>
        <time>2021-08-02T16:08:56Z</time>
      </trkpt>
      <trkpt lat="43.166194" lon="-4.909693">
        <ele>924.808</ele>
        <time>2021-08-02T16:08:59Z</time>
      </trkpt>
      <trkpt lat="43.166185" lon="-4.909624">
        <ele>925.053</ele>
        <time>2021-08-02T16:09:02Z</time>
      </trkpt>
      <trkpt lat="43.166173" lon="-4.909556">
        <ele>925.555</ele>
        <time>2021-08-02T16:09:06Z</time>
      </trkpt>
      <trkpt lat="43.166165" lon="-4.909495">
        <ele>926.234</ele>
        <time>2021-08-02T16:09:10Z</time>
      </trkpt>
      <trkpt lat="43.166154" lon="-4.909427">
        <ele>926.952</ele>
        <time>2021-08-02T16:09:14Z</time>
      </trkpt>
      <trkpt lat="43.166155" lon="-4.909365">
        <ele>928.092</ele>
        <time>2021-08-02T16:09:18Z</time>
      </trkpt>
      <trkpt lat="43.166175" lon="-4.909292">
        <ele>929.350</ele>
        <time>2021-08-02T16:09:23Z</time>
      </trkpt>
      <trkpt lat="43.1662" lon="-4.909237">
        <ele>929.793</ele>
        <time>2021-08-02T16:09:28Z</time>
      </trkpt>
      <trkpt lat="43.166224" lon="-4.909167">
        <ele>930.061</ele>
        <time>2021-08-02T16:09:32Z</time>
      </trkpt>
      <trkpt lat="43.166247" lon="-4.909105">
        <ele>930.134</ele>
        <time>2021-08-02T16:09:37Z</time>
      </trkpt>
      <trkpt lat="43.16627" lon="-4.909039">
        <ele>930.655</ele>
        <time>2021-08-02T16:09:43Z</time>
      </trkpt>
      <trkpt lat="43.166285" lon="-4.908974">
        <ele>932.410</ele>
        <time>2021-08-02T16:10:23Z</time>
      </trkpt>
      <trkpt lat="43.166321" lon="-4.908935">
        <ele>932.508</ele>
        <time>2021-08-02T16:10:27Z</time>
      </trkpt>
      <trkpt lat="43.16635" lon="-4.908884">
        <ele>932.990</ele>
        <time>2021-08-02T16:10:31Z</time>
      </trkpt>
      <trkpt lat="43.166378" lon="-4.908832">
        <ele>933.772</ele>
        <time>2021-08-02T16:10:36Z</time>
      </trkpt>
      <trkpt lat="43.166395" lon="-4.908766">
        <ele>934.071</ele>
        <time>2021-08-02T16:10:41Z</time>
      </trkpt>
      <trkpt lat="43.166414" lon="-4.90871">
        <ele>934.389</ele>
        <time>2021-08-02T16:10:44Z</time>
      </trkpt>
      <trkpt lat="43.166431" lon="-4.908636">
        <ele>934.769</ele>
        <time>2021-08-02T16:10:50Z</time>
      </trkpt>
      <trkpt lat="43.166458" lon="-4.908569">
        <ele>935.037</ele>
        <time>2021-08-02T16:10:55Z</time>
      </trkpt>
      <trkpt lat="43.166492" lon="-4.908516">
        <ele>935.680</ele>
        <time>2021-08-02T16:11:00Z</time>
      </trkpt>
      <trkpt lat="43.166537" lon="-4.908468">
        <ele>936.198</ele>
        <time>2021-08-02T16:11:05Z</time>
      </trkpt>
      <trkpt lat="43.16658" lon="-4.908416">
        <ele>936.117</ele>
        <time>2021-08-02T16:11:10Z</time>
      </trkpt>
      <trkpt lat="43.166625" lon="-4.908382">
        <ele>936.287</ele>
        <time>2021-08-02T16:11:15Z</time>
      </trkpt>
      <trkpt lat="43.166668" lon="-4.90836">
        <ele>936.215</ele>
        <time>2021-08-02T16:11:19Z</time>
      </trkpt>
      <trkpt lat="43.166715" lon="-4.908348">
        <ele>935.808</ele>
        <time>2021-08-02T16:11:24Z</time>
      </trkpt>
      <trkpt lat="43.16676" lon="-4.908342">
        <ele>936.128</ele>
        <time>2021-08-02T16:11:29Z</time>
      </trkpt>
      <trkpt lat="43.166807" lon="-4.908348">
        <ele>935.590</ele>
        <time>2021-08-02T16:11:33Z</time>
      </trkpt>
      <trkpt lat="43.166855" lon="-4.908348">
        <ele>935.639</ele>
        <time>2021-08-02T16:11:37Z</time>
      </trkpt>
      <trkpt lat="43.166902" lon="-4.908339">
        <ele>936.097</ele>
        <time>2021-08-02T16:11:42Z</time>
      </trkpt>
      <trkpt lat="43.166947" lon="-4.908328">
        <ele>935.467</ele>
        <time>2021-08-02T16:11:46Z</time>
      </trkpt>
      <trkpt lat="43.166993" lon="-4.908304">
        <ele>935.545</ele>
        <time>2021-08-02T16:11:50Z</time>
      </trkpt>
      <trkpt lat="43.16704" lon="-4.90829">
        <ele>935.788</ele>
        <time>2021-08-02T16:11:54Z</time>
      </trkpt>
      <trkpt lat="43.167092" lon="-4.908283">
        <ele>936.046</ele>
        <time>2021-08-02T16:11:59Z</time>
      </trkpt>
      <trkpt lat="43.167143" lon="-4.908283">
        <ele>935.543</ele>
        <time>2021-08-02T16:12:03Z</time>
      </trkpt>
      <trkpt lat="43.167189" lon="-4.908291">
        <ele>935.864</ele>
        <time>2021-08-02T16:12:07Z</time>
      </trkpt>
      <trkpt lat="43.167233" lon="-4.908303">
        <ele>936.510</ele>
        <time>2021-08-02T16:12:11Z</time>
      </trkpt>
      <trkpt lat="43.167281" lon="-4.908316">
        <ele>936.508</ele>
        <time>2021-08-02T16:12:15Z</time>
      </trkpt>
      <trkpt lat="43.16733" lon="-4.908335">
        <ele>935.621</ele>
        <time>2021-08-02T16:12:20Z</time>
      </trkpt>
      <trkpt lat="43.167378" lon="-4.908349">
        <ele>935.843</ele>
        <time>2021-08-02T16:12:24Z</time>
      </trkpt>
      <trkpt lat="43.167423" lon="-4.908343">
        <ele>935.242</ele>
        <time>2021-08-02T16:12:31Z</time>
      </trkpt>
      <trkpt lat="43.167475" lon="-4.908326">
        <ele>934.870</ele>
        <time>2021-08-02T16:12:35Z</time>
      </trkpt>
      <trkpt lat="43.167522" lon="-4.908299">
        <ele>933.630</ele>
        <time>2021-08-02T16:12:40Z</time>
      </trkpt>
      <trkpt lat="43.167562" lon="-4.908263">
        <ele>933.618</ele>
        <time>2021-08-02T16:12:43Z</time>
      </trkpt>
      <trkpt lat="43.167603" lon="-4.908224">
        <ele>933.891</ele>
        <time>2021-08-02T16:12:48Z</time>
      </trkpt>
      <trkpt lat="43.167641" lon="-4.908179">
        <ele>933.919</ele>
        <time>2021-08-02T16:12:52Z</time>
      </trkpt>
      <trkpt lat="43.167677" lon="-4.908127">
        <ele>933.868</ele>
        <time>2021-08-02T16:12:55Z</time>
      </trkpt>
      <trkpt lat="43.167687" lon="-4.908061">
        <ele>933.242</ele>
        <time>2021-08-02T16:13:07Z</time>
      </trkpt>
      <trkpt lat="43.16772" lon="-4.908015">
        <ele>933.426</ele>
        <time>2021-08-02T16:13:12Z</time>
      </trkpt>
      <trkpt lat="43.167759" lon="-4.907968">
        <ele>932.908</ele>
        <time>2021-08-02T16:13:19Z</time>
      </trkpt>
      <trkpt lat="43.167799" lon="-4.907928">
        <ele>932.433</ele>
        <time>2021-08-02T16:13:23Z</time>
      </trkpt>
      <trkpt lat="43.167846" lon="-4.907908">
        <ele>932.435</ele>
        <time>2021-08-02T16:13:28Z</time>
      </trkpt>
      <trkpt lat="43.167887" lon="-4.907876">
        <ele>931.854</ele>
        <time>2021-08-02T16:13:33Z</time>
      </trkpt>
      <trkpt lat="43.167932" lon="-4.907872">
        <ele>931.532</ele>
        <time>2021-08-02T16:14:17Z</time>
      </trkpt>
      <trkpt lat="43.167977" lon="-4.907872">
        <ele>931.322</ele>
        <time>2021-08-02T16:14:22Z</time>
      </trkpt>
      <trkpt lat="43.168022" lon="-4.907895">
        <ele>931.290</ele>
        <time>2021-08-02T16:15:00Z</time>
      </trkpt>
      <trkpt lat="43.168072" lon="-4.907894">
        <ele>931.143</ele>
        <time>2021-08-02T16:15:04Z</time>
      </trkpt>
      <trkpt lat="43.168115" lon="-4.907922">
        <ele>931.131</ele>
        <time>2021-08-02T16:15:07Z</time>
      </trkpt>
      <trkpt lat="43.168152" lon="-4.907959">
        <ele>927.154</ele>
        <time>2021-08-02T16:15:11Z</time>
      </trkpt>
      <trkpt lat="43.168191" lon="-4.907995">
        <ele>923.156</ele>
        <time>2021-08-02T16:15:16Z</time>
      </trkpt>
      <trkpt lat="43.168234" lon="-4.908029">
        <ele>919.111</ele>
        <time>2021-08-02T16:15:21Z</time>
      </trkpt>
      <trkpt lat="43.168277" lon="-4.908055">
        <ele>915.108</ele>
        <time>2021-08-02T16:15:25Z</time>
      </trkpt>
      <trkpt lat="43.168319" lon="-4.908081">
        <ele>911.132</ele>
        <time>2021-08-02T16:15:31Z</time>
      </trkpt>
      <trkpt lat="43.168365" lon="-4.9081">
        <ele>907.114</ele>
        <time>2021-08-02T16:15:35Z</time>
      </trkpt>
      <trkpt lat="43.168415" lon="-4.908112">
        <ele>903.163</ele>
        <time>2021-08-02T16:15:38Z</time>
      </trkpt>
      <trkpt lat="43.16846" lon="-4.908125">
        <ele>899.171</ele>
        <time>2021-08-02T16:15:41Z</time>
      </trkpt>
      <trkpt lat="43.168506" lon="-4.908136">
        <ele>895.161</ele>
        <time>2021-08-02T16:15:44Z</time>
      </trkpt>
      <trkpt lat="43.168555" lon="-4.908141">
        <ele>892.319</ele>
        <time>2021-08-02T16:15:48Z</time>
      </trkpt>
      <trkpt lat="43.168606" lon="-4.908132">
        <ele>890.692</ele>
        <time>2021-08-02T16:15:51Z</time>
      </trkpt>
      <trkpt lat="43.168657" lon="-4.908128">
        <ele>889.650</ele>
        <time>2021-08-02T16:15:54Z</time>
      </trkpt>
      <trkpt lat="43.168709" lon="-4.908119">
        <ele>889.064</ele>
        <time>2021-08-02T16:15:59Z</time>
      </trkpt>
      <trkpt lat="43.168769" lon="-4.908108">
        <ele>888.606</ele>
        <time>2021-08-02T16:16:04Z</time>
      </trkpt>
      <trkpt lat="43.168819" lon="-4.908119">
        <ele>888.416</ele>
        <time>2021-08-02T16:16:09Z</time>
      </trkpt>
      <trkpt lat="43.168866" lon="-4.908122">
        <ele>888.308</ele>
        <time>2021-08-02T16:16:13Z</time>
      </trkpt>
      <trkpt lat="43.168913" lon="-4.908118">
        <ele>888.283</ele>
        <time>2021-08-02T16:16:17Z</time>
      </trkpt>
      <trkpt lat="43.168962" lon="-4.908104">
        <ele>892.235</ele>
        <time>2021-08-02T16:16:22Z</time>
      </trkpt>
      <trkpt lat="43.169008" lon="-4.908084">
        <ele>896.274</ele>
        <time>2021-08-02T16:16:25Z</time>
      </trkpt>
      <trkpt lat="43.169055" lon="-4.908076">
        <ele>900.232</ele>
        <time>2021-08-02T16:16:30Z</time>
      </trkpt>
      <trkpt lat="43.169106" lon="-4.908064">
        <ele>904.222</ele>
        <time>2021-08-02T16:16:35Z</time>
      </trkpt>
      <trkpt lat="43.169156" lon="-4.908062">
        <ele>908.240</ele>
        <time>2021-08-02T16:16:38Z</time>
      </trkpt>
      <trkpt lat="43.16921" lon="-4.908067">
        <ele>912.283</ele>
        <time>2021-08-02T16:16:42Z</time>
      </trkpt>
      <trkpt lat="43.169257" lon="-4.908058">
        <ele>916.291</ele>
        <time>2021-08-02T16:16:45Z</time>
      </trkpt>
      <trkpt lat="43.169297" lon="-4.908028">
        <ele>920.273</ele>
        <time>2021-08-02T16:16:48Z</time>
      </trkpt>
      <trkpt lat="43.169344" lon="-4.908017">
        <ele>924.285</ele>
        <time>2021-08-02T16:16:52Z</time>
      </trkpt>
      <trkpt lat="43.169387" lon="-4.907997">
        <ele>928.213</ele>
        <time>2021-08-02T16:16:56Z</time>
      </trkpt>
      <trkpt lat="43.169433" lon="-4.907978">
        <ele>931.208</ele>
        <time>2021-08-02T16:17:00Z</time>
      </trkpt>
      <trkpt lat="43.169475" lon="-4.90801">
        <ele>933.174</ele>
        <time>2021-08-02T16:17:36Z</time>
      </trkpt>
      <trkpt lat="43.169506" lon="-4.908067">
        <ele>934.236</ele>
        <time>2021-08-02T16:17:40Z</time>
      </trkpt>
      <trkpt lat="43.169533" lon="-4.908122">
        <ele>934.975</ele>
        <time>2021-08-02T16:17:43Z</time>
      </trkpt>
      <trkpt lat="43.169563" lon="-4.908173">
        <ele>935.373</ele>
        <time>2021-08-02T16:17:47Z</time>
      </trkpt>
      <trkpt lat="43.169604" lon="-4.908211">
        <ele>935.533</ele>
        <time>2021-08-02T16:17:51Z</time>
      </trkpt>
      <trkpt lat="43.16965" lon="-4.908232">
        <ele>935.791</ele>
        <time>2021-08-02T16:17:55Z</time>
      </trkpt>
      <trkpt lat="43.169695" lon="-4.908226">
        <ele>935.894</ele>
        <time>2021-08-02T16:17:58Z</time>
      </trkpt>
      <trkpt lat="43.16974" lon="-4.90822">
        <ele>935.822</ele>
        <time>2021-08-02T16:18:02Z</time>
      </trkpt>
      <trkpt lat="43.169781" lon="-4.908247">
        <ele>935.836</ele>
        <time>2021-08-02T16:18:05Z</time>
      </trkpt>
      <trkpt lat="43.169824" lon="-4.90827">
        <ele>935.817</ele>
        <time>2021-08-02T16:18:09Z</time>
      </trkpt>
      <trkpt lat="43.169872" lon="-4.908274">
        <ele>935.818</ele>
        <time>2021-08-02T16:18:13Z</time>
      </trkpt>
      <trkpt lat="43.169931" lon="-4.908278">
        <ele>935.808</ele>
        <time>2021-08-02T16:18:18Z</time>
      </trkpt>
      <trkpt lat="43.169979" lon="-4.908284">
        <ele>935.880</ele>
        <time>2021-08-02T16:18:23Z</time>
      </trkpt>
      <trkpt lat="43.170025" lon="-4.908304">
        <ele>935.862</ele>
        <time>2021-08-02T16:18:27Z</time>
      </trkpt>
      <trkpt lat="43.170075" lon="-4.908321">
        <ele>935.821</ele>
        <time>2021-08-02T16:18:32Z</time>
      </trkpt>
      <trkpt lat="43.170126" lon="-4.908348">
        <ele>935.839</ele>
        <time>2021-08-02T16:18:38Z</time>
      </trkpt>
      <trkpt lat="43.170175" lon="-4.90836">
        <ele>935.879</ele>
        <time>2021-08-02T16:18:43Z</time>
      </trkpt>
      <trkpt lat="43.17022" lon="-4.908352">
        <ele>935.837</ele>
        <time>2021-08-02T16:19:06Z</time>
      </trkpt>
      <trkpt lat="43.170265" lon="-4.90837">
        <ele>932.270</ele>
        <time>2021-08-02T16:19:11Z</time>
      </trkpt>
      <trkpt lat="43.170311" lon="-4.90838">
        <ele>929.948</ele>
        <time>2021-08-02T16:19:16Z</time>
      </trkpt>
      <trkpt lat="43.170359" lon="-4.908358">
        <ele>929.036</ele>
        <time>2021-08-02T16:19:20Z</time>
      </trkpt>
      <trkpt lat="43.170397" lon="-4.908392">
        <ele>927.817</ele>
        <time>2021-08-02T16:19:23Z</time>
      </trkpt>
      <trkpt lat="43.170417" lon="-4.908332">
        <ele>926.918</ele>
        <time>2021-08-02T16:19:31Z</time>
      </trkpt>
      <trkpt lat="43.170443" lon="-4.908282">
        <ele>926.108</ele>
        <time>2021-08-02T16:19:35Z</time>
      </trkpt>
      <trkpt lat="43.170484" lon="-4.908241">
        <ele>925.810</ele>
        <time>2021-08-02T16:19:39Z</time>
      </trkpt>
      <trkpt lat="43.170536" lon="-4.908201">
        <ele>925.012</ele>
        <time>2021-08-02T16:19:43Z</time>
      </trkpt>
      <trkpt lat="43.17055" lon="-4.90814">
        <ele>925.451</ele>
        <time>2021-08-02T16:19:47Z</time>
      </trkpt>
      <trkpt lat="43.170564" lon="-4.908079">
        <ele>924.799</ele>
        <time>2021-08-02T16:19:51Z</time>
      </trkpt>
      <trkpt lat="43.17058" lon="-4.90802">
        <ele>924.459</ele>
        <time>2021-08-02T16:19:55Z</time>
      </trkpt>
      <trkpt lat="43.17058" lon="-4.907954">
        <ele>923.677</ele>
        <time>2021-08-02T16:20:00Z</time>
      </trkpt>
      <trkpt lat="43.170567" lon="-4.90789">
        <ele>923.780</ele>
        <time>2021-08-02T16:20:04Z</time>
      </trkpt>
      <trkpt lat="43.17057" lon="-4.907824">
        <ele>923.188</ele>
        <time>2021-08-02T16:20:08Z</time>
      </trkpt>
      <trkpt lat="43.170588" lon="-4.907758">
        <ele>922.865</ele>
        <time>2021-08-02T16:20:15Z</time>
      </trkpt>
      <trkpt lat="43.170613" lon="-4.907703">
        <ele>922.468</ele>
        <time>2021-08-02T16:20:18Z</time>
      </trkpt>
      <trkpt lat="43.170662" lon="-4.907657">
        <ele>922.414</ele>
        <time>2021-08-02T16:20:23Z</time>
      </trkpt>
      <trkpt lat="43.170702" lon="-4.907622">
        <ele>921.708</ele>
        <time>2021-08-02T16:20:29Z</time>
      </trkpt>
      <trkpt lat="43.170717" lon="-4.907561">
        <ele>921.033</ele>
        <time>2021-08-02T16:20:36Z</time>
      </trkpt>
      <trkpt lat="43.170724" lon="-4.907491">
        <ele>919.745</ele>
        <time>2021-08-02T16:20:41Z</time>
      </trkpt>
      <trkpt lat="43.170731" lon="-4.907427">
        <ele>918.714</ele>
        <time>2021-08-02T16:20:45Z</time>
      </trkpt>
      <trkpt lat="43.170725" lon="-4.907363">
        <ele>918.582</ele>
        <time>2021-08-02T16:20:49Z</time>
      </trkpt>
      <trkpt lat="43.170718" lon="-4.907298">
        <ele>917.252</ele>
        <time>2021-08-02T16:20:54Z</time>
      </trkpt>
      <trkpt lat="43.170694" lon="-4.907243">
        <ele>916.730</ele>
        <time>2021-08-02T16:20:59Z</time>
      </trkpt>
      <trkpt lat="43.170715" lon="-4.907184">
        <ele>916.183</ele>
        <time>2021-08-02T16:21:14Z</time>
      </trkpt>
      <trkpt lat="43.170733" lon="-4.907127">
        <ele>915.781</ele>
        <time>2021-08-02T16:21:17Z</time>
      </trkpt>
      <trkpt lat="43.170756" lon="-4.907069">
        <ele>914.965</ele>
        <time>2021-08-02T16:21:22Z</time>
      </trkpt>
      <trkpt lat="43.170772" lon="-4.907007">
        <ele>914.068</ele>
        <time>2021-08-02T16:21:26Z</time>
      </trkpt>
      <trkpt lat="43.17078" lon="-4.906937">
        <ele>913.414</ele>
        <time>2021-08-02T16:21:31Z</time>
      </trkpt>
      <trkpt lat="43.170785" lon="-4.90687">
        <ele>913.108</ele>
        <time>2021-08-02T16:21:36Z</time>
      </trkpt>
      <trkpt lat="43.170774" lon="-4.906799">
        <ele>912.053</ele>
        <time>2021-08-02T16:21:41Z</time>
      </trkpt>
      <trkpt lat="43.170767" lon="-4.906737">
        <ele>911.645</ele>
        <time>2021-08-02T16:21:45Z</time>
      </trkpt>
      <trkpt lat="43.170751" lon="-4.906677">
        <ele>911.164</ele>
        <time>2021-08-02T16:21:50Z</time>
      </trkpt>
      <trkpt lat="43.170746" lon="-4.906613">
        <ele>911.782</ele>
        <time>2021-08-02T16:21:55Z</time>
      </trkpt>
      <trkpt lat="43.170746" lon="-4.906541">
        <ele>910.132</ele>
        <time>2021-08-02T16:22:01Z</time>
      </trkpt>
      <trkpt lat="43.17074" lon="-4.906613">
        <ele>909.730</ele>
        <time>2021-08-02T16:22:24Z</time>
      </trkpt>
      <trkpt lat="43.170729" lon="-4.906551">
        <ele>908.723</ele>
        <time>2021-08-02T16:22:32Z</time>
      </trkpt>
      <trkpt lat="43.170749" lon="-4.906486">
        <ele>907.841</ele>
        <time>2021-08-02T16:22:37Z</time>
      </trkpt>
      <trkpt lat="43.170776" lon="-4.906433">
        <ele>907.174</ele>
        <time>2021-08-02T16:22:41Z</time>
      </trkpt>
      <trkpt lat="43.170789" lon="-4.906368">
        <ele>906.156</ele>
        <time>2021-08-02T16:22:46Z</time>
      </trkpt>
      <trkpt lat="43.170772" lon="-4.906306">
        <ele>906.221</ele>
        <time>2021-08-02T16:22:50Z</time>
      </trkpt>
      <trkpt lat="43.170756" lon="-4.906245">
        <ele>905.408</ele>
        <time>2021-08-02T16:22:55Z</time>
      </trkpt>
      <trkpt lat="43.17073" lon="-4.906187">
        <ele>904.994</ele>
        <time>2021-08-02T16:23:00Z</time>
      </trkpt>
      <trkpt lat="43.170687" lon="-4.906163">
        <ele>904.676</ele>
        <time>2021-08-02T16:23:25Z</time>
      </trkpt>
      <trkpt lat="43.170659" lon="-4.906108">
        <ele>900.625</ele>
        <time>2021-08-02T16:23:30Z</time>
      </trkpt>
      <trkpt lat="43.170628" lon="-4.90606">
        <ele>896.653</ele>
        <time>2021-08-02T16:23:36Z</time>
      </trkpt>
      <trkpt lat="43.170594" lon="-4.90602">
        <ele>893.263</ele>
        <time>2021-08-02T16:23:41Z</time>
      </trkpt>
      <trkpt lat="43.170554" lon="-4.905991">
        <ele>891.271</ele>
        <time>2021-08-02T16:23:45Z</time>
      </trkpt>
      <trkpt lat="43.170516" lon="-4.905954">
        <ele>890.054</ele>
        <time>2021-08-02T16:23:48Z</time>
      </trkpt>
      <trkpt lat="43.170472" lon="-4.905925">
        <ele>889.342</ele>
        <time>2021-08-02T16:23:53Z</time>
      </trkpt>
      <trkpt lat="43.170432" lon="-4.905887">
        <ele>888.952</ele>
        <time>2021-08-02T16:23:57Z</time>
      </trkpt>
      <trkpt lat="43.1704" lon="-4.905839">
        <ele>888.553</ele>
        <time>2021-08-02T16:24:01Z</time>
      </trkpt>
      <trkpt lat="43.170363" lon="-4.905797">
        <ele>888.308</ele>
        <time>2021-08-02T16:24:05Z</time>
      </trkpt>
      <trkpt lat="43.170321" lon="-4.905771">
        <ele>888.208</ele>
        <time>2021-08-02T16:24:10Z</time>
      </trkpt>
      <trkpt lat="43.170287" lon="-4.905727">
        <ele>888.182</ele>
        <time>2021-08-02T16:24:14Z</time>
      </trkpt>
      <trkpt lat="43.170257" lon="-4.905674">
        <ele>888.074</ele>
        <time>2021-08-02T16:24:20Z</time>
      </trkpt>
      <trkpt lat="43.170214" lon="-4.905638">
        <ele>887.943</ele>
        <time>2021-08-02T16:24:25Z</time>
      </trkpt>
      <trkpt lat="43.170171" lon="-4.905608">
        <ele>887.981</ele>
        <time>2021-08-02T16:24:29Z</time>
      </trkpt>
      <trkpt lat="43.17013" lon="-4.905579">
        <ele>887.971</ele>
        <time>2021-08-02T16:24:34Z</time>
      </trkpt>
      <trkpt lat="43.170117" lon="-4.905518">
        <ele>887.929</ele>
        <time>2021-08-02T16:24:40Z</time>
      </trkpt>
      <trkpt lat="43.170072" lon="-4.905525">
        <ele>887.952</ele>
        <time>2021-08-02T16:24:53Z</time>
      </trkpt>
      <trkpt lat="43.170027" lon="-4.905523">
        <ele>887.960</ele>
        <time>2021-08-02T16:24:56Z</time>
      </trkpt>
      <trkpt lat="43.169979" lon="-4.905505">
        <ele>887.926</ele>
        <time>2021-08-02T16:25:00Z</time>
      </trkpt>
      <trkpt lat="43.169937" lon="-4.905477">
        <ele>887.947</ele>
        <time>2021-08-02T16:25:04Z</time>
      </trkpt>
      <trkpt lat="43.169909" lon="-4.905424">
        <ele>887.911</ele>
        <time>2021-08-02T16:25:09Z</time>
      </trkpt>
      <trkpt lat="43.169918" lon="-4.905358">
        <ele>887.908</ele>
        <time>2021-08-02T16:25:15Z</time>
      </trkpt>
      <trkpt lat="43.169965" lon="-4.905372">
        <ele>887.939</ele>
        <time>2021-08-02T16:25:19Z</time>
      </trkpt>
      <trkpt lat="43.169979" lon="-4.905431">
        <ele>887.961</ele>
        <time>2021-08-02T16:25:23Z</time>
      </trkpt>
      <trkpt lat="43.17" lon="-4.905376">
        <ele>888.050</ele>
        <time>2021-08-02T16:25:34Z</time>
      </trkpt>
      <trkpt lat="43.169997" lon="-4.905307">
        <ele>888.088</ele>
        <time>2021-08-02T16:25:38Z</time>
      </trkpt>
      <trkpt lat="43.170009" lon="-4.905238">
        <ele>888.058</ele>
        <time>2021-08-02T16:25:43Z</time>
      </trkpt>
      <trkpt lat="43.170032" lon="-4.905183">
        <ele>888.016</ele>
        <time>2021-08-02T16:25:48Z</time>
      </trkpt>
      <trkpt lat="43.170065" lon="-4.905136">
        <ele>888.039</ele>
        <time>2021-08-02T16:25:53Z</time>
      </trkpt>
      <trkpt lat="43.170098" lon="-4.905089">
        <ele>888.027</ele>
        <time>2021-08-02T16:25:58Z</time>
      </trkpt>
      <trkpt lat="43.170132" lon="-4.905043">
        <ele>888.059</ele>
        <time>2021-08-02T16:26:03Z</time>
      </trkpt>
      <trkpt lat="43.170169" lon="-4.905005">
        <ele>888.003</ele>
        <time>2021-08-02T16:26:09Z</time>
      </trkpt>
      <trkpt lat="43.1702" lon="-4.904956">
        <ele>888.023</ele>
        <time>2021-08-02T16:26:15Z</time>
      </trkpt>
      <trkpt lat="43.170233" lon="-4.904911">
        <ele>888.008</ele>
        <time>2021-08-02T16:26:20Z</time>
      </trkpt>
      <trkpt lat="43.170265" lon="-4.904866">
        <ele>888.042</ele>
        <time>2021-08-02T16:26:29Z</time>
      </trkpt>
      <trkpt lat="43.170294" lon="-4.90481">
        <ele>888.094</ele>
        <time>2021-08-02T16:27:08Z</time>
      </trkpt>
      <trkpt lat="43.170341" lon="-4.904776">
        <ele>888.093</ele>
        <time>2021-08-02T16:27:12Z</time>
      </trkpt>
      <trkpt lat="43.170369" lon="-4.904726">
        <ele>888.031</ele>
        <time>2021-08-02T16:27:53Z</time>
      </trkpt>
      <trkpt lat="43.170414" lon="-4.904706">
        <ele>887.981</ele>
        <time>2021-08-02T16:27:57Z</time>
      </trkpt>
      <trkpt lat="43.170458" lon="-4.90469">
        <ele>887.929</ele>
        <time>2021-08-02T16:28:01Z</time>
      </trkpt>
      <trkpt lat="43.170509" lon="-4.904687">
        <ele>887.882</ele>
        <time>2021-08-02T16:28:05Z</time>
      </trkpt>
      <trkpt lat="43.170546" lon="-4.904639">
        <ele>887.920</ele>
        <time>2021-08-02T16:28:09Z</time>
      </trkpt>
      <trkpt lat="43.170561" lon="-4.904572">
        <ele>887.911</ele>
        <time>2021-08-02T16:28:13Z</time>
      </trkpt>
      <trkpt lat="43.170578" lon="-4.904512">
        <ele>887.921</ele>
        <time>2021-08-02T16:28:27Z</time>
      </trkpt>
      <trkpt lat="43.170615" lon="-4.904473">
        <ele>887.903</ele>
        <time>2021-08-02T16:28:31Z</time>
      </trkpt>
      <trkpt lat="43.170626" lon="-4.904413">
        <ele>887.908</ele>
        <time>2021-08-02T16:28:36Z</time>
      </trkpt>
      <trkpt lat="43.170624" lon="-4.904342">
        <ele>887.948</ele>
        <time>2021-08-02T16:28:41Z</time>
      </trkpt>
      <trkpt lat="43.170631" lon="-4.904277">
        <ele>887.950</ele>
        <time>2021-08-02T16:28:46Z</time>
      </trkpt>
      <trkpt lat="43.170625" lon="-4.904214">
        <ele>887.999</ele>
        <time>2021-08-02T16:28:53Z</time>
      </trkpt>
      <trkpt lat="43.170616" lon="-4.904151">
        <ele>887.997</ele>
        <time>2021-08-02T16:28:58Z</time>
      </trkpt>
      <trkpt lat="43.170597" lon="-4.904089">
        <ele>887.967</ele>
        <time>2021-08-02T16:29:02Z</time>
      </trkpt>
      <trkpt lat="43.170642" lon="-4.904064">
        <ele>887.955</ele>
        <time>2021-08-02T16:29:05Z</time>
      </trkpt>
      <trkpt lat="43.170699" lon="-4.904062">
        <ele>887.938</ele>
        <time>2021-08-02T16:29:10Z</time>
      </trkpt>
      <trkpt lat="43.170678" lon="-4.904002">
        <ele>887.986</ele>
        <time>2021-08-02T16:29:19Z</time>
      </trkpt>
      <trkpt lat="43.170632" lon="-4.903999">
        <ele>887.917</ele>
        <time>2021-08-02T16:29:22Z</time>
      </trkpt>
      <trkpt lat="43.170583" lon="-4.90397">
        <ele>887.987</ele>
        <time>2021-08-02T16:29:26Z</time>
      </trkpt>
      <trkpt lat="43.170554" lon="-4.904024">
        <ele>887.915</ele>
        <time>2021-08-02T16:30:31Z</time>
      </trkpt>
      <trkpt lat="43.170603" lon="-4.904008">
        <ele>887.908</ele>
        <time>2021-08-02T16:30:45Z</time>
      </trkpt>
      <trkpt lat="43.170654" lon="-4.904002">
        <ele>887.978</ele>
        <time>2021-08-02T16:30:49Z</time>
      </trkpt>
      <trkpt lat="43.170701" lon="-4.903993">
        <ele>887.930</ele>
        <time>2021-08-02T16:30:54Z</time>
      </trkpt>
      <trkpt lat="43.170736" lon="-4.903945">
        <ele>887.959</ele>
        <time>2021-08-02T16:31:00Z</time>
      </trkpt>
      <trkpt lat="43.170772" lon="-4.903907">
        <ele>883.977</ele>
        <time>2021-08-02T16:31:09Z</time>
      </trkpt>
      <trkpt lat="43.170802" lon="-4.90385">
        <ele>879.977</ele>
        <time>2021-08-02T16:31:15Z</time>
      </trkpt>
      <trkpt lat="43.170835" lon="-4.903805">
        <ele>875.935</ele>
        <time>2021-08-02T16:31:18Z</time>
      </trkpt>
      <trkpt lat="43.170881" lon="-4.903779">
        <ele>871.948</ele>
        <time>2021-08-02T16:31:21Z</time>
      </trkpt>
      <trkpt lat="43.170906" lon="-4.90372">
        <ele>867.956</ele>
        <time>2021-08-02T16:31:39Z</time>
      </trkpt>
      <trkpt lat="43.170949" lon="-4.903698">
        <ele>864.615</ele>
        <time>2021-08-02T16:31:45Z</time>
      </trkpt>
      <trkpt lat="43.170999" lon="-4.903683">
        <ele>860.665</ele>
        <time>2021-08-02T16:31:52Z</time>
      </trkpt>
      <trkpt lat="43.171045" lon="-4.903686">
        <ele>856.911</ele>
        <time>2021-08-02T16:32:23Z</time>
      </trkpt>
      <trkpt lat="43.171012" lon="-4.903729">
        <ele>854.508</ele>
        <time>2021-08-02T16:33:52Z</time>
      </trkpt>
      <trkpt lat="43.170985" lon="-4.90379">
        <ele>852.338</ele>
        <time>2021-08-02T16:34:07Z</time>
      </trkpt>
      <trkpt lat="43.170964" lon="-4.903733">
        <ele>851.050</ele>
        <time>2021-08-02T16:34:11Z</time>
      </trkpt>
      <trkpt lat="43.170951" lon="-4.903667">
        <ele>850.979</ele>
        <time>2021-08-02T16:34:15Z</time>
      </trkpt>
      <trkpt lat="43.170971" lon="-4.90361">
        <ele>850.447</ele>
        <time>2021-08-02T16:34:20Z</time>
      </trkpt>
      <trkpt lat="43.171003" lon="-4.903561">
        <ele>850.367</ele>
        <time>2021-08-02T16:34:24Z</time>
      </trkpt>
      <trkpt lat="43.171049" lon="-4.903551">
        <ele>850.255</ele>
        <time>2021-08-02T16:34:31Z</time>
      </trkpt>
      <trkpt lat="43.171084" lon="-4.903603">
        <ele>850.248</ele>
        <time>2021-08-02T16:34:40Z</time>
      </trkpt>
      <trkpt lat="43.171127" lon="-4.90364">
        <ele>849.736</ele>
        <time>2021-08-02T16:34:44Z</time>
      </trkpt>
      <trkpt lat="43.171163" lon="-4.90368">
        <ele>849.828</ele>
        <time>2021-08-02T16:34:47Z</time>
      </trkpt>
      <trkpt lat="43.171184" lon="-4.903736">
        <ele>849.589</ele>
        <time>2021-08-02T16:34:52Z</time>
      </trkpt>
      <trkpt lat="43.171227" lon="-4.90377">
        <ele>849.617</ele>
        <time>2021-08-02T16:34:56Z</time>
      </trkpt>
      <trkpt lat="43.171274" lon="-4.903793">
        <ele>849.108</ele>
        <time>2021-08-02T16:35:04Z</time>
      </trkpt>
      <trkpt lat="43.171263" lon="-4.903855">
        <ele>848.379</ele>
        <time>2021-08-02T16:35:27Z</time>
      </trkpt>
      <trkpt lat="43.171275" lon="-4.903922">
        <ele>847.231</ele>
        <time>2021-08-02T16:35:31Z</time>
      </trkpt>
      <trkpt lat="43.171294" lon="-4.903979">
        <ele>847.620</ele>
        <time>2021-08-02T16:35:37Z</time>
      </trkpt>
      <trkpt lat="43.171341" lon="-4.90402">
        <ele>847.498</ele>
        <time>2021-08-02T16:35:43Z</time>
      </trkpt>
      <trkpt lat="43.171394" lon="-4.904048">
        <ele>846.618</ele>
        <time>2021-08-02T16:35:48Z</time>
      </trkpt>
      <trkpt lat="43.171425" lon="-4.904097">
        <ele>846.936</ele>
        <time>2021-08-02T16:35:53Z</time>
      </trkpt>
      <trkpt lat="43.171449" lon="-4.904156">
        <ele>846.989</ele>
        <time>2021-08-02T16:35:57Z</time>
      </trkpt>
      <trkpt lat="43.171487" lon="-4.904198">
        <ele>846.227</ele>
        <time>2021-08-02T16:36:02Z</time>
      </trkpt>
      <trkpt lat="43.171531" lon="-4.904231">
        <ele>845.595</ele>
        <time>2021-08-02T16:36:07Z</time>
      </trkpt>
      <trkpt lat="43.171576" lon="-4.904259">
        <ele>844.449</ele>
        <time>2021-08-02T16:36:12Z</time>
      </trkpt>
      <trkpt lat="43.171619" lon="-4.904287">
        <ele>843.823</ele>
        <time>2021-08-02T16:36:17Z</time>
      </trkpt>
      <trkpt lat="43.171654" lon="-4.90433">
        <ele>843.708</ele>
        <time>2021-08-02T16:36:21Z</time>
      </trkpt>
      <trkpt lat="43.171682" lon="-4.904381">
        <ele>843.186</ele>
        <time>2021-08-02T16:36:27Z</time>
      </trkpt>
      <trkpt lat="43.171724" lon="-4.904425">
        <ele>843.098</ele>
        <time>2021-08-02T16:36:34Z</time>
      </trkpt>
      <trkpt lat="43.171774" lon="-4.904447">
        <ele>841.277</ele>
        <time>2021-08-02T16:36:59Z</time>
      </trkpt>
      <trkpt lat="43.17183" lon="-4.904432">
        <ele>840.015</ele>
        <time>2021-08-02T16:37:04Z</time>
      </trkpt>
      <trkpt lat="43.171885" lon="-4.904421">
        <ele>838.985</ele>
        <time>2021-08-02T16:37:09Z</time>
      </trkpt>
      <trkpt lat="43.171944" lon="-4.904418">
        <ele>838.293</ele>
        <time>2021-08-02T16:37:14Z</time>
      </trkpt>
      <trkpt lat="43.171989" lon="-4.904404">
        <ele>837.446</ele>
        <time>2021-08-02T16:37:19Z</time>
      </trkpt>
      <trkpt lat="43.172023" lon="-4.904362">
        <ele>837.034</ele>
        <time>2021-08-02T16:37:26Z</time>
      </trkpt>
      <trkpt lat="43.172042" lon="-4.904306">
        <ele>836.547</ele>
        <time>2021-08-02T16:37:30Z</time>
      </trkpt>
      <trkpt lat="43.172061" lon="-4.904248">
        <ele>835.829</ele>
        <time>2021-08-02T16:37:34Z</time>
      </trkpt>
      <trkpt lat="43.172102" lon="-4.904214">
        <ele>835.421</ele>
        <time>2021-08-02T16:37:43Z</time>
      </trkpt>
      <trkpt lat="43.17214" lon="-4.904157">
        <ele>834.708</ele>
        <time>2021-08-02T16:37:49Z</time>
      </trkpt>
      <trkpt lat="43.172188" lon="-4.904146">
        <ele>834.211</ele>
        <time>2021-08-02T16:37:57Z</time>
      </trkpt>
      <trkpt lat="43.172216" lon="-4.904095">
        <ele>833.473</ele>
        <time>2021-08-02T16:38:04Z</time>
      </trkpt>
      <trkpt lat="43.172208" lon="-4.904031">
        <ele>832.792</ele>
        <time>2021-08-02T16:38:32Z</time>
      </trkpt>
      <trkpt lat="43.172251" lon="-4.903999">
        <ele>832.260</ele>
        <time>2021-08-02T16:38:39Z</time>
      </trkpt>
      <trkpt lat="43.172307" lon="-4.904013">
        <ele>831.450</ele>
        <time>2021-08-02T16:38:45Z</time>
      </trkpt>
      <trkpt lat="43.172351" lon="-4.903995">
        <ele>830.358</ele>
        <time>2021-08-02T16:38:51Z</time>
      </trkpt>
      <trkpt lat="43.172393" lon="-4.903966">
        <ele>829.441</ele>
        <time>2021-08-02T16:38:57Z</time>
      </trkpt>
      <trkpt lat="43.172398" lon="-4.903903">
        <ele>828.969</ele>
        <time>2021-08-02T16:39:06Z</time>
      </trkpt>
      <trkpt lat="43.172353" lon="-4.903905">
        <ele>827.399</ele>
        <time>2021-08-02T16:39:19Z</time>
      </trkpt>
      <trkpt lat="43.172307" lon="-4.903908">
        <ele>825.907</ele>
        <time>2021-08-02T16:39:24Z</time>
      </trkpt>
      <trkpt lat="43.172258" lon="-4.903922">
        <ele>824.727</ele>
        <time>2021-08-02T16:39:31Z</time>
      </trkpt>
      <trkpt lat="43.172205" lon="-4.90392">
        <ele>823.908</ele>
        <time>2021-08-02T16:39:37Z</time>
      </trkpt>
      <trkpt lat="43.172152" lon="-4.903923">
        <ele>823.236</ele>
        <time>2021-08-02T16:39:50Z</time>
      </trkpt>
      <trkpt lat="43.172106" lon="-4.903951">
        <ele>822.458</ele>
        <time>2021-08-02T16:40:08Z</time>
      </trkpt>
      <trkpt lat="43.172057" lon="-4.903961">
        <ele>821.777</ele>
        <time>2021-08-02T16:40:13Z</time>
      </trkpt>
      <trkpt lat="43.172009" lon="-4.903951">
        <ele>821.245</ele>
        <time>2021-08-02T16:40:17Z</time>
      </trkpt>
      <trkpt lat="43.171986" lon="-4.903893">
        <ele>820.575</ele>
        <time>2021-08-02T16:40:24Z</time>
      </trkpt>
      <trkpt lat="43.171967" lon="-4.903832">
        <ele>820.133</ele>
        <time>2021-08-02T16:40:31Z</time>
      </trkpt>
      <trkpt lat="43.171923" lon="-4.903818">
        <ele>818.856</ele>
        <time>2021-08-02T16:40:58Z</time>
      </trkpt>
      <trkpt lat="43.171896" lon="-4.903764">
        <ele>817.244</ele>
        <time>2021-08-02T16:41:04Z</time>
      </trkpt>
      <trkpt lat="43.171887" lon="-4.903697">
        <ele>816.264</ele>
        <time>2021-08-02T16:41:10Z</time>
      </trkpt>
      <trkpt lat="43.171887" lon="-4.903632">
        <ele>815.506</ele>
        <time>2021-08-02T16:41:14Z</time>
      </trkpt>
      <trkpt lat="43.171885" lon="-4.903564">
        <ele>814.916</ele>
        <time>2021-08-02T16:41:22Z</time>
      </trkpt>
      <trkpt lat="43.17188" lon="-4.9035">
        <ele>813.908</ele>
        <time>2021-08-02T16:41:25Z</time>
      </trkpt>
      <trkpt lat="43.171887" lon="-4.90342">
        <ele>813.533</ele>
        <time>2021-08-02T16:41:29Z</time>
      </trkpt>
      <trkpt lat="43.171898" lon="-4.903355">
        <ele>812.715</ele>
        <time>2021-08-02T16:41:32Z</time>
      </trkpt>
      <trkpt lat="43.17191" lon="-4.903289">
        <ele>812.774</ele>
        <time>2021-08-02T16:41:36Z</time>
      </trkpt>
      <trkpt lat="43.171938" lon="-4.903236">
        <ele>812.312</ele>
        <time>2021-08-02T16:41:40Z</time>
      </trkpt>
      <trkpt lat="43.171961" lon="-4.903179">
        <ele>812.042</ele>
        <time>2021-08-02T16:41:45Z</time>
      </trkpt>
      <trkpt lat="43.171995" lon="-4.903126">
        <ele>810.880</ele>
        <time>2021-08-02T16:41:52Z</time>
      </trkpt>
      <trkpt lat="43.172032" lon="-4.90309">
        <ele>809.353</ele>
        <time>2021-08-02T16:42:00Z</time>
      </trkpt>
      <trkpt lat="43.172074" lon="-4.903047">
        <ele>808.461</ele>
        <time>2021-08-02T16:42:07Z</time>
      </trkpt>
      <trkpt lat="43.172109" lon="-4.903006">
        <ele>807.418</ele>
        <time>2021-08-02T16:42:14Z</time>
      </trkpt>
      <trkpt lat="43.172152" lon="-4.902974">
        <ele>806.698</ele>
        <time>2021-08-02T16:42:20Z</time>
      </trkpt>
      <trkpt lat="43.1722" lon="-4.902956">
        <ele>806.017</ele>
        <time>2021-08-02T16:42:26Z</time>
      </trkpt>
      <trkpt lat="43.172238" lon="-4.902919">
        <ele>805.508</ele>
        <time>2021-08-02T16:42:31Z</time>
      </trkpt>
      <trkpt lat="43.172267" lon="-4.902867">
        <ele>805.618</ele>
        <time>2021-08-02T16:42:36Z</time>
      </trkpt>
      <trkpt lat="43.172282" lon="-4.902802">
        <ele>804.980</ele>
        <time>2021-08-02T16:42:41Z</time>
      </trkpt>
      <trkpt lat="43.172305" lon="-4.902743">
        <ele>803.919</ele>
        <time>2021-08-02T16:42:46Z</time>
      </trkpt>
      <trkpt lat="43.172333" lon="-4.902692">
        <ele>803.517</ele>
        <time>2021-08-02T16:42:50Z</time>
      </trkpt>
      <trkpt lat="43.172365" lon="-4.902641">
        <ele>802.827</ele>
        <time>2021-08-02T16:42:55Z</time>
      </trkpt>
      <trkpt lat="43.17239" lon="-4.902583">
        <ele>803.155</ele>
        <time>2021-08-02T16:43:01Z</time>
      </trkpt>
      <trkpt lat="43.172436" lon="-4.902552">
        <ele>802.198</ele>
        <time>2021-08-02T16:43:09Z</time>
      </trkpt>
      <trkpt lat="43.172471" lon="-4.902511">
        <ele>801.876</ele>
        <time>2021-08-02T16:43:14Z</time>
      </trkpt>
      <trkpt lat="43.172511" lon="-4.902475">
        <ele>801.686</ele>
        <time>2021-08-02T16:43:18Z</time>
      </trkpt>
      <trkpt lat="43.172553" lon="-4.902442">
        <ele>801.160</ele>
        <time>2021-08-02T16:43:23Z</time>
      </trkpt>
      <trkpt lat="43.172589" lon="-4.902402">
        <ele>800.726</ele>
        <time>2021-08-02T16:43:29Z</time>
      </trkpt>
      <trkpt lat="43.172586" lon="-4.90232">
        <ele>797.708</ele>
        <time>2021-08-02T16:45:06Z</time>
      </trkpt>
      <trkpt lat="43.172585" lon="-4.902255">
        <ele>795.275</ele>
        <time>2021-08-02T16:45:14Z</time>
      </trkpt>
      <trkpt lat="43.172591" lon="-4.902192">
        <ele>793.317</ele>
        <time>2021-08-02T16:45:19Z</time>
      </trkpt>
      <trkpt lat="43.17264" lon="-4.9022">
        <ele>792.726</ele>
        <time>2021-08-02T16:45:55Z</time>
      </trkpt>
      <trkpt lat="43.172681" lon="-4.902154">
        <ele>791.584</ele>
        <time>2021-08-02T16:46:02Z</time>
      </trkpt>
      <trkpt lat="43.172727" lon="-4.902179">
        <ele>793.024</ele>
        <time>2021-08-02T16:48:34Z</time>
      </trkpt>
      <trkpt lat="43.172775" lon="-4.902195">
        <ele>792.932</ele>
        <time>2021-08-02T16:48:39Z</time>
      </trkpt>
      <trkpt lat="43.172813" lon="-4.902233">
        <ele>792.575</ele>
        <time>2021-08-02T16:48:59Z</time>
      </trkpt>
      <trkpt lat="43.172844" lon="-4.902284">
        <ele>791.633</ele>
        <time>2021-08-02T16:49:05Z</time>
      </trkpt>
      <trkpt lat="43.172889" lon="-4.902316">
        <ele>791.232</ele>
        <time>2021-08-02T16:49:12Z</time>
      </trkpt>
      <trkpt lat="43.172935" lon="-4.90232">
        <ele>789.492</ele>
        <time>2021-08-02T16:49:28Z</time>
      </trkpt>
      <trkpt lat="43.172981" lon="-4.902338">
        <ele>788.511</ele>
        <time>2021-08-02T16:49:32Z</time>
      </trkpt>
      <trkpt lat="43.172932" lon="-4.902319">
        <ele>786.408</ele>
        <time>2021-08-02T16:50:27Z</time>
      </trkpt>
      <trkpt lat="43.172951" lon="-4.90238">
        <ele>786.850</ele>
        <time>2021-08-02T16:51:47Z</time>
      </trkpt>
      <trkpt lat="43.172986" lon="-4.902427">
        <ele>787.162</ele>
        <time>2021-08-02T16:51:50Z</time>
      </trkpt>
      <trkpt lat="43.173028" lon="-4.902478">
        <ele>785.631</ele>
        <time>2021-08-02T16:52:20Z</time>
      </trkpt>
      <trkpt lat="43.173064" lon="-4.902527">
        <ele>784.119</ele>
        <time>2021-08-02T16:52:23Z</time>
      </trkpt>
      <trkpt lat="43.17309" lon="-4.90258">
        <ele>783.229</ele>
        <time>2021-08-02T16:52:27Z</time>
      </trkpt>
      <trkpt lat="43.173103" lon="-4.902642">
        <ele>781.987</ele>
        <time>2021-08-02T16:52:33Z</time>
      </trkpt>
      <trkpt lat="43.173106" lon="-4.902712">
        <ele>780.660</ele>
        <time>2021-08-02T16:52:38Z</time>
      </trkpt>
      <trkpt lat="43.173082" lon="-4.902766">
        <ele>779.718</ele>
        <time>2021-08-02T16:52:42Z</time>
      </trkpt>
      <trkpt lat="43.173061" lon="-4.902829">
        <ele>779.038</ele>
        <time>2021-08-02T16:52:46Z</time>
      </trkpt>
      <trkpt lat="43.173041" lon="-4.902896">
        <ele>778.170</ele>
        <time>2021-08-02T16:52:50Z</time>
      </trkpt>
      <trkpt lat="43.173046" lon="-4.902975">
        <ele>777.017</ele>
        <time>2021-08-02T16:52:55Z</time>
      </trkpt>
      <trkpt lat="43.173082" lon="-4.903014">
        <ele>776.208</ele>
        <time>2021-08-02T16:52:59Z</time>
      </trkpt>
      <trkpt lat="43.173122" lon="-4.903047">
        <ele>775.060</ele>
        <time>2021-08-02T16:53:03Z</time>
      </trkpt>
      <trkpt lat="43.173171" lon="-4.903064">
        <ele>773.292</ele>
        <time>2021-08-02T16:53:07Z</time>
      </trkpt>
      <trkpt lat="43.173219" lon="-4.903047">
        <ele>771.721</ele>
        <time>2021-08-02T16:53:12Z</time>
      </trkpt>
      <trkpt lat="43.173253" lon="-4.903006">
        <ele>770.859</ele>
        <time>2021-08-02T16:53:15Z</time>
      </trkpt>
      <trkpt lat="43.173282" lon="-4.902959">
        <ele>769.929</ele>
        <time>2021-08-02T16:53:19Z</time>
      </trkpt>
      <trkpt lat="43.173297" lon="-4.9029">
        <ele>768.447</ele>
        <time>2021-08-02T16:53:23Z</time>
      </trkpt>
      <trkpt lat="43.173333" lon="-4.902863">
        <ele>768.030</ele>
        <time>2021-08-02T16:53:30Z</time>
      </trkpt>
      <trkpt lat="43.173373" lon="-4.902833">
        <ele>767.478</ele>
        <time>2021-08-02T16:53:36Z</time>
      </trkpt>
      <trkpt lat="43.173418" lon="-4.90281">
        <ele>766.954</ele>
        <time>2021-08-02T16:53:43Z</time>
      </trkpt>
      <trkpt lat="43.173463" lon="-4.902829">
        <ele>765.456</ele>
        <time>2021-08-02T16:55:10Z</time>
      </trkpt>
      <trkpt lat="43.173507" lon="-4.902809">
        <ele>763.411</ele>
        <time>2021-08-02T16:55:16Z</time>
      </trkpt>
      <trkpt lat="43.173539" lon="-4.902758">
        <ele>761.608</ele>
        <time>2021-08-02T16:55:23Z</time>
      </trkpt>
      <trkpt lat="43.173542" lon="-4.902691">
        <ele>759.542</ele>
        <time>2021-08-02T16:55:37Z</time>
      </trkpt>
      <trkpt lat="43.173575" lon="-4.902634">
        <ele>758.654</ele>
        <time>2021-08-02T16:55:41Z</time>
      </trkpt>
      <trkpt lat="43.173616" lon="-4.902599">
        <ele>758.623</ele>
        <time>2021-08-02T16:55:45Z</time>
      </trkpt>
      <trkpt lat="43.173625" lon="-4.902532">
        <ele>758.071</ele>
        <time>2021-08-02T16:55:54Z</time>
      </trkpt>
      <trkpt lat="43.173618" lon="-4.902468">
        <ele>758.341</ele>
        <time>2021-08-02T16:55:59Z</time>
      </trkpt>
      <trkpt lat="43.173637" lon="-4.902409">
        <ele>757.429</ele>
        <time>2021-08-02T16:56:05Z</time>
      </trkpt>
      <trkpt lat="43.173663" lon="-4.902358">
        <ele>756.512</ele>
        <time>2021-08-02T16:56:13Z</time>
      </trkpt>
      <trkpt lat="43.173686" lon="-4.902304">
        <ele>755.810</ele>
        <time>2021-08-02T16:56:19Z</time>
      </trkpt>
      <trkpt lat="43.173711" lon="-4.90224">
        <ele>754.619</ele>
        <time>2021-08-02T16:56:26Z</time>
      </trkpt>
      <trkpt lat="43.173723" lon="-4.902178">
        <ele>752.809</ele>
        <time>2021-08-02T16:56:29Z</time>
      </trkpt>
      <trkpt lat="43.173723" lon="-4.902106">
        <ele>752.719</ele>
        <time>2021-08-02T16:56:32Z</time>
      </trkpt>
      <trkpt lat="43.173714" lon="-4.902038">
        <ele>751.308</ele>
        <time>2021-08-02T16:56:36Z</time>
      </trkpt>
      <trkpt lat="43.173686" lon="-4.901983">
        <ele>751.368</ele>
        <time>2021-08-02T16:56:52Z</time>
      </trkpt>
      <trkpt lat="43.17365" lon="-4.901922">
        <ele>750.890</ele>
        <time>2021-08-02T16:56:56Z</time>
      </trkpt>
      <trkpt lat="43.17361" lon="-4.901889">
        <ele>749.999</ele>
        <time>2021-08-02T16:57:00Z</time>
      </trkpt>
      <trkpt lat="43.173571" lon="-4.901852">
        <ele>749.467</ele>
        <time>2021-08-02T16:57:03Z</time>
      </trkpt>
      <trkpt lat="43.173534" lon="-4.901809">
        <ele>748.667</ele>
        <time>2021-08-02T16:57:06Z</time>
      </trkpt>
      <trkpt lat="43.173489" lon="-4.901785">
        <ele>748.345</ele>
        <time>2021-08-02T16:57:10Z</time>
      </trkpt>
      <trkpt lat="43.17346" lon="-4.901736">
        <ele>748.238</ele>
        <time>2021-08-02T16:57:14Z</time>
      </trkpt>
      <trkpt lat="43.173428" lon="-4.901678">
        <ele>747.926</ele>
        <time>2021-08-02T16:57:18Z</time>
      </trkpt>
      <trkpt lat="43.173438" lon="-4.901617">
        <ele>747.998</ele>
        <time>2021-08-02T16:57:23Z</time>
      </trkpt>
      <trkpt lat="43.173472" lon="-4.901572">
        <ele>747.815</ele>
        <time>2021-08-02T16:57:27Z</time>
      </trkpt>
      <trkpt lat="43.17352" lon="-4.901568">
        <ele>747.726</ele>
        <time>2021-08-02T16:57:33Z</time>
      </trkpt>
      <trkpt lat="43.173559" lon="-4.901606">
        <ele>747.508</ele>
        <time>2021-08-02T16:57:38Z</time>
      </trkpt>
      <trkpt lat="43.173605" lon="-4.901621">
        <ele>747.596</ele>
        <time>2021-08-02T16:57:42Z</time>
      </trkpt>
      <trkpt lat="43.173608" lon="-4.901559">
        <ele>747.338</ele>
        <time>2021-08-02T16:58:33Z</time>
      </trkpt>
      <trkpt lat="43.173653" lon="-4.901553">
        <ele>747.697</ele>
        <time>2021-08-02T16:58:41Z</time>
      </trkpt>
      <trkpt lat="43.173656" lon="-4.901486">
        <ele>747.245</ele>
        <time>2021-08-02T17:00:36Z</time>
      </trkpt>
      <trkpt lat="43.173704" lon="-4.901464">
        <ele>746.745</ele>
        <time>2021-08-02T17:00:41Z</time>
      </trkpt>
      <trkpt lat="43.173747" lon="-4.901485">
        <ele>746.373</ele>
        <time>2021-08-02T17:00:52Z</time>
      </trkpt>
      <trkpt lat="43.173747" lon="-4.901565">
        <ele>745.776</ele>
        <time>2021-08-02T17:03:27Z</time>
      </trkpt>
      <trkpt lat="43.173796" lon="-4.901553">
        <ele>744.274</ele>
        <time>2021-08-02T17:03:45Z</time>
      </trkpt>
      <trkpt lat="43.173843" lon="-4.901563">
        <ele>742.952</ele>
        <time>2021-08-02T17:03:49Z</time>
      </trkpt>
      <trkpt lat="43.173878" lon="-4.901602">
        <ele>741.953</ele>
        <time>2021-08-02T17:03:52Z</time>
      </trkpt>
      <trkpt lat="43.173906" lon="-4.901657">
        <ele>740.708</ele>
        <time>2021-08-02T17:03:57Z</time>
      </trkpt>
      <trkpt lat="43.173949" lon="-4.901694">
        <ele>739.308</ele>
        <time>2021-08-02T17:04:00Z</time>
      </trkpt>
      <trkpt lat="43.173984" lon="-4.901737">
        <ele>739.022</ele>
        <time>2021-08-02T17:04:06Z</time>
      </trkpt>
      <trkpt lat="43.17401" lon="-4.901792">
        <ele>738.364</ele>
        <time>2021-08-02T17:04:10Z</time>
      </trkpt>
      <trkpt lat="43.174047" lon="-4.901837">
        <ele>738.213</ele>
        <time>2021-08-02T17:04:14Z</time>
      </trkpt>
      <trkpt lat="43.174089" lon="-4.901882">
        <ele>737.881</ele>
        <time>2021-08-02T17:04:18Z</time>
      </trkpt>
      <trkpt lat="43.174124" lon="-4.901928">
        <ele>736.741</ele>
        <time>2021-08-02T17:04:24Z</time>
      </trkpt>
      <trkpt lat="43.174148" lon="-4.901983">
        <ele>736.679</ele>
        <time>2021-08-02T17:04:29Z</time>
      </trkpt>
      <trkpt lat="43.174174" lon="-4.902033">
        <ele>737.012</ele>
        <time>2021-08-02T17:04:35Z</time>
      </trkpt>
      <trkpt lat="43.174215" lon="-4.902073">
        <ele>736.840</ele>
        <time>2021-08-02T17:04:41Z</time>
      </trkpt>
      <trkpt lat="43.174255" lon="-4.902102">
        <ele>736.785</ele>
        <time>2021-08-02T17:04:46Z</time>
      </trkpt>
      <trkpt lat="43.174287" lon="-4.902156">
        <ele>736.889</ele>
        <time>2021-08-02T17:04:53Z</time>
      </trkpt>
      <trkpt lat="43.174324" lon="-4.902199">
        <ele>736.817</ele>
        <time>2021-08-02T17:04:59Z</time>
      </trkpt>
      <trkpt lat="43.174355" lon="-4.902246">
        <ele>736.208</ele>
        <time>2021-08-02T17:05:05Z</time>
      </trkpt>
      <trkpt lat="43.174399" lon="-4.902223">
        <ele>736.945</ele>
        <time>2021-08-02T17:05:17Z</time>
      </trkpt>
      <trkpt lat="43.174411" lon="-4.902156">
        <ele>737.057</ele>
        <time>2021-08-02T17:05:23Z</time>
      </trkpt>
      <trkpt lat="43.174449" lon="-4.902197">
        <ele>736.786</ele>
        <time>2021-08-02T17:05:34Z</time>
      </trkpt>
      <trkpt lat="43.174492" lon="-4.902176">
        <ele>736.414</ele>
        <time>2021-08-02T17:05:47Z</time>
      </trkpt>
      <trkpt lat="43.174538" lon="-4.902177">
        <ele>736.714</ele>
        <time>2021-08-02T17:06:01Z</time>
      </trkpt>
      <trkpt lat="43.174584" lon="-4.902181">
        <ele>735.862</ele>
        <time>2021-08-02T17:06:19Z</time>
      </trkpt>
      <trkpt lat="43.174627" lon="-4.9022">
        <ele>734.355</ele>
        <time>2021-08-02T17:06:47Z</time>
      </trkpt>
      <trkpt lat="43.174672" lon="-4.902219">
        <ele>733.273</ele>
        <time>2021-08-02T17:06:52Z</time>
      </trkpt>
      <trkpt lat="43.174716" lon="-4.902202">
        <ele>732.317</ele>
        <time>2021-08-02T17:06:57Z</time>
      </trkpt>
      <trkpt lat="43.17476" lon="-4.902219">
        <ele>731.787</ele>
        <time>2021-08-02T17:07:03Z</time>
      </trkpt>
      <trkpt lat="43.174794" lon="-4.902266">
        <ele>731.615</ele>
        <time>2021-08-02T17:07:09Z</time>
      </trkpt>
      <trkpt lat="43.174846" lon="-4.902286">
        <ele>729.408</ele>
        <time>2021-08-02T17:07:22Z</time>
      </trkpt>
      <trkpt lat="43.174874" lon="-4.902342">
        <ele>727.788</ele>
        <time>2021-08-02T17:07:28Z</time>
      </trkpt>
      <trkpt lat="43.174901" lon="-4.902394">
        <ele>726.830</ele>
        <time>2021-08-02T17:07:32Z</time>
      </trkpt>
      <trkpt lat="43.174938" lon="-4.902451">
        <ele>725.469</ele>
        <time>2021-08-02T17:07:38Z</time>
      </trkpt>
      <trkpt lat="43.174974" lon="-4.902499">
        <ele>723.687</ele>
        <time>2021-08-02T17:07:43Z</time>
      </trkpt>
      <trkpt lat="43.175013" lon="-4.902543">
        <ele>722.987</ele>
        <time>2021-08-02T17:07:46Z</time>
      </trkpt>
      <trkpt lat="43.175047" lon="-4.902586">
        <ele>721.885</ele>
        <time>2021-08-02T17:07:49Z</time>
      </trkpt>
      <trkpt lat="43.17508" lon="-4.902628">
        <ele>720.748</ele>
        <time>2021-08-02T17:07:52Z</time>
      </trkpt>
      <trkpt lat="43.175119" lon="-4.902672">
        <ele>720.426</ele>
        <time>2021-08-02T17:07:55Z</time>
      </trkpt>
      <trkpt lat="43.175163" lon="-4.902708">
        <ele>719.958</ele>
        <time>2021-08-02T17:07:58Z</time>
      </trkpt>
      <trkpt lat="43.175206" lon="-4.902737">
        <ele>719.452</ele>
        <time>2021-08-02T17:08:01Z</time>
      </trkpt>
      <trkpt lat="43.175244" lon="-4.902772">
        <ele>719.017</ele>
        <time>2021-08-02T17:08:04Z</time>
      </trkpt>
      <trkpt lat="43.175285" lon="-4.902806">
        <ele>718.808</ele>
        <time>2021-08-02T17:08:07Z</time>
      </trkpt>
      <trkpt lat="43.175327" lon="-4.902853">
        <ele>717.972</ele>
        <time>2021-08-02T17:08:12Z</time>
      </trkpt>
      <trkpt lat="43.175367" lon="-4.902891">
        <ele>717.624</ele>
        <time>2021-08-02T17:08:19Z</time>
      </trkpt>
      <trkpt lat="43.175413" lon="-4.902871">
        <ele>716.883</ele>
        <time>2021-08-02T17:08:24Z</time>
      </trkpt>
      <trkpt lat="43.175448" lon="-4.902828">
        <ele>716.131</ele>
        <time>2021-08-02T17:08:27Z</time>
      </trkpt>
      <trkpt lat="43.175494" lon="-4.902817">
        <ele>716.161</ele>
        <time>2021-08-02T17:08:32Z</time>
      </trkpt>
      <trkpt lat="43.175541" lon="-4.902818">
        <ele>716.459</ele>
        <time>2021-08-02T17:08:38Z</time>
      </trkpt>
      <trkpt lat="43.175586" lon="-4.902822">
        <ele>716.772</ele>
        <time>2021-08-02T17:08:44Z</time>
      </trkpt>
      <trkpt lat="43.175633" lon="-4.902829">
        <ele>717.550</ele>
        <time>2021-08-02T17:08:50Z</time>
      </trkpt>
      <trkpt lat="43.175677" lon="-4.902848">
        <ele>718.057</ele>
        <time>2021-08-02T17:08:56Z</time>
      </trkpt>
      <trkpt lat="43.175688" lon="-4.902782">
        <ele>718.600</ele>
        <time>2021-08-02T17:09:04Z</time>
      </trkpt>
      <trkpt lat="43.175723" lon="-4.902742">
        <ele>718.720</ele>
        <time>2021-08-02T17:09:15Z</time>
      </trkpt>
      <trkpt lat="43.175768" lon="-4.902761">
        <ele>719.508</ele>
        <time>2021-08-02T17:09:19Z</time>
      </trkpt>
      <trkpt lat="43.175824" lon="-4.902784">
        <ele>719.732</ele>
        <time>2021-08-02T17:09:22Z</time>
      </trkpt>
      <trkpt lat="43.175876" lon="-4.902803">
        <ele>719.944</ele>
        <time>2021-08-02T17:09:27Z</time>
      </trkpt>
      <trkpt lat="43.175932" lon="-4.902801">
        <ele>721.263</ele>
        <time>2021-08-02T17:09:33Z</time>
      </trkpt>
      <trkpt lat="43.175996" lon="-4.902809">
        <ele>721.791</ele>
        <time>2021-08-02T17:09:38Z</time>
      </trkpt>
      <trkpt lat="43.176047" lon="-4.902802">
        <ele>722.061</ele>
        <time>2021-08-02T17:09:41Z</time>
      </trkpt>
      <trkpt lat="43.176092" lon="-4.90278">
        <ele>721.819</ele>
        <time>2021-08-02T17:09:45Z</time>
      </trkpt>
      <trkpt lat="43.176139" lon="-4.902754">
        <ele>721.562</ele>
        <time>2021-08-02T17:09:49Z</time>
      </trkpt>
      <trkpt lat="43.176188" lon="-4.902735">
        <ele>722.280</ele>
        <time>2021-08-02T17:09:53Z</time>
      </trkpt>
      <trkpt lat="43.176234" lon="-4.902721">
        <ele>722.857</ele>
        <time>2021-08-02T17:09:57Z</time>
      </trkpt>
      <trkpt lat="43.176281" lon="-4.902731">
        <ele>722.600</ele>
        <time>2021-08-02T17:10:02Z</time>
      </trkpt>
      <trkpt lat="43.176325" lon="-4.90275">
        <ele>722.020</ele>
        <time>2021-08-02T17:10:05Z</time>
      </trkpt>
      <trkpt lat="43.17637" lon="-4.902767">
        <ele>721.608</ele>
        <time>2021-08-02T17:10:10Z</time>
      </trkpt>
      <trkpt lat="43.176415" lon="-4.902776">
        <ele>720.232</ele>
        <time>2021-08-02T17:10:16Z</time>
      </trkpt>
      <trkpt lat="43.17646" lon="-4.902801">
        <ele>720.444</ele>
        <time>2021-08-02T17:10:23Z</time>
      </trkpt>
      <trkpt lat="43.176505" lon="-4.902813">
        <ele>719.953</ele>
        <time>2021-08-02T17:10:28Z</time>
      </trkpt>
      <trkpt lat="43.17655" lon="-4.902836">
        <ele>719.641</ele>
        <time>2021-08-02T17:10:33Z</time>
      </trkpt>
      <trkpt lat="43.1766" lon="-4.902861">
        <ele>719.791</ele>
        <time>2021-08-02T17:10:38Z</time>
      </trkpt>
      <trkpt lat="43.176645" lon="-4.902873">
        <ele>719.239</ele>
        <time>2021-08-02T17:10:43Z</time>
      </trkpt>
      <trkpt lat="43.176694" lon="-4.902872">
        <ele>718.822</ele>
        <time>2021-08-02T17:10:48Z</time>
      </trkpt>
      <trkpt lat="43.176742" lon="-4.90286">
        <ele>718.930</ele>
        <time>2021-08-02T17:10:53Z</time>
      </trkpt>
      <trkpt lat="43.176792" lon="-4.902844">
        <ele>718.968</ele>
        <time>2021-08-02T17:10:57Z</time>
      </trkpt>
      <trkpt lat="43.17684" lon="-4.902847">
        <ele>718.742</ele>
        <time>2021-08-02T17:11:02Z</time>
      </trkpt>
      <trkpt lat="43.176891" lon="-4.902857">
        <ele>718.926</ele>
        <time>2021-08-02T17:11:06Z</time>
      </trkpt>
      <trkpt lat="43.176937" lon="-4.902858">
        <ele>719.008</ele>
        <time>2021-08-02T17:11:11Z</time>
      </trkpt>
      <trkpt lat="43.176988" lon="-4.902843">
        <ele>719.523</ele>
        <time>2021-08-02T17:11:28Z</time>
      </trkpt>
      <trkpt lat="43.177044" lon="-4.902849">
        <ele>720.325</ele>
        <time>2021-08-02T17:11:33Z</time>
      </trkpt>
      <trkpt lat="43.177099" lon="-4.902864">
        <ele>721.344</ele>
        <time>2021-08-02T17:11:38Z</time>
      </trkpt>
      <trkpt lat="43.177149" lon="-4.902895">
        <ele>721.332</ele>
        <time>2021-08-02T17:11:43Z</time>
      </trkpt>
      <trkpt lat="43.177196" lon="-4.902923">
        <ele>721.582</ele>
        <time>2021-08-02T17:11:48Z</time>
      </trkpt>
      <trkpt lat="43.17724" lon="-4.902948">
        <ele>720.850</ele>
        <time>2021-08-02T17:11:53Z</time>
      </trkpt>
      <trkpt lat="43.177294" lon="-4.902954">
        <ele>721.073</ele>
        <time>2021-08-02T17:12:00Z</time>
      </trkpt>
      <trkpt lat="43.177345" lon="-4.902947">
        <ele>720.661</ele>
        <time>2021-08-02T17:12:05Z</time>
      </trkpt>
      <trkpt lat="43.177391" lon="-4.902942">
        <ele>720.469</ele>
        <time>2021-08-02T17:12:08Z</time>
      </trkpt>
      <trkpt lat="43.17744" lon="-4.902948">
        <ele>720.404</ele>
        <time>2021-08-02T17:12:11Z</time>
      </trkpt>
      <trkpt lat="43.177494" lon="-4.902965">
        <ele>720.224</ele>
        <time>2021-08-02T17:12:15Z</time>
      </trkpt>
      <trkpt lat="43.177544" lon="-4.902999">
        <ele>720.008</ele>
        <time>2021-08-02T17:12:20Z</time>
      </trkpt>
      <trkpt lat="43.177574" lon="-4.903064">
        <ele>720.043</ele>
        <time>2021-08-02T17:12:26Z</time>
      </trkpt>
      <trkpt lat="43.177599" lon="-4.903122">
        <ele>720.065</ele>
        <time>2021-08-02T17:12:31Z</time>
      </trkpt>
      <trkpt lat="43.177639" lon="-4.903159">
        <ele>720.434</ele>
        <time>2021-08-02T17:12:36Z</time>
      </trkpt>
      <trkpt lat="43.177686" lon="-4.903179">
        <ele>720.772</ele>
        <time>2021-08-02T17:12:41Z</time>
      </trkpt>
      <trkpt lat="43.177728" lon="-4.903203">
        <ele>720.062</ele>
        <time>2021-08-02T17:12:45Z</time>
      </trkpt>
      <trkpt lat="43.177779" lon="-4.903238">
        <ele>719.510</ele>
        <time>2021-08-02T17:12:51Z</time>
      </trkpt>
      <trkpt lat="43.177829" lon="-4.903235">
        <ele>719.073</ele>
        <time>2021-08-02T17:12:56Z</time>
      </trkpt>
      <trkpt lat="43.177869" lon="-4.903268">
        <ele>720.051</ele>
        <time>2021-08-02T17:13:01Z</time>
      </trkpt>
      <trkpt lat="43.177908" lon="-4.903308">
        <ele>718.855</ele>
        <time>2021-08-02T17:13:07Z</time>
      </trkpt>
      <trkpt lat="43.177951" lon="-4.903335">
        <ele>718.707</ele>
        <time>2021-08-02T17:13:13Z</time>
      </trkpt>
      <trkpt lat="43.177994" lon="-4.903361">
        <ele>718.717</ele>
        <time>2021-08-02T17:13:17Z</time>
      </trkpt>
      <trkpt lat="43.178042" lon="-4.903374">
        <ele>718.608</ele>
        <time>2021-08-02T17:13:22Z</time>
      </trkpt>
      <trkpt lat="43.178093" lon="-4.903378">
        <ele>718.132</ele>
        <time>2021-08-02T17:13:27Z</time>
      </trkpt>
      <trkpt lat="43.178138" lon="-4.903397">
        <ele>717.674</ele>
        <time>2021-08-02T17:13:31Z</time>
      </trkpt>
      <trkpt lat="43.178184" lon="-4.903423">
        <ele>717.033</ele>
        <time>2021-08-02T17:13:36Z</time>
      </trkpt>
      <trkpt lat="43.178221" lon="-4.90346">
        <ele>716.611</ele>
        <time>2021-08-02T17:13:39Z</time>
      </trkpt>
      <trkpt lat="43.178252" lon="-4.903511">
        <ele>715.891</ele>
        <time>2021-08-02T17:13:45Z</time>
      </trkpt>
      <trkpt lat="43.178288" lon="-4.90355">
        <ele>715.369</ele>
        <time>2021-08-02T17:13:49Z</time>
      </trkpt>
      <trkpt lat="43.178337" lon="-4.903542">
        <ele>714.662</ele>
        <time>2021-08-02T17:13:54Z</time>
      </trkpt>
      <trkpt lat="43.178385" lon="-4.90354">
        <ele>714.220</ele>
        <time>2021-08-02T17:13:59Z</time>
      </trkpt>
      <trkpt lat="43.178434" lon="-4.903561">
        <ele>714.179</ele>
        <time>2021-08-02T17:14:04Z</time>
      </trkpt>
      <trkpt lat="43.178475" lon="-4.903593">
        <ele>714.105</ele>
        <time>2021-08-02T17:14:09Z</time>
      </trkpt>
      <trkpt lat="43.178514" lon="-4.903626">
        <ele>713.125</ele>
        <time>2021-08-02T17:14:14Z</time>
      </trkpt>
      <trkpt lat="43.178547" lon="-4.903682">
        <ele>712.608</ele>
        <time>2021-08-02T17:15:43Z</time>
      </trkpt>
      <trkpt lat="43.178553" lon="-4.903753">
        <ele>711.764</ele>
        <time>2021-08-02T17:15:46Z</time>
      </trkpt>
      <trkpt lat="43.178585" lon="-4.903798">
        <ele>710.036</ele>
        <time>2021-08-02T17:15:49Z</time>
      </trkpt>
      <trkpt lat="43.17863" lon="-4.903815">
        <ele>710.045</ele>
        <time>2021-08-02T17:15:52Z</time>
      </trkpt>
      <trkpt lat="43.178676" lon="-4.90382">
        <ele>709.243</ele>
        <time>2021-08-02T17:15:55Z</time>
      </trkpt>
      <trkpt lat="43.178723" lon="-4.903845">
        <ele>708.813</ele>
        <time>2021-08-02T17:15:58Z</time>
      </trkpt>
      <trkpt lat="43.178764" lon="-4.903887">
        <ele>708.731</ele>
        <time>2021-08-02T17:16:02Z</time>
      </trkpt>
      <trkpt lat="43.178795" lon="-4.903933">
        <ele>708.244</ele>
        <time>2021-08-02T17:16:06Z</time>
      </trkpt>
      <trkpt lat="43.178832" lon="-4.90397">
        <ele>707.842</ele>
        <time>2021-08-02T17:16:10Z</time>
      </trkpt>
      <trkpt lat="43.178883" lon="-4.903991">
        <ele>707.542</ele>
        <time>2021-08-02T17:16:13Z</time>
      </trkpt>
      <trkpt lat="43.17894" lon="-4.904015">
        <ele>707.322</ele>
        <time>2021-08-02T17:16:18Z</time>
      </trkpt>
      <trkpt lat="43.178987" lon="-4.904045">
        <ele>706.414</ele>
        <time>2021-08-02T17:16:23Z</time>
      </trkpt>
      <trkpt lat="43.179033" lon="-4.904038">
        <ele>705.308</ele>
        <time>2021-08-02T17:16:34Z</time>
      </trkpt>
      <trkpt lat="43.179081" lon="-4.904037">
        <ele>703.771</ele>
        <time>2021-08-02T17:16:38Z</time>
      </trkpt>
      <trkpt lat="43.179128" lon="-4.904057">
        <ele>703.793</ele>
        <time>2021-08-02T17:16:43Z</time>
      </trkpt>
      <trkpt lat="43.179177" lon="-4.904059">
        <ele>702.772</ele>
        <time>2021-08-02T17:16:47Z</time>
      </trkpt>
      <trkpt lat="43.179224" lon="-4.904079">
        <ele>701.690</ele>
        <time>2021-08-02T17:16:51Z</time>
      </trkpt>
      <trkpt lat="43.179269" lon="-4.904079">
        <ele>701.260</ele>
        <time>2021-08-02T17:16:55Z</time>
      </trkpt>
      <trkpt lat="43.179316" lon="-4.904079">
        <ele>701.118</ele>
        <time>2021-08-02T17:17:00Z</time>
      </trkpt>
      <trkpt lat="43.179362" lon="-4.904088">
        <ele>700.741</ele>
        <time>2021-08-02T17:17:04Z</time>
      </trkpt>
      <trkpt lat="43.179406" lon="-4.904062">
        <ele>699.699</ele>
        <time>2021-08-02T17:17:11Z</time>
      </trkpt>
      <trkpt lat="43.179411" lon="-4.903998">
        <ele>698.167</ele>
        <time>2021-08-02T17:17:27Z</time>
      </trkpt>
      <trkpt lat="43.179456" lon="-4.903979">
        <ele>695.381</ele>
        <time>2021-08-02T17:17:36Z</time>
      </trkpt>
      <trkpt lat="43.1795" lon="-4.904003">
        <ele>693.919</ele>
        <time>2021-08-02T17:17:42Z</time>
      </trkpt>
      <trkpt lat="43.179547" lon="-4.904015">
        <ele>690.308</ele>
        <time>2021-08-02T17:17:59Z</time>
      </trkpt>
      <trkpt lat="43.179584" lon="-4.904055">
        <ele>687.593</ele>
        <time>2021-08-02T17:18:03Z</time>
      </trkpt>
      <trkpt lat="43.179633" lon="-4.904063">
        <ele>685.235</ele>
        <time>2021-08-02T17:18:09Z</time>
      </trkpt>
      <trkpt lat="43.179679" lon="-4.904055">
        <ele>682.374</ele>
        <time>2021-08-02T17:18:18Z</time>
      </trkpt>
      <trkpt lat="43.179724" lon="-4.904038">
        <ele>679.322</ele>
        <time>2021-08-02T17:18:22Z</time>
      </trkpt>
      <trkpt lat="43.179771" lon="-4.904026">
        <ele>677.972</ele>
        <time>2021-08-02T17:18:28Z</time>
      </trkpt>
      <trkpt lat="43.179815" lon="-4.903995">
        <ele>676.810</ele>
        <time>2021-08-02T17:18:34Z</time>
      </trkpt>
      <trkpt lat="43.179862" lon="-4.903994">
        <ele>676.823</ele>
        <time>2021-08-02T17:18:50Z</time>
      </trkpt>
      <trkpt lat="43.179911" lon="-4.903987">
        <ele>674.911</ele>
        <time>2021-08-02T17:18:54Z</time>
      </trkpt>
      <trkpt lat="43.179959" lon="-4.903973">
        <ele>674.463</ele>
        <time>2021-08-02T17:18:58Z</time>
      </trkpt>
      <trkpt lat="43.180003" lon="-4.90393">
        <ele>674.944</ele>
        <time>2021-08-02T17:19:07Z</time>
      </trkpt>
      <trkpt lat="43.180043" lon="-4.903899">
        <ele>674.918</ele>
        <time>2021-08-02T17:19:10Z</time>
      </trkpt>
      <trkpt lat="43.180086" lon="-4.903875">
        <ele>675.208</ele>
        <time>2021-08-02T17:19:13Z</time>
      </trkpt>
      <trkpt lat="43.18013" lon="-4.903855">
        <ele>674.733</ele>
        <time>2021-08-02T17:19:17Z</time>
      </trkpt>
      <trkpt lat="43.180178" lon="-4.903859">
        <ele>675.315</ele>
        <time>2021-08-02T17:19:22Z</time>
      </trkpt>
      <trkpt lat="43.180223" lon="-4.903877">
        <ele>675.294</ele>
        <time>2021-08-02T17:19:27Z</time>
      </trkpt>
      <trkpt lat="43.180268" lon="-4.903888">
        <ele>675.312</ele>
        <time>2021-08-02T17:19:30Z</time>
      </trkpt>
      <trkpt lat="43.180315" lon="-4.903887">
        <ele>674.872</ele>
        <time>2021-08-02T17:19:35Z</time>
      </trkpt>
      <trkpt lat="43.180357" lon="-4.903864">
        <ele>674.760</ele>
        <time>2021-08-02T17:19:39Z</time>
      </trkpt>
      <trkpt lat="43.180398" lon="-4.90383">
        <ele>673.763</ele>
        <time>2021-08-02T17:19:43Z</time>
      </trkpt>
      <trkpt lat="43.180432" lon="-4.903781">
        <ele>673.631</ele>
        <time>2021-08-02T17:19:48Z</time>
      </trkpt>
      <trkpt lat="43.180452" lon="-4.903722">
        <ele>673.411</ele>
        <time>2021-08-02T17:19:55Z</time>
      </trkpt>
      <trkpt lat="43.18047" lon="-4.903661">
        <ele>674.721</ele>
        <time>2021-08-02T17:20:00Z</time>
      </trkpt>
      <trkpt lat="43.180501" lon="-4.903613">
        <ele>675.003</ele>
        <time>2021-08-02T17:20:04Z</time>
      </trkpt>
      <trkpt lat="43.180542" lon="-4.903585">
        <ele>676.308</ele>
        <time>2021-08-02T17:20:09Z</time>
      </trkpt>
      <trkpt lat="43.180593" lon="-4.903584">
        <ele>676.188</ele>
        <time>2021-08-02T17:20:20Z</time>
      </trkpt>
      <trkpt lat="43.180633" lon="-4.903547">
        <ele>677.540</ele>
        <time>2021-08-02T17:20:25Z</time>
      </trkpt>
      <trkpt lat="43.180671" lon="-4.903503">
        <ele>678.599</ele>
        <time>2021-08-02T17:20:29Z</time>
      </trkpt>
      <trkpt lat="43.180703" lon="-4.903459">
        <ele>679.037</ele>
        <time>2021-08-02T17:20:33Z</time>
      </trkpt>
      <trkpt lat="43.180743" lon="-4.90343">
        <ele>680.737</ele>
        <time>2021-08-02T17:20:46Z</time>
      </trkpt>
      <trkpt lat="43.180794" lon="-4.903441">
        <ele>680.415</ele>
        <time>2021-08-02T17:20:54Z</time>
      </trkpt>
      <trkpt lat="43.18084" lon="-4.903421">
        <ele>681.228</ele>
        <time>2021-08-02T17:20:56Z</time>
      </trkpt>
      <trkpt lat="43.180888" lon="-4.903387">
        <ele>681.726</ele>
        <time>2021-08-02T17:20:59Z</time>
      </trkpt>
      <trkpt lat="43.180918" lon="-4.903334">
        <ele>681.799</ele>
        <time>2021-08-02T17:21:02Z</time>
      </trkpt>
      <trkpt lat="43.180933" lon="-4.903274">
        <ele>680.907</ele>
        <time>2021-08-02T17:21:19Z</time>
      </trkpt>
      <trkpt lat="43.18098" lon="-4.903244">
        <ele>678.727</ele>
        <time>2021-08-02T17:21:32Z</time>
      </trkpt>
      <trkpt lat="43.181029" lon="-4.903228">
        <ele>678.608</ele>
        <time>2021-08-02T17:21:41Z</time>
      </trkpt>
      <trkpt lat="43.181093" lon="-4.903224">
        <ele>679.026</ele>
        <time>2021-08-02T17:22:26Z</time>
      </trkpt>
      <trkpt lat="43.181141" lon="-4.903207">
        <ele>679.538</ele>
        <time>2021-08-02T17:22:29Z</time>
      </trkpt>
      <trkpt lat="43.181085" lon="-4.903173">
        <ele>681.247</ele>
        <time>2021-08-02T17:23:06Z</time>
      </trkpt>
      <trkpt lat="43.181122" lon="-4.903213">
        <ele>681.995</ele>
        <time>2021-08-02T17:23:34Z</time>
      </trkpt>
      <trkpt lat="43.181172" lon="-4.9032">
        <ele>683.045</ele>
        <time>2021-08-02T17:23:41Z</time>
      </trkpt>
      <trkpt lat="43.181218" lon="-4.903207">
        <ele>683.193</ele>
        <time>2021-08-02T17:23:44Z</time>
      </trkpt>
      <trkpt lat="43.181255" lon="-4.903171">
        <ele>682.996</ele>
        <time>2021-08-02T17:23:49Z</time>
      </trkpt>
      <trkpt lat="43.181306" lon="-4.903152">
        <ele>683.094</ele>
        <time>2021-08-02T17:23:53Z</time>
      </trkpt>
      <trkpt lat="43.181348" lon="-4.903128">
        <ele>682.163</ele>
        <time>2021-08-02T17:23:59Z</time>
      </trkpt>
      <trkpt lat="43.181394" lon="-4.903112">
        <ele>682.544</ele>
        <time>2021-08-02T17:24:03Z</time>
      </trkpt>
      <trkpt lat="43.181439" lon="-4.903106">
        <ele>682.518</ele>
        <time>2021-08-02T17:24:09Z</time>
      </trkpt>
      <trkpt lat="43.181486" lon="-4.903123">
        <ele>682.108</ele>
        <time>2021-08-02T17:24:17Z</time>
      </trkpt>
      <trkpt lat="43.181532" lon="-4.903096">
        <ele>682.283</ele>
        <time>2021-08-02T17:24:23Z</time>
      </trkpt>
      <trkpt lat="43.181577" lon="-4.903062">
        <ele>681.915</ele>
        <time>2021-08-02T17:24:27Z</time>
      </trkpt>
      <trkpt lat="43.181623" lon="-4.903074">
        <ele>682.324</ele>
        <time>2021-08-02T17:24:33Z</time>
      </trkpt>
      <trkpt lat="43.181663" lon="-4.903044">
        <ele>682.882</ele>
        <time>2021-08-02T17:24:37Z</time>
      </trkpt>
      <trkpt lat="43.181704" lon="-4.903014">
        <ele>683.532</ele>
        <time>2021-08-02T17:24:41Z</time>
      </trkpt>
      <trkpt lat="43.181748" lon="-4.902974">
        <ele>683.420</ele>
        <time>2021-08-02T17:24:44Z</time>
      </trkpt>
      <trkpt lat="43.181788" lon="-4.902942">
        <ele>683.413</ele>
        <time>2021-08-02T17:24:48Z</time>
      </trkpt>
      <trkpt lat="43.181827" lon="-4.90291">
        <ele>683.421</ele>
        <time>2021-08-02T17:24:52Z</time>
      </trkpt>
      <trkpt lat="43.181877" lon="-4.902883">
        <ele>683.349</ele>
        <time>2021-08-02T17:24:55Z</time>
      </trkpt>
      <trkpt lat="43.181924" lon="-4.902854">
        <ele>683.002</ele>
        <time>2021-08-02T17:24:58Z</time>
      </trkpt>
      <trkpt lat="43.181962" lon="-4.902814">
        <ele>683.022</ele>
        <time>2021-08-02T17:25:02Z</time>
      </trkpt>
      <trkpt lat="43.181995" lon="-4.902769">
        <ele>682.308</ele>
        <time>2021-08-02T17:25:07Z</time>
      </trkpt>
      <trkpt lat="43.182038" lon="-4.902733">
        <ele>681.621</ele>
        <time>2021-08-02T17:25:11Z</time>
      </trkpt>
      <trkpt lat="43.182088" lon="-4.902732">
        <ele>680.023</ele>
        <time>2021-08-02T17:25:15Z</time>
      </trkpt>
      <trkpt lat="43.182134" lon="-4.902754">
        <ele>679.852</ele>
        <time>2021-08-02T17:25:20Z</time>
      </trkpt>
      <trkpt lat="43.182177" lon="-4.902773">
        <ele>679.190</ele>
        <time>2021-08-02T17:25:29Z</time>
      </trkpt>
      <trkpt lat="43.182216" lon="-4.902814">
        <ele>678.130</ele>
        <time>2021-08-02T17:25:35Z</time>
      </trkpt>
      <trkpt lat="43.182261" lon="-4.902795">
        <ele>677.458</ele>
        <time>2021-08-02T17:25:44Z</time>
      </trkpt>
      <trkpt lat="43.182306" lon="-4.90282">
        <ele>676.291</ele>
        <time>2021-08-02T17:25:49Z</time>
      </trkpt>
      <trkpt lat="43.18235" lon="-4.902845">
        <ele>675.849</ele>
        <time>2021-08-02T17:25:54Z</time>
      </trkpt>
      <trkpt lat="43.182393" lon="-4.902875">
        <ele>675.469</ele>
        <time>2021-08-02T17:25:59Z</time>
      </trkpt>
      <trkpt lat="43.182435" lon="-4.902907">
        <ele>675.404</ele>
        <time>2021-08-02T17:26:04Z</time>
      </trkpt>
      <trkpt lat="43.182478" lon="-4.902925">
        <ele>674.924</ele>
        <time>2021-08-02T17:26:08Z</time>
      </trkpt>
      <trkpt lat="43.182529" lon="-4.902931">
        <ele>675.308</ele>
        <time>2021-08-02T17:26:12Z</time>
      </trkpt>
      <trkpt lat="43.182573" lon="-4.902948">
        <ele>673.853</ele>
        <time>2021-08-02T17:26:17Z</time>
      </trkpt>
      <trkpt lat="43.18262" lon="-4.902974">
        <ele>673.785</ele>
        <time>2021-08-02T17:26:20Z</time>
      </trkpt>
      <trkpt lat="43.182672" lon="-4.903001">
        <ele>673.394</ele>
        <time>2021-08-02T17:26:23Z</time>
      </trkpt>
      <trkpt lat="43.182714" lon="-4.903027">
        <ele>673.672</ele>
        <time>2021-08-02T17:26:26Z</time>
      </trkpt>
      <trkpt lat="43.182755" lon="-4.90306">
        <ele>673.322</ele>
        <time>2021-08-02T17:26:30Z</time>
      </trkpt>
      <trkpt lat="43.182789" lon="-4.903107">
        <ele>673.530</ele>
        <time>2021-08-02T17:26:34Z</time>
      </trkpt>
      <trkpt lat="43.182829" lon="-4.903141">
        <ele>673.093</ele>
        <time>2021-08-02T17:26:39Z</time>
      </trkpt>
      <trkpt lat="43.182877" lon="-4.903155">
        <ele>673.251</ele>
        <time>2021-08-02T17:26:42Z</time>
      </trkpt>
      <trkpt lat="43.182909" lon="-4.903198">
        <ele>673.788</ele>
        <time>2021-08-02T17:26:49Z</time>
      </trkpt>
      <trkpt lat="43.182949" lon="-4.903228">
        <ele>674.824</ele>
        <time>2021-08-02T17:26:54Z</time>
      </trkpt>
      <trkpt lat="43.182988" lon="-4.90326">
        <ele>675.926</ele>
        <time>2021-08-02T17:27:00Z</time>
      </trkpt>
      <trkpt lat="43.182998" lon="-4.903322">
        <ele>675.408</ele>
        <time>2021-08-02T17:27:15Z</time>
      </trkpt>
      <trkpt lat="43.183021" lon="-4.903377">
        <ele>676.475</ele>
        <time>2021-08-02T17:27:18Z</time>
      </trkpt>
      <trkpt lat="43.183058" lon="-4.903443">
        <ele>675.957</ele>
        <time>2021-08-02T17:27:23Z</time>
      </trkpt>
      <trkpt lat="43.183098" lon="-4.903487">
        <ele>675.846</ele>
        <time>2021-08-02T17:27:28Z</time>
      </trkpt>
      <trkpt lat="43.18314" lon="-4.903523">
        <ele>676.084</ele>
        <time>2021-08-02T17:27:35Z</time>
      </trkpt>
      <trkpt lat="43.183137" lon="-4.903586">
        <ele>676.034</ele>
        <time>2021-08-02T17:27:48Z</time>
      </trkpt>
      <trkpt lat="43.183092" lon="-4.903564">
        <ele>677.122</ele>
        <time>2021-08-02T17:27:58Z</time>
      </trkpt>
      <trkpt lat="43.18305" lon="-4.903539">
        <ele>677.815</ele>
        <time>2021-08-02T17:28:51Z</time>
      </trkpt>
      <trkpt lat="43.183097" lon="-4.903581">
        <ele>681.153</ele>
        <time>2021-08-02T17:29:01Z</time>
      </trkpt>
      <trkpt lat="43.183119" lon="-4.903639">
        <ele>682.596</ele>
        <time>2021-08-02T17:29:05Z</time>
      </trkpt>
      <trkpt lat="43.183129" lon="-4.903702">
        <ele>683.031</ele>
        <time>2021-08-02T17:29:12Z</time>
      </trkpt>
      <trkpt lat="43.183109" lon="-4.903761">
        <ele>682.824</ele>
        <time>2021-08-02T17:29:36Z</time>
      </trkpt>
      <trkpt lat="43.183141" lon="-4.903811">
        <ele>681.608</ele>
        <time>2021-08-02T17:29:43Z</time>
      </trkpt>
      <trkpt lat="43.183165" lon="-4.903868">
        <ele>681.446</ele>
        <time>2021-08-02T17:29:49Z</time>
      </trkpt>
      <trkpt lat="43.183148" lon="-4.903933">
        <ele>681.368</ele>
        <time>2021-08-02T17:30:31Z</time>
      </trkpt>
      <trkpt lat="43.183172" lon="-4.903986">
        <ele>678.087</ele>
        <time>2021-08-02T17:30:35Z</time>
      </trkpt>
      <trkpt lat="43.183198" lon="-4.903927">
        <ele>675.195</ele>
        <time>2021-08-02T17:30:50Z</time>
      </trkpt>
      <trkpt lat="43.183242" lon="-4.903894">
        <ele>672.285</ele>
        <time>2021-08-02T17:30:56Z</time>
      </trkpt>
      <trkpt lat="43.183239" lon="-4.903828">
        <ele>670.853</ele>
        <time>2021-08-02T17:31:19Z</time>
      </trkpt>
      <trkpt lat="43.183228" lon="-4.90376">
        <ele>670.616</ele>
        <time>2021-08-02T17:31:24Z</time>
      </trkpt>
      <trkpt lat="43.183204" lon="-4.903698">
        <ele>669.584</ele>
        <time>2021-08-02T17:31:34Z</time>
      </trkpt>
      <trkpt lat="43.183157" lon="-4.90373">
        <ele>669.485</ele>
        <time>2021-08-02T17:31:44Z</time>
      </trkpt>
      <trkpt lat="43.183123" lon="-4.903689">
        <ele>669.389</ele>
        <time>2021-08-02T17:43:43Z</time>
      </trkpt>
      <trkpt lat="43.183122" lon="-4.903621">
        <ele>673.317</ele>
        <time>2021-08-02T17:44:55Z</time>
      </trkpt>
      <trkpt lat="43.183099" lon="-4.90356">
        <ele>676.608</ele>
        <time>2021-08-02T17:45:01Z</time>
      </trkpt>
      <trkpt lat="43.183066" lon="-4.90351">
        <ele>677.545</ele>
        <time>2021-08-02T17:45:05Z</time>
      </trkpt>
      <trkpt lat="43.183042" lon="-4.903446">
        <ele>678.017</ele>
        <time>2021-08-02T17:45:15Z</time>
      </trkpt>
      <trkpt lat="43.183018" lon="-4.903392">
        <ele>678.146</ele>
        <time>2021-08-02T17:45:22Z</time>
      </trkpt>
      <trkpt lat="43.182979" lon="-4.90335">
        <ele>678.234</ele>
        <time>2021-08-02T17:45:27Z</time>
      </trkpt>
      <trkpt lat="43.182948" lon="-4.903306">
        <ele>677.424</ele>
        <time>2021-08-02T17:45:32Z</time>
      </trkpt>
      <trkpt lat="43.182909" lon="-4.903267">
        <ele>677.322</ele>
        <time>2021-08-02T17:45:35Z</time>
      </trkpt>
      <trkpt lat="43.182862" lon="-4.90325">
        <ele>677.765</ele>
        <time>2021-08-02T17:45:39Z</time>
      </trkpt>
      <trkpt lat="43.182828" lon="-4.903209">
        <ele>677.923</ele>
        <time>2021-08-02T17:45:45Z</time>
      </trkpt>
      <trkpt lat="43.182795" lon="-4.903162">
        <ele>678.741</ele>
        <time>2021-08-02T17:45:49Z</time>
      </trkpt>
      <trkpt lat="43.182756" lon="-4.903124">
        <ele>678.881</ele>
        <time>2021-08-02T17:45:53Z</time>
      </trkpt>
      <trkpt lat="43.182712" lon="-4.903093">
        <ele>678.909</ele>
        <time>2021-08-02T17:45:58Z</time>
      </trkpt>
      <trkpt lat="43.182665" lon="-4.903084">
        <ele>679.108</ele>
        <time>2021-08-02T17:46:02Z</time>
      </trkpt>
      <trkpt lat="43.182615" lon="-4.903082">
        <ele>679.571</ele>
        <time>2021-08-02T17:46:06Z</time>
      </trkpt>
      <trkpt lat="43.18257" lon="-4.903065">
        <ele>679.193</ele>
        <time>2021-08-02T17:46:10Z</time>
      </trkpt>
      <trkpt lat="43.182521" lon="-4.90306">
        <ele>680.022</ele>
        <time>2021-08-02T17:46:15Z</time>
      </trkpt>
      <trkpt lat="43.182473" lon="-4.903055">
        <ele>680.770</ele>
        <time>2021-08-02T17:46:20Z</time>
      </trkpt>
      <trkpt lat="43.182427" lon="-4.903038">
        <ele>681.360</ele>
        <time>2021-08-02T17:46:23Z</time>
      </trkpt>
      <trkpt lat="43.182382" lon="-4.90301">
        <ele>680.938</ele>
        <time>2021-08-02T17:46:28Z</time>
      </trkpt>
      <trkpt lat="43.182343" lon="-4.902979">
        <ele>681.151</ele>
        <time>2021-08-02T17:46:32Z</time>
      </trkpt>
      <trkpt lat="43.182302" lon="-4.902946">
        <ele>681.289</ele>
        <time>2021-08-02T17:46:35Z</time>
      </trkpt>
      <trkpt lat="43.182255" lon="-4.902946">
        <ele>681.776</ele>
        <time>2021-08-02T17:46:39Z</time>
      </trkpt>
      <trkpt lat="43.182205" lon="-4.902962">
        <ele>681.490</ele>
        <time>2021-08-02T17:46:44Z</time>
      </trkpt>
      <trkpt lat="43.182153" lon="-4.902969">
        <ele>681.419</ele>
        <time>2021-08-02T17:46:49Z</time>
      </trkpt>
      <trkpt lat="43.18213" lon="-4.902903">
        <ele>681.008</ele>
        <time>2021-08-02T17:46:54Z</time>
      </trkpt>
      <trkpt lat="43.182108" lon="-4.902847">
        <ele>681.074</ele>
        <time>2021-08-02T17:46:58Z</time>
      </trkpt>
      <trkpt lat="43.182073" lon="-4.902802">
        <ele>680.226</ele>
        <time>2021-08-02T17:47:02Z</time>
      </trkpt>
      <trkpt lat="43.182031" lon="-4.90278">
        <ele>680.265</ele>
        <time>2021-08-02T17:47:06Z</time>
      </trkpt>
      <trkpt lat="43.181984" lon="-4.902775">
        <ele>680.253</ele>
        <time>2021-08-02T17:47:10Z</time>
      </trkpt>
      <trkpt lat="43.181937" lon="-4.902762">
        <ele>680.153</ele>
        <time>2021-08-02T17:47:15Z</time>
      </trkpt>
      <trkpt lat="43.1819" lon="-4.902727">
        <ele>678.811</ele>
        <time>2021-08-02T17:47:20Z</time>
      </trkpt>
      <trkpt lat="43.181871" lon="-4.902674">
        <ele>677.964</ele>
        <time>2021-08-02T17:47:24Z</time>
      </trkpt>
      <trkpt lat="43.181843" lon="-4.902609">
        <ele>677.222</ele>
        <time>2021-08-02T17:47:29Z</time>
      </trkpt>
      <trkpt lat="43.181857" lon="-4.902546">
        <ele>676.616</ele>
        <time>2021-08-02T17:47:34Z</time>
      </trkpt>
      <trkpt lat="43.181893" lon="-4.902506">
        <ele>675.976</ele>
        <time>2021-08-02T17:47:38Z</time>
      </trkpt>
      <trkpt lat="43.181937" lon="-4.90249">
        <ele>675.913</ele>
        <time>2021-08-02T17:47:43Z</time>
      </trkpt>
      <trkpt lat="43.181976" lon="-4.90245">
        <ele>675.408</ele>
        <time>2021-08-02T17:47:46Z</time>
      </trkpt>
      <trkpt lat="43.182015" lon="-4.902416">
        <ele>674.798</ele>
        <time>2021-08-02T17:47:49Z</time>
      </trkpt>
      <trkpt lat="43.182061" lon="-4.902379">
        <ele>674.980</ele>
        <time>2021-08-02T17:47:54Z</time>
      </trkpt>
      <trkpt lat="43.182097" lon="-4.902335">
        <ele>675.919</ele>
        <time>2021-08-02T17:47:59Z</time>
      </trkpt>
      <trkpt lat="43.1821" lon="-4.902272">
        <ele>675.777</ele>
        <time>2021-08-02T17:48:06Z</time>
      </trkpt>
      <trkpt lat="43.182095" lon="-4.902335">
        <ele>676.547</ele>
        <time>2021-08-02T17:48:24Z</time>
      </trkpt>
      <trkpt lat="43.18214" lon="-4.902315">
        <ele>676.595</ele>
        <time>2021-08-02T17:48:41Z</time>
      </trkpt>
      <trkpt lat="43.182187" lon="-4.902289">
        <ele>676.288</ele>
        <time>2021-08-02T17:48:43Z</time>
      </trkpt>
      <trkpt lat="43.182234" lon="-4.902294">
        <ele>675.796</ele>
        <time>2021-08-02T17:48:46Z</time>
      </trkpt>
      <trkpt lat="43.182284" lon="-4.90228">
        <ele>675.539</ele>
        <time>2021-08-02T17:48:50Z</time>
      </trkpt>
      <trkpt lat="43.182331" lon="-4.902248">
        <ele>675.101</ele>
        <time>2021-08-02T17:48:55Z</time>
      </trkpt>
      <trkpt lat="43.182387" lon="-4.902249">
        <ele>674.621</ele>
        <time>2021-08-02T17:48:59Z</time>
      </trkpt>
      <trkpt lat="43.182435" lon="-4.902262">
        <ele>674.408</ele>
        <time>2021-08-02T17:49:04Z</time>
      </trkpt>
      <trkpt lat="43.182481" lon="-4.902284">
        <ele>673.450</ele>
        <time>2021-08-02T17:49:10Z</time>
      </trkpt>
      <trkpt lat="43.182524" lon="-4.902309">
        <ele>673.812</ele>
        <time>2021-08-02T17:49:14Z</time>
      </trkpt>
      <trkpt lat="43.18257" lon="-4.902316">
        <ele>673.881</ele>
        <time>2021-08-02T17:49:19Z</time>
      </trkpt>
      <trkpt lat="43.182615" lon="-4.902324">
        <ele>673.329</ele>
        <time>2021-08-02T17:49:23Z</time>
      </trkpt>
      <trkpt lat="43.182664" lon="-4.902335">
        <ele>673.689</ele>
        <time>2021-08-02T17:49:28Z</time>
      </trkpt>
      <trkpt lat="43.18271" lon="-4.902348">
        <ele>674.077</ele>
        <time>2021-08-02T17:49:32Z</time>
      </trkpt>
      <trkpt lat="43.182755" lon="-4.90234">
        <ele>673.670</ele>
        <time>2021-08-02T17:49:37Z</time>
      </trkpt>
      <trkpt lat="43.182789" lon="-4.902296">
        <ele>673.518</ele>
        <time>2021-08-02T17:49:43Z</time>
      </trkpt>
      <trkpt lat="43.182831" lon="-4.902266">
        <ele>674.193</ele>
        <time>2021-08-02T17:49:51Z</time>
      </trkpt>
      <trkpt lat="43.182876" lon="-4.902283">
        <ele>673.765</ele>
        <time>2021-08-02T17:49:58Z</time>
      </trkpt>
      <trkpt lat="43.182906" lon="-4.90233">
        <ele>674.221</ele>
        <time>2021-08-02T17:50:02Z</time>
      </trkpt>
      <trkpt lat="43.18295" lon="-4.902352">
        <ele>674.308</ele>
        <time>2021-08-02T17:50:06Z</time>
      </trkpt>
      <trkpt lat="43.18299" lon="-4.902394">
        <ele>674.356</ele>
        <time>2021-08-02T17:50:11Z</time>
      </trkpt>
      <trkpt lat="43.183034" lon="-4.902413">
        <ele>674.388</ele>
        <time>2021-08-02T17:50:16Z</time>
      </trkpt>
      <trkpt lat="43.183082" lon="-4.902451">
        <ele>674.447</ele>
        <time>2021-08-02T17:50:23Z</time>
      </trkpt>
      <trkpt lat="43.183126" lon="-4.902482">
        <ele>675.165</ele>
        <time>2021-08-02T17:50:29Z</time>
      </trkpt>
      <trkpt lat="43.183159" lon="-4.902534">
        <ele>674.645</ele>
        <time>2021-08-02T17:50:36Z</time>
      </trkpt>
      <trkpt lat="43.183212" lon="-4.902521">
        <ele>675.483</ele>
        <time>2021-08-02T17:50:48Z</time>
      </trkpt>
      <trkpt lat="43.183257" lon="-4.902503">
        <ele>674.496</ele>
        <time>2021-08-02T17:51:08Z</time>
      </trkpt>
      <trkpt lat="43.183306" lon="-4.902523">
        <ele>673.874</ele>
        <time>2021-08-02T17:51:12Z</time>
      </trkpt>
      <trkpt lat="43.183351" lon="-4.902548">
        <ele>673.247</ele>
        <time>2021-08-02T17:51:16Z</time>
      </trkpt>
      <trkpt lat="43.18339" lon="-4.902586">
        <ele>672.629</ele>
        <time>2021-08-02T17:51:21Z</time>
      </trkpt>
      <trkpt lat="43.183435" lon="-4.902601">
        <ele>671.621</ele>
        <time>2021-08-02T17:51:25Z</time>
      </trkpt>
      <trkpt lat="43.18348" lon="-4.902606">
        <ele>671.508</ele>
        <time>2021-08-02T17:51:30Z</time>
      </trkpt>
      <trkpt lat="43.183519" lon="-4.902645">
        <ele>671.791</ele>
        <time>2021-08-02T17:51:37Z</time>
      </trkpt>
      <trkpt lat="43.183564" lon="-4.902639">
        <ele>670.673</ele>
        <time>2021-08-02T17:51:50Z</time>
      </trkpt>
      <trkpt lat="43.183611" lon="-4.902625">
        <ele>669.632</ele>
        <time>2021-08-02T17:51:55Z</time>
      </trkpt>
      <trkpt lat="43.183661" lon="-4.902613">
        <ele>668.560</ele>
        <time>2021-08-02T17:52:00Z</time>
      </trkpt>
      <trkpt lat="43.183706" lon="-4.902597">
        <ele>667.650</ele>
        <time>2021-08-02T17:52:08Z</time>
      </trkpt>
      <trkpt lat="43.183755" lon="-4.902608">
        <ele>667.558</ele>
        <time>2021-08-02T17:52:14Z</time>
      </trkpt>
      <trkpt lat="43.1838" lon="-4.90261">
        <ele>667.831</ele>
        <time>2021-08-02T17:52:18Z</time>
      </trkpt>
      <trkpt lat="43.183844" lon="-4.902628">
        <ele>667.459</ele>
        <time>2021-08-02T17:52:23Z</time>
      </trkpt>
      <trkpt lat="43.18389" lon="-4.902647">
        <ele>667.865</ele>
        <time>2021-08-02T17:52:32Z</time>
      </trkpt>
      <trkpt lat="43.183845" lon="-4.902652">
        <ele>666.468</ele>
        <time>2021-08-02T17:53:17Z</time>
      </trkpt>
      <trkpt lat="43.18389" lon="-4.902643">
        <ele>666.314</ele>
        <time>2021-08-02T17:53:33Z</time>
      </trkpt>
      <trkpt lat="43.183927" lon="-4.902684">
        <ele>666.008</ele>
        <time>2021-08-02T17:53:50Z</time>
      </trkpt>
      <trkpt lat="43.183951" lon="-4.902747">
        <ele>666.873</ele>
        <time>2021-08-02T17:53:55Z</time>
      </trkpt>
      <trkpt lat="43.183935" lon="-4.902683">
        <ele>667.065</ele>
        <time>2021-08-02T17:54:12Z</time>
      </trkpt>
      <trkpt lat="43.183916" lon="-4.902623">
        <ele>667.454</ele>
        <time>2021-08-02T17:54:20Z</time>
      </trkpt>
      <trkpt lat="43.18396" lon="-4.902606">
        <ele>667.172</ele>
        <time>2021-08-02T17:54:27Z</time>
      </trkpt>
      <trkpt lat="43.183996" lon="-4.902648">
        <ele>667.312</ele>
        <time>2021-08-02T17:54:42Z</time>
      </trkpt>
      <trkpt lat="43.184026" lon="-4.902601">
        <ele>666.850</ele>
        <time>2021-08-02T17:54:50Z</time>
      </trkpt>
      <trkpt lat="43.18406" lon="-4.902557">
        <ele>666.753</ele>
        <time>2021-08-02T17:54:54Z</time>
      </trkpt>
      <trkpt lat="43.184083" lon="-4.902503">
        <ele>666.281</ele>
        <time>2021-08-02T17:54:58Z</time>
      </trkpt>
      <trkpt lat="43.184106" lon="-4.902447">
        <ele>665.683</ele>
        <time>2021-08-02T17:55:02Z</time>
      </trkpt>
      <trkpt lat="43.184152" lon="-4.902421">
        <ele>665.125</ele>
        <time>2021-08-02T17:55:07Z</time>
      </trkpt>
      <trkpt lat="43.184198" lon="-4.902401">
        <ele>664.917</ele>
        <time>2021-08-02T17:55:11Z</time>
      </trkpt>
      <trkpt lat="43.184245" lon="-4.902392">
        <ele>664.108</ele>
        <time>2021-08-02T17:55:14Z</time>
      </trkpt>
      <trkpt lat="43.18429" lon="-4.902389">
        <ele>664.525</ele>
        <time>2021-08-02T17:55:18Z</time>
      </trkpt>
      <trkpt lat="43.184334" lon="-4.902406">
        <ele>664.147</ele>
        <time>2021-08-02T17:55:22Z</time>
      </trkpt>
      <trkpt lat="43.184366" lon="-4.902449">
        <ele>664.226</ele>
        <time>2021-08-02T17:55:27Z</time>
      </trkpt>
      <trkpt lat="43.184414" lon="-4.902473">
        <ele>664.394</ele>
        <time>2021-08-02T17:55:31Z</time>
      </trkpt>
      <trkpt lat="43.184463" lon="-4.902468">
        <ele>664.594</ele>
        <time>2021-08-02T17:55:35Z</time>
      </trkpt>
      <trkpt lat="43.184496" lon="-4.902421">
        <ele>664.782</ele>
        <time>2021-08-02T17:55:40Z</time>
      </trkpt>
      <trkpt lat="43.184538" lon="-4.902446">
        <ele>664.575</ele>
        <time>2021-08-02T17:55:48Z</time>
      </trkpt>
      <trkpt lat="43.184589" lon="-4.902455">
        <ele>664.863</ele>
        <time>2021-08-02T17:55:53Z</time>
      </trkpt>
      <trkpt lat="43.184636" lon="-4.902483">
        <ele>665.195</ele>
        <time>2021-08-02T17:55:58Z</time>
      </trkpt>
      <trkpt lat="43.184681" lon="-4.902505">
        <ele>664.649</ele>
        <time>2021-08-02T17:56:03Z</time>
      </trkpt>
      <trkpt lat="43.184731" lon="-4.902528">
        <ele>663.923</ele>
        <time>2021-08-02T17:56:07Z</time>
      </trkpt>
      <trkpt lat="43.184774" lon="-4.902555">
        <ele>663.308</ele>
        <time>2021-08-02T17:56:10Z</time>
      </trkpt>
      <trkpt lat="43.184823" lon="-4.902581">
        <ele>662.966</ele>
        <time>2021-08-02T17:56:14Z</time>
      </trkpt>
      <trkpt lat="43.18487" lon="-4.902577">
        <ele>662.298</ele>
        <time>2021-08-02T17:56:19Z</time>
      </trkpt>
      <trkpt lat="43.184915" lon="-4.902547">
        <ele>661.887</ele>
        <time>2021-08-02T17:56:24Z</time>
      </trkpt>
      <trkpt lat="43.184962" lon="-4.902529">
        <ele>660.955</ele>
        <time>2021-08-02T17:56:29Z</time>
      </trkpt>
      <trkpt lat="43.18501" lon="-4.902549">
        <ele>660.495</ele>
        <time>2021-08-02T17:56:33Z</time>
      </trkpt>
      <trkpt lat="43.185041" lon="-4.902596">
        <ele>660.053</ele>
        <time>2021-08-02T17:56:36Z</time>
      </trkpt>
      <trkpt lat="43.185081" lon="-4.902632">
        <ele>659.986</ele>
        <time>2021-08-02T17:56:41Z</time>
      </trkpt>
      <trkpt lat="43.185115" lon="-4.902682">
        <ele>659.644</ele>
        <time>2021-08-02T17:56:47Z</time>
      </trkpt>
      <trkpt lat="43.185152" lon="-4.902722">
        <ele>659.687</ele>
        <time>2021-08-02T17:57:01Z</time>
      </trkpt>
      <trkpt lat="43.185195" lon="-4.9027">
        <ele>659.642</ele>
        <time>2021-08-02T17:57:06Z</time>
      </trkpt>
      <trkpt lat="43.185247" lon="-4.902675">
        <ele>659.926</ele>
        <time>2021-08-02T17:57:11Z</time>
      </trkpt>
      <trkpt lat="43.185291" lon="-4.902701">
        <ele>659.708</ele>
        <time>2021-08-02T17:57:16Z</time>
      </trkpt>
      <trkpt lat="43.185325" lon="-4.902749">
        <ele>659.925</ele>
        <time>2021-08-02T17:57:22Z</time>
      </trkpt>
      <trkpt lat="43.18535" lon="-4.902801">
        <ele>660.037</ele>
        <time>2021-08-02T17:57:27Z</time>
      </trkpt>
      <trkpt lat="43.185401" lon="-4.902808">
        <ele>660.016</ele>
        <time>2021-08-02T17:57:34Z</time>
      </trkpt>
      <trkpt lat="43.18545" lon="-4.902819">
        <ele>660.134</ele>
        <time>2021-08-02T17:57:38Z</time>
      </trkpt>
      <trkpt lat="43.185478" lon="-4.902868">
        <ele>659.864</ele>
        <time>2021-08-02T17:57:42Z</time>
      </trkpt>
      <trkpt lat="43.185515" lon="-4.90292">
        <ele>660.112</ele>
        <time>2021-08-02T17:57:46Z</time>
      </trkpt>
      <trkpt lat="43.185543" lon="-4.90297">
        <ele>660.365</ele>
        <time>2021-08-02T17:57:49Z</time>
      </trkpt>
      <trkpt lat="43.185559" lon="-4.903034">
        <ele>659.563</ele>
        <time>2021-08-02T17:57:53Z</time>
      </trkpt>
      <trkpt lat="43.185563" lon="-4.903098">
        <ele>659.377</ele>
        <time>2021-08-02T17:57:56Z</time>
      </trkpt>
      <trkpt lat="43.185564" lon="-4.903168">
        <ele>660.261</ele>
        <time>2021-08-02T17:57:59Z</time>
      </trkpt>
      <trkpt lat="43.185544" lon="-4.903223">
        <ele>660.627</ele>
        <time>2021-08-02T17:58:25Z</time>
      </trkpt>
      <trkpt lat="43.185562" lon="-4.903287">
        <ele>661.308</ele>
        <time>2021-08-02T17:58:28Z</time>
      </trkpt>
      <trkpt lat="43.185598" lon="-4.90334">
        <ele>662.144</ele>
        <time>2021-08-02T17:58:33Z</time>
      </trkpt>
      <trkpt lat="43.185627" lon="-4.903392">
        <ele>662.376</ele>
        <time>2021-08-02T17:58:36Z</time>
      </trkpt>
      <trkpt lat="43.185655" lon="-4.903448">
        <ele>662.715</ele>
        <time>2021-08-02T17:58:40Z</time>
      </trkpt>
      <trkpt lat="43.18569" lon="-4.90349">
        <ele>663.383</ele>
        <time>2021-08-02T17:58:44Z</time>
      </trkpt>
      <trkpt lat="43.185724" lon="-4.903535">
        <ele>663.433</ele>
        <time>2021-08-02T17:58:49Z</time>
      </trkpt>
      <trkpt lat="43.18576" lon="-4.903575">
        <ele>662.821</ele>
        <time>2021-08-02T17:58:54Z</time>
      </trkpt>
      <trkpt lat="43.185799" lon="-4.903607">
        <ele>663.074</ele>
        <time>2021-08-02T17:59:04Z</time>
      </trkpt>
      <trkpt lat="43.18585" lon="-4.903606">
        <ele>663.152</ele>
        <time>2021-08-02T17:59:31Z</time>
      </trkpt>
      <trkpt lat="43.185895" lon="-4.903579">
        <ele>663.072</ele>
        <time>2021-08-02T17:59:36Z</time>
      </trkpt>
      <trkpt lat="43.185948" lon="-4.903559">
        <ele>661.613</ele>
        <time>2021-08-02T17:59:41Z</time>
      </trkpt>
      <trkpt lat="43.185998" lon="-4.903551">
        <ele>661.214</ele>
        <time>2021-08-02T17:59:45Z</time>
      </trkpt>
      <trkpt lat="43.186045" lon="-4.903543">
        <ele>660.008</ele>
        <time>2021-08-02T17:59:49Z</time>
      </trkpt>
      <trkpt lat="43.18609" lon="-4.903547">
        <ele>658.564</ele>
        <time>2021-08-02T17:59:54Z</time>
      </trkpt>
      <trkpt lat="43.186143" lon="-4.903562">
        <ele>655.976</ele>
        <time>2021-08-02T17:59:59Z</time>
      </trkpt>
      <trkpt lat="43.18619" lon="-4.903562">
        <ele>654.045</ele>
        <time>2021-08-02T18:00:03Z</time>
      </trkpt>
      <trkpt lat="43.186239" lon="-4.903582">
        <ele>652.833</ele>
        <time>2021-08-02T18:00:07Z</time>
      </trkpt>
      <trkpt lat="43.186273" lon="-4.903626">
        <ele>652.153</ele>
        <time>2021-08-02T18:00:11Z</time>
      </trkpt>
      <trkpt lat="43.186297" lon="-4.90369">
        <ele>651.571</ele>
        <time>2021-08-02T18:00:14Z</time>
      </trkpt>
      <trkpt lat="43.186318" lon="-4.903745">
        <ele>651.464</ele>
        <time>2021-08-02T18:00:18Z</time>
      </trkpt>
      <trkpt lat="43.186355" lon="-4.90379">
        <ele>651.042</ele>
        <time>2021-08-02T18:00:22Z</time>
      </trkpt>
      <trkpt lat="43.18639" lon="-4.903832">
        <ele>650.742</ele>
        <time>2021-08-02T18:00:26Z</time>
      </trkpt>
      <trkpt lat="43.18643" lon="-4.903864">
        <ele>650.322</ele>
        <time>2021-08-02T18:00:30Z</time>
      </trkpt>
      <trkpt lat="43.186484" lon="-4.903896">
        <ele>650.014</ele>
        <time>2021-08-02T18:00:35Z</time>
      </trkpt>
      <trkpt lat="43.186534" lon="-4.903876">
        <ele>649.108</ele>
        <time>2021-08-02T18:00:39Z</time>
      </trkpt>
      <trkpt lat="43.186572" lon="-4.903842">
        <ele>648.641</ele>
        <time>2021-08-02T18:00:43Z</time>
      </trkpt>
      <trkpt lat="43.186618" lon="-4.903842">
        <ele>647.893</ele>
        <time>2021-08-02T18:00:47Z</time>
      </trkpt>
      <trkpt lat="43.186664" lon="-4.903826">
        <ele>647.282</ele>
        <time>2021-08-02T18:00:51Z</time>
      </trkpt>
      <trkpt lat="43.186672" lon="-4.903889">
        <ele>646.310</ele>
        <time>2021-08-02T18:01:07Z</time>
      </trkpt>
      <trkpt lat="43.1867" lon="-4.903944">
        <ele>645.990</ele>
        <time>2021-08-02T18:01:15Z</time>
      </trkpt>
      <trkpt lat="43.186737" lon="-4.904009">
        <ele>645.818</ele>
        <time>2021-08-02T18:01:20Z</time>
      </trkpt>
      <trkpt lat="43.186782" lon="-4.90403">
        <ele>645.881</ele>
        <time>2021-08-02T18:01:26Z</time>
      </trkpt>
      <trkpt lat="43.186828" lon="-4.904056">
        <ele>645.419</ele>
        <time>2021-08-02T18:01:32Z</time>
      </trkpt>
      <trkpt lat="43.186875" lon="-4.904062">
        <ele>645.955</ele>
        <time>2021-08-02T18:01:40Z</time>
      </trkpt>
      <trkpt lat="43.186933" lon="-4.904083">
        <ele>645.007</ele>
        <time>2021-08-02T18:01:43Z</time>
      </trkpt>
      <trkpt lat="43.186979" lon="-4.904101">
        <ele>645.017</ele>
        <time>2021-08-02T18:01:46Z</time>
      </trkpt>
      <trkpt lat="43.187027" lon="-4.904119">
        <ele>645.008</ele>
        <time>2021-08-02T18:01:49Z</time>
      </trkpt>
      <trkpt lat="43.187071" lon="-4.904136">
        <ele>644.922</ele>
        <time>2021-08-02T18:01:52Z</time>
      </trkpt>
      <trkpt lat="43.187118" lon="-4.904153">
        <ele>645.084</ele>
        <time>2021-08-02T18:01:56Z</time>
      </trkpt>
      <trkpt lat="43.187163" lon="-4.904166">
        <ele>645.143</ele>
        <time>2021-08-02T18:02:00Z</time>
      </trkpt>
      <trkpt lat="43.187217" lon="-4.904199">
        <ele>644.311</ele>
        <time>2021-08-02T18:02:04Z</time>
      </trkpt>
      <trkpt lat="43.187254" lon="-4.904241">
        <ele>643.841</ele>
        <time>2021-08-02T18:02:08Z</time>
      </trkpt>
      <trkpt lat="43.1873" lon="-4.904265">
        <ele>644.569</ele>
        <time>2021-08-02T18:02:12Z</time>
      </trkpt>
      <trkpt lat="43.187345" lon="-4.904281">
        <ele>644.742</ele>
        <time>2021-08-02T18:02:16Z</time>
      </trkpt>
      <trkpt lat="43.187393" lon="-4.904292">
        <ele>644.920</ele>
        <time>2021-08-02T18:02:20Z</time>
      </trkpt>
      <trkpt lat="43.187443" lon="-4.904294">
        <ele>644.349</ele>
        <time>2021-08-02T18:02:25Z</time>
      </trkpt>
      <trkpt lat="43.187487" lon="-4.904308">
        <ele>643.802</ele>
        <time>2021-08-02T18:02:29Z</time>
      </trkpt>
      <trkpt lat="43.187531" lon="-4.904336">
        <ele>643.222</ele>
        <time>2021-08-02T18:02:35Z</time>
      </trkpt>
      <trkpt lat="43.187562" lon="-4.904384">
        <ele>642.908</ele>
        <time>2021-08-02T18:02:57Z</time>
      </trkpt>
      <trkpt lat="43.187596" lon="-4.904433">
        <ele>642.411</ele>
        <time>2021-08-02T18:03:01Z</time>
      </trkpt>
      <trkpt lat="43.187641" lon="-4.904458">
        <ele>642.573</ele>
        <time>2021-08-02T18:03:05Z</time>
      </trkpt>
      <trkpt lat="43.187686" lon="-4.90446">
        <ele>641.972</ele>
        <time>2021-08-02T18:03:09Z</time>
      </trkpt>
      <trkpt lat="43.187732" lon="-4.90448">
        <ele>641.920</ele>
        <time>2021-08-02T18:03:14Z</time>
      </trkpt>
      <trkpt lat="43.187763" lon="-4.904524">
        <ele>641.130</ele>
        <time>2021-08-02T18:03:18Z</time>
      </trkpt>
      <trkpt lat="43.187793" lon="-4.904583">
        <ele>640.988</ele>
        <time>2021-08-02T18:03:22Z</time>
      </trkpt>
      <trkpt lat="43.187825" lon="-4.904641">
        <ele>640.641</ele>
        <time>2021-08-02T18:03:27Z</time>
      </trkpt>
      <trkpt lat="43.187855" lon="-4.904691">
        <ele>641.139</ele>
        <time>2021-08-02T18:03:32Z</time>
      </trkpt>
      <trkpt lat="43.187887" lon="-4.904753">
        <ele>641.668</ele>
        <time>2021-08-02T18:03:37Z</time>
      </trkpt>
      <trkpt lat="43.187915" lon="-4.904806">
        <ele>641.542</ele>
        <time>2021-08-02T18:03:42Z</time>
      </trkpt>
      <trkpt lat="43.187947" lon="-4.904864">
        <ele>641.726</ele>
        <time>2021-08-02T18:03:47Z</time>
      </trkpt>
      <trkpt lat="43.187989" lon="-4.904907">
        <ele>641.308</ele>
        <time>2021-08-02T18:03:52Z</time>
      </trkpt>
      <trkpt lat="43.188033" lon="-4.904927">
        <ele>641.193</ele>
        <time>2021-08-02T18:03:57Z</time>
      </trkpt>
      <trkpt lat="43.188077" lon="-4.904945">
        <ele>640.655</ele>
        <time>2021-08-02T18:04:01Z</time>
      </trkpt>
      <trkpt lat="43.188119" lon="-4.90498">
        <ele>640.984</ele>
        <time>2021-08-02T18:04:06Z</time>
      </trkpt>
      <trkpt lat="43.188152" lon="-4.905031">
        <ele>640.632</ele>
        <time>2021-08-02T18:04:10Z</time>
      </trkpt>
      <trkpt lat="43.188189" lon="-4.905075">
        <ele>640.552</ele>
        <time>2021-08-02T18:04:14Z</time>
      </trkpt>
      <trkpt lat="43.188232" lon="-4.905102">
        <ele>641.280</ele>
        <time>2021-08-02T18:04:18Z</time>
      </trkpt>
      <trkpt lat="43.188283" lon="-4.905105">
        <ele>640.833</ele>
        <time>2021-08-02T18:04:21Z</time>
      </trkpt>
      <trkpt lat="43.188331" lon="-4.905093">
        <ele>641.231</ele>
        <time>2021-08-02T18:04:26Z</time>
      </trkpt>
      <trkpt lat="43.188386" lon="-4.905097">
        <ele>641.448</ele>
        <time>2021-08-02T18:04:31Z</time>
      </trkpt>
      <trkpt lat="43.188429" lon="-4.905154">
        <ele>642.161</ele>
        <time>2021-08-02T18:04:36Z</time>
      </trkpt>
      <trkpt lat="43.188467" lon="-4.905207">
        <ele>641.917</ele>
        <time>2021-08-02T18:04:41Z</time>
      </trkpt>
      <trkpt lat="43.188516" lon="-4.905234">
        <ele>642.008</ele>
        <time>2021-08-02T18:04:46Z</time>
      </trkpt>
      <trkpt lat="43.188572" lon="-4.905256">
        <ele>642.431</ele>
        <time>2021-08-02T18:04:51Z</time>
      </trkpt>
      <trkpt lat="43.188609" lon="-4.905293">
        <ele>642.483</ele>
        <time>2021-08-02T18:04:56Z</time>
      </trkpt>
      <trkpt lat="43.188646" lon="-4.905331">
        <ele>642.562</ele>
        <time>2021-08-02T18:05:00Z</time>
      </trkpt>
      <trkpt lat="43.188681" lon="-4.905373">
        <ele>642.360</ele>
        <time>2021-08-02T18:05:04Z</time>
      </trkpt>
      <trkpt lat="43.188713" lon="-4.905419">
        <ele>642.620</ele>
        <time>2021-08-02T18:05:08Z</time>
      </trkpt>
      <trkpt lat="43.188744" lon="-4.905466">
        <ele>643.038</ele>
        <time>2021-08-02T18:05:12Z</time>
      </trkpt>
      <trkpt lat="43.188772" lon="-4.905526">
        <ele>643.221</ele>
        <time>2021-08-02T18:05:16Z</time>
      </trkpt>
      <trkpt lat="43.188795" lon="-4.905579">
        <ele>643.339</ele>
        <time>2021-08-02T18:05:19Z</time>
      </trkpt>
      <trkpt lat="43.188832" lon="-4.905616">
        <ele>643.531</ele>
        <time>2021-08-02T18:05:23Z</time>
      </trkpt>
      <trkpt lat="43.188876" lon="-4.905639">
        <ele>643.861</ele>
        <time>2021-08-02T18:05:28Z</time>
      </trkpt>
      <trkpt lat="43.188925" lon="-4.905653">
        <ele>644.407</ele>
        <time>2021-08-02T18:05:33Z</time>
      </trkpt>
      <trkpt lat="43.188983" lon="-4.905658">
        <ele>644.508</ele>
        <time>2021-08-02T18:05:38Z</time>
      </trkpt>
      <trkpt lat="43.189025" lon="-4.905685">
        <ele>644.360</ele>
        <time>2021-08-02T18:05:45Z</time>
      </trkpt>
      <trkpt lat="43.189074" lon="-4.905683">
        <ele>644.372</ele>
        <time>2021-08-02T18:05:49Z</time>
      </trkpt>
      <trkpt lat="43.18912" lon="-4.905685">
        <ele>644.231</ele>
        <time>2021-08-02T18:05:55Z</time>
      </trkpt>
      <trkpt lat="43.189155" lon="-4.905641">
        <ele>643.639</ele>
        <time>2021-08-02T18:06:04Z</time>
      </trkpt>
      <trkpt lat="43.189206" lon="-4.905638">
        <ele>643.639</ele>
        <time>2021-08-02T18:06:09Z</time>
      </trkpt>
      <trkpt lat="43.189255" lon="-4.905632">
        <ele>643.077</ele>
        <time>2021-08-02T18:06:40Z</time>
      </trkpt>
      <trkpt lat="43.1893" lon="-4.905623">
        <ele>643.080</ele>
        <time>2021-08-02T18:06:56Z</time>
      </trkpt>
      <trkpt lat="43.189293" lon="-4.905553">
        <ele>643.468</ele>
        <time>2021-08-02T18:07:11Z</time>
      </trkpt>
      <trkpt lat="43.189299" lon="-4.90549">
        <ele>643.934</ele>
        <time>2021-08-02T18:07:16Z</time>
      </trkpt>
      <trkpt lat="43.189347" lon="-4.905455">
        <ele>644.155</ele>
        <time>2021-08-02T18:07:22Z</time>
      </trkpt>
      <trkpt lat="43.189393" lon="-4.905478">
        <ele>643.410</ele>
        <time>2021-08-02T18:07:26Z</time>
      </trkpt>
      <trkpt lat="43.189436" lon="-4.905495">
        <ele>642.808</ele>
        <time>2021-08-02T18:07:30Z</time>
      </trkpt>
      <trkpt lat="43.189482" lon="-4.905507">
        <ele>642.410</ele>
        <time>2021-08-02T18:07:33Z</time>
      </trkpt>
      <trkpt lat="43.189526" lon="-4.905484">
        <ele>641.952</ele>
        <time>2021-08-02T18:07:37Z</time>
      </trkpt>
      <trkpt lat="43.189575" lon="-4.905484">
        <ele>641.071</ele>
        <time>2021-08-02T18:07:42Z</time>
      </trkpt>
      <trkpt lat="43.189621" lon="-4.905485">
        <ele>640.219</ele>
        <time>2021-08-02T18:07:47Z</time>
      </trkpt>
      <trkpt lat="43.189668" lon="-4.905494">
        <ele>639.069</ele>
        <time>2021-08-02T18:07:54Z</time>
      </trkpt>
      <trkpt lat="43.189705" lon="-4.905458">
        <ele>638.377</ele>
        <time>2021-08-02T18:07:59Z</time>
      </trkpt>
      <trkpt lat="43.189727" lon="-4.905403">
        <ele>638.530</ele>
        <time>2021-08-02T18:08:03Z</time>
      </trkpt>
      <trkpt lat="43.189718" lon="-4.905337">
        <ele>638.538</ele>
        <time>2021-08-02T18:08:08Z</time>
      </trkpt>
      <trkpt lat="43.189689" lon="-4.905288">
        <ele>638.384</ele>
        <time>2021-08-02T18:08:13Z</time>
      </trkpt>
      <trkpt lat="43.189665" lon="-4.905232">
        <ele>637.807</ele>
        <time>2021-08-02T18:08:20Z</time>
      </trkpt>
      <trkpt lat="43.189678" lon="-4.905171">
        <ele>636.917</ele>
        <time>2021-08-02T18:08:29Z</time>
      </trkpt>
      <trkpt lat="43.189715" lon="-4.905124">
        <ele>636.308</ele>
        <time>2021-08-02T18:08:35Z</time>
      </trkpt>
      <trkpt lat="43.18976" lon="-4.905081">
        <ele>636.525</ele>
        <time>2021-08-02T18:08:42Z</time>
      </trkpt>
      <trkpt lat="43.189802" lon="-4.905054">
        <ele>636.727</ele>
        <time>2021-08-02T18:08:48Z</time>
      </trkpt>
      <trkpt lat="43.189849" lon="-4.905036">
        <ele>638.046</ele>
        <time>2021-08-02T18:08:54Z</time>
      </trkpt>
      <trkpt lat="43.189891" lon="-4.905002">
        <ele>638.694</ele>
        <time>2021-08-02T18:09:01Z</time>
      </trkpt>
      <trkpt lat="43.189937" lon="-4.904999">
        <ele>639.454</ele>
        <time>2021-08-02T18:09:06Z</time>
      </trkpt>
      <trkpt lat="43.189985" lon="-4.905">
        <ele>640.022</ele>
        <time>2021-08-02T18:09:10Z</time>
      </trkpt>
      <trkpt lat="43.190037" lon="-4.905011">
        <ele>640.425</ele>
        <time>2021-08-02T18:09:15Z</time>
      </trkpt>
      <trkpt lat="43.190089" lon="-4.905012">
        <ele>640.663</ele>
        <time>2021-08-02T18:09:20Z</time>
      </trkpt>
      <trkpt lat="43.190136" lon="-4.905009">
        <ele>641.678</ele>
        <time>2021-08-02T18:09:26Z</time>
      </trkpt>
      <trkpt lat="43.190178" lon="-4.905039">
        <ele>642.033</ele>
        <time>2021-08-02T18:09:31Z</time>
      </trkpt>
      <trkpt lat="43.19022" lon="-4.905073">
        <ele>642.126</ele>
        <time>2021-08-02T18:09:35Z</time>
      </trkpt>
      <trkpt lat="43.19025" lon="-4.90512">
        <ele>642.008</ele>
        <time>2021-08-02T18:09:40Z</time>
      </trkpt>
      <trkpt lat="43.190237" lon="-4.905059">
        <ele>642.074</ele>
        <time>2021-08-02T18:12:04Z</time>
      </trkpt>
      <trkpt lat="43.190283" lon="-4.905065">
        <ele>646.016</ele>
        <time>2021-08-02T18:12:08Z</time>
      </trkpt>
      <trkpt lat="43.190317" lon="-4.905107">
        <ele>648.525</ele>
        <time>2021-08-02T18:12:12Z</time>
      </trkpt>
      <trkpt lat="43.190338" lon="-4.905181">
        <ele>650.493</ele>
        <time>2021-08-02T18:12:19Z</time>
      </trkpt>
      <trkpt lat="43.19037" lon="-4.905246">
        <ele>651.913</ele>
        <time>2021-08-02T18:12:22Z</time>
      </trkpt>
      <trkpt lat="43.190409" lon="-4.905298">
        <ele>652.271</ele>
        <time>2021-08-02T18:12:25Z</time>
      </trkpt>
      <trkpt lat="43.190451" lon="-4.905336">
        <ele>652.734</ele>
        <time>2021-08-02T18:12:29Z</time>
      </trkpt>
      <trkpt lat="43.190495" lon="-4.905382">
        <ele>653.582</ele>
        <time>2021-08-02T18:12:33Z</time>
      </trkpt>
      <trkpt lat="43.19054" lon="-4.905419">
        <ele>653.737</ele>
        <time>2021-08-02T18:12:37Z</time>
      </trkpt>
      <trkpt lat="43.190586" lon="-4.905442">
        <ele>654.249</ele>
        <time>2021-08-02T18:12:41Z</time>
      </trkpt>
      <trkpt lat="43.190635" lon="-4.905449">
        <ele>654.413</ele>
        <time>2021-08-02T18:12:45Z</time>
      </trkpt>
      <trkpt lat="43.190687" lon="-4.905435">
        <ele>653.808</ele>
        <time>2021-08-02T18:13:00Z</time>
      </trkpt>
      <trkpt lat="43.190737" lon="-4.905449">
        <ele>653.930</ele>
        <time>2021-08-02T18:13:27Z</time>
      </trkpt>
      <trkpt lat="43.190783" lon="-4.905457">
        <ele>653.972</ele>
        <time>2021-08-02T18:13:31Z</time>
      </trkpt>
      <trkpt lat="43.190833" lon="-4.905475">
        <ele>654.371</ele>
        <time>2021-08-02T18:13:43Z</time>
      </trkpt>
      <trkpt lat="43.190879" lon="-4.905479">
        <ele>654.199</ele>
        <time>2021-08-02T18:13:48Z</time>
      </trkpt>
      <trkpt lat="43.190933" lon="-4.90547">
        <ele>654.199</ele>
        <time>2021-08-02T18:13:54Z</time>
      </trkpt>
      <trkpt lat="43.190978" lon="-4.905475">
        <ele>653.437</ele>
        <time>2021-08-02T18:14:01Z</time>
      </trkpt>
      <trkpt lat="43.191021" lon="-4.905495">
        <ele>653.590</ele>
        <time>2021-08-02T18:14:07Z</time>
      </trkpt>
      <trkpt lat="43.191062" lon="-4.905532">
        <ele>653.898</ele>
        <time>2021-08-02T18:14:12Z</time>
      </trkpt>
      <trkpt lat="43.191109" lon="-4.905542">
        <ele>653.467</ele>
        <time>2021-08-02T18:14:17Z</time>
      </trkpt>
      <trkpt lat="43.191155" lon="-4.905547">
        <ele>653.181</ele>
        <time>2021-08-02T18:14:23Z</time>
      </trkpt>
      <trkpt lat="43.191206" lon="-4.905547">
        <ele>653.419</ele>
        <time>2021-08-02T18:14:29Z</time>
      </trkpt>
      <trkpt lat="43.191255" lon="-4.905554">
        <ele>652.908</ele>
        <time>2021-08-02T18:14:35Z</time>
      </trkpt>
      <trkpt lat="43.191301" lon="-4.905551">
        <ele>652.833</ele>
        <time>2021-08-02T18:14:40Z</time>
      </trkpt>
      <trkpt lat="43.191347" lon="-4.905566">
        <ele>653.445</ele>
        <time>2021-08-02T18:14:45Z</time>
      </trkpt>
      <trkpt lat="43.191398" lon="-4.905566">
        <ele>652.184</ele>
        <time>2021-08-02T18:14:49Z</time>
      </trkpt>
      <trkpt lat="43.191444" lon="-4.905569">
        <ele>651.422</ele>
        <time>2021-08-02T18:14:53Z</time>
      </trkpt>
      <trkpt lat="43.191494" lon="-4.905567">
        <ele>650.342</ele>
        <time>2021-08-02T18:14:58Z</time>
      </trkpt>
      <trkpt lat="43.191542" lon="-4.905588">
        <ele>649.740</ele>
        <time>2021-08-02T18:15:03Z</time>
      </trkpt>
      <trkpt lat="43.191588" lon="-4.905605">
        <ele>648.893</ele>
        <time>2021-08-02T18:15:07Z</time>
      </trkpt>
      <trkpt lat="43.191631" lon="-4.905628">
        <ele>647.951</ele>
        <time>2021-08-02T18:15:11Z</time>
      </trkpt>
      <trkpt lat="43.191672" lon="-4.905653">
        <ele>646.891</ele>
        <time>2021-08-02T18:15:15Z</time>
      </trkpt>
      <trkpt lat="43.19172" lon="-4.905669">
        <ele>645.881</ele>
        <time>2021-08-02T18:15:20Z</time>
      </trkpt>
      <trkpt lat="43.191769" lon="-4.905671">
        <ele>644.919</ele>
        <time>2021-08-02T18:15:26Z</time>
      </trkpt>
      <trkpt lat="43.191809" lon="-4.905703">
        <ele>643.908</ele>
        <time>2021-08-02T18:15:31Z</time>
      </trkpt>
      <trkpt lat="43.191852" lon="-4.905734">
        <ele>643.036</ele>
        <time>2021-08-02T18:15:37Z</time>
      </trkpt>
      <trkpt lat="43.1919" lon="-4.905756">
        <ele>642.478</ele>
        <time>2021-08-02T18:15:42Z</time>
      </trkpt>
      <trkpt lat="43.191947" lon="-4.905745">
        <ele>641.687</ele>
        <time>2021-08-02T18:15:47Z</time>
      </trkpt>
      <trkpt lat="43.192" lon="-4.905735">
        <ele>641.295</ele>
        <time>2021-08-02T18:15:52Z</time>
      </trkpt>
      <trkpt lat="43.192047" lon="-4.905772">
        <ele>640.865</ele>
        <time>2021-08-02T18:15:58Z</time>
      </trkpt>
      <trkpt lat="43.192089" lon="-4.905802">
        <ele>640.733</ele>
        <time>2021-08-02T18:16:02Z</time>
      </trkpt>
      <trkpt lat="43.192134" lon="-4.905814">
        <ele>640.326</ele>
        <time>2021-08-02T18:16:07Z</time>
      </trkpt>
      <trkpt lat="43.192182" lon="-4.905834">
        <ele>639.814</ele>
        <time>2021-08-02T18:16:12Z</time>
      </trkpt>
      <trkpt lat="43.192234" lon="-4.905853">
        <ele>639.638</ele>
        <time>2021-08-02T18:16:17Z</time>
      </trkpt>
      <trkpt lat="43.192288" lon="-4.905864">
        <ele>639.370</ele>
        <time>2021-08-02T18:16:23Z</time>
      </trkpt>
      <trkpt lat="43.192328" lon="-4.905909">
        <ele>638.917</ele>
        <time>2021-08-02T18:16:28Z</time>
      </trkpt>
      <trkpt lat="43.192365" lon="-4.905965">
        <ele>638.808</ele>
        <time>2021-08-02T18:16:34Z</time>
      </trkpt>
      <trkpt lat="43.192398" lon="-4.906017">
        <ele>638.920</ele>
        <time>2021-08-02T18:16:39Z</time>
      </trkpt>
      <trkpt lat="43.192441" lon="-4.906048">
        <ele>638.922</ele>
        <time>2021-08-02T18:16:44Z</time>
      </trkpt>
      <trkpt lat="43.192463" lon="-4.906108">
        <ele>638.721</ele>
        <time>2021-08-02T18:16:50Z</time>
      </trkpt>
      <trkpt lat="43.192509" lon="-4.906148">
        <ele>638.789</ele>
        <time>2021-08-02T18:16:55Z</time>
      </trkpt>
      <trkpt lat="43.192555" lon="-4.906183">
        <ele>638.189</ele>
        <time>2021-08-02T18:17:00Z</time>
      </trkpt>
      <trkpt lat="43.192596" lon="-4.906212">
        <ele>637.417</ele>
        <time>2021-08-02T18:17:25Z</time>
      </trkpt>
      <trkpt lat="43.192648" lon="-4.906199">
        <ele>637.040</ele>
        <time>2021-08-02T18:17:30Z</time>
      </trkpt>
      <trkpt lat="43.192698" lon="-4.906222">
        <ele>636.478</ele>
        <time>2021-08-02T18:17:38Z</time>
      </trkpt>
      <trkpt lat="43.192752" lon="-4.906223">
        <ele>636.071</ele>
        <time>2021-08-02T18:17:44Z</time>
      </trkpt>
      <trkpt lat="43.192802" lon="-4.906234">
        <ele>635.241</ele>
        <time>2021-08-02T18:17:51Z</time>
      </trkpt>
      <trkpt lat="43.192849" lon="-4.906244">
        <ele>634.615</ele>
        <time>2021-08-02T18:17:56Z</time>
      </trkpt>
      <trkpt lat="43.192899" lon="-4.90624">
        <ele>633.508</ele>
        <time>2021-08-02T18:18:01Z</time>
      </trkpt>
      <trkpt lat="43.192943" lon="-4.906211">
        <ele>631.894</ele>
        <time>2021-08-02T18:18:06Z</time>
      </trkpt>
      <trkpt lat="43.192988" lon="-4.906203">
        <ele>631.046</ele>
        <time>2021-08-02T18:18:12Z</time>
      </trkpt>
      <trkpt lat="43.193033" lon="-4.906217">
        <ele>630.275</ele>
        <time>2021-08-02T18:18:18Z</time>
      </trkpt>
      <trkpt lat="43.193082" lon="-4.90621">
        <ele>629.683</ele>
        <time>2021-08-02T18:18:23Z</time>
      </trkpt>
      <trkpt lat="43.19313" lon="-4.906209">
        <ele>629.533</ele>
        <time>2021-08-02T18:18:27Z</time>
      </trkpt>
      <trkpt lat="43.193181" lon="-4.9062">
        <ele>629.151</ele>
        <time>2021-08-02T18:18:33Z</time>
      </trkpt>
      <trkpt lat="43.193234" lon="-4.906179">
        <ele>629.734</ele>
        <time>2021-08-02T18:18:39Z</time>
      </trkpt>
      <trkpt lat="43.19329" lon="-4.906167">
        <ele>629.672</ele>
        <time>2021-08-02T18:18:43Z</time>
      </trkpt>
      <trkpt lat="43.193342" lon="-4.906159">
        <ele>629.798</ele>
        <time>2021-08-02T18:18:47Z</time>
      </trkpt>
      <trkpt lat="43.193391" lon="-4.906152">
        <ele>629.615</ele>
        <time>2021-08-02T18:18:53Z</time>
      </trkpt>
      <trkpt lat="43.193437" lon="-4.906153">
        <ele>629.926</ele>
        <time>2021-08-02T18:18:56Z</time>
      </trkpt>
      <trkpt lat="43.193484" lon="-4.906174">
        <ele>629.808</ele>
        <time>2021-08-02T18:19:00Z</time>
      </trkpt>
      <trkpt lat="43.193532" lon="-4.906176">
        <ele>630.366</ele>
        <time>2021-08-02T18:19:04Z</time>
      </trkpt>
      <trkpt lat="43.193577" lon="-4.906198">
        <ele>631.038</ele>
        <time>2021-08-02T18:19:11Z</time>
      </trkpt>
      <trkpt lat="43.193621" lon="-4.906182">
        <ele>631.077</ele>
        <time>2021-08-02T18:19:16Z</time>
      </trkpt>
      <trkpt lat="43.193643" lon="-4.906128">
        <ele>630.835</ele>
        <time>2021-08-02T18:19:20Z</time>
      </trkpt>
      <trkpt lat="43.193689" lon="-4.906124">
        <ele>630.795</ele>
        <time>2021-08-02T18:19:26Z</time>
      </trkpt>
      <trkpt lat="43.19372" lon="-4.906077">
        <ele>630.423</ele>
        <time>2021-08-02T18:19:31Z</time>
      </trkpt>
      <trkpt lat="43.19377" lon="-4.906082">
        <ele>630.796</ele>
        <time>2021-08-02T18:19:37Z</time>
      </trkpt>
      <trkpt lat="43.193821" lon="-4.906104">
        <ele>631.574</ele>
        <time>2021-08-02T18:19:42Z</time>
      </trkpt>
      <trkpt lat="43.193857" lon="-4.906146">
        <ele>631.543</ele>
        <time>2021-08-02T18:20:05Z</time>
      </trkpt>
      <trkpt lat="43.193907" lon="-4.906141">
        <ele>631.364</ele>
        <time>2021-08-02T18:20:10Z</time>
      </trkpt>
      <trkpt lat="43.193948" lon="-4.906105">
        <ele>631.210</ele>
        <time>2021-08-02T18:20:15Z</time>
      </trkpt>
      <trkpt lat="43.193967" lon="-4.906163">
        <ele>630.708</ele>
        <time>2021-08-02T18:20:21Z</time>
      </trkpt>
      <trkpt lat="43.193965" lon="-4.906225">
        <ele>630.851</ele>
        <time>2021-08-02T18:20:27Z</time>
      </trkpt>
      <trkpt lat="43.19396" lon="-4.906293">
        <ele>630.383</ele>
        <time>2021-08-02T18:20:32Z</time>
      </trkpt>
      <trkpt lat="43.19394" lon="-4.906368">
        <ele>629.652</ele>
        <time>2021-08-02T18:20:36Z</time>
      </trkpt>
      <trkpt lat="43.193951" lon="-4.906432">
        <ele>629.790</ele>
        <time>2021-08-02T18:20:41Z</time>
      </trkpt>
      <trkpt lat="43.193938" lon="-4.906498">
        <ele>628.950</ele>
        <time>2021-08-02T18:20:48Z</time>
      </trkpt>
      <trkpt lat="43.193896" lon="-4.906461">
        <ele>626.748</ele>
        <time>2021-08-02T18:21:02Z</time>
      </trkpt>
      <trkpt lat="43.193859" lon="-4.906514">
        <ele>624.731</ele>
        <time>2021-08-02T18:21:08Z</time>
      </trkpt>
      <trkpt lat="43.193878" lon="-4.906577">
        <ele>623.579</ele>
        <time>2021-08-02T18:21:12Z</time>
      </trkpt>
      <trkpt lat="43.193924" lon="-4.906588">
        <ele>621.573</ele>
        <time>2021-08-02T18:21:19Z</time>
      </trkpt>
      <trkpt lat="43.193928" lon="-4.906523">
        <ele>620.685</ele>
        <time>2021-08-02T18:21:22Z</time>
      </trkpt>
      <trkpt lat="43.193912" lon="-4.906459">
        <ele>619.313</ele>
        <time>2021-08-02T18:21:25Z</time>
      </trkpt>
      <trkpt lat="43.193932" lon="-4.9064">
        <ele>618.408</ele>
        <time>2021-08-02T18:21:30Z</time>
      </trkpt>
      <trkpt lat="43.193964" lon="-4.906455">
        <ele>618.064</ele>
        <time>2021-08-02T18:21:33Z</time>
      </trkpt>
      <trkpt lat="43.193941" lon="-4.906516">
        <ele>617.516</ele>
        <time>2021-08-02T18:21:36Z</time>
      </trkpt>
      <trkpt lat="43.193909" lon="-4.906567">
        <ele>617.475</ele>
        <time>2021-08-02T18:21:39Z</time>
      </trkpt>
      <trkpt lat="43.193885" lon="-4.906622">
        <ele>617.313</ele>
        <time>2021-08-02T18:21:42Z</time>
      </trkpt>
      <trkpt lat="43.193875" lon="-4.906688">
        <ele>617.773</ele>
        <time>2021-08-02T18:21:45Z</time>
      </trkpt>
      <trkpt lat="43.193873" lon="-4.906752">
        <ele>616.811</ele>
        <time>2021-08-02T18:21:50Z</time>
      </trkpt>
      <trkpt lat="43.193854" lon="-4.906811">
        <ele>616.214</ele>
        <time>2021-08-02T18:21:56Z</time>
      </trkpt>
      <trkpt lat="43.193813" lon="-4.906848">
        <ele>615.392</ele>
        <time>2021-08-02T18:21:59Z</time>
      </trkpt>
      <trkpt lat="43.19376" lon="-4.906869">
        <ele>614.861</ele>
        <time>2021-08-02T18:22:03Z</time>
      </trkpt>
      <trkpt lat="43.193714" lon="-4.906873">
        <ele>614.621</ele>
        <time>2021-08-02T18:22:07Z</time>
      </trkpt>
      <trkpt lat="43.193662" lon="-4.906879">
        <ele>613.813</ele>
        <time>2021-08-02T18:22:13Z</time>
      </trkpt>
      <trkpt lat="43.193606" lon="-4.906898">
        <ele>612.708</ele>
        <time>2021-08-02T18:22:18Z</time>
      </trkpt>
      <trkpt lat="43.193559" lon="-4.906912">
        <ele>612.093</ele>
        <time>2021-08-02T18:22:26Z</time>
      </trkpt>
      <trkpt lat="43.193602" lon="-4.906942">
        <ele>611.485</ele>
        <time>2021-08-02T18:22:32Z</time>
      </trkpt>
      <trkpt lat="43.193644" lon="-4.906918">
        <ele>610.444</ele>
        <time>2021-08-02T18:22:35Z</time>
      </trkpt>
      <trkpt lat="43.193671" lon="-4.906868">
        <ele>609.962</ele>
        <time>2021-08-02T18:22:37Z</time>
      </trkpt>
      <trkpt lat="43.193717" lon="-4.906882">
        <ele>609.442</ele>
        <time>2021-08-02T18:22:43Z</time>
      </trkpt>
      <trkpt lat="43.193704" lon="-4.906953">
        <ele>608.730</ele>
        <time>2021-08-02T18:22:47Z</time>
      </trkpt>
      <trkpt lat="43.193685" lon="-4.907011">
        <ele>608.423</ele>
        <time>2021-08-02T18:22:51Z</time>
      </trkpt>
      <trkpt lat="43.19366" lon="-4.907068">
        <ele>607.761</ele>
        <time>2021-08-02T18:22:56Z</time>
      </trkpt>
      <trkpt lat="43.193638" lon="-4.907135">
        <ele>607.641</ele>
        <time>2021-08-02T18:23:01Z</time>
      </trkpt>
      <trkpt lat="43.193632" lon="-4.907203">
        <ele>607.581</ele>
        <time>2021-08-02T18:23:19Z</time>
      </trkpt>
      <trkpt lat="43.193617" lon="-4.907145">
        <ele>604.909</ele>
        <time>2021-08-02T18:23:41Z</time>
      </trkpt>
      <trkpt lat="43.193611" lon="-4.90708">
        <ele>604.808</ele>
        <time>2021-08-02T18:23:48Z</time>
      </trkpt>
      <trkpt lat="43.193589" lon="-4.907025">
        <ele>604.171</ele>
        <time>2021-08-02T18:23:52Z</time>
      </trkpt>
      <trkpt lat="43.193631" lon="-4.907053">
        <ele>603.693</ele>
        <time>2021-08-02T18:24:04Z</time>
      </trkpt>
      <trkpt lat="43.193662" lon="-4.907101">
        <ele>603.322</ele>
        <time>2021-08-02T18:24:06Z</time>
      </trkpt>
      <trkpt lat="43.193709" lon="-4.907081">
        <ele>604.080</ele>
        <time>2021-08-02T18:24:10Z</time>
      </trkpt>
      <trkpt lat="43.19374" lon="-4.90703">
        <ele>602.850</ele>
        <time>2021-08-02T18:24:20Z</time>
      </trkpt>
      <trkpt lat="43.193785" lon="-4.906989">
        <ele>602.258</ele>
        <time>2021-08-02T18:24:24Z</time>
      </trkpt>
      <trkpt lat="43.193834" lon="-4.906968">
        <ele>601.891</ele>
        <time>2021-08-02T18:24:28Z</time>
      </trkpt>
      <trkpt lat="43.193881" lon="-4.906974">
        <ele>601.629</ele>
        <time>2021-08-02T18:24:33Z</time>
      </trkpt>
      <trkpt lat="43.193926" lon="-4.906966">
        <ele>601.954</ele>
        <time>2021-08-02T18:24:38Z</time>
      </trkpt>
      <trkpt lat="43.193973" lon="-4.90696">
        <ele>601.256</ele>
        <time>2021-08-02T18:24:42Z</time>
      </trkpt>
      <trkpt lat="43.194018" lon="-4.906949">
        <ele>601.011</ele>
        <time>2021-08-02T18:24:46Z</time>
      </trkpt>
      <trkpt lat="43.194067" lon="-4.906944">
        <ele>600.908</ele>
        <time>2021-08-02T18:24:54Z</time>
      </trkpt>
      <trkpt lat="43.194112" lon="-4.906965">
        <ele>600.042</ele>
        <time>2021-08-02T18:24:58Z</time>
      </trkpt>
      <trkpt lat="43.194159" lon="-4.906988">
        <ele>599.934</ele>
        <time>2021-08-02T18:25:02Z</time>
      </trkpt>
      <trkpt lat="43.19419" lon="-4.90704">
        <ele>599.383</ele>
        <time>2021-08-02T18:25:20Z</time>
      </trkpt>
      <trkpt lat="43.194183" lon="-4.907114">
        <ele>598.781</ele>
        <time>2021-08-02T18:25:26Z</time>
      </trkpt>
      <trkpt lat="43.194138" lon="-4.907113">
        <ele>598.971</ele>
        <time>2021-08-02T18:25:36Z</time>
      </trkpt>
      <trkpt lat="43.194115" lon="-4.90717">
        <ele>597.489</ele>
        <time>2021-08-02T18:25:51Z</time>
      </trkpt>
      <trkpt lat="43.194146" lon="-4.907229">
        <ele>596.612</ele>
        <time>2021-08-02T18:25:56Z</time>
      </trkpt>
      <trkpt lat="43.194172" lon="-4.907282">
        <ele>595.940</ele>
        <time>2021-08-02T18:26:05Z</time>
      </trkpt>
      <trkpt lat="43.194216" lon="-4.907298">
        <ele>595.297</ele>
        <time>2021-08-02T18:26:09Z</time>
      </trkpt>
      <trkpt lat="43.19427" lon="-4.907313">
        <ele>594.623</ele>
        <time>2021-08-02T18:26:12Z</time>
      </trkpt>
      <trkpt lat="43.194307" lon="-4.90735">
        <ele>594.625</ele>
        <time>2021-08-02T18:26:16Z</time>
      </trkpt>
      <trkpt lat="43.194355" lon="-4.907361">
        <ele>594.608</ele>
        <time>2021-08-02T18:26:22Z</time>
      </trkpt>
      <trkpt lat="43.194403" lon="-4.907387">
        <ele>595.226</ele>
        <time>2021-08-02T18:26:26Z</time>
      </trkpt>
      <trkpt lat="43.19445" lon="-4.907406">
        <ele>595.138</ele>
        <time>2021-08-02T18:26:30Z</time>
      </trkpt>
      <trkpt lat="43.194494" lon="-4.907421">
        <ele>595.037</ele>
        <time>2021-08-02T18:26:35Z</time>
      </trkpt>
      <trkpt lat="43.19455" lon="-4.907441">
        <ele>594.755</ele>
        <time>2021-08-02T18:26:39Z</time>
      </trkpt>
      <trkpt lat="43.194602" lon="-4.907465">
        <ele>594.785</ele>
        <time>2021-08-02T18:26:42Z</time>
      </trkpt>
      <trkpt lat="43.194651" lon="-4.90748">
        <ele>594.773</ele>
        <time>2021-08-02T18:26:44Z</time>
      </trkpt>
      <trkpt lat="43.194705" lon="-4.907484">
        <ele>594.046</ele>
        <time>2021-08-02T18:26:47Z</time>
      </trkpt>
      <trkpt lat="43.194755" lon="-4.907489">
        <ele>593.144</ele>
        <time>2021-08-02T18:26:50Z</time>
      </trkpt>
      <trkpt lat="43.194801" lon="-4.907488">
        <ele>592.884</ele>
        <time>2021-08-02T18:26:54Z</time>
      </trkpt>
      <trkpt lat="43.194848" lon="-4.907473">
        <ele>592.407</ele>
        <time>2021-08-02T18:26:57Z</time>
      </trkpt>
      <trkpt lat="43.194895" lon="-4.907453">
        <ele>591.617</ele>
        <time>2021-08-02T18:27:01Z</time>
      </trkpt>
      <trkpt lat="43.194944" lon="-4.907437">
        <ele>590.808</ele>
        <time>2021-08-02T18:27:05Z</time>
      </trkpt>
      <trkpt lat="43.194996" lon="-4.907423">
        <ele>591.295</ele>
        <time>2021-08-02T18:27:09Z</time>
      </trkpt>
      <trkpt lat="43.195042" lon="-4.907401">
        <ele>590.637</ele>
        <time>2021-08-02T18:27:13Z</time>
      </trkpt>
      <trkpt lat="43.195089" lon="-4.907375">
        <ele>590.026</ele>
        <time>2021-08-02T18:27:18Z</time>
      </trkpt>
      <trkpt lat="43.195138" lon="-4.907382">
        <ele>590.184</ele>
        <time>2021-08-02T18:27:23Z</time>
      </trkpt>
      <trkpt lat="43.19516" lon="-4.907437">
        <ele>590.294</ele>
        <time>2021-08-02T18:27:38Z</time>
      </trkpt>
      <trkpt lat="43.195203" lon="-4.907469">
        <ele>591.712</ele>
        <time>2021-08-02T18:27:42Z</time>
      </trkpt>
      <trkpt lat="43.195243" lon="-4.90743">
        <ele>594.215</ele>
        <time>2021-08-02T18:27:51Z</time>
      </trkpt>
      <trkpt lat="43.195293" lon="-4.907417">
        <ele>595.673</ele>
        <time>2021-08-02T18:27:56Z</time>
      </trkpt>
      <trkpt lat="43.195338" lon="-4.907409">
        <ele>596.575</ele>
        <time>2021-08-02T18:28:00Z</time>
      </trkpt>
      <trkpt lat="43.195392" lon="-4.907395">
        <ele>597.428</ele>
        <time>2021-08-02T18:28:04Z</time>
      </trkpt>
      <trkpt lat="43.195442" lon="-4.907398">
        <ele>598.320</ele>
        <time>2021-08-02T18:28:13Z</time>
      </trkpt>
      <trkpt lat="43.195502" lon="-4.907412">
        <ele>599.208</ele>
        <time>2021-08-02T18:28:17Z</time>
      </trkpt>
      <trkpt lat="43.195549" lon="-4.907403">
        <ele>599.924</ele>
        <time>2021-08-02T18:28:21Z</time>
      </trkpt>
      <trkpt lat="43.195589" lon="-4.907374">
        <ele>599.616</ele>
        <time>2021-08-02T18:28:27Z</time>
      </trkpt>
      <trkpt lat="43.195638" lon="-4.907356">
        <ele>599.785</ele>
        <time>2021-08-02T18:28:33Z</time>
      </trkpt>
      <trkpt lat="43.19568" lon="-4.907333">
        <ele>599.553</ele>
        <time>2021-08-02T18:28:37Z</time>
      </trkpt>
      <trkpt lat="43.195724" lon="-4.907304">
        <ele>598.813</ele>
        <time>2021-08-02T18:28:47Z</time>
      </trkpt>
      <trkpt lat="43.195772" lon="-4.907324">
        <ele>598.851</ele>
        <time>2021-08-02T18:28:58Z</time>
      </trkpt>
      <trkpt lat="43.195809" lon="-4.907279">
        <ele>599.274</ele>
        <time>2021-08-02T18:29:04Z</time>
      </trkpt>
      <trkpt lat="43.195842" lon="-4.907224">
        <ele>599.062</ele>
        <time>2021-08-02T18:29:07Z</time>
      </trkpt>
      <trkpt lat="43.195878" lon="-4.907181">
        <ele>597.819</ele>
        <time>2021-08-02T18:29:10Z</time>
      </trkpt>
      <trkpt lat="43.195916" lon="-4.907147">
        <ele>596.809</ele>
        <time>2021-08-02T18:29:14Z</time>
      </trkpt>
      <trkpt lat="43.195955" lon="-4.907116">
        <ele>596.619</ele>
        <time>2021-08-02T18:29:16Z</time>
      </trkpt>
      <trkpt lat="43.195999" lon="-4.907077">
        <ele>597.308</ele>
        <time>2021-08-02T18:29:19Z</time>
      </trkpt>
      <trkpt lat="43.196036" lon="-4.907038">
        <ele>598.098</ele>
        <time>2021-08-02T18:29:22Z</time>
      </trkpt>
      <trkpt lat="43.196073" lon="-4.906996">
        <ele>597.010</ele>
        <time>2021-08-02T18:29:26Z</time>
      </trkpt>
      <trkpt lat="43.196117" lon="-4.906966">
        <ele>595.669</ele>
        <time>2021-08-02T18:29:30Z</time>
      </trkpt>
      <trkpt lat="43.196164" lon="-4.906937">
        <ele>594.777</ele>
        <time>2021-08-02T18:29:33Z</time>
      </trkpt>
      <trkpt lat="43.196214" lon="-4.906935">
        <ele>594.117</ele>
        <time>2021-08-02T18:29:37Z</time>
      </trkpt>
      <trkpt lat="43.196256" lon="-4.9069">
        <ele>593.445</ele>
        <time>2021-08-02T18:29:41Z</time>
      </trkpt>
      <trkpt lat="43.196277" lon="-4.906845">
        <ele>593.038</ele>
        <time>2021-08-02T18:29:46Z</time>
      </trkpt>
      <trkpt lat="43.196321" lon="-4.906879">
        <ele>593.136</ele>
        <time>2021-08-02T18:29:51Z</time>
      </trkpt>
      <trkpt lat="43.196364" lon="-4.906898">
        <ele>592.791</ele>
        <time>2021-08-02T18:29:55Z</time>
      </trkpt>
      <trkpt lat="43.196411" lon="-4.906897">
        <ele>592.881</ele>
        <time>2021-08-02T18:29:58Z</time>
      </trkpt>
      <trkpt lat="43.196456" lon="-4.906891">
        <ele>592.319</ele>
        <time>2021-08-02T18:30:01Z</time>
      </trkpt>
      <trkpt lat="43.196508" lon="-4.906903">
        <ele>591.608</ele>
        <time>2021-08-02T18:30:06Z</time>
      </trkpt>
      <trkpt lat="43.196553" lon="-4.906926">
        <ele>591.846</ele>
        <time>2021-08-02T18:30:10Z</time>
      </trkpt>
      <trkpt lat="43.196593" lon="-4.906955">
        <ele>591.318</ele>
        <time>2021-08-02T18:30:13Z</time>
      </trkpt>
      <trkpt lat="43.196635" lon="-4.906994">
        <ele>590.447</ele>
        <time>2021-08-02T18:30:17Z</time>
      </trkpt>
      <trkpt lat="43.196681" lon="-4.907021">
        <ele>591.155</ele>
        <time>2021-08-02T18:30:21Z</time>
      </trkpt>
      <trkpt lat="43.196723" lon="-4.90705">
        <ele>591.895</ele>
        <time>2021-08-02T18:30:26Z</time>
      </trkpt>
      <trkpt lat="43.196767" lon="-4.907038">
        <ele>591.833</ele>
        <time>2021-08-02T18:30:34Z</time>
      </trkpt>
      <trkpt lat="43.196789" lon="-4.906981">
        <ele>592.446</ele>
        <time>2021-08-02T18:30:41Z</time>
      </trkpt>
      <trkpt lat="43.196808" lon="-4.906918">
        <ele>592.534</ele>
        <time>2021-08-02T18:30:47Z</time>
      </trkpt>
      <trkpt lat="43.196836" lon="-4.906859">
        <ele>592.685</ele>
        <time>2021-08-02T18:30:51Z</time>
      </trkpt>
      <trkpt lat="43.196864" lon="-4.906802">
        <ele>595.089</ele>
        <time>2021-08-02T18:30:54Z</time>
      </trkpt>
      <trkpt lat="43.19689" lon="-4.90673">
        <ele>596.717</ele>
        <time>2021-08-02T18:30:58Z</time>
      </trkpt>
      <trkpt lat="43.196924" lon="-4.906678">
        <ele>599.608</ele>
        <time>2021-08-02T18:31:03Z</time>
      </trkpt>
      <trkpt lat="43.196957" lon="-4.906626">
        <ele>601.435</ele>
        <time>2021-08-02T18:31:07Z</time>
      </trkpt>
      <trkpt lat="43.196988" lon="-4.906575">
        <ele>600.897</ele>
        <time>2021-08-02T18:31:11Z</time>
      </trkpt>
      <trkpt lat="43.19702" lon="-4.906529">
        <ele>600.736</ele>
        <time>2021-08-02T18:31:15Z</time>
      </trkpt>
      <trkpt lat="43.197058" lon="-4.906489">
        <ele>603.234</ele>
        <time>2021-08-02T18:31:19Z</time>
      </trkpt>
      <trkpt lat="43.197095" lon="-4.906451">
        <ele>604.094</ele>
        <time>2021-08-02T18:31:24Z</time>
      </trkpt>
      <trkpt lat="43.197144" lon="-4.906443">
        <ele>607.562</ele>
        <time>2021-08-02T18:31:30Z</time>
      </trkpt>
      <trkpt lat="43.197176" lon="-4.906494">
        <ele>609.645</ele>
        <time>2021-08-02T18:31:32Z</time>
      </trkpt>
      <trkpt lat="43.19721" lon="-4.906559">
        <ele>608.153</ele>
        <time>2021-08-02T18:31:35Z</time>
      </trkpt>
      <trkpt lat="43.197245" lon="-4.906606">
        <ele>608.339</ele>
        <time>2021-08-02T18:31:37Z</time>
      </trkpt>
      <trkpt lat="43.197287" lon="-4.906638">
        <ele>608.201</ele>
        <time>2021-08-02T18:31:41Z</time>
      </trkpt>
      <trkpt lat="43.197335" lon="-4.906648">
        <ele>608.121</ele>
        <time>2021-08-02T18:31:44Z</time>
      </trkpt>
      <trkpt lat="43.197383" lon="-4.906619">
        <ele>608.308</ele>
        <time>2021-08-02T18:31:48Z</time>
      </trkpt>
      <trkpt lat="43.197425" lon="-4.906584">
        <ele>607.210</ele>
        <time>2021-08-02T18:31:51Z</time>
      </trkpt>
      <trkpt lat="43.197467" lon="-4.906549">
        <ele>608.272</ele>
        <time>2021-08-02T18:31:55Z</time>
      </trkpt>
      <trkpt lat="43.19751" lon="-4.906523">
        <ele>608.271</ele>
        <time>2021-08-02T18:31:59Z</time>
      </trkpt>
      <trkpt lat="43.197555" lon="-4.906496">
        <ele>609.199</ele>
        <time>2021-08-02T18:32:02Z</time>
      </trkpt>
      <trkpt lat="43.197601" lon="-4.906477">
        <ele>608.949</ele>
        <time>2021-08-02T18:32:06Z</time>
      </trkpt>
      <trkpt lat="43.197649" lon="-4.906485">
        <ele>608.327</ele>
        <time>2021-08-02T18:32:10Z</time>
      </trkpt>
      <trkpt lat="43.197697" lon="-4.90651">
        <ele>606.880</ele>
        <time>2021-08-02T18:32:15Z</time>
      </trkpt>
      <trkpt lat="43.197745" lon="-4.906523">
        <ele>608.338</ele>
        <time>2021-08-02T18:32:19Z</time>
      </trkpt>
      <trkpt lat="43.197792" lon="-4.906525">
        <ele>609.233</ele>
        <time>2021-08-02T18:32:24Z</time>
      </trkpt>
      <trkpt lat="43.197834" lon="-4.90655">
        <ele>608.323</ele>
        <time>2021-08-02T18:32:29Z</time>
      </trkpt>
      <trkpt lat="43.197868" lon="-4.906601">
        <ele>607.115</ele>
        <time>2021-08-02T18:32:32Z</time>
      </trkpt>
      <trkpt lat="43.197909" lon="-4.906631">
        <ele>606.408</ele>
        <time>2021-08-02T18:32:42Z</time>
      </trkpt>
      <trkpt lat="43.197954" lon="-4.906635">
        <ele>605.520</ele>
        <time>2021-08-02T18:32:48Z</time>
      </trkpt>
      <trkpt lat="43.197998" lon="-4.906621">
        <ele>605.882</ele>
        <time>2021-08-02T18:32:52Z</time>
      </trkpt>
      <trkpt lat="43.198041" lon="-4.906583">
        <ele>605.871</ele>
        <time>2021-08-02T18:33:05Z</time>
      </trkpt>
      <trkpt lat="43.198083" lon="-4.906554">
        <ele>604.219</ele>
        <time>2021-08-02T18:33:24Z</time>
      </trkpt>
      <trkpt lat="43.198106" lon="-4.906494">
        <ele>603.359</ele>
        <time>2021-08-02T18:33:30Z</time>
      </trkpt>
      <trkpt lat="43.198119" lon="-4.906422">
        <ele>603.887</ele>
        <time>2021-08-02T18:33:34Z</time>
      </trkpt>
      <trkpt lat="43.198163" lon="-4.906392">
        <ele>603.310</ele>
        <time>2021-08-02T18:33:38Z</time>
      </trkpt>
      <trkpt lat="43.19821" lon="-4.906414">
        <ele>602.748</ele>
        <time>2021-08-02T18:33:41Z</time>
      </trkpt>
      <trkpt lat="43.198226" lon="-4.906474">
        <ele>602.595</ele>
        <time>2021-08-02T18:33:49Z</time>
      </trkpt>
      <trkpt lat="43.198247" lon="-4.906579">
        <ele>601.649</ele>
        <time>2021-08-02T18:34:16Z</time>
      </trkpt>
      <trkpt lat="43.198292" lon="-4.906563">
        <ele>600.223</ele>
        <time>2021-08-02T18:34:21Z</time>
      </trkpt>
      <trkpt lat="43.198335" lon="-4.90654">
        <ele>599.808</ele>
        <time>2021-08-02T18:34:26Z</time>
      </trkpt>
      <trkpt lat="43.198374" lon="-4.906509">
        <ele>599.716</ele>
        <time>2021-08-02T18:34:29Z</time>
      </trkpt>
      <trkpt lat="43.198417" lon="-4.906467">
        <ele>599.978</ele>
        <time>2021-08-02T18:34:32Z</time>
      </trkpt>
      <trkpt lat="43.198461" lon="-4.906437">
        <ele>599.057</ele>
        <time>2021-08-02T18:34:36Z</time>
      </trkpt>
      <trkpt lat="43.198516" lon="-4.906429">
        <ele>598.555</ele>
        <time>2021-08-02T18:34:40Z</time>
      </trkpt>
      <trkpt lat="43.198565" lon="-4.906422">
        <ele>597.625</ele>
        <time>2021-08-02T18:34:42Z</time>
      </trkpt>
      <trkpt lat="43.19861" lon="-4.90642">
        <ele>597.853</ele>
        <time>2021-08-02T18:34:44Z</time>
      </trkpt>
      <trkpt lat="43.19866" lon="-4.906421">
        <ele>596.916</ele>
        <time>2021-08-02T18:34:47Z</time>
      </trkpt>
      <trkpt lat="43.198708" lon="-4.906401">
        <ele>595.124</ele>
        <time>2021-08-02T18:34:50Z</time>
      </trkpt>
      <trkpt lat="43.198751" lon="-4.906363">
        <ele>594.743</ele>
        <time>2021-08-02T18:34:53Z</time>
      </trkpt>
      <trkpt lat="43.198762" lon="-4.9063">
        <ele>592.864</ele>
        <time>2021-08-02T18:34:57Z</time>
      </trkpt>
      <trkpt lat="43.198779" lon="-4.906239">
        <ele>592.910</ele>
        <time>2021-08-02T18:35:02Z</time>
      </trkpt>
      <trkpt lat="43.198812" lon="-4.90618">
        <ele>593.208</ele>
        <time>2021-08-02T18:35:06Z</time>
      </trkpt>
      <trkpt lat="43.198839" lon="-4.90612">
        <ele>593.551</ele>
        <time>2021-08-02T18:35:10Z</time>
      </trkpt>
      <trkpt lat="43.198859" lon="-4.906063">
        <ele>594.243</ele>
        <time>2021-08-02T18:35:14Z</time>
      </trkpt>
      <trkpt lat="43.198889" lon="-4.906007">
        <ele>595.562</ele>
        <time>2021-08-02T18:35:20Z</time>
      </trkpt>
      <trkpt lat="43.198918" lon="-4.90595">
        <ele>595.160</ele>
        <time>2021-08-02T18:35:26Z</time>
      </trkpt>
      <trkpt lat="43.198942" lon="-4.90589">
        <ele>596.930</ele>
        <time>2021-08-02T18:35:31Z</time>
      </trkpt>
      <trkpt lat="43.198979" lon="-4.905847">
        <ele>597.768</ele>
        <time>2021-08-02T18:35:40Z</time>
      </trkpt>
      <trkpt lat="43.199023" lon="-4.905829">
        <ele>598.191</ele>
        <time>2021-08-02T18:35:43Z</time>
      </trkpt>
      <trkpt lat="43.199068" lon="-4.905817">
        <ele>597.169</ele>
        <time>2021-08-02T18:35:47Z</time>
      </trkpt>
      <trkpt lat="43.199111" lon="-4.905795">
        <ele>598.027</ele>
        <time>2021-08-02T18:35:50Z</time>
      </trkpt>
      <trkpt lat="43.199154" lon="-4.905776">
        <ele>598.968</ele>
        <time>2021-08-02T18:35:54Z</time>
      </trkpt>
      <trkpt lat="43.199194" lon="-4.905739">
        <ele>599.514</ele>
        <time>2021-08-02T18:35:58Z</time>
      </trkpt>
      <trkpt lat="43.199229" lon="-4.905694">
        <ele>596.008</ele>
        <time>2021-08-02T18:36:02Z</time>
      </trkpt>
      <trkpt lat="43.199268" lon="-4.905646">
        <ele>593.989</ele>
        <time>2021-08-02T18:36:06Z</time>
      </trkpt>
      <trkpt lat="43.199299" lon="-4.905593">
        <ele>592.671</ele>
        <time>2021-08-02T18:36:10Z</time>
      </trkpt>
      <trkpt lat="43.199324" lon="-4.905536">
        <ele>596.620</ele>
        <time>2021-08-02T18:36:13Z</time>
      </trkpt>
      <trkpt lat="43.199326" lon="-4.905474">
        <ele>597.758</ele>
        <time>2021-08-02T18:36:17Z</time>
      </trkpt>
      <trkpt lat="43.199334" lon="-4.905401">
        <ele>599.588</ele>
        <time>2021-08-02T18:36:21Z</time>
      </trkpt>
      <trkpt lat="43.199335" lon="-4.905338">
        <ele>602.736</ele>
        <time>2021-08-02T18:36:25Z</time>
      </trkpt>
      <trkpt lat="43.199341" lon="-4.905275">
        <ele>603.759</ele>
        <time>2021-08-02T18:36:28Z</time>
      </trkpt>
      <trkpt lat="43.199399" lon="-4.905265">
        <ele>605.517</ele>
        <time>2021-08-02T18:36:34Z</time>
      </trkpt>
      <trkpt lat="43.199429" lon="-4.905316">
        <ele>605.838</ele>
        <time>2021-08-02T18:36:35Z</time>
      </trkpt>
      <trkpt lat="43.19947" lon="-4.905355">
        <ele>607.170</ele>
        <time>2021-08-02T18:36:37Z</time>
      </trkpt>
      <trkpt lat="43.199525" lon="-4.905383">
        <ele>606.517</ele>
        <time>2021-08-02T18:36:40Z</time>
      </trkpt>
      <trkpt lat="43.199568" lon="-4.905415">
        <ele>606.008</ele>
        <time>2021-08-02T18:36:42Z</time>
      </trkpt>
      <trkpt lat="43.199611" lon="-4.905451">
        <ele>604.740</ele>
        <time>2021-08-02T18:36:44Z</time>
      </trkpt>
      <trkpt lat="43.199652" lon="-4.905493">
        <ele>604.732</ele>
        <time>2021-08-02T18:36:46Z</time>
      </trkpt>
      <trkpt lat="43.1997" lon="-4.905555">
        <ele>604.581</ele>
        <time>2021-08-02T18:36:48Z</time>
      </trkpt>
      <trkpt lat="43.199739" lon="-4.905622">
        <ele>604.719</ele>
        <time>2021-08-02T18:36:50Z</time>
      </trkpt>
      <trkpt lat="43.199782" lon="-4.905676">
        <ele>603.519</ele>
        <time>2021-08-02T18:36:52Z</time>
      </trkpt>
      <trkpt lat="43.19982" lon="-4.905717">
        <ele>603.557</ele>
        <time>2021-08-02T18:37:01Z</time>
      </trkpt>
      <trkpt lat="43.199847" lon="-4.905776">
        <ele>602.030</ele>
        <time>2021-08-02T18:37:09Z</time>
      </trkpt>
      <trkpt lat="43.199867" lon="-4.905838">
        <ele>601.228</ele>
        <time>2021-08-02T18:37:13Z</time>
      </trkpt>
      <trkpt lat="43.199901" lon="-4.905883">
        <ele>600.822</ele>
        <time>2021-08-02T18:37:23Z</time>
      </trkpt>
      <trkpt lat="43.199943" lon="-4.905914">
        <ele>600.862</ele>
        <time>2021-08-02T18:37:26Z</time>
      </trkpt>
      <trkpt lat="43.199994" lon="-4.90591">
        <ele>598.308</ele>
        <time>2021-08-02T18:37:45Z</time>
      </trkpt>
      <trkpt lat="43.200026" lon="-4.905863">
        <ele>595.908</ele>
        <time>2021-08-02T18:37:48Z</time>
      </trkpt>
      <trkpt lat="43.200044" lon="-4.905806">
        <ele>594.339</ele>
        <time>2021-08-02T18:37:51Z</time>
      </trkpt>
      <trkpt lat="43.200064" lon="-4.905749">
        <ele>594.421</ele>
        <time>2021-08-02T18:37:56Z</time>
      </trkpt>
      <trkpt lat="43.200096" lon="-4.905699">
        <ele>593.110</ele>
        <time>2021-08-02T18:38:01Z</time>
      </trkpt>
      <trkpt lat="43.200128" lon="-4.905648">
        <ele>591.678</ele>
        <time>2021-08-02T18:38:05Z</time>
      </trkpt>
      <trkpt lat="43.200141" lon="-4.90558">
        <ele>589.148</ele>
        <time>2021-08-02T18:38:09Z</time>
      </trkpt>
      <trkpt lat="43.200139" lon="-4.905513">
        <ele>588.326</ele>
        <time>2021-08-02T18:38:17Z</time>
      </trkpt>
      <trkpt lat="43.200159" lon="-4.905457">
        <ele>587.049</ele>
        <time>2021-08-02T18:38:22Z</time>
      </trkpt>
      <trkpt lat="43.200189" lon="-4.905402">
        <ele>586.547</ele>
        <time>2021-08-02T18:38:25Z</time>
      </trkpt>
      <trkpt lat="43.200213" lon="-4.90534">
        <ele>587.758</ele>
        <time>2021-08-02T18:38:28Z</time>
      </trkpt>
      <trkpt lat="43.200226" lon="-4.905278">
        <ele>587.452</ele>
        <time>2021-08-02T18:38:31Z</time>
      </trkpt>
      <trkpt lat="43.200234" lon="-4.905207">
        <ele>585.017</ele>
        <time>2021-08-02T18:38:33Z</time>
      </trkpt>
      <trkpt lat="43.200245" lon="-4.905141">
        <ele>585.408</ele>
        <time>2021-08-02T18:38:36Z</time>
      </trkpt>
      <trkpt lat="43.200255" lon="-4.905068">
        <ele>585.722</ele>
        <time>2021-08-02T18:38:39Z</time>
      </trkpt>
      <trkpt lat="43.200254" lon="-4.904993">
        <ele>586.214</ele>
        <time>2021-08-02T18:38:42Z</time>
      </trkpt>
      <trkpt lat="43.200252" lon="-4.904925">
        <ele>585.683</ele>
        <time>2021-08-02T18:38:44Z</time>
      </trkpt>
      <trkpt lat="43.200244" lon="-4.904858">
        <ele>586.611</ele>
        <time>2021-08-02T18:38:47Z</time>
      </trkpt>
      <trkpt lat="43.200234" lon="-4.904791">
        <ele>585.051</ele>
        <time>2021-08-02T18:38:49Z</time>
      </trkpt>
      <trkpt lat="43.200221" lon="-4.90472">
        <ele>585.749</ele>
        <time>2021-08-02T18:38:52Z</time>
      </trkpt>
      <trkpt lat="43.200221" lon="-4.904658">
        <ele>587.212</ele>
        <time>2021-08-02T18:38:55Z</time>
      </trkpt>
      <trkpt lat="43.200235" lon="-4.904594">
        <ele>587.080</ele>
        <time>2021-08-02T18:39:00Z</time>
      </trkpt>
      <trkpt lat="43.200283" lon="-4.904587">
        <ele>587.768</ele>
        <time>2021-08-02T18:39:04Z</time>
      </trkpt>
      <trkpt lat="43.200328" lon="-4.904574">
        <ele>588.842</ele>
        <time>2021-08-02T18:39:11Z</time>
      </trkpt>
      <trkpt lat="43.200374" lon="-4.904593">
        <ele>588.126</ele>
        <time>2021-08-02T18:39:18Z</time>
      </trkpt>
      <trkpt lat="43.200436" lon="-4.904601">
        <ele>588.508</ele>
        <time>2021-08-02T18:39:21Z</time>
      </trkpt>
      <trkpt lat="43.200488" lon="-4.904623">
        <ele>588.063</ele>
        <time>2021-08-02T18:39:23Z</time>
      </trkpt>
      <trkpt lat="43.20053" lon="-4.90465">
        <ele>587.965</ele>
        <time>2021-08-02T18:39:25Z</time>
      </trkpt>
      <trkpt lat="43.200568" lon="-4.904689">
        <ele>587.124</ele>
        <time>2021-08-02T18:39:28Z</time>
      </trkpt>
      <trkpt lat="43.200609" lon="-4.904725">
        <ele>587.712</ele>
        <time>2021-08-02T18:39:30Z</time>
      </trkpt>
      <trkpt lat="43.20066" lon="-4.904749">
        <ele>586.562</ele>
        <time>2021-08-02T18:39:33Z</time>
      </trkpt>
      <trkpt lat="43.200713" lon="-4.904744">
        <ele>586.570</ele>
        <time>2021-08-02T18:39:36Z</time>
      </trkpt>
      <trkpt lat="43.200755" lon="-4.904717">
        <ele>584.923</ele>
        <time>2021-08-02T18:39:39Z</time>
      </trkpt>
      <trkpt lat="43.20078" lon="-4.904647">
        <ele>584.521</ele>
        <time>2021-08-02T18:39:42Z</time>
      </trkpt>
      <trkpt lat="43.200778" lon="-4.904584">
        <ele>584.123</ele>
        <time>2021-08-02T18:39:46Z</time>
      </trkpt>
      <trkpt lat="43.200809" lon="-4.904538">
        <ele>583.183</ele>
        <time>2021-08-02T18:39:50Z</time>
      </trkpt>
      <trkpt lat="43.200856" lon="-4.904506">
        <ele>581.111</ele>
        <time>2021-08-02T18:39:54Z</time>
      </trkpt>
      <trkpt lat="43.200906" lon="-4.904482">
        <ele>580.008</ele>
        <time>2021-08-02T18:39:57Z</time>
      </trkpt>
      <trkpt lat="43.200951" lon="-4.904471">
        <ele>579.259</ele>
        <time>2021-08-02T18:40:00Z</time>
      </trkpt>
      <trkpt lat="43.200998" lon="-4.904462">
        <ele>578.731</ele>
        <time>2021-08-02T18:40:04Z</time>
      </trkpt>
      <trkpt lat="43.201045" lon="-4.904439">
        <ele>576.690</ele>
        <time>2021-08-02T18:40:07Z</time>
      </trkpt>
      <trkpt lat="43.201089" lon="-4.90441">
        <ele>575.438</ele>
        <time>2021-08-02T18:40:12Z</time>
      </trkpt>
      <trkpt lat="43.20108" lon="-4.904348">
        <ele>571.458</ele>
        <time>2021-08-02T18:40:36Z</time>
      </trkpt>
      <trkpt lat="43.201126" lon="-4.90436">
        <ele>567.476</ele>
        <time>2021-08-02T18:40:44Z</time>
      </trkpt>
      <trkpt lat="43.201173" lon="-4.904342">
        <ele>565.149</ele>
        <time>2021-08-02T18:40:49Z</time>
      </trkpt>
      <trkpt lat="43.201137" lon="-4.904304">
        <ele>563.717</ele>
        <time>2021-08-02T18:41:12Z</time>
      </trkpt>
      <trkpt lat="43.2011" lon="-4.904258">
        <ele>562.922</ele>
        <time>2021-08-02T18:41:18Z</time>
      </trkpt>
      <trkpt lat="43.201053" lon="-4.90425">
        <ele>562.462</ele>
        <time>2021-08-02T18:41:24Z</time>
      </trkpt>
      <trkpt lat="43.201021" lon="-4.904187">
        <ele>566.408</ele>
        <time>2021-08-02T18:41:27Z</time>
      </trkpt>
      <trkpt lat="43.200984" lon="-4.90414">
        <ele>570.408</ele>
        <time>2021-08-02T18:41:28Z</time>
      </trkpt>
      <trkpt lat="43.200918" lon="-4.904061">
        <ele>574.449</ele>
        <time>2021-08-02T18:41:30Z</time>
      </trkpt>
      <trkpt lat="43.200857" lon="-4.903974">
        <ele>578.461</ele>
        <time>2021-08-02T18:41:32Z</time>
      </trkpt>
      <trkpt lat="43.200832" lon="-4.903905">
        <ele>581.960</ele>
        <time>2021-08-02T18:41:34Z</time>
      </trkpt>
      <trkpt lat="43.200797" lon="-4.903845">
        <ele>585.698</ele>
        <time>2021-08-02T18:41:36Z</time>
      </trkpt>
      <trkpt lat="43.200761" lon="-4.903792">
        <ele>589.618</ele>
        <time>2021-08-02T18:41:38Z</time>
      </trkpt>
      <trkpt lat="43.20072" lon="-4.903726">
        <ele>590.826</ele>
        <time>2021-08-02T18:41:39Z</time>
      </trkpt>
      <trkpt lat="43.200684" lon="-4.903669">
        <ele>593.359</ele>
        <time>2021-08-02T18:41:40Z</time>
      </trkpt>
      <trkpt lat="43.200635" lon="-4.903597">
        <ele>596.767</ele>
        <time>2021-08-02T18:41:41Z</time>
      </trkpt>
      <trkpt lat="43.2006" lon="-4.903544">
        <ele>598.629</ele>
        <time>2021-08-02T18:41:42Z</time>
      </trkpt>
      <trkpt lat="43.200562" lon="-4.903477">
        <ele>599.300</ele>
        <time>2021-08-02T18:41:44Z</time>
      </trkpt>
      <trkpt lat="43.200529" lon="-4.903411">
        <ele>599.220</ele>
        <time>2021-08-02T18:41:45Z</time>
      </trkpt>
      <trkpt lat="43.200509" lon="-4.903342">
        <ele>601.608</ele>
        <time>2021-08-02T18:41:48Z</time>
      </trkpt>
      <trkpt lat="43.200499" lon="-4.903252">
        <ele>602.369</ele>
        <time>2021-08-02T18:41:49Z</time>
      </trkpt>
      <trkpt lat="43.200486" lon="-4.90313">
        <ele>603.481</ele>
        <time>2021-08-02T18:41:51Z</time>
      </trkpt>
      <trkpt lat="43.200502" lon="-4.903066">
        <ele>604.240</ele>
        <time>2021-08-02T18:41:54Z</time>
      </trkpt>
      <trkpt lat="43.200553" lon="-4.903043">
        <ele>605.158</ele>
        <time>2021-08-02T18:41:57Z</time>
      </trkpt>
      <trkpt lat="43.200607" lon="-4.903041">
        <ele>605.468</ele>
        <time>2021-08-02T18:42:00Z</time>
      </trkpt>
      <trkpt lat="43.200658" lon="-4.903037">
        <ele>605.786</ele>
        <time>2021-08-02T18:42:03Z</time>
      </trkpt>
      <trkpt lat="43.200699" lon="-4.902997">
        <ele>606.869</ele>
        <time>2021-08-02T18:42:07Z</time>
      </trkpt>
      <trkpt lat="43.200808" lon="-4.903052">
        <ele>606.147</ele>
        <time>2021-08-02T18:42:09Z</time>
      </trkpt>
      <trkpt lat="43.200945" lon="-4.903141">
        <ele>606.468</ele>
        <time>2021-08-02T18:42:10Z</time>
      </trkpt>
      <trkpt lat="43.201026" lon="-4.903192">
        <ele>606.342</ele>
        <time>2021-08-02T18:42:11Z</time>
      </trkpt>
      <trkpt lat="43.201082" lon="-4.903222">
        <ele>606.526</ele>
        <time>2021-08-02T18:42:12Z</time>
      </trkpt>
      <trkpt lat="43.201127" lon="-4.903235">
        <ele>607.408</ele>
        <time>2021-08-02T18:42:13Z</time>
      </trkpt>
      <trkpt lat="43.201177" lon="-4.903235">
        <ele>607.313</ele>
        <time>2021-08-02T18:42:15Z</time>
      </trkpt>
      <trkpt lat="43.201222" lon="-4.903228">
        <ele>607.335</ele>
        <time>2021-08-02T18:42:17Z</time>
      </trkpt>
      <trkpt lat="43.201266" lon="-4.903209">
        <ele>606.334</ele>
        <time>2021-08-02T18:42:20Z</time>
      </trkpt>
      <trkpt lat="43.201313" lon="-4.903196">
        <ele>606.332</ele>
        <time>2021-08-02T18:42:22Z</time>
      </trkpt>
      <trkpt lat="43.201359" lon="-4.903172">
        <ele>606.112</ele>
        <time>2021-08-02T18:42:25Z</time>
      </trkpt>
      <trkpt lat="43.201408" lon="-4.90314">
        <ele>606.520</ele>
        <time>2021-08-02T18:42:28Z</time>
      </trkpt>
      <trkpt lat="43.201455" lon="-4.903109">
        <ele>606.543</ele>
        <time>2021-08-02T18:42:31Z</time>
      </trkpt>
      <trkpt lat="43.2015" lon="-4.903081">
        <ele>607.551</ele>
        <time>2021-08-02T18:42:35Z</time>
      </trkpt>
      <trkpt lat="43.201545" lon="-4.903057">
        <ele>608.162</ele>
        <time>2021-08-02T18:42:38Z</time>
      </trkpt>
      <trkpt lat="43.201585" lon="-4.903026">
        <ele>607.183</ele>
        <time>2021-08-02T18:42:41Z</time>
      </trkpt>
      <trkpt lat="43.201631" lon="-4.902995">
        <ele>608.111</ele>
        <time>2021-08-02T18:42:44Z</time>
      </trkpt>
      <trkpt lat="43.201672" lon="-4.902963">
        <ele>608.908</ele>
        <time>2021-08-02T18:42:47Z</time>
      </trkpt>
      <trkpt lat="43.201716" lon="-4.902939">
        <ele>609.273</ele>
        <time>2021-08-02T18:42:51Z</time>
      </trkpt>
      <trkpt lat="43.201761" lon="-4.902923">
        <ele>607.585</ele>
        <time>2021-08-02T18:42:56Z</time>
      </trkpt>
      <trkpt lat="43.201807" lon="-4.902917">
        <ele>607.264</ele>
        <time>2021-08-02T18:43:00Z</time>
      </trkpt>
      <trkpt lat="43.201854" lon="-4.902916">
        <ele>605.782</ele>
        <time>2021-08-02T18:43:04Z</time>
      </trkpt>
      <trkpt lat="43.2019" lon="-4.902914">
        <ele>604.222</ele>
        <time>2021-08-02T18:43:08Z</time>
      </trkpt>
      <trkpt lat="43.201946" lon="-4.9029">
        <ele>603.310</ele>
        <time>2021-08-02T18:43:12Z</time>
      </trkpt>
      <trkpt lat="43.20199" lon="-4.902886">
        <ele>601.443</ele>
        <time>2021-08-02T18:43:15Z</time>
      </trkpt>
      <trkpt lat="43.202038" lon="-4.902867">
        <ele>599.921</ele>
        <time>2021-08-02T18:43:19Z</time>
      </trkpt>
      <trkpt lat="43.202067" lon="-4.902814">
        <ele>600.781</ele>
        <time>2021-08-02T18:43:24Z</time>
      </trkpt>
      <trkpt lat="43.202111" lon="-4.902782">
        <ele>601.261</ele>
        <time>2021-08-02T18:43:39Z</time>
      </trkpt>
      <trkpt lat="43.202165" lon="-4.902767">
        <ele>597.317</ele>
        <time>2021-08-02T18:43:43Z</time>
      </trkpt>
      <trkpt lat="43.202216" lon="-4.902753">
        <ele>597.108</ele>
        <time>2021-08-02T18:43:47Z</time>
      </trkpt>
      <trkpt lat="43.202264" lon="-4.902748">
        <ele>595.765</ele>
        <time>2021-08-02T18:43:51Z</time>
      </trkpt>
      <trkpt lat="43.20231" lon="-4.902754">
        <ele>594.877</ele>
        <time>2021-08-02T18:43:55Z</time>
      </trkpt>
      <trkpt lat="43.202358" lon="-4.90275">
        <ele>591.336</ele>
        <time>2021-08-02T18:43:59Z</time>
      </trkpt>
      <trkpt lat="43.202404" lon="-4.902745">
        <ele>589.244</ele>
        <time>2021-08-02T18:44:02Z</time>
      </trkpt>
      <trkpt lat="43.202451" lon="-4.902731">
        <ele>587.614</ele>
        <time>2021-08-02T18:44:06Z</time>
      </trkpt>
      <trkpt lat="43.202501" lon="-4.902709">
        <ele>585.932</ele>
        <time>2021-08-02T18:44:09Z</time>
      </trkpt>
      <trkpt lat="43.202542" lon="-4.902666">
        <ele>582.495</ele>
        <time>2021-08-02T18:44:13Z</time>
      </trkpt>
      <trkpt lat="43.202575" lon="-4.902617">
        <ele>580.333</ele>
        <time>2021-08-02T18:44:16Z</time>
      </trkpt>
      <trkpt lat="43.202574" lon="-4.90254">
        <ele>583.774</ele>
        <time>2021-08-02T18:44:19Z</time>
      </trkpt>
      <trkpt lat="43.202558" lon="-4.902475">
        <ele>585.856</ele>
        <time>2021-08-02T18:44:20Z</time>
      </trkpt>
      <trkpt lat="43.202555" lon="-4.90241">
        <ele>586.121</ele>
        <time>2021-08-02T18:44:23Z</time>
      </trkpt>
      <trkpt lat="43.202507" lon="-4.902399">
        <ele>586.108</ele>
        <time>2021-08-02T18:44:37Z</time>
      </trkpt>
      <trkpt lat="43.202461" lon="-4.902381">
        <ele>586.654</ele>
        <time>2021-08-02T18:44:41Z</time>
      </trkpt>
      <trkpt lat="43.202484" lon="-4.902442">
        <ele>588.566</ele>
        <time>2021-08-02T18:44:47Z</time>
      </trkpt>
      <trkpt lat="43.202541" lon="-4.902541">
        <ele>590.165</ele>
        <time>2021-08-02T18:44:49Z</time>
      </trkpt>
      <trkpt lat="43.202579" lon="-4.9025">
        <ele>593.483</ele>
        <time>2021-08-02T18:44:56Z</time>
      </trkpt>
      <trkpt lat="43.202627" lon="-4.902475">
        <ele>597.433</ele>
        <time>2021-08-02T18:45:01Z</time>
      </trkpt>
      <trkpt lat="43.202663" lon="-4.902423">
        <ele>601.491</ele>
        <time>2021-08-02T18:45:05Z</time>
      </trkpt>
      <trkpt lat="43.202691" lon="-4.902371">
        <ele>605.284</ele>
        <time>2021-08-02T18:45:08Z</time>
      </trkpt>
      <trkpt lat="43.202723" lon="-4.902322">
        <ele>607.552</ele>
        <time>2021-08-02T18:45:11Z</time>
      </trkpt>
      <trkpt lat="43.202762" lon="-4.902268">
        <ele>611.577</ele>
        <time>2021-08-02T18:45:15Z</time>
      </trkpt>
      <trkpt lat="43.202797" lon="-4.902215">
        <ele>615.561</ele>
        <time>2021-08-02T18:45:22Z</time>
      </trkpt>
      <trkpt lat="43.202834" lon="-4.902164">
        <ele>619.527</ele>
        <time>2021-08-02T18:45:26Z</time>
      </trkpt>
      <trkpt lat="43.202867" lon="-4.90212">
        <ele>623.508</ele>
        <time>2021-08-02T18:45:32Z</time>
      </trkpt>
      <trkpt lat="43.202918" lon="-4.902115">
        <ele>626.844</ele>
        <time>2021-08-02T18:45:36Z</time>
      </trkpt>
      <trkpt lat="43.202956" lon="-4.902191">
        <ele>628.126</ele>
        <time>2021-08-02T18:45:42Z</time>
      </trkpt>
      <trkpt lat="43.202983" lon="-4.902248">
        <ele>628.725</ele>
        <time>2021-08-02T18:45:47Z</time>
      </trkpt>
      <trkpt lat="43.203012" lon="-4.902306">
        <ele>628.263</ele>
        <time>2021-08-02T18:45:49Z</time>
      </trkpt>
      <trkpt lat="43.203044" lon="-4.902353">
        <ele>628.373</ele>
        <time>2021-08-02T18:45:52Z</time>
      </trkpt>
      <trkpt lat="43.203064" lon="-4.90241">
        <ele>626.651</ele>
        <time>2021-08-02T18:45:56Z</time>
      </trkpt>
      <trkpt lat="43.20308" lon="-4.902477">
        <ele>626.694</ele>
        <time>2021-08-02T18:46:00Z</time>
      </trkpt>
      <trkpt lat="43.203099" lon="-4.902544">
        <ele>626.192</ele>
        <time>2021-08-02T18:46:02Z</time>
      </trkpt>
      <trkpt lat="43.203138" lon="-4.902598">
        <ele>625.618</ele>
        <time>2021-08-02T18:46:06Z</time>
      </trkpt>
      <trkpt lat="43.203175" lon="-4.902639">
        <ele>625.298</ele>
        <time>2021-08-02T18:46:09Z</time>
      </trkpt>
      <trkpt lat="43.2032" lon="-4.902695">
        <ele>624.217</ele>
        <time>2021-08-02T18:46:11Z</time>
      </trkpt>
      <trkpt lat="43.20324" lon="-4.902745">
        <ele>623.508</ele>
        <time>2021-08-02T18:46:14Z</time>
      </trkpt>
      <trkpt lat="43.203279" lon="-4.902793">
        <ele>622.718</ele>
        <time>2021-08-02T18:46:16Z</time>
      </trkpt>
      <trkpt lat="43.203313" lon="-4.902846">
        <ele>621.430</ele>
        <time>2021-08-02T18:46:19Z</time>
      </trkpt>
      <trkpt lat="43.203343" lon="-4.902899">
        <ele>620.379</ele>
        <time>2021-08-02T18:46:21Z</time>
      </trkpt>
      <trkpt lat="43.203374" lon="-4.902944">
        <ele>619.857</ele>
        <time>2021-08-02T18:46:24Z</time>
      </trkpt>
      <trkpt lat="43.203408" lon="-4.902989">
        <ele>617.727</ele>
        <time>2021-08-02T18:46:27Z</time>
      </trkpt>
      <trkpt lat="43.20345" lon="-4.903034">
        <ele>616.475</ele>
        <time>2021-08-02T18:46:31Z</time>
      </trkpt>
      <trkpt lat="43.203489" lon="-4.903074">
        <ele>616.488</ele>
        <time>2021-08-02T18:46:33Z</time>
      </trkpt>
      <trkpt lat="43.203532" lon="-4.903107">
        <ele>615.166</ele>
        <time>2021-08-02T18:46:37Z</time>
      </trkpt>
      <trkpt lat="43.203572" lon="-4.903136">
        <ele>615.242</ele>
        <time>2021-08-02T18:46:39Z</time>
      </trkpt>
      <trkpt lat="43.203616" lon="-4.903169">
        <ele>615.822</ele>
        <time>2021-08-02T18:46:42Z</time>
      </trkpt>
      <trkpt lat="43.203662" lon="-4.903194">
        <ele>614.814</ele>
        <time>2021-08-02T18:46:46Z</time>
      </trkpt>
      <trkpt lat="43.203713" lon="-4.903209">
        <ele>613.608</ele>
        <time>2021-08-02T18:46:49Z</time>
      </trkpt>
      <trkpt lat="43.203764" lon="-4.903227">
        <ele>613.271</ele>
        <time>2021-08-02T18:46:52Z</time>
      </trkpt>
      <trkpt lat="43.203819" lon="-4.903234">
        <ele>613.313</ele>
        <time>2021-08-02T18:46:55Z</time>
      </trkpt>
      <trkpt lat="43.203872" lon="-4.903242">
        <ele>613.682</ele>
        <time>2021-08-02T18:46:59Z</time>
      </trkpt>
      <trkpt lat="43.203919" lon="-4.903245">
        <ele>613.820</ele>
        <time>2021-08-02T18:47:02Z</time>
      </trkpt>
      <trkpt lat="43.203966" lon="-4.903244">
        <ele>615.210</ele>
        <time>2021-08-02T18:47:04Z</time>
      </trkpt>
      <trkpt lat="43.204015" lon="-4.903235">
        <ele>616.048</ele>
        <time>2021-08-02T18:47:07Z</time>
      </trkpt>
      <trkpt lat="43.204066" lon="-4.903221">
        <ele>616.791</ele>
        <time>2021-08-02T18:47:10Z</time>
      </trkpt>
      <trkpt lat="43.204111" lon="-4.903194">
        <ele>617.759</ele>
        <time>2021-08-02T18:47:14Z</time>
      </trkpt>
      <trkpt lat="43.20416" lon="-4.903189">
        <ele>618.144</ele>
        <time>2021-08-02T18:47:19Z</time>
      </trkpt>
      <trkpt lat="43.204209" lon="-4.903162">
        <ele>619.205</ele>
        <time>2021-08-02T18:47:31Z</time>
      </trkpt>
      <trkpt lat="43.204261" lon="-4.903145">
        <ele>620.315</ele>
        <time>2021-08-02T18:47:34Z</time>
      </trkpt>
      <trkpt lat="43.20431" lon="-4.903126">
        <ele>621.908</ele>
        <time>2021-08-02T18:47:37Z</time>
      </trkpt>
      <trkpt lat="43.204362" lon="-4.903099">
        <ele>623.771</ele>
        <time>2021-08-02T18:47:41Z</time>
      </trkpt>
      <trkpt lat="43.204403" lon="-4.903068">
        <ele>624.123</ele>
        <time>2021-08-02T18:47:44Z</time>
      </trkpt>
      <trkpt lat="43.204449" lon="-4.90304">
        <ele>624.562</ele>
        <time>2021-08-02T18:47:49Z</time>
      </trkpt>
      <trkpt lat="43.204495" lon="-4.903011">
        <ele>625.650</ele>
        <time>2021-08-02T18:47:54Z</time>
      </trkpt>
      <trkpt lat="43.204537" lon="-4.90298">
        <ele>626.170</ele>
        <time>2021-08-02T18:48:00Z</time>
      </trkpt>
      <trkpt lat="43.204587" lon="-4.902973">
        <ele>625.318</ele>
        <time>2021-08-02T18:48:04Z</time>
      </trkpt>
      <trkpt lat="43.204632" lon="-4.902967">
        <ele>624.861</ele>
        <time>2021-08-02T18:48:15Z</time>
      </trkpt>
      <trkpt lat="43.204664" lon="-4.902914">
        <ele>624.539</ele>
        <time>2021-08-02T18:48:18Z</time>
      </trkpt>
      <trkpt lat="43.204691" lon="-4.902854">
        <ele>620.546</ele>
        <time>2021-08-02T18:48:21Z</time>
      </trkpt>
      <trkpt lat="43.204714" lon="-4.9028">
        <ele>616.588</ele>
        <time>2021-08-02T18:48:24Z</time>
      </trkpt>
      <trkpt lat="43.204756" lon="-4.902773">
        <ele>612.516</ele>
        <time>2021-08-02T18:48:29Z</time>
      </trkpt>
      <trkpt lat="43.204775" lon="-4.902705">
        <ele>608.508</ele>
        <time>2021-08-02T18:48:34Z</time>
      </trkpt>
      <trkpt lat="43.204779" lon="-4.90264">
        <ele>604.521</ele>
        <time>2021-08-02T18:48:38Z</time>
      </trkpt>
      <trkpt lat="43.204766" lon="-4.902571">
        <ele>600.593</ele>
        <time>2021-08-02T18:48:42Z</time>
      </trkpt>
      <trkpt lat="43.204766" lon="-4.902504">
        <ele>596.582</ele>
        <time>2021-08-02T18:48:46Z</time>
      </trkpt>
      <trkpt lat="43.204796" lon="-4.90245">
        <ele>592.570</ele>
        <time>2021-08-02T18:48:51Z</time>
      </trkpt>
      <trkpt lat="43.204843" lon="-4.902439">
        <ele>588.530</ele>
        <time>2021-08-02T18:48:56Z</time>
      </trkpt>
      <trkpt lat="43.204886" lon="-4.902471">
        <ele>584.538</ele>
        <time>2021-08-02T18:49:02Z</time>
      </trkpt>
      <trkpt lat="43.204864" lon="-4.90253">
        <ele>580.561</ele>
        <time>2021-08-02T18:49:07Z</time>
      </trkpt>
      <trkpt lat="43.204856" lon="-4.902592">
        <ele>576.529</ele>
        <time>2021-08-02T18:49:19Z</time>
      </trkpt>
      <trkpt lat="43.204869" lon="-4.902655">
        <ele>572.543</ele>
        <time>2021-08-02T18:50:44Z</time>
      </trkpt>
      <trkpt lat="43.204916" lon="-4.90267">
        <ele>568.964</ele>
        <time>2021-08-02T18:50:48Z</time>
      </trkpt>
      <trkpt lat="43.204941" lon="-4.902615">
        <ele>566.710</ele>
        <time>2021-08-02T18:50:58Z</time>
      </trkpt>
      <trkpt lat="43.204941" lon="-4.902549">
        <ele>565.408</ele>
        <time>2021-08-02T18:51:03Z</time>
      </trkpt>
      <trkpt lat="43.204982" lon="-4.902593">
        <ele>564.651</ele>
        <time>2021-08-02T18:51:16Z</time>
      </trkpt>
      <trkpt lat="43.205033" lon="-4.902638">
        <ele>564.113</ele>
        <time>2021-08-02T18:51:19Z</time>
      </trkpt>
      <trkpt lat="43.20508" lon="-4.902672">
        <ele>563.892</ele>
        <time>2021-08-02T18:51:22Z</time>
      </trkpt>
      <trkpt lat="43.205133" lon="-4.902699">
        <ele>567.860</ele>
        <time>2021-08-02T18:51:25Z</time>
      </trkpt>
      <trkpt lat="43.205174" lon="-4.902725">
        <ele>571.870</ele>
        <time>2021-08-02T18:51:28Z</time>
      </trkpt>
      <trkpt lat="43.205207" lon="-4.902774">
        <ele>575.898</ele>
        <time>2021-08-02T18:51:44Z</time>
      </trkpt>
      <trkpt lat="43.205255" lon="-4.902775">
        <ele>579.851</ele>
        <time>2021-08-02T18:51:49Z</time>
      </trkpt>
      <trkpt lat="43.205296" lon="-4.902745">
        <ele>583.839</ele>
        <time>2021-08-02T18:51:53Z</time>
      </trkpt>
      <trkpt lat="43.205344" lon="-4.902735">
        <ele>587.875</ele>
        <time>2021-08-02T18:52:19Z</time>
      </trkpt>
      <trkpt lat="43.205383" lon="-4.902701">
        <ele>591.828</ele>
        <time>2021-08-02T18:52:38Z</time>
      </trkpt>
      <trkpt lat="43.205433" lon="-4.902702">
        <ele>594.820</ele>
        <time>2021-08-02T18:53:13Z</time>
      </trkpt>
      <trkpt lat="43.205495" lon="-4.902654">
        <ele>598.808</ele>
        <time>2021-08-02T18:53:16Z</time>
      </trkpt>
      <trkpt lat="43.205538" lon="-4.902616">
        <ele>602.014</ele>
        <time>2021-08-02T18:53:20Z</time>
      </trkpt>
      <trkpt lat="43.205589" lon="-4.902579">
        <ele>601.926</ele>
        <time>2021-08-02T18:53:24Z</time>
      </trkpt>
      <trkpt lat="43.205631" lon="-4.902551">
        <ele>601.065</ele>
        <time>2021-08-02T18:53:31Z</time>
      </trkpt>
      <trkpt lat="43.205675" lon="-4.902538">
        <ele>598.553</ele>
        <time>2021-08-02T18:53:41Z</time>
      </trkpt>
      <trkpt lat="43.20572" lon="-4.902537">
        <ele>597.063</ele>
        <time>2021-08-02T18:53:47Z</time>
      </trkpt>
      <trkpt lat="43.205772" lon="-4.902503">
        <ele>593.071</ele>
        <time>2021-08-02T18:53:53Z</time>
      </trkpt>
      <trkpt lat="43.205803" lon="-4.902454">
        <ele>589.064</ele>
        <time>2021-08-02T18:53:58Z</time>
      </trkpt>
      <trkpt lat="43.205848" lon="-4.902427">
        <ele>585.052</ele>
        <time>2021-08-02T18:54:04Z</time>
      </trkpt>
      <trkpt lat="43.205895" lon="-4.902387">
        <ele>581.195</ele>
        <time>2021-08-02T18:54:06Z</time>
      </trkpt>
      <trkpt lat="43.205942" lon="-4.902348">
        <ele>578.549</ele>
        <time>2021-08-02T18:54:09Z</time>
      </trkpt>
      <trkpt lat="43.205987" lon="-4.902303">
        <ele>576.123</ele>
        <time>2021-08-02T18:54:14Z</time>
      </trkpt>
      <trkpt lat="43.20603" lon="-4.902267">
        <ele>574.408</ele>
        <time>2021-08-02T18:54:18Z</time>
      </trkpt>
      <trkpt lat="43.206061" lon="-4.902221">
        <ele>573.476</ele>
        <time>2021-08-02T18:56:10Z</time>
      </trkpt>
      <trkpt lat="43.206094" lon="-4.90215">
        <ele>569.458</ele>
        <time>2021-08-02T18:57:42Z</time>
      </trkpt>
      <trkpt lat="43.206133" lon="-4.902117">
        <ele>565.797</ele>
        <time>2021-08-02T18:57:49Z</time>
      </trkpt>
      <trkpt lat="43.206176" lon="-4.9021">
        <ele>564.025</ele>
        <time>2021-08-02T18:57:56Z</time>
      </trkpt>
      <trkpt lat="43.206223" lon="-4.902099">
        <ele>562.525</ele>
        <time>2021-08-02T18:58:02Z</time>
      </trkpt>
      <trkpt lat="43.206273" lon="-4.902118">
        <ele>560.823</ele>
        <time>2021-08-02T18:58:08Z</time>
      </trkpt>
      <trkpt lat="43.206321" lon="-4.902116">
        <ele>560.596</ele>
        <time>2021-08-02T18:58:15Z</time>
      </trkpt>
      <trkpt lat="43.20637" lon="-4.902111">
        <ele>560.154</ele>
        <time>2021-08-02T18:58:24Z</time>
      </trkpt>
      <trkpt lat="43.206418" lon="-4.902087">
        <ele>560.934</ele>
        <time>2021-08-02T18:58:30Z</time>
      </trkpt>
      <trkpt lat="43.206456" lon="-4.902053">
        <ele>561.455</ele>
        <time>2021-08-02T18:58:46Z</time>
      </trkpt>
      <trkpt lat="43.206478" lon="-4.901999">
        <ele>561.110</ele>
        <time>2021-08-02T18:58:54Z</time>
      </trkpt>
      <trkpt lat="43.206495" lon="-4.90193">
        <ele>562.108</ele>
        <time>2021-08-02T18:59:15Z</time>
      </trkpt>
      <trkpt lat="43.206509" lon="-4.901867">
        <ele>563.030</ele>
        <time>2021-08-02T18:59:22Z</time>
      </trkpt>
      <trkpt lat="43.206519" lon="-4.901805">
        <ele>563.472</ele>
        <time>2021-08-02T18:59:28Z</time>
      </trkpt>
      <trkpt lat="43.206526" lon="-4.901736">
        <ele>564.131</ele>
        <time>2021-08-02T18:59:34Z</time>
      </trkpt>
      <trkpt lat="43.206542" lon="-4.901655">
        <ele>564.869</ele>
        <time>2021-08-02T18:59:42Z</time>
      </trkpt>
      <trkpt lat="43.20656" lon="-4.901583">
        <ele>564.759</ele>
        <time>2021-08-02T18:59:46Z</time>
      </trkpt>
      <trkpt lat="43.206578" lon="-4.901519">
        <ele>564.947</ele>
        <time>2021-08-02T18:59:51Z</time>
      </trkpt>
      <trkpt lat="43.206597" lon="-4.901457">
        <ele>565.290</ele>
        <time>2021-08-02T18:59:56Z</time>
      </trkpt>
      <trkpt lat="43.206624" lon="-4.901391">
        <ele>565.668</ele>
        <time>2021-08-02T19:00:01Z</time>
      </trkpt>
      <trkpt lat="43.206661" lon="-4.901338">
        <ele>565.697</ele>
        <time>2021-08-02T19:00:06Z</time>
      </trkpt>
      <trkpt lat="43.206689" lon="-4.901276">
        <ele>565.723</ele>
        <time>2021-08-02T19:00:11Z</time>
      </trkpt>
      <trkpt lat="43.206708" lon="-4.901208">
        <ele>566.125</ele>
        <time>2021-08-02T19:00:16Z</time>
      </trkpt>
      <trkpt lat="43.206726" lon="-4.901137">
        <ele>566.308</ele>
        <time>2021-08-02T19:00:21Z</time>
      </trkpt>
      <trkpt lat="43.206751" lon="-4.901083">
        <ele>566.886</ele>
        <time>2021-08-02T19:00:25Z</time>
      </trkpt>
      <trkpt lat="43.20677" lon="-4.901019">
        <ele>567.518</ele>
        <time>2021-08-02T19:00:31Z</time>
      </trkpt>
      <trkpt lat="43.206804" lon="-4.900977">
        <ele>568.137</ele>
        <time>2021-08-02T19:00:36Z</time>
      </trkpt>
      <trkpt lat="43.206852" lon="-4.900928">
        <ele>568.075</ele>
        <time>2021-08-02T19:00:41Z</time>
      </trkpt>
      <trkpt lat="43.206874" lon="-4.900866">
        <ele>568.365</ele>
        <time>2021-08-02T19:00:46Z</time>
      </trkpt>
      <trkpt lat="43.206909" lon="-4.900816">
        <ele>568.833</ele>
        <time>2021-08-02T19:00:58Z</time>
      </trkpt>
      <trkpt lat="43.206952" lon="-4.900778">
        <ele>569.116</ele>
        <time>2021-08-02T19:01:03Z</time>
      </trkpt>
      <trkpt lat="43.206997" lon="-4.900743">
        <ele>569.774</ele>
        <time>2021-08-02T19:01:07Z</time>
      </trkpt>
      <trkpt lat="43.20704" lon="-4.900711">
        <ele>569.781</ele>
        <time>2021-08-02T19:01:11Z</time>
      </trkpt>
      <trkpt lat="43.207086" lon="-4.900684">
        <ele>569.861</ele>
        <time>2021-08-02T19:01:16Z</time>
      </trkpt>
      <trkpt lat="43.207136" lon="-4.900665">
        <ele>570.617</ele>
        <time>2021-08-02T19:01:22Z</time>
      </trkpt>
      <trkpt lat="43.207188" lon="-4.900681">
        <ele>570.708</ele>
        <time>2021-08-02T19:01:28Z</time>
      </trkpt>
      <trkpt lat="43.207242" lon="-4.900694">
        <ele>570.545</ele>
        <time>2021-08-02T19:01:33Z</time>
      </trkpt>
      <trkpt lat="43.207291" lon="-4.90072">
        <ele>570.817</ele>
        <time>2021-08-02T19:01:40Z</time>
      </trkpt>
      <trkpt lat="43.207336" lon="-4.900745">
        <ele>570.926</ele>
        <time>2021-08-02T19:01:47Z</time>
      </trkpt>
      <trkpt lat="43.207383" lon="-4.900744">
        <ele>571.944</ele>
        <time>2021-08-02T19:01:54Z</time>
      </trkpt>
      <trkpt lat="43.207435" lon="-4.90074">
        <ele>572.744</ele>
        <time>2021-08-02T19:02:00Z</time>
      </trkpt>
      <trkpt lat="43.20748" lon="-4.900743">
        <ele>573.722</ele>
        <time>2021-08-02T19:02:06Z</time>
      </trkpt>
      <trkpt lat="43.207527" lon="-4.900746">
        <ele>575.045</ele>
        <time>2021-08-02T19:02:15Z</time>
      </trkpt>
      <trkpt lat="43.207575" lon="-4.900759">
        <ele>576.753</ele>
        <time>2021-08-02T19:02:22Z</time>
      </trkpt>
      <trkpt lat="43.207622" lon="-4.90075">
        <ele>577.918</ele>
        <time>2021-08-02T19:02:30Z</time>
      </trkpt>
      <trkpt lat="43.207653" lon="-4.900692">
        <ele>578.798</ele>
        <time>2021-08-02T19:02:37Z</time>
      </trkpt>
      <trkpt lat="43.207685" lon="-4.900636">
        <ele>579.617</ele>
        <time>2021-08-02T19:02:42Z</time>
      </trkpt>
      <trkpt lat="43.207722" lon="-4.900599">
        <ele>580.808</ele>
        <time>2021-08-02T19:02:47Z</time>
      </trkpt>
      <trkpt lat="43.207741" lon="-4.900656">
        <ele>582.338</ele>
        <time>2021-08-02T19:02:53Z</time>
      </trkpt>
      <trkpt lat="43.20778" lon="-4.90069">
        <ele>583.960</ele>
        <time>2021-08-02T19:03:13Z</time>
      </trkpt>
      <trkpt lat="43.207709" lon="-4.900749">
        <ele>584.919</ele>
        <time>2021-08-02T19:04:19Z</time>
      </trkpt>
      <trkpt lat="43.207669" lon="-4.900786">
        <ele>588.977</ele>
        <time>2021-08-02T19:04:21Z</time>
      </trkpt>
      <trkpt lat="43.20769" lon="-4.900848">
        <ele>592.947</ele>
        <time>2021-08-02T19:04:28Z</time>
      </trkpt>
      <trkpt lat="43.207731" lon="-4.900883">
        <ele>596.935</ele>
        <time>2021-08-02T19:04:34Z</time>
      </trkpt>
      <trkpt lat="43.207791" lon="-4.900882">
        <ele>600.988</ele>
        <time>2021-08-02T19:04:38Z</time>
      </trkpt>
      <trkpt lat="43.207837" lon="-4.900883">
        <ele>604.926</ele>
        <time>2021-08-02T19:04:40Z</time>
      </trkpt>
      <trkpt lat="43.207891" lon="-4.900887">
        <ele>606.981</ele>
        <time>2021-08-02T19:04:42Z</time>
      </trkpt>
      <trkpt lat="43.20794" lon="-4.900895">
        <ele>608.361</ele>
        <time>2021-08-02T19:04:45Z</time>
      </trkpt>
      <trkpt lat="43.207982" lon="-4.900922">
        <ele>608.917</ele>
        <time>2021-08-02T19:04:52Z</time>
      </trkpt>
      <trkpt lat="43.208019" lon="-4.900972">
        <ele>609.708</ele>
        <time>2021-08-02T19:04:56Z</time>
      </trkpt>
      <trkpt lat="43.208047" lon="-4.901031">
        <ele>610.295</ele>
        <time>2021-08-02T19:05:01Z</time>
      </trkpt>
      <trkpt lat="43.208076" lon="-4.901088">
        <ele>610.977</ele>
        <time>2021-08-02T19:05:05Z</time>
      </trkpt>
      <trkpt lat="43.208102" lon="-4.90114">
        <ele>611.456</ele>
        <time>2021-08-02T19:05:11Z</time>
      </trkpt>
      <trkpt lat="43.208137" lon="-4.901207">
        <ele>611.384</ele>
        <time>2021-08-02T19:05:15Z</time>
      </trkpt>
      <trkpt lat="43.20817" lon="-4.901273">
        <ele>611.264</ele>
        <time>2021-08-02T19:05:19Z</time>
      </trkpt>
      <trkpt lat="43.208215" lon="-4.901317">
        <ele>611.442</ele>
        <time>2021-08-02T19:05:23Z</time>
      </trkpt>
      <trkpt lat="43.208266" lon="-4.901307">
        <ele>610.455</ele>
        <time>2021-08-02T19:05:39Z</time>
      </trkpt>
      <trkpt lat="43.208303" lon="-4.901344">
        <ele>609.523</ele>
        <time>2021-08-02T19:05:45Z</time>
      </trkpt>
      <trkpt lat="43.208332" lon="-4.901392">
        <ele>608.769</ele>
        <time>2021-08-02T19:05:49Z</time>
      </trkpt>
      <trkpt lat="43.208363" lon="-4.901441">
        <ele>607.904</ele>
        <time>2021-08-02T19:05:53Z</time>
      </trkpt>
      <trkpt lat="43.208395" lon="-4.901485">
        <ele>607.424</ele>
        <time>2021-08-02T19:05:57Z</time>
      </trkpt>
      <trkpt lat="43.208432" lon="-4.901543">
        <ele>606.208</ele>
        <time>2021-08-02T19:06:02Z</time>
      </trkpt>
      <trkpt lat="43.208469" lon="-4.901594">
        <ele>605.373</ele>
        <time>2021-08-02T19:06:05Z</time>
      </trkpt>
      <trkpt lat="43.208508" lon="-4.901641">
        <ele>605.175</ele>
        <time>2021-08-02T19:06:09Z</time>
      </trkpt>
      <trkpt lat="43.208543" lon="-4.901692">
        <ele>605.314</ele>
        <time>2021-08-02T19:06:13Z</time>
      </trkpt>
      <trkpt lat="43.208579" lon="-4.901746">
        <ele>605.452</ele>
        <time>2021-08-02T19:06:17Z</time>
      </trkpt>
      <trkpt lat="43.20861" lon="-4.901796">
        <ele>604.142</ele>
        <time>2021-08-02T19:06:21Z</time>
      </trkpt>
      <trkpt lat="43.208659" lon="-4.901823">
        <ele>603.890</ele>
        <time>2021-08-02T19:06:25Z</time>
      </trkpt>
      <trkpt lat="43.208706" lon="-4.901837">
        <ele>603.953</ele>
        <time>2021-08-02T19:06:30Z</time>
      </trkpt>
      <trkpt lat="43.208757" lon="-4.901817">
        <ele>603.491</ele>
        <time>2021-08-02T19:06:35Z</time>
      </trkpt>
      <trkpt lat="43.208807" lon="-4.901811">
        <ele>602.673</ele>
        <time>2021-08-02T19:06:42Z</time>
      </trkpt>
      <trkpt lat="43.208855" lon="-4.901781">
        <ele>601.285</ele>
        <time>2021-08-02T19:07:02Z</time>
      </trkpt>
      <trkpt lat="43.208884" lon="-4.901728">
        <ele>600.413</ele>
        <time>2021-08-02T19:07:07Z</time>
      </trkpt>
      <trkpt lat="43.208917" lon="-4.901682">
        <ele>599.608</ele>
        <time>2021-08-02T19:07:13Z</time>
      </trkpt>
      <trkpt lat="43.208962" lon="-4.901668">
        <ele>598.714</ele>
        <time>2021-08-02T19:07:19Z</time>
      </trkpt>
      <trkpt lat="43.209007" lon="-4.901641">
        <ele>598.976</ele>
        <time>2021-08-02T19:07:24Z</time>
      </trkpt>
      <trkpt lat="43.209049" lon="-4.901604">
        <ele>597.765</ele>
        <time>2021-08-02T19:07:30Z</time>
      </trkpt>
      <trkpt lat="43.209095" lon="-4.90158">
        <ele>596.593</ele>
        <time>2021-08-02T19:07:34Z</time>
      </trkpt>
      <trkpt lat="43.209144" lon="-4.901569">
        <ele>595.673</ele>
        <time>2021-08-02T19:07:39Z</time>
      </trkpt>
      <trkpt lat="43.209204" lon="-4.901568">
        <ele>594.761</ele>
        <time>2021-08-02T19:07:44Z</time>
      </trkpt>
      <trkpt lat="43.209256" lon="-4.901571">
        <ele>594.384</ele>
        <time>2021-08-02T19:07:49Z</time>
      </trkpt>
      <trkpt lat="43.209292" lon="-4.901613">
        <ele>594.122</ele>
        <time>2021-08-02T19:07:54Z</time>
      </trkpt>
      <trkpt lat="43.20934" lon="-4.901643">
        <ele>593.476</ele>
        <time>2021-08-02T19:08:01Z</time>
      </trkpt>
      <trkpt lat="43.209389" lon="-4.901638">
        <ele>592.890</ele>
        <time>2021-08-02T19:08:07Z</time>
      </trkpt>
      <trkpt lat="43.209424" lon="-4.901599">
        <ele>591.619</ele>
        <time>2021-08-02T19:08:13Z</time>
      </trkpt>
      <trkpt lat="43.209395" lon="-4.901544">
        <ele>590.708</ele>
        <time>2021-08-02T19:08:19Z</time>
      </trkpt>
      <trkpt lat="43.209391" lon="-4.901469">
        <ele>590.284</ele>
        <time>2021-08-02T19:08:24Z</time>
      </trkpt>
      <trkpt lat="43.209394" lon="-4.901406">
        <ele>589.916</ele>
        <time>2021-08-02T19:08:29Z</time>
      </trkpt>
      <trkpt lat="43.209406" lon="-4.901339">
        <ele>589.785</ele>
        <time>2021-08-02T19:08:36Z</time>
      </trkpt>
      <trkpt lat="43.209426" lon="-4.901281">
        <ele>589.613</ele>
        <time>2021-08-02T19:08:43Z</time>
      </trkpt>
      <trkpt lat="43.209473" lon="-4.901277">
        <ele>589.563</ele>
        <time>2021-08-02T19:08:47Z</time>
      </trkpt>
      <trkpt lat="43.209506" lon="-4.90132">
        <ele>589.591</ele>
        <time>2021-08-02T19:08:50Z</time>
      </trkpt>
      <trkpt lat="43.209553" lon="-4.901355">
        <ele>589.544</ele>
        <time>2021-08-02T19:08:54Z</time>
      </trkpt>
      <trkpt lat="43.209589" lon="-4.901408">
        <ele>589.542</ele>
        <time>2021-08-02T19:08:59Z</time>
      </trkpt>
      <trkpt lat="43.209614" lon="-4.901463">
        <ele>589.557</ele>
        <time>2021-08-02T19:09:19Z</time>
      </trkpt>
      <trkpt lat="43.209599" lon="-4.901525">
        <ele>589.500</ele>
        <time>2021-08-02T19:09:25Z</time>
      </trkpt>
      <trkpt lat="43.209617" lon="-4.901585">
        <ele>586.820</ele>
        <time>2021-08-02T19:09:44Z</time>
      </trkpt>
      <trkpt lat="43.209582" lon="-4.901628">
        <ele>585.208</ele>
        <time>2021-08-02T19:09:53Z</time>
      </trkpt>
      <trkpt lat="43.209572" lon="-4.901689">
        <ele>584.362</ele>
        <time>2021-08-02T19:10:05Z</time>
      </trkpt>
      <trkpt lat="43.209563" lon="-4.901756">
        <ele>583.894</ele>
        <time>2021-08-02T19:10:18Z</time>
      </trkpt>
      <trkpt lat="43.209569" lon="-4.901821">
        <ele>583.443</ele>
        <time>2021-08-02T19:10:29Z</time>
      </trkpt>
      <trkpt lat="43.209619" lon="-4.901847">
        <ele>583.261</ele>
        <time>2021-08-02T19:10:38Z</time>
      </trkpt>
      <trkpt lat="43.209665" lon="-4.901806">
        <ele>583.171</ele>
        <time>2021-08-02T19:10:44Z</time>
      </trkpt>
      <trkpt lat="43.209671" lon="-4.901741">
        <ele>583.079</ele>
        <time>2021-08-02T19:10:58Z</time>
      </trkpt>
      <trkpt lat="43.209694" lon="-4.901686">
        <ele>579.062</ele>
        <time>2021-08-02T19:11:07Z</time>
      </trkpt>
      <trkpt lat="43.209734" lon="-4.901654">
        <ele>575.770</ele>
        <time>2021-08-02T19:11:16Z</time>
      </trkpt>
      <trkpt lat="43.209778" lon="-4.901637">
        <ele>572.973</ele>
        <time>2021-08-02T19:11:29Z</time>
      </trkpt>
      <trkpt lat="43.209815" lon="-4.901601">
        <ele>571.285</ele>
        <time>2021-08-02T19:11:35Z</time>
      </trkpt>
      <trkpt lat="43.20986" lon="-4.901581">
        <ele>569.613</ele>
        <time>2021-08-02T19:11:45Z</time>
      </trkpt>
      <trkpt lat="43.209905" lon="-4.901563">
        <ele>568.808</ele>
        <time>2021-08-02T19:12:08Z</time>
      </trkpt>
      <trkpt lat="43.209955" lon="-4.901555">
        <ele>568.184</ele>
        <time>2021-08-02T19:12:19Z</time>
      </trkpt>
      <trkpt lat="43.210003" lon="-4.901529">
        <ele>567.716</ele>
        <time>2021-08-02T19:12:26Z</time>
      </trkpt>
      <trkpt lat="43.210042" lon="-4.901488">
        <ele>567.465</ele>
        <time>2021-08-02T19:12:34Z</time>
      </trkpt>
      <trkpt lat="43.210072" lon="-4.901441">
        <ele>567.273</ele>
        <time>2021-08-02T19:12:45Z</time>
      </trkpt>
      <trkpt lat="43.21013" lon="-4.901431">
        <ele>567.183</ele>
        <time>2021-08-02T19:12:51Z</time>
      </trkpt>
      <trkpt lat="43.210187" lon="-4.901436">
        <ele>567.041</ele>
        <time>2021-08-02T19:12:55Z</time>
      </trkpt>
      <trkpt lat="43.210239" lon="-4.901438">
        <ele>566.934</ele>
        <time>2021-08-02T19:13:02Z</time>
      </trkpt>
      <trkpt lat="43.210284" lon="-4.901448">
        <ele>566.932</ele>
        <time>2021-08-02T19:13:08Z</time>
      </trkpt>
      <trkpt lat="43.210308" lon="-4.901511">
        <ele>565.268</ele>
        <time>2021-08-02T19:13:28Z</time>
      </trkpt>
      <trkpt lat="43.210346" lon="-4.901547">
        <ele>564.142</ele>
        <time>2021-08-02T19:13:33Z</time>
      </trkpt>
      <trkpt lat="43.210365" lon="-4.901606">
        <ele>563.726</ele>
        <time>2021-08-02T19:13:40Z</time>
      </trkpt>
      <trkpt lat="43.210401" lon="-4.901649">
        <ele>563.608</ele>
        <time>2021-08-02T19:13:50Z</time>
      </trkpt>
      <trkpt lat="43.210434" lon="-4.901702">
        <ele>564.413</ele>
        <time>2021-08-02T19:13:56Z</time>
      </trkpt>
      <trkpt lat="43.210481" lon="-4.901734">
        <ele>564.595</ele>
        <time>2021-08-02T19:14:02Z</time>
      </trkpt>
      <trkpt lat="43.210533" lon="-4.901741">
        <ele>564.114</ele>
        <time>2021-08-02T19:14:06Z</time>
      </trkpt>
      <trkpt lat="43.210581" lon="-4.901773">
        <ele>564.242</ele>
        <time>2021-08-02T19:14:11Z</time>
      </trkpt>
      <trkpt lat="43.210634" lon="-4.901796">
        <ele>563.372</ele>
        <time>2021-08-02T19:14:15Z</time>
      </trkpt>
      <trkpt lat="43.210683" lon="-4.9018">
        <ele>563.040</ele>
        <time>2021-08-02T19:14:20Z</time>
      </trkpt>
      <trkpt lat="43.210726" lon="-4.90183">
        <ele>562.543</ele>
        <time>2021-08-02T19:14:28Z</time>
      </trkpt>
      <trkpt lat="43.210762" lon="-4.901868">
        <ele>561.541</ele>
        <time>2021-08-02T19:14:34Z</time>
      </trkpt>
      <trkpt lat="43.210802" lon="-4.901913">
        <ele>561.128</ele>
        <time>2021-08-02T19:14:41Z</time>
      </trkpt>
      <trkpt lat="43.210849" lon="-4.901937">
        <ele>560.089</ele>
        <time>2021-08-02T19:14:47Z</time>
      </trkpt>
      <trkpt lat="43.210895" lon="-4.901959">
        <ele>558.317</ele>
        <time>2021-08-02T19:14:52Z</time>
      </trkpt>
      <trkpt lat="43.210946" lon="-4.901977">
        <ele>556.808</ele>
        <time>2021-08-02T19:14:57Z</time>
      </trkpt>
      <trkpt lat="43.210996" lon="-4.901977">
        <ele>555.359</ele>
        <time>2021-08-02T19:15:02Z</time>
      </trkpt>
      <trkpt lat="43.211045" lon="-4.901999">
        <ele>553.711</ele>
        <time>2021-08-02T19:15:08Z</time>
      </trkpt>
      <trkpt lat="43.21109" lon="-4.901994">
        <ele>552.180</ele>
        <time>2021-08-02T19:15:15Z</time>
      </trkpt>
      <trkpt lat="43.211134" lon="-4.90201">
        <ele>550.158</ele>
        <time>2021-08-02T19:15:20Z</time>
      </trkpt>
      <trkpt lat="43.211135" lon="-4.902091">
        <ele>549.138</ele>
        <time>2021-08-02T19:15:24Z</time>
      </trkpt>
      <trkpt lat="43.211115" lon="-4.902159">
        <ele>548.136</ele>
        <time>2021-08-02T19:15:28Z</time>
      </trkpt>
      <trkpt lat="43.211097" lon="-4.902231">
        <ele>547.699</ele>
        <time>2021-08-02T19:15:33Z</time>
      </trkpt>
      <trkpt lat="43.211063" lon="-4.902278">
        <ele>547.027</ele>
        <time>2021-08-02T19:15:37Z</time>
      </trkpt>
      <trkpt lat="43.211036" lon="-4.902338">
        <ele>546.031</ele>
        <time>2021-08-02T19:15:42Z</time>
      </trkpt>
      <trkpt lat="43.210993" lon="-4.90238">
        <ele>545.961</ele>
        <time>2021-08-02T19:15:46Z</time>
      </trkpt>
      <trkpt lat="43.210944" lon="-4.902395">
        <ele>545.107</ele>
        <time>2021-08-02T19:15:50Z</time>
      </trkpt>
      <trkpt lat="43.210901" lon="-4.902425">
        <ele>545.008</ele>
        <time>2021-08-02T19:15:55Z</time>
      </trkpt>
      <trkpt lat="43.210951" lon="-4.902411">
        <ele>543.610</ele>
        <time>2021-08-02T19:16:07Z</time>
      </trkpt>
      <trkpt lat="43.210996" lon="-4.902408">
        <ele>542.412</ele>
        <time>2021-08-02T19:16:12Z</time>
      </trkpt>
      <trkpt lat="43.211047" lon="-4.902421">
        <ele>540.441</ele>
        <time>2021-08-02T19:16:23Z</time>
      </trkpt>
      <trkpt lat="43.211103" lon="-4.902425">
        <ele>539.489</ele>
        <time>2021-08-02T19:16:29Z</time>
      </trkpt>
      <trkpt lat="43.21115" lon="-4.902433">
        <ele>537.689</ele>
        <time>2021-08-02T19:16:33Z</time>
      </trkpt>
      <trkpt lat="43.211203" lon="-4.902445">
        <ele>536.527</ele>
        <time>2021-08-02T19:16:39Z</time>
      </trkpt>
      <trkpt lat="43.211228" lon="-4.902511">
        <ele>535.540</ele>
        <time>2021-08-02T19:16:44Z</time>
      </trkpt>
      <trkpt lat="43.211209" lon="-4.902577">
        <ele>534.418</ele>
        <time>2021-08-02T19:16:48Z</time>
      </trkpt>
      <trkpt lat="43.211196" lon="-4.902638">
        <ele>533.745</ele>
        <time>2021-08-02T19:16:52Z</time>
      </trkpt>
      <trkpt lat="43.211151" lon="-4.902634">
        <ele>533.347</ele>
        <time>2021-08-02T19:17:17Z</time>
      </trkpt>
      <trkpt lat="43.211112" lon="-4.902689">
        <ele>533.111</ele>
        <time>2021-08-02T19:17:22Z</time>
      </trkpt>
      <trkpt lat="43.211078" lon="-4.902733">
        <ele>532.908</ele>
        <time>2021-08-02T19:17:26Z</time>
      </trkpt>
      <trkpt lat="43.211046" lon="-4.902794">
        <ele>532.861</ele>
        <time>2021-08-02T19:17:31Z</time>
      </trkpt>
      <trkpt lat="43.211002" lon="-4.902832">
        <ele>532.713</ele>
        <time>2021-08-02T19:17:37Z</time>
      </trkpt>
      <trkpt lat="43.210967" lon="-4.902876">
        <ele>532.732</ele>
        <time>2021-08-02T19:17:40Z</time>
      </trkpt>
      <trkpt lat="43.210923" lon="-4.902899">
        <ele>532.710</ele>
        <time>2021-08-02T19:17:44Z</time>
      </trkpt>
      <trkpt lat="43.210891" lon="-4.902944">
        <ele>532.740</ele>
        <time>2021-08-02T19:17:49Z</time>
      </trkpt>
      <trkpt lat="43.210863" lon="-4.902995">
        <ele>532.728</ele>
        <time>2021-08-02T19:17:55Z</time>
      </trkpt>
      <trkpt lat="43.210908" lon="-4.903011">
        <ele>532.891</ele>
        <time>2021-08-02T19:18:00Z</time>
      </trkpt>
      <trkpt lat="43.21096" lon="-4.903015">
        <ele>532.859</ele>
        <time>2021-08-02T19:18:04Z</time>
      </trkpt>
      <trkpt lat="43.211005" lon="-4.90299">
        <ele>532.827</ele>
        <time>2021-08-02T19:18:07Z</time>
      </trkpt>
      <trkpt lat="43.211039" lon="-4.902936">
        <ele>532.868</ele>
        <time>2021-08-02T19:18:12Z</time>
      </trkpt>
      <trkpt lat="43.211054" lon="-4.902876">
        <ele>532.814</ele>
        <time>2021-08-02T19:18:18Z</time>
      </trkpt>
      <trkpt lat="43.211097" lon="-4.902848">
        <ele>532.808</ele>
        <time>2021-08-02T19:18:24Z</time>
      </trkpt>
      <trkpt lat="43.211132" lon="-4.902897">
        <ele>532.859</ele>
        <time>2021-08-02T19:18:27Z</time>
      </trkpt>
      <trkpt lat="43.211157" lon="-4.902948">
        <ele>528.811</ele>
        <time>2021-08-02T19:18:30Z</time>
      </trkpt>
      <trkpt lat="43.211204" lon="-4.902956">
        <ele>524.890</ele>
        <time>2021-08-02T19:18:35Z</time>
      </trkpt>
      <trkpt lat="43.211252" lon="-4.902929">
        <ele>520.818</ele>
        <time>2021-08-02T19:18:40Z</time>
      </trkpt>
      <trkpt lat="43.2113" lon="-4.902925">
        <ele>517.178</ele>
        <time>2021-08-02T19:18:45Z</time>
      </trkpt>
      <trkpt lat="43.211328" lon="-4.902983">
        <ele>515.456</ele>
        <time>2021-08-02T19:18:50Z</time>
      </trkpt>
      <trkpt lat="43.211324" lon="-4.903049">
        <ele>513.319</ele>
        <time>2021-08-02T19:19:00Z</time>
      </trkpt>
      <trkpt lat="43.211294" lon="-4.903112">
        <ele>512.287</ele>
        <time>2021-08-02T19:19:04Z</time>
      </trkpt>
      <trkpt lat="43.211272" lon="-4.903169">
        <ele>510.716</ele>
        <time>2021-08-02T19:19:10Z</time>
      </trkpt>
      <trkpt lat="43.211233" lon="-4.903206">
        <ele>510.376</ele>
        <time>2021-08-02T19:19:14Z</time>
      </trkpt>
      <trkpt lat="43.211197" lon="-4.903248">
        <ele>509.813</ele>
        <time>2021-08-02T19:19:18Z</time>
      </trkpt>
      <trkpt lat="43.211161" lon="-4.903287">
        <ele>508.808</ele>
        <time>2021-08-02T19:19:23Z</time>
      </trkpt>
      <trkpt lat="43.211213" lon="-4.903292">
        <ele>508.238</ele>
        <time>2021-08-02T19:19:28Z</time>
      </trkpt>
      <trkpt lat="43.211245" lon="-4.903238">
        <ele>507.850</ele>
        <time>2021-08-02T19:19:31Z</time>
      </trkpt>
      <trkpt lat="43.211273" lon="-4.903183">
        <ele>507.699</ele>
        <time>2021-08-02T19:19:34Z</time>
      </trkpt>
      <trkpt lat="43.211315" lon="-4.903156">
        <ele>507.597</ele>
        <time>2021-08-02T19:19:39Z</time>
      </trkpt>
      <trkpt lat="43.21136" lon="-4.903171">
        <ele>507.527</ele>
        <time>2021-08-02T19:19:45Z</time>
      </trkpt>
      <trkpt lat="43.21134" lon="-4.903227">
        <ele>507.585</ele>
        <time>2021-08-02T19:19:49Z</time>
      </trkpt>
      <trkpt lat="43.211331" lon="-4.903292">
        <ele>507.448</ele>
        <time>2021-08-02T19:19:55Z</time>
      </trkpt>
      <trkpt lat="43.211316" lon="-4.903357">
        <ele>507.446</ele>
        <time>2021-08-02T19:20:05Z</time>
      </trkpt>
      <trkpt lat="43.21128" lon="-4.903399">
        <ele>507.437</ele>
        <time>2021-08-02T19:20:08Z</time>
      </trkpt>
      <trkpt lat="43.211266" lon="-4.903458">
        <ele>507.449</ele>
        <time>2021-08-02T19:20:12Z</time>
      </trkpt>
      <trkpt lat="43.211232" lon="-4.903511">
        <ele>507.413</ele>
        <time>2021-08-02T19:20:15Z</time>
      </trkpt>
      <trkpt lat="43.211197" lon="-4.903552">
        <ele>507.408</ele>
        <time>2021-08-02T19:20:20Z</time>
      </trkpt>
      <trkpt lat="43.211191" lon="-4.903615">
        <ele>504.790</ele>
        <time>2021-08-02T19:20:26Z</time>
      </trkpt>
      <trkpt lat="43.211216" lon="-4.903675">
        <ele>503.312</ele>
        <time>2021-08-02T19:20:31Z</time>
      </trkpt>
      <trkpt lat="43.211258" lon="-4.903699">
        <ele>502.361</ele>
        <time>2021-08-02T19:20:35Z</time>
      </trkpt>
      <trkpt lat="43.211303" lon="-4.903702">
        <ele>500.429</ele>
        <time>2021-08-02T19:20:39Z</time>
      </trkpt>
      <trkpt lat="43.211348" lon="-4.903683">
        <ele>500.649</ele>
        <time>2021-08-02T19:20:43Z</time>
      </trkpt>
      <trkpt lat="43.211378" lon="-4.903636">
        <ele>499.857</ele>
        <time>2021-08-02T19:20:48Z</time>
      </trkpt>
      <trkpt lat="43.211424" lon="-4.903618">
        <ele>499.180</ele>
        <time>2021-08-02T19:20:54Z</time>
      </trkpt>
      <trkpt lat="43.211469" lon="-4.903632">
        <ele>497.558</ele>
        <time>2021-08-02T19:20:59Z</time>
      </trkpt>
      <trkpt lat="43.211514" lon="-4.903645">
        <ele>497.227</ele>
        <time>2021-08-02T19:21:04Z</time>
      </trkpt>
      <trkpt lat="43.211564" lon="-4.903668">
        <ele>495.268</ele>
        <time>2021-08-02T19:21:09Z</time>
      </trkpt>
      <trkpt lat="43.211608" lon="-4.903699">
        <ele>494.514</ele>
        <time>2021-08-02T19:21:13Z</time>
      </trkpt>
      <trkpt lat="43.211645" lon="-4.903736">
        <ele>494.308</ele>
        <time>2021-08-02T19:21:17Z</time>
      </trkpt>
      <trkpt lat="43.211688" lon="-4.903761">
        <ele>494.559</ele>
        <time>2021-08-02T19:21:21Z</time>
      </trkpt>
      <trkpt lat="43.211733" lon="-4.903773">
        <ele>494.671</ele>
        <time>2021-08-02T19:21:25Z</time>
      </trkpt>
      <trkpt lat="43.211779" lon="-4.903784">
        <ele>494.630</ele>
        <time>2021-08-02T19:21:30Z</time>
      </trkpt>
      <trkpt lat="43.211813" lon="-4.903833">
        <ele>493.358</ele>
        <time>2021-08-02T19:21:35Z</time>
      </trkpt>
      <trkpt lat="43.211854" lon="-4.903864">
        <ele>492.418</ele>
        <time>2021-08-02T19:21:39Z</time>
      </trkpt>
      <trkpt lat="43.211899" lon="-4.903885">
        <ele>492.096</ele>
        <time>2021-08-02T19:21:44Z</time>
      </trkpt>
      <trkpt lat="43.211947" lon="-4.903903">
        <ele>492.029</ele>
        <time>2021-08-02T19:21:49Z</time>
      </trkpt>
      <trkpt lat="43.211991" lon="-4.903918">
        <ele>492.097</ele>
        <time>2021-08-02T19:21:54Z</time>
      </trkpt>
      <trkpt lat="43.212037" lon="-4.903936">
        <ele>488.062</ele>
        <time>2021-08-02T19:21:59Z</time>
      </trkpt>
      <trkpt lat="43.21207" lon="-4.903979">
        <ele>485.183</ele>
        <time>2021-08-02T19:22:14Z</time>
      </trkpt>
      <trkpt lat="43.212115" lon="-4.903993">
        <ele>483.311</ele>
        <time>2021-08-02T19:22:17Z</time>
      </trkpt>
      <trkpt lat="43.212166" lon="-4.903997">
        <ele>482.208</ele>
        <time>2021-08-02T19:22:21Z</time>
      </trkpt>
      <trkpt lat="43.212204" lon="-4.904032">
        <ele>481.623</ele>
        <time>2021-08-02T19:22:35Z</time>
      </trkpt>
      <trkpt lat="43.212256" lon="-4.904052">
        <ele>481.335</ele>
        <time>2021-08-02T19:22:53Z</time>
      </trkpt>
      <trkpt lat="43.212304" lon="-4.904072">
        <ele>481.174</ele>
        <time>2021-08-02T19:22:58Z</time>
      </trkpt>
      <trkpt lat="43.212347" lon="-4.904098">
        <ele>481.062</ele>
        <time>2021-08-02T19:23:03Z</time>
      </trkpt>
      <trkpt lat="43.212395" lon="-4.904127">
        <ele>480.952</ele>
        <time>2021-08-02T19:23:08Z</time>
      </trkpt>
      <trkpt lat="43.212441" lon="-4.904151">
        <ele>480.980</ele>
        <time>2021-08-02T19:23:14Z</time>
      </trkpt>
      <trkpt lat="43.212483" lon="-4.904187">
        <ele>480.923</ele>
        <time>2021-08-02T19:23:20Z</time>
      </trkpt>
      <trkpt lat="43.212507" lon="-4.904242">
        <ele>481.091</ele>
        <time>2021-08-02T19:23:32Z</time>
      </trkpt>
      <trkpt lat="43.212522" lon="-4.904312">
        <ele>481.083</ele>
        <time>2021-08-02T19:23:37Z</time>
      </trkpt>
      <trkpt lat="43.212562" lon="-4.904342">
        <ele>481.025</ele>
        <time>2021-08-02T19:23:43Z</time>
      </trkpt>
      <trkpt lat="43.212562" lon="-4.904412">
        <ele>480.517</ele>
        <time>2021-08-02T19:23:59Z</time>
      </trkpt>
      <trkpt lat="43.212586" lon="-4.904466">
        <ele>480.208</ele>
        <time>2021-08-02T19:24:02Z</time>
      </trkpt>
      <trkpt lat="43.212623" lon="-4.904508">
        <ele>480.345</ele>
        <time>2021-08-02T19:24:06Z</time>
      </trkpt>
      <trkpt lat="43.212667" lon="-4.904539">
        <ele>480.947</ele>
        <time>2021-08-02T19:24:11Z</time>
      </trkpt>
      <trkpt lat="43.212708" lon="-4.904566">
        <ele>481.366</ele>
        <time>2021-08-02T19:24:16Z</time>
      </trkpt>
      <trkpt lat="43.212753" lon="-4.904579">
        <ele>481.684</ele>
        <time>2021-08-02T19:24:22Z</time>
      </trkpt>
      <trkpt lat="43.212785" lon="-4.90463">
        <ele>481.814</ele>
        <time>2021-08-02T19:24:27Z</time>
      </trkpt>
      <trkpt lat="43.212818" lon="-4.904675">
        <ele>481.922</ele>
        <time>2021-08-02T19:24:32Z</time>
      </trkpt>
      <trkpt lat="43.212862" lon="-4.904703">
        <ele>481.935</ele>
        <time>2021-08-02T19:24:37Z</time>
      </trkpt>
      <trkpt lat="43.212905" lon="-4.904722">
        <ele>481.823</ele>
        <time>2021-08-02T19:24:43Z</time>
      </trkpt>
      <trkpt lat="43.212949" lon="-4.904754">
        <ele>481.863</ele>
        <time>2021-08-02T19:24:48Z</time>
      </trkpt>
      <trkpt lat="43.212986" lon="-4.904802">
        <ele>481.744</ele>
        <time>2021-08-02T19:24:53Z</time>
      </trkpt>
      <trkpt lat="43.21303" lon="-4.904832">
        <ele>480.518</ele>
        <time>2021-08-02T19:24:58Z</time>
      </trkpt>
      <trkpt lat="43.213071" lon="-4.904864">
        <ele>479.908</ele>
        <time>2021-08-02T19:25:03Z</time>
      </trkpt>
      <trkpt lat="43.213118" lon="-4.904881">
        <ele>479.823</ele>
        <time>2021-08-02T19:25:13Z</time>
      </trkpt>
      <trkpt lat="43.213142" lon="-4.904937">
        <ele>479.975</ele>
        <time>2021-08-02T19:25:17Z</time>
      </trkpt>
      <trkpt lat="43.213156" lon="-4.904996">
        <ele>480.044</ele>
        <time>2021-08-02T19:25:20Z</time>
      </trkpt>
      <trkpt lat="43.213183" lon="-4.905052">
        <ele>480.262</ele>
        <time>2021-08-02T19:25:25Z</time>
      </trkpt>
      <trkpt lat="43.213227" lon="-4.905076">
        <ele>480.442</ele>
        <time>2021-08-02T19:25:30Z</time>
      </trkpt>
      <trkpt lat="43.21327" lon="-4.905106">
        <ele>480.530</ele>
        <time>2021-08-02T19:25:34Z</time>
      </trkpt>
      <trkpt lat="43.213316" lon="-4.905128">
        <ele>480.573</ele>
        <time>2021-08-02T19:25:39Z</time>
      </trkpt>
      <trkpt lat="43.213356" lon="-4.905156">
        <ele>480.631</ele>
        <time>2021-08-02T19:25:44Z</time>
      </trkpt>
      <trkpt lat="43.213364" lon="-4.905219">
        <ele>480.721</ele>
        <time>2021-08-02T19:25:53Z</time>
      </trkpt>
      <trkpt lat="43.213358" lon="-4.905157">
        <ele>480.841</ele>
        <time>2021-08-02T19:26:27Z</time>
      </trkpt>
      <trkpt lat="43.213368" lon="-4.905096">
        <ele>480.905</ele>
        <time>2021-08-02T19:26:31Z</time>
      </trkpt>
      <trkpt lat="43.213377" lon="-4.905033">
        <ele>480.908</ele>
        <time>2021-08-02T19:26:36Z</time>
      </trkpt>
      <trkpt lat="43.213425" lon="-4.905029">
        <ele>480.959</ele>
        <time>2021-08-02T19:26:57Z</time>
      </trkpt>
      <trkpt lat="43.213461" lon="-4.904981">
        <ele>480.991</ele>
        <time>2021-08-02T19:27:02Z</time>
      </trkpt>
      <trkpt lat="43.213516" lon="-4.904982">
        <ele>480.910</ele>
        <time>2021-08-02T19:27:23Z</time>
      </trkpt>
      <trkpt lat="43.213493" lon="-4.905038">
        <ele>480.998</ele>
        <time>2021-08-02T19:27:57Z</time>
      </trkpt>
      <trkpt lat="43.213428" lon="-4.905203">
        <ele>480.988</ele>
        <time>2021-08-02T19:28:10Z</time>
      </trkpt>
      <trkpt lat="43.213477" lon="-4.905212">
        <ele>480.926</ele>
        <time>2021-08-02T19:28:28Z</time>
      </trkpt>
      <trkpt lat="43.213538" lon="-4.905205">
        <ele>480.929</ele>
        <time>2021-08-02T19:28:29Z</time>
      </trkpt>
      <trkpt lat="43.213587" lon="-4.905199">
        <ele>480.987</ele>
        <time>2021-08-02T19:28:31Z</time>
      </trkpt>
      <trkpt lat="43.213532" lon="-4.905181">
        <ele>480.966</ele>
        <time>2021-08-02T19:28:40Z</time>
      </trkpt>
      <trkpt lat="43.213487" lon="-4.905205">
        <ele>480.929</ele>
        <time>2021-08-02T19:28:43Z</time>
      </trkpt>
      <trkpt lat="43.21343" lon="-4.90525">
        <ele>480.921</ele>
        <time>2021-08-02T19:28:46Z</time>
      </trkpt>
      <trkpt lat="43.213355" lon="-4.905312">
        <ele>480.908</ele>
        <time>2021-08-02T19:28:47Z</time>
      </trkpt>
      <trkpt lat="43.213321" lon="-4.90536">
        <ele>480.933</ele>
        <time>2021-08-02T19:28:53Z</time>
      </trkpt>
      <trkpt lat="43.213277" lon="-4.905336">
        <ele>480.975</ele>
        <time>2021-08-02T19:31:23Z</time>
      </trkpt>
      <trkpt lat="43.213368" lon="-4.905472">
        <ele>459.993</ele>
        <time>2021-08-03T07:55:49Z</time>
      </trkpt>
      <trkpt lat="43.21338" lon="-4.905401">
        <ele>459.565</ele>
        <time>2021-08-03T07:55:53Z</time>
      </trkpt>
      <trkpt lat="43.21325" lon="-4.905634">
        <ele>460.521</ele>
        <time>2021-08-03T07:56:24Z</time>
      </trkpt>
      <trkpt lat="43.21321" lon="-4.90567">
        <ele>460.608</ele>
        <time>2021-08-03T07:56:33Z</time>
      </trkpt>
      <trkpt lat="43.213224" lon="-4.905587">
        <ele>460.246</ele>
        <time>2021-08-03T07:56:45Z</time>
      </trkpt>
      <trkpt lat="43.21325" lon="-4.905523">
        <ele>459.898</ele>
        <time>2021-08-03T07:56:48Z</time>
      </trkpt>
      <trkpt lat="43.213276" lon="-4.905471">
        <ele>459.568</ele>
        <time>2021-08-03T07:56:52Z</time>
      </trkpt>
      <trkpt lat="43.213284" lon="-4.905405">
        <ele>459.024</ele>
        <time>2021-08-03T07:56:56Z</time>
      </trkpt>
      <trkpt lat="43.213282" lon="-4.905335">
        <ele>458.644</ele>
        <time>2021-08-03T07:56:59Z</time>
      </trkpt>
      <trkpt lat="43.213282" lon="-4.905271">
        <ele>458.179</ele>
        <time>2021-08-03T07:57:02Z</time>
      </trkpt>
      <trkpt lat="43.213288" lon="-4.905182">
        <ele>457.532</ele>
        <time>2021-08-03T07:57:05Z</time>
      </trkpt>
      <trkpt lat="43.213293" lon="-4.905121">
        <ele>457.167</ele>
        <time>2021-08-03T07:57:09Z</time>
      </trkpt>
      <trkpt lat="43.213298" lon="-4.905053">
        <ele>456.697</ele>
        <time>2021-08-03T07:57:16Z</time>
      </trkpt>
      <trkpt lat="43.213304" lon="-4.904981">
        <ele>456.123</ele>
        <time>2021-08-03T07:57:22Z</time>
      </trkpt>
      <trkpt lat="43.213305" lon="-4.904891">
        <ele>455.425</ele>
        <time>2021-08-03T07:57:27Z</time>
      </trkpt>
      <trkpt lat="43.213315" lon="-4.904819">
        <ele>454.808</ele>
        <time>2021-08-03T07:57:30Z</time>
      </trkpt>
      <trkpt lat="43.213332" lon="-4.904761">
        <ele>454.396</ele>
        <time>2021-08-03T07:57:34Z</time>
      </trkpt>
      <trkpt lat="43.213338" lon="-4.904694">
        <ele>453.888</ele>
        <time>2021-08-03T07:57:39Z</time>
      </trkpt>
      <trkpt lat="43.213343" lon="-4.904631">
        <ele>453.468</ele>
        <time>2021-08-03T07:57:43Z</time>
      </trkpt>
      <trkpt lat="43.213349" lon="-4.904566">
        <ele>453.064</ele>
        <time>2021-08-03T07:57:47Z</time>
      </trkpt>
      <trkpt lat="43.21337" lon="-4.904509">
        <ele>452.734</ele>
        <time>2021-08-03T07:57:51Z</time>
      </trkpt>
      <trkpt lat="43.213389" lon="-4.904451">
        <ele>452.469</ele>
        <time>2021-08-03T07:57:55Z</time>
      </trkpt>
      <trkpt lat="43.213411" lon="-4.904384">
        <ele>452.292</ele>
        <time>2021-08-03T07:58:00Z</time>
      </trkpt>
      <trkpt lat="43.213429" lon="-4.904318">
        <ele>451.927</ele>
        <time>2021-08-03T07:58:05Z</time>
      </trkpt>
      <trkpt lat="43.21347" lon="-4.904274">
        <ele>451.858</ele>
        <time>2021-08-03T07:58:11Z</time>
      </trkpt>
      <trkpt lat="43.213518" lon="-4.90424">
        <ele>451.652</ele>
        <time>2021-08-03T07:58:20Z</time>
      </trkpt>
      <trkpt lat="43.213559" lon="-4.904197">
        <ele>451.317</ele>
        <time>2021-08-03T07:58:25Z</time>
      </trkpt>
      <trkpt lat="43.213604" lon="-4.904175">
        <ele>451.108</ele>
        <time>2021-08-03T07:58:30Z</time>
      </trkpt>
      <trkpt lat="43.213619" lon="-4.9041">
        <ele>450.892</ele>
        <time>2021-08-03T07:58:35Z</time>
      </trkpt>
      <trkpt lat="43.213622" lon="-4.904019">
        <ele>450.554</ele>
        <time>2021-08-03T07:58:39Z</time>
      </trkpt>
      <trkpt lat="43.21362" lon="-4.903955">
        <ele>450.374</ele>
        <time>2021-08-03T07:58:42Z</time>
      </trkpt>
      <trkpt lat="43.213618" lon="-4.903891">
        <ele>450.170</ele>
        <time>2021-08-03T07:58:45Z</time>
      </trkpt>
      <trkpt lat="43.213617" lon="-4.903812">
        <ele>449.890</ele>
        <time>2021-08-03T07:58:49Z</time>
      </trkpt>
      <trkpt lat="43.213609" lon="-4.903741">
        <ele>449.565</ele>
        <time>2021-08-03T07:58:53Z</time>
      </trkpt>
      <trkpt lat="43.213603" lon="-4.903671">
        <ele>449.278</ele>
        <time>2021-08-03T07:58:57Z</time>
      </trkpt>
      <trkpt lat="43.213602" lon="-4.903602">
        <ele>449.043</ele>
        <time>2021-08-03T07:59:01Z</time>
      </trkpt>
      <trkpt lat="43.2136" lon="-4.903534">
        <ele>448.731</ele>
        <time>2021-08-03T07:59:05Z</time>
      </trkpt>
      <trkpt lat="43.213604" lon="-4.903471">
        <ele>448.561</ele>
        <time>2021-08-03T07:59:09Z</time>
      </trkpt>
      <trkpt lat="43.213619" lon="-4.903409">
        <ele>448.307</ele>
        <time>2021-08-03T07:59:13Z</time>
      </trkpt>
      <trkpt lat="43.213664" lon="-4.903392">
        <ele>448.408</ele>
        <time>2021-08-03T07:59:21Z</time>
      </trkpt>
      <trkpt lat="43.213635" lon="-4.903342">
        <ele>448.130</ele>
        <time>2021-08-03T07:59:29Z</time>
      </trkpt>
      <trkpt lat="43.213635" lon="-4.903269">
        <ele>447.942</ele>
        <time>2021-08-03T07:59:34Z</time>
      </trkpt>
      <trkpt lat="43.213644" lon="-4.903204">
        <ele>447.752</ele>
        <time>2021-08-03T07:59:39Z</time>
      </trkpt>
      <trkpt lat="43.213688" lon="-4.903183">
        <ele>447.728</ele>
        <time>2021-08-03T07:59:46Z</time>
      </trkpt>
      <trkpt lat="43.213671" lon="-4.903115">
        <ele>447.448</ele>
        <time>2021-08-03T07:59:55Z</time>
      </trkpt>
      <trkpt lat="43.213674" lon="-4.903048">
        <ele>447.253</ele>
        <time>2021-08-03T07:59:59Z</time>
      </trkpt>
      <trkpt lat="43.213674" lon="-4.902981">
        <ele>446.866</ele>
        <time>2021-08-03T08:00:03Z</time>
      </trkpt>
      <trkpt lat="43.213673" lon="-4.902912">
        <ele>446.331</ele>
        <time>2021-08-03T08:00:08Z</time>
      </trkpt>
      <trkpt lat="43.213698" lon="-4.902851">
        <ele>446.155</ele>
        <time>2021-08-03T08:00:13Z</time>
      </trkpt>
      <trkpt lat="43.213727" lon="-4.90279">
        <ele>445.907</ele>
        <time>2021-08-03T08:00:18Z</time>
      </trkpt>
      <trkpt lat="43.213754" lon="-4.902741">
        <ele>445.917</ele>
        <time>2021-08-03T08:00:23Z</time>
      </trkpt>
      <trkpt lat="43.213792" lon="-4.902691">
        <ele>446.008</ele>
        <time>2021-08-03T08:00:28Z</time>
      </trkpt>
      <trkpt lat="43.213827" lon="-4.902644">
        <ele>446.172</ele>
        <time>2021-08-03T08:00:32Z</time>
      </trkpt>
      <trkpt lat="43.213866" lon="-4.902599">
        <ele>446.254</ele>
        <time>2021-08-03T08:00:36Z</time>
      </trkpt>
      <trkpt lat="43.213905" lon="-4.902552">
        <ele>446.684</ele>
        <time>2021-08-03T08:00:40Z</time>
      </trkpt>
      <trkpt lat="43.21394" lon="-4.902509">
        <ele>447.340</ele>
        <time>2021-08-03T08:00:44Z</time>
      </trkpt>
      <trkpt lat="43.213977" lon="-4.902471">
        <ele>447.970</ele>
        <time>2021-08-03T08:00:48Z</time>
      </trkpt>
      <trkpt lat="43.21402" lon="-4.902427">
        <ele>448.625</ele>
        <time>2021-08-03T08:00:53Z</time>
      </trkpt>
      <trkpt lat="43.214056" lon="-4.902389">
        <ele>449.378</ele>
        <time>2021-08-03T08:00:58Z</time>
      </trkpt>
      <trkpt lat="43.214102" lon="-4.902351">
        <ele>450.263</ele>
        <time>2021-08-03T08:01:04Z</time>
      </trkpt>
      <trkpt lat="43.214149" lon="-4.90232">
        <ele>451.297</ele>
        <time>2021-08-03T08:01:10Z</time>
      </trkpt>
      <trkpt lat="43.214196" lon="-4.90231">
        <ele>453.523</ele>
        <time>2021-08-03T08:01:15Z</time>
      </trkpt>
      <trkpt lat="43.214239" lon="-4.902279">
        <ele>455.825</ele>
        <time>2021-08-03T08:01:19Z</time>
      </trkpt>
      <trkpt lat="43.214281" lon="-4.90224">
        <ele>457.808</ele>
        <time>2021-08-03T08:01:23Z</time>
      </trkpt>
      <trkpt lat="43.214331" lon="-4.902207">
        <ele>459.916</ele>
        <time>2021-08-03T08:01:27Z</time>
      </trkpt>
      <trkpt lat="43.214372" lon="-4.902179">
        <ele>461.228</ele>
        <time>2021-08-03T08:01:31Z</time>
      </trkpt>
      <trkpt lat="43.214417" lon="-4.902143">
        <ele>462.148</ele>
        <time>2021-08-03T08:01:35Z</time>
      </trkpt>
      <trkpt lat="43.214465" lon="-4.902104">
        <ele>462.974</ele>
        <time>2021-08-03T08:01:39Z</time>
      </trkpt>
      <trkpt lat="43.214516" lon="-4.902074">
        <ele>463.914</ele>
        <time>2021-08-03T08:01:43Z</time>
      </trkpt>
      <trkpt lat="43.214545" lon="-4.90201">
        <ele>462.549</ele>
        <time>2021-08-03T08:01:47Z</time>
      </trkpt>
      <trkpt lat="43.214574" lon="-4.901957">
        <ele>461.662</ele>
        <time>2021-08-03T08:01:50Z</time>
      </trkpt>
      <trkpt lat="43.214608" lon="-4.901908">
        <ele>460.857</ele>
        <time>2021-08-03T08:01:53Z</time>
      </trkpt>
      <trkpt lat="43.214653" lon="-4.901852">
        <ele>460.065</ele>
        <time>2021-08-03T08:01:57Z</time>
      </trkpt>
      <trkpt lat="43.214686" lon="-4.901798">
        <ele>458.668</ele>
        <time>2021-08-03T08:02:01Z</time>
      </trkpt>
      <trkpt lat="43.214724" lon="-4.901755">
        <ele>457.814</ele>
        <time>2021-08-03T08:02:07Z</time>
      </trkpt>
      <trkpt lat="43.214773" lon="-4.90173">
        <ele>456.808</ele>
        <time>2021-08-03T08:02:14Z</time>
      </trkpt>
      <trkpt lat="43.214815" lon="-4.901692">
        <ele>455.363</ele>
        <time>2021-08-03T08:02:19Z</time>
      </trkpt>
      <trkpt lat="43.214864" lon="-4.901667">
        <ele>454.565</ele>
        <time>2021-08-03T08:02:23Z</time>
      </trkpt>
      <trkpt lat="43.21491" lon="-4.901645">
        <ele>454.315</ele>
        <time>2021-08-03T08:02:27Z</time>
      </trkpt>
      <trkpt lat="43.214958" lon="-4.901624">
        <ele>454.171</ele>
        <time>2021-08-03T08:02:32Z</time>
      </trkpt>
      <trkpt lat="43.215" lon="-4.901596">
        <ele>453.761</ele>
        <time>2021-08-03T08:02:38Z</time>
      </trkpt>
      <trkpt lat="43.215053" lon="-4.901579">
        <ele>453.236</ele>
        <time>2021-08-03T08:02:43Z</time>
      </trkpt>
      <trkpt lat="43.215104" lon="-4.901566">
        <ele>452.899</ele>
        <time>2021-08-03T08:02:47Z</time>
      </trkpt>
      <trkpt lat="43.215146" lon="-4.901545">
        <ele>452.184</ele>
        <time>2021-08-03T08:02:50Z</time>
      </trkpt>
      <trkpt lat="43.215198" lon="-4.901529">
        <ele>451.598</ele>
        <time>2021-08-03T08:02:54Z</time>
      </trkpt>
      <trkpt lat="43.215244" lon="-4.901501">
        <ele>450.515</ele>
        <time>2021-08-03T08:02:58Z</time>
      </trkpt>
      <trkpt lat="43.21528" lon="-4.901464">
        <ele>449.026</ele>
        <time>2021-08-03T08:03:02Z</time>
      </trkpt>
      <trkpt lat="43.215294" lon="-4.901393">
        <ele>446.208</ele>
        <time>2021-08-03T08:03:07Z</time>
      </trkpt>
      <trkpt lat="43.21528" lon="-4.901322">
        <ele>444.866</ele>
        <time>2021-08-03T08:03:12Z</time>
      </trkpt>
      <trkpt lat="43.215299" lon="-4.901257">
        <ele>443.698</ele>
        <time>2021-08-03T08:03:16Z</time>
      </trkpt>
      <trkpt lat="43.215295" lon="-4.901186">
        <ele>442.378</ele>
        <time>2021-08-03T08:03:22Z</time>
      </trkpt>
      <trkpt lat="43.215298" lon="-4.901121">
        <ele>441.184</ele>
        <time>2021-08-03T08:03:27Z</time>
      </trkpt>
      <trkpt lat="43.215308" lon="-4.901051">
        <ele>441.394</ele>
        <time>2021-08-03T08:03:32Z</time>
      </trkpt>
      <trkpt lat="43.215353" lon="-4.901049">
        <ele>441.199</ele>
        <time>2021-08-03T08:04:08Z</time>
      </trkpt>
      <trkpt lat="43.215403" lon="-4.901062">
        <ele>440.762</ele>
        <time>2021-08-03T08:04:12Z</time>
      </trkpt>
      <trkpt lat="43.215452" lon="-4.901048">
        <ele>440.597</ele>
        <time>2021-08-03T08:04:16Z</time>
      </trkpt>
      <trkpt lat="43.215483" lon="-4.900986">
        <ele>440.552</ele>
        <time>2021-08-03T08:04:20Z</time>
      </trkpt>
      <trkpt lat="43.215502" lon="-4.900925">
        <ele>440.553</ele>
        <time>2021-08-03T08:04:23Z</time>
      </trkpt>
      <trkpt lat="43.215536" lon="-4.900869">
        <ele>440.208</ele>
        <time>2021-08-03T08:04:27Z</time>
      </trkpt>
      <trkpt lat="43.215575" lon="-4.900822">
        <ele>440.308</ele>
        <time>2021-08-03T08:04:31Z</time>
      </trkpt>
      <trkpt lat="43.215622" lon="-4.900777">
        <ele>441.692</ele>
        <time>2021-08-03T08:04:35Z</time>
      </trkpt>
      <trkpt lat="43.21567" lon="-4.900743">
        <ele>442.654</ele>
        <time>2021-08-03T08:04:39Z</time>
      </trkpt>
      <trkpt lat="43.215717" lon="-4.900733">
        <ele>442.994</ele>
        <time>2021-08-03T08:04:43Z</time>
      </trkpt>
      <trkpt lat="43.215766" lon="-4.900717">
        <ele>443.360</ele>
        <time>2021-08-03T08:04:47Z</time>
      </trkpt>
      <trkpt lat="43.215815" lon="-4.900716">
        <ele>443.370</ele>
        <time>2021-08-03T08:04:51Z</time>
      </trkpt>
      <trkpt lat="43.215861" lon="-4.900737">
        <ele>442.695</ele>
        <time>2021-08-03T08:04:55Z</time>
      </trkpt>
      <trkpt lat="43.215911" lon="-4.900756">
        <ele>442.278</ele>
        <time>2021-08-03T08:04:59Z</time>
      </trkpt>
      <trkpt lat="43.215962" lon="-4.900771">
        <ele>441.973</ele>
        <time>2021-08-03T08:05:03Z</time>
      </trkpt>
      <trkpt lat="43.216018" lon="-4.90077">
        <ele>442.292</ele>
        <time>2021-08-03T08:05:08Z</time>
      </trkpt>
      <trkpt lat="43.216065" lon="-4.900763">
        <ele>442.873</ele>
        <time>2021-08-03T08:05:12Z</time>
      </trkpt>
      <trkpt lat="43.216111" lon="-4.900753">
        <ele>443.520</ele>
        <time>2021-08-03T08:05:16Z</time>
      </trkpt>
      <trkpt lat="43.216167" lon="-4.900744">
        <ele>443.608</ele>
        <time>2021-08-03T08:05:21Z</time>
      </trkpt>
      <trkpt lat="43.216213" lon="-4.900753">
        <ele>443.016</ele>
        <time>2021-08-03T08:05:25Z</time>
      </trkpt>
      <trkpt lat="43.216258" lon="-4.900771">
        <ele>442.068</ele>
        <time>2021-08-03T08:05:29Z</time>
      </trkpt>
      <trkpt lat="43.216304" lon="-4.900776">
        <ele>441.618</ele>
        <time>2021-08-03T08:05:33Z</time>
      </trkpt>
      <trkpt lat="43.21635" lon="-4.900771">
        <ele>441.634</ele>
        <time>2021-08-03T08:05:37Z</time>
      </trkpt>
      <trkpt lat="43.216402" lon="-4.900751">
        <ele>442.214</ele>
        <time>2021-08-03T08:05:42Z</time>
      </trkpt>
      <trkpt lat="43.21645" lon="-4.900714">
        <ele>443.129</ele>
        <time>2021-08-03T08:05:46Z</time>
      </trkpt>
      <trkpt lat="43.216506" lon="-4.900689">
        <ele>443.492</ele>
        <time>2021-08-03T08:05:50Z</time>
      </trkpt>
      <trkpt lat="43.216564" lon="-4.90067">
        <ele>443.437</ele>
        <time>2021-08-03T08:05:54Z</time>
      </trkpt>
      <trkpt lat="43.216619" lon="-4.900659">
        <ele>443.077</ele>
        <time>2021-08-03T08:05:58Z</time>
      </trkpt>
      <trkpt lat="43.216664" lon="-4.900647">
        <ele>442.761</ele>
        <time>2021-08-03T08:06:02Z</time>
      </trkpt>
      <trkpt lat="43.216716" lon="-4.900641">
        <ele>442.527</ele>
        <time>2021-08-03T08:06:08Z</time>
      </trkpt>
      <trkpt lat="43.216766" lon="-4.900639">
        <ele>442.308</ele>
        <time>2021-08-03T08:06:13Z</time>
      </trkpt>
      <trkpt lat="43.216816" lon="-4.900632">
        <ele>442.164</ele>
        <time>2021-08-03T08:06:18Z</time>
      </trkpt>
      <trkpt lat="43.216858" lon="-4.900608">
        <ele>442.416</ele>
        <time>2021-08-03T08:06:22Z</time>
      </trkpt>
      <trkpt lat="43.216906" lon="-4.900594">
        <ele>442.416</ele>
        <time>2021-08-03T08:06:26Z</time>
      </trkpt>
      <trkpt lat="43.21696" lon="-4.900586">
        <ele>442.182</ele>
        <time>2021-08-03T08:06:31Z</time>
      </trkpt>
      <trkpt lat="43.217009" lon="-4.900569">
        <ele>441.672</ele>
        <time>2021-08-03T08:06:35Z</time>
      </trkpt>
      <trkpt lat="43.217055" lon="-4.900556">
        <ele>441.057</ele>
        <time>2021-08-03T08:06:40Z</time>
      </trkpt>
      <trkpt lat="43.217101" lon="-4.900546">
        <ele>440.610</ele>
        <time>2021-08-03T08:06:46Z</time>
      </trkpt>
      <trkpt lat="43.217142" lon="-4.90051">
        <ele>441.625</ele>
        <time>2021-08-03T08:06:51Z</time>
      </trkpt>
      <trkpt lat="43.217184" lon="-4.900482">
        <ele>442.028</ele>
        <time>2021-08-03T08:06:56Z</time>
      </trkpt>
      <trkpt lat="43.21723" lon="-4.900453">
        <ele>442.489</ele>
        <time>2021-08-03T08:07:01Z</time>
      </trkpt>
      <trkpt lat="43.217274" lon="-4.900424">
        <ele>443.617</ele>
        <time>2021-08-03T08:07:07Z</time>
      </trkpt>
      <trkpt lat="43.217314" lon="-4.900396">
        <ele>444.808</ele>
        <time>2021-08-03T08:07:12Z</time>
      </trkpt>
      <trkpt lat="43.217362" lon="-4.900363">
        <ele>446.229</ele>
        <time>2021-08-03T08:07:17Z</time>
      </trkpt>
      <trkpt lat="43.217408" lon="-4.900361">
        <ele>446.221</ele>
        <time>2021-08-03T08:07:21Z</time>
      </trkpt>
      <trkpt lat="43.217453" lon="-4.900349">
        <ele>446.741</ele>
        <time>2021-08-03T08:07:26Z</time>
      </trkpt>
      <trkpt lat="43.217496" lon="-4.900323">
        <ele>447.987</ele>
        <time>2021-08-03T08:07:31Z</time>
      </trkpt>
      <trkpt lat="43.217538" lon="-4.900352">
        <ele>450.597</ele>
        <time>2021-08-03T08:07:41Z</time>
      </trkpt>
      <trkpt lat="43.21757" lon="-4.900398">
        <ele>450.382</ele>
        <time>2021-08-03T08:07:49Z</time>
      </trkpt>
      <trkpt lat="43.217519" lon="-4.900378">
        <ele>447.145</ele>
        <time>2021-08-03T08:08:12Z</time>
      </trkpt>
      <trkpt lat="43.217536" lon="-4.900439">
        <ele>444.820</ele>
        <time>2021-08-03T08:08:48Z</time>
      </trkpt>
      <trkpt lat="43.217565" lon="-4.900494">
        <ele>442.432</ele>
        <time>2021-08-03T08:09:01Z</time>
      </trkpt>
      <trkpt lat="43.217605" lon="-4.900524">
        <ele>441.292</ele>
        <time>2021-08-03T08:09:11Z</time>
      </trkpt>
      <trkpt lat="43.217629" lon="-4.900578">
        <ele>442.111</ele>
        <time>2021-08-03T08:09:26Z</time>
      </trkpt>
      <trkpt lat="43.217675" lon="-4.900531">
        <ele>442.008</ele>
        <time>2021-08-03T08:10:08Z</time>
      </trkpt>
      <trkpt lat="43.217775" lon="-4.900485">
        <ele>452.340</ele>
        <time>2021-08-03T08:10:47Z</time>
      </trkpt>
      <trkpt lat="43.21783" lon="-4.900461">
        <ele>459.042</ele>
        <time>2021-08-03T08:11:27Z</time>
      </trkpt>
      <trkpt lat="43.217872" lon="-4.900431">
        <ele>464.882</ele>
        <time>2021-08-03T08:12:05Z</time>
      </trkpt>
      <trkpt lat="43.218424" lon="-4.900434">
        <ele>473.898</ele>
        <time>2021-08-03T08:15:52Z</time>
      </trkpt>
      <trkpt lat="43.219049" lon="-4.897897">
        <ele>448.258</ele>
        <time>2021-08-03T08:18:24Z</time>
      </trkpt>
      <trkpt lat="43.219108" lon="-4.898251">
        <ele>443.163</ele>
        <time>2021-08-03T08:18:25Z</time>
      </trkpt>
      <trkpt lat="43.219147" lon="-4.898515">
        <ele>438.766</ele>
        <time>2021-08-03T08:18:27Z</time>
      </trkpt>
      <trkpt lat="43.21918" lon="-4.898672">
        <ele>435.581</ele>
        <time>2021-08-03T08:18:29Z</time>
      </trkpt>
      <trkpt lat="43.219231" lon="-4.89871">
        <ele>436.619</ele>
        <time>2021-08-03T08:18:32Z</time>
      </trkpt>
      <trkpt lat="43.219269" lon="-4.898758">
        <ele>437.909</ele>
        <time>2021-08-03T08:18:36Z</time>
      </trkpt>
      <trkpt lat="43.219316" lon="-4.898764">
        <ele>439.819</ele>
        <time>2021-08-03T08:18:51Z</time>
      </trkpt>
      <trkpt lat="43.219348" lon="-4.898719">
        <ele>440.408</ele>
        <time>2021-08-03T08:19:01Z</time>
      </trkpt>
      <trkpt lat="43.219393" lon="-4.898666">
        <ele>440.668</ele>
        <time>2021-08-03T08:19:09Z</time>
      </trkpt>
      <trkpt lat="43.219416" lon="-4.898608">
        <ele>439.510</ele>
        <time>2021-08-03T08:19:14Z</time>
      </trkpt>
      <trkpt lat="43.219445" lon="-4.898545">
        <ele>438.910</ele>
        <time>2021-08-03T08:19:22Z</time>
      </trkpt>
      <trkpt lat="43.219472" lon="-4.898491">
        <ele>442.356</ele>
        <time>2021-08-03T08:19:26Z</time>
      </trkpt>
      <trkpt lat="43.219505" lon="-4.898442">
        <ele>447.586</ele>
        <time>2021-08-03T08:19:44Z</time>
      </trkpt>
      <trkpt lat="43.219536" lon="-4.898394">
        <ele>453.151</ele>
        <time>2021-08-03T08:19:57Z</time>
      </trkpt>
      <trkpt lat="43.219562" lon="-4.898339">
        <ele>458.664</ele>
        <time>2021-08-03T08:20:02Z</time>
      </trkpt>
      <trkpt lat="43.219578" lon="-4.89828">
        <ele>460.679</ele>
        <time>2021-08-03T08:20:06Z</time>
      </trkpt>
      <trkpt lat="43.219576" lon="-4.898216">
        <ele>458.581</ele>
        <time>2021-08-03T08:20:11Z</time>
      </trkpt>
      <trkpt lat="43.219577" lon="-4.898145">
        <ele>456.961</ele>
        <time>2021-08-03T08:20:17Z</time>
      </trkpt>
      <trkpt lat="43.219573" lon="-4.898075">
        <ele>454.317</ele>
        <time>2021-08-03T08:20:22Z</time>
      </trkpt>
      <trkpt lat="43.219561" lon="-4.897999">
        <ele>450.008</ele>
        <time>2021-08-03T08:20:27Z</time>
      </trkpt>
      <trkpt lat="43.219534" lon="-4.897949">
        <ele>443.755</ele>
        <time>2021-08-03T08:20:31Z</time>
      </trkpt>
      <trkpt lat="43.219505" lon="-4.897901">
        <ele>437.717</ele>
        <time>2021-08-03T08:20:35Z</time>
      </trkpt>
      <trkpt lat="43.219393" lon="-4.897806">
        <ele>428.857</ele>
        <time>2021-08-03T08:21:11Z</time>
      </trkpt>
      <trkpt lat="43.219419" lon="-4.897737">
        <ele>427.843</ele>
        <time>2021-08-03T08:21:16Z</time>
      </trkpt>
      <trkpt lat="43.219457" lon="-4.897689">
        <ele>428.233</ele>
        <time>2021-08-03T08:21:19Z</time>
      </trkpt>
      <trkpt lat="43.219504" lon="-4.897632">
        <ele>432.658</ele>
        <time>2021-08-03T08:21:22Z</time>
      </trkpt>
      <trkpt lat="43.219539" lon="-4.897586">
        <ele>434.561</ele>
        <time>2021-08-03T08:21:25Z</time>
      </trkpt>
      <trkpt lat="43.219583" lon="-4.897537">
        <ele>435.526</ele>
        <time>2021-08-03T08:21:29Z</time>
      </trkpt>
      <trkpt lat="43.219626" lon="-4.897494">
        <ele>435.686</ele>
        <time>2021-08-03T08:21:33Z</time>
      </trkpt>
      <trkpt lat="43.219673" lon="-4.89745">
        <ele>436.460</ele>
        <time>2021-08-03T08:21:37Z</time>
      </trkpt>
      <trkpt lat="43.219711" lon="-4.897415">
        <ele>436.326</ele>
        <time>2021-08-03T08:21:40Z</time>
      </trkpt>
      <trkpt lat="43.219753" lon="-4.897378">
        <ele>438.008</ele>
        <time>2021-08-03T08:21:43Z</time>
      </trkpt>
      <trkpt lat="43.219798" lon="-4.897339">
        <ele>439.925</ele>
        <time>2021-08-03T08:21:47Z</time>
      </trkpt>
      <trkpt lat="43.219846" lon="-4.897314">
        <ele>442.327</ele>
        <time>2021-08-03T08:21:53Z</time>
      </trkpt>
      <trkpt lat="43.219893" lon="-4.897292">
        <ele>444.287</ele>
        <time>2021-08-03T08:21:58Z</time>
      </trkpt>
      <trkpt lat="43.219938" lon="-4.897267">
        <ele>445.133</ele>
        <time>2021-08-03T08:22:02Z</time>
      </trkpt>
      <trkpt lat="43.219986" lon="-4.89724">
        <ele>445.373</ele>
        <time>2021-08-03T08:22:08Z</time>
      </trkpt>
      <trkpt lat="43.22002" lon="-4.897194">
        <ele>444.558</ele>
        <time>2021-08-03T08:22:14Z</time>
      </trkpt>
      <trkpt lat="43.220051" lon="-4.897131">
        <ele>443.361</ele>
        <time>2021-08-03T08:22:20Z</time>
      </trkpt>
      <trkpt lat="43.220086" lon="-4.897091">
        <ele>443.456</ele>
        <time>2021-08-03T08:22:24Z</time>
      </trkpt>
      <trkpt lat="43.220126" lon="-4.897049">
        <ele>443.121</ele>
        <time>2021-08-03T08:22:28Z</time>
      </trkpt>
      <trkpt lat="43.220171" lon="-4.897006">
        <ele>442.341</ele>
        <time>2021-08-03T08:22:32Z</time>
      </trkpt>
      <trkpt lat="43.220209" lon="-4.896958">
        <ele>439.705</ele>
        <time>2021-08-03T08:22:36Z</time>
      </trkpt>
      <trkpt lat="43.220254" lon="-4.896913">
        <ele>438.908</ele>
        <time>2021-08-03T08:22:41Z</time>
      </trkpt>
      <trkpt lat="43.220298" lon="-4.896895">
        <ele>441.229</ele>
        <time>2021-08-03T08:22:45Z</time>
      </trkpt>
      <trkpt lat="43.220345" lon="-4.896873">
        <ele>444.771</ele>
        <time>2021-08-03T08:22:50Z</time>
      </trkpt>
      <trkpt lat="43.220376" lon="-4.896825">
        <ele>443.131</ele>
        <time>2021-08-03T08:22:57Z</time>
      </trkpt>
      <trkpt lat="43.220422" lon="-4.896805">
        <ele>444.957</ele>
        <time>2021-08-03T08:23:04Z</time>
      </trkpt>
      <trkpt lat="43.220467" lon="-4.896797">
        <ele>447.517</ele>
        <time>2021-08-03T08:23:15Z</time>
      </trkpt>
      <trkpt lat="43.220491" lon="-4.896743">
        <ele>441.422</ele>
        <time>2021-08-03T08:23:23Z</time>
      </trkpt>
      <trkpt lat="43.220526" lon="-4.896693">
        <ele>435.485</ele>
        <time>2021-08-03T08:23:31Z</time>
      </trkpt>
      <trkpt lat="43.220573" lon="-4.896662">
        <ele>432.250</ele>
        <time>2021-08-03T08:23:36Z</time>
      </trkpt>
      <trkpt lat="43.220618" lon="-4.896634">
        <ele>431.922</ele>
        <time>2021-08-03T08:23:40Z</time>
      </trkpt>
      <trkpt lat="43.220674" lon="-4.896603">
        <ele>431.362</ele>
        <time>2021-08-03T08:23:44Z</time>
      </trkpt>
      <trkpt lat="43.220726" lon="-4.896575">
        <ele>430.408</ele>
        <time>2021-08-03T08:23:47Z</time>
      </trkpt>
      <trkpt lat="43.220793" lon="-4.896554">
        <ele>429.608</ele>
        <time>2021-08-03T08:23:50Z</time>
      </trkpt>
      <trkpt lat="43.220847" lon="-4.896546">
        <ele>429.249</ele>
        <time>2021-08-03T08:23:52Z</time>
      </trkpt>
      <trkpt lat="43.220897" lon="-4.896545">
        <ele>429.221</ele>
        <time>2021-08-03T08:23:54Z</time>
      </trkpt>
      <trkpt lat="43.220947" lon="-4.896546">
        <ele>429.461</ele>
        <time>2021-08-03T08:23:56Z</time>
      </trkpt>
      <trkpt lat="43.220994" lon="-4.896547">
        <ele>429.697</ele>
        <time>2021-08-03T08:23:58Z</time>
      </trkpt>
      <trkpt lat="43.221057" lon="-4.896549">
        <ele>429.827</ele>
        <time>2021-08-03T08:24:01Z</time>
      </trkpt>
      <trkpt lat="43.221115" lon="-4.896557">
        <ele>430.512</ele>
        <time>2021-08-03T08:24:04Z</time>
      </trkpt>
      <trkpt lat="43.221164" lon="-4.896564">
        <ele>431.695</ele>
        <time>2021-08-03T08:24:07Z</time>
      </trkpt>
      <trkpt lat="43.221214" lon="-4.896575">
        <ele>433.050</ele>
        <time>2021-08-03T08:24:10Z</time>
      </trkpt>
      <trkpt lat="43.221259" lon="-4.896582">
        <ele>434.168</ele>
        <time>2021-08-03T08:24:13Z</time>
      </trkpt>
      <trkpt lat="43.221316" lon="-4.89659">
        <ele>435.642</ele>
        <time>2021-08-03T08:24:17Z</time>
      </trkpt>
      <trkpt lat="43.221365" lon="-4.896606">
        <ele>437.726</ele>
        <time>2021-08-03T08:24:21Z</time>
      </trkpt>
      <trkpt lat="43.221412" lon="-4.896615">
        <ele>439.008</ele>
        <time>2021-08-03T08:24:26Z</time>
      </trkpt>
      <trkpt lat="43.221462" lon="-4.896619">
        <ele>439.523</ele>
        <time>2021-08-03T08:24:34Z</time>
      </trkpt>
      <trkpt lat="43.2215" lon="-4.896577">
        <ele>435.415</ele>
        <time>2021-08-03T08:24:41Z</time>
      </trkpt>
      <trkpt lat="43.221515" lon="-4.896512">
        <ele>428.965</ele>
        <time>2021-08-03T08:24:45Z</time>
      </trkpt>
      <trkpt lat="43.221534" lon="-4.896436">
        <ele>421.211</ele>
        <time>2021-08-03T08:24:49Z</time>
      </trkpt>
      <trkpt lat="43.221539" lon="-4.89637">
        <ele>417.911</ele>
        <time>2021-08-03T08:24:52Z</time>
      </trkpt>
      <trkpt lat="43.221574" lon="-4.896323">
        <ele>421.656</ele>
        <time>2021-08-03T08:24:57Z</time>
      </trkpt>
      <trkpt lat="43.221608" lon="-4.896268">
        <ele>426.429</ele>
        <time>2021-08-03T08:25:00Z</time>
      </trkpt>
      <trkpt lat="43.221647" lon="-4.896211">
        <ele>431.724</ele>
        <time>2021-08-03T08:25:03Z</time>
      </trkpt>
      <trkpt lat="43.221685" lon="-4.896157">
        <ele>436.978</ele>
        <time>2021-08-03T08:25:06Z</time>
      </trkpt>
      <trkpt lat="43.221719" lon="-4.896091">
        <ele>443.433</ele>
        <time>2021-08-03T08:25:08Z</time>
      </trkpt>
      <trkpt lat="43.221752" lon="-4.896025">
        <ele>451.526</ele>
        <time>2021-08-03T08:25:11Z</time>
      </trkpt>
      <trkpt lat="43.221794" lon="-4.895976">
        <ele>457.208</ele>
        <time>2021-08-03T08:25:16Z</time>
      </trkpt>
      <trkpt lat="43.221734" lon="-4.895984">
        <ele>456.884</ele>
        <time>2021-08-03T08:25:29Z</time>
      </trkpt>
      <trkpt lat="43.221717" lon="-4.896048">
        <ele>448.826</ele>
        <time>2021-08-03T08:25:32Z</time>
      </trkpt>
      <trkpt lat="43.221739" lon="-4.896106">
        <ele>441.416</ele>
        <time>2021-08-03T08:25:35Z</time>
      </trkpt>
      <trkpt lat="43.221768" lon="-4.896164">
        <ele>436.442</ele>
        <time>2021-08-03T08:25:37Z</time>
      </trkpt>
      <trkpt lat="43.221806" lon="-4.896215">
        <ele>432.562</ele>
        <time>2021-08-03T08:25:40Z</time>
      </trkpt>
      <trkpt lat="43.221852" lon="-4.896226">
        <ele>431.957</ele>
        <time>2021-08-03T08:25:46Z</time>
      </trkpt>
      <trkpt lat="43.221903" lon="-4.896217">
        <ele>432.990</ele>
        <time>2021-08-03T08:25:50Z</time>
      </trkpt>
      <trkpt lat="43.221962" lon="-4.896217">
        <ele>432.695</ele>
        <time>2021-08-03T08:25:52Z</time>
      </trkpt>
      <trkpt lat="43.222022" lon="-4.89623">
        <ele>430.126</ele>
        <time>2021-08-03T08:25:54Z</time>
      </trkpt>
      <trkpt lat="43.222069" lon="-4.896233">
        <ele>428.747</ele>
        <time>2021-08-03T08:25:57Z</time>
      </trkpt>
      <trkpt lat="43.222129" lon="-4.896238">
        <ele>426.811</ele>
        <time>2021-08-03T08:26:00Z</time>
      </trkpt>
      <trkpt lat="43.222202" lon="-4.89625">
        <ele>424.508</ele>
        <time>2021-08-03T08:26:02Z</time>
      </trkpt>
      <trkpt lat="43.222251" lon="-4.896261">
        <ele>423.599</ele>
        <time>2021-08-03T08:26:04Z</time>
      </trkpt>
      <trkpt lat="43.2223" lon="-4.896293">
        <ele>422.511</ele>
        <time>2021-08-03T08:26:08Z</time>
      </trkpt>
      <trkpt lat="43.222331" lon="-4.896339">
        <ele>421.241</ele>
        <time>2021-08-03T08:26:12Z</time>
      </trkpt>
      <trkpt lat="43.222358" lon="-4.896393">
        <ele>420.367</ele>
        <time>2021-08-03T08:26:16Z</time>
      </trkpt>
      <trkpt lat="43.222387" lon="-4.896443">
        <ele>424.317</ele>
        <time>2021-08-03T08:26:19Z</time>
      </trkpt>
      <trkpt lat="43.222428" lon="-4.896485">
        <ele>427.472</ele>
        <time>2021-08-03T08:26:22Z</time>
      </trkpt>
      <trkpt lat="43.222459" lon="-4.896536">
        <ele>431.065</ele>
        <time>2021-08-03T08:26:29Z</time>
      </trkpt>
      <trkpt lat="43.222507" lon="-4.896513">
        <ele>429.050</ele>
        <time>2021-08-03T08:26:46Z</time>
      </trkpt>
      <trkpt lat="43.222563" lon="-4.896521">
        <ele>430.167</ele>
        <time>2021-08-03T08:26:50Z</time>
      </trkpt>
      <trkpt lat="43.222626" lon="-4.896529">
        <ele>431.281</ele>
        <time>2021-08-03T08:26:54Z</time>
      </trkpt>
      <trkpt lat="43.222673" lon="-4.896537">
        <ele>432.219</ele>
        <time>2021-08-03T08:26:56Z</time>
      </trkpt>
      <trkpt lat="43.222737" lon="-4.896543">
        <ele>433.208</ele>
        <time>2021-08-03T08:26:59Z</time>
      </trkpt>
      <trkpt lat="43.222787" lon="-4.896548">
        <ele>434.053</ele>
        <time>2021-08-03T08:27:02Z</time>
      </trkpt>
      <trkpt lat="43.222833" lon="-4.896553">
        <ele>435.145</ele>
        <time>2021-08-03T08:27:05Z</time>
      </trkpt>
      <trkpt lat="43.222889" lon="-4.896564">
        <ele>436.875</ele>
        <time>2021-08-03T08:27:09Z</time>
      </trkpt>
      <trkpt lat="43.222938" lon="-4.896571">
        <ele>438.321</ele>
        <time>2021-08-03T08:27:14Z</time>
      </trkpt>
      <trkpt lat="43.222985" lon="-4.896573">
        <ele>439.371</ele>
        <time>2021-08-03T08:27:19Z</time>
      </trkpt>
      <trkpt lat="43.223005" lon="-4.896515">
        <ele>434.176</ele>
        <time>2021-08-03T08:27:30Z</time>
      </trkpt>
      <trkpt lat="43.223053" lon="-4.896521">
        <ele>435.389</ele>
        <time>2021-08-03T08:27:35Z</time>
      </trkpt>
      <trkpt lat="43.223106" lon="-4.896528">
        <ele>435.844</ele>
        <time>2021-08-03T08:27:40Z</time>
      </trkpt>
      <trkpt lat="43.223926" lon="-4.89604">
        <ele>456.283</ele>
        <time>2021-08-03T08:29:03Z</time>
      </trkpt>
      <trkpt lat="43.22396" lon="-4.895981">
        <ele>465.325</ele>
        <time>2021-08-03T08:29:06Z</time>
      </trkpt>
      <trkpt lat="43.224006" lon="-4.895925">
        <ele>473.117</ele>
        <time>2021-08-03T08:29:09Z</time>
      </trkpt>
      <trkpt lat="43.224054" lon="-4.89592">
        <ele>474.308</ele>
        <time>2021-08-03T08:29:20Z</time>
      </trkpt>
      <trkpt lat="43.224068" lon="-4.895985">
        <ele>468.185</ele>
        <time>2021-08-03T08:29:26Z</time>
      </trkpt>
      <trkpt lat="43.224034" lon="-4.896096">
        <ele>455.067</ele>
        <time>2021-08-03T08:29:29Z</time>
      </trkpt>
      <trkpt lat="43.223996" lon="-4.896211">
        <ele>434.517</ele>
        <time>2021-08-03T08:29:31Z</time>
      </trkpt>
      <trkpt lat="43.223948" lon="-4.896345">
        <ele>411.513</ele>
        <time>2021-08-03T08:29:33Z</time>
      </trkpt>
      <trkpt lat="43.223913" lon="-4.896459">
        <ele>406.553</ele>
        <time>2021-08-03T08:29:35Z</time>
      </trkpt>
      <trkpt lat="43.223881" lon="-4.896573">
        <ele>410.138</ele>
        <time>2021-08-03T08:29:37Z</time>
      </trkpt>
      <trkpt lat="43.223861" lon="-4.896657">
        <ele>413.131</ele>
        <time>2021-08-03T08:29:39Z</time>
      </trkpt>
      <trkpt lat="43.223847" lon="-4.896718">
        <ele>419.036</ele>
        <time>2021-08-03T08:29:42Z</time>
      </trkpt>
      <trkpt lat="43.223823" lon="-4.896782">
        <ele>426.162</ele>
        <time>2021-08-03T08:29:46Z</time>
      </trkpt>
      <trkpt lat="43.223792" lon="-4.896842">
        <ele>432.983</ele>
        <time>2021-08-03T08:29:51Z</time>
      </trkpt>
      <trkpt lat="43.223812" lon="-4.896784">
        <ele>426.511</ele>
        <time>2021-08-03T08:30:05Z</time>
      </trkpt>
      <trkpt lat="43.223821" lon="-4.896674">
        <ele>414.808</ele>
        <time>2021-08-03T08:30:09Z</time>
      </trkpt>
      <trkpt lat="43.223822" lon="-4.896611">
        <ele>412.243</ele>
        <time>2021-08-03T08:30:12Z</time>
      </trkpt>
      <trkpt lat="43.223823" lon="-4.896537">
        <ele>409.975</ele>
        <time>2021-08-03T08:30:15Z</time>
      </trkpt>
      <trkpt lat="43.223818" lon="-4.896471">
        <ele>407.975</ele>
        <time>2021-08-03T08:30:17Z</time>
      </trkpt>
      <trkpt lat="43.223803" lon="-4.896411">
        <ele>406.221</ele>
        <time>2021-08-03T08:30:19Z</time>
      </trkpt>
      <trkpt lat="43.223774" lon="-4.89628">
        <ele>418.061</ele>
        <time>2021-08-03T08:30:21Z</time>
      </trkpt>
      <trkpt lat="43.223712" lon="-4.895911">
        <ele>461.226</ele>
        <time>2021-08-03T08:30:23Z</time>
      </trkpt>
      <trkpt lat="43.223702" lon="-4.895741">
        <ele>482.839</ele>
        <time>2021-08-03T08:30:25Z</time>
      </trkpt>
      <trkpt lat="43.223703" lon="-4.895627">
        <ele>496.614</ele>
        <time>2021-08-03T08:30:27Z</time>
      </trkpt>
      <trkpt lat="43.223707" lon="-4.895505">
        <ele>510.535</ele>
        <time>2021-08-03T08:30:29Z</time>
      </trkpt>
      <trkpt lat="43.22372" lon="-4.895406">
        <ele>521.286</ele>
        <time>2021-08-03T08:30:31Z</time>
      </trkpt>
      <trkpt lat="43.223754" lon="-4.895338">
        <ele>531.214</ele>
        <time>2021-08-03T08:30:33Z</time>
      </trkpt>
      <trkpt lat="43.223804" lon="-4.895288">
        <ele>541.908</ele>
        <time>2021-08-03T08:30:36Z</time>
      </trkpt>
      <trkpt lat="43.223853" lon="-4.895259">
        <ele>549.770</ele>
        <time>2021-08-03T08:30:41Z</time>
      </trkpt>
      <trkpt lat="43.223914" lon="-4.895243">
        <ele>553.582</ele>
        <time>2021-08-03T08:30:44Z</time>
      </trkpt>
      <trkpt lat="43.223982" lon="-4.895241">
        <ele>551.382</ele>
        <time>2021-08-03T08:30:46Z</time>
      </trkpt>
      <trkpt lat="43.224058" lon="-4.895241">
        <ele>548.788</ele>
        <time>2021-08-03T08:30:48Z</time>
      </trkpt>
      <trkpt lat="43.224107" lon="-4.895245">
        <ele>546.758</ele>
        <time>2021-08-03T08:30:51Z</time>
      </trkpt>
      <trkpt lat="43.224126" lon="-4.895304">
        <ele>539.683</ele>
        <time>2021-08-03T08:30:59Z</time>
      </trkpt>
      <trkpt lat="43.224118" lon="-4.895382">
        <ele>528.486</ele>
        <time>2021-08-03T08:31:02Z</time>
      </trkpt>
      <trkpt lat="43.224118" lon="-4.895444">
        <ele>519.391</ele>
        <time>2021-08-03T08:31:06Z</time>
      </trkpt>
      <trkpt lat="43.22413" lon="-4.895505">
        <ele>509.958</ele>
        <time>2021-08-03T08:31:09Z</time>
      </trkpt>
      <trkpt lat="43.224681" lon="-4.895891">
        <ele>505.552</ele>
        <time>2021-08-03T08:31:20Z</time>
      </trkpt>
      <trkpt lat="43.224762" lon="-4.89597">
        <ele>499.317</ele>
        <time>2021-08-03T08:31:22Z</time>
      </trkpt>
      <trkpt lat="43.224811" lon="-4.896041">
        <ele>490.708</ele>
        <time>2021-08-03T08:31:24Z</time>
      </trkpt>
      <trkpt lat="43.224891" lon="-4.896175">
        <ele>470.482</ele>
        <time>2021-08-03T08:31:34Z</time>
      </trkpt>
      <trkpt lat="43.224853" lon="-4.896235">
        <ele>462.264</ele>
        <time>2021-08-03T08:31:39Z</time>
      </trkpt>
      <trkpt lat="43.224824" lon="-4.896284">
        <ele>454.944</ele>
        <time>2021-08-03T08:31:44Z</time>
      </trkpt>
      <trkpt lat="43.224792" lon="-4.896334">
        <ele>447.060</ele>
        <time>2021-08-03T08:31:49Z</time>
      </trkpt>
      <trkpt lat="43.224751" lon="-4.896381">
        <ele>439.290</ele>
        <time>2021-08-03T08:31:52Z</time>
      </trkpt>
      <trkpt lat="43.224709" lon="-4.896428">
        <ele>434.025</ele>
        <time>2021-08-03T08:31:55Z</time>
      </trkpt>
      <trkpt lat="43.224671" lon="-4.89648">
        <ele>428.048</ele>
        <time>2021-08-03T08:31:59Z</time>
      </trkpt>
      <trkpt lat="43.224658" lon="-4.896548">
        <ele>421.513</ele>
        <time>2021-08-03T08:32:04Z</time>
      </trkpt>
      <trkpt lat="43.224672" lon="-4.896612">
        <ele>416.336</ele>
        <time>2021-08-03T08:32:08Z</time>
      </trkpt>
      <trkpt lat="43.224698" lon="-4.896666">
        <ele>412.317</ele>
        <time>2021-08-03T08:32:12Z</time>
      </trkpt>
      <trkpt lat="43.224703" lon="-4.89673">
        <ele>425.418</ele>
        <time>2021-08-03T08:32:21Z</time>
      </trkpt>
      <trkpt lat="43.224724" lon="-4.896785">
        <ele>437.208</ele>
        <time>2021-08-03T08:32:32Z</time>
      </trkpt>
      <trkpt lat="43.224771" lon="-4.89683">
        <ele>445.210</ele>
        <time>2021-08-03T08:32:38Z</time>
      </trkpt>
      <trkpt lat="43.22482" lon="-4.896869">
        <ele>452.032</ele>
        <time>2021-08-03T08:32:41Z</time>
      </trkpt>
      <trkpt lat="43.224876" lon="-4.896906">
        <ele>458.262</ele>
        <time>2021-08-03T08:32:43Z</time>
      </trkpt>
      <trkpt lat="43.224976" lon="-4.896967">
        <ele>466.718</ele>
        <time>2021-08-03T08:32:45Z</time>
      </trkpt>
      <trkpt lat="43.22503" lon="-4.897">
        <ele>469.038</ele>
        <time>2021-08-03T08:32:47Z</time>
      </trkpt>
      <trkpt lat="43.225046" lon="-4.896935">
        <ele>458.533</ele>
        <time>2021-08-03T08:33:09Z</time>
      </trkpt>
      <trkpt lat="43.225076" lon="-4.896887">
        <ele>447.546</ele>
        <time>2021-08-03T08:33:13Z</time>
      </trkpt>
      <trkpt lat="43.22512" lon="-4.896859">
        <ele>440.251</ele>
        <time>2021-08-03T08:33:17Z</time>
      </trkpt>
      <trkpt lat="43.225167" lon="-4.896863">
        <ele>439.037</ele>
        <time>2021-08-03T08:33:22Z</time>
      </trkpt>
      <trkpt lat="43.22522" lon="-4.896886">
        <ele>440.649</ele>
        <time>2021-08-03T08:33:27Z</time>
      </trkpt>
      <trkpt lat="43.225281" lon="-4.896909">
        <ele>441.613</ele>
        <time>2021-08-03T08:33:30Z</time>
      </trkpt>
      <trkpt lat="43.225325" lon="-4.896928">
        <ele>445.708</ele>
        <time>2021-08-03T08:33:47Z</time>
      </trkpt>
      <trkpt lat="43.225368" lon="-4.896949">
        <ele>449.790</ele>
        <time>2021-08-03T08:33:52Z</time>
      </trkpt>
      <trkpt lat="43.225467" lon="-4.896993">
        <ele>455.962</ele>
        <time>2021-08-03T08:34:00Z</time>
      </trkpt>
      <trkpt lat="43.225553" lon="-4.897051">
        <ele>462.452</ele>
        <time>2021-08-03T08:34:09Z</time>
      </trkpt>
      <trkpt lat="43.225596" lon="-4.897082">
        <ele>468.358</ele>
        <time>2021-08-03T08:34:14Z</time>
      </trkpt>
      <trkpt lat="43.225649" lon="-4.89712">
        <ele>475.758</ele>
        <time>2021-08-03T08:34:20Z</time>
      </trkpt>
      <trkpt lat="43.225702" lon="-4.897121">
        <ele>480.253</ele>
        <time>2021-08-03T08:34:24Z</time>
      </trkpt>
      <trkpt lat="43.225744" lon="-4.897089">
        <ele>481.466</ele>
        <time>2021-08-03T08:34:32Z</time>
      </trkpt>
      <trkpt lat="43.225779" lon="-4.897029">
        <ele>480.181</ele>
        <time>2021-08-03T08:34:37Z</time>
      </trkpt>
      <trkpt lat="43.225826" lon="-4.897027">
        <ele>484.028</ele>
        <time>2021-08-03T08:34:42Z</time>
      </trkpt>
      <trkpt lat="43.225872" lon="-4.897058">
        <ele>489.889</ele>
        <time>2021-08-03T08:34:46Z</time>
      </trkpt>
      <trkpt lat="43.225824" lon="-4.896983">
        <ele>480.817</ele>
        <time>2021-08-03T08:35:01Z</time>
      </trkpt>
      <trkpt lat="43.225776" lon="-4.896901">
        <ele>469.808</ele>
        <time>2021-08-03T08:35:03Z</time>
      </trkpt>
      <trkpt lat="43.225745" lon="-4.896852">
        <ele>462.179</ele>
        <time>2021-08-03T08:35:07Z</time>
      </trkpt>
      <trkpt lat="43.225763" lon="-4.896788">
        <ele>457.941</ele>
        <time>2021-08-03T08:35:14Z</time>
      </trkpt>
      <trkpt lat="43.225822" lon="-4.896771">
        <ele>462.811</ele>
        <time>2021-08-03T08:35:19Z</time>
      </trkpt>
      <trkpt lat="43.225902" lon="-4.896758">
        <ele>468.747</ele>
        <time>2021-08-03T08:35:21Z</time>
      </trkpt>
      <trkpt lat="43.226055" lon="-4.896728">
        <ele>479.137</ele>
        <time>2021-08-03T08:35:23Z</time>
      </trkpt>
      <trkpt lat="43.226177" lon="-4.896697">
        <ele>483.862</ele>
        <time>2021-08-03T08:35:25Z</time>
      </trkpt>
      <trkpt lat="43.226235" lon="-4.896678">
        <ele>484.495</ele>
        <time>2021-08-03T08:35:27Z</time>
      </trkpt>
      <trkpt lat="43.226265" lon="-4.896631">
        <ele>481.310</ele>
        <time>2021-08-03T08:35:35Z</time>
      </trkpt>
      <trkpt lat="43.226272" lon="-4.896564">
        <ele>475.314</ele>
        <time>2021-08-03T08:35:43Z</time>
      </trkpt>
      <trkpt lat="43.226314" lon="-4.896517">
        <ele>471.854</ele>
        <time>2021-08-03T08:35:47Z</time>
      </trkpt>
      <trkpt lat="43.226364" lon="-4.896479">
        <ele>469.009</ele>
        <time>2021-08-03T08:35:50Z</time>
      </trkpt>
      <trkpt lat="43.226406" lon="-4.89645">
        <ele>469.708</ele>
        <time>2021-08-03T08:35:54Z</time>
      </trkpt>
      <trkpt lat="43.22645" lon="-4.896417">
        <ele>475.828</ele>
        <time>2021-08-03T08:35:58Z</time>
      </trkpt>
      <trkpt lat="43.226491" lon="-4.896374">
        <ele>482.030</ele>
        <time>2021-08-03T08:36:03Z</time>
      </trkpt>
      <trkpt lat="43.226522" lon="-4.896301">
        <ele>484.980</ele>
        <time>2021-08-03T08:36:07Z</time>
      </trkpt>
      <trkpt lat="43.226566" lon="-4.8962">
        <ele>488.156</ele>
        <time>2021-08-03T08:36:09Z</time>
      </trkpt>
      <trkpt lat="43.226612" lon="-4.896109">
        <ele>491.446</ele>
        <time>2021-08-03T08:36:11Z</time>
      </trkpt>
      <trkpt lat="43.226642" lon="-4.896042">
        <ele>491.091</ele>
        <time>2021-08-03T08:36:13Z</time>
      </trkpt>
      <trkpt lat="43.226677" lon="-4.895958">
        <ele>488.664</ele>
        <time>2021-08-03T08:36:16Z</time>
      </trkpt>
      <trkpt lat="43.226715" lon="-4.89587">
        <ele>483.419</ele>
        <time>2021-08-03T08:36:18Z</time>
      </trkpt>
      <trkpt lat="43.226739" lon="-4.895813">
        <ele>478.418</ele>
        <time>2021-08-03T08:36:20Z</time>
      </trkpt>
      <trkpt lat="43.226783" lon="-4.895728">
        <ele>468.198</ele>
        <time>2021-08-03T08:36:23Z</time>
      </trkpt>
      <trkpt lat="43.226808" lon="-4.895677">
        <ele>461.917</ele>
        <time>2021-08-03T08:36:26Z</time>
      </trkpt>
      <trkpt lat="43.226832" lon="-4.895621">
        <ele>454.808</ele>
        <time>2021-08-03T08:36:31Z</time>
      </trkpt>
      <trkpt lat="43.226867" lon="-4.895572">
        <ele>449.968</ele>
        <time>2021-08-03T08:36:35Z</time>
      </trkpt>
      <trkpt lat="43.226914" lon="-4.895543">
        <ele>450.250</ele>
        <time>2021-08-03T08:36:40Z</time>
      </trkpt>
      <trkpt lat="43.226962" lon="-4.895535">
        <ele>453.710</ele>
        <time>2021-08-03T08:36:43Z</time>
      </trkpt>
      <trkpt lat="43.227011" lon="-4.895536">
        <ele>459.156</ele>
        <time>2021-08-03T08:36:47Z</time>
      </trkpt>
      <trkpt lat="43.227056" lon="-4.895521">
        <ele>462.576</ele>
        <time>2021-08-03T08:36:52Z</time>
      </trkpt>
      <trkpt lat="43.227068" lon="-4.89546">
        <ele>458.341</ele>
        <time>2021-08-03T08:37:02Z</time>
      </trkpt>
      <trkpt lat="43.227094" lon="-4.895406">
        <ele>456.684</ele>
        <time>2021-08-03T08:37:08Z</time>
      </trkpt>
      <trkpt lat="43.227142" lon="-4.895371">
        <ele>459.639</ele>
        <time>2021-08-03T08:37:11Z</time>
      </trkpt>
      <trkpt lat="43.227188" lon="-4.895372">
        <ele>465.579</ele>
        <time>2021-08-03T08:37:15Z</time>
      </trkpt>
      <trkpt lat="43.227205" lon="-4.895307">
        <ele>462.805</ele>
        <time>2021-08-03T08:37:20Z</time>
      </trkpt>
      <trkpt lat="43.227213" lon="-4.895241">
        <ele>457.825</ele>
        <time>2021-08-03T08:37:23Z</time>
      </trkpt>
      <trkpt lat="43.227228" lon="-4.895176">
        <ele>451.708</ele>
        <time>2021-08-03T08:37:26Z</time>
      </trkpt>
      <trkpt lat="43.227247" lon="-4.895104">
        <ele>444.244</ele>
        <time>2021-08-03T08:37:29Z</time>
      </trkpt>
      <trkpt lat="43.227264" lon="-4.895031">
        <ele>436.896</ele>
        <time>2021-08-03T08:37:32Z</time>
      </trkpt>
      <trkpt lat="43.227295" lon="-4.894971">
        <ele>432.886</ele>
        <time>2021-08-03T08:37:36Z</time>
      </trkpt>
      <trkpt lat="43.227343" lon="-4.894937">
        <ele>432.332</ele>
        <time>2021-08-03T08:37:41Z</time>
      </trkpt>
      <trkpt lat="43.227382" lon="-4.894888">
        <ele>430.422</ele>
        <time>2021-08-03T08:37:45Z</time>
      </trkpt>
      <trkpt lat="43.227382" lon="-4.894819">
        <ele>425.927</ele>
        <time>2021-08-03T08:37:49Z</time>
      </trkpt>
      <trkpt lat="43.227367" lon="-4.894754">
        <ele>421.210</ele>
        <time>2021-08-03T08:37:54Z</time>
      </trkpt>
      <trkpt lat="43.227406" lon="-4.894718">
        <ele>420.135</ele>
        <time>2021-08-03T08:38:04Z</time>
      </trkpt>
      <trkpt lat="43.227457" lon="-4.894717">
        <ele>421.418</ele>
        <time>2021-08-03T08:38:08Z</time>
      </trkpt>
      <trkpt lat="43.227494" lon="-4.894759">
        <ele>425.398</ele>
        <time>2021-08-03T08:38:10Z</time>
      </trkpt>
      <trkpt lat="43.227539" lon="-4.894751">
        <ele>424.917</ele>
        <time>2021-08-03T08:38:15Z</time>
      </trkpt>
      <trkpt lat="43.227587" lon="-4.894741">
        <ele>424.008</ele>
        <time>2021-08-03T08:38:23Z</time>
      </trkpt>
      <trkpt lat="43.227633" lon="-4.894751">
        <ele>424.618</ele>
        <time>2021-08-03T08:38:31Z</time>
      </trkpt>
      <trkpt lat="43.227662" lon="-4.894804">
        <ele>428.550</ele>
        <time>2021-08-03T08:39:23Z</time>
      </trkpt>
      <trkpt lat="43.227634" lon="-4.894852">
        <ele>432.150</ele>
        <time>2021-08-03T08:39:38Z</time>
      </trkpt>
      <trkpt lat="43.227668" lon="-4.894909">
        <ele>436.436</ele>
        <time>2021-08-03T08:40:00Z</time>
      </trkpt>
      <trkpt lat="43.227704" lon="-4.894949">
        <ele>439.696</ele>
        <time>2021-08-03T08:40:08Z</time>
      </trkpt>
      <trkpt lat="43.227747" lon="-4.894971">
        <ele>441.541</ele>
        <time>2021-08-03T08:40:44Z</time>
      </trkpt>
      <trkpt lat="43.227728" lon="-4.895029">
        <ele>445.714</ele>
        <time>2021-08-03T08:40:58Z</time>
      </trkpt>
      <trkpt lat="43.227735" lon="-4.895093">
        <ele>450.299</ele>
        <time>2021-08-03T08:41:26Z</time>
      </trkpt>
      <trkpt lat="43.227785" lon="-4.895115">
        <ele>451.512</ele>
        <time>2021-08-03T08:41:36Z</time>
      </trkpt>
      <trkpt lat="43.227823" lon="-4.895166">
        <ele>453.032</ele>
        <time>2021-08-03T08:42:08Z</time>
      </trkpt>
      <trkpt lat="43.22783" lon="-4.895229">
        <ele>456.905</ele>
        <time>2021-08-03T08:42:24Z</time>
      </trkpt>
      <trkpt lat="43.227803" lon="-4.895279">
        <ele>461.708</ele>
        <time>2021-08-03T08:43:00Z</time>
      </trkpt>
      <trkpt lat="43.227778" lon="-4.895331">
        <ele>465.978</ele>
        <time>2021-08-03T08:43:09Z</time>
      </trkpt>
      <trkpt lat="43.227766" lon="-4.895394">
        <ele>469.380</ele>
        <time>2021-08-03T08:43:19Z</time>
      </trkpt>
      <trkpt lat="43.227756" lon="-4.895455">
        <ele>472.730</ele>
        <time>2021-08-03T08:45:00Z</time>
      </trkpt>
      <trkpt lat="43.227728" lon="-4.895507">
        <ele>475.716</ele>
        <time>2021-08-03T08:45:13Z</time>
      </trkpt>
      <trkpt lat="43.227697" lon="-4.895554">
        <ele>478.516</ele>
        <time>2021-08-03T08:45:24Z</time>
      </trkpt>
      <trkpt lat="43.227717" lon="-4.89561">
        <ele>481.971</ele>
        <time>2021-08-03T08:45:39Z</time>
      </trkpt>
      <trkpt lat="43.227744" lon="-4.895661">
        <ele>485.034</ele>
        <time>2021-08-03T08:45:51Z</time>
      </trkpt>
      <trkpt lat="43.227726" lon="-4.895718">
        <ele>488.829</ele>
        <time>2021-08-03T08:46:19Z</time>
      </trkpt>
      <trkpt lat="43.227704" lon="-4.895775">
        <ele>492.521</ele>
        <time>2021-08-03T08:46:38Z</time>
      </trkpt>
      <trkpt lat="43.227688" lon="-4.895837">
        <ele>496.541</ele>
        <time>2021-08-03T08:47:03Z</time>
      </trkpt>
      <trkpt lat="43.227658" lon="-4.895884">
        <ele>499.405</ele>
        <time>2021-08-03T08:47:19Z</time>
      </trkpt>
      <trkpt lat="43.22763" lon="-4.895935">
        <ele>502.408</ele>
        <time>2021-08-03T08:47:35Z</time>
      </trkpt>
      <trkpt lat="43.227593" lon="-4.895973">
        <ele>504.549</ele>
        <time>2021-08-03T08:47:46Z</time>
      </trkpt>
      <trkpt lat="43.227547" lon="-4.895972">
        <ele>504.571</ele>
        <time>2021-08-03T08:47:58Z</time>
      </trkpt>
      <trkpt lat="43.227503" lon="-4.895999">
        <ele>505.951</ele>
        <time>2021-08-03T08:48:30Z</time>
      </trkpt>
      <trkpt lat="43.227475" lon="-4.896048">
        <ele>509.847</ele>
        <time>2021-08-03T08:48:46Z</time>
      </trkpt>
      <trkpt lat="43.227478" lon="-4.896111">
        <ele>513.287</ele>
        <time>2021-08-03T08:49:17Z</time>
      </trkpt>
      <trkpt lat="43.22751" lon="-4.896154">
        <ele>514.552</ele>
        <time>2021-08-03T08:49:30Z</time>
      </trkpt>
      <trkpt lat="43.227533" lon="-4.896208">
        <ele>517.785</ele>
        <time>2021-08-03T08:49:45Z</time>
      </trkpt>
      <trkpt lat="43.227557" lon="-4.896263">
        <ele>521.170</ele>
        <time>2021-08-03T08:50:01Z</time>
      </trkpt>
      <trkpt lat="43.227514" lon="-4.896294">
        <ele>522.672</ele>
        <time>2021-08-03T08:50:14Z</time>
      </trkpt>
      <trkpt lat="43.227474" lon="-4.896322">
        <ele>525.313</ele>
        <time>2021-08-03T08:50:30Z</time>
      </trkpt>
      <trkpt lat="43.227436" lon="-4.896373">
        <ele>529.914</ele>
        <time>2021-08-03T08:50:47Z</time>
      </trkpt>
      <trkpt lat="43.22741" lon="-4.896445">
        <ele>534.708</ele>
        <time>2021-08-03T08:50:49Z</time>
      </trkpt>
      <trkpt lat="43.227389" lon="-4.896501">
        <ele>538.164</ele>
        <time>2021-08-03T08:50:53Z</time>
      </trkpt>
      <trkpt lat="43.227369" lon="-4.896443">
        <ele>536.126</ele>
        <time>2021-08-03T08:51:05Z</time>
      </trkpt>
      <trkpt lat="43.227365" lon="-4.896378">
        <ele>533.366</ele>
        <time>2021-08-03T08:51:32Z</time>
      </trkpt>
      <trkpt lat="43.227337" lon="-4.896326">
        <ele>531.892</ele>
        <time>2021-08-03T08:51:39Z</time>
      </trkpt>
      <trkpt lat="43.227307" lon="-4.896278">
        <ele>530.832</ele>
        <time>2021-08-03T08:51:59Z</time>
      </trkpt>
      <trkpt lat="43.227284" lon="-4.896334">
        <ele>534.687</ele>
        <time>2021-08-03T08:52:31Z</time>
      </trkpt>
      <trkpt lat="43.227253" lon="-4.896385">
        <ele>538.550</ele>
        <time>2021-08-03T08:52:39Z</time>
      </trkpt>
      <trkpt lat="43.227244" lon="-4.896448">
        <ele>541.115</ele>
        <time>2021-08-03T08:52:45Z</time>
      </trkpt>
      <trkpt lat="43.227262" lon="-4.896507">
        <ele>542.555</ele>
        <time>2021-08-03T08:52:58Z</time>
      </trkpt>
      <trkpt lat="43.227219" lon="-4.896537">
        <ele>544.907</ele>
        <time>2021-08-03T08:53:08Z</time>
      </trkpt>
      <trkpt lat="43.227172" lon="-4.89652">
        <ele>545.217</ele>
        <time>2021-08-03T08:53:22Z</time>
      </trkpt>
      <trkpt lat="43.227108" lon="-4.896557">
        <ele>547.808</ele>
        <time>2021-08-03T08:53:42Z</time>
      </trkpt>
      <trkpt lat="43.227065" lon="-4.896538">
        <ele>548.032</ele>
        <time>2021-08-03T08:54:00Z</time>
      </trkpt>
      <trkpt lat="43.227053" lon="-4.8966">
        <ele>550.374</ele>
        <time>2021-08-03T08:54:14Z</time>
      </trkpt>
      <trkpt lat="43.227082" lon="-4.89665">
        <ele>551.524</ele>
        <time>2021-08-03T08:54:25Z</time>
      </trkpt>
      <trkpt lat="43.227067" lon="-4.89671">
        <ele>553.240</ele>
        <time>2021-08-03T08:54:53Z</time>
      </trkpt>
      <trkpt lat="43.227048" lon="-4.896769">
        <ele>554.330</ele>
        <time>2021-08-03T08:55:20Z</time>
      </trkpt>
      <trkpt lat="43.227037" lon="-4.896841">
        <ele>555.135</ele>
        <time>2021-08-03T08:55:59Z</time>
      </trkpt>
      <trkpt lat="43.227039" lon="-4.896907">
        <ele>556.048</ele>
        <time>2021-08-03T08:56:08Z</time>
      </trkpt>
      <trkpt lat="43.227065" lon="-4.896959">
        <ele>558.293</ele>
        <time>2021-08-03T08:56:16Z</time>
      </trkpt>
      <trkpt lat="43.227104" lon="-4.896992">
        <ele>561.622</ele>
        <time>2021-08-03T08:56:25Z</time>
      </trkpt>
      <trkpt lat="43.227147" lon="-4.896974">
        <ele>563.062</ele>
        <time>2021-08-03T08:56:50Z</time>
      </trkpt>
      <trkpt lat="43.227174" lon="-4.897026">
        <ele>567.008</ele>
        <time>2021-08-03T08:57:33Z</time>
      </trkpt>
      <trkpt lat="43.227186" lon="-4.897091">
        <ele>571.208</ele>
        <time>2021-08-03T08:57:46Z</time>
      </trkpt>
      <trkpt lat="43.227219" lon="-4.897141">
        <ele>576.199</ele>
        <time>2021-08-03T08:58:21Z</time>
      </trkpt>
      <trkpt lat="43.227211" lon="-4.897204">
        <ele>579.161</ele>
        <time>2021-08-03T08:58:34Z</time>
      </trkpt>
      <trkpt lat="43.227188" lon="-4.897268">
        <ele>580.181</ele>
        <time>2021-08-03T08:59:02Z</time>
      </trkpt>
      <trkpt lat="43.227191" lon="-4.897331">
        <ele>582.627</ele>
        <time>2021-08-03T08:59:58Z</time>
      </trkpt>
      <trkpt lat="43.227162" lon="-4.897384">
        <ele>582.067</ele>
        <time>2021-08-03T09:00:17Z</time>
      </trkpt>
      <trkpt lat="43.227196" lon="-4.897424">
        <ele>586.552</ele>
        <time>2021-08-03T09:00:58Z</time>
      </trkpt>
      <trkpt lat="43.227241" lon="-4.897439">
        <ele>589.695</ele>
        <time>2021-08-03T09:01:12Z</time>
      </trkpt>
      <trkpt lat="43.227287" lon="-4.897454">
        <ele>590.460</ele>
        <time>2021-08-03T09:01:18Z</time>
      </trkpt>
      <trkpt lat="43.227333" lon="-4.897464">
        <ele>591.014</ele>
        <time>2021-08-03T09:01:31Z</time>
      </trkpt>
      <trkpt lat="43.227372" lon="-4.897497">
        <ele>592.954</ele>
        <time>2021-08-03T09:01:46Z</time>
      </trkpt>
      <trkpt lat="43.22745" lon="-4.897486">
        <ele>592.809</ele>
        <time>2021-08-03T09:04:09Z</time>
      </trkpt>
      <trkpt lat="43.227403" lon="-4.897497">
        <ele>593.108</ele>
        <time>2021-08-03T09:04:24Z</time>
      </trkpt>
      <trkpt lat="43.227402" lon="-4.89756">
        <ele>595.848</ele>
        <time>2021-08-03T09:04:30Z</time>
      </trkpt>
      <trkpt lat="43.227403" lon="-4.897623">
        <ele>598.690</ele>
        <time>2021-08-03T09:04:36Z</time>
      </trkpt>
      <trkpt lat="43.227418" lon="-4.897682">
        <ele>601.510</ele>
        <time>2021-08-03T09:04:45Z</time>
      </trkpt>
      <trkpt lat="43.227422" lon="-4.897745">
        <ele>604.476</ele>
        <time>2021-08-03T09:04:58Z</time>
      </trkpt>
      <trkpt lat="43.227417" lon="-4.897807">
        <ele>606.786</ele>
        <time>2021-08-03T09:05:13Z</time>
      </trkpt>
      <trkpt lat="43.227392" lon="-4.897861">
        <ele>607.371</ele>
        <time>2021-08-03T09:05:32Z</time>
      </trkpt>
      <trkpt lat="43.227404" lon="-4.897926">
        <ele>609.924</ele>
        <time>2021-08-03T09:06:36Z</time>
      </trkpt>
      <trkpt lat="43.227429" lon="-4.897982">
        <ele>613.339</ele>
        <time>2021-08-03T09:06:47Z</time>
      </trkpt>
      <trkpt lat="43.227463" lon="-4.898026">
        <ele>617.296</ele>
        <time>2021-08-03T09:07:07Z</time>
      </trkpt>
      <trkpt lat="43.227485" lon="-4.898081">
        <ele>620.631</ele>
        <time>2021-08-03T09:07:19Z</time>
      </trkpt>
      <trkpt lat="43.227487" lon="-4.898146">
        <ele>622.624</ele>
        <time>2021-08-03T09:07:31Z</time>
      </trkpt>
      <trkpt lat="43.227497" lon="-4.898206">
        <ele>625.108</ele>
        <time>2021-08-03T09:07:42Z</time>
      </trkpt>
      <trkpt lat="43.22754" lon="-4.898223">
        <ele>627.126</ele>
        <time>2021-08-03T09:08:08Z</time>
      </trkpt>
      <trkpt lat="43.227574" lon="-4.898268">
        <ele>629.798</ele>
        <time>2021-08-03T09:08:27Z</time>
      </trkpt>
      <trkpt lat="43.227619" lon="-4.898252">
        <ele>630.728</ele>
        <time>2021-08-03T09:08:41Z</time>
      </trkpt>
      <trkpt lat="43.227665" lon="-4.898274">
        <ele>633.214</ele>
        <time>2021-08-03T09:08:51Z</time>
      </trkpt>
      <trkpt lat="43.227715" lon="-4.898285">
        <ele>635.414</ele>
        <time>2021-08-03T09:09:02Z</time>
      </trkpt>
      <trkpt lat="43.227763" lon="-4.898298">
        <ele>637.859</ele>
        <time>2021-08-03T09:09:12Z</time>
      </trkpt>
      <trkpt lat="43.227814" lon="-4.898294">
        <ele>639.172</ele>
        <time>2021-08-03T09:09:17Z</time>
      </trkpt>
      <trkpt lat="43.227835" lon="-4.898352">
        <ele>642.487</ele>
        <time>2021-08-03T09:09:44Z</time>
      </trkpt>
      <trkpt lat="43.227876" lon="-4.898385">
        <ele>645.013</ele>
        <time>2021-08-03T09:09:56Z</time>
      </trkpt>
      <trkpt lat="43.227923" lon="-4.898398">
        <ele>646.843</ele>
        <time>2021-08-03T09:10:33Z</time>
      </trkpt>
      <trkpt lat="43.227954" lon="-4.898446">
        <ele>649.907</ele>
        <time>2021-08-03T09:11:30Z</time>
      </trkpt>
      <trkpt lat="43.227994" lon="-4.898491">
        <ele>653.008</ele>
        <time>2021-08-03T09:12:40Z</time>
      </trkpt>
      <trkpt lat="43.227962" lon="-4.898547">
        <ele>654.978</ele>
        <time>2021-08-03T09:13:02Z</time>
      </trkpt>
      <trkpt lat="43.22795" lon="-4.898607">
        <ele>657.510</ele>
        <time>2021-08-03T09:13:15Z</time>
      </trkpt>
      <trkpt lat="43.22796" lon="-4.89867">
        <ele>660.950</ele>
        <time>2021-08-03T09:13:30Z</time>
      </trkpt>
      <trkpt lat="43.227928" lon="-4.898715">
        <ele>662.536</ele>
        <time>2021-08-03T09:13:54Z</time>
      </trkpt>
      <trkpt lat="43.227936" lon="-4.898777">
        <ele>665.816</ele>
        <time>2021-08-03T09:14:03Z</time>
      </trkpt>
      <trkpt lat="43.227909" lon="-4.89883">
        <ele>667.991</ele>
        <time>2021-08-03T09:14:19Z</time>
      </trkpt>
      <trkpt lat="43.227865" lon="-4.898854">
        <ele>668.154</ele>
        <time>2021-08-03T09:14:24Z</time>
      </trkpt>
      <trkpt lat="43.227849" lon="-4.898982">
        <ele>673.669</ele>
        <time>2021-08-03T09:15:13Z</time>
      </trkpt>
      <trkpt lat="43.227837" lon="-4.899043">
        <ele>676.162</ele>
        <time>2021-08-03T09:15:20Z</time>
      </trkpt>
      <trkpt lat="43.227797" lon="-4.899079">
        <ele>677.283</ele>
        <time>2021-08-03T09:15:28Z</time>
      </trkpt>
      <trkpt lat="43.227783" lon="-4.89914">
        <ele>679.811</ele>
        <time>2021-08-03T09:15:42Z</time>
      </trkpt>
      <trkpt lat="43.227774" lon="-4.899203">
        <ele>682.108</ele>
        <time>2021-08-03T09:15:53Z</time>
      </trkpt>
      <trkpt lat="43.227819" lon="-4.899215">
        <ele>683.373</ele>
        <time>2021-08-03T09:16:07Z</time>
      </trkpt>
      <trkpt lat="43.227828" lon="-4.899277">
        <ele>685.845</ele>
        <time>2021-08-03T09:16:30Z</time>
      </trkpt>
      <trkpt lat="43.227806" lon="-4.899335">
        <ele>687.635</ele>
        <time>2021-08-03T09:16:46Z</time>
      </trkpt>
      <trkpt lat="43.227761" lon="-4.899371">
        <ele>687.611</ele>
        <time>2021-08-03T09:16:52Z</time>
      </trkpt>
      <trkpt lat="43.227744" lon="-4.899429">
        <ele>688.931</ele>
        <time>2021-08-03T09:16:58Z</time>
      </trkpt>
      <trkpt lat="43.227763" lon="-4.899496">
        <ele>692.286</ele>
        <time>2021-08-03T09:17:27Z</time>
      </trkpt>
      <trkpt lat="43.227756" lon="-4.899561">
        <ele>694.339</ele>
        <time>2021-08-03T09:18:08Z</time>
      </trkpt>
      <trkpt lat="43.22772" lon="-4.899598">
        <ele>694.284</ele>
        <time>2021-08-03T09:18:18Z</time>
      </trkpt>
      <trkpt lat="43.227732" lon="-4.899659">
        <ele>697.029</ele>
        <time>2021-08-03T09:18:32Z</time>
      </trkpt>
      <trkpt lat="43.227715" lon="-4.899717">
        <ele>698.500</ele>
        <time>2021-08-03T09:18:44Z</time>
      </trkpt>
      <trkpt lat="43.227689" lon="-4.899779">
        <ele>700.220</ele>
        <time>2021-08-03T09:18:58Z</time>
      </trkpt>
      <trkpt lat="43.227665" lon="-4.899832">
        <ele>701.608</ele>
        <time>2021-08-03T09:19:11Z</time>
      </trkpt>
      <trkpt lat="43.227658" lon="-4.899897">
        <ele>704.229</ele>
        <time>2021-08-03T09:19:20Z</time>
      </trkpt>
      <trkpt lat="43.227662" lon="-4.899959">
        <ele>706.991</ele>
        <time>2021-08-03T09:19:33Z</time>
      </trkpt>
      <trkpt lat="43.227626" lon="-4.899998">
        <ele>707.561</ele>
        <time>2021-08-03T09:19:53Z</time>
      </trkpt>
      <trkpt lat="43.227607" lon="-4.900056">
        <ele>708.227</ele>
        <time>2021-08-03T09:20:06Z</time>
      </trkpt>
      <trkpt lat="43.22763" lon="-4.900127">
        <ele>710.447</ele>
        <time>2021-08-03T09:20:33Z</time>
      </trkpt>
      <trkpt lat="43.22764" lon="-4.900192">
        <ele>712.262</ele>
        <time>2021-08-03T09:20:47Z</time>
      </trkpt>
      <trkpt lat="43.227617" lon="-4.900325">
        <ele>713.155</ele>
        <time>2021-08-03T09:21:10Z</time>
      </trkpt>
      <trkpt lat="43.227668" lon="-4.900321">
        <ele>715.490</ele>
        <time>2021-08-03T09:21:16Z</time>
      </trkpt>
      <trkpt lat="43.227686" lon="-4.900386">
        <ele>716.457</ele>
        <time>2021-08-03T09:21:39Z</time>
      </trkpt>
      <trkpt lat="43.227708" lon="-4.900444">
        <ele>717.700</ele>
        <time>2021-08-03T09:21:45Z</time>
      </trkpt>
      <trkpt lat="43.22774" lon="-4.90049">
        <ele>719.620</ele>
        <time>2021-08-03T09:21:58Z</time>
      </trkpt>
      <trkpt lat="43.227765" lon="-4.900553">
        <ele>721.308</ele>
        <time>2021-08-03T09:22:21Z</time>
      </trkpt>
      <trkpt lat="43.227783" lon="-4.900617">
        <ele>722.862</ele>
        <time>2021-08-03T09:22:28Z</time>
      </trkpt>
      <trkpt lat="43.2278" lon="-4.900675">
        <ele>724.494</ele>
        <time>2021-08-03T09:22:38Z</time>
      </trkpt>
      <trkpt lat="43.2278" lon="-4.900745">
        <ele>725.084</ele>
        <time>2021-08-03T09:22:52Z</time>
      </trkpt>
      <trkpt lat="43.227823" lon="-4.900808">
        <ele>727.360</ele>
        <time>2021-08-03T09:23:01Z</time>
      </trkpt>
      <trkpt lat="43.227858" lon="-4.900852">
        <ele>730.640</ele>
        <time>2021-08-03T09:23:09Z</time>
      </trkpt>
      <trkpt lat="43.227875" lon="-4.90091">
        <ele>732.715</ele>
        <time>2021-08-03T09:23:19Z</time>
      </trkpt>
      <trkpt lat="43.227893" lon="-4.900969">
        <ele>735.058</ele>
        <time>2021-08-03T09:23:30Z</time>
      </trkpt>
      <trkpt lat="43.227816" lon="-4.901018">
        <ele>729.213</ele>
        <time>2021-08-03T09:23:58Z</time>
      </trkpt>
      <trkpt lat="43.227861" lon="-4.900988">
        <ele>732.664</ele>
        <time>2021-08-03T09:24:02Z</time>
      </trkpt>
      <trkpt lat="43.227907" lon="-4.900986">
        <ele>736.406</ele>
        <time>2021-08-03T09:24:12Z</time>
      </trkpt>
      <trkpt lat="43.227901" lon="-4.90105">
        <ele>736.816</ele>
        <time>2021-08-03T09:24:31Z</time>
      </trkpt>
      <trkpt lat="43.227931" lon="-4.901105">
        <ele>740.108</ele>
        <time>2021-08-03T09:24:37Z</time>
      </trkpt>
      <trkpt lat="43.227981" lon="-4.901096">
        <ele>744.323</ele>
        <time>2021-08-03T09:24:54Z</time>
      </trkpt>
      <trkpt lat="43.228029" lon="-4.901108">
        <ele>748.785</ele>
        <time>2021-08-03T09:25:25Z</time>
      </trkpt>
      <trkpt lat="43.22802" lon="-4.901178">
        <ele>748.075</ele>
        <time>2021-08-03T09:25:35Z</time>
      </trkpt>
      <trkpt lat="43.228016" lon="-4.901242">
        <ele>747.661</ele>
        <time>2021-08-03T09:25:42Z</time>
      </trkpt>
      <trkpt lat="43.228013" lon="-4.901305">
        <ele>747.481</ele>
        <time>2021-08-03T09:25:55Z</time>
      </trkpt>
      <trkpt lat="43.228039" lon="-4.901359">
        <ele>749.656</ele>
        <time>2021-08-03T09:26:05Z</time>
      </trkpt>
      <trkpt lat="43.228048" lon="-4.901426">
        <ele>750.459</ele>
        <time>2021-08-03T09:26:30Z</time>
      </trkpt>
      <trkpt lat="43.228086" lon="-4.901468">
        <ele>754.344</ele>
        <time>2021-08-03T09:26:33Z</time>
      </trkpt>
      <trkpt lat="43.228113" lon="-4.90152">
        <ele>757.066</ele>
        <time>2021-08-03T09:26:41Z</time>
      </trkpt>
      <trkpt lat="43.228097" lon="-4.901583">
        <ele>755.229</ele>
        <time>2021-08-03T09:27:00Z</time>
      </trkpt>
      <trkpt lat="43.228161" lon="-4.901708">
        <ele>762.121</ele>
        <time>2021-08-03T09:27:54Z</time>
      </trkpt>
      <trkpt lat="43.228139" lon="-4.901762">
        <ele>761.208</ele>
        <time>2021-08-03T09:28:11Z</time>
      </trkpt>
      <trkpt lat="43.228092" lon="-4.901788">
        <ele>757.723</ele>
        <time>2021-08-03T09:28:15Z</time>
      </trkpt>
      <trkpt lat="43.228047" lon="-4.901782">
        <ele>753.785</ele>
        <time>2021-08-03T09:28:20Z</time>
      </trkpt>
      <trkpt lat="43.228037" lon="-4.901846">
        <ele>755.065</ele>
        <time>2021-08-03T09:28:27Z</time>
      </trkpt>
      <trkpt lat="43.228037" lon="-4.901916">
        <ele>757.081</ele>
        <time>2021-08-03T09:28:46Z</time>
      </trkpt>
      <trkpt lat="43.228019" lon="-4.901977">
        <ele>757.781</ele>
        <time>2021-08-03T09:28:58Z</time>
      </trkpt>
      <trkpt lat="43.227946" lon="-4.902084">
        <ele>756.336</ele>
        <time>2021-08-03T09:29:26Z</time>
      </trkpt>
      <trkpt lat="43.227946" lon="-4.90215">
        <ele>758.259</ele>
        <time>2021-08-03T09:29:52Z</time>
      </trkpt>
      <trkpt lat="43.227966" lon="-4.902209">
        <ele>761.144</ele>
        <time>2021-08-03T09:30:04Z</time>
      </trkpt>
      <trkpt lat="43.227947" lon="-4.902268">
        <ele>761.864</ele>
        <time>2021-08-03T09:30:10Z</time>
      </trkpt>
      <trkpt lat="43.227925" lon="-4.902332">
        <ele>762.406</ele>
        <time>2021-08-03T09:30:17Z</time>
      </trkpt>
      <trkpt lat="43.227907" lon="-4.902393">
        <ele>763.116</ele>
        <time>2021-08-03T09:30:24Z</time>
      </trkpt>
      <trkpt lat="43.227893" lon="-4.902458">
        <ele>764.208</ele>
        <time>2021-08-03T09:30:29Z</time>
      </trkpt>
      <trkpt lat="43.227895" lon="-4.90252">
        <ele>766.153</ele>
        <time>2021-08-03T09:30:37Z</time>
      </trkpt>
      <trkpt lat="43.2279" lon="-4.902585">
        <ele>768.245</ele>
        <time>2021-08-03T09:31:03Z</time>
      </trkpt>
      <trkpt lat="43.227928" lon="-4.902636">
        <ele>771.435</ele>
        <time>2021-08-03T09:31:14Z</time>
      </trkpt>
      <trkpt lat="43.227915" lon="-4.902699">
        <ele>772.351</ele>
        <time>2021-08-03T09:31:28Z</time>
      </trkpt>
      <trkpt lat="43.227912" lon="-4.902761">
        <ele>773.851</ele>
        <time>2021-08-03T09:31:38Z</time>
      </trkpt>
      <trkpt lat="43.227902" lon="-4.902824">
        <ele>774.236</ele>
        <time>2021-08-03T09:31:51Z</time>
      </trkpt>
      <trkpt lat="43.227887" lon="-4.902884">
        <ele>774.189</ele>
        <time>2021-08-03T09:32:05Z</time>
      </trkpt>
      <trkpt lat="43.227894" lon="-4.902951">
        <ele>775.514</ele>
        <time>2021-08-03T09:32:17Z</time>
      </trkpt>
      <trkpt lat="43.227897" lon="-4.90302">
        <ele>776.733</ele>
        <time>2021-08-03T09:32:27Z</time>
      </trkpt>
      <trkpt lat="43.227902" lon="-4.903084">
        <ele>777.923</ele>
        <time>2021-08-03T09:32:46Z</time>
      </trkpt>
      <trkpt lat="43.227875" lon="-4.903138">
        <ele>776.815</ele>
        <time>2021-08-03T09:33:06Z</time>
      </trkpt>
      <trkpt lat="43.227859" lon="-4.9032">
        <ele>776.708</ele>
        <time>2021-08-03T09:33:14Z</time>
      </trkpt>
      <trkpt lat="43.227865" lon="-4.903266">
        <ele>778.060</ele>
        <time>2021-08-03T09:33:20Z</time>
      </trkpt>
      <trkpt lat="43.22788" lon="-4.903325">
        <ele>779.892</ele>
        <time>2021-08-03T09:33:30Z</time>
      </trkpt>
      <trkpt lat="43.227925" lon="-4.903344">
        <ele>782.712</ele>
        <time>2021-08-03T09:33:38Z</time>
      </trkpt>
      <trkpt lat="43.227951" lon="-4.903399">
        <ele>785.198</ele>
        <time>2021-08-03T09:33:49Z</time>
      </trkpt>
      <trkpt lat="43.22796" lon="-4.903466">
        <ele>786.618</ele>
        <time>2021-08-03T09:33:56Z</time>
      </trkpt>
      <trkpt lat="43.227943" lon="-4.903526">
        <ele>786.943</ele>
        <time>2021-08-03T09:34:26Z</time>
      </trkpt>
      <trkpt lat="43.227965" lon="-4.90359">
        <ele>788.786</ele>
        <time>2021-08-03T09:34:48Z</time>
      </trkpt>
      <trkpt lat="43.227984" lon="-4.903648">
        <ele>790.861</ele>
        <time>2021-08-03T09:34:56Z</time>
      </trkpt>
      <trkpt lat="43.228007" lon="-4.903701">
        <ele>792.898</ele>
        <time>2021-08-03T09:35:12Z</time>
      </trkpt>
      <trkpt lat="43.228041" lon="-4.903748">
        <ele>794.715</ele>
        <time>2021-08-03T09:35:35Z</time>
      </trkpt>
      <trkpt lat="43.228078" lon="-4.903784">
        <ele>797.626</ele>
        <time>2021-08-03T09:35:54Z</time>
      </trkpt>
      <trkpt lat="43.228086" lon="-4.903848">
        <ele>799.608</ele>
        <time>2021-08-03T09:36:29Z</time>
      </trkpt>
      <trkpt lat="43.22811" lon="-4.903902">
        <ele>802.636</ele>
        <time>2021-08-03T09:36:45Z</time>
      </trkpt>
      <trkpt lat="43.228104" lon="-4.903965">
        <ele>803.698</ele>
        <time>2021-08-03T09:37:13Z</time>
      </trkpt>
      <trkpt lat="43.228122" lon="-4.904023">
        <ele>806.328</ele>
        <time>2021-08-03T09:37:26Z</time>
      </trkpt>
      <trkpt lat="43.228132" lon="-4.904084">
        <ele>808.444</ele>
        <time>2021-08-03T09:37:42Z</time>
      </trkpt>
      <trkpt lat="43.22816" lon="-4.904132">
        <ele>811.444</ele>
        <time>2021-08-03T09:37:59Z</time>
      </trkpt>
      <trkpt lat="43.228175" lon="-4.904191">
        <ele>813.979</ele>
        <time>2021-08-03T09:38:25Z</time>
      </trkpt>
      <trkpt lat="43.228206" lon="-4.904141">
        <ele>814.812</ele>
        <time>2021-08-03T09:39:23Z</time>
      </trkpt>
      <trkpt lat="43.228203" lon="-4.904204">
        <ele>816.227</ele>
        <time>2021-08-03T09:39:46Z</time>
      </trkpt>
      <trkpt lat="43.228202" lon="-4.904266">
        <ele>818.047</ele>
        <time>2021-08-03T09:40:01Z</time>
      </trkpt>
      <trkpt lat="43.228215" lon="-4.904326">
        <ele>820.729</ele>
        <time>2021-08-03T09:40:12Z</time>
      </trkpt>
      <trkpt lat="43.228223" lon="-4.904392">
        <ele>823.121</ele>
        <time>2021-08-03T09:40:28Z</time>
      </trkpt>
      <trkpt lat="43.228247" lon="-4.904446">
        <ele>826.108</ele>
        <time>2021-08-03T09:42:06Z</time>
      </trkpt>
      <trkpt lat="43.228262" lon="-4.904507">
        <ele>828.631</ele>
        <time>2021-08-03T09:42:17Z</time>
      </trkpt>
      <trkpt lat="43.228275" lon="-4.904566">
        <ele>830.833</ele>
        <time>2021-08-03T09:42:24Z</time>
      </trkpt>
      <trkpt lat="43.228297" lon="-4.904622">
        <ele>833.233</ele>
        <time>2021-08-03T09:42:41Z</time>
      </trkpt>
      <trkpt lat="43.228318" lon="-4.904678">
        <ele>835.479</ele>
        <time>2021-08-03T09:43:15Z</time>
      </trkpt>
      <trkpt lat="43.228374" lon="-4.904697">
        <ele>840.929</ele>
        <time>2021-08-03T09:43:55Z</time>
      </trkpt>
      <trkpt lat="43.228371" lon="-4.904635">
        <ele>839.394</ele>
        <time>2021-08-03T09:44:51Z</time>
      </trkpt>
      <trkpt lat="43.228383" lon="-4.904698">
        <ele>841.927</ele>
        <time>2021-08-03T09:45:22Z</time>
      </trkpt>
      <trkpt lat="43.228419" lon="-4.904737">
        <ele>846.472</ele>
        <time>2021-08-03T09:45:31Z</time>
      </trkpt>
      <trkpt lat="43.228449" lon="-4.904786">
        <ele>849.985</ele>
        <time>2021-08-03T09:45:52Z</time>
      </trkpt>
      <trkpt lat="43.22845" lon="-4.904851">
        <ele>850.489</ele>
        <time>2021-08-03T09:46:16Z</time>
      </trkpt>
      <trkpt lat="43.22846" lon="-4.904924">
        <ele>851.717</ele>
        <time>2021-08-03T09:47:00Z</time>
      </trkpt>
      <trkpt lat="43.228494" lon="-4.904973">
        <ele>854.708</ele>
        <time>2021-08-03T09:47:18Z</time>
      </trkpt>
      <trkpt lat="43.228518" lon="-4.905026">
        <ele>857.255</ele>
        <time>2021-08-03T09:47:27Z</time>
      </trkpt>
      <trkpt lat="43.22855" lon="-4.90507">
        <ele>860.487</ele>
        <time>2021-08-03T09:47:43Z</time>
      </trkpt>
      <trkpt lat="43.22857" lon="-4.905129">
        <ele>862.827</ele>
        <time>2021-08-03T09:48:04Z</time>
      </trkpt>
      <trkpt lat="43.228609" lon="-4.905162">
        <ele>865.663</ele>
        <time>2021-08-03T09:48:17Z</time>
      </trkpt>
      <trkpt lat="43.228611" lon="-4.905227">
        <ele>866.463</ele>
        <time>2021-08-03T09:48:34Z</time>
      </trkpt>
      <trkpt lat="43.228611" lon="-4.905291">
        <ele>867.278</ele>
        <time>2021-08-03T09:49:02Z</time>
      </trkpt>
      <trkpt lat="43.228582" lon="-4.905342">
        <ele>867.181</ele>
        <time>2021-08-03T09:49:39Z</time>
      </trkpt>
      <trkpt lat="43.22856" lon="-4.905399">
        <ele>868.026</ele>
        <time>2021-08-03T09:49:52Z</time>
      </trkpt>
      <trkpt lat="43.228515" lon="-4.90543">
        <ele>868.783</ele>
        <time>2021-08-03T09:49:57Z</time>
      </trkpt>
      <trkpt lat="43.228499" lon="-4.905502">
        <ele>871.825</ele>
        <time>2021-08-03T09:50:06Z</time>
      </trkpt>
      <trkpt lat="43.22848" lon="-4.905562">
        <ele>875.117</ele>
        <time>2021-08-03T09:50:20Z</time>
      </trkpt>
      <trkpt lat="43.228449" lon="-4.905609">
        <ele>878.308</ele>
        <time>2021-08-03T09:50:41Z</time>
      </trkpt>
      <trkpt lat="43.228493" lon="-4.90559">
        <ele>876.045</ele>
        <time>2021-08-03T09:51:13Z</time>
      </trkpt>
      <trkpt lat="43.228503" lon="-4.905525">
        <ele>872.827</ele>
        <time>2021-08-03T09:51:16Z</time>
      </trkpt>
      <trkpt lat="43.228509" lon="-4.90559">
        <ele>875.627</ele>
        <time>2021-08-03T09:51:29Z</time>
      </trkpt>
      <trkpt lat="43.228549" lon="-4.90562">
        <ele>875.713</ele>
        <time>2021-08-03T09:52:29Z</time>
      </trkpt>
      <trkpt lat="43.228671" lon="-4.905525">
        <ele>876.843</ele>
        <time>2021-08-03T09:53:43Z</time>
      </trkpt>
      <trkpt lat="43.228707" lon="-4.905565">
        <ele>880.998</ele>
        <time>2021-08-03T09:53:50Z</time>
      </trkpt>
      <trkpt lat="43.228683" lon="-4.905621">
        <ele>880.381</ele>
        <time>2021-08-03T09:54:22Z</time>
      </trkpt>
      <trkpt lat="43.228638" lon="-4.90564">
        <ele>877.026</ele>
        <time>2021-08-03T09:55:19Z</time>
      </trkpt>
      <trkpt lat="43.228686" lon="-4.905647">
        <ele>881.486</ele>
        <time>2021-08-03T09:55:41Z</time>
      </trkpt>
      <trkpt lat="43.228687" lon="-4.905712">
        <ele>883.660</ele>
        <time>2021-08-03T09:55:49Z</time>
      </trkpt>
      <trkpt lat="43.22869" lon="-4.905791">
        <ele>886.226</ele>
        <time>2021-08-03T09:55:53Z</time>
      </trkpt>
      <trkpt lat="43.228733" lon="-4.905753">
        <ele>888.108</ele>
        <time>2021-08-03T09:56:25Z</time>
      </trkpt>
      <trkpt lat="43.228704" lon="-4.905802">
        <ele>887.485</ele>
        <time>2021-08-03T09:56:39Z</time>
      </trkpt>
      <trkpt lat="43.22866" lon="-4.905819">
        <ele>885.367</ele>
        <time>2021-08-03T09:56:53Z</time>
      </trkpt>
      <trkpt lat="43.228618" lon="-4.905842">
        <ele>883.817</ele>
        <time>2021-08-03T09:57:15Z</time>
      </trkpt>
      <trkpt lat="43.228649" lon="-4.905895">
        <ele>888.353</ele>
        <time>2021-08-03T09:57:46Z</time>
      </trkpt>
      <trkpt lat="43.228633" lon="-4.905958">
        <ele>890.653</ele>
        <time>2021-08-03T09:58:22Z</time>
      </trkpt>
      <trkpt lat="43.22866" lon="-4.905904">
        <ele>889.438</ele>
        <time>2021-08-03T09:58:35Z</time>
      </trkpt>
      <trkpt lat="43.228708" lon="-4.90586">
        <ele>890.071</ele>
        <time>2021-08-03T09:58:39Z</time>
      </trkpt>
      <trkpt lat="43.228748" lon="-4.905824">
        <ele>890.786</ele>
        <time>2021-08-03T09:58:43Z</time>
      </trkpt>
      <trkpt lat="43.228731" lon="-4.905887">
        <ele>892.797</ele>
        <time>2021-08-03T09:59:10Z</time>
      </trkpt>
      <trkpt lat="43.228772" lon="-4.905845">
        <ele>892.923</ele>
        <time>2021-08-03T09:59:16Z</time>
      </trkpt>
      <trkpt lat="43.228801" lon="-4.90578">
        <ele>893.225</ele>
        <time>2021-08-03T09:59:22Z</time>
      </trkpt>
      <trkpt lat="43.228821" lon="-4.905715">
        <ele>893.808</ele>
        <time>2021-08-03T09:59:25Z</time>
      </trkpt>
      <trkpt lat="43.22878" lon="-4.90574">
        <ele>891.146</ele>
        <time>2021-08-03T09:59:41Z</time>
      </trkpt>
      <trkpt lat="43.228887" lon="-4.905763">
        <ele>898.998</ele>
        <time>2021-08-03T10:01:01Z</time>
      </trkpt>
      <trkpt lat="43.228848" lon="-4.905795">
        <ele>896.418</ele>
        <time>2021-08-03T10:01:07Z</time>
      </trkpt>
      <trkpt lat="43.228801" lon="-4.905811">
        <ele>893.644</ele>
        <time>2021-08-03T10:01:12Z</time>
      </trkpt>
      <trkpt lat="43.228799" lon="-4.905743">
        <ele>892.614</ele>
        <time>2021-08-03T10:01:19Z</time>
      </trkpt>
      <trkpt lat="43.228846" lon="-4.905735">
        <ele>895.919</ele>
        <time>2021-08-03T10:01:26Z</time>
      </trkpt>
      <trkpt lat="43.228886" lon="-4.905766">
        <ele>898.832</ele>
        <time>2021-08-03T10:01:31Z</time>
      </trkpt>
      <trkpt lat="43.228926" lon="-4.905736">
        <ele>902.077</ele>
        <time>2021-08-03T10:01:40Z</time>
      </trkpt>
      <trkpt lat="43.228972" lon="-4.905718">
        <ele>906.082</ele>
        <time>2021-08-03T10:01:45Z</time>
      </trkpt>
      <trkpt lat="43.228994" lon="-4.905774">
        <ele>907.243</ele>
        <time>2021-08-03T10:02:13Z</time>
      </trkpt>
      <trkpt lat="43.229038" lon="-4.905789">
        <ele>910.417</ele>
        <time>2021-08-03T10:02:39Z</time>
      </trkpt>
      <trkpt lat="43.229028" lon="-4.90585">
        <ele>909.708</ele>
        <time>2021-08-03T10:03:14Z</time>
      </trkpt>
      <trkpt lat="43.229057" lon="-4.905906">
        <ele>913.975</ele>
        <time>2021-08-03T10:04:42Z</time>
      </trkpt>
      <trkpt lat="43.229065" lon="-4.905969">
        <ele>916.847</ele>
        <time>2021-08-03T10:04:55Z</time>
      </trkpt>
      <trkpt lat="43.229111" lon="-4.905972">
        <ele>919.777</ele>
        <time>2021-08-03T10:05:25Z</time>
      </trkpt>
      <trkpt lat="43.229131" lon="-4.90603">
        <ele>922.753</ele>
        <time>2021-08-03T10:05:32Z</time>
      </trkpt>
      <trkpt lat="43.229176" lon="-4.906053">
        <ele>926.093</ele>
        <time>2021-08-03T10:05:44Z</time>
      </trkpt>
      <trkpt lat="43.229224" lon="-4.906033">
        <ele>928.868</ele>
        <time>2021-08-03T10:06:22Z</time>
      </trkpt>
      <trkpt lat="43.229268" lon="-4.906053">
        <ele>932.421</ele>
        <time>2021-08-03T10:06:32Z</time>
      </trkpt>
      <trkpt lat="43.229313" lon="-4.906053">
        <ele>935.596</ele>
        <time>2021-08-03T10:06:52Z</time>
      </trkpt>
      <trkpt lat="43.229417" lon="-4.906054">
        <ele>942.746</ele>
        <time>2021-08-03T10:07:19Z</time>
      </trkpt>
      <trkpt lat="43.229372" lon="-4.906035">
        <ele>939.388</ele>
        <time>2021-08-03T10:07:33Z</time>
      </trkpt>
      <trkpt lat="43.229328" lon="-4.906055">
        <ele>936.516</ele>
        <time>2021-08-03T10:07:46Z</time>
      </trkpt>
      <trkpt lat="43.229369" lon="-4.906025">
        <ele>939.008</ele>
        <time>2021-08-03T10:08:32Z</time>
      </trkpt>
      <trkpt lat="43.229409" lon="-4.905995">
        <ele>941.531</ele>
        <time>2021-08-03T10:09:20Z</time>
      </trkpt>
      <trkpt lat="43.22947" lon="-4.906002">
        <ele>946.013</ele>
        <time>2021-08-03T10:10:37Z</time>
      </trkpt>
      <trkpt lat="43.229452" lon="-4.905943">
        <ele>944.313</ele>
        <time>2021-08-03T10:10:59Z</time>
      </trkpt>
      <trkpt lat="43.22948" lon="-4.905884">
        <ele>945.859</ele>
        <time>2021-08-03T10:11:07Z</time>
      </trkpt>
      <trkpt lat="43.229515" lon="-4.905836">
        <ele>947.849</ele>
        <time>2021-08-03T10:11:13Z</time>
      </trkpt>
      <trkpt lat="43.22955" lon="-4.905788">
        <ele>951.584</ele>
        <time>2021-08-03T10:11:27Z</time>
      </trkpt>
      <trkpt lat="43.229595" lon="-4.905772">
        <ele>955.267</ele>
        <time>2021-08-03T10:11:37Z</time>
      </trkpt>
      <trkpt lat="43.229713" lon="-4.905691">
        <ele>966.982</ele>
        <time>2021-08-03T10:12:23Z</time>
      </trkpt>
      <trkpt lat="43.229758" lon="-4.90568">
        <ele>981.246</ele>
        <time>2021-08-03T10:12:28Z</time>
      </trkpt>
      <trkpt lat="43.229798" lon="-4.905644">
        <ele>997.688</ele>
        <time>2021-08-03T10:12:45Z</time>
      </trkpt>
      <trkpt lat="43.229843" lon="-4.905652">
        <ele>1013.916</ele>
        <time>2021-08-03T10:13:49Z</time>
      </trkpt>
      <trkpt lat="43.229889" lon="-4.905677">
        <ele>1029.508</ele>
        <time>2021-08-03T10:13:57Z</time>
      </trkpt>
      <trkpt lat="43.229919" lon="-4.905733">
        <ele>1037.021</ele>
        <time>2021-08-03T10:14:58Z</time>
      </trkpt>
      <trkpt lat="43.229949" lon="-4.905779">
        <ele>1044.853</ele>
        <time>2021-08-03T10:15:06Z</time>
      </trkpt>
      <trkpt lat="43.229978" lon="-4.905833">
        <ele>1051.313</ele>
        <time>2021-08-03T10:15:13Z</time>
      </trkpt>
      <trkpt lat="43.23" lon="-4.905888">
        <ele>1054.399</ele>
        <time>2021-08-03T10:15:38Z</time>
      </trkpt>
      <trkpt lat="43.230037" lon="-4.905925">
        <ele>1063.189</ele>
        <time>2021-08-03T10:15:42Z</time>
      </trkpt>
      <trkpt lat="43.230074" lon="-4.905964">
        <ele>1071.324</ele>
        <time>2021-08-03T10:15:51Z</time>
      </trkpt>
      <trkpt lat="43.229896" lon="-4.905975">
        <ele>1015.617</ele>
        <time>2021-08-03T10:17:29Z</time>
      </trkpt>
      <trkpt lat="43.229886" lon="-4.906043">
        <ele>1009.452</ele>
        <time>2021-08-03T10:18:17Z</time>
      </trkpt>
      <trkpt lat="43.22989" lon="-4.906107">
        <ele>1007.572</ele>
        <time>2021-08-03T10:18:27Z</time>
      </trkpt>
      <trkpt lat="43.229853" lon="-4.906157">
        <ele>997.913</ele>
        <time>2021-08-03T10:18:55Z</time>
      </trkpt>
      <trkpt lat="43.229809" lon="-4.906183">
        <ele>987.514</ele>
        <time>2021-08-03T10:19:01Z</time>
      </trkpt>
      <trkpt lat="43.229772" lon="-4.90624">
        <ele>979.508</ele>
        <time>2021-08-03T10:19:07Z</time>
      </trkpt>
      <trkpt lat="43.229749" lon="-4.906299">
        <ele>975.564</ele>
        <time>2021-08-03T10:19:11Z</time>
      </trkpt>
      <trkpt lat="43.229748" lon="-4.906363">
        <ele>976.626</ele>
        <time>2021-08-03T10:19:17Z</time>
      </trkpt>
      <trkpt lat="43.229742" lon="-4.906431">
        <ele>977.196</ele>
        <time>2021-08-03T10:19:22Z</time>
      </trkpt>
      <trkpt lat="43.229729" lon="-4.906498">
        <ele>976.752</ele>
        <time>2021-08-03T10:19:27Z</time>
      </trkpt>
      <trkpt lat="43.229727" lon="-4.906561">
        <ele>978.432</ele>
        <time>2021-08-03T10:19:51Z</time>
      </trkpt>
      <trkpt lat="43.229725" lon="-4.906627">
        <ele>980.127</ele>
        <time>2021-08-03T10:20:05Z</time>
      </trkpt>
      <trkpt lat="43.229712" lon="-4.906688">
        <ele>981.470</ele>
        <time>2021-08-03T10:20:22Z</time>
      </trkpt>
      <trkpt lat="43.229697" lon="-4.90675">
        <ele>983.235</ele>
        <time>2021-08-03T10:20:29Z</time>
      </trkpt>
      <trkpt lat="43.229689" lon="-4.906816">
        <ele>985.445</ele>
        <time>2021-08-03T10:20:36Z</time>
      </trkpt>
      <trkpt lat="43.229668" lon="-4.906873">
        <ele>986.547</ele>
        <time>2021-08-03T10:20:41Z</time>
      </trkpt>
      <trkpt lat="43.229675" lon="-4.906936">
        <ele>989.311</ele>
        <time>2021-08-03T10:21:06Z</time>
      </trkpt>
      <trkpt lat="43.229675" lon="-4.907002">
        <ele>990.908</ele>
        <time>2021-08-03T10:21:14Z</time>
      </trkpt>
      <trkpt lat="43.229674" lon="-4.907066">
        <ele>992.321</ele>
        <time>2021-08-03T10:21:23Z</time>
      </trkpt>
      <trkpt lat="43.22967" lon="-4.907136">
        <ele>993.543</ele>
        <time>2021-08-03T10:21:30Z</time>
      </trkpt>
      <trkpt lat="43.229653" lon="-4.907196">
        <ele>993.723</ele>
        <time>2021-08-03T10:22:00Z</time>
      </trkpt>
      <trkpt lat="43.229664" lon="-4.907256">
        <ele>995.129</ele>
        <time>2021-08-03T10:22:13Z</time>
      </trkpt>
      <trkpt lat="43.229692" lon="-4.907307">
        <ele>997.139</ele>
        <time>2021-08-03T10:22:30Z</time>
      </trkpt>
      <trkpt lat="43.229706" lon="-4.907378">
        <ele>998.044</ele>
        <time>2021-08-03T10:23:05Z</time>
      </trkpt>
      <trkpt lat="43.229752" lon="-4.907386">
        <ele>1002.437</ele>
        <time>2021-08-03T10:23:11Z</time>
      </trkpt>
      <trkpt lat="43.229768" lon="-4.907448">
        <ele>1004.692</ele>
        <time>2021-08-03T10:23:19Z</time>
      </trkpt>
      <trkpt lat="43.229795" lon="-4.9075">
        <ele>1008.499</ele>
        <time>2021-08-03T10:23:30Z</time>
      </trkpt>
      <trkpt lat="43.229807" lon="-4.907561">
        <ele>1011.207</ele>
        <time>2021-08-03T10:23:44Z</time>
      </trkpt>
      <trkpt lat="43.229821" lon="-4.907621">
        <ele>1014.127</ele>
        <time>2021-08-03T10:23:57Z</time>
      </trkpt>
      <trkpt lat="43.229838" lon="-4.907682">
        <ele>1017.208</ele>
        <time>2021-08-03T10:24:08Z</time>
      </trkpt>
      <trkpt lat="43.229836" lon="-4.907746">
        <ele>1018.186</ele>
        <time>2021-08-03T10:24:23Z</time>
      </trkpt>
      <trkpt lat="43.229823" lon="-4.907816">
        <ele>1018.628</ele>
        <time>2021-08-03T10:24:51Z</time>
      </trkpt>
      <trkpt lat="43.229826" lon="-4.907879">
        <ele>1021.138</ele>
        <time>2021-08-03T10:25:08Z</time>
      </trkpt>
      <trkpt lat="43.229827" lon="-4.907945">
        <ele>1023.494</ele>
        <time>2021-08-03T10:25:24Z</time>
      </trkpt>
      <trkpt lat="43.229866" lon="-4.907976">
        <ele>1026.864</ele>
        <time>2021-08-03T10:26:02Z</time>
      </trkpt>
      <trkpt lat="43.229854" lon="-4.908037">
        <ele>1027.759</ele>
        <time>2021-08-03T10:26:17Z</time>
      </trkpt>
      <trkpt lat="43.229873" lon="-4.908097">
        <ele>1030.332</ele>
        <time>2021-08-03T10:26:26Z</time>
      </trkpt>
      <trkpt lat="43.229896" lon="-4.908151">
        <ele>1032.847</ele>
        <time>2021-08-03T10:26:46Z</time>
      </trkpt>
      <trkpt lat="43.229904" lon="-4.908213">
        <ele>1034.844</ele>
        <time>2021-08-03T10:27:01Z</time>
      </trkpt>
      <trkpt lat="43.229935" lon="-4.908259">
        <ele>1036.605</ele>
        <time>2021-08-03T10:27:20Z</time>
      </trkpt>
      <trkpt lat="43.229869" lon="-4.908251">
        <ele>1035.315</ele>
        <time>2021-08-03T10:28:32Z</time>
      </trkpt>
      <trkpt lat="43.229902" lon="-4.908297">
        <ele>1037.208</ele>
        <time>2021-08-03T10:28:42Z</time>
      </trkpt>
      <trkpt lat="43.229939" lon="-4.908254">
        <ele>1036.621</ele>
        <time>2021-08-03T10:29:07Z</time>
      </trkpt>
      <trkpt lat="43.230001" lon="-4.908244">
        <ele>1037.523</ele>
        <time>2021-08-03T10:29:31Z</time>
      </trkpt>
      <trkpt lat="43.23005" lon="-4.908249">
        <ele>1041.313</ele>
        <time>2021-08-03T10:29:44Z</time>
      </trkpt>
      <trkpt lat="43.230096" lon="-4.908248">
        <ele>1044.799</ele>
        <time>2021-08-03T10:29:55Z</time>
      </trkpt>
      <trkpt lat="43.230112" lon="-4.908308">
        <ele>1045.949</ele>
        <time>2021-08-03T10:30:10Z</time>
      </trkpt>
      <trkpt lat="43.230269" lon="-4.908337">
        <ele>1055.514</ele>
        <time>2021-08-03T10:31:41Z</time>
      </trkpt>
      <trkpt lat="43.230338" lon="-4.908391">
        <ele>1063.927</ele>
        <time>2021-08-03T10:32:11Z</time>
      </trkpt>
      <trkpt lat="43.230295" lon="-4.908357">
        <ele>1058.542</ele>
        <time>2021-08-03T10:32:19Z</time>
      </trkpt>
      <trkpt lat="43.230218" lon="-4.908305">
        <ele>1052.993</ele>
        <time>2021-08-03T10:32:37Z</time>
      </trkpt>
      <trkpt lat="43.230163" lon="-4.908287">
        <ele>1049.465</ele>
        <time>2021-08-03T10:32:41Z</time>
      </trkpt>
      <trkpt lat="43.230139" lon="-4.90837">
        <ele>1048.821</ele>
        <time>2021-08-03T10:33:26Z</time>
      </trkpt>
      <trkpt lat="43.230163" lon="-4.908424">
        <ele>1051.908</ele>
        <time>2021-08-03T10:34:00Z</time>
      </trkpt>
      <trkpt lat="43.230209" lon="-4.908413">
        <ele>1054.036</ele>
        <time>2021-08-03T10:34:16Z</time>
      </trkpt>
      <trkpt lat="43.230231" lon="-4.908468">
        <ele>1056.618</ele>
        <time>2021-08-03T10:34:34Z</time>
      </trkpt>
      <trkpt lat="43.230239" lon="-4.908533">
        <ele>1058.688</ele>
        <time>2021-08-03T10:34:51Z</time>
      </trkpt>
      <trkpt lat="43.230258" lon="-4.908595">
        <ele>1060.984</ele>
        <time>2021-08-03T10:35:14Z</time>
      </trkpt>
      <trkpt lat="43.230291" lon="-4.908643">
        <ele>1064.034</ele>
        <time>2021-08-03T10:36:14Z</time>
      </trkpt>
      <trkpt lat="43.230299" lon="-4.908706">
        <ele>1066.869</ele>
        <time>2021-08-03T10:36:26Z</time>
      </trkpt>
      <trkpt lat="43.230324" lon="-4.908759">
        <ele>1070.152</ele>
        <time>2021-08-03T10:36:48Z</time>
      </trkpt>
      <trkpt lat="43.230369" lon="-4.908771">
        <ele>1073.297</ele>
        <time>2021-08-03T10:37:05Z</time>
      </trkpt>
      <trkpt lat="43.230414" lon="-4.908774">
        <ele>1076.073</ele>
        <time>2021-08-03T10:37:16Z</time>
      </trkpt>
      <trkpt lat="43.230444" lon="-4.90882">
        <ele>1079.185</ele>
        <time>2021-08-03T10:38:03Z</time>
      </trkpt>
      <trkpt lat="43.230473" lon="-4.908872">
        <ele>1082.113</ele>
        <time>2021-08-03T10:38:17Z</time>
      </trkpt>
      <trkpt lat="43.230507" lon="-4.908916">
        <ele>1085.408</ele>
        <time>2021-08-03T10:38:30Z</time>
      </trkpt>
      <trkpt lat="43.230506" lon="-4.908978">
        <ele>1087.674</ele>
        <time>2021-08-03T10:38:43Z</time>
      </trkpt>
      <trkpt lat="43.230509" lon="-4.909046">
        <ele>1090.196</ele>
        <time>2021-08-03T10:39:09Z</time>
      </trkpt>
      <trkpt lat="43.230524" lon="-4.909105">
        <ele>1092.876</ele>
        <time>2021-08-03T10:39:27Z</time>
      </trkpt>
      <trkpt lat="43.230511" lon="-4.909188">
        <ele>1095.622</ele>
        <time>2021-08-03T10:40:04Z</time>
      </trkpt>
      <trkpt lat="43.230494" lon="-4.909254">
        <ele>1098.232</ele>
        <time>2021-08-03T10:40:47Z</time>
      </trkpt>
      <trkpt lat="43.230467" lon="-4.909307">
        <ele>1100.277</ele>
        <time>2021-08-03T10:41:07Z</time>
      </trkpt>
      <trkpt lat="43.23051" lon="-4.909277">
        <ele>1099.770</ele>
        <time>2021-08-03T10:41:29Z</time>
      </trkpt>
      <trkpt lat="43.230479" lon="-4.909331">
        <ele>1101.675</ele>
        <time>2021-08-03T10:41:50Z</time>
      </trkpt>
      <trkpt lat="43.230511" lon="-4.909376">
        <ele>1104.371</ele>
        <time>2021-08-03T10:42:25Z</time>
      </trkpt>
      <trkpt lat="43.230547" lon="-4.909414">
        <ele>1106.641</ele>
        <time>2021-08-03T10:42:57Z</time>
      </trkpt>
      <trkpt lat="43.230587" lon="-4.909444">
        <ele>1110.115</ele>
        <time>2021-08-03T10:43:22Z</time>
      </trkpt>
      <trkpt lat="43.230605" lon="-4.909507">
        <ele>1114.308</ele>
        <time>2021-08-03T10:43:36Z</time>
      </trkpt>
      <trkpt lat="43.230596" lon="-4.909569">
        <ele>1116.634</ele>
        <time>2021-08-03T10:43:44Z</time>
      </trkpt>
      <trkpt lat="43.230589" lon="-4.909631">
        <ele>1119.196</ele>
        <time>2021-08-03T10:44:02Z</time>
      </trkpt>
      <trkpt lat="43.230617" lon="-4.909682">
        <ele>1122.986</ele>
        <time>2021-08-03T10:44:28Z</time>
      </trkpt>
      <trkpt lat="43.230564" lon="-4.909689">
        <ele>1120.782</ele>
        <time>2021-08-03T10:44:54Z</time>
      </trkpt>
      <trkpt lat="43.230599" lon="-4.909733">
        <ele>1124.792</ele>
        <time>2021-08-03T10:45:00Z</time>
      </trkpt>
      <trkpt lat="43.230618" lon="-4.909792">
        <ele>1130.137</ele>
        <time>2021-08-03T10:45:12Z</time>
      </trkpt>
      <trkpt lat="43.230646" lon="-4.909841">
        <ele>1134.670</ele>
        <time>2021-08-03T10:45:24Z</time>
      </trkpt>
      <trkpt lat="43.230635" lon="-4.909904">
        <ele>1139.175</ele>
        <time>2021-08-03T10:46:12Z</time>
      </trkpt>
      <trkpt lat="43.230636" lon="-4.90998">
        <ele>1144.847</ele>
        <time>2021-08-03T10:46:49Z</time>
      </trkpt>
      <trkpt lat="43.230658" lon="-4.910039">
        <ele>1148.329</ele>
        <time>2021-08-03T10:47:04Z</time>
      </trkpt>
      <trkpt lat="43.230661" lon="-4.910101">
        <ele>1151.321</ele>
        <time>2021-08-03T10:47:53Z</time>
      </trkpt>
      <trkpt lat="43.230667" lon="-4.910175">
        <ele>1155.008</ele>
        <time>2021-08-03T10:48:14Z</time>
      </trkpt>
      <trkpt lat="43.230694" lon="-4.910227">
        <ele>1157.531</ele>
        <time>2021-08-03T10:49:03Z</time>
      </trkpt>
      <trkpt lat="43.230658" lon="-4.910285">
        <ele>1160.413</ele>
        <time>2021-08-03T10:50:07Z</time>
      </trkpt>
      <trkpt lat="43.230702" lon="-4.910269">
        <ele>1159.633</ele>
        <time>2021-08-03T10:50:26Z</time>
      </trkpt>
      <trkpt lat="43.230726" lon="-4.910321">
        <ele>1162.289</ele>
        <time>2021-08-03T10:50:37Z</time>
      </trkpt>
      <trkpt lat="43.230728" lon="-4.910386">
        <ele>1165.579</ele>
        <time>2021-08-03T10:50:45Z</time>
      </trkpt>
      <trkpt lat="43.230807" lon="-4.910409">
        <ele>1166.614</ele>
        <time>2021-08-03T10:52:02Z</time>
      </trkpt>
      <trkpt lat="43.230838" lon="-4.910464">
        <ele>1169.667</ele>
        <time>2021-08-03T10:52:10Z</time>
      </trkpt>
      <trkpt lat="43.230834" lon="-4.910527">
        <ele>1172.662</ele>
        <time>2021-08-03T10:52:23Z</time>
      </trkpt>
      <trkpt lat="43.230809" lon="-4.910688">
        <ele>1180.882</ele>
        <time>2021-08-03T10:54:11Z</time>
      </trkpt>
      <trkpt lat="43.230759" lon="-4.910725">
        <ele>1183.043</ele>
        <time>2021-08-03T10:55:18Z</time>
      </trkpt>
      <trkpt lat="43.230805" lon="-4.910717">
        <ele>1182.317</ele>
        <time>2021-08-03T10:55:55Z</time>
      </trkpt>
      <trkpt lat="43.23085" lon="-4.910717">
        <ele>1182.908</ele>
        <time>2021-08-03T10:56:02Z</time>
      </trkpt>
      <trkpt lat="43.230893" lon="-4.910745">
        <ele>1186.385</ele>
        <time>2021-08-03T10:56:44Z</time>
      </trkpt>
      <trkpt lat="43.230923" lon="-4.910793">
        <ele>1190.097</ele>
        <time>2021-08-03T10:57:05Z</time>
      </trkpt>
      <trkpt lat="43.2309" lon="-4.910849">
        <ele>1191.787</ele>
        <time>2021-08-03T10:57:32Z</time>
      </trkpt>
      <trkpt lat="43.230945" lon="-4.910854">
        <ele>1193.833</ele>
        <time>2021-08-03T10:57:55Z</time>
      </trkpt>
      <trkpt lat="43.230977" lon="-4.910908">
        <ele>1197.573</ele>
        <time>2021-08-03T10:58:11Z</time>
      </trkpt>
      <trkpt lat="43.230968" lon="-4.910972">
        <ele>1200.198</ele>
        <time>2021-08-03T10:58:18Z</time>
      </trkpt>
      <trkpt lat="43.231" lon="-4.91102">
        <ele>1203.351</ele>
        <time>2021-08-03T10:59:13Z</time>
      </trkpt>
      <trkpt lat="43.231046" lon="-4.911018">
        <ele>1204.686</ele>
        <time>2021-08-03T10:59:24Z</time>
      </trkpt>
      <trkpt lat="43.231083" lon="-4.911055">
        <ele>1207.256</ele>
        <time>2021-08-03T11:00:34Z</time>
      </trkpt>
      <trkpt lat="43.23106" lon="-4.911111">
        <ele>1208.759</ele>
        <time>2021-08-03T11:00:50Z</time>
      </trkpt>
      <trkpt lat="43.231047" lon="-4.91117">
        <ele>1211.214</ele>
        <time>2021-08-03T11:01:13Z</time>
      </trkpt>
      <trkpt lat="43.231017" lon="-4.911216">
        <ele>1212.808</ele>
        <time>2021-08-03T11:01:27Z</time>
      </trkpt>
      <trkpt lat="43.231006" lon="-4.91128">
        <ele>1215.772</ele>
        <time>2021-08-03T11:01:34Z</time>
      </trkpt>
      <trkpt lat="43.23102" lon="-4.911339">
        <ele>1218.984</ele>
        <time>2021-08-03T11:01:47Z</time>
      </trkpt>
      <trkpt lat="43.230997" lon="-4.911392">
        <ele>1221.134</ele>
        <time>2021-08-03T11:02:17Z</time>
      </trkpt>
      <trkpt lat="43.230936" lon="-4.911414">
        <ele>1221.110</ele>
        <time>2021-08-03T11:02:46Z</time>
      </trkpt>
      <trkpt lat="43.230984" lon="-4.911411">
        <ele>1221.810</ele>
        <time>2021-08-03T11:03:04Z</time>
      </trkpt>
      <trkpt lat="43.230983" lon="-4.911479">
        <ele>1225.235</ele>
        <time>2021-08-03T11:03:29Z</time>
      </trkpt>
      <trkpt lat="43.231033" lon="-4.911479">
        <ele>1226.048</ele>
        <time>2021-08-03T11:03:38Z</time>
      </trkpt>
      <trkpt lat="43.231078" lon="-4.911475">
        <ele>1226.523</ele>
        <time>2021-08-03T11:03:46Z</time>
      </trkpt>
      <trkpt lat="43.231125" lon="-4.911476">
        <ele>1227.442</ele>
        <time>2021-08-03T11:03:59Z</time>
      </trkpt>
      <trkpt lat="43.231066" lon="-4.911391">
        <ele>1222.322</ele>
        <time>2021-08-03T11:06:28Z</time>
      </trkpt>
      <trkpt lat="43.231232" lon="-4.911457">
        <ele>1229.614</ele>
        <time>2021-08-03T11:09:22Z</time>
      </trkpt>
      <trkpt lat="43.231187" lon="-4.91147">
        <ele>1228.908</ele>
        <time>2021-08-03T11:09:42Z</time>
      </trkpt>
      <trkpt lat="43.231143" lon="-4.911517">
        <ele>1229.811</ele>
        <time>2021-08-03T11:10:04Z</time>
      </trkpt>
      <trkpt lat="43.2311" lon="-4.911694">
        <ele>1237.523</ele>
        <time>2021-08-03T11:11:49Z</time>
      </trkpt>
      <trkpt lat="43.231127" lon="-4.911639">
        <ele>1235.033</ele>
        <time>2021-08-03T11:11:58Z</time>
      </trkpt>
      <trkpt lat="43.231169" lon="-4.91167">
        <ele>1237.029</ele>
        <time>2021-08-03T11:12:05Z</time>
      </trkpt>
      <trkpt lat="43.231211" lon="-4.911647">
        <ele>1236.659</ele>
        <time>2021-08-03T11:12:36Z</time>
      </trkpt>
      <trkpt lat="43.231252" lon="-4.911674">
        <ele>1238.414</ele>
        <time>2021-08-03T11:12:45Z</time>
      </trkpt>
      <trkpt lat="43.231296" lon="-4.911698">
        <ele>1240.257</ele>
        <time>2021-08-03T11:13:01Z</time>
      </trkpt>
      <trkpt lat="43.231344" lon="-4.911713">
        <ele>1241.582</ele>
        <time>2021-08-03T11:13:12Z</time>
      </trkpt>
      <trkpt lat="43.231379" lon="-4.911752">
        <ele>1243.627</ele>
        <time>2021-08-03T11:13:22Z</time>
      </trkpt>
      <trkpt lat="43.23143" lon="-4.91176">
        <ele>1246.068</ele>
        <time>2021-08-03T11:13:30Z</time>
      </trkpt>
      <trkpt lat="43.231477" lon="-4.91176">
        <ele>1248.214</ele>
        <time>2021-08-03T11:13:35Z</time>
      </trkpt>
      <trkpt lat="43.231522" lon="-4.911773">
        <ele>1250.708</ele>
        <time>2021-08-03T11:15:04Z</time>
      </trkpt>
      <trkpt lat="43.231554" lon="-4.911819">
        <ele>1253.549</ele>
        <time>2021-08-03T11:15:27Z</time>
      </trkpt>
      <trkpt lat="43.231606" lon="-4.911849">
        <ele>1256.541</ele>
        <time>2021-08-03T11:16:01Z</time>
      </trkpt>
      <trkpt lat="43.231654" lon="-4.911834">
        <ele>1258.171</ele>
        <time>2021-08-03T11:16:19Z</time>
      </trkpt>
      <trkpt lat="43.231719" lon="-4.911848">
        <ele>1261.887</ele>
        <time>2021-08-03T11:17:15Z</time>
      </trkpt>
      <trkpt lat="43.231744" lon="-4.911786">
        <ele>1262.057</ele>
        <time>2021-08-03T11:21:32Z</time>
      </trkpt>
      <trkpt lat="43.231769" lon="-4.911733">
        <ele>1262.422</ele>
        <time>2021-08-03T11:21:37Z</time>
      </trkpt>
      <trkpt lat="43.231814" lon="-4.911737">
        <ele>1265.115</ele>
        <time>2021-08-03T11:24:18Z</time>
      </trkpt>
      <trkpt lat="43.23186" lon="-4.911725">
        <ele>1267.730</ele>
        <time>2021-08-03T11:24:36Z</time>
      </trkpt>
      <trkpt lat="43.231908" lon="-4.911742">
        <ele>1270.793</ele>
        <time>2021-08-03T11:24:56Z</time>
      </trkpt>
      <trkpt lat="43.231906" lon="-4.91168">
        <ele>1269.865</ele>
        <time>2021-08-03T11:25:27Z</time>
      </trkpt>
      <trkpt lat="43.231931" lon="-4.91162">
        <ele>1271.321</ele>
        <time>2021-08-03T11:25:54Z</time>
      </trkpt>
      <trkpt lat="43.231951" lon="-4.911564">
        <ele>1272.908</ele>
        <time>2021-08-03T11:26:05Z</time>
      </trkpt>
      <trkpt lat="43.231994" lon="-4.911585">
        <ele>1276.776</ele>
        <time>2021-08-03T11:26:29Z</time>
      </trkpt>
      <trkpt lat="43.232038" lon="-4.911574">
        <ele>1280.598</ele>
        <time>2021-08-03T11:26:42Z</time>
      </trkpt>
      <trkpt lat="43.232063" lon="-4.911521">
        <ele>1282.538</ele>
        <time>2021-08-03T11:27:25Z</time>
      </trkpt>
      <trkpt lat="43.232108" lon="-4.911522">
        <ele>1286.334</ele>
        <time>2021-08-03T11:27:36Z</time>
      </trkpt>
      <trkpt lat="43.23216" lon="-4.911556">
        <ele>1291.084</ele>
        <time>2021-08-03T11:27:58Z</time>
      </trkpt>
      <trkpt lat="43.232205" lon="-4.91149">
        <ele>1294.049</ele>
        <time>2021-08-03T11:28:26Z</time>
      </trkpt>
      <trkpt lat="43.232248" lon="-4.911457">
        <ele>1297.132</ele>
        <time>2021-08-03T11:28:40Z</time>
      </trkpt>
      <trkpt lat="43.232207" lon="-4.911422">
        <ele>1293.337</ele>
        <time>2021-08-03T11:29:26Z</time>
      </trkpt>
      <trkpt lat="43.232263" lon="-4.911404">
        <ele>1297.425</ele>
        <time>2021-08-03T11:30:00Z</time>
      </trkpt>
      <trkpt lat="43.232307" lon="-4.911386">
        <ele>1300.426</ele>
        <time>2021-08-03T11:30:38Z</time>
      </trkpt>
      <trkpt lat="43.232323" lon="-4.911328">
        <ele>1302.408</ele>
        <time>2021-08-03T11:31:01Z</time>
      </trkpt>
      <trkpt lat="43.232369" lon="-4.911333">
        <ele>1305.808</ele>
        <time>2021-08-03T11:31:18Z</time>
      </trkpt>
      <trkpt lat="43.232415" lon="-4.911339">
        <ele>1309.299</ele>
        <time>2021-08-03T11:31:30Z</time>
      </trkpt>
      <trkpt lat="43.232458" lon="-4.911357">
        <ele>1312.261</ele>
        <time>2021-08-03T11:32:01Z</time>
      </trkpt>
      <trkpt lat="43.232503" lon="-4.911346">
        <ele>1315.771</ele>
        <time>2021-08-03T11:32:43Z</time>
      </trkpt>
      <trkpt lat="43.232549" lon="-4.911327">
        <ele>1318.917</ele>
        <time>2021-08-03T11:32:54Z</time>
      </trkpt>
      <trkpt lat="43.232596" lon="-4.911326">
        <ele>1322.097</ele>
        <time>2021-08-03T11:33:15Z</time>
      </trkpt>
      <trkpt lat="43.232643" lon="-4.911326">
        <ele>1325.162</ele>
        <time>2021-08-03T11:33:29Z</time>
      </trkpt>
      <trkpt lat="43.232659" lon="-4.911268">
        <ele>1326.445</ele>
        <time>2021-08-03T11:34:09Z</time>
      </trkpt>
      <trkpt lat="43.232706" lon="-4.911256">
        <ele>1329.550</ele>
        <time>2021-08-03T11:34:50Z</time>
      </trkpt>
      <trkpt lat="43.23275" lon="-4.911275">
        <ele>1332.283</ele>
        <time>2021-08-03T11:35:05Z</time>
      </trkpt>
      <trkpt lat="43.232797" lon="-4.911275">
        <ele>1335.525</ele>
        <time>2021-08-03T11:35:21Z</time>
      </trkpt>
      <trkpt lat="43.232841" lon="-4.91129">
        <ele>1339.117</ele>
        <time>2021-08-03T11:36:12Z</time>
      </trkpt>
      <trkpt lat="43.232872" lon="-4.911237">
        <ele>1341.208</ele>
        <time>2021-08-03T11:36:30Z</time>
      </trkpt>
      <trkpt lat="43.232883" lon="-4.911176">
        <ele>1341.655</ele>
        <time>2021-08-03T11:36:58Z</time>
      </trkpt>
      <trkpt lat="43.232922" lon="-4.911215">
        <ele>1344.887</ele>
        <time>2021-08-03T11:37:18Z</time>
      </trkpt>
      <trkpt lat="43.23295" lon="-4.911268">
        <ele>1347.587</ele>
        <time>2021-08-03T11:37:31Z</time>
      </trkpt>
      <trkpt lat="43.232995" lon="-4.911277">
        <ele>1351.213</ele>
        <time>2021-08-03T11:38:01Z</time>
      </trkpt>
      <trkpt lat="43.233036" lon="-4.911313">
        <ele>1355.043</ele>
        <time>2021-08-03T11:38:22Z</time>
      </trkpt>
      <trkpt lat="43.233068" lon="-4.911357">
        <ele>1356.738</ele>
        <time>2021-08-03T11:38:55Z</time>
      </trkpt>
      <trkpt lat="43.233096" lon="-4.911406">
        <ele>1356.021</ele>
        <time>2021-08-03T11:39:24Z</time>
      </trkpt>
      <trkpt lat="43.23311" lon="-4.911466">
        <ele>1357.016</ele>
        <time>2021-08-03T11:39:52Z</time>
      </trkpt>
      <trkpt lat="43.233103" lon="-4.911532">
        <ele>1359.322</ele>
        <time>2021-08-03T11:40:04Z</time>
      </trkpt>
      <trkpt lat="43.233085" lon="-4.91159">
        <ele>1361.862</ele>
        <time>2021-08-03T11:40:13Z</time>
      </trkpt>
      <trkpt lat="43.233066" lon="-4.911651">
        <ele>1364.208</ele>
        <time>2021-08-03T11:40:28Z</time>
      </trkpt>
      <trkpt lat="43.23307" lon="-4.911713">
        <ele>1367.008</ele>
        <time>2021-08-03T11:40:44Z</time>
      </trkpt>
      <trkpt lat="43.233104" lon="-4.911754">
        <ele>1368.479</ele>
        <time>2021-08-03T11:41:34Z</time>
      </trkpt>
      <trkpt lat="43.233133" lon="-4.911805">
        <ele>1370.791</ele>
        <time>2021-08-03T11:42:00Z</time>
      </trkpt>
      <trkpt lat="43.233134" lon="-4.91187">
        <ele>1374.691</ele>
        <time>2021-08-03T11:42:11Z</time>
      </trkpt>
      <trkpt lat="43.233181" lon="-4.911919">
        <ele>1377.037</ele>
        <time>2021-08-03T11:43:04Z</time>
      </trkpt>
      <trkpt lat="43.233167" lon="-4.911985">
        <ele>1382.217</ele>
        <time>2021-08-03T11:43:36Z</time>
      </trkpt>
      <trkpt lat="43.23316" lon="-4.912047">
        <ele>1387.552</ele>
        <time>2021-08-03T11:44:03Z</time>
      </trkpt>
      <trkpt lat="43.233153" lon="-4.912111">
        <ele>1393.095</ele>
        <time>2021-08-03T11:44:42Z</time>
      </trkpt>
      <trkpt lat="43.233197" lon="-4.912133">
        <ele>1394.850</ele>
        <time>2021-08-03T11:44:53Z</time>
      </trkpt>
      <trkpt lat="43.233245" lon="-4.912142">
        <ele>1395.575</ele>
        <time>2021-08-03T11:45:25Z</time>
      </trkpt>
      <trkpt lat="43.233283" lon="-4.912181">
        <ele>1399.128</ele>
        <time>2021-08-03T11:45:34Z</time>
      </trkpt>
      <trkpt lat="43.233321" lon="-4.912223">
        <ele>1403.020</ele>
        <time>2021-08-03T11:45:45Z</time>
      </trkpt>
      <trkpt lat="43.233357" lon="-4.912262">
        <ele>1405.208</ele>
        <time>2021-08-03T11:45:57Z</time>
      </trkpt>
      <trkpt lat="43.233372" lon="-4.912322">
        <ele>1407.944</ele>
        <time>2021-08-03T11:46:10Z</time>
      </trkpt>
      <trkpt lat="43.233382" lon="-4.912384">
        <ele>1410.516</ele>
        <time>2021-08-03T11:46:34Z</time>
      </trkpt>
      <trkpt lat="43.233379" lon="-4.912448">
        <ele>1412.756</ele>
        <time>2021-08-03T11:46:45Z</time>
      </trkpt>
      <trkpt lat="43.233398" lon="-4.912506">
        <ele>1415.452</ele>
        <time>2021-08-03T11:47:02Z</time>
      </trkpt>
      <trkpt lat="43.233396" lon="-4.912571">
        <ele>1415.932</ele>
        <time>2021-08-03T11:47:16Z</time>
      </trkpt>
      <trkpt lat="43.233428" lon="-4.912621">
        <ele>1417.957</ele>
        <time>2021-08-03T11:47:47Z</time>
      </trkpt>
      <trkpt lat="43.233461" lon="-4.912664">
        <ele>1420.120</ele>
        <time>2021-08-03T11:47:59Z</time>
      </trkpt>
      <trkpt lat="43.233507" lon="-4.912673">
        <ele>1422.655</ele>
        <time>2021-08-03T11:49:26Z</time>
      </trkpt>
      <trkpt lat="43.233626" lon="-4.91273">
        <ele>1431.019</ele>
        <time>2021-08-03T11:50:34Z</time>
      </trkpt>
      <trkpt lat="43.233626" lon="-4.912668">
        <ele>1429.309</ele>
        <time>2021-08-03T11:51:30Z</time>
      </trkpt>
      <trkpt lat="43.233579" lon="-4.912662">
        <ele>1426.019</ele>
        <time>2021-08-03T11:51:55Z</time>
      </trkpt>
      <trkpt lat="43.233615" lon="-4.9127">
        <ele>1429.108</ele>
        <time>2021-08-03T11:52:20Z</time>
      </trkpt>
      <trkpt lat="43.23364" lon="-4.912753">
        <ele>1432.898</ele>
        <time>2021-08-03T11:52:33Z</time>
      </trkpt>
      <trkpt lat="43.233628" lon="-4.912813">
        <ele>1432.760</ele>
        <time>2021-08-03T11:52:52Z</time>
      </trkpt>
      <trkpt lat="43.233599" lon="-4.912894">
        <ele>1430.920</ele>
        <time>2021-08-03T11:53:16Z</time>
      </trkpt>
      <trkpt lat="43.233553" lon="-4.912908">
        <ele>1427.446</ele>
        <time>2021-08-03T11:54:24Z</time>
      </trkpt>
      <trkpt lat="43.233635" lon="-4.912936">
        <ele>1434.316</ele>
        <time>2021-08-03T11:55:31Z</time>
      </trkpt>
      <trkpt lat="43.233588" lon="-4.91293">
        <ele>1430.261</ele>
        <time>2021-08-03T11:55:44Z</time>
      </trkpt>
      <trkpt lat="43.233546" lon="-4.912906">
        <ele>1426.984</ele>
        <time>2021-08-03T11:55:51Z</time>
      </trkpt>
      <trkpt lat="43.233574" lon="-4.912857">
        <ele>1428.989</ele>
        <time>2021-08-03T11:57:22Z</time>
      </trkpt>
      <trkpt lat="43.233633" lon="-4.91285">
        <ele>1433.546</ele>
        <time>2021-08-03T11:57:39Z</time>
      </trkpt>
      <trkpt lat="43.23368" lon="-4.912839">
        <ele>1437.688</ele>
        <time>2021-08-03T11:57:45Z</time>
      </trkpt>
      <trkpt lat="43.233726" lon="-4.912849">
        <ele>1441.816</ele>
        <time>2021-08-03T11:57:52Z</time>
      </trkpt>
      <trkpt lat="43.233742" lon="-4.912908">
        <ele>1443.908</ele>
        <time>2021-08-03T11:58:02Z</time>
      </trkpt>
      <trkpt lat="43.233789" lon="-4.912897">
        <ele>1448.131</ele>
        <time>2021-08-03T11:58:14Z</time>
      </trkpt>
      <trkpt lat="43.233831" lon="-4.912862">
        <ele>1451.373</ele>
        <time>2021-08-03T11:58:47Z</time>
      </trkpt>
      <trkpt lat="43.233872" lon="-4.912811">
        <ele>1454.133</ele>
        <time>2021-08-03T11:59:34Z</time>
      </trkpt>
      <trkpt lat="43.233839" lon="-4.912767">
        <ele>1450.679</ele>
        <time>2021-08-03T11:59:42Z</time>
      </trkpt>
      <trkpt lat="43.233842" lon="-4.912699">
        <ele>1450.149</ele>
        <time>2021-08-03T11:59:53Z</time>
      </trkpt>
      <trkpt lat="43.233872" lon="-4.912652">
        <ele>1452.554</ele>
        <time>2021-08-03T12:00:05Z</time>
      </trkpt>
      <trkpt lat="43.233912" lon="-4.912623">
        <ele>1456.177</ele>
        <time>2021-08-03T12:00:11Z</time>
      </trkpt>
      <trkpt lat="43.233938" lon="-4.912569">
        <ele>1458.092</ele>
        <time>2021-08-03T12:00:33Z</time>
      </trkpt>
      <trkpt lat="43.233982" lon="-4.912588">
        <ele>1462.343</ele>
        <time>2021-08-03T12:01:23Z</time>
      </trkpt>
      <trkpt lat="43.234016" lon="-4.912544">
        <ele>1465.064</ele>
        <time>2021-08-03T12:01:39Z</time>
      </trkpt>
      <trkpt lat="43.234033" lon="-4.912484">
        <ele>1465.610</ele>
        <time>2021-08-03T12:01:46Z</time>
      </trkpt>
      <trkpt lat="43.23404" lon="-4.912417">
        <ele>1464.608</ele>
        <time>2021-08-03T12:01:57Z</time>
      </trkpt>
      <trkpt lat="43.23407" lon="-4.912362">
        <ele>1465.751</ele>
        <time>2021-08-03T12:02:09Z</time>
      </trkpt>
      <trkpt lat="43.234103" lon="-4.912318">
        <ele>1467.163</ele>
        <time>2021-08-03T12:02:20Z</time>
      </trkpt>
      <trkpt lat="43.234144" lon="-4.912277">
        <ele>1469.163</ele>
        <time>2021-08-03T12:02:37Z</time>
      </trkpt>
      <trkpt lat="43.234106" lon="-4.912325">
        <ele>1467.649</ele>
        <time>2021-08-03T12:02:47Z</time>
      </trkpt>
      <trkpt lat="43.234074" lon="-4.912379">
        <ele>1466.569</ele>
        <time>2021-08-03T12:02:54Z</time>
      </trkpt>
      <trkpt lat="43.234037" lon="-4.912418">
        <ele>1464.434</ele>
        <time>2021-08-03T12:03:05Z</time>
      </trkpt>
      <trkpt lat="43.234035" lon="-4.912484">
        <ele>1465.827</ele>
        <time>2021-08-03T12:03:28Z</time>
      </trkpt>
      <trkpt lat="43.234064" lon="-4.912532">
        <ele>1469.232</ele>
        <time>2021-08-03T12:03:34Z</time>
      </trkpt>
      <trkpt lat="43.234064" lon="-4.912595">
        <ele>1470.155</ele>
        <time>2021-08-03T12:03:39Z</time>
      </trkpt>
      <trkpt lat="43.234048" lon="-4.912658">
        <ele>1469.407</ele>
        <time>2021-08-03T12:03:46Z</time>
      </trkpt>
      <trkpt lat="43.234031" lon="-4.912723">
        <ele>1468.617</ele>
        <time>2021-08-03T12:03:52Z</time>
      </trkpt>
      <trkpt lat="43.23405" lon="-4.912798">
        <ele>1471.408</ele>
        <time>2021-08-03T12:04:29Z</time>
      </trkpt>
      <trkpt lat="43.234033" lon="-4.912734">
        <ele>1469.062</ele>
        <time>2021-08-03T12:07:47Z</time>
      </trkpt>
      <trkpt lat="43.234016" lon="-4.912674">
        <ele>1466.664</ele>
        <time>2021-08-03T12:07:58Z</time>
      </trkpt>
      <trkpt lat="43.233971" lon="-4.912689">
        <ele>1462.474</ele>
        <time>2021-08-03T12:08:27Z</time>
      </trkpt>
      <trkpt lat="43.233937" lon="-4.912731">
        <ele>1459.430</ele>
        <time>2021-08-03T12:08:54Z</time>
      </trkpt>
      <trkpt lat="43.233895" lon="-4.912773">
        <ele>1455.660</ele>
        <time>2021-08-03T12:09:13Z</time>
      </trkpt>
      <trkpt lat="43.233892" lon="-4.912835">
        <ele>1456.315</ele>
        <time>2021-08-03T12:09:30Z</time>
      </trkpt>
      <trkpt lat="43.233896" lon="-4.912909">
        <ele>1458.038</ele>
        <time>2021-08-03T12:09:37Z</time>
      </trkpt>
      <trkpt lat="43.233909" lon="-4.912969">
        <ele>1460.383</ele>
        <time>2021-08-03T12:09:49Z</time>
      </trkpt>
      <trkpt lat="43.233918" lon="-4.91303">
        <ele>1462.169</ele>
        <time>2021-08-03T12:09:55Z</time>
      </trkpt>
      <trkpt lat="43.23393" lon="-4.913095">
        <ele>1464.604</ele>
        <time>2021-08-03T12:10:09Z</time>
      </trkpt>
      <trkpt lat="43.233905" lon="-4.913147">
        <ele>1463.924</ele>
        <time>2021-08-03T12:10:31Z</time>
      </trkpt>
      <trkpt lat="43.233866" lon="-4.913189">
        <ele>1461.408</ele>
        <time>2021-08-03T12:10:43Z</time>
      </trkpt>
      <trkpt lat="43.233852" lon="-4.913249">
        <ele>1461.543</ele>
        <time>2021-08-03T12:10:50Z</time>
      </trkpt>
      <trkpt lat="43.23386" lon="-4.913318">
        <ele>1464.315</ele>
        <time>2021-08-03T12:10:55Z</time>
      </trkpt>
      <trkpt lat="43.233849" lon="-4.913378">
        <ele>1464.395</ele>
        <time>2021-08-03T12:11:03Z</time>
      </trkpt>
      <trkpt lat="43.23385" lon="-4.913445">
        <ele>1465.971</ele>
        <time>2021-08-03T12:11:12Z</time>
      </trkpt>
      <trkpt lat="43.23385" lon="-4.913513">
        <ele>1467.351</ele>
        <time>2021-08-03T12:11:17Z</time>
      </trkpt>
      <trkpt lat="43.233851" lon="-4.913577">
        <ele>1468.876</ele>
        <time>2021-08-03T12:11:24Z</time>
      </trkpt>
      <trkpt lat="43.233835" lon="-4.913643">
        <ele>1467.599</ele>
        <time>2021-08-03T12:11:33Z</time>
      </trkpt>
      <trkpt lat="43.23384" lon="-4.913707">
        <ele>1467.854</ele>
        <time>2021-08-03T12:11:37Z</time>
      </trkpt>
      <trkpt lat="43.233859" lon="-4.913763">
        <ele>1469.727</ele>
        <time>2021-08-03T12:11:42Z</time>
      </trkpt>
      <trkpt lat="43.233889" lon="-4.913811">
        <ele>1472.668</ele>
        <time>2021-08-03T12:11:54Z</time>
      </trkpt>
      <trkpt lat="43.233937" lon="-4.913882">
        <ele>1475.014</ele>
        <time>2021-08-03T12:12:07Z</time>
      </trkpt>
      <trkpt lat="43.23392" lon="-4.913946">
        <ele>1474.508</ele>
        <time>2021-08-03T12:12:19Z</time>
      </trkpt>
      <trkpt lat="43.233919" lon="-4.914012">
        <ele>1475.229</ele>
        <time>2021-08-03T12:12:25Z</time>
      </trkpt>
      <trkpt lat="43.233908" lon="-4.914079">
        <ele>1475.311</ele>
        <time>2021-08-03T12:12:31Z</time>
      </trkpt>
      <trkpt lat="43.2339" lon="-4.914143">
        <ele>1475.581</ele>
        <time>2021-08-03T12:12:40Z</time>
      </trkpt>
      <trkpt lat="43.233882" lon="-4.914202">
        <ele>1474.497</ele>
        <time>2021-08-03T12:12:49Z</time>
      </trkpt>
      <trkpt lat="43.233867" lon="-4.914273">
        <ele>1473.357</ele>
        <time>2021-08-03T12:12:55Z</time>
      </trkpt>
      <trkpt lat="43.233866" lon="-4.914335">
        <ele>1473.642</ele>
        <time>2021-08-03T12:13:09Z</time>
      </trkpt>
      <trkpt lat="43.23388" lon="-4.914406">
        <ele>1475.195</ele>
        <time>2021-08-03T12:13:15Z</time>
      </trkpt>
      <trkpt lat="43.233886" lon="-4.914477">
        <ele>1477.510</ele>
        <time>2021-08-03T12:13:23Z</time>
      </trkpt>
      <trkpt lat="43.233888" lon="-4.91454">
        <ele>1481.132</ele>
        <time>2021-08-03T12:13:35Z</time>
      </trkpt>
      <trkpt lat="43.233872" lon="-4.914601">
        <ele>1483.092</ele>
        <time>2021-08-03T12:13:50Z</time>
      </trkpt>
      <trkpt lat="43.23388" lon="-4.914665">
        <ele>1487.211</ele>
        <time>2021-08-03T12:14:34Z</time>
      </trkpt>
      <trkpt lat="43.233874" lon="-4.914727">
        <ele>1490.108</ele>
        <time>2021-08-03T12:14:49Z</time>
      </trkpt>
      <trkpt lat="43.233867" lon="-4.91479">
        <ele>1494.490</ele>
        <time>2021-08-03T12:14:57Z</time>
      </trkpt>
      <trkpt lat="43.233887" lon="-4.914854">
        <ele>1501.382</ele>
        <time>2021-08-03T12:15:06Z</time>
      </trkpt>
      <trkpt lat="43.233861" lon="-4.914963">
        <ele>1507.532</ele>
        <time>2021-08-03T12:16:07Z</time>
      </trkpt>
      <trkpt lat="43.233872" lon="-4.915023">
        <ele>1511.848</ele>
        <time>2021-08-03T12:16:14Z</time>
      </trkpt>
      <trkpt lat="43.233823" lon="-4.915021">
        <ele>1507.438</ele>
        <time>2021-08-03T12:16:21Z</time>
      </trkpt>
      <trkpt lat="43.233775" lon="-4.915016">
        <ele>1503.013</ele>
        <time>2021-08-03T12:16:37Z</time>
      </trkpt>
      <trkpt lat="43.233738" lon="-4.914979">
        <ele>1497.346</ele>
        <time>2021-08-03T12:16:51Z</time>
      </trkpt>
      <trkpt lat="43.233698" lon="-4.915023">
        <ele>1496.511</ele>
        <time>2021-08-03T12:17:17Z</time>
      </trkpt>
      <trkpt lat="43.23367" lon="-4.915084">
        <ele>1498.241</ele>
        <time>2021-08-03T12:17:23Z</time>
      </trkpt>
      <trkpt lat="43.23365" lon="-4.915148">
        <ele>1501.481</ele>
        <time>2021-08-03T12:17:29Z</time>
      </trkpt>
      <trkpt lat="43.233642" lon="-4.915211">
        <ele>1505.709</ele>
        <time>2021-08-03T12:17:35Z</time>
      </trkpt>
      <trkpt lat="43.233638" lon="-4.915274">
        <ele>1510.308</ele>
        <time>2021-08-03T12:18:29Z</time>
      </trkpt>
      <trkpt lat="43.23368" lon="-4.915304">
        <ele>1512.421</ele>
        <time>2021-08-03T12:18:44Z</time>
      </trkpt>
      <trkpt lat="43.233703" lon="-4.91536">
        <ele>1514.523</ele>
        <time>2021-08-03T12:19:11Z</time>
      </trkpt>
      <trkpt lat="43.233741" lon="-4.915407">
        <ele>1515.893</ele>
        <time>2021-08-03T12:19:39Z</time>
      </trkpt>
      <trkpt lat="43.233753" lon="-4.915474">
        <ele>1517.229</ele>
        <time>2021-08-03T12:19:46Z</time>
      </trkpt>
      <trkpt lat="43.233781" lon="-4.915523">
        <ele>1517.669</ele>
        <time>2021-08-03T12:19:58Z</time>
      </trkpt>
      <trkpt lat="43.233797" lon="-4.915582">
        <ele>1517.724</ele>
        <time>2021-08-03T12:21:07Z</time>
      </trkpt>
      <trkpt lat="43.233805" lon="-4.915651">
        <ele>1517.737</ele>
        <time>2021-08-03T12:21:12Z</time>
      </trkpt>
      <trkpt lat="43.233817" lon="-4.915741">
        <ele>1517.742</ele>
        <time>2021-08-03T12:21:16Z</time>
      </trkpt>
      <trkpt lat="43.233824" lon="-4.915806">
        <ele>1517.886</ele>
        <time>2021-08-03T12:21:19Z</time>
      </trkpt>
      <trkpt lat="43.233812" lon="-4.91587">
        <ele>1518.660</ele>
        <time>2021-08-03T12:21:29Z</time>
      </trkpt>
      <trkpt lat="43.233816" lon="-4.915939">
        <ele>1519.426</ele>
        <time>2021-08-03T12:21:36Z</time>
      </trkpt>
      <trkpt lat="43.233846" lon="-4.915995">
        <ele>1520.308</ele>
        <time>2021-08-03T12:22:03Z</time>
      </trkpt>
      <trkpt lat="43.233831" lon="-4.916057">
        <ele>1521.285</ele>
        <time>2021-08-03T12:22:22Z</time>
      </trkpt>
      <trkpt lat="43.23383" lon="-4.916131">
        <ele>1522.767</ele>
        <time>2021-08-03T12:22:27Z</time>
      </trkpt>
      <trkpt lat="43.233803" lon="-4.916182">
        <ele>1523.987</ele>
        <time>2021-08-03T12:22:46Z</time>
      </trkpt>
      <trkpt lat="43.233768" lon="-4.916225">
        <ele>1524.493</ele>
        <time>2021-08-03T12:22:51Z</time>
      </trkpt>
      <trkpt lat="43.233731" lon="-4.916268">
        <ele>1524.853</ele>
        <time>2021-08-03T12:23:00Z</time>
      </trkpt>
      <trkpt lat="43.233719" lon="-4.91633">
        <ele>1526.218</ele>
        <time>2021-08-03T12:23:06Z</time>
      </trkpt>
      <trkpt lat="43.233734" lon="-4.916393">
        <ele>1528.551</ele>
        <time>2021-08-03T12:23:35Z</time>
      </trkpt>
      <trkpt lat="43.23374" lon="-4.916455">
        <ele>1529.386</ele>
        <time>2021-08-03T12:23:58Z</time>
      </trkpt>
      <trkpt lat="43.233725" lon="-4.916518">
        <ele>1529.564</ele>
        <time>2021-08-03T12:24:16Z</time>
      </trkpt>
      <trkpt lat="43.233754" lon="-4.916585">
        <ele>1530.906</ele>
        <time>2021-08-03T12:24:23Z</time>
      </trkpt>
      <trkpt lat="43.233771" lon="-4.916644">
        <ele>1531.716</ele>
        <time>2021-08-03T12:24:29Z</time>
      </trkpt>
      <trkpt lat="43.233789" lon="-4.916709">
        <ele>1532.508</ele>
        <time>2021-08-03T12:24:32Z</time>
      </trkpt>
      <trkpt lat="43.2338" lon="-4.91677">
        <ele>1533.113</ele>
        <time>2021-08-03T12:24:36Z</time>
      </trkpt>
      <trkpt lat="43.233834" lon="-4.91681">
        <ele>1533.865</ele>
        <time>2021-08-03T12:24:42Z</time>
      </trkpt>
      <trkpt lat="43.233879" lon="-4.916823">
        <ele>1534.475</ele>
        <time>2021-08-03T12:24:50Z</time>
      </trkpt>
      <trkpt lat="43.233879" lon="-4.916889">
        <ele>1534.741</ele>
        <time>2021-08-03T12:24:55Z</time>
      </trkpt>
      <trkpt lat="43.233923" lon="-4.916913">
        <ele>1534.341</ele>
        <time>2021-08-03T12:25:00Z</time>
      </trkpt>
      <trkpt lat="43.233957" lon="-4.916956">
        <ele>1533.476</ele>
        <time>2021-08-03T12:25:05Z</time>
      </trkpt>
      <trkpt lat="43.233985" lon="-4.917019">
        <ele>1531.949</ele>
        <time>2021-08-03T12:25:29Z</time>
      </trkpt>
      <trkpt lat="43.234006" lon="-4.917084">
        <ele>1530.564</ele>
        <time>2021-08-03T12:25:57Z</time>
      </trkpt>
      <trkpt lat="43.23401" lon="-4.917149">
        <ele>1529.579</ele>
        <time>2021-08-03T12:26:03Z</time>
      </trkpt>
      <trkpt lat="43.233982" lon="-4.917198">
        <ele>1529.605</ele>
        <time>2021-08-03T12:26:15Z</time>
      </trkpt>
      <trkpt lat="43.233981" lon="-4.91726">
        <ele>1528.725</ele>
        <time>2021-08-03T12:26:57Z</time>
      </trkpt>
      <trkpt lat="43.233948" lon="-4.917303">
        <ele>1528.708</ele>
        <time>2021-08-03T12:27:01Z</time>
      </trkpt>
      <trkpt lat="43.233927" lon="-4.917361">
        <ele>1528.154</ele>
        <time>2021-08-03T12:27:11Z</time>
      </trkpt>
      <trkpt lat="43.233915" lon="-4.917422">
        <ele>1527.166</ele>
        <time>2021-08-03T12:27:17Z</time>
      </trkpt>
      <trkpt lat="43.233886" lon="-4.917478">
        <ele>1526.696</ele>
        <time>2021-08-03T12:27:20Z</time>
      </trkpt>
      <trkpt lat="43.233853" lon="-4.917539">
        <ele>1526.712</ele>
        <time>2021-08-03T12:27:24Z</time>
      </trkpt>
      <trkpt lat="43.233833" lon="-4.917597">
        <ele>1526.632</ele>
        <time>2021-08-03T12:27:28Z</time>
      </trkpt>
      <trkpt lat="43.23382" lon="-4.917656">
        <ele>1526.357</ele>
        <time>2021-08-03T12:27:33Z</time>
      </trkpt>
      <trkpt lat="43.2338" lon="-4.917716">
        <ele>1526.040</ele>
        <time>2021-08-03T12:27:43Z</time>
      </trkpt>
      <trkpt lat="43.233844" lon="-4.917747">
        <ele>1524.565</ele>
        <time>2021-08-03T12:27:57Z</time>
      </trkpt>
      <trkpt lat="43.2338" lon="-4.917772">
        <ele>1525.387</ele>
        <time>2021-08-03T12:28:02Z</time>
      </trkpt>
      <trkpt lat="43.23376" lon="-4.917803">
        <ele>1526.442</ele>
        <time>2021-08-03T12:28:10Z</time>
      </trkpt>
      <trkpt lat="43.23374" lon="-4.917874">
        <ele>1527.026</ele>
        <time>2021-08-03T12:28:17Z</time>
      </trkpt>
      <trkpt lat="43.233727" lon="-4.917952">
        <ele>1527.408</ele>
        <time>2021-08-03T12:28:21Z</time>
      </trkpt>
      <trkpt lat="43.23373" lon="-4.91802">
        <ele>1527.595</ele>
        <time>2021-08-03T12:28:25Z</time>
      </trkpt>
      <trkpt lat="43.233736" lon="-4.918084">
        <ele>1527.797</ele>
        <time>2021-08-03T12:28:31Z</time>
      </trkpt>
      <trkpt lat="43.233763" lon="-4.918134">
        <ele>1527.727</ele>
        <time>2021-08-03T12:28:41Z</time>
      </trkpt>
      <trkpt lat="43.233774" lon="-4.918197">
        <ele>1527.983</ele>
        <time>2021-08-03T12:28:51Z</time>
      </trkpt>
      <trkpt lat="43.233776" lon="-4.918266">
        <ele>1528.243</ele>
        <time>2021-08-03T12:29:00Z</time>
      </trkpt>
      <trkpt lat="43.233796" lon="-4.918328">
        <ele>1528.358</ele>
        <time>2021-08-03T12:29:14Z</time>
      </trkpt>
      <trkpt lat="43.233817" lon="-4.918395">
        <ele>1528.861</ele>
        <time>2021-08-03T12:29:21Z</time>
      </trkpt>
      <trkpt lat="43.233837" lon="-4.918455">
        <ele>1529.216</ele>
        <time>2021-08-03T12:29:28Z</time>
      </trkpt>
      <trkpt lat="43.233832" lon="-4.918521">
        <ele>1529.839</ele>
        <time>2021-08-03T12:29:34Z</time>
      </trkpt>
      <trkpt lat="43.233869" lon="-4.918557">
        <ele>1529.801</ele>
        <time>2021-08-03T12:29:44Z</time>
      </trkpt>
      <trkpt lat="43.233899" lon="-4.918608">
        <ele>1530.121</ele>
        <time>2021-08-03T12:29:56Z</time>
      </trkpt>
      <trkpt lat="43.233899" lon="-4.918673">
        <ele>1531.508</ele>
        <time>2021-08-03T12:30:38Z</time>
      </trkpt>
      <trkpt lat="43.233913" lon="-4.918733">
        <ele>1532.970</ele>
        <time>2021-08-03T12:31:10Z</time>
      </trkpt>
      <trkpt lat="43.233955" lon="-4.918769">
        <ele>1534.242</ele>
        <time>2021-08-03T12:31:20Z</time>
      </trkpt>
      <trkpt lat="43.234" lon="-4.918796">
        <ele>1535.372</ele>
        <time>2021-08-03T12:31:28Z</time>
      </trkpt>
      <trkpt lat="43.234029" lon="-4.918844">
        <ele>1536.678</ele>
        <time>2021-08-03T12:31:36Z</time>
      </trkpt>
      <trkpt lat="43.234072" lon="-4.918874">
        <ele>1537.798</ele>
        <time>2021-08-03T12:32:22Z</time>
      </trkpt>
      <trkpt lat="43.234115" lon="-4.918853">
        <ele>1537.883</ele>
        <time>2021-08-03T12:32:28Z</time>
      </trkpt>
      <trkpt lat="43.23416" lon="-4.918821">
        <ele>1537.736</ele>
        <time>2021-08-03T12:32:37Z</time>
      </trkpt>
      <trkpt lat="43.234189" lon="-4.918761">
        <ele>1537.151</ele>
        <time>2021-08-03T12:33:03Z</time>
      </trkpt>
      <trkpt lat="43.234237" lon="-4.918754">
        <ele>1537.916</ele>
        <time>2021-08-03T12:33:30Z</time>
      </trkpt>
      <trkpt lat="43.234285" lon="-4.91876">
        <ele>1538.976</ele>
        <time>2021-08-03T12:33:35Z</time>
      </trkpt>
      <trkpt lat="43.234333" lon="-4.918755">
        <ele>1539.613</ele>
        <time>2021-08-03T12:33:41Z</time>
      </trkpt>
      <trkpt lat="43.234365" lon="-4.918804">
        <ele>1541.608</ele>
        <time>2021-08-03T12:33:58Z</time>
      </trkpt>
      <trkpt lat="43.234399" lon="-4.918849">
        <ele>1543.748</ele>
        <time>2021-08-03T12:34:03Z</time>
      </trkpt>
      <trkpt lat="43.234436" lon="-4.918891">
        <ele>1545.960</ele>
        <time>2021-08-03T12:34:39Z</time>
      </trkpt>
      <trkpt lat="43.23446" lon="-4.918949">
        <ele>1548.440</ele>
        <time>2021-08-03T12:34:46Z</time>
      </trkpt>
      <trkpt lat="43.23449" lon="-4.918995">
        <ele>1550.656</ele>
        <time>2021-08-03T12:35:03Z</time>
      </trkpt>
      <trkpt lat="43.234533" lon="-4.919037">
        <ele>1552.896</ele>
        <time>2021-08-03T12:35:22Z</time>
      </trkpt>
      <trkpt lat="43.234564" lon="-4.919087">
        <ele>1554.811</ele>
        <time>2021-08-03T12:35:35Z</time>
      </trkpt>
      <trkpt lat="43.234605" lon="-4.91912">
        <ele>1556.344</ele>
        <time>2021-08-03T12:35:44Z</time>
      </trkpt>
      <trkpt lat="43.234628" lon="-4.919177">
        <ele>1557.959</ele>
        <time>2021-08-03T12:35:52Z</time>
      </trkpt>
      <trkpt lat="43.234653" lon="-4.91923">
        <ele>1559.711</ele>
        <time>2021-08-03T12:36:14Z</time>
      </trkpt>
      <trkpt lat="43.234692" lon="-4.91926">
        <ele>1560.821</ele>
        <time>2021-08-03T12:36:23Z</time>
      </trkpt>
      <trkpt lat="43.234715" lon="-4.919313">
        <ele>1562.103</ele>
        <time>2021-08-03T12:36:33Z</time>
      </trkpt>
      <trkpt lat="43.234756" lon="-4.919344">
        <ele>1562.608</ele>
        <time>2021-08-03T12:36:45Z</time>
      </trkpt>
      <trkpt lat="43.234766" lon="-4.919405">
        <ele>1564.168</ele>
        <time>2021-08-03T12:37:07Z</time>
      </trkpt>
      <trkpt lat="43.234755" lon="-4.919472">
        <ele>1565.780</ele>
        <time>2021-08-03T12:37:13Z</time>
      </trkpt>
      <trkpt lat="43.234756" lon="-4.919537">
        <ele>1567.230</ele>
        <time>2021-08-03T12:37:18Z</time>
      </trkpt>
      <trkpt lat="43.234773" lon="-4.919599">
        <ele>1568.896</ele>
        <time>2021-08-03T12:37:25Z</time>
      </trkpt>
      <trkpt lat="43.234782" lon="-4.919671">
        <ele>1570.686</ele>
        <time>2021-08-03T12:37:33Z</time>
      </trkpt>
      <trkpt lat="43.23479" lon="-4.919736">
        <ele>1572.291</ele>
        <time>2021-08-03T12:37:41Z</time>
      </trkpt>
      <trkpt lat="43.234829" lon="-4.919783">
        <ele>1573.414</ele>
        <time>2021-08-03T12:37:48Z</time>
      </trkpt>
      <trkpt lat="43.234864" lon="-4.919828">
        <ele>1574.249</ele>
        <time>2021-08-03T12:37:54Z</time>
      </trkpt>
      <trkpt lat="43.234907" lon="-4.919845">
        <ele>1574.491</ele>
        <time>2021-08-03T12:38:08Z</time>
      </trkpt>
      <trkpt lat="43.234942" lon="-4.919906">
        <ele>1574.681</ele>
        <time>2021-08-03T12:38:44Z</time>
      </trkpt>
      <trkpt lat="43.234948" lon="-4.919844">
        <ele>1574.519</ele>
        <time>2021-08-03T12:38:56Z</time>
      </trkpt>
      <trkpt lat="43.234952" lon="-4.91978">
        <ele>1574.408</ele>
        <time>2021-08-03T12:39:02Z</time>
      </trkpt>
      <trkpt lat="43.234984" lon="-4.919732">
        <ele>1574.896</ele>
        <time>2021-08-03T12:39:09Z</time>
      </trkpt>
      <trkpt lat="43.235019" lon="-4.919693">
        <ele>1574.288</ele>
        <time>2021-08-03T12:39:15Z</time>
      </trkpt>
      <trkpt lat="43.235058" lon="-4.91966">
        <ele>1573.428</ele>
        <time>2021-08-03T12:39:29Z</time>
      </trkpt>
      <trkpt lat="43.235105" lon="-4.919653">
        <ele>1573.614</ele>
        <time>2021-08-03T12:39:34Z</time>
      </trkpt>
      <trkpt lat="43.235154" lon="-4.919645">
        <ele>1573.834</ele>
        <time>2021-08-03T12:39:40Z</time>
      </trkpt>
      <trkpt lat="43.235197" lon="-4.919664">
        <ele>1574.679</ele>
        <time>2021-08-03T12:39:45Z</time>
      </trkpt>
      <trkpt lat="43.235244" lon="-4.91966">
        <ele>1574.862</ele>
        <time>2021-08-03T12:39:50Z</time>
      </trkpt>
      <trkpt lat="43.235294" lon="-4.919648">
        <ele>1574.857</ele>
        <time>2021-08-03T12:39:57Z</time>
      </trkpt>
      <trkpt lat="43.235336" lon="-4.91962">
        <ele>1574.485</ele>
        <time>2021-08-03T12:40:47Z</time>
      </trkpt>
      <trkpt lat="43.235383" lon="-4.919614">
        <ele>1574.289</ele>
        <time>2021-08-03T12:40:53Z</time>
      </trkpt>
      <trkpt lat="43.235424" lon="-4.919575">
        <ele>1574.017</ele>
        <time>2021-08-03T12:41:00Z</time>
      </trkpt>
      <trkpt lat="43.23547" lon="-4.919566">
        <ele>1574.008</ele>
        <time>2021-08-03T12:41:12Z</time>
      </trkpt>
      <trkpt lat="43.235518" lon="-4.919581">
        <ele>1574.055</ele>
        <time>2021-08-03T12:41:28Z</time>
      </trkpt>
      <trkpt lat="43.235568" lon="-4.919606">
        <ele>1574.177</ele>
        <time>2021-08-03T12:41:34Z</time>
      </trkpt>
      <trkpt lat="43.235608" lon="-4.919645">
        <ele>1574.557</ele>
        <time>2021-08-03T12:41:40Z</time>
      </trkpt>
      <trkpt lat="43.23565" lon="-4.919679">
        <ele>1575.083</ele>
        <time>2021-08-03T12:41:49Z</time>
      </trkpt>
      <trkpt lat="43.235695" lon="-4.919662">
        <ele>1575.993</ele>
        <time>2021-08-03T12:41:54Z</time>
      </trkpt>
      <trkpt lat="43.23574" lon="-4.919674">
        <ele>1576.748</ele>
        <time>2021-08-03T12:42:00Z</time>
      </trkpt>
      <trkpt lat="43.235782" lon="-4.919697">
        <ele>1577.361</ele>
        <time>2021-08-03T12:42:20Z</time>
      </trkpt>
      <trkpt lat="43.235816" lon="-4.919746">
        <ele>1577.426</ele>
        <time>2021-08-03T12:42:29Z</time>
      </trkpt>
      <trkpt lat="43.235855" lon="-4.919785">
        <ele>1578.048</ele>
        <time>2021-08-03T12:42:35Z</time>
      </trkpt>
      <trkpt lat="43.235901" lon="-4.91982">
        <ele>1579.161</ele>
        <time>2021-08-03T12:42:42Z</time>
      </trkpt>
      <trkpt lat="43.235945" lon="-4.919841">
        <ele>1580.317</ele>
        <time>2021-08-03T12:42:49Z</time>
      </trkpt>
      <trkpt lat="43.23599" lon="-4.919857">
        <ele>1581.608</ele>
        <time>2021-08-03T12:42:57Z</time>
      </trkpt>
      <trkpt lat="43.236032" lon="-4.919822">
        <ele>1583.431</ele>
        <time>2021-08-03T12:43:24Z</time>
      </trkpt>
      <trkpt lat="43.236078" lon="-4.919837">
        <ele>1584.753</ele>
        <time>2021-08-03T12:43:42Z</time>
      </trkpt>
      <trkpt lat="43.236125" lon="-4.919816">
        <ele>1586.463</ele>
        <time>2021-08-03T12:43:54Z</time>
      </trkpt>
      <trkpt lat="43.23617" lon="-4.919836">
        <ele>1587.559</ele>
        <time>2021-08-03T12:44:12Z</time>
      </trkpt>
      <trkpt lat="43.236213" lon="-4.91986">
        <ele>1588.419</ele>
        <time>2021-08-03T12:44:24Z</time>
      </trkpt>
      <trkpt lat="43.236259" lon="-4.919866">
        <ele>1589.754</ele>
        <time>2021-08-03T12:44:32Z</time>
      </trkpt>
      <trkpt lat="43.2363" lon="-4.919895">
        <ele>1590.427</ele>
        <time>2021-08-03T12:44:40Z</time>
      </trkpt>
      <trkpt lat="43.236339" lon="-4.91993">
        <ele>1590.952</ele>
        <time>2021-08-03T12:44:50Z</time>
      </trkpt>
      <trkpt lat="43.236385" lon="-4.91991">
        <ele>1592.513</ele>
        <time>2021-08-03T12:45:04Z</time>
      </trkpt>
      <trkpt lat="43.236438" lon="-4.919913">
        <ele>1593.243</ele>
        <time>2021-08-03T12:45:10Z</time>
      </trkpt>
      <trkpt lat="43.236486" lon="-4.919903">
        <ele>1594.007</ele>
        <time>2021-08-03T12:45:17Z</time>
      </trkpt>
      <trkpt lat="43.236532" lon="-4.919913">
        <ele>1594.508</ele>
        <time>2021-08-03T12:45:26Z</time>
      </trkpt>
      <trkpt lat="43.23658" lon="-4.919908">
        <ele>1595.298</ele>
        <time>2021-08-03T12:45:39Z</time>
      </trkpt>
      <trkpt lat="43.236628" lon="-4.919888">
        <ele>1595.970</ele>
        <time>2021-08-03T12:45:45Z</time>
      </trkpt>
      <trkpt lat="43.236682" lon="-4.919885">
        <ele>1596.880</ele>
        <time>2021-08-03T12:45:50Z</time>
      </trkpt>
      <trkpt lat="43.236727" lon="-4.919902">
        <ele>1597.996</ele>
        <time>2021-08-03T12:46:00Z</time>
      </trkpt>
      <trkpt lat="43.236774" lon="-4.919918">
        <ele>1598.916</ele>
        <time>2021-08-03T12:46:10Z</time>
      </trkpt>
      <trkpt lat="43.236823" lon="-4.919908">
        <ele>1600.321</ele>
        <time>2021-08-03T12:46:27Z</time>
      </trkpt>
      <trkpt lat="43.236874" lon="-4.919918">
        <ele>1601.374</ele>
        <time>2021-08-03T12:46:47Z</time>
      </trkpt>
      <trkpt lat="43.236917" lon="-4.919954">
        <ele>1601.659</ele>
        <time>2021-08-03T12:46:55Z</time>
      </trkpt>
      <trkpt lat="43.236959" lon="-4.919982">
        <ele>1601.757</ele>
        <time>2021-08-03T12:47:13Z</time>
      </trkpt>
      <trkpt lat="43.237009" lon="-4.919989">
        <ele>1602.600</ele>
        <time>2021-08-03T12:47:18Z</time>
      </trkpt>
      <trkpt lat="43.23706" lon="-4.920002">
        <ele>1603.520</ele>
        <time>2021-08-03T12:47:23Z</time>
      </trkpt>
      <trkpt lat="43.237101" lon="-4.920038">
        <ele>1603.708</ele>
        <time>2021-08-03T12:47:30Z</time>
      </trkpt>
      <trkpt lat="43.237152" lon="-4.920039">
        <ele>1604.942</ele>
        <time>2021-08-03T12:48:09Z</time>
      </trkpt>
      <trkpt lat="43.237167" lon="-4.91997">
        <ele>1606.084</ele>
        <time>2021-08-03T12:48:22Z</time>
      </trkpt>
      <trkpt lat="43.237194" lon="-4.919917">
        <ele>1606.634</ele>
        <time>2021-08-03T12:48:32Z</time>
      </trkpt>
      <trkpt lat="43.237212" lon="-4.919978">
        <ele>1606.830</ele>
        <time>2021-08-03T12:48:42Z</time>
      </trkpt>
      <trkpt lat="43.237252" lon="-4.920011">
        <ele>1606.320</ele>
        <time>2021-08-03T12:48:45Z</time>
      </trkpt>
      <trkpt lat="43.237296" lon="-4.920045">
        <ele>1605.225</ele>
        <time>2021-08-03T12:48:50Z</time>
      </trkpt>
      <trkpt lat="43.237333" lon="-4.920092">
        <ele>1604.438</ele>
        <time>2021-08-03T12:48:55Z</time>
      </trkpt>
      <trkpt lat="43.237375" lon="-4.920131">
        <ele>1603.863</ele>
        <time>2021-08-03T12:49:10Z</time>
      </trkpt>
      <trkpt lat="43.237421" lon="-4.92015">
        <ele>1603.471</ele>
        <time>2021-08-03T12:49:15Z</time>
      </trkpt>
      <trkpt lat="43.237466" lon="-4.920178">
        <ele>1603.241</ele>
        <time>2021-08-03T12:49:19Z</time>
      </trkpt>
      <trkpt lat="43.237509" lon="-4.920205">
        <ele>1603.315</ele>
        <time>2021-08-03T12:49:22Z</time>
      </trkpt>
      <trkpt lat="43.237551" lon="-4.920231">
        <ele>1604.008</ele>
        <time>2021-08-03T12:49:26Z</time>
      </trkpt>
      <trkpt lat="43.23757" lon="-4.920289">
        <ele>1604.544</ele>
        <time>2021-08-03T12:49:38Z</time>
      </trkpt>
      <trkpt lat="43.237606" lon="-4.920346">
        <ele>1604.786</ele>
        <time>2021-08-03T12:49:44Z</time>
      </trkpt>
      <trkpt lat="43.237651" lon="-4.920394">
        <ele>1604.926</ele>
        <time>2021-08-03T12:49:48Z</time>
      </trkpt>
      <trkpt lat="43.237689" lon="-4.920453">
        <ele>1604.922</ele>
        <time>2021-08-03T12:49:51Z</time>
      </trkpt>
      <trkpt lat="43.237716" lon="-4.920509">
        <ele>1604.932</ele>
        <time>2021-08-03T12:49:55Z</time>
      </trkpt>
      <trkpt lat="43.237749" lon="-4.920567">
        <ele>1604.987</ele>
        <time>2021-08-03T12:50:00Z</time>
      </trkpt>
      <trkpt lat="43.237793" lon="-4.920605">
        <ele>1605.250</ele>
        <time>2021-08-03T12:50:05Z</time>
      </trkpt>
      <trkpt lat="43.237838" lon="-4.920628">
        <ele>1605.355</ele>
        <time>2021-08-03T12:50:13Z</time>
      </trkpt>
      <trkpt lat="43.237882" lon="-4.920639">
        <ele>1605.361</ele>
        <time>2021-08-03T12:50:22Z</time>
      </trkpt>
      <trkpt lat="43.237911" lon="-4.920697">
        <ele>1605.321</ele>
        <time>2021-08-03T12:50:36Z</time>
      </trkpt>
      <trkpt lat="43.237931" lon="-4.92076">
        <ele>1605.113</ele>
        <time>2021-08-03T12:50:42Z</time>
      </trkpt>
      <trkpt lat="43.237959" lon="-4.920817">
        <ele>1604.808</ele>
        <time>2021-08-03T12:50:47Z</time>
      </trkpt>
      <trkpt lat="43.23801" lon="-4.920814">
        <ele>1604.443</ele>
        <time>2021-08-03T12:50:52Z</time>
      </trkpt>
      <trkpt lat="43.238043" lon="-4.920768">
        <ele>1604.545</ele>
        <time>2021-08-03T12:50:58Z</time>
      </trkpt>
      <trkpt lat="43.23804" lon="-4.920705">
        <ele>1605.055</ele>
        <time>2021-08-03T12:51:19Z</time>
      </trkpt>
      <trkpt lat="43.238084" lon="-4.920684">
        <ele>1605.141</ele>
        <time>2021-08-03T12:51:29Z</time>
      </trkpt>
      <trkpt lat="43.238114" lon="-4.920637">
        <ele>1605.641</ele>
        <time>2021-08-03T12:51:50Z</time>
      </trkpt>
      <trkpt lat="43.238161" lon="-4.920566">
        <ele>1606.696</ele>
        <time>2021-08-03T12:52:22Z</time>
      </trkpt>
      <trkpt lat="43.238186" lon="-4.920514">
        <ele>1607.819</ele>
        <time>2021-08-03T12:52:29Z</time>
      </trkpt>
      <trkpt lat="43.238226" lon="-4.920471">
        <ele>1608.954</ele>
        <time>2021-08-03T12:52:41Z</time>
      </trkpt>
      <trkpt lat="43.23825" lon="-4.920418">
        <ele>1610.265</ele>
        <time>2021-08-03T12:52:52Z</time>
      </trkpt>
      <trkpt lat="43.238288" lon="-4.920378">
        <ele>1611.468</ele>
        <time>2021-08-03T12:52:57Z</time>
      </trkpt>
      <trkpt lat="43.238333" lon="-4.920349">
        <ele>1612.514</ele>
        <time>2021-08-03T12:53:14Z</time>
      </trkpt>
      <trkpt lat="43.238381" lon="-4.920326">
        <ele>1613.108</ele>
        <time>2021-08-03T12:53:24Z</time>
      </trkpt>
      <trkpt lat="43.238447" lon="-4.920344">
        <ele>1613.053</ele>
        <time>2021-08-03T12:53:45Z</time>
      </trkpt>
      <trkpt lat="43.238498" lon="-4.920352">
        <ele>1613.035</ele>
        <time>2021-08-03T12:53:52Z</time>
      </trkpt>
      <trkpt lat="43.238546" lon="-4.920345">
        <ele>1613.355</ele>
        <time>2021-08-03T12:54:03Z</time>
      </trkpt>
      <trkpt lat="43.238586" lon="-4.920304">
        <ele>1614.381</ele>
        <time>2021-08-03T12:54:20Z</time>
      </trkpt>
      <trkpt lat="43.238633" lon="-4.920312">
        <ele>1613.941</ele>
        <time>2021-08-03T12:54:32Z</time>
      </trkpt>
      <trkpt lat="43.238678" lon="-4.920281">
        <ele>1613.726</ele>
        <time>2021-08-03T12:54:50Z</time>
      </trkpt>
      <trkpt lat="43.238709" lon="-4.920229">
        <ele>1613.629</ele>
        <time>2021-08-03T12:54:56Z</time>
      </trkpt>
      <trkpt lat="43.238769" lon="-4.9202">
        <ele>1612.374</ele>
        <time>2021-08-03T12:55:33Z</time>
      </trkpt>
      <trkpt lat="43.238801" lon="-4.920262">
        <ele>1611.638</ele>
        <time>2021-08-03T12:56:00Z</time>
      </trkpt>
      <trkpt lat="43.238823" lon="-4.920318">
        <ele>1610.970</ele>
        <time>2021-08-03T12:56:05Z</time>
      </trkpt>
      <trkpt lat="43.238867" lon="-4.920338">
        <ele>1610.117</ele>
        <time>2021-08-03T12:56:20Z</time>
      </trkpt>
      <trkpt lat="43.238912" lon="-4.92031">
        <ele>1609.708</ele>
        <time>2021-08-03T12:56:44Z</time>
      </trkpt>
      <trkpt lat="43.23894" lon="-4.920259">
        <ele>1609.290</ele>
        <time>2021-08-03T12:56:56Z</time>
      </trkpt>
      <trkpt lat="43.238977" lon="-4.9203">
        <ele>1609.052</ele>
        <time>2021-08-03T12:57:13Z</time>
      </trkpt>
      <trkpt lat="43.239002" lon="-4.920355">
        <ele>1608.772</ele>
        <time>2021-08-03T12:57:20Z</time>
      </trkpt>
      <trkpt lat="43.239042" lon="-4.920383">
        <ele>1608.488</ele>
        <time>2021-08-03T12:57:31Z</time>
      </trkpt>
      <trkpt lat="43.239071" lon="-4.920431">
        <ele>1608.238</ele>
        <time>2021-08-03T12:57:45Z</time>
      </trkpt>
      <trkpt lat="43.239116" lon="-4.920455">
        <ele>1608.063</ele>
        <time>2021-08-03T12:57:57Z</time>
      </trkpt>
      <trkpt lat="43.239148" lon="-4.920508">
        <ele>1607.986</ele>
        <time>2021-08-03T12:58:07Z</time>
      </trkpt>
      <trkpt lat="43.239186" lon="-4.920541">
        <ele>1608.211</ele>
        <time>2021-08-03T12:58:17Z</time>
      </trkpt>
      <trkpt lat="43.239226" lon="-4.920579">
        <ele>1608.921</ele>
        <time>2021-08-03T12:58:24Z</time>
      </trkpt>
      <trkpt lat="43.239267" lon="-4.920607">
        <ele>1609.641</ele>
        <time>2021-08-03T12:58:36Z</time>
      </trkpt>
      <trkpt lat="43.239313" lon="-4.920612">
        <ele>1610.405</ele>
        <time>2021-08-03T12:58:43Z</time>
      </trkpt>
      <trkpt lat="43.239348" lon="-4.920652">
        <ele>1611.308</ele>
        <time>2021-08-03T12:59:05Z</time>
      </trkpt>
      <trkpt lat="43.239382" lon="-4.920693">
        <ele>1612.339</ele>
        <time>2021-08-03T12:59:28Z</time>
      </trkpt>
      <trkpt lat="43.239429" lon="-4.920686">
        <ele>1613.111</ele>
        <time>2021-08-03T12:59:48Z</time>
      </trkpt>
      <trkpt lat="43.239468" lon="-4.920652">
        <ele>1612.781</ele>
        <time>2021-08-03T12:59:55Z</time>
      </trkpt>
      <trkpt lat="43.239454" lon="-4.920711">
        <ele>1613.597</ele>
        <time>2021-08-03T13:00:26Z</time>
      </trkpt>
      <trkpt lat="43.239494" lon="-4.920743">
        <ele>1613.217</ele>
        <time>2021-08-03T13:00:44Z</time>
      </trkpt>
      <trkpt lat="43.239522" lon="-4.920805">
        <ele>1613.362</ele>
        <time>2021-08-03T13:00:48Z</time>
      </trkpt>
      <trkpt lat="43.239556" lon="-4.920865">
        <ele>1613.155</ele>
        <time>2021-08-03T13:00:55Z</time>
      </trkpt>
      <trkpt lat="43.239587" lon="-4.920911">
        <ele>1612.960</ele>
        <time>2021-08-03T13:01:05Z</time>
      </trkpt>
      <trkpt lat="43.239637" lon="-4.920918">
        <ele>1612.212</ele>
        <time>2021-08-03T13:01:15Z</time>
      </trkpt>
      <trkpt lat="43.239683" lon="-4.920951">
        <ele>1611.832</ele>
        <time>2021-08-03T13:01:23Z</time>
      </trkpt>
      <trkpt lat="43.239727" lon="-4.920995">
        <ele>1611.805</ele>
        <time>2021-08-03T13:01:28Z</time>
      </trkpt>
      <trkpt lat="43.239764" lon="-4.921039">
        <ele>1612.508</ele>
        <time>2021-08-03T13:01:30Z</time>
      </trkpt>
      <trkpt lat="43.239796" lon="-4.921088">
        <ele>1613.178</ele>
        <time>2021-08-03T13:01:33Z</time>
      </trkpt>
      <trkpt lat="43.239835" lon="-4.921139">
        <ele>1613.780</ele>
        <time>2021-08-03T13:01:38Z</time>
      </trkpt>
      <trkpt lat="43.239881" lon="-4.921165">
        <ele>1614.260</ele>
        <time>2021-08-03T13:01:44Z</time>
      </trkpt>
      <trkpt lat="43.239928" lon="-4.921189">
        <ele>1614.686</ele>
        <time>2021-08-03T13:01:53Z</time>
      </trkpt>
      <trkpt lat="43.239966" lon="-4.921238">
        <ele>1615.296</ele>
        <time>2021-08-03T13:02:02Z</time>
      </trkpt>
      <trkpt lat="43.24001" lon="-4.921277">
        <ele>1615.921</ele>
        <time>2021-08-03T13:02:07Z</time>
      </trkpt>
      <trkpt lat="43.240054" lon="-4.921316">
        <ele>1616.564</ele>
        <time>2021-08-03T13:02:13Z</time>
      </trkpt>
      <trkpt lat="43.240092" lon="-4.921357">
        <ele>1617.129</ele>
        <time>2021-08-03T13:02:18Z</time>
      </trkpt>
      <trkpt lat="43.240126" lon="-4.921407">
        <ele>1617.637</ele>
        <time>2021-08-03T13:02:24Z</time>
      </trkpt>
      <trkpt lat="43.240175" lon="-4.921412">
        <ele>1617.749</ele>
        <time>2021-08-03T13:02:38Z</time>
      </trkpt>
      <trkpt lat="43.240221" lon="-4.921433">
        <ele>1618.013</ele>
        <time>2021-08-03T13:02:46Z</time>
      </trkpt>
      <trkpt lat="43.240271" lon="-4.921403">
        <ele>1618.008</ele>
        <time>2021-08-03T13:02:51Z</time>
      </trkpt>
      <trkpt lat="43.240317" lon="-4.921395">
        <ele>1618.020</ele>
        <time>2021-08-03T13:02:55Z</time>
      </trkpt>
      <trkpt lat="43.240367" lon="-4.921401">
        <ele>1618.112</ele>
        <time>2021-08-03T13:02:58Z</time>
      </trkpt>
      <trkpt lat="43.240415" lon="-4.92143">
        <ele>1618.292</ele>
        <time>2021-08-03T13:03:02Z</time>
      </trkpt>
      <trkpt lat="43.240454" lon="-4.921483">
        <ele>1618.628</ele>
        <time>2021-08-03T13:03:06Z</time>
      </trkpt>
      <trkpt lat="43.240488" lon="-4.921543">
        <ele>1619.028</ele>
        <time>2021-08-03T13:03:11Z</time>
      </trkpt>
      <trkpt lat="43.240522" lon="-4.921589">
        <ele>1619.413</ele>
        <time>2021-08-03T13:03:16Z</time>
      </trkpt>
      <trkpt lat="43.240537" lon="-4.921657">
        <ele>1619.966</ele>
        <time>2021-08-03T13:03:22Z</time>
      </trkpt>
      <trkpt lat="43.240547" lon="-4.921723">
        <ele>1620.611</ele>
        <time>2021-08-03T13:03:46Z</time>
      </trkpt>
      <trkpt lat="43.240581" lon="-4.921776">
        <ele>1620.888</ele>
        <time>2021-08-03T13:03:52Z</time>
      </trkpt>
      <trkpt lat="43.240639" lon="-4.921796">
        <ele>1620.224</ele>
        <time>2021-08-03T13:03:57Z</time>
      </trkpt>
      <trkpt lat="43.240684" lon="-4.921813">
        <ele>1619.826</ele>
        <time>2021-08-03T13:04:00Z</time>
      </trkpt>
      <trkpt lat="43.240726" lon="-4.921838">
        <ele>1619.508</ele>
        <time>2021-08-03T13:04:03Z</time>
      </trkpt>
      <trkpt lat="43.240776" lon="-4.921871">
        <ele>1619.445</ele>
        <time>2021-08-03T13:04:08Z</time>
      </trkpt>
      <trkpt lat="43.240815" lon="-4.921913">
        <ele>1619.637</ele>
        <time>2021-08-03T13:04:12Z</time>
      </trkpt>
      <trkpt lat="43.240853" lon="-4.921955">
        <ele>1619.757</ele>
        <time>2021-08-03T13:04:18Z</time>
      </trkpt>
      <trkpt lat="43.240895" lon="-4.921989">
        <ele>1619.313</ele>
        <time>2021-08-03T13:04:23Z</time>
      </trkpt>
      <trkpt lat="43.240937" lon="-4.922034">
        <ele>1619.263</ele>
        <time>2021-08-03T13:04:29Z</time>
      </trkpt>
      <trkpt lat="43.240979" lon="-4.922078">
        <ele>1619.058</ele>
        <time>2021-08-03T13:04:34Z</time>
      </trkpt>
      <trkpt lat="43.241022" lon="-4.922115">
        <ele>1618.861</ele>
        <time>2021-08-03T13:04:38Z</time>
      </trkpt>
      <trkpt lat="43.241053" lon="-4.92216">
        <ele>1619.036</ele>
        <time>2021-08-03T13:04:42Z</time>
      </trkpt>
      <trkpt lat="43.241088" lon="-4.922199">
        <ele>1619.057</ele>
        <time>2021-08-03T13:04:46Z</time>
      </trkpt>
      <trkpt lat="43.241133" lon="-4.922194">
        <ele>1618.000</ele>
        <time>2021-08-03T13:04:52Z</time>
      </trkpt>
      <trkpt lat="43.241174" lon="-4.922243">
        <ele>1618.020</ele>
        <time>2021-08-03T13:05:40Z</time>
      </trkpt>
      <trkpt lat="43.241211" lon="-4.922281">
        <ele>1618.108</ele>
        <time>2021-08-03T13:05:43Z</time>
      </trkpt>
      <trkpt lat="43.241254" lon="-4.922319">
        <ele>1618.092</ele>
        <time>2021-08-03T13:05:47Z</time>
      </trkpt>
      <trkpt lat="43.241285" lon="-4.922372">
        <ele>1618.614</ele>
        <time>2021-08-03T13:05:52Z</time>
      </trkpt>
      <trkpt lat="43.241324" lon="-4.922418">
        <ele>1619.054</ele>
        <time>2021-08-03T13:05:57Z</time>
      </trkpt>
      <trkpt lat="43.241364" lon="-4.92245">
        <ele>1619.120</ele>
        <time>2021-08-03T13:06:02Z</time>
      </trkpt>
      <trkpt lat="43.241412" lon="-4.922481">
        <ele>1619.140</ele>
        <time>2021-08-03T13:06:08Z</time>
      </trkpt>
      <trkpt lat="43.241458" lon="-4.922491">
        <ele>1618.575</ele>
        <time>2021-08-03T13:06:13Z</time>
      </trkpt>
      <trkpt lat="43.241503" lon="-4.9225">
        <ele>1617.948</ele>
        <time>2021-08-03T13:06:18Z</time>
      </trkpt>
      <trkpt lat="43.241542" lon="-4.92255">
        <ele>1618.233</ele>
        <time>2021-08-03T13:06:24Z</time>
      </trkpt>
      <trkpt lat="43.241583" lon="-4.922585">
        <ele>1618.268</ele>
        <time>2021-08-03T13:06:29Z</time>
      </trkpt>
      <trkpt lat="43.241618" lon="-4.922637">
        <ele>1618.742</ele>
        <time>2021-08-03T13:06:37Z</time>
      </trkpt>
      <trkpt lat="43.241663" lon="-4.922676">
        <ele>1618.926</ele>
        <time>2021-08-03T13:06:43Z</time>
      </trkpt>
      <trkpt lat="43.241712" lon="-4.922687">
        <ele>1618.908</ele>
        <time>2021-08-03T13:06:48Z</time>
      </trkpt>
      <trkpt lat="43.24176" lon="-4.922705">
        <ele>1619.153</ele>
        <time>2021-08-03T13:06:52Z</time>
      </trkpt>
      <trkpt lat="43.241813" lon="-4.922709">
        <ele>1619.045</ele>
        <time>2021-08-03T13:06:57Z</time>
      </trkpt>
      <trkpt lat="43.241863" lon="-4.922696">
        <ele>1618.535</ele>
        <time>2021-08-03T13:07:01Z</time>
      </trkpt>
      <trkpt lat="43.241911" lon="-4.922681">
        <ele>1618.031</ele>
        <time>2021-08-03T13:07:06Z</time>
      </trkpt>
      <trkpt lat="43.24196" lon="-4.92269">
        <ele>1618.071</ele>
        <time>2021-08-03T13:07:12Z</time>
      </trkpt>
      <trkpt lat="43.242006" lon="-4.922723">
        <ele>1618.476</ele>
        <time>2021-08-03T13:07:17Z</time>
      </trkpt>
      <trkpt lat="43.242057" lon="-4.922742">
        <ele>1618.439</ele>
        <time>2021-08-03T13:07:23Z</time>
      </trkpt>
      <trkpt lat="43.242102" lon="-4.922771">
        <ele>1618.734</ele>
        <time>2021-08-03T13:07:28Z</time>
      </trkpt>
      <trkpt lat="43.242145" lon="-4.922793">
        <ele>1618.841</ele>
        <time>2021-08-03T13:07:34Z</time>
      </trkpt>
      <trkpt lat="43.242197" lon="-4.922801">
        <ele>1618.681</ele>
        <time>2021-08-03T13:07:40Z</time>
      </trkpt>
      <trkpt lat="43.242243" lon="-4.922828">
        <ele>1618.909</ele>
        <time>2021-08-03T13:07:45Z</time>
      </trkpt>
      <trkpt lat="43.242289" lon="-4.922852">
        <ele>1619.508</ele>
        <time>2021-08-03T13:07:51Z</time>
      </trkpt>
      <trkpt lat="43.242333" lon="-4.922878">
        <ele>1620.161</ele>
        <time>2021-08-03T13:07:58Z</time>
      </trkpt>
      <trkpt lat="43.242373" lon="-4.922915">
        <ele>1621.053</ele>
        <time>2021-08-03T13:08:08Z</time>
      </trkpt>
      <trkpt lat="43.242424" lon="-4.922905">
        <ele>1621.033</ele>
        <time>2021-08-03T13:08:26Z</time>
      </trkpt>
      <trkpt lat="43.24247" lon="-4.922924">
        <ele>1621.639</ele>
        <time>2021-08-03T13:08:55Z</time>
      </trkpt>
      <trkpt lat="43.242515" lon="-4.922951">
        <ele>1622.469</ele>
        <time>2021-08-03T13:09:40Z</time>
      </trkpt>
      <trkpt lat="43.24257" lon="-4.922942">
        <ele>1622.314</ele>
        <time>2021-08-03T13:09:44Z</time>
      </trkpt>
      <trkpt lat="43.242623" lon="-4.922931">
        <ele>1622.397</ele>
        <time>2021-08-03T13:09:49Z</time>
      </trkpt>
      <trkpt lat="43.242676" lon="-4.922951">
        <ele>1622.852</ele>
        <time>2021-08-03T13:09:53Z</time>
      </trkpt>
      <trkpt lat="43.242718" lon="-4.922973">
        <ele>1623.475</ele>
        <time>2021-08-03T13:09:57Z</time>
      </trkpt>
      <trkpt lat="43.242752" lon="-4.923022">
        <ele>1624.428</ele>
        <time>2021-08-03T13:10:03Z</time>
      </trkpt>
      <trkpt lat="43.242797" lon="-4.923068">
        <ele>1625.220</ele>
        <time>2021-08-03T13:10:11Z</time>
      </trkpt>
      <trkpt lat="43.242829" lon="-4.923117">
        <ele>1625.708</ele>
        <time>2021-08-03T13:10:17Z</time>
      </trkpt>
      <trkpt lat="43.242857" lon="-4.92317">
        <ele>1626.234</ele>
        <time>2021-08-03T13:10:31Z</time>
      </trkpt>
      <trkpt lat="43.242935" lon="-4.92321">
        <ele>1626.346</ele>
        <time>2021-08-03T13:16:06Z</time>
      </trkpt>
      <trkpt lat="43.242912" lon="-4.923113">
        <ele>1625.846</ele>
        <time>2021-08-03T14:27:44Z</time>
      </trkpt>
      <trkpt lat="43.242867" lon="-4.923184">
        <ele>1626.332</ele>
        <time>2021-08-03T14:29:05Z</time>
      </trkpt>
      <trkpt lat="43.242894" lon="-4.923245">
        <ele>1626.612</ele>
        <time>2021-08-03T14:30:09Z</time>
      </trkpt>
      <trkpt lat="43.242905" lon="-4.923311">
        <ele>1627.097</ele>
        <time>2021-08-03T14:30:26Z</time>
      </trkpt>
      <trkpt lat="43.242887" lon="-4.923378">
        <ele>1627.620</ele>
        <time>2021-08-03T14:30:33Z</time>
      </trkpt>
      <trkpt lat="43.242868" lon="-4.923438">
        <ele>1628.215</ele>
        <time>2021-08-03T14:30:36Z</time>
      </trkpt>
      <trkpt lat="43.242835" lon="-4.923493">
        <ele>1628.957</ele>
        <time>2021-08-03T14:30:43Z</time>
      </trkpt>
      <trkpt lat="43.24279" lon="-4.923534">
        <ele>1629.400</ele>
        <time>2021-08-03T14:30:47Z</time>
      </trkpt>
      <trkpt lat="43.242746" lon="-4.92356">
        <ele>1630.120</ele>
        <time>2021-08-03T14:30:50Z</time>
      </trkpt>
      <trkpt lat="43.242701" lon="-4.923602">
        <ele>1631.008</ele>
        <time>2021-08-03T14:30:56Z</time>
      </trkpt>
      <trkpt lat="43.24266" lon="-4.923641">
        <ele>1632.152</ele>
        <time>2021-08-03T14:31:00Z</time>
      </trkpt>
      <trkpt lat="43.242621" lon="-4.923675">
        <ele>1633.174</ele>
        <time>2021-08-03T14:31:07Z</time>
      </trkpt>
      <trkpt lat="43.242572" lon="-4.923658">
        <ele>1633.634</ele>
        <time>2021-08-03T14:31:12Z</time>
      </trkpt>
      <trkpt lat="43.242521" lon="-4.923648">
        <ele>1634.140</ele>
        <time>2021-08-03T14:31:25Z</time>
      </trkpt>
      <trkpt lat="43.242471" lon="-4.923625">
        <ele>1633.750</ele>
        <time>2021-08-03T14:31:31Z</time>
      </trkpt>
      <trkpt lat="43.242423" lon="-4.923617">
        <ele>1633.055</ele>
        <time>2021-08-03T14:31:36Z</time>
      </trkpt>
      <trkpt lat="43.242376" lon="-4.923598">
        <ele>1632.148</ele>
        <time>2021-08-03T14:31:42Z</time>
      </trkpt>
      <trkpt lat="43.242328" lon="-4.923629">
        <ele>1631.863</ele>
        <time>2021-08-03T14:31:49Z</time>
      </trkpt>
      <trkpt lat="43.242279" lon="-4.923601">
        <ele>1630.766</ele>
        <time>2021-08-03T14:32:36Z</time>
      </trkpt>
      <trkpt lat="43.24223" lon="-4.9236">
        <ele>1630.029</ele>
        <time>2021-08-03T14:32:41Z</time>
      </trkpt>
      <trkpt lat="43.242184" lon="-4.923591">
        <ele>1629.721</ele>
        <time>2021-08-03T14:32:45Z</time>
      </trkpt>
      <trkpt lat="43.242135" lon="-4.923581">
        <ele>1629.408</ele>
        <time>2021-08-03T14:32:48Z</time>
      </trkpt>
      <trkpt lat="43.242083" lon="-4.923568">
        <ele>1629.283</ele>
        <time>2021-08-03T14:32:54Z</time>
      </trkpt>
      <trkpt lat="43.242037" lon="-4.923559">
        <ele>1629.095</ele>
        <time>2021-08-03T14:32:58Z</time>
      </trkpt>
      <trkpt lat="43.241991" lon="-4.92355">
        <ele>1628.955</ele>
        <time>2021-08-03T14:33:02Z</time>
      </trkpt>
      <trkpt lat="43.241943" lon="-4.923544">
        <ele>1628.851</ele>
        <time>2021-08-03T14:33:08Z</time>
      </trkpt>
      <trkpt lat="43.241895" lon="-4.923552">
        <ele>1629.351</ele>
        <time>2021-08-03T14:33:13Z</time>
      </trkpt>
      <trkpt lat="43.241845" lon="-4.923542">
        <ele>1629.786</ele>
        <time>2021-08-03T14:33:18Z</time>
      </trkpt>
      <trkpt lat="43.2418" lon="-4.923551">
        <ele>1630.219</ele>
        <time>2021-08-03T14:33:24Z</time>
      </trkpt>
      <trkpt lat="43.241755" lon="-4.923582">
        <ele>1630.954</ele>
        <time>2021-08-03T14:33:36Z</time>
      </trkpt>
      <trkpt lat="43.24171" lon="-4.923608">
        <ele>1631.598</ele>
        <time>2021-08-03T14:33:43Z</time>
      </trkpt>
      <trkpt lat="43.241661" lon="-4.923595">
        <ele>1632.015</ele>
        <time>2021-08-03T14:33:50Z</time>
      </trkpt>
      <trkpt lat="43.24161" lon="-4.923572">
        <ele>1632.526</ele>
        <time>2021-08-03T14:33:58Z</time>
      </trkpt>
      <trkpt lat="43.241567" lon="-4.923556">
        <ele>1632.908</ele>
        <time>2021-08-03T14:34:08Z</time>
      </trkpt>
      <trkpt lat="43.241522" lon="-4.923563">
        <ele>1633.616</ele>
        <time>2021-08-03T14:34:47Z</time>
      </trkpt>
      <trkpt lat="43.241478" lon="-4.92355">
        <ele>1634.078</ele>
        <time>2021-08-03T14:34:54Z</time>
      </trkpt>
      <trkpt lat="43.241443" lon="-4.92351">
        <ele>1633.928</ele>
        <time>2021-08-03T14:35:45Z</time>
      </trkpt>
      <trkpt lat="43.241436" lon="-4.923573">
        <ele>1634.834</ele>
        <time>2021-08-03T14:36:41Z</time>
      </trkpt>
      <trkpt lat="43.241389" lon="-4.923575">
        <ele>1635.564</ele>
        <time>2021-08-03T14:37:24Z</time>
      </trkpt>
      <trkpt lat="43.241352" lon="-4.923534">
        <ele>1635.559</ele>
        <time>2021-08-03T14:37:38Z</time>
      </trkpt>
      <trkpt lat="43.241307" lon="-4.923512">
        <ele>1635.962</ele>
        <time>2021-08-03T14:37:43Z</time>
      </trkpt>
      <trkpt lat="43.241262" lon="-4.923498">
        <ele>1636.527</ele>
        <time>2021-08-03T14:37:51Z</time>
      </trkpt>
      <trkpt lat="43.241212" lon="-4.923502">
        <ele>1637.491</ele>
        <time>2021-08-03T14:38:04Z</time>
      </trkpt>
      <trkpt lat="43.241168" lon="-4.923488">
        <ele>1637.981</ele>
        <time>2021-08-03T14:38:13Z</time>
      </trkpt>
      <trkpt lat="43.241119" lon="-4.923455">
        <ele>1638.119</ele>
        <time>2021-08-03T14:38:18Z</time>
      </trkpt>
      <trkpt lat="43.241069" lon="-4.923427">
        <ele>1637.908</ele>
        <time>2021-08-03T14:38:21Z</time>
      </trkpt>
      <trkpt lat="43.24102" lon="-4.923399">
        <ele>1637.776</ele>
        <time>2021-08-03T14:38:25Z</time>
      </trkpt>
      <trkpt lat="43.240969" lon="-4.923378">
        <ele>1637.728</ele>
        <time>2021-08-03T14:38:31Z</time>
      </trkpt>
      <trkpt lat="43.240917" lon="-4.923358">
        <ele>1637.738</ele>
        <time>2021-08-03T14:38:36Z</time>
      </trkpt>
      <trkpt lat="43.240863" lon="-4.923343">
        <ele>1637.954</ele>
        <time>2021-08-03T14:38:41Z</time>
      </trkpt>
      <trkpt lat="43.240816" lon="-4.923338">
        <ele>1637.954</ele>
        <time>2021-08-03T14:38:46Z</time>
      </trkpt>
      <trkpt lat="43.240767" lon="-4.923335">
        <ele>1637.579</ele>
        <time>2021-08-03T14:38:51Z</time>
      </trkpt>
      <trkpt lat="43.240722" lon="-4.92333">
        <ele>1637.272</ele>
        <time>2021-08-03T14:38:56Z</time>
      </trkpt>
      <trkpt lat="43.240671" lon="-4.923358">
        <ele>1637.137</ele>
        <time>2021-08-03T14:39:02Z</time>
      </trkpt>
      <trkpt lat="43.240636" lon="-4.923409">
        <ele>1637.499</ele>
        <time>2021-08-03T14:39:07Z</time>
      </trkpt>
      <trkpt lat="43.240593" lon="-4.923431">
        <ele>1637.307</ele>
        <time>2021-08-03T14:39:18Z</time>
      </trkpt>
      <trkpt lat="43.240545" lon="-4.923432">
        <ele>1636.927</ele>
        <time>2021-08-03T14:39:26Z</time>
      </trkpt>
      <trkpt lat="43.240508" lon="-4.92347">
        <ele>1636.708</ele>
        <time>2021-08-03T14:39:34Z</time>
      </trkpt>
      <trkpt lat="43.240467" lon="-4.923496">
        <ele>1636.356</ele>
        <time>2021-08-03T14:39:42Z</time>
      </trkpt>
      <trkpt lat="43.240438" lon="-4.923547">
        <ele>1636.398</ele>
        <time>2021-08-03T14:39:50Z</time>
      </trkpt>
      <trkpt lat="43.240404" lon="-4.923593">
        <ele>1636.168</ele>
        <time>2021-08-03T14:39:59Z</time>
      </trkpt>
      <trkpt lat="43.240396" lon="-4.923658">
        <ele>1636.614</ele>
        <time>2021-08-03T14:40:12Z</time>
      </trkpt>
      <trkpt lat="43.240387" lon="-4.923726">
        <ele>1637.154</ele>
        <time>2021-08-03T14:40:18Z</time>
      </trkpt>
      <trkpt lat="43.240343" lon="-4.923768">
        <ele>1636.659</ele>
        <time>2021-08-03T14:40:26Z</time>
      </trkpt>
      <trkpt lat="43.240297" lon="-4.923777">
        <ele>1635.682</ele>
        <time>2021-08-03T14:40:30Z</time>
      </trkpt>
      <trkpt lat="43.24024" lon="-4.923793">
        <ele>1634.737</ele>
        <time>2021-08-03T14:40:34Z</time>
      </trkpt>
      <trkpt lat="43.240191" lon="-4.923811">
        <ele>1634.063</ele>
        <time>2021-08-03T14:40:37Z</time>
      </trkpt>
      <trkpt lat="43.240152" lon="-4.923843">
        <ele>1633.744</ele>
        <time>2021-08-03T14:40:42Z</time>
      </trkpt>
      <trkpt lat="43.240114" lon="-4.923892">
        <ele>1633.718</ele>
        <time>2021-08-03T14:40:48Z</time>
      </trkpt>
      <trkpt lat="43.240065" lon="-4.923923">
        <ele>1633.108</ele>
        <time>2021-08-03T14:40:54Z</time>
      </trkpt>
      <trkpt lat="43.240042" lon="-4.923984">
        <ele>1633.043</ele>
        <time>2021-08-03T14:41:02Z</time>
      </trkpt>
      <trkpt lat="43.240027" lon="-4.924044">
        <ele>1633.065</ele>
        <time>2021-08-03T14:41:08Z</time>
      </trkpt>
      <trkpt lat="43.239996" lon="-4.9241">
        <ele>1632.735</ele>
        <time>2021-08-03T14:41:15Z</time>
      </trkpt>
      <trkpt lat="43.239956" lon="-4.924142">
        <ele>1632.391</ele>
        <time>2021-08-03T14:41:22Z</time>
      </trkpt>
      <trkpt lat="43.239941" lon="-4.924204">
        <ele>1632.491</ele>
        <time>2021-08-03T14:41:28Z</time>
      </trkpt>
      <trkpt lat="43.239906" lon="-4.924252">
        <ele>1632.476</ele>
        <time>2021-08-03T14:41:37Z</time>
      </trkpt>
      <trkpt lat="43.239887" lon="-4.924314">
        <ele>1632.639</ele>
        <time>2021-08-03T14:41:45Z</time>
      </trkpt>
      <trkpt lat="43.239882" lon="-4.924376">
        <ele>1633.154</ele>
        <time>2021-08-03T14:41:51Z</time>
      </trkpt>
      <trkpt lat="43.239843" lon="-4.924408">
        <ele>1633.058</ele>
        <time>2021-08-03T14:41:56Z</time>
      </trkpt>
      <trkpt lat="43.239811" lon="-4.924451">
        <ele>1633.052</ele>
        <time>2021-08-03T14:42:01Z</time>
      </trkpt>
      <trkpt lat="43.23977" lon="-4.924484">
        <ele>1632.917</ele>
        <time>2021-08-03T14:42:04Z</time>
      </trkpt>
      <trkpt lat="43.239728" lon="-4.92452">
        <ele>1632.608</ele>
        <time>2021-08-03T14:42:09Z</time>
      </trkpt>
      <trkpt lat="43.239722" lon="-4.924583">
        <ele>1633.032</ele>
        <time>2021-08-03T14:42:21Z</time>
      </trkpt>
      <trkpt lat="43.239685" lon="-4.924619">
        <ele>1632.794</ele>
        <time>2021-08-03T14:42:30Z</time>
      </trkpt>
      <trkpt lat="43.239656" lon="-4.924675">
        <ele>1632.764</ele>
        <time>2021-08-03T14:42:37Z</time>
      </trkpt>
      <trkpt lat="43.239619" lon="-4.924721">
        <ele>1632.570</ele>
        <time>2021-08-03T14:42:42Z</time>
      </trkpt>
      <trkpt lat="43.239583" lon="-4.924772">
        <ele>1632.280</ele>
        <time>2021-08-03T14:42:46Z</time>
      </trkpt>
      <trkpt lat="43.239539" lon="-4.924817">
        <ele>1631.635</ele>
        <time>2021-08-03T14:42:51Z</time>
      </trkpt>
      <trkpt lat="43.239499" lon="-4.924868">
        <ele>1631.018</ele>
        <time>2021-08-03T14:42:56Z</time>
      </trkpt>
      <trkpt lat="43.239465" lon="-4.924914">
        <ele>1630.413</ele>
        <time>2021-08-03T14:43:02Z</time>
      </trkpt>
      <trkpt lat="43.239426" lon="-4.924948">
        <ele>1630.095</ele>
        <time>2021-08-03T14:44:37Z</time>
      </trkpt>
      <trkpt lat="43.239396" lon="-4.925004">
        <ele>1630.049</ele>
        <time>2021-08-03T14:45:23Z</time>
      </trkpt>
      <trkpt lat="43.239358" lon="-4.925045">
        <ele>1630.423</ele>
        <time>2021-08-03T14:45:32Z</time>
      </trkpt>
      <trkpt lat="43.239335" lon="-4.925099">
        <ele>1630.708</ele>
        <time>2021-08-03T14:45:39Z</time>
      </trkpt>
      <trkpt lat="43.239322" lon="-4.925162">
        <ele>1631.076</ele>
        <time>2021-08-03T14:45:44Z</time>
      </trkpt>
      <trkpt lat="43.239331" lon="-4.92523">
        <ele>1631.698</ele>
        <time>2021-08-03T14:45:50Z</time>
      </trkpt>
      <trkpt lat="43.23934" lon="-4.925294">
        <ele>1632.378</ele>
        <time>2021-08-03T14:45:56Z</time>
      </trkpt>
      <trkpt lat="43.239347" lon="-4.925357">
        <ele>1633.224</ele>
        <time>2021-08-03T14:46:00Z</time>
      </trkpt>
      <trkpt lat="43.239367" lon="-4.925422">
        <ele>1634.284</ele>
        <time>2021-08-03T14:46:07Z</time>
      </trkpt>
      <trkpt lat="43.239401" lon="-4.92547">
        <ele>1635.059</ele>
        <time>2021-08-03T14:46:18Z</time>
      </trkpt>
      <trkpt lat="43.239426" lon="-4.92553">
        <ele>1635.712</ele>
        <time>2021-08-03T14:46:24Z</time>
      </trkpt>
      <trkpt lat="43.239446" lon="-4.925588">
        <ele>1636.757</ele>
        <time>2021-08-03T14:46:33Z</time>
      </trkpt>
      <trkpt lat="43.239482" lon="-4.925654">
        <ele>1638.327</ele>
        <time>2021-08-03T14:46:38Z</time>
      </trkpt>
      <trkpt lat="43.239512" lon="-4.925707">
        <ele>1639.468</ele>
        <time>2021-08-03T14:46:42Z</time>
      </trkpt>
      <trkpt lat="43.239538" lon="-4.925763">
        <ele>1640.414</ele>
        <time>2021-08-03T14:46:48Z</time>
      </trkpt>
      <trkpt lat="43.23957" lon="-4.925812">
        <ele>1641.208</ele>
        <time>2021-08-03T14:46:56Z</time>
      </trkpt>
      <trkpt lat="43.239594" lon="-4.925871">
        <ele>1642.069</ele>
        <time>2021-08-03T14:47:05Z</time>
      </trkpt>
      <trkpt lat="43.239614" lon="-4.925936">
        <ele>1643.011</ele>
        <time>2021-08-03T14:47:12Z</time>
      </trkpt>
      <trkpt lat="43.239633" lon="-4.925995">
        <ele>1643.941</ele>
        <time>2021-08-03T14:47:18Z</time>
      </trkpt>
      <trkpt lat="43.23964" lon="-4.926058">
        <ele>1644.967</ele>
        <time>2021-08-03T14:47:26Z</time>
      </trkpt>
      <trkpt lat="43.239652" lon="-4.926124">
        <ele>1645.947</ele>
        <time>2021-08-03T14:47:34Z</time>
      </trkpt>
      <trkpt lat="43.239652" lon="-4.92619">
        <ele>1646.522</ele>
        <time>2021-08-03T14:47:43Z</time>
      </trkpt>
      <trkpt lat="43.23967" lon="-4.926248">
        <ele>1647.175</ele>
        <time>2021-08-03T14:47:50Z</time>
      </trkpt>
      <trkpt lat="43.239679" lon="-4.926313">
        <ele>1647.840</ele>
        <time>2021-08-03T14:47:59Z</time>
      </trkpt>
      <trkpt lat="43.239672" lon="-4.926377">
        <ele>1648.369</ele>
        <time>2021-08-03T14:48:08Z</time>
      </trkpt>
      <trkpt lat="43.239635" lon="-4.926421">
        <ele>1648.104</ele>
        <time>2021-08-03T14:49:00Z</time>
      </trkpt>
      <trkpt lat="43.239639" lon="-4.926492">
        <ele>1648.224</ele>
        <time>2021-08-03T14:49:05Z</time>
      </trkpt>
      <trkpt lat="43.239631" lon="-4.926557">
        <ele>1648.208</ele>
        <time>2021-08-03T14:49:10Z</time>
      </trkpt>
      <trkpt lat="43.239645" lon="-4.926628">
        <ele>1648.483</ele>
        <time>2021-08-03T14:49:15Z</time>
      </trkpt>
      <trkpt lat="43.239659" lon="-4.926694">
        <ele>1648.495</ele>
        <time>2021-08-03T14:49:20Z</time>
      </trkpt>
      <trkpt lat="43.239688" lon="-4.926741">
        <ele>1648.385</ele>
        <time>2021-08-03T14:49:25Z</time>
      </trkpt>
      <trkpt lat="43.239702" lon="-4.926813">
        <ele>1647.991</ele>
        <time>2021-08-03T14:49:30Z</time>
      </trkpt>
      <trkpt lat="43.239703" lon="-4.926878">
        <ele>1647.481</ele>
        <time>2021-08-03T14:49:34Z</time>
      </trkpt>
      <trkpt lat="43.239715" lon="-4.926944">
        <ele>1647.056</ele>
        <time>2021-08-03T14:49:39Z</time>
      </trkpt>
      <trkpt lat="43.239742" lon="-4.927006">
        <ele>1647.539</ele>
        <time>2021-08-03T14:49:44Z</time>
      </trkpt>
      <trkpt lat="43.239769" lon="-4.927064">
        <ele>1648.294</ele>
        <time>2021-08-03T14:49:49Z</time>
      </trkpt>
      <trkpt lat="43.239781" lon="-4.927125">
        <ele>1648.491</ele>
        <time>2021-08-03T14:49:54Z</time>
      </trkpt>
      <trkpt lat="43.239796" lon="-4.927191">
        <ele>1648.781</ele>
        <time>2021-08-03T14:50:00Z</time>
      </trkpt>
      <trkpt lat="43.239817" lon="-4.92725">
        <ele>1648.819</ele>
        <time>2021-08-03T14:50:48Z</time>
      </trkpt>
      <trkpt lat="43.239839" lon="-4.927313">
        <ele>1648.708</ele>
        <time>2021-08-03T14:50:59Z</time>
      </trkpt>
      <trkpt lat="43.239837" lon="-4.927395">
        <ele>1648.046</ele>
        <time>2021-08-03T14:51:06Z</time>
      </trkpt>
      <trkpt lat="43.239823" lon="-4.927459">
        <ele>1647.268</ele>
        <time>2021-08-03T14:51:12Z</time>
      </trkpt>
      <trkpt lat="43.239844" lon="-4.927514">
        <ele>1647.288</ele>
        <time>2021-08-03T14:51:30Z</time>
      </trkpt>
      <trkpt lat="43.239867" lon="-4.927579">
        <ele>1647.524</ele>
        <time>2021-08-03T14:51:35Z</time>
      </trkpt>
      <trkpt lat="43.239875" lon="-4.92764">
        <ele>1647.554</ele>
        <time>2021-08-03T14:51:39Z</time>
      </trkpt>
      <trkpt lat="43.239889" lon="-4.927708">
        <ele>1647.729</ele>
        <time>2021-08-03T14:51:43Z</time>
      </trkpt>
      <trkpt lat="43.239898" lon="-4.927782">
        <ele>1647.862</ele>
        <time>2021-08-03T14:51:48Z</time>
      </trkpt>
      <trkpt lat="43.239901" lon="-4.927845">
        <ele>1647.437</ele>
        <time>2021-08-03T14:51:53Z</time>
      </trkpt>
      <trkpt lat="43.23991" lon="-4.927917">
        <ele>1647.137</ele>
        <time>2021-08-03T14:51:59Z</time>
      </trkpt>
      <trkpt lat="43.239919" lon="-4.92798">
        <ele>1646.849</ele>
        <time>2021-08-03T14:52:04Z</time>
      </trkpt>
      <trkpt lat="43.239937" lon="-4.928046">
        <ele>1646.713</ele>
        <time>2021-08-03T14:52:09Z</time>
      </trkpt>
      <trkpt lat="43.239953" lon="-4.928106">
        <ele>1646.408</ele>
        <time>2021-08-03T14:52:15Z</time>
      </trkpt>
      <trkpt lat="43.239979" lon="-4.92816">
        <ele>1646.290</ele>
        <time>2021-08-03T14:52:37Z</time>
      </trkpt>
      <trkpt lat="43.239998" lon="-4.928218">
        <ele>1645.682</ele>
        <time>2021-08-03T14:52:42Z</time>
      </trkpt>
      <trkpt lat="43.240033" lon="-4.928275">
        <ele>1643.862</ele>
        <time>2021-08-03T14:53:28Z</time>
      </trkpt>
      <trkpt lat="43.240036" lon="-4.928395">
        <ele>1640.228</ele>
        <time>2021-08-03T14:55:32Z</time>
      </trkpt>
      <trkpt lat="43.240078" lon="-4.928368">
        <ele>1639.738</ele>
        <time>2021-08-03T14:56:42Z</time>
      </trkpt>
      <trkpt lat="43.240084" lon="-4.928269">
        <ele>1642.373</ele>
        <time>2021-08-03T14:57:26Z</time>
      </trkpt>
      <trkpt lat="43.240124" lon="-4.928314">
        <ele>1640.096</ele>
        <time>2021-08-03T14:57:39Z</time>
      </trkpt>
      <trkpt lat="43.240169" lon="-4.928321">
        <ele>1638.261</ele>
        <time>2021-08-03T14:57:44Z</time>
      </trkpt>
      <trkpt lat="43.2402" lon="-4.928272">
        <ele>1638.532</ele>
        <time>2021-08-03T14:57:51Z</time>
      </trkpt>
      <trkpt lat="43.240242" lon="-4.928228">
        <ele>1638.592</ele>
        <time>2021-08-03T14:57:55Z</time>
      </trkpt>
      <trkpt lat="43.240288" lon="-4.928204">
        <ele>1638.011</ele>
        <time>2021-08-03T14:57:59Z</time>
      </trkpt>
      <trkpt lat="43.240324" lon="-4.928164">
        <ele>1638.608</ele>
        <time>2021-08-03T14:58:04Z</time>
      </trkpt>
      <trkpt lat="43.240352" lon="-4.928108">
        <ele>1640.120</ele>
        <time>2021-08-03T14:58:12Z</time>
      </trkpt>
      <trkpt lat="43.240399" lon="-4.928077">
        <ele>1640.552</ele>
        <time>2021-08-03T14:58:20Z</time>
      </trkpt>
      <trkpt lat="43.240438" lon="-4.928123">
        <ele>1638.162</ele>
        <time>2021-08-03T14:58:27Z</time>
      </trkpt>
      <trkpt lat="43.240485" lon="-4.928126">
        <ele>1637.248</ele>
        <time>2021-08-03T14:58:34Z</time>
      </trkpt>
      <trkpt lat="43.240533" lon="-4.92812">
        <ele>1636.638</ele>
        <time>2021-08-03T14:58:41Z</time>
      </trkpt>
      <trkpt lat="43.240579" lon="-4.928129">
        <ele>1636.053</ele>
        <time>2021-08-03T14:58:54Z</time>
      </trkpt>
      <trkpt lat="43.240624" lon="-4.928162">
        <ele>1634.776</ele>
        <time>2021-08-03T14:59:02Z</time>
      </trkpt>
      <trkpt lat="43.240654" lon="-4.928224">
        <ele>1632.061</ele>
        <time>2021-08-03T14:59:14Z</time>
      </trkpt>
      <trkpt lat="43.240688" lon="-4.928276">
        <ele>1629.784</ele>
        <time>2021-08-03T14:59:22Z</time>
      </trkpt>
      <trkpt lat="43.240727" lon="-4.928315">
        <ele>1627.907</ele>
        <time>2021-08-03T15:00:20Z</time>
      </trkpt>
      <trkpt lat="43.240756" lon="-4.928366">
        <ele>1625.717</ele>
        <time>2021-08-03T15:00:34Z</time>
      </trkpt>
      <trkpt lat="43.240714" lon="-4.9284">
        <ele>1624.408</ele>
        <time>2021-08-03T15:00:46Z</time>
      </trkpt>
      <trkpt lat="43.240665" lon="-4.928414">
        <ele>1623.855</ele>
        <time>2021-08-03T15:01:02Z</time>
      </trkpt>
      <trkpt lat="43.240624" lon="-4.928448">
        <ele>1622.587</ele>
        <time>2021-08-03T15:01:10Z</time>
      </trkpt>
      <trkpt lat="43.240613" lon="-4.928514">
        <ele>1619.837</ele>
        <time>2021-08-03T15:01:21Z</time>
      </trkpt>
      <trkpt lat="43.240629" lon="-4.928573">
        <ele>1617.523</ele>
        <time>2021-08-03T15:01:27Z</time>
      </trkpt>
      <trkpt lat="43.240668" lon="-4.928607">
        <ele>1616.233</ele>
        <time>2021-08-03T15:01:46Z</time>
      </trkpt>
      <trkpt lat="43.240712" lon="-4.928635">
        <ele>1615.348</ele>
        <time>2021-08-03T15:01:52Z</time>
      </trkpt>
      <trkpt lat="43.240756" lon="-4.928654">
        <ele>1614.741</ele>
        <time>2021-08-03T15:02:02Z</time>
      </trkpt>
      <trkpt lat="43.240805" lon="-4.928666">
        <ele>1614.286</ele>
        <time>2021-08-03T15:02:10Z</time>
      </trkpt>
      <trkpt lat="43.240853" lon="-4.928689">
        <ele>1613.888</ele>
        <time>2021-08-03T15:02:20Z</time>
      </trkpt>
      <trkpt lat="43.240894" lon="-4.928716">
        <ele>1613.724</ele>
        <time>2021-08-03T15:02:23Z</time>
      </trkpt>
      <trkpt lat="43.240927" lon="-4.928762">
        <ele>1612.626</ele>
        <time>2021-08-03T15:02:29Z</time>
      </trkpt>
      <trkpt lat="43.240952" lon="-4.928817">
        <ele>1610.908</ele>
        <time>2021-08-03T15:02:35Z</time>
      </trkpt>
      <trkpt lat="43.24099" lon="-4.928862">
        <ele>1609.745</ele>
        <time>2021-08-03T15:02:47Z</time>
      </trkpt>
      <trkpt lat="43.240977" lon="-4.928926">
        <ele>1607.437</ele>
        <time>2021-08-03T15:03:21Z</time>
      </trkpt>
      <trkpt lat="43.240977" lon="-4.928989">
        <ele>1605.527</ele>
        <time>2021-08-03T15:03:32Z</time>
      </trkpt>
      <trkpt lat="43.241017" lon="-4.92902">
        <ele>1604.943</ele>
        <time>2021-08-03T15:03:51Z</time>
      </trkpt>
      <trkpt lat="43.241042" lon="-4.929072">
        <ele>1603.523</ele>
        <time>2021-08-03T15:04:08Z</time>
      </trkpt>
      <trkpt lat="43.241076" lon="-4.929131">
        <ele>1601.978</ele>
        <time>2021-08-03T15:04:17Z</time>
      </trkpt>
      <trkpt lat="43.241114" lon="-4.92919">
        <ele>1600.251</ele>
        <time>2021-08-03T15:04:22Z</time>
      </trkpt>
      <trkpt lat="43.241152" lon="-4.92923">
        <ele>1599.786</ele>
        <time>2021-08-03T15:04:26Z</time>
      </trkpt>
      <trkpt lat="43.24118" lon="-4.929286">
        <ele>1598.429</ele>
        <time>2021-08-03T15:04:33Z</time>
      </trkpt>
      <trkpt lat="43.241217" lon="-4.929333">
        <ele>1597.800</ele>
        <time>2021-08-03T15:04:40Z</time>
      </trkpt>
      <trkpt lat="43.241246" lon="-4.929386">
        <ele>1596.820</ele>
        <time>2021-08-03T15:04:46Z</time>
      </trkpt>
      <trkpt lat="43.241289" lon="-4.929427">
        <ele>1596.708</ele>
        <time>2021-08-03T15:04:53Z</time>
      </trkpt>
      <trkpt lat="43.241304" lon="-4.929489">
        <ele>1595.549</ele>
        <time>2021-08-03T15:05:00Z</time>
      </trkpt>
      <trkpt lat="43.241343" lon="-4.929539">
        <ele>1595.481</ele>
        <time>2021-08-03T15:05:09Z</time>
      </trkpt>
      <trkpt lat="43.241378" lon="-4.929583">
        <ele>1595.261</ele>
        <time>2021-08-03T15:05:15Z</time>
      </trkpt>
      <trkpt lat="43.241397" lon="-4.929645">
        <ele>1594.087</ele>
        <time>2021-08-03T15:05:29Z</time>
      </trkpt>
      <trkpt lat="43.241433" lon="-4.929683">
        <ele>1593.547</ele>
        <time>2021-08-03T15:05:43Z</time>
      </trkpt>
      <trkpt lat="43.241471" lon="-4.929734">
        <ele>1592.852</ele>
        <time>2021-08-03T15:05:49Z</time>
      </trkpt>
      <trkpt lat="43.241495" lon="-4.929797">
        <ele>1592.615</ele>
        <time>2021-08-03T15:05:55Z</time>
      </trkpt>
      <trkpt lat="43.241496" lon="-4.929865">
        <ele>1592.110</ele>
        <time>2021-08-03T15:06:01Z</time>
      </trkpt>
      <trkpt lat="43.241474" lon="-4.929921">
        <ele>1591.586</ele>
        <time>2021-08-03T15:06:06Z</time>
      </trkpt>
      <trkpt lat="43.24147" lon="-4.929987">
        <ele>1591.060</ele>
        <time>2021-08-03T15:06:13Z</time>
      </trkpt>
      <trkpt lat="43.241475" lon="-4.930052">
        <ele>1590.226</ele>
        <time>2021-08-03T15:06:29Z</time>
      </trkpt>
      <trkpt lat="43.241503" lon="-4.930112">
        <ele>1589.808</ele>
        <time>2021-08-03T15:06:34Z</time>
      </trkpt>
      <trkpt lat="43.241543" lon="-4.930167">
        <ele>1589.655</ele>
        <time>2021-08-03T15:06:39Z</time>
      </trkpt>
      <trkpt lat="43.241571" lon="-4.930227">
        <ele>1589.277</ele>
        <time>2021-08-03T15:06:43Z</time>
      </trkpt>
      <trkpt lat="43.241611" lon="-4.930257">
        <ele>1589.497</ele>
        <time>2021-08-03T15:06:47Z</time>
      </trkpt>
      <trkpt lat="43.241649" lon="-4.930302">
        <ele>1589.373</ele>
        <time>2021-08-03T15:06:52Z</time>
      </trkpt>
      <trkpt lat="43.241691" lon="-4.930328">
        <ele>1589.573</ele>
        <time>2021-08-03T15:07:01Z</time>
      </trkpt>
      <trkpt lat="43.241726" lon="-4.930376">
        <ele>1589.388</ele>
        <time>2021-08-03T15:07:21Z</time>
      </trkpt>
      <trkpt lat="43.241757" lon="-4.930425">
        <ele>1589.041</ele>
        <time>2021-08-03T15:07:24Z</time>
      </trkpt>
      <trkpt lat="43.241784" lon="-4.930476">
        <ele>1588.526</ele>
        <time>2021-08-03T15:07:26Z</time>
      </trkpt>
      <trkpt lat="43.24182" lon="-4.930531">
        <ele>1588.273</ele>
        <time>2021-08-03T15:07:28Z</time>
      </trkpt>
      <trkpt lat="43.241855" lon="-4.930577">
        <ele>1588.085</ele>
        <time>2021-08-03T15:07:32Z</time>
      </trkpt>
      <trkpt lat="43.241887" lon="-4.930626">
        <ele>1587.513</ele>
        <time>2021-08-03T15:07:38Z</time>
      </trkpt>
      <trkpt lat="43.241924" lon="-4.930674">
        <ele>1587.108</ele>
        <time>2021-08-03T15:07:44Z</time>
      </trkpt>
      <trkpt lat="43.241952" lon="-4.93073">
        <ele>1586.344</ele>
        <time>2021-08-03T15:07:49Z</time>
      </trkpt>
      <trkpt lat="43.241986" lon="-4.930778">
        <ele>1585.486</ele>
        <time>2021-08-03T15:07:56Z</time>
      </trkpt>
      <trkpt lat="43.242025" lon="-4.930813">
        <ele>1584.876</ele>
        <time>2021-08-03T15:08:03Z</time>
      </trkpt>
      <trkpt lat="43.242051" lon="-4.930864">
        <ele>1583.582</ele>
        <time>2021-08-03T15:08:20Z</time>
      </trkpt>
      <trkpt lat="43.242093" lon="-4.930895">
        <ele>1582.822</ele>
        <time>2021-08-03T15:08:26Z</time>
      </trkpt>
      <trkpt lat="43.242116" lon="-4.930955">
        <ele>1581.267</ele>
        <time>2021-08-03T15:08:34Z</time>
      </trkpt>
      <trkpt lat="43.242157" lon="-4.930997">
        <ele>1580.430</ele>
        <time>2021-08-03T15:08:40Z</time>
      </trkpt>
      <trkpt lat="43.242195" lon="-4.931031">
        <ele>1579.825</ele>
        <time>2021-08-03T15:08:46Z</time>
      </trkpt>
      <trkpt lat="43.242234" lon="-4.931073">
        <ele>1579.159</ele>
        <time>2021-08-03T15:08:53Z</time>
      </trkpt>
      <trkpt lat="43.242276" lon="-4.931108">
        <ele>1578.703</ele>
        <time>2021-08-03T15:08:58Z</time>
      </trkpt>
      <trkpt lat="43.242319" lon="-4.931126">
        <ele>1578.723</ele>
        <time>2021-08-03T15:09:02Z</time>
      </trkpt>
      <trkpt lat="43.242368" lon="-4.93114">
        <ele>1579.008</ele>
        <time>2021-08-03T15:09:07Z</time>
      </trkpt>
      <trkpt lat="43.242409" lon="-4.931181">
        <ele>1578.532</ele>
        <time>2021-08-03T15:09:12Z</time>
      </trkpt>
      <trkpt lat="43.242442" lon="-4.931231">
        <ele>1577.854</ele>
        <time>2021-08-03T15:09:19Z</time>
      </trkpt>
      <trkpt lat="43.242482" lon="-4.931273">
        <ele>1577.314</ele>
        <time>2021-08-03T15:09:26Z</time>
      </trkpt>
      <trkpt lat="43.242507" lon="-4.931333">
        <ele>1576.210</ele>
        <time>2021-08-03T15:09:33Z</time>
      </trkpt>
      <trkpt lat="43.242537" lon="-4.931389">
        <ele>1574.790</ele>
        <time>2021-08-03T15:09:42Z</time>
      </trkpt>
      <trkpt lat="43.242549" lon="-4.931454">
        <ele>1573.245</ele>
        <time>2021-08-03T15:09:49Z</time>
      </trkpt>
      <trkpt lat="43.242565" lon="-4.931517">
        <ele>1571.868</ele>
        <time>2021-08-03T15:09:56Z</time>
      </trkpt>
      <trkpt lat="43.242588" lon="-4.931572">
        <ele>1570.493</ele>
        <time>2021-08-03T15:10:08Z</time>
      </trkpt>
      <trkpt lat="43.242587" lon="-4.931635">
        <ele>1569.149</ele>
        <time>2021-08-03T15:10:15Z</time>
      </trkpt>
      <trkpt lat="43.242616" lon="-4.931688">
        <ele>1567.702</ele>
        <time>2021-08-03T15:10:26Z</time>
      </trkpt>
      <trkpt lat="43.242626" lon="-4.931753">
        <ele>1566.122</ele>
        <time>2021-08-03T15:10:34Z</time>
      </trkpt>
      <trkpt lat="43.242651" lon="-4.931816">
        <ele>1564.408</ele>
        <time>2021-08-03T15:10:39Z</time>
      </trkpt>
      <trkpt lat="43.242689" lon="-4.931851">
        <ele>1563.241</ele>
        <time>2021-08-03T15:10:45Z</time>
      </trkpt>
      <trkpt lat="43.242736" lon="-4.931846">
        <ele>1562.983</ele>
        <time>2021-08-03T15:10:55Z</time>
      </trkpt>
      <trkpt lat="43.242761" lon="-4.931902">
        <ele>1561.273</ele>
        <time>2021-08-03T15:11:02Z</time>
      </trkpt>
      <trkpt lat="43.242771" lon="-4.931969">
        <ele>1559.839</ele>
        <time>2021-08-03T15:11:23Z</time>
      </trkpt>
      <trkpt lat="43.24281" lon="-4.932005">
        <ele>1559.749</ele>
        <time>2021-08-03T15:11:42Z</time>
      </trkpt>
      <trkpt lat="43.242828" lon="-4.932074">
        <ele>1559.044</ele>
        <time>2021-08-03T15:11:51Z</time>
      </trkpt>
      <trkpt lat="43.242848" lon="-4.932129">
        <ele>1558.327</ele>
        <time>2021-08-03T15:12:02Z</time>
      </trkpt>
      <trkpt lat="43.242872" lon="-4.932195">
        <ele>1557.462</ele>
        <time>2021-08-03T15:12:10Z</time>
      </trkpt>
      <trkpt lat="43.2429" lon="-4.932244">
        <ele>1556.881</ele>
        <time>2021-08-03T15:12:16Z</time>
      </trkpt>
      <trkpt lat="43.242934" lon="-4.932289">
        <ele>1556.261</ele>
        <time>2021-08-03T15:12:23Z</time>
      </trkpt>
      <trkpt lat="43.24295" lon="-4.932352">
        <ele>1555.517</ele>
        <time>2021-08-03T15:12:29Z</time>
      </trkpt>
      <trkpt lat="43.242991" lon="-4.932381">
        <ele>1555.008</ele>
        <time>2021-08-03T15:12:34Z</time>
      </trkpt>
      <trkpt lat="43.24303" lon="-4.932429">
        <ele>1554.255</ele>
        <time>2021-08-03T15:12:46Z</time>
      </trkpt>
      <trkpt lat="43.243053" lon="-4.932484">
        <ele>1553.277</ele>
        <time>2021-08-03T15:12:51Z</time>
      </trkpt>
      <trkpt lat="43.243088" lon="-4.932529">
        <ele>1552.797</ele>
        <time>2021-08-03T15:12:56Z</time>
      </trkpt>
      <trkpt lat="43.243131" lon="-4.932565">
        <ele>1552.083</ele>
        <time>2021-08-03T15:13:04Z</time>
      </trkpt>
      <trkpt lat="43.243168" lon="-4.932608">
        <ele>1551.113</ele>
        <time>2021-08-03T15:13:11Z</time>
      </trkpt>
      <trkpt lat="43.243187" lon="-4.932668">
        <ele>1550.248</ele>
        <time>2021-08-03T15:13:18Z</time>
      </trkpt>
      <trkpt lat="43.243238" lon="-4.932678">
        <ele>1548.721</ele>
        <time>2021-08-03T15:13:27Z</time>
      </trkpt>
      <trkpt lat="43.24327" lon="-4.932725">
        <ele>1547.126</ele>
        <time>2021-08-03T15:13:32Z</time>
      </trkpt>
      <trkpt lat="43.243315" lon="-4.932741">
        <ele>1545.421</ele>
        <time>2021-08-03T15:13:37Z</time>
      </trkpt>
      <trkpt lat="43.243369" lon="-4.932761">
        <ele>1544.041</ele>
        <time>2021-08-03T15:13:42Z</time>
      </trkpt>
      <trkpt lat="43.243408" lon="-4.932796">
        <ele>1543.305</ele>
        <time>2021-08-03T15:13:46Z</time>
      </trkpt>
      <trkpt lat="43.243454" lon="-4.932817">
        <ele>1542.808</ele>
        <time>2021-08-03T15:13:51Z</time>
      </trkpt>
      <trkpt lat="43.243498" lon="-4.932861">
        <ele>1542.299</ele>
        <time>2021-08-03T15:13:56Z</time>
      </trkpt>
      <trkpt lat="43.243537" lon="-4.932905">
        <ele>1541.531</ele>
        <time>2021-08-03T15:14:02Z</time>
      </trkpt>
      <trkpt lat="43.243565" lon="-4.932966">
        <ele>1540.721</ele>
        <time>2021-08-03T15:14:10Z</time>
      </trkpt>
      <trkpt lat="43.243592" lon="-4.933022">
        <ele>1539.827</ele>
        <time>2021-08-03T15:14:19Z</time>
      </trkpt>
      <trkpt lat="43.243641" lon="-4.933034">
        <ele>1539.027</ele>
        <time>2021-08-03T15:14:31Z</time>
      </trkpt>
      <trkpt lat="43.243685" lon="-4.933072">
        <ele>1538.712</ele>
        <time>2021-08-03T15:14:37Z</time>
      </trkpt>
      <trkpt lat="43.243737" lon="-4.933112">
        <ele>1538.675</ele>
        <time>2021-08-03T15:14:41Z</time>
      </trkpt>
      <trkpt lat="43.243784" lon="-4.93314">
        <ele>1538.440</ele>
        <time>2021-08-03T15:14:44Z</time>
      </trkpt>
      <trkpt lat="43.24383" lon="-4.93313">
        <ele>1537.939</ele>
        <time>2021-08-03T15:14:50Z</time>
      </trkpt>
      <trkpt lat="43.24387" lon="-4.933168">
        <ele>1537.601</ele>
        <time>2021-08-03T15:14:53Z</time>
      </trkpt>
      <trkpt lat="43.243909" lon="-4.933205">
        <ele>1537.721</ele>
        <time>2021-08-03T15:14:56Z</time>
      </trkpt>
      <trkpt lat="43.243956" lon="-4.93323">
        <ele>1538.008</ele>
        <time>2021-08-03T15:14:59Z</time>
      </trkpt>
      <trkpt lat="43.244" lon="-4.933261">
        <ele>1538.280</ele>
        <time>2021-08-03T15:15:20Z</time>
      </trkpt>
      <trkpt lat="43.243995" lon="-4.933322">
        <ele>1538.072</ele>
        <time>2021-08-03T15:15:52Z</time>
      </trkpt>
      <trkpt lat="43.244026" lon="-4.933377">
        <ele>1538.262</ele>
        <time>2021-08-03T15:15:56Z</time>
      </trkpt>
      <trkpt lat="43.244049" lon="-4.933434">
        <ele>1538.278</ele>
        <time>2021-08-03T15:16:07Z</time>
      </trkpt>
      <trkpt lat="43.244097" lon="-4.933479">
        <ele>1537.788</ele>
        <time>2021-08-03T15:16:31Z</time>
      </trkpt>
      <trkpt lat="43.244136" lon="-4.933515">
        <ele>1537.183</ele>
        <time>2021-08-03T15:16:42Z</time>
      </trkpt>
      <trkpt lat="43.244166" lon="-4.933562">
        <ele>1536.496</ele>
        <time>2021-08-03T15:16:48Z</time>
      </trkpt>
      <trkpt lat="43.2442" lon="-4.933608">
        <ele>1535.981</ele>
        <time>2021-08-03T15:16:51Z</time>
      </trkpt>
      <trkpt lat="43.244236" lon="-4.933652">
        <ele>1535.219</ele>
        <time>2021-08-03T15:16:56Z</time>
      </trkpt>
      <trkpt lat="43.24426" lon="-4.933714">
        <ele>1534.309</ele>
        <time>2021-08-03T15:17:04Z</time>
      </trkpt>
      <trkpt lat="43.24428" lon="-4.933774">
        <ele>1533.419</ele>
        <time>2021-08-03T15:17:11Z</time>
      </trkpt>
      <trkpt lat="43.244312" lon="-4.933827">
        <ele>1532.308</ele>
        <time>2021-08-03T15:17:18Z</time>
      </trkpt>
      <trkpt lat="43.244349" lon="-4.933877">
        <ele>1531.258</ele>
        <time>2021-08-03T15:17:25Z</time>
      </trkpt>
      <trkpt lat="43.244375" lon="-4.933928">
        <ele>1530.260</ele>
        <time>2021-08-03T15:17:31Z</time>
      </trkpt>
      <trkpt lat="43.244379" lon="-4.93399">
        <ele>1529.380</ele>
        <time>2021-08-03T15:17:40Z</time>
      </trkpt>
      <trkpt lat="43.244414" lon="-4.934043">
        <ele>1528.276</ele>
        <time>2021-08-03T15:17:55Z</time>
      </trkpt>
      <trkpt lat="43.244436" lon="-4.934102">
        <ele>1527.086</ele>
        <time>2021-08-03T15:18:00Z</time>
      </trkpt>
      <trkpt lat="43.244453" lon="-4.93416">
        <ele>1526.341</ele>
        <time>2021-08-03T15:18:05Z</time>
      </trkpt>
      <trkpt lat="43.244482" lon="-4.934221">
        <ele>1526.114</ele>
        <time>2021-08-03T15:18:10Z</time>
      </trkpt>
      <trkpt lat="43.244522" lon="-4.934267">
        <ele>1526.179</ele>
        <time>2021-08-03T15:18:15Z</time>
      </trkpt>
      <trkpt lat="43.244547" lon="-4.93432">
        <ele>1525.578</ele>
        <time>2021-08-03T15:18:20Z</time>
      </trkpt>
      <trkpt lat="43.244582" lon="-4.934372">
        <ele>1524.833</ele>
        <time>2021-08-03T15:18:27Z</time>
      </trkpt>
      <trkpt lat="43.244619" lon="-4.934414">
        <ele>1524.026</ele>
        <time>2021-08-03T15:18:34Z</time>
      </trkpt>
      <trkpt lat="43.244659" lon="-4.934459">
        <ele>1522.908</ele>
        <time>2021-08-03T15:18:39Z</time>
      </trkpt>
      <trkpt lat="43.24469" lon="-4.934508">
        <ele>1521.774</ele>
        <time>2021-08-03T15:18:44Z</time>
      </trkpt>
      <trkpt lat="43.244719" lon="-4.934562">
        <ele>1520.136</ele>
        <time>2021-08-03T15:19:03Z</time>
      </trkpt>
      <trkpt lat="43.244704" lon="-4.934628">
        <ele>1518.796</ele>
        <time>2021-08-03T15:19:09Z</time>
      </trkpt>
      <trkpt lat="43.244734" lon="-4.934676">
        <ele>1517.212</ele>
        <time>2021-08-03T15:19:21Z</time>
      </trkpt>
      <trkpt lat="43.244755" lon="-4.934732">
        <ele>1515.972</ele>
        <time>2021-08-03T15:19:29Z</time>
      </trkpt>
      <trkpt lat="43.244771" lon="-4.934796">
        <ele>1514.977</ele>
        <time>2021-08-03T15:19:51Z</time>
      </trkpt>
      <trkpt lat="43.244809" lon="-4.934833">
        <ele>1514.330</ele>
        <time>2021-08-03T15:20:04Z</time>
      </trkpt>
      <trkpt lat="43.244839" lon="-4.934886">
        <ele>1513.415</ele>
        <time>2021-08-03T15:20:44Z</time>
      </trkpt>
      <trkpt lat="43.244852" lon="-4.934957">
        <ele>1512.273</ele>
        <time>2021-08-03T15:20:49Z</time>
      </trkpt>
      <trkpt lat="43.244858" lon="-4.93502">
        <ele>1511.585</ele>
        <time>2021-08-03T15:20:55Z</time>
      </trkpt>
      <trkpt lat="43.244868" lon="-4.935091">
        <ele>1511.313</ele>
        <time>2021-08-03T15:21:03Z</time>
      </trkpt>
      <trkpt lat="43.244888" lon="-4.935157">
        <ele>1511.008</ele>
        <time>2021-08-03T15:21:07Z</time>
      </trkpt>
      <trkpt lat="43.244903" lon="-4.935221">
        <ele>1510.634</ele>
        <time>2021-08-03T15:21:11Z</time>
      </trkpt>
      <trkpt lat="43.244924" lon="-4.935289">
        <ele>1510.086</ele>
        <time>2021-08-03T15:21:14Z</time>
      </trkpt>
      <trkpt lat="43.244932" lon="-4.935362">
        <ele>1509.556</ele>
        <time>2021-08-03T15:21:20Z</time>
      </trkpt>
      <trkpt lat="43.244951" lon="-4.93542">
        <ele>1508.712</ele>
        <time>2021-08-03T15:21:24Z</time>
      </trkpt>
      <trkpt lat="43.244972" lon="-4.935481">
        <ele>1507.772</ele>
        <time>2021-08-03T15:21:31Z</time>
      </trkpt>
      <trkpt lat="43.244988" lon="-4.935546">
        <ele>1506.527</ele>
        <time>2021-08-03T15:21:38Z</time>
      </trkpt>
      <trkpt lat="43.244997" lon="-4.935608">
        <ele>1505.440</ele>
        <time>2021-08-03T15:21:42Z</time>
      </trkpt>
      <trkpt lat="43.244987" lon="-4.935669">
        <ele>1504.925</ele>
        <time>2021-08-03T15:21:51Z</time>
      </trkpt>
      <trkpt lat="43.245007" lon="-4.935731">
        <ele>1503.582</ele>
        <time>2021-08-03T15:22:12Z</time>
      </trkpt>
      <trkpt lat="43.24502" lon="-4.935799">
        <ele>1502.743</ele>
        <time>2021-08-03T15:22:19Z</time>
      </trkpt>
      <trkpt lat="43.245054" lon="-4.935843">
        <ele>1502.417</ele>
        <time>2021-08-03T15:23:04Z</time>
      </trkpt>
      <trkpt lat="43.245013" lon="-4.935868">
        <ele>1501.408</ele>
        <time>2021-08-03T15:25:36Z</time>
      </trkpt>
      <trkpt lat="43.245028" lon="-4.935927">
        <ele>1500.335</ele>
        <time>2021-08-03T15:26:48Z</time>
      </trkpt>
      <trkpt lat="43.245044" lon="-4.935997">
        <ele>1499.197</ele>
        <time>2021-08-03T15:27:01Z</time>
      </trkpt>
      <trkpt lat="43.245062" lon="-4.93606">
        <ele>1498.167</ele>
        <time>2021-08-03T15:27:08Z</time>
      </trkpt>
      <trkpt lat="43.245071" lon="-4.936122">
        <ele>1497.323</ele>
        <time>2021-08-03T15:27:11Z</time>
      </trkpt>
      <trkpt lat="43.245066" lon="-4.936188">
        <ele>1497.113</ele>
        <time>2021-08-03T15:27:16Z</time>
      </trkpt>
      <trkpt lat="43.245052" lon="-4.936249">
        <ele>1496.958</ele>
        <time>2021-08-03T15:27:21Z</time>
      </trkpt>
      <trkpt lat="43.245059" lon="-4.936322">
        <ele>1496.911</ele>
        <time>2021-08-03T15:27:26Z</time>
      </trkpt>
      <trkpt lat="43.245077" lon="-4.93638">
        <ele>1496.756</ele>
        <time>2021-08-03T15:27:31Z</time>
      </trkpt>
      <trkpt lat="43.245096" lon="-4.93644">
        <ele>1496.027</ele>
        <time>2021-08-03T15:27:48Z</time>
      </trkpt>
      <trkpt lat="43.24514" lon="-4.936456">
        <ele>1495.568</ele>
        <time>2021-08-03T15:27:54Z</time>
      </trkpt>
      <trkpt lat="43.24517" lon="-4.936503">
        <ele>1494.714</ele>
        <time>2021-08-03T15:28:02Z</time>
      </trkpt>
      <trkpt lat="43.245192" lon="-4.93656">
        <ele>1493.608</ele>
        <time>2021-08-03T15:28:06Z</time>
      </trkpt>
      <trkpt lat="43.245217" lon="-4.936618">
        <ele>1492.529</ele>
        <time>2021-08-03T15:28:09Z</time>
      </trkpt>
      <trkpt lat="43.245241" lon="-4.936685">
        <ele>1491.131</ele>
        <time>2021-08-03T15:28:16Z</time>
      </trkpt>
      <trkpt lat="43.245261" lon="-4.936743">
        <ele>1490.191</ele>
        <time>2021-08-03T15:28:24Z</time>
      </trkpt>
      <trkpt lat="43.245285" lon="-4.936797">
        <ele>1489.367</ele>
        <time>2021-08-03T15:28:47Z</time>
      </trkpt>
      <trkpt lat="43.245316" lon="-4.936847">
        <ele>1489.417</ele>
        <time>2021-08-03T15:28:54Z</time>
      </trkpt>
      <trkpt lat="43.245338" lon="-4.936902">
        <ele>1489.282</ele>
        <time>2021-08-03T15:29:01Z</time>
      </trkpt>
      <trkpt lat="43.245375" lon="-4.936951">
        <ele>1489.415</ele>
        <time>2021-08-03T15:29:06Z</time>
      </trkpt>
      <trkpt lat="43.245408" lon="-4.937012">
        <ele>1489.230</ele>
        <time>2021-08-03T15:29:11Z</time>
      </trkpt>
      <trkpt lat="43.245439" lon="-4.937058">
        <ele>1489.132</ele>
        <time>2021-08-03T15:29:15Z</time>
      </trkpt>
      <trkpt lat="43.245477" lon="-4.937102">
        <ele>1488.992</ele>
        <time>2021-08-03T15:29:21Z</time>
      </trkpt>
      <trkpt lat="43.245515" lon="-4.937141">
        <ele>1488.511</ele>
        <time>2021-08-03T15:29:27Z</time>
      </trkpt>
      <trkpt lat="43.24554" lon="-4.937196">
        <ele>1487.508</ele>
        <time>2021-08-03T15:29:34Z</time>
      </trkpt>
      <trkpt lat="43.245572" lon="-4.937239">
        <ele>1487.070</ele>
        <time>2021-08-03T15:29:41Z</time>
      </trkpt>
      <trkpt lat="43.245603" lon="-4.937289">
        <ele>1486.732</ele>
        <time>2021-08-03T15:29:50Z</time>
      </trkpt>
      <trkpt lat="43.245627" lon="-4.937348">
        <ele>1485.962</ele>
        <time>2021-08-03T15:29:57Z</time>
      </trkpt>
      <trkpt lat="43.245662" lon="-4.937394">
        <ele>1485.568</ele>
        <time>2021-08-03T15:30:05Z</time>
      </trkpt>
      <trkpt lat="43.245709" lon="-4.937416">
        <ele>1485.748</ele>
        <time>2021-08-03T15:30:11Z</time>
      </trkpt>
      <trkpt lat="43.245749" lon="-4.937461">
        <ele>1485.183</ele>
        <time>2021-08-03T15:30:16Z</time>
      </trkpt>
      <trkpt lat="43.245785" lon="-4.937503">
        <ele>1484.486</ele>
        <time>2021-08-03T15:30:21Z</time>
      </trkpt>
      <trkpt lat="43.24584" lon="-4.937516">
        <ele>1484.761</ele>
        <time>2021-08-03T15:30:26Z</time>
      </trkpt>
      <trkpt lat="43.245884" lon="-4.93753">
        <ele>1483.965</ele>
        <time>2021-08-03T15:30:30Z</time>
      </trkpt>
      <trkpt lat="43.245917" lon="-4.937587">
        <ele>1482.668</ele>
        <time>2021-08-03T15:30:36Z</time>
      </trkpt>
      <trkpt lat="43.245961" lon="-4.937605">
        <ele>1481.814</ele>
        <time>2021-08-03T15:30:42Z</time>
      </trkpt>
      <trkpt lat="43.246002" lon="-4.937577">
        <ele>1481.608</ele>
        <time>2021-08-03T15:31:01Z</time>
      </trkpt>
      <trkpt lat="43.246052" lon="-4.937562">
        <ele>1481.173</ele>
        <time>2021-08-03T15:31:11Z</time>
      </trkpt>
      <trkpt lat="43.246109" lon="-4.937571">
        <ele>1480.385</ele>
        <time>2021-08-03T15:31:13Z</time>
      </trkpt>
      <trkpt lat="43.246157" lon="-4.937589">
        <ele>1480.325</ele>
        <time>2021-08-03T15:31:18Z</time>
      </trkpt>
      <trkpt lat="43.246206" lon="-4.937609">
        <ele>1480.291</ele>
        <time>2021-08-03T15:31:23Z</time>
      </trkpt>
      <trkpt lat="43.246243" lon="-4.93765">
        <ele>1479.511</ele>
        <time>2021-08-03T15:31:27Z</time>
      </trkpt>
      <trkpt lat="43.246276" lon="-4.937704">
        <ele>1478.446</ele>
        <time>2021-08-03T15:31:31Z</time>
      </trkpt>
      <trkpt lat="43.246314" lon="-4.93775">
        <ele>1477.239</ele>
        <time>2021-08-03T15:31:35Z</time>
      </trkpt>
      <trkpt lat="43.246355" lon="-4.937801">
        <ele>1476.274</ele>
        <time>2021-08-03T15:31:39Z</time>
      </trkpt>
      <trkpt lat="43.246383" lon="-4.937855">
        <ele>1476.056</ele>
        <time>2021-08-03T15:31:43Z</time>
      </trkpt>
      <trkpt lat="43.246419" lon="-4.9379">
        <ele>1476.559</ele>
        <time>2021-08-03T15:31:49Z</time>
      </trkpt>
      <trkpt lat="43.246463" lon="-4.937941">
        <ele>1476.914</ele>
        <time>2021-08-03T15:31:55Z</time>
      </trkpt>
      <trkpt lat="43.246503" lon="-4.937996">
        <ele>1476.708</ele>
        <time>2021-08-03T15:32:00Z</time>
      </trkpt>
      <trkpt lat="43.24654" lon="-4.938032">
        <ele>1476.492</ele>
        <time>2021-08-03T15:32:03Z</time>
      </trkpt>
      <trkpt lat="43.246572" lon="-4.93808">
        <ele>1475.964</ele>
        <time>2021-08-03T15:32:07Z</time>
      </trkpt>
      <trkpt lat="43.246615" lon="-4.938123">
        <ele>1475.814</ele>
        <time>2021-08-03T15:32:13Z</time>
      </trkpt>
      <trkpt lat="43.24667" lon="-4.938139">
        <ele>1476.010</ele>
        <time>2021-08-03T15:32:18Z</time>
      </trkpt>
      <trkpt lat="43.246711" lon="-4.938173">
        <ele>1476.410</ele>
        <time>2021-08-03T15:32:22Z</time>
      </trkpt>
      <trkpt lat="43.246758" lon="-4.938204">
        <ele>1476.615</ele>
        <time>2021-08-03T15:32:25Z</time>
      </trkpt>
      <trkpt lat="43.246797" lon="-4.938237">
        <ele>1476.448</ele>
        <time>2021-08-03T15:32:30Z</time>
      </trkpt>
      <trkpt lat="43.246836" lon="-4.938288">
        <ele>1475.693</ele>
        <time>2021-08-03T15:32:35Z</time>
      </trkpt>
      <trkpt lat="43.24687" lon="-4.938332">
        <ele>1474.682</ele>
        <time>2021-08-03T15:32:39Z</time>
      </trkpt>
      <trkpt lat="43.246905" lon="-4.938388">
        <ele>1473.743</ele>
        <time>2021-08-03T15:32:43Z</time>
      </trkpt>
      <trkpt lat="43.246946" lon="-4.938439">
        <ele>1472.917</ele>
        <time>2021-08-03T15:32:46Z</time>
      </trkpt>
      <trkpt lat="43.246992" lon="-4.938462">
        <ele>1472.608</ele>
        <time>2021-08-03T15:32:51Z</time>
      </trkpt>
      <trkpt lat="43.247033" lon="-4.938495">
        <ele>1472.075</ele>
        <time>2021-08-03T15:32:57Z</time>
      </trkpt>
      <trkpt lat="43.247055" lon="-4.938549">
        <ele>1470.967</ele>
        <time>2021-08-03T15:33:13Z</time>
      </trkpt>
      <trkpt lat="43.247102" lon="-4.938558">
        <ele>1470.467</ele>
        <time>2021-08-03T15:33:20Z</time>
      </trkpt>
      <trkpt lat="43.24713" lon="-4.938619">
        <ele>1468.823</ele>
        <time>2021-08-03T15:33:25Z</time>
      </trkpt>
      <trkpt lat="43.24716" lon="-4.93867">
        <ele>1467.423</ele>
        <time>2021-08-03T15:33:30Z</time>
      </trkpt>
      <trkpt lat="43.247183" lon="-4.938733">
        <ele>1465.928</ele>
        <time>2021-08-03T15:33:38Z</time>
      </trkpt>
      <trkpt lat="43.247205" lon="-4.938794">
        <ele>1464.321</ele>
        <time>2021-08-03T15:33:45Z</time>
      </trkpt>
      <trkpt lat="43.24721" lon="-4.93886">
        <ele>1462.826</ele>
        <time>2021-08-03T15:33:50Z</time>
      </trkpt>
      <trkpt lat="43.247245" lon="-4.938912">
        <ele>1462.212</ele>
        <time>2021-08-03T15:34:07Z</time>
      </trkpt>
      <trkpt lat="43.247279" lon="-4.938957">
        <ele>1462.132</ele>
        <time>2021-08-03T15:34:10Z</time>
      </trkpt>
      <trkpt lat="43.247327" lon="-4.938995">
        <ele>1462.105</ele>
        <time>2021-08-03T15:34:15Z</time>
      </trkpt>
      <trkpt lat="43.24736" lon="-4.939048">
        <ele>1461.108</ele>
        <time>2021-08-03T15:34:21Z</time>
      </trkpt>
      <trkpt lat="43.24738" lon="-4.939113">
        <ele>1459.368</ele>
        <time>2021-08-03T15:34:30Z</time>
      </trkpt>
      <trkpt lat="43.247407" lon="-4.939164">
        <ele>1457.880</ele>
        <time>2021-08-03T15:35:13Z</time>
      </trkpt>
      <trkpt lat="43.247439" lon="-4.939215">
        <ele>1456.940</ele>
        <time>2021-08-03T15:35:32Z</time>
      </trkpt>
      <trkpt lat="43.247455" lon="-4.939276">
        <ele>1455.826</ele>
        <time>2021-08-03T15:35:39Z</time>
      </trkpt>
      <trkpt lat="43.247478" lon="-4.939349">
        <ele>1454.266</ele>
        <time>2021-08-03T15:35:44Z</time>
      </trkpt>
      <trkpt lat="43.247498" lon="-4.939407">
        <ele>1452.871</ele>
        <time>2021-08-03T15:35:46Z</time>
      </trkpt>
      <trkpt lat="43.247517" lon="-4.939484">
        <ele>1452.234</ele>
        <time>2021-08-03T15:35:51Z</time>
      </trkpt>
      <trkpt lat="43.247536" lon="-4.939551">
        <ele>1452.059</ele>
        <time>2021-08-03T15:35:55Z</time>
      </trkpt>
      <trkpt lat="43.247549" lon="-4.939615">
        <ele>1451.433</ele>
        <time>2021-08-03T15:36:00Z</time>
      </trkpt>
      <trkpt lat="43.247561" lon="-4.939675">
        <ele>1450.723</ele>
        <time>2021-08-03T15:36:05Z</time>
      </trkpt>
      <trkpt lat="43.247583" lon="-4.939735">
        <ele>1450.115</ele>
        <time>2021-08-03T15:36:09Z</time>
      </trkpt>
      <trkpt lat="43.247614" lon="-4.939793">
        <ele>1450.008</ele>
        <time>2021-08-03T15:36:16Z</time>
      </trkpt>
      <trkpt lat="43.247649" lon="-4.939838">
        <ele>1449.840</ele>
        <time>2021-08-03T15:36:20Z</time>
      </trkpt>
      <trkpt lat="43.247683" lon="-4.939892">
        <ele>1449.482</ele>
        <time>2021-08-03T15:36:25Z</time>
      </trkpt>
      <trkpt lat="43.2477" lon="-4.939951">
        <ele>1448.782</ele>
        <time>2021-08-03T15:36:30Z</time>
      </trkpt>
      <trkpt lat="43.247743" lon="-4.939993">
        <ele>1448.148</ele>
        <time>2021-08-03T15:36:35Z</time>
      </trkpt>
      <trkpt lat="43.247785" lon="-4.940036">
        <ele>1447.648</ele>
        <time>2021-08-03T15:36:40Z</time>
      </trkpt>
      <trkpt lat="43.247826" lon="-4.940072">
        <ele>1447.733</ele>
        <time>2021-08-03T15:36:44Z</time>
      </trkpt>
      <trkpt lat="43.24787" lon="-4.940109">
        <ele>1447.686</ele>
        <time>2021-08-03T15:36:48Z</time>
      </trkpt>
      <trkpt lat="43.247914" lon="-4.940136">
        <ele>1447.511</ele>
        <time>2021-08-03T15:36:52Z</time>
      </trkpt>
      <trkpt lat="43.247951" lon="-4.940189">
        <ele>1446.722</ele>
        <time>2021-08-03T15:36:57Z</time>
      </trkpt>
      <trkpt lat="43.247995" lon="-4.940223">
        <ele>1446.262</ele>
        <time>2021-08-03T15:37:01Z</time>
      </trkpt>
      <trkpt lat="43.248036" lon="-4.940269">
        <ele>1445.208</ele>
        <time>2021-08-03T15:37:07Z</time>
      </trkpt>
      <trkpt lat="43.24808" lon="-4.940307">
        <ele>1446.408</ele>
        <time>2021-08-03T15:37:11Z</time>
      </trkpt>
      <trkpt lat="43.248113" lon="-4.940354">
        <ele>1448.079</ele>
        <time>2021-08-03T15:37:17Z</time>
      </trkpt>
      <trkpt lat="43.248151" lon="-4.940395">
        <ele>1449.021</ele>
        <time>2021-08-03T15:37:22Z</time>
      </trkpt>
      <trkpt lat="43.24819" lon="-4.940434">
        <ele>1449.351</ele>
        <time>2021-08-03T15:37:27Z</time>
      </trkpt>
      <trkpt lat="43.248232" lon="-4.940459">
        <ele>1449.167</ele>
        <time>2021-08-03T15:37:50Z</time>
      </trkpt>
      <trkpt lat="43.24826" lon="-4.940515">
        <ele>1448.377</ele>
        <time>2021-08-03T15:38:03Z</time>
      </trkpt>
      <trkpt lat="43.248293" lon="-4.940562">
        <ele>1447.162</ele>
        <time>2021-08-03T15:38:07Z</time>
      </trkpt>
      <trkpt lat="43.248335" lon="-4.940617">
        <ele>1446.575</ele>
        <time>2021-08-03T15:38:11Z</time>
      </trkpt>
      <trkpt lat="43.248369" lon="-4.940666">
        <ele>1447.090</ele>
        <time>2021-08-03T15:38:15Z</time>
      </trkpt>
      <trkpt lat="43.24841" lon="-4.940705">
        <ele>1447.086</ele>
        <time>2021-08-03T15:38:19Z</time>
      </trkpt>
      <trkpt lat="43.248449" lon="-4.940742">
        <ele>1446.560</ele>
        <time>2021-08-03T15:38:23Z</time>
      </trkpt>
      <trkpt lat="43.248489" lon="-4.940789">
        <ele>1445.426</ele>
        <time>2021-08-03T15:38:28Z</time>
      </trkpt>
      <trkpt lat="43.24853" lon="-4.940819">
        <ele>1444.108</ele>
        <time>2021-08-03T15:38:32Z</time>
      </trkpt>
      <trkpt lat="43.248564" lon="-4.940862">
        <ele>1442.825</ele>
        <time>2021-08-03T15:38:36Z</time>
      </trkpt>
      <trkpt lat="43.248603" lon="-4.940911">
        <ele>1441.437</ele>
        <time>2021-08-03T15:38:41Z</time>
      </trkpt>
      <trkpt lat="43.248629" lon="-4.94097">
        <ele>1440.577</ele>
        <time>2021-08-03T15:38:47Z</time>
      </trkpt>
      <trkpt lat="43.248642" lon="-4.941042">
        <ele>1439.523</ele>
        <time>2021-08-03T15:38:52Z</time>
      </trkpt>
      <trkpt lat="43.248669" lon="-4.941102">
        <ele>1438.363</ele>
        <time>2021-08-03T15:39:00Z</time>
      </trkpt>
      <trkpt lat="43.248703" lon="-4.941154">
        <ele>1438.228</ele>
        <time>2021-08-03T15:39:04Z</time>
      </trkpt>
      <trkpt lat="43.248739" lon="-4.941193">
        <ele>1438.121</ele>
        <time>2021-08-03T15:39:09Z</time>
      </trkpt>
      <trkpt lat="43.248778" lon="-4.941233">
        <ele>1437.876</ele>
        <time>2021-08-03T15:39:13Z</time>
      </trkpt>
      <trkpt lat="43.24881" lon="-4.941282">
        <ele>1437.758</ele>
        <time>2021-08-03T15:39:17Z</time>
      </trkpt>
      <trkpt lat="43.248852" lon="-4.941313">
        <ele>1437.252</ele>
        <time>2021-08-03T15:39:24Z</time>
      </trkpt>
      <trkpt lat="43.248902" lon="-4.941338">
        <ele>1436.717</ele>
        <time>2021-08-03T15:39:50Z</time>
      </trkpt>
      <trkpt lat="43.248924" lon="-4.941394">
        <ele>1437.208</ele>
        <time>2021-08-03T15:39:56Z</time>
      </trkpt>
      <trkpt lat="43.248948" lon="-4.941472">
        <ele>1438.222</ele>
        <time>2021-08-03T15:39:59Z</time>
      </trkpt>
      <trkpt lat="43.248967" lon="-4.941531">
        <ele>1438.644</ele>
        <time>2021-08-03T15:40:03Z</time>
      </trkpt>
      <trkpt lat="43.248985" lon="-4.941602">
        <ele>1438.814</ele>
        <time>2021-08-03T15:40:08Z</time>
      </trkpt>
      <trkpt lat="43.249008" lon="-4.941664">
        <ele>1438.350</ele>
        <time>2021-08-03T15:40:13Z</time>
      </trkpt>
      <trkpt lat="43.24903" lon="-4.94172">
        <ele>1437.860</ele>
        <time>2021-08-03T15:40:20Z</time>
      </trkpt>
      <trkpt lat="43.249041" lon="-4.941782">
        <ele>1437.735</ele>
        <time>2021-08-03T15:40:25Z</time>
      </trkpt>
      <trkpt lat="43.249047" lon="-4.941856">
        <ele>1437.948</ele>
        <time>2021-08-03T15:40:30Z</time>
      </trkpt>
      <trkpt lat="43.249065" lon="-4.941919">
        <ele>1437.443</ele>
        <time>2021-08-03T15:40:51Z</time>
      </trkpt>
      <trkpt lat="43.249073" lon="-4.941992">
        <ele>1437.961</ele>
        <time>2021-08-03T15:40:58Z</time>
      </trkpt>
      <trkpt lat="43.249076" lon="-4.942058">
        <ele>1438.821</ele>
        <time>2021-08-03T15:41:06Z</time>
      </trkpt>
      <trkpt lat="43.249108" lon="-4.942105">
        <ele>1437.913</ele>
        <time>2021-08-03T15:41:15Z</time>
      </trkpt>
      <trkpt lat="43.249155" lon="-4.942143">
        <ele>1436.208</ele>
        <time>2021-08-03T15:41:19Z</time>
      </trkpt>
      <trkpt lat="43.249191" lon="-4.942184">
        <ele>1435.543</ele>
        <time>2021-08-03T15:41:23Z</time>
      </trkpt>
      <trkpt lat="43.249237" lon="-4.942217">
        <ele>1434.495</ele>
        <time>2021-08-03T15:41:29Z</time>
      </trkpt>
      <trkpt lat="43.249274" lon="-4.942265">
        <ele>1434.165</ele>
        <time>2021-08-03T15:41:34Z</time>
      </trkpt>
      <trkpt lat="43.249316" lon="-4.942302">
        <ele>1433.231</ele>
        <time>2021-08-03T15:41:39Z</time>
      </trkpt>
      <trkpt lat="43.249329" lon="-4.942362">
        <ele>1433.761</ele>
        <time>2021-08-03T15:41:57Z</time>
      </trkpt>
      <trkpt lat="43.249356" lon="-4.942425">
        <ele>1433.586</ele>
        <time>2021-08-03T15:42:17Z</time>
      </trkpt>
      <trkpt lat="43.249372" lon="-4.942484">
        <ele>1433.769</ele>
        <time>2021-08-03T15:42:20Z</time>
      </trkpt>
      <trkpt lat="43.249382" lon="-4.942547">
        <ele>1433.954</ele>
        <time>2021-08-03T15:42:26Z</time>
      </trkpt>
      <trkpt lat="43.249411" lon="-4.9426">
        <ele>1433.335</ele>
        <time>2021-08-03T15:42:40Z</time>
      </trkpt>
      <trkpt lat="43.249436" lon="-4.942654">
        <ele>1433.186</ele>
        <time>2021-08-03T15:42:45Z</time>
      </trkpt>
      <trkpt lat="43.249481" lon="-4.942694">
        <ele>1433.014</ele>
        <time>2021-08-03T15:42:50Z</time>
      </trkpt>
      <trkpt lat="43.249528" lon="-4.942709">
        <ele>1432.508</ele>
        <time>2021-08-03T15:42:57Z</time>
      </trkpt>
      <trkpt lat="43.249542" lon="-4.942771">
        <ele>1433.130</ele>
        <time>2021-08-03T15:43:07Z</time>
      </trkpt>
      <trkpt lat="43.249572" lon="-4.942819">
        <ele>1433.942</ele>
        <time>2021-08-03T15:43:15Z</time>
      </trkpt>
      <trkpt lat="43.249608" lon="-4.942863">
        <ele>1434.372</ele>
        <time>2021-08-03T15:43:22Z</time>
      </trkpt>
      <trkpt lat="43.249633" lon="-4.942917">
        <ele>1435.158</ele>
        <time>2021-08-03T15:43:27Z</time>
      </trkpt>
      <trkpt lat="43.249646" lon="-4.942979">
        <ele>1436.248</ele>
        <time>2021-08-03T15:43:34Z</time>
      </trkpt>
      <trkpt lat="43.249679" lon="-4.943028">
        <ele>1436.153</ele>
        <time>2021-08-03T15:43:42Z</time>
      </trkpt>
      <trkpt lat="43.249695" lon="-4.943093">
        <ele>1437.256</ele>
        <time>2021-08-03T15:43:52Z</time>
      </trkpt>
      <trkpt lat="43.249701" lon="-4.943161">
        <ele>1438.921</ele>
        <time>2021-08-03T15:44:00Z</time>
      </trkpt>
      <trkpt lat="43.249747" lon="-4.943173">
        <ele>1438.258</ele>
        <time>2021-08-03T15:44:25Z</time>
      </trkpt>
      <trkpt lat="43.249777" lon="-4.94322">
        <ele>1439.252</ele>
        <time>2021-08-03T15:44:38Z</time>
      </trkpt>
      <trkpt lat="43.24982" lon="-4.943245">
        <ele>1439.517</ele>
        <time>2021-08-03T15:44:49Z</time>
      </trkpt>
      <trkpt lat="43.249862" lon="-4.943285">
        <ele>1440.208</ele>
        <time>2021-08-03T15:45:31Z</time>
      </trkpt>
      <trkpt lat="43.249905" lon="-4.943319">
        <ele>1440.672</ele>
        <time>2021-08-03T15:45:38Z</time>
      </trkpt>
      <trkpt lat="43.249949" lon="-4.943335">
        <ele>1440.674</ele>
        <time>2021-08-03T15:45:47Z</time>
      </trkpt>
      <trkpt lat="43.249973" lon="-4.943389">
        <ele>1440.764</ele>
        <time>2021-08-03T15:45:53Z</time>
      </trkpt>
      <trkpt lat="43.250003" lon="-4.943438">
        <ele>1440.490</ele>
        <time>2021-08-03T15:46:01Z</time>
      </trkpt>
      <trkpt lat="43.250036" lon="-4.943484">
        <ele>1440.270</ele>
        <time>2021-08-03T15:46:07Z</time>
      </trkpt>
      <trkpt lat="43.250081" lon="-4.943502">
        <ele>1439.785</ele>
        <time>2021-08-03T15:47:19Z</time>
      </trkpt>
      <trkpt lat="43.250116" lon="-4.943552">
        <ele>1438.918</ele>
        <time>2021-08-03T15:47:26Z</time>
      </trkpt>
      <trkpt lat="43.250157" lon="-4.943581">
        <ele>1437.963</ele>
        <time>2021-08-03T15:48:28Z</time>
      </trkpt>
      <trkpt lat="43.250186" lon="-4.943646">
        <ele>1436.354</ele>
        <time>2021-08-03T15:49:44Z</time>
      </trkpt>
      <trkpt lat="43.250142" lon="-4.943659">
        <ele>1437.156</ele>
        <time>2021-08-03T15:52:21Z</time>
      </trkpt>
      <trkpt lat="43.250163" lon="-4.943604">
        <ele>1437.611</ele>
        <time>2021-08-03T15:53:09Z</time>
      </trkpt>
      <trkpt lat="43.250189" lon="-4.943553">
        <ele>1437.708</ele>
        <time>2021-08-03T15:54:21Z</time>
      </trkpt>
      <trkpt lat="43.250202" lon="-4.943614">
        <ele>1436.622</ele>
        <time>2021-08-03T15:54:55Z</time>
      </trkpt>
      <trkpt lat="43.250196" lon="-4.943678">
        <ele>1435.424</ele>
        <time>2021-08-03T15:55:00Z</time>
      </trkpt>
      <trkpt lat="43.250168" lon="-4.943627">
        <ele>1437.114</ele>
        <time>2021-08-03T15:55:35Z</time>
      </trkpt>
      <trkpt lat="43.250166" lon="-4.943739">
        <ele>1434.910</ele>
        <time>2021-08-03T15:58:04Z</time>
      </trkpt>
      <trkpt lat="43.250197" lon="-4.943787">
        <ele>1433.030</ele>
        <time>2021-08-03T15:58:13Z</time>
      </trkpt>
      <trkpt lat="43.250243" lon="-4.9438">
        <ele>1431.365</ele>
        <time>2021-08-03T15:58:27Z</time>
      </trkpt>
      <trkpt lat="43.250282" lon="-4.943833">
        <ele>1429.318</ele>
        <time>2021-08-03T15:58:34Z</time>
      </trkpt>
      <trkpt lat="43.250326" lon="-4.943852">
        <ele>1427.583</ele>
        <time>2021-08-03T15:58:41Z</time>
      </trkpt>
      <trkpt lat="43.250367" lon="-4.943881">
        <ele>1425.395</ele>
        <time>2021-08-03T15:58:48Z</time>
      </trkpt>
      <trkpt lat="43.250399" lon="-4.943931">
        <ele>1423.349</ele>
        <time>2021-08-03T15:58:57Z</time>
      </trkpt>
      <trkpt lat="43.25045" lon="-4.943966">
        <ele>1421.023</ele>
        <time>2021-08-03T15:59:03Z</time>
      </trkpt>
      <trkpt lat="43.250484" lon="-4.944011">
        <ele>1419.108</ele>
        <time>2021-08-03T15:59:08Z</time>
      </trkpt>
      <trkpt lat="43.250507" lon="-4.94407">
        <ele>1417.356</ele>
        <time>2021-08-03T15:59:14Z</time>
      </trkpt>
      <trkpt lat="43.25051" lon="-4.944138">
        <ele>1416.028</ele>
        <time>2021-08-03T15:59:23Z</time>
      </trkpt>
      <trkpt lat="43.250542" lon="-4.944184">
        <ele>1414.468</ele>
        <time>2021-08-03T15:59:29Z</time>
      </trkpt>
      <trkpt lat="43.250559" lon="-4.94425">
        <ele>1413.694</ele>
        <time>2021-08-03T15:59:34Z</time>
      </trkpt>
      <trkpt lat="43.250561" lon="-4.944316">
        <ele>1413.394</ele>
        <time>2021-08-03T15:59:39Z</time>
      </trkpt>
      <trkpt lat="43.250595" lon="-4.944358">
        <ele>1412.119</ele>
        <time>2021-08-03T15:59:57Z</time>
      </trkpt>
      <trkpt lat="43.250638" lon="-4.944381">
        <ele>1410.792</ele>
        <time>2021-08-03T16:00:27Z</time>
      </trkpt>
      <trkpt lat="43.250687" lon="-4.944388">
        <ele>1409.117</ele>
        <time>2021-08-03T16:00:38Z</time>
      </trkpt>
      <trkpt lat="43.250733" lon="-4.944417">
        <ele>1407.532</ele>
        <time>2021-08-03T16:00:47Z</time>
      </trkpt>
      <trkpt lat="43.250778" lon="-4.944431">
        <ele>1405.992</ele>
        <time>2021-08-03T16:00:51Z</time>
      </trkpt>
      <trkpt lat="43.250821" lon="-4.944391">
        <ele>1405.011</ele>
        <time>2021-08-03T16:01:03Z</time>
      </trkpt>
      <trkpt lat="43.250873" lon="-4.944397">
        <ele>1404.308</ele>
        <time>2021-08-03T16:01:11Z</time>
      </trkpt>
      <trkpt lat="43.250926" lon="-4.944423">
        <ele>1403.560</ele>
        <time>2021-08-03T16:01:18Z</time>
      </trkpt>
      <trkpt lat="43.250979" lon="-4.944431">
        <ele>1402.832</ele>
        <time>2021-08-03T16:01:22Z</time>
      </trkpt>
      <trkpt lat="43.251019" lon="-4.944475">
        <ele>1402.042</ele>
        <time>2021-08-03T16:01:27Z</time>
      </trkpt>
      <trkpt lat="43.251062" lon="-4.944504">
        <ele>1401.318</ele>
        <time>2021-08-03T16:01:33Z</time>
      </trkpt>
      <trkpt lat="43.251086" lon="-4.94456">
        <ele>1400.658</ele>
        <time>2021-08-03T16:01:38Z</time>
      </trkpt>
      <trkpt lat="43.251122" lon="-4.944599">
        <ele>1399.833</ele>
        <time>2021-08-03T16:01:44Z</time>
      </trkpt>
      <trkpt lat="43.251165" lon="-4.944641">
        <ele>1398.776</ele>
        <time>2021-08-03T16:01:48Z</time>
      </trkpt>
      <trkpt lat="43.251202" lon="-4.944685">
        <ele>1397.371</ele>
        <time>2021-08-03T16:01:53Z</time>
      </trkpt>
      <trkpt lat="43.251243" lon="-4.944733">
        <ele>1395.756</ele>
        <time>2021-08-03T16:02:00Z</time>
      </trkpt>
      <trkpt lat="43.251288" lon="-4.944763">
        <ele>1394.559</ele>
        <time>2021-08-03T16:02:06Z</time>
      </trkpt>
      <trkpt lat="43.251342" lon="-4.944775">
        <ele>1393.114</ele>
        <time>2021-08-03T16:02:11Z</time>
      </trkpt>
      <trkpt lat="43.251377" lon="-4.944826">
        <ele>1392.008</ele>
        <time>2021-08-03T16:02:16Z</time>
      </trkpt>
      <trkpt lat="43.251387" lon="-4.944897">
        <ele>1391.442</ele>
        <time>2021-08-03T16:02:22Z</time>
      </trkpt>
      <trkpt lat="43.25141" lon="-4.944953">
        <ele>1390.984</ele>
        <time>2021-08-03T16:02:27Z</time>
      </trkpt>
      <trkpt lat="43.251432" lon="-4.945008">
        <ele>1390.534</ele>
        <time>2021-08-03T16:02:32Z</time>
      </trkpt>
      <trkpt lat="43.251464" lon="-4.945056">
        <ele>1389.470</ele>
        <time>2021-08-03T16:02:38Z</time>
      </trkpt>
      <trkpt lat="43.25149" lon="-4.945116">
        <ele>1388.060</ele>
        <time>2021-08-03T16:02:48Z</time>
      </trkpt>
      <trkpt lat="43.251516" lon="-4.945172">
        <ele>1386.725</ele>
        <time>2021-08-03T16:02:56Z</time>
      </trkpt>
      <trkpt lat="43.251563" lon="-4.945186">
        <ele>1386.038</ele>
        <time>2021-08-03T16:03:20Z</time>
      </trkpt>
      <trkpt lat="43.251592" lon="-4.945239">
        <ele>1384.613</ele>
        <time>2021-08-03T16:03:45Z</time>
      </trkpt>
      <trkpt lat="43.251627" lon="-4.945283">
        <ele>1383.326</ele>
        <time>2021-08-03T16:03:59Z</time>
      </trkpt>
      <trkpt lat="43.251667" lon="-4.945323">
        <ele>1382.247</ele>
        <time>2021-08-03T16:04:12Z</time>
      </trkpt>
      <trkpt lat="43.251707" lon="-4.945363">
        <ele>1380.111</ele>
        <time>2021-08-03T16:04:16Z</time>
      </trkpt>
      <trkpt lat="43.251746" lon="-4.945402">
        <ele>1378.408</ele>
        <time>2021-08-03T16:04:25Z</time>
      </trkpt>
      <trkpt lat="43.251783" lon="-4.945439">
        <ele>1377.049</ele>
        <time>2021-08-03T16:04:37Z</time>
      </trkpt>
      <trkpt lat="43.251806" lon="-4.945492">
        <ele>1375.961</ele>
        <time>2021-08-03T16:04:44Z</time>
      </trkpt>
      <trkpt lat="43.251848" lon="-4.945529">
        <ele>1374.851</ele>
        <time>2021-08-03T16:04:57Z</time>
      </trkpt>
      <trkpt lat="43.251887" lon="-4.945564">
        <ele>1374.387</ele>
        <time>2021-08-03T16:05:07Z</time>
      </trkpt>
      <trkpt lat="43.251929" lon="-4.945602">
        <ele>1374.747</ele>
        <time>2021-08-03T16:05:17Z</time>
      </trkpt>
      <trkpt lat="43.251962" lon="-4.94565">
        <ele>1375.592</ele>
        <time>2021-08-03T16:05:20Z</time>
      </trkpt>
      <trkpt lat="43.252006" lon="-4.945687">
        <ele>1375.585</ele>
        <time>2021-08-03T16:05:26Z</time>
      </trkpt>
      <trkpt lat="43.252049" lon="-4.945729">
        <ele>1375.750</ele>
        <time>2021-08-03T16:05:32Z</time>
      </trkpt>
      <trkpt lat="43.252084" lon="-4.945777">
        <ele>1376.565</ele>
        <time>2021-08-03T16:05:36Z</time>
      </trkpt>
      <trkpt lat="43.252123" lon="-4.945815">
        <ele>1376.868</ele>
        <time>2021-08-03T16:05:45Z</time>
      </trkpt>
      <trkpt lat="43.25217" lon="-4.945803">
        <ele>1375.214</ele>
        <time>2021-08-03T16:05:55Z</time>
      </trkpt>
      <trkpt lat="43.252237" lon="-4.945846">
        <ele>1374.808</ele>
        <time>2021-08-03T16:07:43Z</time>
      </trkpt>
      <trkpt lat="43.252273" lon="-4.945896">
        <ele>1374.663</ele>
        <time>2021-08-03T16:07:59Z</time>
      </trkpt>
      <trkpt lat="43.252302" lon="-4.945945">
        <ele>1374.515</ele>
        <time>2021-08-03T16:08:05Z</time>
      </trkpt>
      <trkpt lat="43.252322" lon="-4.946005">
        <ele>1374.795</ele>
        <time>2021-08-03T16:08:12Z</time>
      </trkpt>
      <trkpt lat="43.252353" lon="-4.946066">
        <ele>1374.741</ele>
        <time>2021-08-03T16:08:17Z</time>
      </trkpt>
      <trkpt lat="43.25238" lon="-4.946129">
        <ele>1374.671</ele>
        <time>2021-08-03T16:08:20Z</time>
      </trkpt>
      <trkpt lat="43.252405" lon="-4.946193">
        <ele>1373.946</ele>
        <time>2021-08-03T16:08:24Z</time>
      </trkpt>
      <trkpt lat="43.252426" lon="-4.946261">
        <ele>1373.389</ele>
        <time>2021-08-03T16:08:29Z</time>
      </trkpt>
      <trkpt lat="43.252458" lon="-4.946312">
        <ele>1373.134</ele>
        <time>2021-08-03T16:08:35Z</time>
      </trkpt>
      <trkpt lat="43.252452" lon="-4.946375">
        <ele>1372.973</ele>
        <time>2021-08-03T16:08:41Z</time>
      </trkpt>
      <trkpt lat="43.252477" lon="-4.946434">
        <ele>1372.185</ele>
        <time>2021-08-03T16:08:49Z</time>
      </trkpt>
      <trkpt lat="43.252504" lon="-4.946489">
        <ele>1371.313</ele>
        <time>2021-08-03T16:08:56Z</time>
      </trkpt>
      <trkpt lat="43.252539" lon="-4.946531">
        <ele>1371.108</ele>
        <time>2021-08-03T16:09:03Z</time>
      </trkpt>
      <trkpt lat="43.252563" lon="-4.946588">
        <ele>1370.644</ele>
        <time>2021-08-03T16:09:10Z</time>
      </trkpt>
      <trkpt lat="43.252593" lon="-4.946636">
        <ele>1370.546</ele>
        <time>2021-08-03T16:09:15Z</time>
      </trkpt>
      <trkpt lat="43.252616" lon="-4.946693">
        <ele>1369.836</ele>
        <time>2021-08-03T16:09:20Z</time>
      </trkpt>
      <trkpt lat="43.252632" lon="-4.946754">
        <ele>1368.572</ele>
        <time>2021-08-03T16:09:25Z</time>
      </trkpt>
      <trkpt lat="43.252647" lon="-4.946817">
        <ele>1367.112</ele>
        <time>2021-08-03T16:09:32Z</time>
      </trkpt>
      <trkpt lat="43.252654" lon="-4.946889">
        <ele>1365.447</ele>
        <time>2021-08-03T16:09:44Z</time>
      </trkpt>
      <trkpt lat="43.252661" lon="-4.946963">
        <ele>1363.610</ele>
        <time>2021-08-03T16:09:50Z</time>
      </trkpt>
      <trkpt lat="43.252692" lon="-4.947017">
        <ele>1362.915</ele>
        <time>2021-08-03T16:09:57Z</time>
      </trkpt>
      <trkpt lat="43.252724" lon="-4.947073">
        <ele>1362.365</ele>
        <time>2021-08-03T16:10:01Z</time>
      </trkpt>
      <trkpt lat="43.252752" lon="-4.94713">
        <ele>1361.668</ele>
        <time>2021-08-03T16:10:06Z</time>
      </trkpt>
      <trkpt lat="43.252779" lon="-4.947196">
        <ele>1360.714</ele>
        <time>2021-08-03T16:10:11Z</time>
      </trkpt>
      <trkpt lat="43.252799" lon="-4.947266">
        <ele>1359.708</ele>
        <time>2021-08-03T16:10:16Z</time>
      </trkpt>
      <trkpt lat="43.252825" lon="-4.947323">
        <ele>1359.283</ele>
        <time>2021-08-03T16:10:21Z</time>
      </trkpt>
      <trkpt lat="43.252854" lon="-4.947383">
        <ele>1358.835</ele>
        <time>2021-08-03T16:10:28Z</time>
      </trkpt>
      <trkpt lat="43.252864" lon="-4.947449">
        <ele>1357.895</ele>
        <time>2021-08-03T16:10:31Z</time>
      </trkpt>
      <trkpt lat="43.252838" lon="-4.947507">
        <ele>1356.361</ele>
        <time>2021-08-03T16:10:38Z</time>
      </trkpt>
      <trkpt lat="43.252874" lon="-4.947552">
        <ele>1357.191</ele>
        <time>2021-08-03T16:10:43Z</time>
      </trkpt>
      <trkpt lat="43.252916" lon="-4.947596">
        <ele>1357.646</ele>
        <time>2021-08-03T16:10:48Z</time>
      </trkpt>
      <trkpt lat="43.252961" lon="-4.94763">
        <ele>1358.029</ele>
        <time>2021-08-03T16:10:53Z</time>
      </trkpt>
      <trkpt lat="43.253005" lon="-4.947665">
        <ele>1358.234</ele>
        <time>2021-08-03T16:10:59Z</time>
      </trkpt>
      <trkpt lat="43.253028" lon="-4.947724">
        <ele>1357.773</ele>
        <time>2021-08-03T16:11:05Z</time>
      </trkpt>
      <trkpt lat="43.253061" lon="-4.947778">
        <ele>1357.085</ele>
        <time>2021-08-03T16:11:11Z</time>
      </trkpt>
      <trkpt lat="43.253094" lon="-4.947822">
        <ele>1357.113</ele>
        <time>2021-08-03T16:11:17Z</time>
      </trkpt>
      <trkpt lat="43.253141" lon="-4.94786">
        <ele>1356.708</ele>
        <time>2021-08-03T16:11:24Z</time>
      </trkpt>
      <trkpt lat="43.253169" lon="-4.947909">
        <ele>1355.914</ele>
        <time>2021-08-03T16:11:31Z</time>
      </trkpt>
      <trkpt lat="43.253202" lon="-4.947956">
        <ele>1354.716</ele>
        <time>2021-08-03T16:11:37Z</time>
      </trkpt>
      <trkpt lat="43.253243" lon="-4.947994">
        <ele>1353.126</ele>
        <time>2021-08-03T16:11:48Z</time>
      </trkpt>
      <trkpt lat="43.253284" lon="-4.948026">
        <ele>1351.392</ele>
        <time>2021-08-03T16:11:54Z</time>
      </trkpt>
      <trkpt lat="43.253312" lon="-4.948076">
        <ele>1348.912</ele>
        <time>2021-08-03T16:12:03Z</time>
      </trkpt>
      <trkpt lat="43.253302" lon="-4.94814">
        <ele>1347.257</ele>
        <time>2021-08-03T16:12:44Z</time>
      </trkpt>
      <trkpt lat="43.25333" lon="-4.948189">
        <ele>1344.380</ele>
        <time>2021-08-03T16:12:59Z</time>
      </trkpt>
      <trkpt lat="43.253347" lon="-4.948248">
        <ele>1342.115</ele>
        <time>2021-08-03T16:13:39Z</time>
      </trkpt>
      <trkpt lat="43.253315" lon="-4.948294">
        <ele>1341.589</ele>
        <time>2021-08-03T16:14:08Z</time>
      </trkpt>
      <trkpt lat="43.253281" lon="-4.94834">
        <ele>1342.106</ele>
        <time>2021-08-03T16:14:30Z</time>
      </trkpt>
      <trkpt lat="43.253275" lon="-4.948408">
        <ele>1339.926</ele>
        <time>2021-08-03T16:14:33Z</time>
      </trkpt>
      <trkpt lat="43.253316" lon="-4.948436">
        <ele>1336.308</ele>
        <time>2021-08-03T16:14:47Z</time>
      </trkpt>
      <trkpt lat="43.253364" lon="-4.948439">
        <ele>1335.095</ele>
        <time>2021-08-03T16:14:53Z</time>
      </trkpt>
      <trkpt lat="43.25341" lon="-4.948407">
        <ele>1335.997</ele>
        <time>2021-08-03T16:15:48Z</time>
      </trkpt>
      <trkpt lat="43.253456" lon="-4.948422">
        <ele>1335.187</ele>
        <time>2021-08-03T16:16:01Z</time>
      </trkpt>
      <trkpt lat="43.253482" lon="-4.948475">
        <ele>1332.873</ele>
        <time>2021-08-03T16:16:08Z</time>
      </trkpt>
      <trkpt lat="43.253511" lon="-4.948524">
        <ele>1330.663</ele>
        <time>2021-08-03T16:16:16Z</time>
      </trkpt>
      <trkpt lat="43.25356" lon="-4.94857">
        <ele>1328.358</ele>
        <time>2021-08-03T16:16:23Z</time>
      </trkpt>
      <trkpt lat="43.25359" lon="-4.948617">
        <ele>1325.991</ele>
        <time>2021-08-03T16:16:27Z</time>
      </trkpt>
      <trkpt lat="43.253633" lon="-4.94865">
        <ele>1324.446</ele>
        <time>2021-08-03T16:16:34Z</time>
      </trkpt>
      <trkpt lat="43.253681" lon="-4.94867">
        <ele>1324.156</ele>
        <time>2021-08-03T16:16:42Z</time>
      </trkpt>
      <trkpt lat="43.253702" lon="-4.948726">
        <ele>1321.759</ele>
        <time>2021-08-03T16:16:47Z</time>
      </trkpt>
      <trkpt lat="43.253733" lon="-4.948778">
        <ele>1319.814</ele>
        <time>2021-08-03T16:16:57Z</time>
      </trkpt>
      <trkpt lat="43.25376" lon="-4.948834">
        <ele>1317.608</ele>
        <time>2021-08-03T16:17:04Z</time>
      </trkpt>
      <trkpt lat="43.253794" lon="-4.948881">
        <ele>1316.072</ele>
        <time>2021-08-03T16:17:11Z</time>
      </trkpt>
      <trkpt lat="43.253809" lon="-4.948945">
        <ele>1313.784</ele>
        <time>2021-08-03T16:17:17Z</time>
      </trkpt>
      <trkpt lat="43.253846" lon="-4.948987">
        <ele>1312.944</ele>
        <time>2021-08-03T16:17:24Z</time>
      </trkpt>
      <trkpt lat="43.253868" lon="-4.949042">
        <ele>1311.530</ele>
        <time>2021-08-03T16:17:40Z</time>
      </trkpt>
      <trkpt lat="43.253911" lon="-4.949074">
        <ele>1311.120</ele>
        <time>2021-08-03T16:17:48Z</time>
      </trkpt>
      <trkpt lat="43.253935" lon="-4.949129">
        <ele>1309.345</ele>
        <time>2021-08-03T16:17:54Z</time>
      </trkpt>
      <trkpt lat="43.253963" lon="-4.949178">
        <ele>1307.678</ele>
        <time>2021-08-03T16:18:00Z</time>
      </trkpt>
      <trkpt lat="43.254008" lon="-4.94921">
        <ele>1306.353</ele>
        <time>2021-08-03T16:18:10Z</time>
      </trkpt>
      <trkpt lat="43.254004" lon="-4.949279">
        <ele>1303.665</ele>
        <time>2021-08-03T16:18:18Z</time>
      </trkpt>
      <trkpt lat="43.254043" lon="-4.949321">
        <ele>1301.968</ele>
        <time>2021-08-03T16:18:29Z</time>
      </trkpt>
      <trkpt lat="43.254093" lon="-4.949317">
        <ele>1302.014</ele>
        <time>2021-08-03T16:18:39Z</time>
      </trkpt>
      <trkpt lat="43.254136" lon="-4.949344">
        <ele>1301.008</ele>
        <time>2021-08-03T16:18:45Z</time>
      </trkpt>
      <trkpt lat="43.254161" lon="-4.9494">
        <ele>1298.883</ele>
        <time>2021-08-03T16:19:00Z</time>
      </trkpt>
      <trkpt lat="43.2542" lon="-4.949441">
        <ele>1297.145</ele>
        <time>2021-08-03T16:19:09Z</time>
      </trkpt>
      <trkpt lat="43.254235" lon="-4.949484">
        <ele>1295.745</ele>
        <time>2021-08-03T16:19:16Z</time>
      </trkpt>
      <trkpt lat="43.254245" lon="-4.949549">
        <ele>1293.641</ele>
        <time>2021-08-03T16:19:26Z</time>
      </trkpt>
      <trkpt lat="43.25429" lon="-4.949562">
        <ele>1292.951</ele>
        <time>2021-08-03T16:21:26Z</time>
      </trkpt>
      <trkpt lat="43.254317" lon="-4.949612">
        <ele>1290.966</ele>
        <time>2021-08-03T16:21:34Z</time>
      </trkpt>
      <trkpt lat="43.254356" lon="-4.949647">
        <ele>1289.249</ele>
        <time>2021-08-03T16:21:46Z</time>
      </trkpt>
      <trkpt lat="43.254378" lon="-4.949704">
        <ele>1286.784</ele>
        <time>2021-08-03T16:22:01Z</time>
      </trkpt>
      <trkpt lat="43.254372" lon="-4.949769">
        <ele>1284.453</ele>
        <time>2021-08-03T16:22:13Z</time>
      </trkpt>
      <trkpt lat="43.25437" lon="-4.949832">
        <ele>1282.204</ele>
        <time>2021-08-03T16:22:18Z</time>
      </trkpt>
      <trkpt lat="43.254396" lon="-4.949884">
        <ele>1280.214</ele>
        <time>2021-08-03T16:22:28Z</time>
      </trkpt>
      <trkpt lat="43.25441" lon="-4.949943">
        <ele>1278.008</ele>
        <time>2021-08-03T16:23:06Z</time>
      </trkpt>
      <trkpt lat="43.254386" lon="-4.949996">
        <ele>1276.342</ele>
        <time>2021-08-03T16:24:17Z</time>
      </trkpt>
      <trkpt lat="43.254358" lon="-4.950052">
        <ele>1274.974</ele>
        <time>2021-08-03T16:24:33Z</time>
      </trkpt>
      <trkpt lat="43.254362" lon="-4.950116">
        <ele>1273.124</ele>
        <time>2021-08-03T16:25:33Z</time>
      </trkpt>
      <trkpt lat="43.254334" lon="-4.950169">
        <ele>1271.770</ele>
        <time>2021-08-03T16:25:44Z</time>
      </trkpt>
      <trkpt lat="43.254305" lon="-4.950219">
        <ele>1270.260</ele>
        <time>2021-08-03T16:26:24Z</time>
      </trkpt>
      <trkpt lat="43.25427" lon="-4.950263">
        <ele>1268.855</ele>
        <time>2021-08-03T16:26:35Z</time>
      </trkpt>
      <trkpt lat="43.254306" lon="-4.950309">
        <ele>1269.068</ele>
        <time>2021-08-03T16:27:29Z</time>
      </trkpt>
      <trkpt lat="43.254334" lon="-4.950363">
        <ele>1269.753</ele>
        <time>2021-08-03T16:27:37Z</time>
      </trkpt>
      <trkpt lat="43.254369" lon="-4.950416">
        <ele>1270.396</ele>
        <time>2021-08-03T16:27:44Z</time>
      </trkpt>
      <trkpt lat="43.254394" lon="-4.950469">
        <ele>1270.731</ele>
        <time>2021-08-03T16:27:55Z</time>
      </trkpt>
      <trkpt lat="43.254431" lon="-4.950511">
        <ele>1270.824</ele>
        <time>2021-08-03T16:28:08Z</time>
      </trkpt>
      <trkpt lat="43.254469" lon="-4.950547">
        <ele>1270.508</ele>
        <time>2021-08-03T16:28:15Z</time>
      </trkpt>
      <trkpt lat="43.254499" lon="-4.950595">
        <ele>1271.096</ele>
        <time>2021-08-03T16:28:21Z</time>
      </trkpt>
      <trkpt lat="43.25454" lon="-4.950622">
        <ele>1271.038</ele>
        <time>2021-08-03T16:28:29Z</time>
      </trkpt>
      <trkpt lat="43.254595" lon="-4.950656">
        <ele>1270.818</ele>
        <time>2021-08-03T16:28:35Z</time>
      </trkpt>
      <trkpt lat="43.254642" lon="-4.950683">
        <ele>1270.794</ele>
        <time>2021-08-03T16:28:38Z</time>
      </trkpt>
      <trkpt lat="43.254684" lon="-4.950725">
        <ele>1271.084</ele>
        <time>2021-08-03T16:28:47Z</time>
      </trkpt>
      <trkpt lat="43.254728" lon="-4.950743">
        <ele>1270.419</ele>
        <time>2021-08-03T16:28:59Z</time>
      </trkpt>
      <trkpt lat="43.254772" lon="-4.950778">
        <ele>1268.722</ele>
        <time>2021-08-03T16:29:06Z</time>
      </trkpt>
      <trkpt lat="43.254812" lon="-4.950814">
        <ele>1267.137</ele>
        <time>2021-08-03T16:29:11Z</time>
      </trkpt>
      <trkpt lat="43.254839" lon="-4.950869">
        <ele>1266.594</ele>
        <time>2021-08-03T16:29:19Z</time>
      </trkpt>
      <trkpt lat="43.254854" lon="-4.95093">
        <ele>1266.857</ele>
        <time>2021-08-03T16:29:22Z</time>
      </trkpt>
      <trkpt lat="43.254864" lon="-4.950997">
        <ele>1267.622</ele>
        <time>2021-08-03T16:29:27Z</time>
      </trkpt>
      <trkpt lat="43.254862" lon="-4.951064">
        <ele>1269.008</ele>
        <time>2021-08-03T16:29:35Z</time>
      </trkpt>
      <trkpt lat="43.25489" lon="-4.951121">
        <ele>1268.576</ele>
        <time>2021-08-03T16:29:42Z</time>
      </trkpt>
      <trkpt lat="43.254911" lon="-4.951186">
        <ele>1268.318</ele>
        <time>2021-08-03T16:29:47Z</time>
      </trkpt>
      <trkpt lat="43.254918" lon="-4.951248">
        <ele>1268.818</ele>
        <time>2021-08-03T16:29:52Z</time>
      </trkpt>
      <trkpt lat="43.254907" lon="-4.951312">
        <ele>1270.524</ele>
        <time>2021-08-03T16:29:59Z</time>
      </trkpt>
      <trkpt lat="43.25491" lon="-4.951377">
        <ele>1271.374</ele>
        <time>2021-08-03T16:30:08Z</time>
      </trkpt>
      <trkpt lat="43.254937" lon="-4.951432">
        <ele>1269.839</ele>
        <time>2021-08-03T16:30:18Z</time>
      </trkpt>
      <trkpt lat="43.254935" lon="-4.951499">
        <ele>1270.032</ele>
        <time>2021-08-03T16:30:49Z</time>
      </trkpt>
      <trkpt lat="43.25495" lon="-4.95156">
        <ele>1268.917</ele>
        <time>2021-08-03T16:30:59Z</time>
      </trkpt>
      <trkpt lat="43.254956" lon="-4.951633">
        <ele>1268.477</ele>
        <time>2021-08-03T16:31:05Z</time>
      </trkpt>
      <trkpt lat="43.254965" lon="-4.951698">
        <ele>1268.161</ele>
        <time>2021-08-03T16:31:08Z</time>
      </trkpt>
      <trkpt lat="43.254975" lon="-4.951766">
        <ele>1268.327</ele>
        <time>2021-08-03T16:31:13Z</time>
      </trkpt>
      <trkpt lat="43.254987" lon="-4.951827">
        <ele>1268.308</ele>
        <time>2021-08-03T16:31:18Z</time>
      </trkpt>
      <trkpt lat="43.254996" lon="-4.951888">
        <ele>1268.534</ele>
        <time>2021-08-03T16:31:22Z</time>
      </trkpt>
      <trkpt lat="43.255008" lon="-4.951948">
        <ele>1268.626</ele>
        <time>2021-08-03T16:31:28Z</time>
      </trkpt>
      <trkpt lat="43.255026" lon="-4.952006">
        <ele>1268.276</ele>
        <time>2021-08-03T16:31:33Z</time>
      </trkpt>
      <trkpt lat="43.255038" lon="-4.952068">
        <ele>1268.262</ele>
        <time>2021-08-03T16:32:08Z</time>
      </trkpt>
      <trkpt lat="43.255038" lon="-4.952139">
        <ele>1269.022</ele>
        <time>2021-08-03T16:32:13Z</time>
      </trkpt>
      <trkpt lat="43.25502" lon="-4.952197">
        <ele>1270.667</ele>
        <time>2021-08-03T16:32:45Z</time>
      </trkpt>
      <trkpt lat="43.255024" lon="-4.952263">
        <ele>1271.240</ele>
        <time>2021-08-03T16:33:00Z</time>
      </trkpt>
      <trkpt lat="43.255007" lon="-4.952328">
        <ele>1272.825</ele>
        <time>2021-08-03T16:33:09Z</time>
      </trkpt>
      <trkpt lat="43.255027" lon="-4.952391">
        <ele>1272.721</ele>
        <time>2021-08-03T16:33:17Z</time>
      </trkpt>
      <trkpt lat="43.255049" lon="-4.952448">
        <ele>1272.841</ele>
        <time>2021-08-03T16:33:27Z</time>
      </trkpt>
      <trkpt lat="43.255051" lon="-4.952513">
        <ele>1274.005</ele>
        <time>2021-08-03T16:33:34Z</time>
      </trkpt>
      <trkpt lat="43.255052" lon="-4.952579">
        <ele>1276.208</ele>
        <time>2021-08-03T16:33:43Z</time>
      </trkpt>
      <trkpt lat="43.25502" lon="-4.952652">
        <ele>1279.879</ele>
        <time>2021-08-03T16:34:31Z</time>
      </trkpt>
      <trkpt lat="43.255054" lon="-4.952693">
        <ele>1280.031</ele>
        <time>2021-08-03T16:34:39Z</time>
      </trkpt>
      <trkpt lat="43.255091" lon="-4.95273">
        <ele>1279.851</ele>
        <time>2021-08-03T16:34:47Z</time>
      </trkpt>
      <trkpt lat="43.255141" lon="-4.952757">
        <ele>1278.857</ele>
        <time>2021-08-03T16:34:54Z</time>
      </trkpt>
      <trkpt lat="43.255179" lon="-4.952805">
        <ele>1278.597</ele>
        <time>2021-08-03T16:34:58Z</time>
      </trkpt>
      <trkpt lat="43.25519" lon="-4.952869">
        <ele>1279.372</ele>
        <time>2021-08-03T16:35:04Z</time>
      </trkpt>
      <trkpt lat="43.255181" lon="-4.952935">
        <ele>1281.195</ele>
        <time>2021-08-03T16:35:12Z</time>
      </trkpt>
      <trkpt lat="43.25518" lon="-4.952997">
        <ele>1282.430</ele>
        <time>2021-08-03T16:35:15Z</time>
      </trkpt>
      <trkpt lat="43.25519" lon="-4.953061">
        <ele>1283.296</ele>
        <time>2021-08-03T16:35:19Z</time>
      </trkpt>
      <trkpt lat="43.255206" lon="-4.953121">
        <ele>1283.531</ele>
        <time>2021-08-03T16:35:24Z</time>
      </trkpt>
      <trkpt lat="43.255221" lon="-4.953186">
        <ele>1283.924</ele>
        <time>2021-08-03T16:35:33Z</time>
      </trkpt>
      <trkpt lat="43.255254" lon="-4.953232">
        <ele>1283.208</ele>
        <time>2021-08-03T16:35:39Z</time>
      </trkpt>
      <trkpt lat="43.255278" lon="-4.953285">
        <ele>1283.166</ele>
        <time>2021-08-03T16:35:49Z</time>
      </trkpt>
      <trkpt lat="43.2553" lon="-4.953353">
        <ele>1282.848</ele>
        <time>2021-08-03T16:36:11Z</time>
      </trkpt>
      <trkpt lat="43.255341" lon="-4.953395">
        <ele>1280.728</ele>
        <time>2021-08-03T16:36:16Z</time>
      </trkpt>
      <trkpt lat="43.255361" lon="-4.953457">
        <ele>1279.994</ele>
        <time>2021-08-03T16:36:21Z</time>
      </trkpt>
      <trkpt lat="43.255398" lon="-4.953495">
        <ele>1278.364</ele>
        <time>2021-08-03T16:36:27Z</time>
      </trkpt>
      <trkpt lat="43.255419" lon="-4.953554">
        <ele>1277.629</ele>
        <time>2021-08-03T16:36:33Z</time>
      </trkpt>
      <trkpt lat="43.255439" lon="-4.953612">
        <ele>1277.032</ele>
        <time>2021-08-03T16:36:39Z</time>
      </trkpt>
      <trkpt lat="43.255462" lon="-4.953667">
        <ele>1276.397</ele>
        <time>2021-08-03T16:36:45Z</time>
      </trkpt>
      <trkpt lat="43.255474" lon="-4.953733">
        <ele>1276.137</ele>
        <time>2021-08-03T16:36:51Z</time>
      </trkpt>
      <trkpt lat="43.255508" lon="-4.953783">
        <ele>1274.849</ele>
        <time>2021-08-03T16:36:57Z</time>
      </trkpt>
      <trkpt lat="43.255537" lon="-4.953836">
        <ele>1273.713</ele>
        <time>2021-08-03T16:37:04Z</time>
      </trkpt>
      <trkpt lat="43.255561" lon="-4.95389">
        <ele>1272.808</ele>
        <time>2021-08-03T16:37:11Z</time>
      </trkpt>
      <trkpt lat="43.255592" lon="-4.953935">
        <ele>1271.410</ele>
        <time>2021-08-03T16:37:16Z</time>
      </trkpt>
      <trkpt lat="43.255593" lon="-4.954001">
        <ele>1271.262</ele>
        <time>2021-08-03T16:37:22Z</time>
      </trkpt>
      <trkpt lat="43.255622" lon="-4.954048">
        <ele>1270.132</ele>
        <time>2021-08-03T16:37:29Z</time>
      </trkpt>
      <trkpt lat="43.25567" lon="-4.954066">
        <ele>1268.448</ele>
        <time>2021-08-03T16:37:37Z</time>
      </trkpt>
      <trkpt lat="43.255695" lon="-4.954124">
        <ele>1267.578</ele>
        <time>2021-08-03T16:37:43Z</time>
      </trkpt>
      <trkpt lat="43.255734" lon="-4.954159">
        <ele>1266.243</ele>
        <time>2021-08-03T16:37:49Z</time>
      </trkpt>
      <trkpt lat="43.255786" lon="-4.954179">
        <ele>1264.566</ele>
        <time>2021-08-03T16:37:55Z</time>
      </trkpt>
      <trkpt lat="43.255823" lon="-4.954225">
        <ele>1262.991</ele>
        <time>2021-08-03T16:38:00Z</time>
      </trkpt>
      <trkpt lat="43.255857" lon="-4.954268">
        <ele>1261.663</ele>
        <time>2021-08-03T16:38:05Z</time>
      </trkpt>
      <trkpt lat="43.255892" lon="-4.954308">
        <ele>1260.644</ele>
        <time>2021-08-03T16:38:10Z</time>
      </trkpt>
      <trkpt lat="43.255927" lon="-4.95436">
        <ele>1259.918</ele>
        <time>2021-08-03T16:38:36Z</time>
      </trkpt>
      <trkpt lat="43.255961" lon="-4.954412">
        <ele>1259.508</ele>
        <time>2021-08-03T16:38:41Z</time>
      </trkpt>
      <trkpt lat="43.255951" lon="-4.954476">
        <ele>1259.713</ele>
        <time>2021-08-03T16:38:45Z</time>
      </trkpt>
      <trkpt lat="43.255956" lon="-4.954543">
        <ele>1259.545</ele>
        <time>2021-08-03T16:39:29Z</time>
      </trkpt>
      <trkpt lat="43.255989" lon="-4.954603">
        <ele>1259.065</ele>
        <time>2021-08-03T16:39:50Z</time>
      </trkpt>
      <trkpt lat="43.256039" lon="-4.954636">
        <ele>1258.331</ele>
        <time>2021-08-03T16:39:54Z</time>
      </trkpt>
      <trkpt lat="43.256077" lon="-4.954676">
        <ele>1257.641</ele>
        <time>2021-08-03T16:39:59Z</time>
      </trkpt>
      <trkpt lat="43.256121" lon="-4.954712">
        <ele>1257.016</ele>
        <time>2021-08-03T16:40:11Z</time>
      </trkpt>
      <trkpt lat="43.256116" lon="-4.954779">
        <ele>1257.479</ele>
        <time>2021-08-03T16:40:16Z</time>
      </trkpt>
      <trkpt lat="43.256134" lon="-4.954849">
        <ele>1257.744</ele>
        <time>2021-08-03T16:40:20Z</time>
      </trkpt>
      <trkpt lat="43.256156" lon="-4.954911">
        <ele>1257.912</ele>
        <time>2021-08-03T16:40:24Z</time>
      </trkpt>
      <trkpt lat="43.256187" lon="-4.954964">
        <ele>1258.032</ele>
        <time>2021-08-03T16:40:31Z</time>
      </trkpt>
      <trkpt lat="43.256223" lon="-4.955014">
        <ele>1257.805</ele>
        <time>2021-08-03T16:40:39Z</time>
      </trkpt>
      <trkpt lat="43.256255" lon="-4.955063">
        <ele>1257.308</ele>
        <time>2021-08-03T16:40:46Z</time>
      </trkpt>
      <trkpt lat="43.256273" lon="-4.955127">
        <ele>1256.848</ele>
        <time>2021-08-03T16:40:54Z</time>
      </trkpt>
      <trkpt lat="43.256308" lon="-4.955178">
        <ele>1255.670</ele>
        <time>2021-08-03T16:41:03Z</time>
      </trkpt>
      <trkpt lat="43.256353" lon="-4.955167">
        <ele>1254.510</ele>
        <time>2021-08-03T16:41:09Z</time>
      </trkpt>
      <trkpt lat="43.256379" lon="-4.955231">
        <ele>1253.076</ele>
        <time>2021-08-03T16:41:21Z</time>
      </trkpt>
      <trkpt lat="43.256391" lon="-4.955301">
        <ele>1251.646</ele>
        <time>2021-08-03T16:41:30Z</time>
      </trkpt>
      <trkpt lat="43.256403" lon="-4.955367">
        <ele>1250.131</ele>
        <time>2021-08-03T16:41:38Z</time>
      </trkpt>
      <trkpt lat="43.25643" lon="-4.955417">
        <ele>1248.364</ele>
        <time>2021-08-03T16:41:49Z</time>
      </trkpt>
      <trkpt lat="43.256447" lon="-4.955483">
        <ele>1246.659</ele>
        <time>2021-08-03T16:42:01Z</time>
      </trkpt>
      <trkpt lat="43.25648" lon="-4.955528">
        <ele>1244.548</ele>
        <time>2021-08-03T16:42:11Z</time>
      </trkpt>
      <trkpt lat="43.256487" lon="-4.955598">
        <ele>1243.561</ele>
        <time>2021-08-03T16:42:20Z</time>
      </trkpt>
      <trkpt lat="43.256492" lon="-4.955666">
        <ele>1242.917</ele>
        <time>2021-08-03T16:42:29Z</time>
      </trkpt>
      <trkpt lat="43.256506" lon="-4.955733">
        <ele>1241.908</ele>
        <time>2021-08-03T16:42:35Z</time>
      </trkpt>
      <trkpt lat="43.256506" lon="-4.9558">
        <ele>1241.651</ele>
        <time>2021-08-03T16:42:41Z</time>
      </trkpt>
      <trkpt lat="43.256521" lon="-4.955863">
        <ele>1241.143</ele>
        <time>2021-08-03T16:42:46Z</time>
      </trkpt>
      <trkpt lat="43.256533" lon="-4.955925">
        <ele>1241.543</ele>
        <time>2021-08-03T16:42:51Z</time>
      </trkpt>
      <trkpt lat="43.256571" lon="-4.95596">
        <ele>1240.739</ele>
        <time>2021-08-03T16:42:56Z</time>
      </trkpt>
      <trkpt lat="43.256622" lon="-4.955976">
        <ele>1239.429</ele>
        <time>2021-08-03T16:43:01Z</time>
      </trkpt>
      <trkpt lat="43.256662" lon="-4.956006">
        <ele>1238.914</ele>
        <time>2021-08-03T16:43:05Z</time>
      </trkpt>
      <trkpt lat="43.256681" lon="-4.956072">
        <ele>1240.097</ele>
        <time>2021-08-03T16:43:11Z</time>
      </trkpt>
      <trkpt lat="43.256714" lon="-4.956118">
        <ele>1240.612</ele>
        <time>2021-08-03T16:43:17Z</time>
      </trkpt>
      <trkpt lat="43.256723" lon="-4.956179">
        <ele>1241.139</ele>
        <time>2021-08-03T16:43:34Z</time>
      </trkpt>
      <trkpt lat="43.256724" lon="-4.956257">
        <ele>1241.901</ele>
        <time>2021-08-03T16:44:37Z</time>
      </trkpt>
      <trkpt lat="43.256732" lon="-4.956321">
        <ele>1242.521</ele>
        <time>2021-08-03T16:44:45Z</time>
      </trkpt>
      <trkpt lat="43.256739" lon="-4.956383">
        <ele>1243.208</ele>
        <time>2021-08-03T16:44:51Z</time>
      </trkpt>
      <trkpt lat="43.256758" lon="-4.956439">
        <ele>1243.430</ele>
        <time>2021-08-03T16:44:58Z</time>
      </trkpt>
      <trkpt lat="43.256792" lon="-4.956497">
        <ele>1243.842</ele>
        <time>2021-08-03T16:45:02Z</time>
      </trkpt>
      <trkpt lat="43.256815" lon="-4.956561">
        <ele>1244.222</ele>
        <time>2021-08-03T16:45:06Z</time>
      </trkpt>
      <trkpt lat="43.256851" lon="-4.956615">
        <ele>1245.018</ele>
        <time>2021-08-03T16:45:11Z</time>
      </trkpt>
      <trkpt lat="43.256877" lon="-4.956687">
        <ele>1245.738</ele>
        <time>2021-08-03T16:45:15Z</time>
      </trkpt>
      <trkpt lat="43.256901" lon="-4.956756">
        <ele>1245.953</ele>
        <time>2021-08-03T16:45:19Z</time>
      </trkpt>
      <trkpt lat="43.256927" lon="-4.956819">
        <ele>1246.176</ele>
        <time>2021-08-03T16:45:23Z</time>
      </trkpt>
      <trkpt lat="43.256938" lon="-4.956882">
        <ele>1246.181</ele>
        <time>2021-08-03T16:45:27Z</time>
      </trkpt>
      <trkpt lat="43.256959" lon="-4.95695">
        <ele>1246.549</ele>
        <time>2021-08-03T16:45:33Z</time>
      </trkpt>
      <trkpt lat="43.256976" lon="-4.957023">
        <ele>1246.702</ele>
        <time>2021-08-03T16:45:39Z</time>
      </trkpt>
      <trkpt lat="43.256994" lon="-4.957089">
        <ele>1246.922</ele>
        <time>2021-08-03T16:45:43Z</time>
      </trkpt>
      <trkpt lat="43.257003" lon="-4.957155">
        <ele>1246.808</ele>
        <time>2021-08-03T16:45:47Z</time>
      </trkpt>
      <trkpt lat="43.257023" lon="-4.957227">
        <ele>1246.961</ele>
        <time>2021-08-03T16:45:52Z</time>
      </trkpt>
      <trkpt lat="43.25702" lon="-4.957293">
        <ele>1246.483</ele>
        <time>2021-08-03T16:45:57Z</time>
      </trkpt>
      <trkpt lat="43.257063" lon="-4.95733">
        <ele>1247.273</ele>
        <time>2021-08-03T16:46:18Z</time>
      </trkpt>
      <trkpt lat="43.257099" lon="-4.957369">
        <ele>1247.869</ele>
        <time>2021-08-03T16:46:22Z</time>
      </trkpt>
      <trkpt lat="43.257131" lon="-4.957429">
        <ele>1248.269</ele>
        <time>2021-08-03T16:46:26Z</time>
      </trkpt>
      <trkpt lat="43.257151" lon="-4.957485">
        <ele>1248.364</ele>
        <time>2021-08-03T16:46:30Z</time>
      </trkpt>
      <trkpt lat="43.257175" lon="-4.95754">
        <ele>1248.667</ele>
        <time>2021-08-03T16:46:34Z</time>
      </trkpt>
      <trkpt lat="43.257192" lon="-4.957604">
        <ele>1248.892</ele>
        <time>2021-08-03T16:46:38Z</time>
      </trkpt>
      <trkpt lat="43.257197" lon="-4.957666">
        <ele>1248.738</ele>
        <time>2021-08-03T16:46:42Z</time>
      </trkpt>
      <trkpt lat="43.257183" lon="-4.957725">
        <ele>1248.170</ele>
        <time>2021-08-03T16:47:20Z</time>
      </trkpt>
      <trkpt lat="43.257194" lon="-4.957799">
        <ele>1248.217</ele>
        <time>2021-08-03T16:47:29Z</time>
      </trkpt>
      <trkpt lat="43.257196" lon="-4.957864">
        <ele>1248.508</ele>
        <time>2021-08-03T16:47:36Z</time>
      </trkpt>
      <trkpt lat="43.257224" lon="-4.957926">
        <ele>1249.620</ele>
        <time>2021-08-03T16:47:42Z</time>
      </trkpt>
      <trkpt lat="43.257238" lon="-4.958008">
        <ele>1250.242</ele>
        <time>2021-08-03T16:47:46Z</time>
      </trkpt>
      <trkpt lat="43.257256" lon="-4.958067">
        <ele>1250.782</ele>
        <time>2021-08-03T16:47:52Z</time>
      </trkpt>
      <trkpt lat="43.257282" lon="-4.958122">
        <ele>1251.358</ele>
        <time>2021-08-03T16:47:58Z</time>
      </trkpt>
      <trkpt lat="43.2573" lon="-4.958193">
        <ele>1251.758</ele>
        <time>2021-08-03T16:48:03Z</time>
      </trkpt>
      <trkpt lat="43.257314" lon="-4.958259">
        <ele>1252.093</ele>
        <time>2021-08-03T16:48:06Z</time>
      </trkpt>
      <trkpt lat="43.257329" lon="-4.958328">
        <ele>1252.336</ele>
        <time>2021-08-03T16:48:11Z</time>
      </trkpt>
      <trkpt lat="43.257346" lon="-4.958389">
        <ele>1252.221</ele>
        <time>2021-08-03T16:48:16Z</time>
      </trkpt>
      <trkpt lat="43.257377" lon="-4.958443">
        <ele>1252.392</ele>
        <time>2021-08-03T16:48:21Z</time>
      </trkpt>
      <trkpt lat="43.257415" lon="-4.958486">
        <ele>1252.773</ele>
        <time>2021-08-03T16:48:27Z</time>
      </trkpt>
      <trkpt lat="43.257442" lon="-4.958541">
        <ele>1252.720</ele>
        <time>2021-08-03T16:48:46Z</time>
      </trkpt>
      <trkpt lat="43.257458" lon="-4.9586">
        <ele>1252.408</ele>
        <time>2021-08-03T16:48:52Z</time>
      </trkpt>
      <trkpt lat="43.257488" lon="-4.958648">
        <ele>1252.866</ele>
        <time>2021-08-03T16:49:09Z</time>
      </trkpt>
      <trkpt lat="43.257519" lon="-4.958697">
        <ele>1253.238</ele>
        <time>2021-08-03T16:49:15Z</time>
      </trkpt>
      <trkpt lat="43.257551" lon="-4.958758">
        <ele>1253.438</ele>
        <time>2021-08-03T16:49:20Z</time>
      </trkpt>
      <trkpt lat="43.257584" lon="-4.958808">
        <ele>1253.534</ele>
        <time>2021-08-03T16:49:24Z</time>
      </trkpt>
      <trkpt lat="43.257618" lon="-4.958856">
        <ele>1253.554</ele>
        <time>2021-08-03T16:49:29Z</time>
      </trkpt>
      <trkpt lat="43.257642" lon="-4.958913">
        <ele>1253.629</ele>
        <time>2021-08-03T16:49:35Z</time>
      </trkpt>
      <trkpt lat="43.257645" lon="-4.958978">
        <ele>1253.912</ele>
        <time>2021-08-03T16:49:46Z</time>
      </trkpt>
      <trkpt lat="43.257648" lon="-4.959045">
        <ele>1254.257</ele>
        <time>2021-08-03T16:49:50Z</time>
      </trkpt>
      <trkpt lat="43.257658" lon="-4.959113">
        <ele>1254.693</ele>
        <time>2021-08-03T16:49:55Z</time>
      </trkpt>
      <trkpt lat="43.257664" lon="-4.959183">
        <ele>1255.165</ele>
        <time>2021-08-03T16:50:02Z</time>
      </trkpt>
      <trkpt lat="43.257676" lon="-4.959252">
        <ele>1255.921</ele>
        <time>2021-08-03T16:50:08Z</time>
      </trkpt>
      <trkpt lat="43.25767" lon="-4.959322">
        <ele>1256.408</ele>
        <time>2021-08-03T16:50:25Z</time>
      </trkpt>
      <trkpt lat="43.257677" lon="-4.95939">
        <ele>1257.266</ele>
        <time>2021-08-03T16:50:30Z</time>
      </trkpt>
      <trkpt lat="43.257668" lon="-4.959455">
        <ele>1257.418</ele>
        <time>2021-08-03T16:50:35Z</time>
      </trkpt>
      <trkpt lat="43.257656" lon="-4.959517">
        <ele>1257.148</ele>
        <time>2021-08-03T16:51:02Z</time>
      </trkpt>
      <trkpt lat="43.257663" lon="-4.959581">
        <ele>1257.314</ele>
        <time>2021-08-03T16:51:12Z</time>
      </trkpt>
      <trkpt lat="43.257684" lon="-4.959637">
        <ele>1258.054</ele>
        <time>2021-08-03T16:51:19Z</time>
      </trkpt>
      <trkpt lat="43.257687" lon="-4.959699">
        <ele>1258.199</ele>
        <time>2021-08-03T16:51:54Z</time>
      </trkpt>
      <trkpt lat="43.257702" lon="-4.959765">
        <ele>1258.632</ele>
        <time>2021-08-03T16:52:27Z</time>
      </trkpt>
      <trkpt lat="43.25773" lon="-4.959823">
        <ele>1259.577</ele>
        <time>2021-08-03T16:52:33Z</time>
      </trkpt>
      <trkpt lat="43.257757" lon="-4.959882">
        <ele>1260.494</ele>
        <time>2021-08-03T16:52:39Z</time>
      </trkpt>
      <trkpt lat="43.257777" lon="-4.959939">
        <ele>1261.057</ele>
        <time>2021-08-03T16:52:42Z</time>
      </trkpt>
      <trkpt lat="43.257785" lon="-4.960012">
        <ele>1261.422</ele>
        <time>2021-08-03T16:52:47Z</time>
      </trkpt>
      <trkpt lat="43.257787" lon="-4.960075">
        <ele>1261.708</ele>
        <time>2021-08-03T16:52:52Z</time>
      </trkpt>
      <trkpt lat="43.257786" lon="-4.960146">
        <ele>1261.926</ele>
        <time>2021-08-03T16:52:57Z</time>
      </trkpt>
      <trkpt lat="43.257782" lon="-4.960217">
        <ele>1262.048</ele>
        <time>2021-08-03T16:53:02Z</time>
      </trkpt>
      <trkpt lat="43.257795" lon="-4.960283">
        <ele>1262.738</ele>
        <time>2021-08-03T16:53:07Z</time>
      </trkpt>
      <trkpt lat="43.257811" lon="-4.960342">
        <ele>1263.284</ele>
        <time>2021-08-03T16:53:12Z</time>
      </trkpt>
      <trkpt lat="43.257834" lon="-4.960408">
        <ele>1263.994</ele>
        <time>2021-08-03T16:53:17Z</time>
      </trkpt>
      <trkpt lat="43.257852" lon="-4.960466">
        <ele>1264.359</ele>
        <time>2021-08-03T16:53:22Z</time>
      </trkpt>
      <trkpt lat="43.257877" lon="-4.960533">
        <ele>1265.072</ele>
        <time>2021-08-03T16:53:27Z</time>
      </trkpt>
      <trkpt lat="43.257898" lon="-4.960594">
        <ele>1265.337</ele>
        <time>2021-08-03T16:53:32Z</time>
      </trkpt>
      <trkpt lat="43.257924" lon="-4.960656">
        <ele>1265.763</ele>
        <time>2021-08-03T16:53:36Z</time>
      </trkpt>
      <trkpt lat="43.257945" lon="-4.960725">
        <ele>1265.844</ele>
        <time>2021-08-03T16:53:41Z</time>
      </trkpt>
      <trkpt lat="43.257967" lon="-4.960788">
        <ele>1266.018</ele>
        <time>2021-08-03T16:53:46Z</time>
      </trkpt>
      <trkpt lat="43.257973" lon="-4.960858">
        <ele>1265.308</ele>
        <time>2021-08-03T16:54:04Z</time>
      </trkpt>
      <trkpt lat="43.258002" lon="-4.960913">
        <ele>1265.533</ele>
        <time>2021-08-03T16:54:08Z</time>
      </trkpt>
      <trkpt lat="43.258029" lon="-4.960964">
        <ele>1265.695</ele>
        <time>2021-08-03T16:54:12Z</time>
      </trkpt>
      <trkpt lat="43.258069" lon="-4.961034">
        <ele>1266.045</ele>
        <time>2021-08-03T16:54:16Z</time>
      </trkpt>
      <trkpt lat="43.258102" lon="-4.961092">
        <ele>1266.311</ele>
        <time>2021-08-03T16:54:19Z</time>
      </trkpt>
      <trkpt lat="43.258131" lon="-4.961151">
        <ele>1266.521</ele>
        <time>2021-08-03T16:54:23Z</time>
      </trkpt>
      <trkpt lat="43.25816" lon="-4.961209">
        <ele>1266.656</ele>
        <time>2021-08-03T16:54:27Z</time>
      </trkpt>
      <trkpt lat="43.258192" lon="-4.961262">
        <ele>1266.989</ele>
        <time>2021-08-03T16:54:31Z</time>
      </trkpt>
      <trkpt lat="43.258221" lon="-4.961315">
        <ele>1267.054</ele>
        <time>2021-08-03T16:54:35Z</time>
      </trkpt>
      <trkpt lat="43.258252" lon="-4.961361">
        <ele>1267.421</ele>
        <time>2021-08-03T16:54:39Z</time>
      </trkpt>
      <trkpt lat="43.258285" lon="-4.961414">
        <ele>1267.741</ele>
        <time>2021-08-03T16:54:44Z</time>
      </trkpt>
      <trkpt lat="43.258313" lon="-4.961467">
        <ele>1268.005</ele>
        <time>2021-08-03T16:54:48Z</time>
      </trkpt>
      <trkpt lat="43.258344" lon="-4.961527">
        <ele>1268.508</ele>
        <time>2021-08-03T16:54:52Z</time>
      </trkpt>
      <trkpt lat="43.25837" lon="-4.961587">
        <ele>1268.829</ele>
        <time>2021-08-03T16:54:56Z</time>
      </trkpt>
      <trkpt lat="43.258402" lon="-4.961648">
        <ele>1269.471</ele>
        <time>2021-08-03T16:55:01Z</time>
      </trkpt>
      <trkpt lat="43.258421" lon="-4.96171">
        <ele>1269.941</ele>
        <time>2021-08-03T16:55:05Z</time>
      </trkpt>
      <trkpt lat="43.258449" lon="-4.961765">
        <ele>1271.047</ele>
        <time>2021-08-03T16:55:09Z</time>
      </trkpt>
      <trkpt lat="43.25847" lon="-4.961823">
        <ele>1271.817</ele>
        <time>2021-08-03T16:55:14Z</time>
      </trkpt>
      <trkpt lat="43.258488" lon="-4.961891">
        <ele>1272.532</ele>
        <time>2021-08-03T16:55:19Z</time>
      </trkpt>
      <trkpt lat="43.258504" lon="-4.961953">
        <ele>1273.215</ele>
        <time>2021-08-03T16:55:24Z</time>
      </trkpt>
      <trkpt lat="43.258495" lon="-4.962026">
        <ele>1272.420</ele>
        <time>2021-08-03T16:55:30Z</time>
      </trkpt>
      <trkpt lat="43.258498" lon="-4.962089">
        <ele>1272.327</ele>
        <time>2021-08-03T16:55:34Z</time>
      </trkpt>
      <trkpt lat="43.258523" lon="-4.96215">
        <ele>1273.268</ele>
        <time>2021-08-03T16:55:39Z</time>
      </trkpt>
      <trkpt lat="43.258533" lon="-4.962222">
        <ele>1273.314</ele>
        <time>2021-08-03T16:55:44Z</time>
      </trkpt>
      <trkpt lat="43.258529" lon="-4.962286">
        <ele>1272.808</ele>
        <time>2021-08-03T16:55:49Z</time>
      </trkpt>
      <trkpt lat="43.258547" lon="-4.962343">
        <ele>1273.259</ele>
        <time>2021-08-03T16:55:54Z</time>
      </trkpt>
      <trkpt lat="43.258568" lon="-4.962401">
        <ele>1273.871</ele>
        <time>2021-08-03T16:55:59Z</time>
      </trkpt>
      <trkpt lat="43.258576" lon="-4.96247">
        <ele>1273.731</ele>
        <time>2021-08-03T16:56:05Z</time>
      </trkpt>
      <trkpt lat="43.258595" lon="-4.962539">
        <ele>1274.267</ele>
        <time>2021-08-03T16:56:10Z</time>
      </trkpt>
      <trkpt lat="43.258603" lon="-4.962607">
        <ele>1274.367</ele>
        <time>2021-08-03T16:56:15Z</time>
      </trkpt>
      <trkpt lat="43.258608" lon="-4.962679">
        <ele>1274.272</ele>
        <time>2021-08-03T16:56:21Z</time>
      </trkpt>
      <trkpt lat="43.258633" lon="-4.962732">
        <ele>1275.165</ele>
        <time>2021-08-03T16:56:36Z</time>
      </trkpt>
      <trkpt lat="43.258648" lon="-4.962799">
        <ele>1275.610</ele>
        <time>2021-08-03T16:56:42Z</time>
      </trkpt>
      <trkpt lat="43.25866" lon="-4.962862">
        <ele>1275.942</ele>
        <time>2021-08-03T16:56:44Z</time>
      </trkpt>
      <trkpt lat="43.258669" lon="-4.962928">
        <ele>1276.022</ele>
        <time>2021-08-03T16:56:47Z</time>
      </trkpt>
      <trkpt lat="43.258682" lon="-4.962989">
        <ele>1276.314</ele>
        <time>2021-08-03T16:56:51Z</time>
      </trkpt>
      <trkpt lat="43.258696" lon="-4.963054">
        <ele>1276.508</ele>
        <time>2021-08-03T16:56:56Z</time>
      </trkpt>
      <trkpt lat="43.258698" lon="-4.963123">
        <ele>1276.431</ele>
        <time>2021-08-03T16:57:01Z</time>
      </trkpt>
      <trkpt lat="43.258711" lon="-4.963184">
        <ele>1276.583</ele>
        <time>2021-08-03T16:57:05Z</time>
      </trkpt>
      <trkpt lat="43.258733" lon="-4.963249">
        <ele>1276.733</ele>
        <time>2021-08-03T16:57:10Z</time>
      </trkpt>
      <trkpt lat="43.258775" lon="-4.96329">
        <ele>1277.199</ele>
        <time>2021-08-03T16:57:15Z</time>
      </trkpt>
      <trkpt lat="43.258816" lon="-4.963322">
        <ele>1277.349</ele>
        <time>2021-08-03T16:57:20Z</time>
      </trkpt>
      <trkpt lat="43.258862" lon="-4.963347">
        <ele>1277.644</ele>
        <time>2021-08-03T16:57:34Z</time>
      </trkpt>
      <trkpt lat="43.258902" lon="-4.963375">
        <ele>1277.657</ele>
        <time>2021-08-03T16:57:38Z</time>
      </trkpt>
      <trkpt lat="43.258953" lon="-4.963394">
        <ele>1277.692</ele>
        <time>2021-08-03T16:57:42Z</time>
      </trkpt>
      <trkpt lat="43.258999" lon="-4.963395">
        <ele>1277.762</ele>
        <time>2021-08-03T16:57:45Z</time>
      </trkpt>
      <trkpt lat="43.259045" lon="-4.963401">
        <ele>1277.883</ele>
        <time>2021-08-03T16:57:49Z</time>
      </trkpt>
      <trkpt lat="43.259098" lon="-4.963411">
        <ele>1277.911</ele>
        <time>2021-08-03T16:57:53Z</time>
      </trkpt>
      <trkpt lat="43.259152" lon="-4.963417">
        <ele>1278.008</ele>
        <time>2021-08-03T16:57:57Z</time>
      </trkpt>
      <trkpt lat="43.259204" lon="-4.963423">
        <ele>1278.223</ele>
        <time>2021-08-03T16:58:01Z</time>
      </trkpt>
      <trkpt lat="43.259256" lon="-4.963418">
        <ele>1278.425</ele>
        <time>2021-08-03T16:58:06Z</time>
      </trkpt>
      <trkpt lat="43.259303" lon="-4.963419">
        <ele>1278.595</ele>
        <time>2021-08-03T16:58:11Z</time>
      </trkpt>
      <trkpt lat="43.259351" lon="-4.963416">
        <ele>1278.711</ele>
        <time>2021-08-03T16:58:15Z</time>
      </trkpt>
      <trkpt lat="43.259403" lon="-4.963412">
        <ele>1278.911</ele>
        <time>2021-08-03T16:58:19Z</time>
      </trkpt>
      <trkpt lat="43.259447" lon="-4.963428">
        <ele>1279.046</ele>
        <time>2021-08-03T16:58:24Z</time>
      </trkpt>
      <trkpt lat="43.25949" lon="-4.96346">
        <ele>1279.189</ele>
        <time>2021-08-03T16:58:28Z</time>
      </trkpt>
      <trkpt lat="43.259528" lon="-4.963502">
        <ele>1279.234</ele>
        <time>2021-08-03T16:58:32Z</time>
      </trkpt>
      <trkpt lat="43.259558" lon="-4.963549">
        <ele>1279.557</ele>
        <time>2021-08-03T16:58:50Z</time>
      </trkpt>
      <trkpt lat="43.259602" lon="-4.963571">
        <ele>1279.900</ele>
        <time>2021-08-03T16:58:54Z</time>
      </trkpt>
      <trkpt lat="43.25964" lon="-4.963607">
        <ele>1280.420</ele>
        <time>2021-08-03T16:58:57Z</time>
      </trkpt>
      <trkpt lat="43.259686" lon="-4.963657">
        <ele>1281.008</ele>
        <time>2021-08-03T16:59:01Z</time>
      </trkpt>
      <trkpt lat="43.259724" lon="-4.963692">
        <ele>1281.622</ele>
        <time>2021-08-03T16:59:05Z</time>
      </trkpt>
      <trkpt lat="43.259774" lon="-4.96371">
        <ele>1281.134</ele>
        <time>2021-08-03T16:59:09Z</time>
      </trkpt>
      <trkpt lat="43.259819" lon="-4.963742">
        <ele>1280.974</ele>
        <time>2021-08-03T16:59:14Z</time>
      </trkpt>
      <trkpt lat="43.259855" lon="-4.96378">
        <ele>1280.990</ele>
        <time>2021-08-03T16:59:18Z</time>
      </trkpt>
      <trkpt lat="43.259895" lon="-4.963821">
        <ele>1281.040</ele>
        <time>2021-08-03T16:59:21Z</time>
      </trkpt>
      <trkpt lat="43.259927" lon="-4.963865">
        <ele>1281.285</ele>
        <time>2021-08-03T16:59:26Z</time>
      </trkpt>
      <trkpt lat="43.259955" lon="-4.96392">
        <ele>1281.428</ele>
        <time>2021-08-03T16:59:30Z</time>
      </trkpt>
      <trkpt lat="43.259984" lon="-4.963984">
        <ele>1281.513</ele>
        <time>2021-08-03T16:59:35Z</time>
      </trkpt>
      <trkpt lat="43.260005" lon="-4.964045">
        <ele>1281.533</ele>
        <time>2021-08-03T16:59:40Z</time>
      </trkpt>
      <trkpt lat="43.260026" lon="-4.964113">
        <ele>1281.623</ele>
        <time>2021-08-03T16:59:44Z</time>
      </trkpt>
      <trkpt lat="43.260049" lon="-4.964173">
        <ele>1281.715</ele>
        <time>2021-08-03T16:59:48Z</time>
      </trkpt>
      <trkpt lat="43.260065" lon="-4.964234">
        <ele>1281.908</ele>
        <time>2021-08-03T16:59:52Z</time>
      </trkpt>
      <trkpt lat="43.260077" lon="-4.964303">
        <ele>1282.220</ele>
        <time>2021-08-03T16:59:56Z</time>
      </trkpt>
      <trkpt lat="43.2601" lon="-4.964364">
        <ele>1282.562</ele>
        <time>2021-08-03T17:00:00Z</time>
      </trkpt>
      <trkpt lat="43.260133" lon="-4.96442">
        <ele>1282.842</ele>
        <time>2021-08-03T17:00:04Z</time>
      </trkpt>
      <trkpt lat="43.260159" lon="-4.964483">
        <ele>1282.938</ele>
        <time>2021-08-03T17:00:08Z</time>
      </trkpt>
      <trkpt lat="43.26018" lon="-4.964542">
        <ele>1282.928</ele>
        <time>2021-08-03T17:00:13Z</time>
      </trkpt>
      <trkpt lat="43.260193" lon="-4.964603">
        <ele>1282.873</ele>
        <time>2021-08-03T17:00:17Z</time>
      </trkpt>
      <trkpt lat="43.260214" lon="-4.964666">
        <ele>1282.856</ele>
        <time>2021-08-03T17:00:21Z</time>
      </trkpt>
      <trkpt lat="43.260249" lon="-4.964719">
        <ele>1282.931</ele>
        <time>2021-08-03T17:00:26Z</time>
      </trkpt>
      <trkpt lat="43.260279" lon="-4.964782">
        <ele>1282.663</ele>
        <time>2021-08-03T17:00:31Z</time>
      </trkpt>
      <trkpt lat="43.260301" lon="-4.964843">
        <ele>1282.944</ele>
        <time>2021-08-03T17:00:36Z</time>
      </trkpt>
      <trkpt lat="43.260329" lon="-4.964891">
        <ele>1283.518</ele>
        <time>2021-08-03T17:00:40Z</time>
      </trkpt>
      <trkpt lat="43.260359" lon="-4.964947">
        <ele>1284.108</ele>
        <time>2021-08-03T17:00:44Z</time>
      </trkpt>
      <trkpt lat="43.260389" lon="-4.965004">
        <ele>1284.653</ele>
        <time>2021-08-03T17:00:50Z</time>
      </trkpt>
      <trkpt lat="43.260412" lon="-4.965064">
        <ele>1284.855</ele>
        <time>2021-08-03T17:00:55Z</time>
      </trkpt>
      <trkpt lat="43.260439" lon="-4.965117">
        <ele>1285.155</ele>
        <time>2021-08-03T17:01:00Z</time>
      </trkpt>
      <trkpt lat="43.260463" lon="-4.96517">
        <ele>1285.441</ele>
        <time>2021-08-03T17:01:05Z</time>
      </trkpt>
      <trkpt lat="43.260492" lon="-4.965229">
        <ele>1285.741</ele>
        <time>2021-08-03T17:01:10Z</time>
      </trkpt>
      <trkpt lat="43.260528" lon="-4.965284">
        <ele>1286.246</ele>
        <time>2021-08-03T17:01:16Z</time>
      </trkpt>
      <trkpt lat="43.26055" lon="-4.965347">
        <ele>1286.489</ele>
        <time>2021-08-03T17:01:21Z</time>
      </trkpt>
      <trkpt lat="43.260575" lon="-4.965407">
        <ele>1286.834</ele>
        <time>2021-08-03T17:01:26Z</time>
      </trkpt>
      <trkpt lat="43.260591" lon="-4.965472">
        <ele>1286.878</ele>
        <time>2021-08-03T17:01:31Z</time>
      </trkpt>
      <trkpt lat="43.260604" lon="-4.965542">
        <ele>1286.733</ele>
        <time>2021-08-03T17:01:36Z</time>
      </trkpt>
      <trkpt lat="43.2606" lon="-4.965612">
        <ele>1286.726</ele>
        <time>2021-08-03T17:01:40Z</time>
      </trkpt>
      <trkpt lat="43.2606" lon="-4.96568">
        <ele>1287.008</ele>
        <time>2021-08-03T17:01:44Z</time>
      </trkpt>
      <trkpt lat="43.260576" lon="-4.965739">
        <ele>1286.714</ele>
        <time>2021-08-03T17:01:49Z</time>
      </trkpt>
      <trkpt lat="43.260545" lon="-4.965795">
        <ele>1286.786</ele>
        <time>2021-08-03T17:01:53Z</time>
      </trkpt>
      <trkpt lat="43.260509" lon="-4.965844">
        <ele>1286.946</ele>
        <time>2021-08-03T17:01:57Z</time>
      </trkpt>
      <trkpt lat="43.260467" lon="-4.965867">
        <ele>1287.072</ele>
        <time>2021-08-03T17:02:04Z</time>
      </trkpt>
      <trkpt lat="43.260476" lon="-4.965931">
        <ele>1287.552</ele>
        <time>2021-08-03T17:02:15Z</time>
      </trkpt>
      <trkpt lat="43.260486" lon="-4.966">
        <ele>1288.087</ele>
        <time>2021-08-03T17:02:20Z</time>
      </trkpt>
      <trkpt lat="43.260499" lon="-4.96607">
        <ele>1288.310</ele>
        <time>2021-08-03T17:02:25Z</time>
      </trkpt>
      <trkpt lat="43.260514" lon="-4.966129">
        <ele>1288.515</ele>
        <time>2021-08-03T17:02:43Z</time>
      </trkpt>
      <trkpt lat="43.260523" lon="-4.966191">
        <ele>1288.742</ele>
        <time>2021-08-03T17:02:51Z</time>
      </trkpt>
      <trkpt lat="43.260551" lon="-4.966247">
        <ele>1288.622</ele>
        <time>2021-08-03T17:02:55Z</time>
      </trkpt>
      <trkpt lat="43.260576" lon="-4.966303">
        <ele>1288.714</ele>
        <time>2021-08-03T17:02:58Z</time>
      </trkpt>
      <trkpt lat="43.260601" lon="-4.966357">
        <ele>1288.908</ele>
        <time>2021-08-03T17:03:01Z</time>
      </trkpt>
      <trkpt lat="43.260627" lon="-4.966428">
        <ele>1289.221</ele>
        <time>2021-08-03T17:03:05Z</time>
      </trkpt>
      <trkpt lat="43.260655" lon="-4.966493">
        <ele>1289.593</ele>
        <time>2021-08-03T17:03:10Z</time>
      </trkpt>
      <trkpt lat="43.260678" lon="-4.966552">
        <ele>1289.883</ele>
        <time>2021-08-03T17:03:14Z</time>
      </trkpt>
      <trkpt lat="43.260697" lon="-4.966615">
        <ele>1290.259</ele>
        <time>2021-08-03T17:03:18Z</time>
      </trkpt>
      <trkpt lat="43.260708" lon="-4.966678">
        <ele>1290.659</ele>
        <time>2021-08-03T17:03:22Z</time>
      </trkpt>
      <trkpt lat="43.260721" lon="-4.966739">
        <ele>1290.924</ele>
        <time>2021-08-03T17:03:26Z</time>
      </trkpt>
      <trkpt lat="43.260744" lon="-4.966797">
        <ele>1291.167</ele>
        <time>2021-08-03T17:03:30Z</time>
      </trkpt>
      <trkpt lat="43.260766" lon="-4.966866">
        <ele>1291.532</ele>
        <time>2021-08-03T17:03:35Z</time>
      </trkpt>
      <trkpt lat="43.260778" lon="-4.966934">
        <ele>1291.834</ele>
        <time>2021-08-03T17:03:39Z</time>
      </trkpt>
      <trkpt lat="43.26076" lon="-4.967004">
        <ele>1291.755</ele>
        <time>2021-08-03T17:03:44Z</time>
      </trkpt>
      <trkpt lat="43.260753" lon="-4.967071">
        <ele>1291.610</ele>
        <time>2021-08-03T17:03:49Z</time>
      </trkpt>
      <trkpt lat="43.260756" lon="-4.967147">
        <ele>1291.508</ele>
        <time>2021-08-03T17:03:53Z</time>
      </trkpt>
      <trkpt lat="43.260777" lon="-4.967217">
        <ele>1291.620</ele>
        <time>2021-08-03T17:03:59Z</time>
      </trkpt>
      <trkpt lat="43.260789" lon="-4.96728">
        <ele>1291.462</ele>
        <time>2021-08-03T17:04:03Z</time>
      </trkpt>
      <trkpt lat="43.260792" lon="-4.96735">
        <ele>1291.242</ele>
        <time>2021-08-03T17:04:08Z</time>
      </trkpt>
      <trkpt lat="43.260803" lon="-4.967417">
        <ele>1291.058</ele>
        <time>2021-08-03T17:04:12Z</time>
      </trkpt>
      <trkpt lat="43.26081" lon="-4.967483">
        <ele>1290.828</ele>
        <time>2021-08-03T17:04:16Z</time>
      </trkpt>
      <trkpt lat="43.260813" lon="-4.967557">
        <ele>1290.213</ele>
        <time>2021-08-03T17:04:21Z</time>
      </trkpt>
      <trkpt lat="43.260821" lon="-4.967631">
        <ele>1289.596</ele>
        <time>2021-08-03T17:04:26Z</time>
      </trkpt>
      <trkpt lat="43.260834" lon="-4.967692">
        <ele>1288.931</ele>
        <time>2021-08-03T17:04:31Z</time>
      </trkpt>
      <trkpt lat="43.260848" lon="-4.967766">
        <ele>1288.431</ele>
        <time>2021-08-03T17:04:36Z</time>
      </trkpt>
      <trkpt lat="43.260861" lon="-4.96784">
        <ele>1287.761</ele>
        <time>2021-08-03T17:04:41Z</time>
      </trkpt>
      <trkpt lat="43.260886" lon="-4.967909">
        <ele>1287.307</ele>
        <time>2021-08-03T17:04:46Z</time>
      </trkpt>
      <trkpt lat="43.260902" lon="-4.967971">
        <ele>1286.908</ele>
        <time>2021-08-03T17:04:50Z</time>
      </trkpt>
      <trkpt lat="43.260917" lon="-4.968031">
        <ele>1286.430</ele>
        <time>2021-08-03T17:04:54Z</time>
      </trkpt>
      <trkpt lat="43.260941" lon="-4.968088">
        <ele>1286.422</ele>
        <time>2021-08-03T17:04:58Z</time>
      </trkpt>
      <trkpt lat="43.26096" lon="-4.968159">
        <ele>1286.212</ele>
        <time>2021-08-03T17:05:03Z</time>
      </trkpt>
      <trkpt lat="43.260976" lon="-4.968219">
        <ele>1286.128</ele>
        <time>2021-08-03T17:05:07Z</time>
      </trkpt>
      <trkpt lat="43.26099" lon="-4.968281">
        <ele>1286.128</ele>
        <time>2021-08-03T17:05:11Z</time>
      </trkpt>
      <trkpt lat="43.260996" lon="-4.968351">
        <ele>1285.823</ele>
        <time>2021-08-03T17:05:16Z</time>
      </trkpt>
      <trkpt lat="43.261005" lon="-4.968418">
        <ele>1285.786</ele>
        <time>2021-08-03T17:05:21Z</time>
      </trkpt>
      <trkpt lat="43.261015" lon="-4.968481">
        <ele>1285.711</ele>
        <time>2021-08-03T17:05:26Z</time>
      </trkpt>
      <trkpt lat="43.261027" lon="-4.968542">
        <ele>1285.716</ele>
        <time>2021-08-03T17:05:31Z</time>
      </trkpt>
      <trkpt lat="43.26104" lon="-4.968613">
        <ele>1285.776</ele>
        <time>2021-08-03T17:05:36Z</time>
      </trkpt>
      <trkpt lat="43.261046" lon="-4.968682">
        <ele>1285.613</ele>
        <time>2021-08-03T17:05:42Z</time>
      </trkpt>
      <trkpt lat="43.261049" lon="-4.968744">
        <ele>1285.408</ele>
        <time>2021-08-03T17:05:48Z</time>
      </trkpt>
      <trkpt lat="43.261043" lon="-4.968814">
        <ele>1285.038</ele>
        <time>2021-08-03T17:05:53Z</time>
      </trkpt>
      <trkpt lat="43.261033" lon="-4.968875">
        <ele>1284.810</ele>
        <time>2021-08-03T17:05:58Z</time>
      </trkpt>
      <trkpt lat="43.261042" lon="-4.968943">
        <ele>1284.140</ele>
        <time>2021-08-03T17:06:04Z</time>
      </trkpt>
      <trkpt lat="43.261061" lon="-4.969009">
        <ele>1283.146</ele>
        <time>2021-08-03T17:06:09Z</time>
      </trkpt>
      <trkpt lat="43.261077" lon="-4.969071">
        <ele>1282.116</ele>
        <time>2021-08-03T17:06:15Z</time>
      </trkpt>
      <trkpt lat="43.261082" lon="-4.969143">
        <ele>1280.921</ele>
        <time>2021-08-03T17:06:23Z</time>
      </trkpt>
      <trkpt lat="43.261065" lon="-4.9692">
        <ele>1280.044</ele>
        <time>2021-08-03T17:06:34Z</time>
      </trkpt>
      <trkpt lat="43.261076" lon="-4.969262">
        <ele>1278.179</ele>
        <time>2021-08-03T17:06:50Z</time>
      </trkpt>
      <trkpt lat="43.261083" lon="-4.969327">
        <ele>1276.277</ele>
        <time>2021-08-03T17:06:56Z</time>
      </trkpt>
      <trkpt lat="43.261095" lon="-4.969391">
        <ele>1274.161</ele>
        <time>2021-08-03T17:07:28Z</time>
      </trkpt>
      <trkpt lat="43.261085" lon="-4.969453">
        <ele>1272.827</ele>
        <time>2021-08-03T17:07:34Z</time>
      </trkpt>
      <trkpt lat="43.261126" lon="-4.969479">
        <ele>1271.308</ele>
        <time>2021-08-03T17:07:36Z</time>
      </trkpt>
      <trkpt lat="43.261139" lon="-4.969541">
        <ele>1270.034</ele>
        <time>2021-08-03T17:08:06Z</time>
      </trkpt>
      <trkpt lat="43.261161" lon="-4.969598">
        <ele>1268.696</ele>
        <time>2021-08-03T17:08:17Z</time>
      </trkpt>
      <trkpt lat="43.261177" lon="-4.969678">
        <ele>1266.696</ele>
        <time>2021-08-03T17:08:46Z</time>
      </trkpt>
      <trkpt lat="43.261225" lon="-4.969685">
        <ele>1266.272</ele>
        <time>2021-08-03T17:09:26Z</time>
      </trkpt>
      <trkpt lat="43.261271" lon="-4.969707">
        <ele>1265.392</ele>
        <time>2021-08-03T17:09:36Z</time>
      </trkpt>
      <trkpt lat="43.261302" lon="-4.969753">
        <ele>1263.727</ele>
        <time>2021-08-03T17:09:45Z</time>
      </trkpt>
      <trkpt lat="43.261324" lon="-4.969809">
        <ele>1261.710</ele>
        <time>2021-08-03T17:09:51Z</time>
      </trkpt>
      <trkpt lat="43.26135" lon="-4.969861">
        <ele>1259.475</ele>
        <time>2021-08-03T17:10:00Z</time>
      </trkpt>
      <trkpt lat="43.261386" lon="-4.9699">
        <ele>1257.045</ele>
        <time>2021-08-03T17:10:08Z</time>
      </trkpt>
      <trkpt lat="43.261415" lon="-4.969956">
        <ele>1255.347</ele>
        <time>2021-08-03T17:10:14Z</time>
      </trkpt>
      <trkpt lat="43.261445" lon="-4.970009">
        <ele>1254.011</ele>
        <time>2021-08-03T17:10:19Z</time>
      </trkpt>
      <trkpt lat="43.261468" lon="-4.970067">
        <ele>1253.108</ele>
        <time>2021-08-03T17:10:24Z</time>
      </trkpt>
      <trkpt lat="43.261499" lon="-4.970114">
        <ele>1252.311</ele>
        <time>2021-08-03T17:10:29Z</time>
      </trkpt>
      <trkpt lat="43.261526" lon="-4.970167">
        <ele>1251.253</ele>
        <time>2021-08-03T17:10:36Z</time>
      </trkpt>
      <trkpt lat="43.261562" lon="-4.970211">
        <ele>1250.133</ele>
        <time>2021-08-03T17:10:39Z</time>
      </trkpt>
      <trkpt lat="43.2616" lon="-4.970251">
        <ele>1248.979</ele>
        <time>2021-08-03T17:10:44Z</time>
      </trkpt>
      <trkpt lat="43.261646" lon="-4.970288">
        <ele>1247.639</ele>
        <time>2021-08-03T17:10:49Z</time>
      </trkpt>
      <trkpt lat="43.261693" lon="-4.970305">
        <ele>1247.744</ele>
        <time>2021-08-03T17:10:54Z</time>
      </trkpt>
      <trkpt lat="43.261735" lon="-4.97035">
        <ele>1247.227</ele>
        <time>2021-08-03T17:10:59Z</time>
      </trkpt>
      <trkpt lat="43.261771" lon="-4.970394">
        <ele>1246.682</ele>
        <time>2021-08-03T17:11:04Z</time>
      </trkpt>
      <trkpt lat="43.261805" lon="-4.970447">
        <ele>1245.623</ele>
        <time>2021-08-03T17:11:09Z</time>
      </trkpt>
      <trkpt lat="43.261838" lon="-4.970495">
        <ele>1244.883</ele>
        <time>2021-08-03T17:11:14Z</time>
      </trkpt>
      <trkpt lat="43.26186" lon="-4.970563">
        <ele>1243.011</ele>
        <time>2021-08-03T17:11:19Z</time>
      </trkpt>
      <trkpt lat="43.261888" lon="-4.970619">
        <ele>1241.908</ele>
        <time>2021-08-03T17:11:23Z</time>
      </trkpt>
      <trkpt lat="43.261913" lon="-4.970675">
        <ele>1240.559</ele>
        <time>2021-08-03T17:11:27Z</time>
      </trkpt>
      <trkpt lat="43.261943" lon="-4.970734">
        <ele>1238.931</ele>
        <time>2021-08-03T17:11:32Z</time>
      </trkpt>
      <trkpt lat="43.261979" lon="-4.970783">
        <ele>1238.431</ele>
        <time>2021-08-03T17:11:38Z</time>
      </trkpt>
      <trkpt lat="43.262007" lon="-4.970839">
        <ele>1237.487</ele>
        <time>2021-08-03T17:11:43Z</time>
      </trkpt>
      <trkpt lat="43.262049" lon="-4.970874">
        <ele>1238.517</ele>
        <time>2021-08-03T17:11:50Z</time>
      </trkpt>
      <trkpt lat="43.262095" lon="-4.970899">
        <ele>1239.652</ele>
        <time>2021-08-03T17:11:55Z</time>
      </trkpt>
      <trkpt lat="43.262141" lon="-4.97093">
        <ele>1240.245</ele>
        <time>2021-08-03T17:12:00Z</time>
      </trkpt>
      <trkpt lat="43.262183" lon="-4.970959">
        <ele>1240.570</ele>
        <time>2021-08-03T17:12:05Z</time>
      </trkpt>
      <trkpt lat="43.262226" lon="-4.970989">
        <ele>1240.491</ele>
        <time>2021-08-03T17:12:09Z</time>
      </trkpt>
      <trkpt lat="43.262278" lon="-4.971009">
        <ele>1240.381</ele>
        <time>2021-08-03T17:12:13Z</time>
      </trkpt>
      <trkpt lat="43.262321" lon="-4.971038">
        <ele>1239.719</ele>
        <time>2021-08-03T17:12:17Z</time>
      </trkpt>
      <trkpt lat="43.26236" lon="-4.971074">
        <ele>1238.808</ele>
        <time>2021-08-03T17:12:21Z</time>
      </trkpt>
      <trkpt lat="43.262402" lon="-4.971098">
        <ele>1238.466</ele>
        <time>2021-08-03T17:12:25Z</time>
      </trkpt>
      <trkpt lat="43.262452" lon="-4.971115">
        <ele>1238.528</ele>
        <time>2021-08-03T17:12:30Z</time>
      </trkpt>
      <trkpt lat="43.262498" lon="-4.971146">
        <ele>1238.968</ele>
        <time>2021-08-03T17:12:34Z</time>
      </trkpt>
      <trkpt lat="43.262542" lon="-4.971184">
        <ele>1238.694</ele>
        <time>2021-08-03T17:12:38Z</time>
      </trkpt>
      <trkpt lat="43.262581" lon="-4.971231">
        <ele>1238.264</ele>
        <time>2021-08-03T17:12:42Z</time>
      </trkpt>
      <trkpt lat="43.262622" lon="-4.971276">
        <ele>1237.639</ele>
        <time>2021-08-03T17:12:46Z</time>
      </trkpt>
      <trkpt lat="43.262662" lon="-4.971317">
        <ele>1237.042</ele>
        <time>2021-08-03T17:12:50Z</time>
      </trkpt>
      <trkpt lat="43.262699" lon="-4.971355">
        <ele>1236.297</ele>
        <time>2021-08-03T17:12:53Z</time>
      </trkpt>
      <trkpt lat="43.262737" lon="-4.971416">
        <ele>1235.662</ele>
        <time>2021-08-03T17:12:57Z</time>
      </trkpt>
      <trkpt lat="43.262774" lon="-4.971464">
        <ele>1235.383</ele>
        <time>2021-08-03T17:13:01Z</time>
      </trkpt>
      <trkpt lat="43.262809" lon="-4.971516">
        <ele>1235.011</ele>
        <time>2021-08-03T17:13:06Z</time>
      </trkpt>
      <trkpt lat="43.262847" lon="-4.971573">
        <ele>1234.308</ele>
        <time>2021-08-03T17:13:11Z</time>
      </trkpt>
      <trkpt lat="43.262889" lon="-4.971619">
        <ele>1233.483</ele>
        <time>2021-08-03T17:13:16Z</time>
      </trkpt>
      <trkpt lat="43.262906" lon="-4.971677">
        <ele>1232.735</ele>
        <time>2021-08-03T17:13:20Z</time>
      </trkpt>
      <trkpt lat="43.262939" lon="-4.971737">
        <ele>1231.755</ele>
        <time>2021-08-03T17:13:25Z</time>
      </trkpt>
      <trkpt lat="43.262966" lon="-4.971787">
        <ele>1230.831</ele>
        <time>2021-08-03T17:13:29Z</time>
      </trkpt>
      <trkpt lat="43.262994" lon="-4.97185">
        <ele>1229.931</ele>
        <time>2021-08-03T17:13:33Z</time>
      </trkpt>
      <trkpt lat="43.263018" lon="-4.971913">
        <ele>1229.186</ele>
        <time>2021-08-03T17:13:37Z</time>
      </trkpt>
      <trkpt lat="43.263045" lon="-4.971979">
        <ele>1228.069</ele>
        <time>2021-08-03T17:13:42Z</time>
      </trkpt>
      <trkpt lat="43.263035" lon="-4.972047">
        <ele>1227.884</ele>
        <time>2021-08-03T17:13:46Z</time>
      </trkpt>
      <trkpt lat="43.263025" lon="-4.972108">
        <ele>1227.752</ele>
        <time>2021-08-03T17:13:50Z</time>
      </trkpt>
      <trkpt lat="43.263014" lon="-4.972177">
        <ele>1227.553</ele>
        <time>2021-08-03T17:13:54Z</time>
      </trkpt>
      <trkpt lat="43.26304" lon="-4.97224">
        <ele>1226.508</ele>
        <time>2021-08-03T17:13:59Z</time>
      </trkpt>
      <trkpt lat="43.26307" lon="-4.972298">
        <ele>1226.008</ele>
        <time>2021-08-03T17:14:05Z</time>
      </trkpt>
      <trkpt lat="43.263094" lon="-4.972352">
        <ele>1225.782</ele>
        <time>2021-08-03T17:14:10Z</time>
      </trkpt>
      <trkpt lat="43.263117" lon="-4.972415">
        <ele>1225.324</ele>
        <time>2021-08-03T17:15:10Z</time>
      </trkpt>
      <trkpt lat="43.263159" lon="-4.972458">
        <ele>1224.494</ele>
        <time>2021-08-03T17:15:16Z</time>
      </trkpt>
      <trkpt lat="43.263187" lon="-4.972516">
        <ele>1223.740</ele>
        <time>2021-08-03T17:15:19Z</time>
      </trkpt>
      <trkpt lat="43.263213" lon="-4.972572">
        <ele>1223.170</ele>
        <time>2021-08-03T17:15:22Z</time>
      </trkpt>
      <trkpt lat="43.263239" lon="-4.972629">
        <ele>1222.535</ele>
        <time>2021-08-03T17:15:26Z</time>
      </trkpt>
      <trkpt lat="43.263267" lon="-4.972681">
        <ele>1221.898</ele>
        <time>2021-08-03T17:15:30Z</time>
      </trkpt>
      <trkpt lat="43.263298" lon="-4.972734">
        <ele>1221.023</ele>
        <time>2021-08-03T17:15:34Z</time>
      </trkpt>
      <trkpt lat="43.26333" lon="-4.972795">
        <ele>1220.281</ele>
        <time>2021-08-03T17:15:39Z</time>
      </trkpt>
      <trkpt lat="43.263362" lon="-4.972856">
        <ele>1219.861</ele>
        <time>2021-08-03T17:15:44Z</time>
      </trkpt>
      <trkpt lat="43.263404" lon="-4.972879">
        <ele>1219.317</ele>
        <time>2021-08-03T17:15:48Z</time>
      </trkpt>
      <trkpt lat="43.26345" lon="-4.972895">
        <ele>1218.608</ele>
        <time>2021-08-03T17:15:51Z</time>
      </trkpt>
      <trkpt lat="43.263501" lon="-4.972906">
        <ele>1217.885</ele>
        <time>2021-08-03T17:15:57Z</time>
      </trkpt>
      <trkpt lat="43.263544" lon="-4.972935">
        <ele>1217.117</ele>
        <time>2021-08-03T17:16:06Z</time>
      </trkpt>
      <trkpt lat="43.263559" lon="-4.972999">
        <ele>1216.957</ele>
        <time>2021-08-03T17:16:10Z</time>
      </trkpt>
      <trkpt lat="43.263563" lon="-4.973068">
        <ele>1216.843</ele>
        <time>2021-08-03T17:16:15Z</time>
      </trkpt>
      <trkpt lat="43.263593" lon="-4.973126">
        <ele>1216.133</ele>
        <time>2021-08-03T17:16:20Z</time>
      </trkpt>
      <trkpt lat="43.263621" lon="-4.973182">
        <ele>1215.768</ele>
        <time>2021-08-03T17:16:25Z</time>
      </trkpt>
      <trkpt lat="43.263633" lon="-4.973254">
        <ele>1215.591</ele>
        <time>2021-08-03T17:16:31Z</time>
      </trkpt>
      <trkpt lat="43.263655" lon="-4.973312">
        <ele>1215.646</ele>
        <time>2021-08-03T17:16:37Z</time>
      </trkpt>
      <trkpt lat="43.263668" lon="-4.973375">
        <ele>1215.424</ele>
        <time>2021-08-03T17:16:43Z</time>
      </trkpt>
      <trkpt lat="43.263674" lon="-4.973444">
        <ele>1215.104</ele>
        <time>2021-08-03T17:16:48Z</time>
      </trkpt>
      <trkpt lat="43.263693" lon="-4.973508">
        <ele>1214.914</ele>
        <time>2021-08-03T17:16:55Z</time>
      </trkpt>
      <trkpt lat="43.263733" lon="-4.973557">
        <ele>1214.808</ele>
        <time>2021-08-03T17:17:00Z</time>
      </trkpt>
      <trkpt lat="43.263755" lon="-4.973619">
        <ele>1214.519</ele>
        <time>2021-08-03T17:17:09Z</time>
      </trkpt>
      <trkpt lat="43.263787" lon="-4.973676">
        <ele>1214.261</ele>
        <time>2021-08-03T17:17:13Z</time>
      </trkpt>
      <trkpt lat="43.263806" lon="-4.973739">
        <ele>1213.711</ele>
        <time>2021-08-03T17:17:17Z</time>
      </trkpt>
      <trkpt lat="43.263839" lon="-4.973805">
        <ele>1212.817</ele>
        <time>2021-08-03T17:17:49Z</time>
      </trkpt>
      <trkpt lat="43.263882" lon="-4.973836">
        <ele>1211.937</ele>
        <time>2021-08-03T17:17:53Z</time>
      </trkpt>
      <trkpt lat="43.263907" lon="-4.973894">
        <ele>1211.552</ele>
        <time>2021-08-03T17:17:59Z</time>
      </trkpt>
      <trkpt lat="43.263896" lon="-4.973955">
        <ele>1210.585</ele>
        <time>2021-08-03T17:18:19Z</time>
      </trkpt>
      <trkpt lat="43.263916" lon="-4.974011">
        <ele>1210.430</ele>
        <time>2021-08-03T17:18:25Z</time>
      </trkpt>
      <trkpt lat="43.263929" lon="-4.974085">
        <ele>1209.978</ele>
        <time>2021-08-03T17:18:30Z</time>
      </trkpt>
      <trkpt lat="43.263921" lon="-4.974147">
        <ele>1209.033</ele>
        <time>2021-08-03T17:18:40Z</time>
      </trkpt>
      <trkpt lat="43.263931" lon="-4.974216">
        <ele>1208.326</ele>
        <time>2021-08-03T17:18:45Z</time>
      </trkpt>
      <trkpt lat="43.263952" lon="-4.974282">
        <ele>1207.708</ele>
        <time>2021-08-03T17:18:49Z</time>
      </trkpt>
      <trkpt lat="43.263981" lon="-4.974338">
        <ele>1207.494</ele>
        <time>2021-08-03T17:18:54Z</time>
      </trkpt>
      <trkpt lat="43.264006" lon="-4.974403">
        <ele>1206.896</ele>
        <time>2021-08-03T17:18:59Z</time>
      </trkpt>
      <trkpt lat="43.264031" lon="-4.974467">
        <ele>1206.056</ele>
        <time>2021-08-03T17:19:04Z</time>
      </trkpt>
      <trkpt lat="43.264059" lon="-4.974523">
        <ele>1205.132</ele>
        <time>2021-08-03T17:19:20Z</time>
      </trkpt>
      <trkpt lat="43.264078" lon="-4.974587">
        <ele>1203.872</ele>
        <time>2021-08-03T17:19:25Z</time>
      </trkpt>
      <trkpt lat="43.264114" lon="-4.974636">
        <ele>1202.967</ele>
        <time>2021-08-03T17:19:32Z</time>
      </trkpt>
      <trkpt lat="43.26416" lon="-4.97466">
        <ele>1202.770</ele>
        <time>2021-08-03T17:19:39Z</time>
      </trkpt>
      <trkpt lat="43.264176" lon="-4.974723">
        <ele>1200.935</ele>
        <time>2021-08-03T17:19:46Z</time>
      </trkpt>
      <trkpt lat="43.264216" lon="-4.974762">
        <ele>1199.657</ele>
        <time>2021-08-03T17:19:53Z</time>
      </trkpt>
      <trkpt lat="43.264209" lon="-4.974828">
        <ele>1197.700</ele>
        <time>2021-08-03T17:20:02Z</time>
      </trkpt>
      <trkpt lat="43.264255" lon="-4.974821">
        <ele>1197.620</ele>
        <time>2021-08-03T17:20:20Z</time>
      </trkpt>
      <trkpt lat="43.264308" lon="-4.974868">
        <ele>1195.808</ele>
        <time>2021-08-03T17:20:25Z</time>
      </trkpt>
      <trkpt lat="43.264352" lon="-4.974888">
        <ele>1194.852</ele>
        <time>2021-08-03T17:20:28Z</time>
      </trkpt>
      <trkpt lat="43.264404" lon="-4.974902">
        <ele>1193.944</ele>
        <time>2021-08-03T17:20:32Z</time>
      </trkpt>
      <trkpt lat="43.264449" lon="-4.974924">
        <ele>1192.724</ele>
        <time>2021-08-03T17:20:36Z</time>
      </trkpt>
      <trkpt lat="43.264497" lon="-4.974941">
        <ele>1192.310</ele>
        <time>2021-08-03T17:20:41Z</time>
      </trkpt>
      <trkpt lat="43.264544" lon="-4.974965">
        <ele>1191.640</ele>
        <time>2021-08-03T17:20:48Z</time>
      </trkpt>
      <trkpt lat="43.264586" lon="-4.974996">
        <ele>1190.665</ele>
        <time>2021-08-03T17:21:05Z</time>
      </trkpt>
      <trkpt lat="43.264633" lon="-4.975031">
        <ele>1190.398</ele>
        <time>2021-08-03T17:21:12Z</time>
      </trkpt>
      <trkpt lat="43.264689" lon="-4.975048">
        <ele>1189.983</ele>
        <time>2021-08-03T17:21:16Z</time>
      </trkpt>
      <trkpt lat="43.264739" lon="-4.975059">
        <ele>1189.478</ele>
        <time>2021-08-03T17:21:22Z</time>
      </trkpt>
      <trkpt lat="43.264782" lon="-4.975084">
        <ele>1188.433</ele>
        <time>2021-08-03T17:21:29Z</time>
      </trkpt>
      <trkpt lat="43.264805" lon="-4.975139">
        <ele>1186.826</ele>
        <time>2021-08-03T17:21:34Z</time>
      </trkpt>
      <trkpt lat="43.264833" lon="-4.97519">
        <ele>1185.108</ele>
        <time>2021-08-03T17:21:40Z</time>
      </trkpt>
      <trkpt lat="43.264875" lon="-4.97522">
        <ele>1183.924</ele>
        <time>2021-08-03T17:21:46Z</time>
      </trkpt>
      <trkpt lat="43.264919" lon="-4.9752">
        <ele>1184.056</ele>
        <time>2021-08-03T17:23:26Z</time>
      </trkpt>
      <trkpt lat="43.264966" lon="-4.975215">
        <ele>1183.196</ele>
        <time>2021-08-03T17:23:32Z</time>
      </trkpt>
      <trkpt lat="43.265008" lon="-4.975238">
        <ele>1182.092</ele>
        <time>2021-08-03T17:23:37Z</time>
      </trkpt>
      <trkpt lat="43.26505" lon="-4.975262">
        <ele>1180.692</ele>
        <time>2021-08-03T17:23:44Z</time>
      </trkpt>
      <trkpt lat="43.265095" lon="-4.975287">
        <ele>1179.097</ele>
        <time>2021-08-03T17:23:52Z</time>
      </trkpt>
      <trkpt lat="43.26514" lon="-4.975294">
        <ele>1178.130</ele>
        <time>2021-08-03T17:24:34Z</time>
      </trkpt>
      <trkpt lat="43.265193" lon="-4.975291">
        <ele>1177.285</ele>
        <time>2021-08-03T17:24:54Z</time>
      </trkpt>
      <trkpt lat="43.265234" lon="-4.975323">
        <ele>1175.858</ele>
        <time>2021-08-03T17:25:03Z</time>
      </trkpt>
      <trkpt lat="43.265277" lon="-4.975345">
        <ele>1174.652</ele>
        <time>2021-08-03T17:25:21Z</time>
      </trkpt>
      <trkpt lat="43.265301" lon="-4.975407">
        <ele>1173.717</ele>
        <time>2021-08-03T17:25:28Z</time>
      </trkpt>
      <trkpt lat="43.265333" lon="-4.975458">
        <ele>1173.208</ele>
        <time>2021-08-03T17:25:34Z</time>
      </trkpt>
      <trkpt lat="43.265356" lon="-4.975512">
        <ele>1172.462</ele>
        <time>2021-08-03T17:25:38Z</time>
      </trkpt>
      <trkpt lat="43.265373" lon="-4.975582">
        <ele>1171.184</ele>
        <time>2021-08-03T17:25:43Z</time>
      </trkpt>
      <trkpt lat="43.265362" lon="-4.975646">
        <ele>1169.584</ele>
        <time>2021-08-03T17:25:50Z</time>
      </trkpt>
      <trkpt lat="43.26541" lon="-4.975638">
        <ele>1170.370</ele>
        <time>2021-08-03T17:26:05Z</time>
      </trkpt>
      <trkpt lat="43.265433" lon="-4.975692">
        <ele>1169.230</ele>
        <time>2021-08-03T17:26:13Z</time>
      </trkpt>
      <trkpt lat="43.265462" lon="-4.97575">
        <ele>1168.055</ele>
        <time>2021-08-03T17:26:20Z</time>
      </trkpt>
      <trkpt lat="43.265491" lon="-4.975807">
        <ele>1166.578</ele>
        <time>2021-08-03T17:26:29Z</time>
      </trkpt>
      <trkpt lat="43.265533" lon="-4.975835">
        <ele>1165.923</ele>
        <time>2021-08-03T17:26:34Z</time>
      </trkpt>
      <trkpt lat="43.265575" lon="-4.975878">
        <ele>1165.059</ele>
        <time>2021-08-03T17:26:40Z</time>
      </trkpt>
      <trkpt lat="43.265622" lon="-4.975878">
        <ele>1165.003</ele>
        <time>2021-08-03T17:26:45Z</time>
      </trkpt>
      <trkpt lat="43.265671" lon="-4.975904">
        <ele>1164.523</ele>
        <time>2021-08-03T17:26:51Z</time>
      </trkpt>
      <trkpt lat="43.265709" lon="-4.975941">
        <ele>1163.708</ele>
        <time>2021-08-03T17:26:57Z</time>
      </trkpt>
      <trkpt lat="43.265747" lon="-4.975986">
        <ele>1162.712</ele>
        <time>2021-08-03T17:27:01Z</time>
      </trkpt>
      <trkpt lat="43.265789" lon="-4.97601">
        <ele>1162.234</ele>
        <time>2021-08-03T17:27:06Z</time>
      </trkpt>
      <trkpt lat="43.265835" lon="-4.975997">
        <ele>1162.564</ele>
        <time>2021-08-03T17:27:13Z</time>
      </trkpt>
      <trkpt lat="43.265878" lon="-4.97603">
        <ele>1162.390</ele>
        <time>2021-08-03T17:27:20Z</time>
      </trkpt>
      <trkpt lat="43.265913" lon="-4.976079">
        <ele>1161.870</ele>
        <time>2021-08-03T17:27:27Z</time>
      </trkpt>
      <trkpt lat="43.265952" lon="-4.976125">
        <ele>1161.455</ele>
        <time>2021-08-03T17:27:50Z</time>
      </trkpt>
      <trkpt lat="43.265971" lon="-4.976189">
        <ele>1160.488</ele>
        <time>2021-08-03T17:27:56Z</time>
      </trkpt>
      <trkpt lat="43.265989" lon="-4.976255">
        <ele>1159.433</ele>
        <time>2021-08-03T17:28:04Z</time>
      </trkpt>
      <trkpt lat="43.266028" lon="-4.976287">
        <ele>1159.441</ele>
        <time>2021-08-03T17:28:08Z</time>
      </trkpt>
      <trkpt lat="43.266053" lon="-4.976353">
        <ele>1158.681</ele>
        <time>2021-08-03T17:28:13Z</time>
      </trkpt>
      <trkpt lat="43.266093" lon="-4.976389">
        <ele>1158.709</ele>
        <time>2021-08-03T17:28:18Z</time>
      </trkpt>
      <trkpt lat="43.266132" lon="-4.976434">
        <ele>1158.708</ele>
        <time>2021-08-03T17:28:23Z</time>
      </trkpt>
      <trkpt lat="43.266166" lon="-4.97648">
        <ele>1158.911</ele>
        <time>2021-08-03T17:28:27Z</time>
      </trkpt>
      <trkpt lat="43.266194" lon="-4.976546">
        <ele>1158.633</ele>
        <time>2021-08-03T17:28:32Z</time>
      </trkpt>
      <trkpt lat="43.266213" lon="-4.976605">
        <ele>1158.273</ele>
        <time>2021-08-03T17:28:40Z</time>
      </trkpt>
      <trkpt lat="43.266195" lon="-4.976673">
        <ele>1156.219</ele>
        <time>2021-08-03T17:28:48Z</time>
      </trkpt>
      <trkpt lat="43.266184" lon="-4.976742">
        <ele>1154.969</ele>
        <time>2021-08-03T17:28:55Z</time>
      </trkpt>
      <trkpt lat="43.266199" lon="-4.976803">
        <ele>1154.734</ele>
        <time>2021-08-03T17:28:57Z</time>
      </trkpt>
      <trkpt lat="43.266217" lon="-4.976861">
        <ele>1154.647</ele>
        <time>2021-08-03T17:29:00Z</time>
      </trkpt>
      <trkpt lat="43.266243" lon="-4.976917">
        <ele>1154.782</ele>
        <time>2021-08-03T17:29:09Z</time>
      </trkpt>
      <trkpt lat="43.266288" lon="-4.976946">
        <ele>1155.713</ele>
        <time>2021-08-03T17:29:24Z</time>
      </trkpt>
      <trkpt lat="43.266326" lon="-4.976986">
        <ele>1156.243</ele>
        <time>2021-08-03T17:29:29Z</time>
      </trkpt>
      <trkpt lat="43.266354" lon="-4.977048">
        <ele>1156.007</ele>
        <time>2021-08-03T17:29:33Z</time>
      </trkpt>
      <trkpt lat="43.266391" lon="-4.977094">
        <ele>1156.308</ele>
        <time>2021-08-03T17:29:37Z</time>
      </trkpt>
      <trkpt lat="43.266435" lon="-4.977113">
        <ele>1156.758</ele>
        <time>2021-08-03T17:29:41Z</time>
      </trkpt>
      <trkpt lat="43.266448" lon="-4.977176">
        <ele>1155.750</ele>
        <time>2021-08-03T17:30:25Z</time>
      </trkpt>
      <trkpt lat="43.2665" lon="-4.977183">
        <ele>1156.430</ele>
        <time>2021-08-03T17:30:33Z</time>
      </trkpt>
      <trkpt lat="43.266542" lon="-4.977213">
        <ele>1156.466</ele>
        <time>2021-08-03T17:30:40Z</time>
      </trkpt>
      <trkpt lat="43.26659" lon="-4.977238">
        <ele>1156.446</ele>
        <time>2021-08-03T17:30:46Z</time>
      </trkpt>
      <trkpt lat="43.266639" lon="-4.977264">
        <ele>1156.431</ele>
        <time>2021-08-03T17:30:52Z</time>
      </trkpt>
      <trkpt lat="43.266674" lon="-4.977312">
        <ele>1155.514</ele>
        <time>2021-08-03T17:30:57Z</time>
      </trkpt>
      <trkpt lat="43.26671" lon="-4.977362">
        <ele>1154.749</ele>
        <time>2021-08-03T17:31:00Z</time>
      </trkpt>
      <trkpt lat="43.266737" lon="-4.977413">
        <ele>1153.688</ele>
        <time>2021-08-03T17:31:06Z</time>
      </trkpt>
      <trkpt lat="43.266782" lon="-4.977422">
        <ele>1154.024</ele>
        <time>2021-08-03T17:31:30Z</time>
      </trkpt>
      <trkpt lat="43.266805" lon="-4.977482">
        <ele>1152.526</ele>
        <time>2021-08-03T17:31:39Z</time>
      </trkpt>
      <trkpt lat="43.266831" lon="-4.977534">
        <ele>1151.608</ele>
        <time>2021-08-03T17:31:45Z</time>
      </trkpt>
      <trkpt lat="43.266861" lon="-4.977595">
        <ele>1150.855</ele>
        <time>2021-08-03T17:31:51Z</time>
      </trkpt>
      <trkpt lat="43.266875" lon="-4.977655">
        <ele>1149.887</ele>
        <time>2021-08-03T17:31:55Z</time>
      </trkpt>
      <trkpt lat="43.266894" lon="-4.977714">
        <ele>1149.097</ele>
        <time>2021-08-03T17:32:00Z</time>
      </trkpt>
      <trkpt lat="43.266929" lon="-4.977765">
        <ele>1148.833</ele>
        <time>2021-08-03T17:32:06Z</time>
      </trkpt>
      <trkpt lat="43.266963" lon="-4.977808">
        <ele>1148.583</ele>
        <time>2021-08-03T17:32:11Z</time>
      </trkpt>
      <trkpt lat="43.267003" lon="-4.977848">
        <ele>1148.048</ele>
        <time>2021-08-03T17:32:19Z</time>
      </trkpt>
      <trkpt lat="43.267054" lon="-4.977861">
        <ele>1148.191</ele>
        <time>2021-08-03T17:32:25Z</time>
      </trkpt>
      <trkpt lat="43.267104" lon="-4.977846">
        <ele>1148.846</ele>
        <time>2021-08-03T17:32:30Z</time>
      </trkpt>
      <trkpt lat="43.267141" lon="-4.977888">
        <ele>1148.351</ele>
        <time>2021-08-03T17:32:34Z</time>
      </trkpt>
      <trkpt lat="43.267155" lon="-4.977954">
        <ele>1147.201</ele>
        <time>2021-08-03T17:32:39Z</time>
      </trkpt>
      <trkpt lat="43.267198" lon="-4.977933">
        <ele>1148.011</ele>
        <time>2021-08-03T17:32:53Z</time>
      </trkpt>
      <trkpt lat="43.267247" lon="-4.977962">
        <ele>1148.108</ele>
        <time>2021-08-03T17:32:58Z</time>
      </trkpt>
      <trkpt lat="43.267256" lon="-4.978031">
        <ele>1147.042</ele>
        <time>2021-08-03T17:33:31Z</time>
      </trkpt>
      <trkpt lat="43.267302" lon="-4.978062">
        <ele>1147.044</ele>
        <time>2021-08-03T17:33:37Z</time>
      </trkpt>
      <trkpt lat="43.267369" lon="-4.978078">
        <ele>1147.524</ele>
        <time>2021-08-03T17:34:20Z</time>
      </trkpt>
      <trkpt lat="43.267398" lon="-4.97813">
        <ele>1146.480</ele>
        <time>2021-08-03T17:34:27Z</time>
      </trkpt>
      <trkpt lat="43.267448" lon="-4.978176">
        <ele>1145.810</ele>
        <time>2021-08-03T17:34:31Z</time>
      </trkpt>
      <trkpt lat="43.2675" lon="-4.978212">
        <ele>1145.555</ele>
        <time>2021-08-03T17:34:36Z</time>
      </trkpt>
      <trkpt lat="43.267546" lon="-4.978241">
        <ele>1145.338</ele>
        <time>2021-08-03T17:34:39Z</time>
      </trkpt>
      <trkpt lat="43.267593" lon="-4.978268">
        <ele>1145.153</ele>
        <time>2021-08-03T17:34:45Z</time>
      </trkpt>
      <trkpt lat="43.267631" lon="-4.978309">
        <ele>1144.549</ele>
        <time>2021-08-03T17:34:51Z</time>
      </trkpt>
      <trkpt lat="43.267681" lon="-4.978342">
        <ele>1144.402</ele>
        <time>2021-08-03T17:34:57Z</time>
      </trkpt>
      <trkpt lat="43.267728" lon="-4.97837">
        <ele>1144.322</ele>
        <time>2021-08-03T17:35:03Z</time>
      </trkpt>
      <trkpt lat="43.267765" lon="-4.978411">
        <ele>1143.808</ele>
        <time>2021-08-03T17:35:08Z</time>
      </trkpt>
      <trkpt lat="43.267792" lon="-4.978462">
        <ele>1143.091</ele>
        <time>2021-08-03T17:35:14Z</time>
      </trkpt>
      <trkpt lat="43.267771" lon="-4.978517">
        <ele>1141.373</ele>
        <time>2021-08-03T17:35:54Z</time>
      </trkpt>
      <trkpt lat="43.267815" lon="-4.978552">
        <ele>1141.193</ele>
        <time>2021-08-03T17:36:04Z</time>
      </trkpt>
      <trkpt lat="43.267858" lon="-4.9786">
        <ele>1140.729</ele>
        <time>2021-08-03T17:36:07Z</time>
      </trkpt>
      <trkpt lat="43.267905" lon="-4.978646">
        <ele>1140.579</ele>
        <time>2021-08-03T17:36:11Z</time>
      </trkpt>
      <trkpt lat="43.267946" lon="-4.978689">
        <ele>1140.264</ele>
        <time>2021-08-03T17:36:15Z</time>
      </trkpt>
      <trkpt lat="43.267986" lon="-4.978724">
        <ele>1140.087</ele>
        <time>2021-08-03T17:36:20Z</time>
      </trkpt>
      <trkpt lat="43.268013" lon="-4.978774">
        <ele>1139.262</ele>
        <time>2021-08-03T17:36:29Z</time>
      </trkpt>
      <trkpt lat="43.26805" lon="-4.978818">
        <ele>1138.764</ele>
        <time>2021-08-03T17:36:51Z</time>
      </trkpt>
      <trkpt lat="43.268075" lon="-4.978873">
        <ele>1137.706</ele>
        <time>2021-08-03T17:36:57Z</time>
      </trkpt>
      <trkpt lat="43.268127" lon="-4.978888">
        <ele>1138.116</ele>
        <time>2021-08-03T17:37:33Z</time>
      </trkpt>
      <trkpt lat="43.268169" lon="-4.97891">
        <ele>1138.108</ele>
        <time>2021-08-03T17:37:38Z</time>
      </trkpt>
      <trkpt lat="43.268206" lon="-4.978958">
        <ele>1137.433</ele>
        <time>2021-08-03T17:37:44Z</time>
      </trkpt>
      <trkpt lat="43.268259" lon="-4.978993">
        <ele>1137.385</ele>
        <time>2021-08-03T17:37:47Z</time>
      </trkpt>
      <trkpt lat="43.268307" lon="-4.979011">
        <ele>1137.545</ele>
        <time>2021-08-03T17:37:50Z</time>
      </trkpt>
      <trkpt lat="43.268349" lon="-4.979033">
        <ele>1138.031</ele>
        <time>2021-08-03T17:37:55Z</time>
      </trkpt>
      <trkpt lat="43.268397" lon="-4.979059">
        <ele>1139.481</ele>
        <time>2021-08-03T17:38:03Z</time>
      </trkpt>
      <trkpt lat="43.268443" lon="-4.97907">
        <ele>1141.266</ele>
        <time>2021-08-03T17:38:10Z</time>
      </trkpt>
      <trkpt lat="43.268453" lon="-4.979132">
        <ele>1140.319</ele>
        <time>2021-08-03T17:38:23Z</time>
      </trkpt>
      <trkpt lat="43.268485" lon="-4.979194">
        <ele>1139.984</ele>
        <time>2021-08-03T17:38:27Z</time>
      </trkpt>
      <trkpt lat="43.268521" lon="-4.979247">
        <ele>1139.038</ele>
        <time>2021-08-03T17:38:31Z</time>
      </trkpt>
      <trkpt lat="43.268559" lon="-4.979302">
        <ele>1137.670</ele>
        <time>2021-08-03T17:38:35Z</time>
      </trkpt>
      <trkpt lat="43.268601" lon="-4.979341">
        <ele>1136.717</ele>
        <time>2021-08-03T17:38:40Z</time>
      </trkpt>
      <trkpt lat="43.268641" lon="-4.979388">
        <ele>1135.008</ele>
        <time>2021-08-03T17:38:46Z</time>
      </trkpt>
      <trkpt lat="43.268682" lon="-4.979418">
        <ele>1134.450</ele>
        <time>2021-08-03T17:38:52Z</time>
      </trkpt>
      <trkpt lat="43.268727" lon="-4.979427">
        <ele>1135.232</ele>
        <time>2021-08-03T17:38:57Z</time>
      </trkpt>
      <trkpt lat="43.268766" lon="-4.979459">
        <ele>1134.862</ele>
        <time>2021-08-03T17:39:03Z</time>
      </trkpt>
      <trkpt lat="43.268809" lon="-4.979436">
        <ele>1137.198</ele>
        <time>2021-08-03T17:39:58Z</time>
      </trkpt>
      <trkpt lat="43.268837" lon="-4.979488">
        <ele>1135.148</ele>
        <time>2021-08-03T17:40:06Z</time>
      </trkpt>
      <trkpt lat="43.268883" lon="-4.979521">
        <ele>1134.213</ele>
        <time>2021-08-03T17:40:36Z</time>
      </trkpt>
      <trkpt lat="43.268899" lon="-4.979581">
        <ele>1130.596</ele>
        <time>2021-08-03T17:40:52Z</time>
      </trkpt>
      <trkpt lat="43.268951" lon="-4.979601">
        <ele>1128.521</ele>
        <time>2021-08-03T17:41:16Z</time>
      </trkpt>
      <trkpt lat="43.269002" lon="-4.979619">
        <ele>1126.922</ele>
        <time>2021-08-03T17:41:21Z</time>
      </trkpt>
      <trkpt lat="43.269051" lon="-4.979623">
        <ele>1126.062</ele>
        <time>2021-08-03T17:41:26Z</time>
      </trkpt>
      <trkpt lat="43.269098" lon="-4.979615">
        <ele>1125.808</ele>
        <time>2021-08-03T17:41:31Z</time>
      </trkpt>
      <trkpt lat="43.269151" lon="-4.97961">
        <ele>1125.308</ele>
        <time>2021-08-03T17:41:36Z</time>
      </trkpt>
      <trkpt lat="43.269197" lon="-4.979636">
        <ele>1123.889</ele>
        <time>2021-08-03T17:41:40Z</time>
      </trkpt>
      <trkpt lat="43.26924" lon="-4.979664">
        <ele>1122.461</ele>
        <time>2021-08-03T17:41:44Z</time>
      </trkpt>
      <trkpt lat="43.269288" lon="-4.979696">
        <ele>1121.241</ele>
        <time>2021-08-03T17:41:49Z</time>
      </trkpt>
      <trkpt lat="43.269334" lon="-4.979724">
        <ele>1120.457</ele>
        <time>2021-08-03T17:41:55Z</time>
      </trkpt>
      <trkpt lat="43.269386" lon="-4.979748">
        <ele>1119.937</ele>
        <time>2021-08-03T17:42:01Z</time>
      </trkpt>
      <trkpt lat="43.269432" lon="-4.979771">
        <ele>1119.382</ele>
        <time>2021-08-03T17:42:07Z</time>
      </trkpt>
      <trkpt lat="43.269478" lon="-4.979795">
        <ele>1118.835</ele>
        <time>2021-08-03T17:42:13Z</time>
      </trkpt>
      <trkpt lat="43.269527" lon="-4.979824">
        <ele>1118.260</ele>
        <time>2021-08-03T17:42:19Z</time>
      </trkpt>
      <trkpt lat="43.269568" lon="-4.979857">
        <ele>1117.682</ele>
        <time>2021-08-03T17:42:24Z</time>
      </trkpt>
      <trkpt lat="43.269606" lon="-4.979909">
        <ele>1116.743</ele>
        <time>2021-08-03T17:42:29Z</time>
      </trkpt>
      <trkpt lat="43.269637" lon="-4.979957">
        <ele>1115.917</ele>
        <time>2021-08-03T17:42:33Z</time>
      </trkpt>
      <trkpt lat="43.269673" lon="-4.980011">
        <ele>1115.108</ele>
        <time>2021-08-03T17:42:38Z</time>
      </trkpt>
      <trkpt lat="43.269699" lon="-4.980063">
        <ele>1114.635</ele>
        <time>2021-08-03T17:42:42Z</time>
      </trkpt>
      <trkpt lat="43.269722" lon="-4.980126">
        <ele>1114.157</ele>
        <time>2021-08-03T17:42:47Z</time>
      </trkpt>
      <trkpt lat="43.269745" lon="-4.980184">
        <ele>1113.867</ele>
        <time>2021-08-03T17:42:51Z</time>
      </trkpt>
      <trkpt lat="43.269787" lon="-4.980222">
        <ele>1113.683</ele>
        <time>2021-08-03T17:42:56Z</time>
      </trkpt>
      <trkpt lat="43.269836" lon="-4.980245">
        <ele>1113.693</ele>
        <time>2021-08-03T17:43:01Z</time>
      </trkpt>
      <trkpt lat="43.269878" lon="-4.980273">
        <ele>1113.678</ele>
        <time>2021-08-03T17:43:05Z</time>
      </trkpt>
      <trkpt lat="43.26992" lon="-4.980305">
        <ele>1113.731</ele>
        <time>2021-08-03T17:43:10Z</time>
      </trkpt>
      <trkpt lat="43.269956" lon="-4.980352">
        <ele>1113.896</ele>
        <time>2021-08-03T17:43:15Z</time>
      </trkpt>
      <trkpt lat="43.270001" lon="-4.980356">
        <ele>1114.012</ele>
        <time>2021-08-03T17:43:32Z</time>
      </trkpt>
      <trkpt lat="43.270046" lon="-4.980357">
        <ele>1114.232</ele>
        <time>2021-08-03T17:43:40Z</time>
      </trkpt>
      <trkpt lat="43.270038" lon="-4.980428">
        <ele>1114.105</ele>
        <time>2021-08-03T17:44:08Z</time>
      </trkpt>
      <trkpt lat="43.270064" lon="-4.980377">
        <ele>1114.308</ele>
        <time>2021-08-03T17:44:15Z</time>
      </trkpt>
      <trkpt lat="43.270101" lon="-4.980414">
        <ele>1114.498</ele>
        <time>2021-08-03T17:45:03Z</time>
      </trkpt>
      <trkpt lat="43.27014" lon="-4.980486">
        <ele>1114.380</ele>
        <time>2021-08-03T17:45:08Z</time>
      </trkpt>
      <trkpt lat="43.270173" lon="-4.98055">
        <ele>1114.020</ele>
        <time>2021-08-03T17:45:12Z</time>
      </trkpt>
      <trkpt lat="43.2702" lon="-4.98061">
        <ele>1113.726</ele>
        <time>2021-08-03T17:45:16Z</time>
      </trkpt>
      <trkpt lat="43.27022" lon="-4.980667">
        <ele>1113.556</ele>
        <time>2021-08-03T17:45:21Z</time>
      </trkpt>
      <trkpt lat="43.270251" lon="-4.980715">
        <ele>1113.431</ele>
        <time>2021-08-03T17:45:26Z</time>
      </trkpt>
      <trkpt lat="43.270281" lon="-4.980764">
        <ele>1113.354</ele>
        <time>2021-08-03T17:45:31Z</time>
      </trkpt>
      <trkpt lat="43.270326" lon="-4.98081">
        <ele>1113.389</ele>
        <time>2021-08-03T17:45:36Z</time>
      </trkpt>
      <trkpt lat="43.270366" lon="-4.980853">
        <ele>1113.238</ele>
        <time>2021-08-03T17:45:41Z</time>
      </trkpt>
      <trkpt lat="43.270403" lon="-4.980902">
        <ele>1113.270</ele>
        <time>2021-08-03T17:45:46Z</time>
      </trkpt>
      <trkpt lat="43.270435" lon="-4.980945">
        <ele>1113.217</ele>
        <time>2021-08-03T17:45:50Z</time>
      </trkpt>
      <trkpt lat="43.270475" lon="-4.98099">
        <ele>1113.108</ele>
        <time>2021-08-03T17:45:54Z</time>
      </trkpt>
      <trkpt lat="43.270516" lon="-4.981037">
        <ele>1113.190</ele>
        <time>2021-08-03T17:45:59Z</time>
      </trkpt>
      <trkpt lat="43.270554" lon="-4.981071">
        <ele>1113.122</ele>
        <time>2021-08-03T17:46:04Z</time>
      </trkpt>
      <trkpt lat="43.270598" lon="-4.981111">
        <ele>1113.362</ele>
        <time>2021-08-03T17:46:09Z</time>
      </trkpt>
      <trkpt lat="43.27064" lon="-4.981147">
        <ele>1113.628</ele>
        <time>2021-08-03T17:46:14Z</time>
      </trkpt>
      <trkpt lat="43.270688" lon="-4.981163">
        <ele>1114.068</ele>
        <time>2021-08-03T17:46:20Z</time>
      </trkpt>
    </trkseg>
  </trk>
</gpx>
